<?xml version="1.0" encoding="UTF-8"?>
<gpx version="1.1" creator="https://www.youtrack.es" xsi:schemaLocation="http://www.topografix.com/GPX/1/1 http://www.topografix.com/GPX/1/1/gpx.xsd http://www.garmin.com/xmlschemas/GpxExtensions/v3 http://www.garmin.com/xmlschemas/GpxExtensionsv3.xsd http://www.garmin.com/xmlschemas/TrackPointExtension/v1 http://www.garmin.com/xmlschemas/TrackPointExtensionv1.xsd" xmlns:gpxtpx="http://www.garmin.com/xmlschemas/TrackPointExtension/v1" xmlns:gpxx="http://www.garmin.com/xmlschemas/GpxExtensions/v3" xmlns:xsi="http://www.w3.org/2001/XMLSchema-instance">
  <metadata>
    <author>
      <name>David Arnáiz González</name>
      <email id="davidarnaizgonzalez" domain="hotmail.com"/>
    </author>
    <link href="https://www.youtrack.es">
      <text>YouTrack.es</text>
    </link>
    <time>2026-05-07T20:35:39Z</time>
  </metadata>
  <trk>
    <src>https://www.youtrack.es</src>
    <link href="https://www.youtrack.es/ruta/33334-entre-navarra-y-aragon">
      <text>YouTrack.es</text>
    </link>
    <trkseg>
      <trkpt lat="42.170215999999996" lon="-1.590253">
        <ele>268.884</ele>
        <time>2022-06-17T08:46:01Z</time>
      </trkpt>
      <trkpt lat="42.170215999999996" lon="-1.590253">
        <ele>262.607</ele>
        <time>2022-06-17T08:46:02Z</time>
      </trkpt>
      <trkpt lat="42.170254" lon="-1.5902699999999999">
        <ele>262.417</ele>
        <time>2022-06-17T08:46:13Z</time>
      </trkpt>
      <trkpt lat="42.170287" lon="-1.590288">
        <ele>262.409</ele>
        <time>2022-06-17T08:46:15Z</time>
      </trkpt>
      <trkpt lat="42.170407000000004" lon="-1.590344">
        <ele>262.449</ele>
        <time>2022-06-17T08:46:20Z</time>
      </trkpt>
      <trkpt lat="42.17047" lon="-1.590235">
        <ele>262.458</ele>
        <time>2022-06-17T08:46:24Z</time>
      </trkpt>
      <trkpt lat="42.170535" lon="-1.590054">
        <ele>262.463</ele>
        <time>2022-06-17T08:46:30Z</time>
      </trkpt>
      <trkpt lat="42.170546" lon="-1.59003">
        <ele>262.475</ele>
        <time>2022-06-17T08:46:31Z</time>
      </trkpt>
      <trkpt lat="42.170590000000004" lon="-1.590006">
        <ele>262.668</ele>
        <time>2022-06-17T08:46:33Z</time>
      </trkpt>
      <trkpt lat="42.17061400000001" lon="-1.590011">
        <ele>262.611</ele>
        <time>2022-06-17T08:46:34Z</time>
      </trkpt>
      <trkpt lat="42.17087200000001" lon="-1.590089">
        <ele>262.889</ele>
        <time>2022-06-17T08:46:43Z</time>
      </trkpt>
      <trkpt lat="42.17101200000001" lon="-1.5901560000000001">
        <ele>263.293</ele>
        <time>2022-06-17T08:46:48Z</time>
      </trkpt>
      <trkpt lat="42.171039000000015" lon="-1.59017">
        <ele>263.251</ele>
        <time>2022-06-17T08:46:49Z</time>
      </trkpt>
      <trkpt lat="42.17128200000001" lon="-1.5903120000000002">
        <ele>263.632</ele>
        <time>2022-06-17T08:46:58Z</time>
      </trkpt>
      <trkpt lat="42.17147400000001" lon="-1.5904390000000002">
        <ele>264.092</ele>
        <time>2022-06-17T08:47:05Z</time>
      </trkpt>
      <trkpt lat="42.171605000000014" lon="-1.59051">
        <ele>264.211</ele>
        <time>2022-06-17T08:47:11Z</time>
      </trkpt>
      <trkpt lat="42.17160600000001" lon="-1.590513">
        <ele>264.209</ele>
        <time>2022-06-17T08:47:14Z</time>
      </trkpt>
      <trkpt lat="42.17165900000001" lon="-1.5905230000000001">
        <ele>264.414</ele>
        <time>2022-06-17T08:47:28Z</time>
      </trkpt>
      <trkpt lat="42.171793000000015" lon="-1.5905420000000001">
        <ele>264.483</ele>
        <time>2022-06-17T08:47:33Z</time>
      </trkpt>
      <trkpt lat="42.171990000000015" lon="-1.5905630000000002">
        <ele>264.498</ele>
        <time>2022-06-17T08:47:40Z</time>
      </trkpt>
      <trkpt lat="42.17205700000002" lon="-1.5906840000000002">
        <ele>264.480</ele>
        <time>2022-06-17T08:47:44Z</time>
      </trkpt>
      <trkpt lat="42.172162000000014" lon="-1.5909260000000003">
        <ele>264.853</ele>
        <time>2022-06-17T08:47:50Z</time>
      </trkpt>
      <trkpt lat="42.172381000000016" lon="-1.5910140000000004">
        <ele>265.066</ele>
        <time>2022-06-17T08:47:56Z</time>
      </trkpt>
      <trkpt lat="42.17265300000002" lon="-1.5911410000000004">
        <ele>265.224</ele>
        <time>2022-06-17T08:48:03Z</time>
      </trkpt>
      <trkpt lat="42.172947000000015" lon="-1.5912780000000004">
        <ele>265.228</ele>
        <time>2022-06-17T08:48:10Z</time>
      </trkpt>
      <trkpt lat="42.17298700000001" lon="-1.5912920000000004">
        <ele>265.266</ele>
        <time>2022-06-17T08:48:11Z</time>
      </trkpt>
      <trkpt lat="42.17302700000001" lon="-1.5913070000000005">
        <ele>265.252</ele>
        <time>2022-06-17T08:48:12Z</time>
      </trkpt>
      <trkpt lat="42.17321900000001" lon="-1.5913890000000004">
        <ele>265.453</ele>
        <time>2022-06-17T08:48:18Z</time>
      </trkpt>
      <trkpt lat="42.17332700000001" lon="-1.5914440000000003">
        <ele>265.808</ele>
        <time>2022-06-17T08:48:23Z</time>
      </trkpt>
      <trkpt lat="42.173491000000006" lon="-1.5915280000000003">
        <ele>266.009</ele>
        <time>2022-06-17T08:48:28Z</time>
      </trkpt>
      <trkpt lat="42.17372" lon="-1.5917590000000004">
        <ele>265.846</ele>
        <time>2022-06-17T08:48:35Z</time>
      </trkpt>
      <trkpt lat="42.173774" lon="-1.5918520000000003">
        <ele>265.895</ele>
        <time>2022-06-17T08:48:37Z</time>
      </trkpt>
      <trkpt lat="42.173902" lon="-1.5920620000000003">
        <ele>265.820</ele>
        <time>2022-06-17T08:48:42Z</time>
      </trkpt>
      <trkpt lat="42.174112" lon="-1.5923400000000003">
        <ele>266.472</ele>
        <time>2022-06-17T08:48:49Z</time>
      </trkpt>
      <trkpt lat="42.174171" lon="-1.5924150000000004">
        <ele>266.645</ele>
        <time>2022-06-17T08:48:51Z</time>
      </trkpt>
      <trkpt lat="42.174477" lon="-1.5927110000000004">
        <ele>267.448</ele>
        <time>2022-06-17T08:49:00Z</time>
      </trkpt>
      <trkpt lat="42.174795" lon="-1.5929950000000004">
        <ele>268.026</ele>
        <time>2022-06-17T08:49:09Z</time>
      </trkpt>
      <trkpt lat="42.175003000000004" lon="-1.5933090000000003">
        <ele>268.260</ele>
        <time>2022-06-17T08:49:16Z</time>
      </trkpt>
      <trkpt lat="42.175102" lon="-1.5934360000000003">
        <ele>268.298</ele>
        <time>2022-06-17T08:49:19Z</time>
      </trkpt>
      <trkpt lat="42.175263" lon="-1.5936720000000002">
        <ele>268.452</ele>
        <time>2022-06-17T08:49:24Z</time>
      </trkpt>
      <trkpt lat="42.175392" lon="-1.5938520000000003">
        <ele>268.453</ele>
        <time>2022-06-17T08:49:28Z</time>
      </trkpt>
      <trkpt lat="42.175668" lon="-1.5941760000000003">
        <ele>268.408</ele>
        <time>2022-06-17T08:49:36Z</time>
      </trkpt>
      <trkpt lat="42.175805000000004" lon="-1.5943310000000002">
        <ele>268.409</ele>
        <time>2022-06-17T08:49:40Z</time>
      </trkpt>
      <trkpt lat="42.17590800000001" lon="-1.5944390000000002">
        <ele>268.696</ele>
        <time>2022-06-17T08:49:43Z</time>
      </trkpt>
      <trkpt lat="42.17618100000001" lon="-1.5948030000000002">
        <ele>269.055</ele>
        <time>2022-06-17T08:49:52Z</time>
      </trkpt>
      <trkpt lat="42.17620800000001" lon="-1.5948470000000001">
        <ele>269.250</ele>
        <time>2022-06-17T08:49:53Z</time>
      </trkpt>
      <trkpt lat="42.17632600000001" lon="-1.5950940000000002">
        <ele>269.452</ele>
        <time>2022-06-17T08:49:58Z</time>
      </trkpt>
      <trkpt lat="42.17640800000001" lon="-1.5952340000000003">
        <ele>269.285</ele>
        <time>2022-06-17T08:50:01Z</time>
      </trkpt>
      <trkpt lat="42.17648000000001" lon="-1.5953860000000002">
        <ele>269.468</ele>
        <time>2022-06-17T08:50:04Z</time>
      </trkpt>
      <trkpt lat="42.176527000000014" lon="-1.5955000000000001">
        <ele>269.626</ele>
        <time>2022-06-17T08:50:06Z</time>
      </trkpt>
      <trkpt lat="42.176645000000015" lon="-1.5957370000000002">
        <ele>269.850</ele>
        <time>2022-06-17T08:50:11Z</time>
      </trkpt>
      <trkpt lat="42.17672500000001" lon="-1.5958950000000003">
        <ele>270.028</ele>
        <time>2022-06-17T08:50:14Z</time>
      </trkpt>
      <trkpt lat="42.176803000000014" lon="-1.5960400000000003">
        <ele>270.023</ele>
        <time>2022-06-17T08:50:17Z</time>
      </trkpt>
      <trkpt lat="42.176831000000014" lon="-1.5960780000000003">
        <ele>270.083</ele>
        <time>2022-06-17T08:50:18Z</time>
      </trkpt>
      <trkpt lat="42.176935000000014" lon="-1.5962490000000003">
        <ele>270.211</ele>
        <time>2022-06-17T08:50:22Z</time>
      </trkpt>
      <trkpt lat="42.17697500000001" lon="-1.5963350000000003">
        <ele>270.209</ele>
        <time>2022-06-17T08:50:24Z</time>
      </trkpt>
      <trkpt lat="42.17711700000001" lon="-1.5965130000000003">
        <ele>270.683</ele>
        <time>2022-06-17T08:50:29Z</time>
      </trkpt>
      <trkpt lat="42.17734800000001" lon="-1.5966840000000002">
        <ele>271.282</ele>
        <time>2022-06-17T08:50:36Z</time>
      </trkpt>
      <trkpt lat="42.17740400000001" lon="-1.5966710000000002">
        <ele>271.277</ele>
        <time>2022-06-17T08:50:38Z</time>
      </trkpt>
      <trkpt lat="42.17745600000001" lon="-1.59661">
        <ele>271.689</ele>
        <time>2022-06-17T08:50:40Z</time>
      </trkpt>
      <trkpt lat="42.17752900000001" lon="-1.5964260000000001">
        <ele>272.042</ele>
        <time>2022-06-17T08:50:45Z</time>
      </trkpt>
      <trkpt lat="42.177533000000004" lon="-1.5964150000000001">
        <ele>272.275</ele>
        <time>2022-06-17T08:50:48Z</time>
      </trkpt>
      <trkpt lat="42.177586000000005" lon="-1.5961960000000002">
        <ele>273.253</ele>
        <time>2022-06-17T08:55:27Z</time>
      </trkpt>
      <trkpt lat="42.17759100000001" lon="-1.5961420000000002">
        <ele>273.257</ele>
        <time>2022-06-17T08:55:29Z</time>
      </trkpt>
      <trkpt lat="42.17763500000001" lon="-1.595989">
        <ele>273.465</ele>
        <time>2022-06-17T08:55:35Z</time>
      </trkpt>
      <trkpt lat="42.17767300000001" lon="-1.5958450000000002">
        <ele>274.211</ele>
        <time>2022-06-17T08:55:40Z</time>
      </trkpt>
      <trkpt lat="42.17768000000001" lon="-1.5957930000000002">
        <ele>274.621</ele>
        <time>2022-06-17T08:55:42Z</time>
      </trkpt>
      <trkpt lat="42.177684000000006" lon="-1.5957120000000002">
        <ele>275.203</ele>
        <time>2022-06-17T08:55:45Z</time>
      </trkpt>
      <trkpt lat="42.177668000000004" lon="-1.5956320000000002">
        <ele>276.009</ele>
        <time>2022-06-17T08:55:48Z</time>
      </trkpt>
      <trkpt lat="42.177665000000005" lon="-1.5956130000000002">
        <ele>276.492</ele>
        <time>2022-06-17T08:55:49Z</time>
      </trkpt>
      <trkpt lat="42.177651000000004" lon="-1.5955290000000002">
        <ele>277.481</ele>
        <time>2022-06-17T08:55:52Z</time>
      </trkpt>
      <trkpt lat="42.177641" lon="-1.5954550000000003">
        <ele>278.436</ele>
        <time>2022-06-17T08:55:55Z</time>
      </trkpt>
      <trkpt lat="42.177644" lon="-1.5954300000000003">
        <ele>278.618</ele>
        <time>2022-06-17T08:55:56Z</time>
      </trkpt>
      <trkpt lat="42.177654000000004" lon="-1.5953340000000003">
        <ele>279.871</ele>
        <time>2022-06-17T08:56:00Z</time>
      </trkpt>
      <trkpt lat="42.177659000000006" lon="-1.5952850000000003">
        <ele>280.224</ele>
        <time>2022-06-17T08:56:02Z</time>
      </trkpt>
      <trkpt lat="42.177657" lon="-1.5952360000000003">
        <ele>280.892</ele>
        <time>2022-06-17T08:56:04Z</time>
      </trkpt>
      <trkpt lat="42.177685000000004" lon="-1.5951170000000003">
        <ele>282.056</ele>
        <time>2022-06-17T08:56:09Z</time>
      </trkpt>
      <trkpt lat="42.177697" lon="-1.5950190000000004">
        <ele>283.044</ele>
        <time>2022-06-17T08:56:13Z</time>
      </trkpt>
      <trkpt lat="42.177687" lon="-1.5949700000000004">
        <ele>283.653</ele>
        <time>2022-06-17T08:56:15Z</time>
      </trkpt>
      <trkpt lat="42.177675" lon="-1.5949190000000004">
        <ele>284.004</ele>
        <time>2022-06-17T08:56:17Z</time>
      </trkpt>
      <trkpt lat="42.177646" lon="-1.5948440000000004">
        <ele>285.414</ele>
        <time>2022-06-17T08:56:21Z</time>
      </trkpt>
      <trkpt lat="42.177622" lon="-1.5947980000000004">
        <ele>286.209</ele>
        <time>2022-06-17T08:56:24Z</time>
      </trkpt>
      <trkpt lat="42.177611" lon="-1.5947860000000005">
        <ele>286.686</ele>
        <time>2022-06-17T08:56:25Z</time>
      </trkpt>
      <trkpt lat="42.177557" lon="-1.5947410000000004">
        <ele>287.625</ele>
        <time>2022-06-17T08:56:29Z</time>
      </trkpt>
      <trkpt lat="42.177497" lon="-1.5946820000000004">
        <ele>288.810</ele>
        <time>2022-06-17T08:56:34Z</time>
      </trkpt>
      <trkpt lat="42.177423000000005" lon="-1.5946160000000005">
        <ele>290.022</ele>
        <time>2022-06-17T08:56:40Z</time>
      </trkpt>
      <trkpt lat="42.177382" lon="-1.5945860000000005">
        <ele>290.825</ele>
        <time>2022-06-17T08:56:43Z</time>
      </trkpt>
      <trkpt lat="42.177368" lon="-1.5945750000000005">
        <ele>291.088</ele>
        <time>2022-06-17T08:56:44Z</time>
      </trkpt>
      <trkpt lat="42.17732" lon="-1.5945390000000006">
        <ele>292.056</ele>
        <time>2022-06-17T08:56:48Z</time>
      </trkpt>
      <trkpt lat="42.17732" lon="-1.5945390000000006">
        <ele>292.440</ele>
        <time>2022-06-17T08:56:50Z</time>
      </trkpt>
      <trkpt lat="42.177271000000005" lon="-1.5944950000000007">
        <ele>294.038</ele>
        <time>2022-06-17T08:57:06Z</time>
      </trkpt>
      <trkpt lat="42.177231000000006" lon="-1.5944630000000006">
        <ele>294.055</ele>
        <time>2022-06-17T08:57:08Z</time>
      </trkpt>
      <trkpt lat="42.177212000000004" lon="-1.5944400000000005">
        <ele>294.007</ele>
        <time>2022-06-17T08:57:09Z</time>
      </trkpt>
      <trkpt lat="42.177125000000004" lon="-1.5943530000000006">
        <ele>294.217</ele>
        <time>2022-06-17T08:57:14Z</time>
      </trkpt>
      <trkpt lat="42.177024" lon="-1.5942690000000006">
        <ele>295.009</ele>
        <time>2022-06-17T08:57:20Z</time>
      </trkpt>
      <trkpt lat="42.176992000000006" lon="-1.5942360000000007">
        <ele>295.656</ele>
        <time>2022-06-17T08:57:22Z</time>
      </trkpt>
      <trkpt lat="42.176964000000005" lon="-1.5941950000000007">
        <ele>296.055</ele>
        <time>2022-06-17T08:57:24Z</time>
      </trkpt>
      <trkpt lat="42.176882000000006" lon="-1.5940910000000006">
        <ele>297.290</ele>
        <time>2022-06-17T08:57:30Z</time>
      </trkpt>
      <trkpt lat="42.17686700000001" lon="-1.5940730000000005">
        <ele>297.472</ele>
        <time>2022-06-17T08:57:31Z</time>
      </trkpt>
      <trkpt lat="42.17682800000001" lon="-1.5940230000000004">
        <ele>298.275</ele>
        <time>2022-06-17T08:57:34Z</time>
      </trkpt>
      <trkpt lat="42.17676600000001" lon="-1.5939280000000005">
        <ele>299.478</ele>
        <time>2022-06-17T08:57:39Z</time>
      </trkpt>
      <trkpt lat="42.17675700000001" lon="-1.5939100000000004">
        <ele>299.666</ele>
        <time>2022-06-17T08:57:40Z</time>
      </trkpt>
      <trkpt lat="42.17671800000001" lon="-1.5938330000000003">
        <ele>300.470</ele>
        <time>2022-06-17T08:57:44Z</time>
      </trkpt>
      <trkpt lat="42.17668600000001" lon="-1.5937180000000002">
        <ele>301.698</ele>
        <time>2022-06-17T08:57:49Z</time>
      </trkpt>
      <trkpt lat="42.17668300000001" lon="-1.5936940000000002">
        <ele>301.878</ele>
        <time>2022-06-17T08:57:50Z</time>
      </trkpt>
      <trkpt lat="42.17668900000001" lon="-1.5935990000000002">
        <ele>302.833</ele>
        <time>2022-06-17T08:57:54Z</time>
      </trkpt>
      <trkpt lat="42.17670300000001" lon="-1.5935280000000003">
        <ele>303.226</ele>
        <time>2022-06-17T08:57:57Z</time>
      </trkpt>
      <trkpt lat="42.17673900000001" lon="-1.5934410000000003">
        <ele>303.809</ele>
        <time>2022-06-17T08:58:01Z</time>
      </trkpt>
      <trkpt lat="42.17679100000001" lon="-1.5933710000000003">
        <ele>304.868</ele>
        <time>2022-06-17T08:58:05Z</time>
      </trkpt>
      <trkpt lat="42.176806000000006" lon="-1.5933550000000003">
        <ele>305.027</ele>
        <time>2022-06-17T08:58:06Z</time>
      </trkpt>
      <trkpt lat="42.176891000000005" lon="-1.5932590000000002">
        <ele>306.052</ele>
        <time>2022-06-17T08:58:12Z</time>
      </trkpt>
      <trkpt lat="42.176933000000005" lon="-1.5932100000000002">
        <ele>306.474</ele>
        <time>2022-06-17T08:58:15Z</time>
      </trkpt>
      <trkpt lat="42.176992000000006" lon="-1.5931470000000003">
        <ele>307.257</ele>
        <time>2022-06-17T08:58:19Z</time>
      </trkpt>
      <trkpt lat="42.177068000000006" lon="-1.5930730000000004">
        <ele>308.020</ele>
        <time>2022-06-17T08:58:24Z</time>
      </trkpt>
      <trkpt lat="42.177080000000004" lon="-1.5930590000000004">
        <ele>308.248</ele>
        <time>2022-06-17T08:58:25Z</time>
      </trkpt>
      <trkpt lat="42.17714900000001" lon="-1.5929790000000004">
        <ele>309.422</ele>
        <time>2022-06-17T08:58:30Z</time>
      </trkpt>
      <trkpt lat="42.17717400000001" lon="-1.5929460000000004">
        <ele>310.010</ele>
        <time>2022-06-17T08:58:32Z</time>
      </trkpt>
      <trkpt lat="42.177203000000006" lon="-1.5929140000000004">
        <ele>310.438</ele>
        <time>2022-06-17T08:58:34Z</time>
      </trkpt>
      <trkpt lat="42.17722800000001" lon="-1.5928880000000003">
        <ele>311.270</ele>
        <time>2022-06-17T08:58:38Z</time>
      </trkpt>
      <trkpt lat="42.17725300000001" lon="-1.5928510000000002">
        <ele>312.617</ele>
        <time>2022-06-17T08:59:47Z</time>
      </trkpt>
      <trkpt lat="42.17729800000001" lon="-1.5928120000000003">
        <ele>312.609</ele>
        <time>2022-06-17T08:59:49Z</time>
      </trkpt>
      <trkpt lat="42.177468000000005" lon="-1.5927110000000004">
        <ele>312.664</ele>
        <time>2022-06-17T08:59:55Z</time>
      </trkpt>
      <trkpt lat="42.177701000000006" lon="-1.5924780000000005">
        <ele>313.443</ele>
        <time>2022-06-17T09:00:05Z</time>
      </trkpt>
      <trkpt lat="42.17779000000001" lon="-1.5923490000000005">
        <ele>313.638</ele>
        <time>2022-06-17T09:00:10Z</time>
      </trkpt>
      <trkpt lat="42.17785100000001" lon="-1.5922630000000004">
        <ele>314.040</ele>
        <time>2022-06-17T09:00:13Z</time>
      </trkpt>
      <trkpt lat="42.17788000000001" lon="-1.5922100000000003">
        <ele>314.263</ele>
        <time>2022-06-17T09:00:15Z</time>
      </trkpt>
      <trkpt lat="42.17793500000001" lon="-1.5921220000000003">
        <ele>314.876</ele>
        <time>2022-06-17T09:00:18Z</time>
      </trkpt>
      <trkpt lat="42.17799200000001" lon="-1.5920070000000002">
        <ele>315.884</ele>
        <time>2022-06-17T09:00:22Z</time>
      </trkpt>
      <trkpt lat="42.17802800000001" lon="-1.5919450000000002">
        <ele>316.438</ele>
        <time>2022-06-17T09:00:24Z</time>
      </trkpt>
      <trkpt lat="42.17805700000001" lon="-1.5918860000000001">
        <ele>317.246</ele>
        <time>2022-06-17T09:00:26Z</time>
      </trkpt>
      <trkpt lat="42.17813700000001" lon="-1.591755">
        <ele>318.475</ele>
        <time>2022-06-17T09:00:31Z</time>
      </trkpt>
      <trkpt lat="42.17816800000001" lon="-1.591699">
        <ele>318.628</ele>
        <time>2022-06-17T09:00:33Z</time>
      </trkpt>
      <trkpt lat="42.178281000000005" lon="-1.591432">
        <ele>319.420</ele>
        <time>2022-06-17T09:00:41Z</time>
      </trkpt>
      <trkpt lat="42.17843500000001" lon="-1.591125">
        <ele>320.409</ele>
        <time>2022-06-17T09:00:51Z</time>
      </trkpt>
      <trkpt lat="42.17845100000001" lon="-1.5910989999999998">
        <ele>320.428</ele>
        <time>2022-06-17T09:00:52Z</time>
      </trkpt>
      <trkpt lat="42.17855400000001" lon="-1.5909949999999997">
        <ele>321.047</ele>
        <time>2022-06-17T09:00:57Z</time>
      </trkpt>
      <trkpt lat="42.17866100000001" lon="-1.5909539999999998">
        <ele>321.652</ele>
        <time>2022-06-17T09:01:02Z</time>
      </trkpt>
      <trkpt lat="42.17871300000001" lon="-1.5909449999999998">
        <ele>321.694</ele>
        <time>2022-06-17T09:01:04Z</time>
      </trkpt>
      <trkpt lat="42.17883300000001" lon="-1.5909189999999998">
        <ele>322.657</ele>
        <time>2022-06-17T09:01:09Z</time>
      </trkpt>
      <trkpt lat="42.17894900000001" lon="-1.5908819999999997">
        <ele>323.840</ele>
        <time>2022-06-17T09:01:14Z</time>
      </trkpt>
      <trkpt lat="42.17905800000001" lon="-1.5908309999999997">
        <ele>325.088</ele>
        <time>2022-06-17T09:01:19Z</time>
      </trkpt>
      <trkpt lat="42.17915200000001" lon="-1.5908129999999996">
        <ele>326.262</ele>
        <time>2022-06-17T09:01:23Z</time>
      </trkpt>
      <trkpt lat="42.17924800000001" lon="-1.5908159999999996">
        <ele>327.260</ele>
        <time>2022-06-17T09:01:27Z</time>
      </trkpt>
      <trkpt lat="42.179322000000006" lon="-1.5908269999999995">
        <ele>327.621</ele>
        <time>2022-06-17T09:01:30Z</time>
      </trkpt>
      <trkpt lat="42.17938900000001" lon="-1.5908279999999995">
        <ele>328.241</ele>
        <time>2022-06-17T09:01:33Z</time>
      </trkpt>
      <trkpt lat="42.179491000000006" lon="-1.5908229999999994">
        <ele>329.205</ele>
        <time>2022-06-17T09:01:37Z</time>
      </trkpt>
      <trkpt lat="42.179584000000006" lon="-1.5908299999999995">
        <ele>329.609</ele>
        <time>2022-06-17T09:01:41Z</time>
      </trkpt>
      <trkpt lat="42.179722000000005" lon="-1.5908359999999995">
        <ele>330.063</ele>
        <time>2022-06-17T09:01:47Z</time>
      </trkpt>
      <trkpt lat="42.17974100000001" lon="-1.5908339999999994">
        <ele>330.282</ele>
        <time>2022-06-17T09:01:48Z</time>
      </trkpt>
      <trkpt lat="42.179857000000005" lon="-1.5908059999999995">
        <ele>331.287</ele>
        <time>2022-06-17T09:01:53Z</time>
      </trkpt>
      <trkpt lat="42.17994900000001" lon="-1.5907559999999994">
        <ele>331.619</ele>
        <time>2022-06-17T09:01:57Z</time>
      </trkpt>
      <trkpt lat="42.18004100000001" lon="-1.5907079999999993">
        <ele>332.252</ele>
        <time>2022-06-17T09:02:01Z</time>
      </trkpt>
      <trkpt lat="42.18010100000001" lon="-1.5906549999999993">
        <ele>332.625</ele>
        <time>2022-06-17T09:02:04Z</time>
      </trkpt>
      <trkpt lat="42.180167000000004" lon="-1.5905689999999992">
        <ele>333.483</ele>
        <time>2022-06-17T09:02:08Z</time>
      </trkpt>
      <trkpt lat="42.180224" lon="-1.5904959999999992">
        <ele>333.857</ele>
        <time>2022-06-17T09:02:11Z</time>
      </trkpt>
      <trkpt lat="42.180260000000004" lon="-1.5904239999999992">
        <ele>334.465</ele>
        <time>2022-06-17T09:02:14Z</time>
      </trkpt>
      <trkpt lat="42.180326" lon="-1.5903419999999993">
        <ele>335.261</ele>
        <time>2022-06-17T09:02:18Z</time>
      </trkpt>
      <trkpt lat="42.180344" lon="-1.5903229999999993">
        <ele>335.621</ele>
        <time>2022-06-17T09:02:19Z</time>
      </trkpt>
      <trkpt lat="42.18044" lon="-1.5902609999999993">
        <ele>336.613</ele>
        <time>2022-06-17T09:02:24Z</time>
      </trkpt>
      <trkpt lat="42.180457999999994" lon="-1.5902499999999993">
        <ele>336.809</ele>
        <time>2022-06-17T09:02:25Z</time>
      </trkpt>
      <trkpt lat="42.180516999999995" lon="-1.5902239999999992">
        <ele>337.837</ele>
        <time>2022-06-17T09:02:28Z</time>
      </trkpt>
      <trkpt lat="42.180597999999996" lon="-1.5901989999999993">
        <ele>338.876</ele>
        <time>2022-06-17T09:02:32Z</time>
      </trkpt>
      <trkpt lat="42.180634999999995" lon="-1.5901819999999993">
        <ele>339.421</ele>
        <time>2022-06-17T09:02:34Z</time>
      </trkpt>
      <trkpt lat="42.180674999999994" lon="-1.5901679999999994">
        <ele>339.843</ele>
        <time>2022-06-17T09:02:36Z</time>
      </trkpt>
      <trkpt lat="42.180761" lon="-1.5901059999999994">
        <ele>341.276</ele>
        <time>2022-06-17T09:02:41Z</time>
      </trkpt>
      <trkpt lat="42.180778" lon="-1.5900889999999994">
        <ele>341.469</ele>
        <time>2022-06-17T09:02:42Z</time>
      </trkpt>
      <trkpt lat="42.180837" lon="-1.5900449999999995">
        <ele>342.257</ele>
        <time>2022-06-17T09:02:45Z</time>
      </trkpt>
      <trkpt lat="42.180952999999995" lon="-1.5899799999999995">
        <ele>343.251</ele>
        <time>2022-06-17T09:02:50Z</time>
      </trkpt>
      <trkpt lat="42.180975" lon="-1.5899639999999995">
        <ele>343.449</ele>
        <time>2022-06-17T09:02:51Z</time>
      </trkpt>
      <trkpt lat="42.18113099999999" lon="-1.5898229999999995">
        <ele>344.223</ele>
        <time>2022-06-17T09:02:58Z</time>
      </trkpt>
      <trkpt lat="42.181186999999994" lon="-1.5897549999999996">
        <ele>344.483</ele>
        <time>2022-06-17T09:03:01Z</time>
      </trkpt>
      <trkpt lat="42.18126899999999" lon="-1.5896389999999996">
        <ele>344.811</ele>
        <time>2022-06-17T09:03:06Z</time>
      </trkpt>
      <trkpt lat="42.18132799999999" lon="-1.5895409999999996">
        <ele>345.609</ele>
        <time>2022-06-17T09:03:10Z</time>
      </trkpt>
      <trkpt lat="42.18135399999999" lon="-1.5894889999999997">
        <ele>346.083</ele>
        <time>2022-06-17T09:03:12Z</time>
      </trkpt>
      <trkpt lat="42.181380999999995" lon="-1.5894359999999996">
        <ele>346.472</ele>
        <time>2022-06-17T09:03:14Z</time>
      </trkpt>
      <trkpt lat="42.18139299999999" lon="-1.5894079999999997">
        <ele>346.477</ele>
        <time>2022-06-17T09:03:15Z</time>
      </trkpt>
      <trkpt lat="42.18147799999999" lon="-1.5892299999999997">
        <ele>347.649</ele>
        <time>2022-06-17T09:03:21Z</time>
      </trkpt>
      <trkpt lat="42.18153499999999" lon="-1.5891069999999996">
        <ele>348.062</ele>
        <time>2022-06-17T09:03:25Z</time>
      </trkpt>
      <trkpt lat="42.18163999999999" lon="-1.5888659999999997">
        <ele>348.655</ele>
        <time>2022-06-17T09:03:32Z</time>
      </trkpt>
      <trkpt lat="42.181657999999985" lon="-1.5888349999999998">
        <ele>348.683</ele>
        <time>2022-06-17T09:03:33Z</time>
      </trkpt>
      <trkpt lat="42.18183099999998" lon="-1.5884549999999997">
        <ele>349.477</ele>
        <time>2022-06-17T09:03:45Z</time>
      </trkpt>
      <trkpt lat="42.181860999999984" lon="-1.5883589999999996">
        <ele>349.655</ele>
        <time>2022-06-17T09:03:48Z</time>
      </trkpt>
      <trkpt lat="42.181919999999984" lon="-1.5881689999999997">
        <ele>350.837</ele>
        <time>2022-06-17T09:03:54Z</time>
      </trkpt>
      <trkpt lat="42.181947999999984" lon="-1.5880269999999996">
        <ele>351.849</ele>
        <time>2022-06-17T09:03:58Z</time>
      </trkpt>
      <trkpt lat="42.181955999999985" lon="-1.5878669999999997">
        <ele>352.613</ele>
        <time>2022-06-17T09:04:02Z</time>
      </trkpt>
      <trkpt lat="42.18195699999998" lon="-1.5877599999999996">
        <ele>352.809</ele>
        <time>2022-06-17T09:04:05Z</time>
      </trkpt>
      <trkpt lat="42.181966999999986" lon="-1.5875359999999996">
        <ele>353.874</ele>
        <time>2022-06-17T09:04:12Z</time>
      </trkpt>
      <trkpt lat="42.181969999999986" lon="-1.5874939999999995">
        <ele>354.043</ele>
        <time>2022-06-17T09:04:13Z</time>
      </trkpt>
      <trkpt lat="42.181994999999986" lon="-1.5873719999999996">
        <ele>355.428</ele>
        <time>2022-06-17T09:04:17Z</time>
      </trkpt>
      <trkpt lat="42.182014999999986" lon="-1.5873109999999995">
        <ele>356.050</ele>
        <time>2022-06-17T09:04:19Z</time>
      </trkpt>
      <trkpt lat="42.18203299999998" lon="-1.5872539999999995">
        <ele>356.683</ele>
        <time>2022-06-17T09:04:21Z</time>
      </trkpt>
      <trkpt lat="42.182118999999986" lon="-1.5871179999999996">
        <ele>357.856</ele>
        <time>2022-06-17T09:04:26Z</time>
      </trkpt>
      <trkpt lat="42.18213999999998" lon="-1.5870949999999995">
        <ele>358.274</ele>
        <time>2022-06-17T09:04:27Z</time>
      </trkpt>
      <trkpt lat="42.18226499999998" lon="-1.5869749999999996">
        <ele>359.038</ele>
        <time>2022-06-17T09:04:32Z</time>
      </trkpt>
      <trkpt lat="42.18230299999998" lon="-1.5869579999999996">
        <ele>359.036</ele>
        <time>2022-06-17T09:04:33Z</time>
      </trkpt>
      <trkpt lat="42.182391999999986" lon="-1.5869339999999996">
        <ele>359.237</ele>
        <time>2022-06-17T09:04:35Z</time>
      </trkpt>
      <trkpt lat="42.18255899999998" lon="-1.5869159999999995">
        <ele>359.249</ele>
        <time>2022-06-17T09:04:38Z</time>
      </trkpt>
      <trkpt lat="42.18292499999998" lon="-1.5868209999999996">
        <ele>358.613</ele>
        <time>2022-06-17T09:04:44Z</time>
      </trkpt>
      <trkpt lat="42.18309399999998" lon="-1.5867569999999995">
        <ele>357.609</ele>
        <time>2022-06-17T09:04:47Z</time>
      </trkpt>
      <trkpt lat="42.18331099999998" lon="-1.5866659999999995">
        <ele>357.064</ele>
        <time>2022-06-17T09:04:51Z</time>
      </trkpt>
      <trkpt lat="42.183748999999985" lon="-1.5863769999999995">
        <ele>357.033</ele>
        <time>2022-06-17T09:05:00Z</time>
      </trkpt>
      <trkpt lat="42.18400899999998" lon="-1.5862609999999995">
        <ele>357.428</ele>
        <time>2022-06-17T09:05:06Z</time>
      </trkpt>
      <trkpt lat="42.184176999999984" lon="-1.5862579999999995">
        <ele>358.490</ele>
        <time>2022-06-17T09:05:11Z</time>
      </trkpt>
      <trkpt lat="42.184207999999984" lon="-1.5862649999999996">
        <ele>358.623</ele>
        <time>2022-06-17T09:05:12Z</time>
      </trkpt>
      <trkpt lat="42.184322999999985" lon="-1.5862969999999996">
        <ele>359.886</ele>
        <time>2022-06-17T09:05:16Z</time>
      </trkpt>
      <trkpt lat="42.18440599999998" lon="-1.5863279999999995">
        <ele>360.874</ele>
        <time>2022-06-17T09:05:19Z</time>
      </trkpt>
      <trkpt lat="42.18446499999998" lon="-1.5863609999999995">
        <ele>361.888</ele>
        <time>2022-06-17T09:05:21Z</time>
      </trkpt>
      <trkpt lat="42.18459299999998" lon="-1.5864059999999995">
        <ele>362.846</ele>
        <time>2022-06-17T09:05:25Z</time>
      </trkpt>
      <trkpt lat="42.18463499999998" lon="-1.5864139999999995">
        <ele>363.082</ele>
        <time>2022-06-17T09:05:26Z</time>
      </trkpt>
      <trkpt lat="42.18471899999998" lon="-1.5864109999999996">
        <ele>363.043</ele>
        <time>2022-06-17T09:05:28Z</time>
      </trkpt>
      <trkpt lat="42.18480499999998" lon="-1.5863769999999995">
        <ele>363.217</ele>
        <time>2022-06-17T09:05:30Z</time>
      </trkpt>
      <trkpt lat="42.18506199999998" lon="-1.5861459999999994">
        <ele>363.209</ele>
        <time>2022-06-17T09:05:37Z</time>
      </trkpt>
      <trkpt lat="42.18519799999998" lon="-1.5860559999999995">
        <ele>363.679</ele>
        <time>2022-06-17T09:05:42Z</time>
      </trkpt>
      <trkpt lat="42.18525299999998" lon="-1.5860439999999996">
        <ele>364.018</ele>
        <time>2022-06-17T09:05:44Z</time>
      </trkpt>
      <trkpt lat="42.18532699999998" lon="-1.5860729999999996">
        <ele>365.273</ele>
        <time>2022-06-17T09:05:47Z</time>
      </trkpt>
      <trkpt lat="42.18538599999998" lon="-1.5861079999999996">
        <ele>366.245</ele>
        <time>2022-06-17T09:05:50Z</time>
      </trkpt>
      <trkpt lat="42.18547899999998" lon="-1.5861929999999995">
        <ele>367.068</ele>
        <time>2022-06-17T09:05:54Z</time>
      </trkpt>
      <trkpt lat="42.18552599999998" lon="-1.5862459999999996">
        <ele>367.261</ele>
        <time>2022-06-17T09:05:56Z</time>
      </trkpt>
      <trkpt lat="42.185586999999984" lon="-1.5863589999999996">
        <ele>368.239</ele>
        <time>2022-06-17T09:06:00Z</time>
      </trkpt>
      <trkpt lat="42.185619999999986" lon="-1.5864189999999996">
        <ele>368.693</ele>
        <time>2022-06-17T09:06:02Z</time>
      </trkpt>
      <trkpt lat="42.18565899999999" lon="-1.5865409999999995">
        <ele>369.651</ele>
        <time>2022-06-17T09:06:06Z</time>
      </trkpt>
      <trkpt lat="42.18568299999999" lon="-1.5866809999999996">
        <ele>370.895</ele>
        <time>2022-06-17T09:06:10Z</time>
      </trkpt>
      <trkpt lat="42.18571599999999" lon="-1.5868289999999996">
        <ele>371.849</ele>
        <time>2022-06-17T09:06:14Z</time>
      </trkpt>
      <trkpt lat="42.185725999999995" lon="-1.5868679999999995">
        <ele>371.823</ele>
        <time>2022-06-17T09:06:15Z</time>
      </trkpt>
      <trkpt lat="42.18581699999999" lon="-1.5870089999999994">
        <ele>372.209</ele>
        <time>2022-06-17T09:06:19Z</time>
      </trkpt>
      <trkpt lat="42.186052999999994" lon="-1.5872629999999994">
        <ele>372.230</ele>
        <time>2022-06-17T09:06:27Z</time>
      </trkpt>
      <trkpt lat="42.18633299999999" lon="-1.5875759999999994">
        <ele>372.689</ele>
        <time>2022-06-17T09:06:37Z</time>
      </trkpt>
      <trkpt lat="42.18642699999999" lon="-1.5876969999999995">
        <ele>373.074</ele>
        <time>2022-06-17T09:06:41Z</time>
      </trkpt>
      <trkpt lat="42.18648799999999" lon="-1.5877739999999996">
        <ele>373.496</ele>
        <time>2022-06-17T09:06:44Z</time>
      </trkpt>
      <trkpt lat="42.18657099999999" lon="-1.5878809999999997">
        <ele>374.059</ele>
        <time>2022-06-17T09:06:48Z</time>
      </trkpt>
      <trkpt lat="42.186613999999985" lon="-1.5879349999999997">
        <ele>374.272</ele>
        <time>2022-06-17T09:06:50Z</time>
      </trkpt>
      <trkpt lat="42.186706999999984" lon="-1.5880609999999997">
        <ele>375.080</ele>
        <time>2022-06-17T09:06:55Z</time>
      </trkpt>
      <trkpt lat="42.18676499999999" lon="-1.5881349999999996">
        <ele>375.834</ele>
        <time>2022-06-17T09:06:58Z</time>
      </trkpt>
      <trkpt lat="42.186799999999984" lon="-1.5881829999999997">
        <ele>376.292</ele>
        <time>2022-06-17T09:07:00Z</time>
      </trkpt>
      <trkpt lat="42.186920999999984" lon="-1.5883269999999996">
        <ele>377.648</ele>
        <time>2022-06-17T09:07:06Z</time>
      </trkpt>
      <trkpt lat="42.18694199999998" lon="-1.5883519999999995">
        <ele>377.861</ele>
        <time>2022-06-17T09:07:07Z</time>
      </trkpt>
      <trkpt lat="42.18702099999998" lon="-1.5884459999999996">
        <ele>378.817</ele>
        <time>2022-06-17T09:07:11Z</time>
      </trkpt>
      <trkpt lat="42.18711199999998" lon="-1.5885599999999995">
        <ele>380.009</ele>
        <time>2022-06-17T09:07:16Z</time>
      </trkpt>
      <trkpt lat="42.18713099999998" lon="-1.5885819999999995">
        <ele>380.275</ele>
        <time>2022-06-17T09:07:17Z</time>
      </trkpt>
      <trkpt lat="42.18720799999998" lon="-1.5886639999999994">
        <ele>380.824</ele>
        <time>2022-06-17T09:07:21Z</time>
      </trkpt>
      <trkpt lat="42.18728899999998" lon="-1.5887379999999993">
        <ele>382.089</ele>
        <time>2022-06-17T09:07:25Z</time>
      </trkpt>
      <trkpt lat="42.187365999999976" lon="-1.5887919999999993">
        <ele>382.821</ele>
        <time>2022-06-17T09:07:29Z</time>
      </trkpt>
      <trkpt lat="42.18741899999998" lon="-1.5888019999999994">
        <ele>383.074</ele>
        <time>2022-06-17T09:07:31Z</time>
      </trkpt>
      <trkpt lat="42.18751899999998" lon="-1.5888119999999994">
        <ele>384.287</ele>
        <time>2022-06-17T09:07:35Z</time>
      </trkpt>
      <trkpt lat="42.18763699999998" lon="-1.5888119999999994">
        <ele>385.235</ele>
        <time>2022-06-17T09:07:40Z</time>
      </trkpt>
      <trkpt lat="42.18765999999998" lon="-1.5888119999999994">
        <ele>385.479</ele>
        <time>2022-06-17T09:07:41Z</time>
      </trkpt>
      <trkpt lat="42.18773099999998" lon="-1.5888129999999994">
        <ele>385.617</ele>
        <time>2022-06-17T09:07:44Z</time>
      </trkpt>
      <trkpt lat="42.18786799999998" lon="-1.5888149999999994">
        <ele>386.642</ele>
        <time>2022-06-17T09:07:50Z</time>
      </trkpt>
      <trkpt lat="42.18810599999998" lon="-1.5888159999999993">
        <ele>387.822</ele>
        <time>2022-06-17T09:08:00Z</time>
      </trkpt>
      <trkpt lat="42.18826499999998" lon="-1.5887949999999993">
        <ele>388.814</ele>
        <time>2022-06-17T09:08:07Z</time>
      </trkpt>
      <trkpt lat="42.18833099999998" lon="-1.5887789999999993">
        <ele>389.409</ele>
        <time>2022-06-17T09:08:10Z</time>
      </trkpt>
      <trkpt lat="42.18846799999998" lon="-1.5887589999999994">
        <ele>390.025</ele>
        <time>2022-06-17T09:08:16Z</time>
      </trkpt>
      <trkpt lat="42.18852299999998" lon="-1.5887489999999993">
        <ele>390.484</ele>
        <time>2022-06-17T09:08:18Z</time>
      </trkpt>
      <trkpt lat="42.18871999999998" lon="-1.5887269999999993">
        <ele>391.079</ele>
        <time>2022-06-17T09:08:24Z</time>
      </trkpt>
      <trkpt lat="42.18891999999998" lon="-1.5887019999999994">
        <ele>391.041</ele>
        <time>2022-06-17T09:08:29Z</time>
      </trkpt>
      <trkpt lat="42.189270999999984" lon="-1.5886579999999995">
        <ele>390.644</ele>
        <time>2022-06-17T09:08:37Z</time>
      </trkpt>
      <trkpt lat="42.18943499999998" lon="-1.5886339999999994">
        <ele>390.657</ele>
        <time>2022-06-17T09:08:41Z</time>
      </trkpt>
      <trkpt lat="42.18959599999998" lon="-1.5886159999999994">
        <ele>390.655</ele>
        <time>2022-06-17T09:08:45Z</time>
      </trkpt>
      <trkpt lat="42.18993499999998" lon="-1.5885749999999994">
        <ele>391.469</ele>
        <time>2022-06-17T09:08:54Z</time>
      </trkpt>
      <trkpt lat="42.19003599999998" lon="-1.5885639999999994">
        <ele>391.857</ele>
        <time>2022-06-17T09:08:57Z</time>
      </trkpt>
      <trkpt lat="42.19026899999998" lon="-1.5885559999999994">
        <ele>392.694</ele>
        <time>2022-06-17T09:09:04Z</time>
      </trkpt>
      <trkpt lat="42.19032899999998" lon="-1.5885649999999993">
        <ele>393.057</ele>
        <time>2022-06-17T09:09:06Z</time>
      </trkpt>
      <trkpt lat="42.19046699999998" lon="-1.5885229999999992">
        <ele>393.622</ele>
        <time>2022-06-17T09:09:11Z</time>
      </trkpt>
      <trkpt lat="42.19052199999998" lon="-1.5884919999999993">
        <ele>394.209</ele>
        <time>2022-06-17T09:09:13Z</time>
      </trkpt>
      <trkpt lat="42.19061099999998" lon="-1.5884679999999993">
        <ele>394.880</ele>
        <time>2022-06-17T09:09:16Z</time>
      </trkpt>
      <trkpt lat="42.19064299999998" lon="-1.5884569999999993">
        <ele>395.299</ele>
        <time>2022-06-17T09:09:17Z</time>
      </trkpt>
      <trkpt lat="42.19081399999998" lon="-1.5883609999999992">
        <ele>396.074</ele>
        <time>2022-06-17T09:09:22Z</time>
      </trkpt>
      <trkpt lat="42.190851999999985" lon="-1.5883409999999993">
        <ele>396.286</ele>
        <time>2022-06-17T09:09:23Z</time>
      </trkpt>
      <trkpt lat="42.191102999999984" lon="-1.5882779999999994">
        <ele>396.279</ele>
        <time>2022-06-17T09:09:29Z</time>
      </trkpt>
      <trkpt lat="42.191265999999985" lon="-1.5883159999999994">
        <ele>396.472</ele>
        <time>2022-06-17T09:09:34Z</time>
      </trkpt>
      <trkpt lat="42.191414999999985" lon="-1.5883069999999995">
        <ele>396.880</ele>
        <time>2022-06-17T09:09:39Z</time>
      </trkpt>
      <trkpt lat="42.19145099999999" lon="-1.5883129999999994">
        <ele>397.284</ele>
        <time>2022-06-17T09:09:40Z</time>
      </trkpt>
      <trkpt lat="42.191628999999985" lon="-1.5883519999999993">
        <ele>398.452</ele>
        <time>2022-06-17T09:09:45Z</time>
      </trkpt>
      <trkpt lat="42.191836999999985" lon="-1.5883549999999993">
        <ele>399.484</ele>
        <time>2022-06-17T09:09:51Z</time>
      </trkpt>
      <trkpt lat="42.19194499999998" lon="-1.5883419999999993">
        <ele>399.807</ele>
        <time>2022-06-17T09:09:54Z</time>
      </trkpt>
      <trkpt lat="42.19225799999998" lon="-1.5883089999999993">
        <ele>400.017</ele>
        <time>2022-06-17T09:10:02Z</time>
      </trkpt>
      <trkpt lat="42.19254999999998" lon="-1.5882789999999993">
        <ele>400.209</ele>
        <time>2022-06-17T09:10:09Z</time>
      </trkpt>
      <trkpt lat="42.192588999999984" lon="-1.5882739999999993">
        <ele>400.249</ele>
        <time>2022-06-17T09:10:10Z</time>
      </trkpt>
      <trkpt lat="42.19287199999999" lon="-1.5882289999999992">
        <ele>400.858</ele>
        <time>2022-06-17T09:10:18Z</time>
      </trkpt>
      <trkpt lat="42.193074999999986" lon="-1.5882119999999993">
        <ele>401.273</ele>
        <time>2022-06-17T09:10:24Z</time>
      </trkpt>
      <trkpt lat="42.19310699999998" lon="-1.5882089999999993">
        <ele>401.425</ele>
        <time>2022-06-17T09:10:25Z</time>
      </trkpt>
      <trkpt lat="42.193294999999985" lon="-1.5881729999999994">
        <ele>402.428</ele>
        <time>2022-06-17T09:10:31Z</time>
      </trkpt>
      <trkpt lat="42.19333299999999" lon="-1.5881679999999994">
        <ele>402.641</ele>
        <time>2022-06-17T09:10:32Z</time>
      </trkpt>
      <trkpt lat="42.19348499999999" lon="-1.5881389999999993">
        <ele>403.619</ele>
        <time>2022-06-17T09:10:37Z</time>
      </trkpt>
      <trkpt lat="42.19354599999999" lon="-1.5881289999999992">
        <ele>404.223</ele>
        <time>2022-06-17T09:10:39Z</time>
      </trkpt>
      <trkpt lat="42.19364399999999" lon="-1.5881219999999991">
        <ele>404.671</ele>
        <time>2022-06-17T09:10:42Z</time>
      </trkpt>
      <trkpt lat="42.193842999999994" lon="-1.5881059999999991">
        <ele>405.642</ele>
        <time>2022-06-17T09:10:48Z</time>
      </trkpt>
      <trkpt lat="42.19387699999999" lon="-1.588103999999999">
        <ele>405.822</ele>
        <time>2022-06-17T09:10:49Z</time>
      </trkpt>
      <trkpt lat="42.194157999999995" lon="-1.5880839999999992">
        <ele>406.014</ele>
        <time>2022-06-17T09:10:57Z</time>
      </trkpt>
      <trkpt lat="42.19438999999999" lon="-1.5880679999999991">
        <ele>406.609</ele>
        <time>2022-06-17T09:11:03Z</time>
      </trkpt>
      <trkpt lat="42.194523999999994" lon="-1.5880589999999992">
        <ele>406.685</ele>
        <time>2022-06-17T09:11:06Z</time>
      </trkpt>
      <trkpt lat="42.194928" lon="-1.5880299999999992">
        <ele>406.664</ele>
        <time>2022-06-17T09:11:14Z</time>
      </trkpt>
      <trkpt lat="42.195330999999996" lon="-1.5880089999999991">
        <ele>406.069</ele>
        <time>2022-06-17T09:11:21Z</time>
      </trkpt>
      <trkpt lat="42.195784999999994" lon="-1.588095999999999">
        <ele>405.681</ele>
        <time>2022-06-17T09:11:28Z</time>
      </trkpt>
      <trkpt lat="42.19584799999999" lon="-1.5881139999999991">
        <ele>405.424</ele>
        <time>2022-06-17T09:11:29Z</time>
      </trkpt>
      <trkpt lat="42.19597499999999" lon="-1.5881459999999992">
        <ele>405.287</ele>
        <time>2022-06-17T09:11:31Z</time>
      </trkpt>
      <trkpt lat="42.19603699999999" lon="-1.588135999999999">
        <ele>405.065</ele>
        <time>2022-06-17T09:11:32Z</time>
      </trkpt>
      <trkpt lat="42.19609499999999" lon="-1.5881059999999991">
        <ele>405.049</ele>
        <time>2022-06-17T09:11:33Z</time>
      </trkpt>
      <trkpt lat="42.196203999999994" lon="-1.588027999999999">
        <ele>404.487</ele>
        <time>2022-06-17T09:11:35Z</time>
      </trkpt>
      <trkpt lat="42.19626399999999" lon="-1.588001999999999">
        <ele>404.279</ele>
        <time>2022-06-17T09:11:36Z</time>
      </trkpt>
      <trkpt lat="42.19632599999999" lon="-1.587983999999999">
        <ele>404.005</ele>
        <time>2022-06-17T09:11:37Z</time>
      </trkpt>
      <trkpt lat="42.19658499999999" lon="-1.587978999999999">
        <ele>403.825</ele>
        <time>2022-06-17T09:11:41Z</time>
      </trkpt>
      <trkpt lat="42.196870999999994" lon="-1.5880069999999988">
        <ele>403.609</ele>
        <time>2022-06-17T09:11:46Z</time>
      </trkpt>
      <trkpt lat="42.19697899999999" lon="-1.588013999999999">
        <ele>403.828</ele>
        <time>2022-06-17T09:11:48Z</time>
      </trkpt>
      <trkpt lat="42.19739899999999" lon="-1.5879959999999989">
        <ele>404.457</ele>
        <time>2022-06-17T09:11:56Z</time>
      </trkpt>
      <trkpt lat="42.19785199999999" lon="-1.587905999999999">
        <ele>405.032</ele>
        <time>2022-06-17T09:12:05Z</time>
      </trkpt>
      <trkpt lat="42.19817799999999" lon="-1.5877959999999989">
        <ele>405.444</ele>
        <time>2022-06-17T09:12:12Z</time>
      </trkpt>
      <trkpt lat="42.198221999999994" lon="-1.587775999999999">
        <ele>405.677</ele>
        <time>2022-06-17T09:12:13Z</time>
      </trkpt>
      <trkpt lat="42.19852399999999" lon="-1.5876609999999989">
        <ele>405.870</ele>
        <time>2022-06-17T09:12:20Z</time>
      </trkpt>
      <trkpt lat="42.19856599999999" lon="-1.587649999999999">
        <ele>405.888</ele>
        <time>2022-06-17T09:12:21Z</time>
      </trkpt>
      <trkpt lat="42.19872999999999" lon="-1.587576999999999">
        <ele>406.412</ele>
        <time>2022-06-17T09:12:25Z</time>
      </trkpt>
      <trkpt lat="42.19881199999999" lon="-1.587549999999999">
        <ele>407.060</ele>
        <time>2022-06-17T09:12:27Z</time>
      </trkpt>
      <trkpt lat="42.19898299999999" lon="-1.587494999999999">
        <ele>407.486</ele>
        <time>2022-06-17T09:12:31Z</time>
      </trkpt>
      <trkpt lat="42.19919499999999" lon="-1.587440999999999">
        <ele>407.860</ele>
        <time>2022-06-17T09:12:36Z</time>
      </trkpt>
      <trkpt lat="42.19939799999999" lon="-1.587374999999999">
        <ele>408.626</ele>
        <time>2022-06-17T09:12:42Z</time>
      </trkpt>
      <trkpt lat="42.19942799999999" lon="-1.587369999999999">
        <ele>408.809</ele>
        <time>2022-06-17T09:12:43Z</time>
      </trkpt>
      <trkpt lat="42.19957699999999" lon="-1.587336999999999">
        <ele>409.849</ele>
        <time>2022-06-17T09:12:48Z</time>
      </trkpt>
      <trkpt lat="42.199603999999994" lon="-1.587329999999999">
        <ele>410.218</ele>
        <time>2022-06-17T09:12:49Z</time>
      </trkpt>
      <trkpt lat="42.199684999999995" lon="-1.587319999999999">
        <ele>411.013</ele>
        <time>2022-06-17T09:12:52Z</time>
      </trkpt>
      <trkpt lat="42.19978699999999" lon="-1.5873049999999989">
        <ele>412.085</ele>
        <time>2022-06-17T09:12:56Z</time>
      </trkpt>
      <trkpt lat="42.19986599999999" lon="-1.5873059999999988">
        <ele>413.038</ele>
        <time>2022-06-17T09:12:59Z</time>
      </trkpt>
      <trkpt lat="42.199940999999995" lon="-1.5873059999999988">
        <ele>414.211</ele>
        <time>2022-06-17T09:13:02Z</time>
      </trkpt>
      <trkpt lat="42.200019" lon="-1.5873129999999989">
        <ele>414.669</ele>
        <time>2022-06-17T09:13:05Z</time>
      </trkpt>
      <trkpt lat="42.200072999999996" lon="-1.587319999999999">
        <ele>415.253</ele>
        <time>2022-06-17T09:13:07Z</time>
      </trkpt>
      <trkpt lat="42.200249" lon="-1.587325999999999">
        <ele>416.051</ele>
        <time>2022-06-17T09:13:14Z</time>
      </trkpt>
      <trkpt lat="42.2003" lon="-1.587332999999999">
        <ele>416.422</ele>
        <time>2022-06-17T09:13:16Z</time>
      </trkpt>
      <trkpt lat="42.200403" lon="-1.587338999999999">
        <ele>417.062</ele>
        <time>2022-06-17T09:13:20Z</time>
      </trkpt>
      <trkpt lat="42.200564" lon="-1.5873369999999989">
        <ele>418.008</ele>
        <time>2022-06-17T09:13:26Z</time>
      </trkpt>
      <trkpt lat="42.200818" lon="-1.587298999999999">
        <ele>419.209</ele>
        <time>2022-06-17T09:13:35Z</time>
      </trkpt>
      <trkpt lat="42.201144" lon="-1.5871889999999989">
        <ele>420.243</ele>
        <time>2022-06-17T09:13:46Z</time>
      </trkpt>
      <trkpt lat="42.201174" lon="-1.5871729999999988">
        <ele>420.482</ele>
        <time>2022-06-17T09:13:47Z</time>
      </trkpt>
      <trkpt lat="42.201387000000004" lon="-1.5870649999999988">
        <ele>420.887</ele>
        <time>2022-06-17T09:13:55Z</time>
      </trkpt>
      <trkpt lat="42.201435000000004" lon="-1.5870329999999988">
        <ele>421.489</ele>
        <time>2022-06-17T09:13:57Z</time>
      </trkpt>
      <trkpt lat="42.201574" lon="-1.5869609999999987">
        <ele>422.632</ele>
        <time>2022-06-17T09:14:03Z</time>
      </trkpt>
      <trkpt lat="42.201701" lon="-1.5868889999999987">
        <ele>423.875</ele>
        <time>2022-06-17T09:14:08Z</time>
      </trkpt>
      <trkpt lat="42.201782" lon="-1.5868469999999986">
        <ele>424.453</ele>
        <time>2022-06-17T09:14:11Z</time>
      </trkpt>
      <trkpt lat="42.202015" lon="-1.5867379999999986">
        <ele>424.847</ele>
        <time>2022-06-17T09:14:19Z</time>
      </trkpt>
      <trkpt lat="42.202043" lon="-1.5867239999999987">
        <ele>424.835</ele>
        <time>2022-06-17T09:14:20Z</time>
      </trkpt>
      <trkpt lat="42.202297" lon="-1.5865719999999988">
        <ele>425.649</ele>
        <time>2022-06-17T09:14:30Z</time>
      </trkpt>
      <trkpt lat="42.202357" lon="-1.5865079999999987">
        <ele>425.802</ele>
        <time>2022-06-17T09:14:33Z</time>
      </trkpt>
      <trkpt lat="42.202422" lon="-1.5864419999999988">
        <ele>426.422</ele>
        <time>2022-06-17T09:14:36Z</time>
      </trkpt>
      <trkpt lat="42.202491" lon="-1.5863829999999988">
        <ele>426.809</ele>
        <time>2022-06-17T09:14:39Z</time>
      </trkpt>
      <trkpt lat="42.202603" lon="-1.5862499999999988">
        <ele>427.855</ele>
        <time>2022-06-17T09:14:45Z</time>
      </trkpt>
      <trkpt lat="42.202732000000005" lon="-1.5861149999999988">
        <ele>428.694</ele>
        <time>2022-06-17T09:14:52Z</time>
      </trkpt>
      <trkpt lat="42.20277000000001" lon="-1.5860799999999988">
        <ele>429.069</ele>
        <time>2022-06-17T09:14:54Z</time>
      </trkpt>
      <trkpt lat="42.20285200000001" lon="-1.5859909999999988">
        <ele>430.061</ele>
        <time>2022-06-17T09:14:59Z</time>
      </trkpt>
      <trkpt lat="42.20287100000001" lon="-1.585978999999999">
        <ele>430.444</ele>
        <time>2022-06-17T09:15:00Z</time>
      </trkpt>
      <trkpt lat="42.20294900000001" lon="-1.585937999999999">
        <ele>431.217</ele>
        <time>2022-06-17T09:15:04Z</time>
      </trkpt>
      <trkpt lat="42.20298900000001" lon="-1.5859309999999989">
        <ele>431.855</ele>
        <time>2022-06-17T09:15:06Z</time>
      </trkpt>
      <trkpt lat="42.20302900000001" lon="-1.5859229999999989">
        <ele>432.449</ele>
        <time>2022-06-17T09:15:08Z</time>
      </trkpt>
      <trkpt lat="42.203100000000006" lon="-1.585902999999999">
        <ele>433.627</ele>
        <time>2022-06-17T09:15:12Z</time>
      </trkpt>
      <trkpt lat="42.20315600000001" lon="-1.585882999999999">
        <ele>434.427</ele>
        <time>2022-06-17T09:15:15Z</time>
      </trkpt>
      <trkpt lat="42.203193000000006" lon="-1.585875999999999">
        <ele>435.068</ele>
        <time>2022-06-17T09:15:17Z</time>
      </trkpt>
      <trkpt lat="42.20324900000001" lon="-1.5858659999999989">
        <ele>435.614</ele>
        <time>2022-06-17T09:15:20Z</time>
      </trkpt>
      <trkpt lat="42.20330800000001" lon="-1.5858509999999988">
        <ele>436.609</ele>
        <time>2022-06-17T09:15:24Z</time>
      </trkpt>
      <trkpt lat="42.20334400000001" lon="-1.5858489999999987">
        <ele>437.033</ele>
        <time>2022-06-17T09:15:26Z</time>
      </trkpt>
      <trkpt lat="42.20339900000001" lon="-1.5858379999999987">
        <ele>437.872</ele>
        <time>2022-06-17T09:15:29Z</time>
      </trkpt>
      <trkpt lat="42.20348900000001" lon="-1.5858339999999989">
        <ele>439.077</ele>
        <time>2022-06-17T09:15:34Z</time>
      </trkpt>
      <trkpt lat="42.203553000000014" lon="-1.5858369999999988">
        <ele>439.629</ele>
        <time>2022-06-17T09:15:37Z</time>
      </trkpt>
      <trkpt lat="42.20359100000002" lon="-1.5858339999999989">
        <ele>440.012</ele>
        <time>2022-06-17T09:15:39Z</time>
      </trkpt>
      <trkpt lat="42.203716000000014" lon="-1.5858389999999989">
        <ele>441.275</ele>
        <time>2022-06-17T09:15:45Z</time>
      </trkpt>
      <trkpt lat="42.20377000000001" lon="-1.5858369999999988">
        <ele>441.443</ele>
        <time>2022-06-17T09:15:48Z</time>
      </trkpt>
      <trkpt lat="42.20388900000001" lon="-1.5858349999999988">
        <ele>442.227</ele>
        <time>2022-06-17T09:15:54Z</time>
      </trkpt>
      <trkpt lat="42.20402700000001" lon="-1.5858399999999988">
        <ele>443.485</ele>
        <time>2022-06-17T09:16:01Z</time>
      </trkpt>
      <trkpt lat="42.20412500000001" lon="-1.5858529999999988">
        <ele>444.245</ele>
        <time>2022-06-17T09:16:06Z</time>
      </trkpt>
      <trkpt lat="42.20416500000001" lon="-1.585859999999999">
        <ele>444.647</ele>
        <time>2022-06-17T09:16:08Z</time>
      </trkpt>
      <trkpt lat="42.20422300000001" lon="-1.5858659999999989">
        <ele>445.211</ele>
        <time>2022-06-17T09:16:11Z</time>
      </trkpt>
      <trkpt lat="42.204326000000016" lon="-1.585873999999999">
        <ele>446.009</ele>
        <time>2022-06-17T09:16:16Z</time>
      </trkpt>
      <trkpt lat="42.20436800000002" lon="-1.585881999999999">
        <ele>446.485</ele>
        <time>2022-06-17T09:16:18Z</time>
      </trkpt>
      <trkpt lat="42.20446600000002" lon="-1.5858829999999988">
        <ele>447.624</ele>
        <time>2022-06-17T09:16:23Z</time>
      </trkpt>
      <trkpt lat="42.20448500000002" lon="-1.5858879999999989">
        <ele>447.879</ele>
        <time>2022-06-17T09:16:24Z</time>
      </trkpt>
      <trkpt lat="42.20458100000002" lon="-1.585902999999999">
        <ele>448.631</ele>
        <time>2022-06-17T09:16:29Z</time>
      </trkpt>
      <trkpt lat="42.204678000000015" lon="-1.585910999999999">
        <ele>449.424</ele>
        <time>2022-06-17T09:16:34Z</time>
      </trkpt>
      <trkpt lat="42.20471100000002" lon="-1.585912999999999">
        <ele>449.827</ele>
        <time>2022-06-17T09:16:36Z</time>
      </trkpt>
      <trkpt lat="42.20483700000002" lon="-1.585890999999999">
        <ele>451.055</ele>
        <time>2022-06-17T09:16:43Z</time>
      </trkpt>
      <trkpt lat="42.204962000000016" lon="-1.5858789999999992">
        <ele>452.049</ele>
        <time>2022-06-17T09:16:50Z</time>
      </trkpt>
      <trkpt lat="42.204999000000015" lon="-1.5858739999999991">
        <ele>452.297</ele>
        <time>2022-06-17T09:16:52Z</time>
      </trkpt>
      <trkpt lat="42.20507000000001" lon="-1.5858649999999992">
        <ele>453.037</ele>
        <time>2022-06-17T09:16:56Z</time>
      </trkpt>
      <trkpt lat="42.20514100000001" lon="-1.5858649999999992">
        <ele>453.849</ele>
        <time>2022-06-17T09:17:00Z</time>
      </trkpt>
      <trkpt lat="42.20517700000001" lon="-1.5858549999999991">
        <ele>454.213</ele>
        <time>2022-06-17T09:17:02Z</time>
      </trkpt>
      <trkpt lat="42.20527700000002" lon="-1.5858469999999991">
        <ele>454.809</ele>
        <time>2022-06-17T09:17:07Z</time>
      </trkpt>
      <trkpt lat="42.20531900000002" lon="-1.5858459999999992">
        <ele>455.244</ele>
        <time>2022-06-17T09:17:09Z</time>
      </trkpt>
      <trkpt lat="42.20540600000002" lon="-1.5858319999999992">
        <ele>455.843</ele>
        <time>2022-06-17T09:17:13Z</time>
      </trkpt>
      <trkpt lat="42.20545300000002" lon="-1.5858099999999993">
        <ele>456.028</ele>
        <time>2022-06-17T09:17:15Z</time>
      </trkpt>
      <trkpt lat="42.205536000000016" lon="-1.5857519999999994">
        <ele>456.630</ele>
        <time>2022-06-17T09:17:19Z</time>
      </trkpt>
      <trkpt lat="42.205649000000015" lon="-1.5856609999999993">
        <ele>456.823</ele>
        <time>2022-06-17T09:17:25Z</time>
      </trkpt>
      <trkpt lat="42.20565100000002" lon="-1.5856569999999994">
        <ele>457.076</ele>
        <time>2022-06-17T09:17:26Z</time>
      </trkpt>
      <trkpt lat="42.20565100000002" lon="-1.5856569999999994">
        <ele>457.064</ele>
        <time>2022-06-17T09:17:28Z</time>
      </trkpt>
      <trkpt lat="42.20604100000002" lon="-1.5854079999999995">
        <ele>464.068</ele>
        <time>2022-06-17T09:18:34Z</time>
      </trkpt>
      <trkpt lat="42.20608700000002" lon="-1.5854439999999994">
        <ele>464.036</ele>
        <time>2022-06-17T09:18:36Z</time>
      </trkpt>
      <trkpt lat="42.20617700000002" lon="-1.5855859999999995">
        <ele>464.084</ele>
        <time>2022-06-17T09:18:42Z</time>
      </trkpt>
      <trkpt lat="42.20620100000002" lon="-1.5856319999999995">
        <ele>464.007</ele>
        <time>2022-06-17T09:18:47Z</time>
      </trkpt>
      <trkpt lat="42.20622000000002" lon="-1.5856249999999994">
        <ele>464.017</ele>
        <time>2022-06-17T09:22:37Z</time>
      </trkpt>
      <trkpt lat="42.206278000000026" lon="-1.5856799999999993">
        <ele>464.009</ele>
        <time>2022-06-17T09:22:40Z</time>
      </trkpt>
      <trkpt lat="42.20637200000002" lon="-1.5857889999999992">
        <ele>463.849</ele>
        <time>2022-06-17T09:22:46Z</time>
      </trkpt>
      <trkpt lat="42.20637200000002" lon="-1.5857889999999992">
        <ele>463.888</ele>
        <time>2022-06-17T09:22:48Z</time>
      </trkpt>
      <trkpt lat="42.206332000000025" lon="-1.5857209999999993">
        <ele>463.663</ele>
        <time>2022-06-17T09:23:05Z</time>
      </trkpt>
      <trkpt lat="42.20621200000002" lon="-1.5856169999999992">
        <ele>463.855</ele>
        <time>2022-06-17T09:23:11Z</time>
      </trkpt>
      <trkpt lat="42.20611400000002" lon="-1.585436999999999">
        <ele>464.058</ele>
        <time>2022-06-17T09:23:18Z</time>
      </trkpt>
      <trkpt lat="42.20607000000002" lon="-1.5853899999999992">
        <ele>464.031</ele>
        <time>2022-06-17T09:23:21Z</time>
      </trkpt>
      <trkpt lat="42.20602800000002" lon="-1.5853899999999992">
        <ele>464.229</ele>
        <time>2022-06-17T09:23:23Z</time>
      </trkpt>
      <trkpt lat="42.20588700000002" lon="-1.5854889999999993">
        <ele>464.023</ele>
        <time>2022-06-17T09:23:29Z</time>
      </trkpt>
      <trkpt lat="42.20571400000002" lon="-1.5856159999999992">
        <ele>463.251</ele>
        <time>2022-06-17T09:23:36Z</time>
      </trkpt>
      <trkpt lat="42.20570000000002" lon="-1.5856279999999991">
        <ele>462.827</ele>
        <time>2022-06-17T09:23:37Z</time>
      </trkpt>
      <trkpt lat="42.20567700000002" lon="-1.5856459999999992">
        <ele>461.868</ele>
        <time>2022-06-17T09:23:39Z</time>
      </trkpt>
      <trkpt lat="42.20566000000002" lon="-1.5856649999999992">
        <ele>460.614</ele>
        <time>2022-06-17T09:23:42Z</time>
      </trkpt>
      <trkpt lat="42.205654000000024" lon="-1.5857079999999992">
        <ele>459.409</ele>
        <time>2022-06-17T09:23:45Z</time>
      </trkpt>
      <trkpt lat="42.20567700000002" lon="-1.5857589999999993">
        <ele>458.863</ele>
        <time>2022-06-17T09:23:47Z</time>
      </trkpt>
      <trkpt lat="42.20580100000002" lon="-1.5857819999999994">
        <ele>458.462</ele>
        <time>2022-06-17T09:23:52Z</time>
      </trkpt>
      <trkpt lat="42.20583000000002" lon="-1.5857929999999993">
        <ele>458.257</ele>
        <time>2022-06-17T09:23:53Z</time>
      </trkpt>
      <trkpt lat="42.20606000000002" lon="-1.5858749999999993">
        <ele>457.859</ele>
        <time>2022-06-17T09:24:01Z</time>
      </trkpt>
      <trkpt lat="42.20625100000002" lon="-1.5859529999999993">
        <ele>458.012</ele>
        <time>2022-06-17T09:24:08Z</time>
      </trkpt>
      <trkpt lat="42.20640000000002" lon="-1.5859919999999992">
        <ele>458.825</ele>
        <time>2022-06-17T09:24:14Z</time>
      </trkpt>
      <trkpt lat="42.206467000000025" lon="-1.5859709999999991">
        <ele>459.423</ele>
        <time>2022-06-17T09:24:17Z</time>
      </trkpt>
      <trkpt lat="42.206537000000026" lon="-1.5859189999999992">
        <ele>459.817</ele>
        <time>2022-06-17T09:24:20Z</time>
      </trkpt>
      <trkpt lat="42.20671400000003" lon="-1.585795999999999">
        <ele>459.835</ele>
        <time>2022-06-17T09:24:25Z</time>
      </trkpt>
      <trkpt lat="42.206931000000026" lon="-1.5856389999999991">
        <ele>459.488</ele>
        <time>2022-06-17T09:24:30Z</time>
      </trkpt>
      <trkpt lat="42.20698300000002" lon="-1.5856189999999992">
        <ele>459.224</ele>
        <time>2022-06-17T09:24:31Z</time>
      </trkpt>
      <trkpt lat="42.20716000000002" lon="-1.5855879999999993">
        <ele>458.026</ele>
        <time>2022-06-17T09:24:34Z</time>
      </trkpt>
      <trkpt lat="42.20728100000002" lon="-1.5855609999999993">
        <ele>456.609</ele>
        <time>2022-06-17T09:24:36Z</time>
      </trkpt>
      <trkpt lat="42.20740800000002" lon="-1.5855439999999994">
        <ele>455.639</ele>
        <time>2022-06-17T09:24:38Z</time>
      </trkpt>
      <trkpt lat="42.20747100000002" lon="-1.5855319999999995">
        <ele>454.488</ele>
        <time>2022-06-17T09:24:39Z</time>
      </trkpt>
      <trkpt lat="42.20753000000002" lon="-1.5855119999999996">
        <ele>453.873</ele>
        <time>2022-06-17T09:24:40Z</time>
      </trkpt>
      <trkpt lat="42.20758700000002" lon="-1.5854829999999995">
        <ele>453.495</ele>
        <time>2022-06-17T09:24:41Z</time>
      </trkpt>
      <trkpt lat="42.20764300000002" lon="-1.5854449999999995">
        <ele>452.648</ele>
        <time>2022-06-17T09:24:42Z</time>
      </trkpt>
      <trkpt lat="42.20775000000002" lon="-1.5853579999999996">
        <ele>452.231</ele>
        <time>2022-06-17T09:24:44Z</time>
      </trkpt>
      <trkpt lat="42.20786400000002" lon="-1.5852899999999996">
        <ele>450.419</ele>
        <time>2022-06-17T09:24:46Z</time>
      </trkpt>
      <trkpt lat="42.20798300000002" lon="-1.5852379999999997">
        <ele>448.833</ele>
        <time>2022-06-17T09:24:48Z</time>
      </trkpt>
      <trkpt lat="42.20808500000002" lon="-1.5852019999999998">
        <ele>447.431</ele>
        <time>2022-06-17T09:24:50Z</time>
      </trkpt>
      <trkpt lat="42.20815700000002" lon="-1.5851739999999999">
        <ele>445.633</ele>
        <time>2022-06-17T09:24:52Z</time>
      </trkpt>
      <trkpt lat="42.208187000000024" lon="-1.585165">
        <ele>444.823</ele>
        <time>2022-06-17T09:24:53Z</time>
      </trkpt>
      <trkpt lat="42.20821400000003" lon="-1.5851579999999998">
        <ele>444.215</ele>
        <time>2022-06-17T09:24:54Z</time>
      </trkpt>
      <trkpt lat="42.208232000000024" lon="-1.5851549999999999">
        <ele>442.809</ele>
        <time>2022-06-17T09:24:56Z</time>
      </trkpt>
      <trkpt lat="42.208232000000024" lon="-1.5851549999999999">
        <ele>442.474</ele>
        <time>2022-06-17T09:24:57Z</time>
      </trkpt>
      <trkpt lat="42.208232000000024" lon="-1.5851549999999999">
        <ele>441.853</ele>
        <time>2022-06-17T09:24:58Z</time>
      </trkpt>
      <trkpt lat="42.208262000000026" lon="-1.58516">
        <ele>440.268</ele>
        <time>2022-06-17T09:25:55Z</time>
      </trkpt>
      <trkpt lat="42.20832900000003" lon="-1.5851579999999998">
        <ele>440.270</ele>
        <time>2022-06-17T09:25:57Z</time>
      </trkpt>
      <trkpt lat="42.208549000000026" lon="-1.5851549999999999">
        <ele>439.853</ele>
        <time>2022-06-17T09:26:02Z</time>
      </trkpt>
      <trkpt lat="42.20868600000003" lon="-1.585125">
        <ele>439.216</ele>
        <time>2022-06-17T09:26:05Z</time>
      </trkpt>
      <trkpt lat="42.20881200000003" lon="-1.585052">
        <ele>437.644</ele>
        <time>2022-06-17T09:26:08Z</time>
      </trkpt>
      <trkpt lat="42.20889400000003" lon="-1.584979">
        <ele>436.238</ele>
        <time>2022-06-17T09:26:10Z</time>
      </trkpt>
      <trkpt lat="42.209022000000026" lon="-1.5848449999999998">
        <ele>434.666</ele>
        <time>2022-06-17T09:26:13Z</time>
      </trkpt>
      <trkpt lat="42.209121000000025" lon="-1.5847509999999998">
        <ele>433.428</ele>
        <time>2022-06-17T09:26:15Z</time>
      </trkpt>
      <trkpt lat="42.209228000000024" lon="-1.5846459999999998">
        <ele>432.089</ele>
        <time>2022-06-17T09:26:17Z</time>
      </trkpt>
      <trkpt lat="42.20928500000002" lon="-1.5845949999999998">
        <ele>430.617</ele>
        <time>2022-06-17T09:26:18Z</time>
      </trkpt>
      <trkpt lat="42.20934200000002" lon="-1.5845429999999998">
        <ele>429.809</ele>
        <time>2022-06-17T09:26:19Z</time>
      </trkpt>
      <trkpt lat="42.20940100000002" lon="-1.5844929999999997">
        <ele>429.483</ele>
        <time>2022-06-17T09:26:20Z</time>
      </trkpt>
      <trkpt lat="42.20957600000002" lon="-1.5843399999999996">
        <ele>428.042</ele>
        <time>2022-06-17T09:26:23Z</time>
      </trkpt>
      <trkpt lat="42.20963200000002" lon="-1.5842869999999996">
        <ele>426.887</ele>
        <time>2022-06-17T09:26:24Z</time>
      </trkpt>
      <trkpt lat="42.20974900000002" lon="-1.5841919999999996">
        <ele>425.049</ele>
        <time>2022-06-17T09:26:26Z</time>
      </trkpt>
      <trkpt lat="42.209869000000026" lon="-1.5841039999999995">
        <ele>423.462</ele>
        <time>2022-06-17T09:26:28Z</time>
      </trkpt>
      <trkpt lat="42.210125000000026" lon="-1.5839409999999996">
        <ele>422.265</ele>
        <time>2022-06-17T09:26:32Z</time>
      </trkpt>
      <trkpt lat="42.21025900000003" lon="-1.5838539999999997">
        <ele>421.083</ele>
        <time>2022-06-17T09:26:34Z</time>
      </trkpt>
      <trkpt lat="42.21032800000003" lon="-1.5838139999999996">
        <ele>420.427</ele>
        <time>2022-06-17T09:26:35Z</time>
      </trkpt>
      <trkpt lat="42.21039800000003" lon="-1.5837799999999995">
        <ele>419.615</ele>
        <time>2022-06-17T09:26:36Z</time>
      </trkpt>
      <trkpt lat="42.210541000000035" lon="-1.5837299999999994">
        <ele>418.462</ele>
        <time>2022-06-17T09:26:38Z</time>
      </trkpt>
      <trkpt lat="42.21068800000003" lon="-1.5837029999999994">
        <ele>417.283</ele>
        <time>2022-06-17T09:26:40Z</time>
      </trkpt>
      <trkpt lat="42.210839000000036" lon="-1.5836999999999994">
        <ele>415.611</ele>
        <time>2022-06-17T09:26:42Z</time>
      </trkpt>
      <trkpt lat="42.211059000000034" lon="-1.5836919999999994">
        <ele>414.209</ele>
        <time>2022-06-17T09:26:45Z</time>
      </trkpt>
      <trkpt lat="42.21121500000003" lon="-1.5836779999999995">
        <ele>412.427</ele>
        <time>2022-06-17T09:26:47Z</time>
      </trkpt>
      <trkpt lat="42.21130300000003" lon="-1.5836609999999995">
        <ele>411.466</ele>
        <time>2022-06-17T09:26:48Z</time>
      </trkpt>
      <trkpt lat="42.21136000000003" lon="-1.5836469999999996">
        <ele>410.641</ele>
        <time>2022-06-17T09:26:49Z</time>
      </trkpt>
      <trkpt lat="42.211499000000025" lon="-1.5836049999999995">
        <ele>409.463</ele>
        <time>2022-06-17T09:26:51Z</time>
      </trkpt>
      <trkpt lat="42.211631000000025" lon="-1.5835459999999995">
        <ele>407.876</ele>
        <time>2022-06-17T09:26:53Z</time>
      </trkpt>
      <trkpt lat="42.211822000000026" lon="-1.5834599999999994">
        <ele>406.669</ele>
        <time>2022-06-17T09:26:56Z</time>
      </trkpt>
      <trkpt lat="42.21195000000002" lon="-1.5834459999999995">
        <ele>405.467</ele>
        <time>2022-06-17T09:26:58Z</time>
      </trkpt>
      <trkpt lat="42.212028000000025" lon="-1.5834569999999994">
        <ele>405.071</ele>
        <time>2022-06-17T09:26:59Z</time>
      </trkpt>
      <trkpt lat="42.21224100000003" lon="-1.5835339999999996">
        <ele>404.229</ele>
        <time>2022-06-17T09:27:02Z</time>
      </trkpt>
      <trkpt lat="42.212405000000025" lon="-1.5835859999999995">
        <ele>404.045</ele>
        <time>2022-06-17T09:27:04Z</time>
      </trkpt>
      <trkpt lat="42.21267100000003" lon="-1.5836839999999994">
        <ele>403.447</ele>
        <time>2022-06-17T09:27:07Z</time>
      </trkpt>
      <trkpt lat="42.21285100000003" lon="-1.5837569999999994">
        <ele>402.211</ele>
        <time>2022-06-17T09:27:09Z</time>
      </trkpt>
      <trkpt lat="42.21294100000003" lon="-1.5837959999999993">
        <ele>400.809</ele>
        <time>2022-06-17T09:27:10Z</time>
      </trkpt>
      <trkpt lat="42.21302700000003" lon="-1.5838349999999992">
        <ele>399.475</ele>
        <time>2022-06-17T09:27:11Z</time>
      </trkpt>
      <trkpt lat="42.213113000000035" lon="-1.5838749999999993">
        <ele>398.854</ele>
        <time>2022-06-17T09:27:12Z</time>
      </trkpt>
      <trkpt lat="42.21318200000004" lon="-1.5839139999999992">
        <ele>397.889</ele>
        <time>2022-06-17T09:27:13Z</time>
      </trkpt>
      <trkpt lat="42.21328000000004" lon="-1.5839639999999993">
        <ele>396.051</ele>
        <time>2022-06-17T09:27:14Z</time>
      </trkpt>
      <trkpt lat="42.21335700000004" lon="-1.5840069999999993">
        <ele>394.814</ele>
        <time>2022-06-17T09:27:15Z</time>
      </trkpt>
      <trkpt lat="42.21349500000004" lon="-1.5840839999999994">
        <ele>393.877</ele>
        <time>2022-06-17T09:27:17Z</time>
      </trkpt>
      <trkpt lat="42.213572000000035" lon="-1.5841159999999994">
        <ele>392.875</ele>
        <time>2022-06-17T09:27:18Z</time>
      </trkpt>
      <trkpt lat="42.213665000000034" lon="-1.5841389999999995">
        <ele>391.889</ele>
        <time>2022-06-17T09:27:19Z</time>
      </trkpt>
      <trkpt lat="42.213738000000035" lon="-1.5841469999999995">
        <ele>391.247</ele>
        <time>2022-06-17T09:27:20Z</time>
      </trkpt>
      <trkpt lat="42.21385800000004" lon="-1.5841369999999995">
        <ele>390.447</ele>
        <time>2022-06-17T09:27:22Z</time>
      </trkpt>
      <trkpt lat="42.213980000000035" lon="-1.5840999999999994">
        <ele>390.029</ele>
        <time>2022-06-17T09:27:24Z</time>
      </trkpt>
      <trkpt lat="42.214166000000034" lon="-1.5840759999999994">
        <ele>389.221</ele>
        <time>2022-06-17T09:27:27Z</time>
      </trkpt>
      <trkpt lat="42.21430800000003" lon="-1.5840869999999994">
        <ele>388.409</ele>
        <time>2022-06-17T09:27:29Z</time>
      </trkpt>
      <trkpt lat="42.21437500000003" lon="-1.5841009999999993">
        <ele>388.095</ele>
        <time>2022-06-17T09:27:30Z</time>
      </trkpt>
      <trkpt lat="42.21463800000003" lon="-1.5841469999999993">
        <ele>386.624</ele>
        <time>2022-06-17T09:27:34Z</time>
      </trkpt>
      <trkpt lat="42.21479500000003" lon="-1.5841439999999993">
        <ele>386.259</ele>
        <time>2022-06-17T09:27:36Z</time>
      </trkpt>
      <trkpt lat="42.21493700000003" lon="-1.5841369999999992">
        <ele>385.491</ele>
        <time>2022-06-17T09:27:38Z</time>
      </trkpt>
      <trkpt lat="42.21499300000003" lon="-1.5841259999999993">
        <ele>384.674</ele>
        <time>2022-06-17T09:27:39Z</time>
      </trkpt>
      <trkpt lat="42.215076000000025" lon="-1.5840989999999993">
        <ele>384.227</ele>
        <time>2022-06-17T09:27:40Z</time>
      </trkpt>
      <trkpt lat="42.215143000000026" lon="-1.5840719999999993">
        <ele>383.875</ele>
        <time>2022-06-17T09:27:41Z</time>
      </trkpt>
      <trkpt lat="42.21534700000002" lon="-1.5839929999999993">
        <ele>383.239</ele>
        <time>2022-06-17T09:27:44Z</time>
      </trkpt>
      <trkpt lat="42.21555800000002" lon="-1.5839039999999993">
        <ele>381.877</ele>
        <time>2022-06-17T09:27:47Z</time>
      </trkpt>
      <trkpt lat="42.21575600000002" lon="-1.5837969999999992">
        <ele>381.067</ele>
        <time>2022-06-17T09:27:50Z</time>
      </trkpt>
      <trkpt lat="42.21582100000002" lon="-1.5837599999999992">
        <ele>380.681</ele>
        <time>2022-06-17T09:27:51Z</time>
      </trkpt>
      <trkpt lat="42.21592700000002" lon="-1.5837109999999992">
        <ele>379.219</ele>
        <time>2022-06-17T09:27:53Z</time>
      </trkpt>
      <trkpt lat="42.216044000000025" lon="-1.5836919999999992">
        <ele>377.809</ele>
        <time>2022-06-17T09:27:55Z</time>
      </trkpt>
      <trkpt lat="42.216095000000024" lon="-1.5836939999999993">
        <ele>377.027</ele>
        <time>2022-06-17T09:27:56Z</time>
      </trkpt>
      <trkpt lat="42.21615200000002" lon="-1.5836989999999993">
        <ele>376.456</ele>
        <time>2022-06-17T09:27:57Z</time>
      </trkpt>
      <trkpt lat="42.21627100000002" lon="-1.5837139999999994">
        <ele>374.691</ele>
        <time>2022-06-17T09:27:59Z</time>
      </trkpt>
      <trkpt lat="42.21645000000002" lon="-1.5837329999999994">
        <ele>373.413</ele>
        <time>2022-06-17T09:28:02Z</time>
      </trkpt>
      <trkpt lat="42.216812000000026" lon="-1.5838379999999994">
        <ele>372.496</ele>
        <time>2022-06-17T09:28:08Z</time>
      </trkpt>
      <trkpt lat="42.216860000000025" lon="-1.5838489999999994">
        <ele>371.859</ele>
        <time>2022-06-17T09:28:09Z</time>
      </trkpt>
      <trkpt lat="42.216995000000026" lon="-1.5838759999999994">
        <ele>371.297</ele>
        <time>2022-06-17T09:28:11Z</time>
      </trkpt>
      <trkpt lat="42.217389000000026" lon="-1.5839449999999995">
        <ele>370.241</ele>
        <time>2022-06-17T09:28:18Z</time>
      </trkpt>
      <trkpt lat="42.217648000000025" lon="-1.5840039999999995">
        <ele>369.069</ele>
        <time>2022-06-17T09:28:23Z</time>
      </trkpt>
      <trkpt lat="42.21787800000003" lon="-1.5840439999999996">
        <ele>367.866</ele>
        <time>2022-06-17T09:28:27Z</time>
      </trkpt>
      <trkpt lat="42.21812000000003" lon="-1.5840999999999996">
        <ele>366.829</ele>
        <time>2022-06-17T09:28:31Z</time>
      </trkpt>
      <trkpt lat="42.21829400000003" lon="-1.5841219999999996">
        <ele>365.621</ele>
        <time>2022-06-17T09:28:34Z</time>
      </trkpt>
      <trkpt lat="42.21848600000003" lon="-1.5841179999999997">
        <ele>364.209</ele>
        <time>2022-06-17T09:28:37Z</time>
      </trkpt>
      <trkpt lat="42.21854500000003" lon="-1.5841069999999997">
        <ele>363.277</ele>
        <time>2022-06-17T09:28:38Z</time>
      </trkpt>
      <trkpt lat="42.21859000000003" lon="-1.5840939999999997">
        <ele>362.856</ele>
        <time>2022-06-17T09:28:39Z</time>
      </trkpt>
      <trkpt lat="42.21871100000003" lon="-1.5840439999999996">
        <ele>362.061</ele>
        <time>2022-06-17T09:28:41Z</time>
      </trkpt>
      <trkpt lat="42.21875900000003" lon="-1.5840079999999996">
        <ele>361.853</ele>
        <time>2022-06-17T09:28:42Z</time>
      </trkpt>
      <trkpt lat="42.218794000000024" lon="-1.5839769999999997">
        <ele>361.656</ele>
        <time>2022-06-17T09:28:43Z</time>
      </trkpt>
      <trkpt lat="42.21888000000003" lon="-1.5838849999999998">
        <ele>361.629</ele>
        <time>2022-06-17T09:28:45Z</time>
      </trkpt>
      <trkpt lat="42.218990000000026" lon="-1.5837389999999998">
        <ele>361.267</ele>
        <time>2022-06-17T09:28:48Z</time>
      </trkpt>
      <trkpt lat="42.21916300000002" lon="-1.5835319999999997">
        <ele>360.641</ele>
        <time>2022-06-17T09:28:52Z</time>
      </trkpt>
      <trkpt lat="42.21929800000002" lon="-1.5833679999999997">
        <ele>359.849</ele>
        <time>2022-06-17T09:28:55Z</time>
      </trkpt>
      <trkpt lat="42.21934400000002" lon="-1.5833189999999997">
        <ele>359.418</ele>
        <time>2022-06-17T09:28:56Z</time>
      </trkpt>
      <trkpt lat="42.21942900000002" lon="-1.5832309999999996">
        <ele>358.298</ele>
        <time>2022-06-17T09:28:58Z</time>
      </trkpt>
      <trkpt lat="42.21952400000002" lon="-1.5831379999999997">
        <ele>357.217</ele>
        <time>2022-06-17T09:29:00Z</time>
      </trkpt>
      <trkpt lat="42.21962100000002" lon="-1.5830519999999997">
        <ele>356.009</ele>
        <time>2022-06-17T09:29:02Z</time>
      </trkpt>
      <trkpt lat="42.21967200000002" lon="-1.5830119999999996">
        <ele>355.822</ele>
        <time>2022-06-17T09:29:03Z</time>
      </trkpt>
      <trkpt lat="42.219892000000016" lon="-1.5828719999999996">
        <ele>354.821</ele>
        <time>2022-06-17T09:29:07Z</time>
      </trkpt>
      <trkpt lat="42.22003800000002" lon="-1.5827989999999996">
        <ele>354.256</ele>
        <time>2022-06-17T09:29:10Z</time>
      </trkpt>
      <trkpt lat="42.22014100000002" lon="-1.5827389999999997">
        <ele>353.828</ele>
        <time>2022-06-17T09:29:12Z</time>
      </trkpt>
      <trkpt lat="42.22026300000002" lon="-1.5826779999999996">
        <ele>353.271</ele>
        <time>2022-06-17T09:29:15Z</time>
      </trkpt>
      <trkpt lat="42.220312000000014" lon="-1.5826499999999997">
        <ele>353.074</ele>
        <time>2022-06-17T09:29:16Z</time>
      </trkpt>
      <trkpt lat="42.220466000000016" lon="-1.5825559999999996">
        <ele>352.882</ele>
        <time>2022-06-17T09:29:20Z</time>
      </trkpt>
      <trkpt lat="42.22051800000001" lon="-1.5825299999999995">
        <ele>352.636</ele>
        <time>2022-06-17T09:29:21Z</time>
      </trkpt>
      <trkpt lat="42.22067100000001" lon="-1.5824569999999996">
        <ele>352.644</ele>
        <time>2022-06-17T09:29:25Z</time>
      </trkpt>
      <trkpt lat="42.22071600000001" lon="-1.5824299999999996">
        <ele>352.646</ele>
        <time>2022-06-17T09:29:26Z</time>
      </trkpt>
      <trkpt lat="42.22082900000001" lon="-1.5823749999999996">
        <ele>352.688</ele>
        <time>2022-06-17T09:29:29Z</time>
      </trkpt>
      <trkpt lat="42.22103800000001" lon="-1.5822739999999997">
        <ele>353.216</ele>
        <time>2022-06-17T09:29:35Z</time>
      </trkpt>
      <trkpt lat="42.221337000000005" lon="-1.5821049999999997">
        <ele>353.809</ele>
        <time>2022-06-17T09:29:44Z</time>
      </trkpt>
      <trkpt lat="42.221566" lon="-1.5819839999999996">
        <ele>355.065</ele>
        <time>2022-06-17T09:29:51Z</time>
      </trkpt>
      <trkpt lat="42.221632" lon="-1.5819479999999997">
        <ele>355.224</ele>
        <time>2022-06-17T09:29:53Z</time>
      </trkpt>
      <trkpt lat="42.221826" lon="-1.5818489999999996">
        <ele>356.059</ele>
        <time>2022-06-17T09:29:59Z</time>
      </trkpt>
      <trkpt lat="42.221857" lon="-1.5818269999999997">
        <ele>356.051</ele>
        <time>2022-06-17T09:30:00Z</time>
      </trkpt>
      <trkpt lat="42.22205" lon="-1.5817139999999996">
        <ele>356.614</ele>
        <time>2022-06-17T09:30:06Z</time>
      </trkpt>
      <trkpt lat="42.222213" lon="-1.5815489999999996">
        <ele>357.257</ele>
        <time>2022-06-17T09:30:12Z</time>
      </trkpt>
      <trkpt lat="42.22223700000001" lon="-1.5815169999999996">
        <ele>357.475</ele>
        <time>2022-06-17T09:30:13Z</time>
      </trkpt>
      <trkpt lat="42.222362000000004" lon="-1.5813169999999996">
        <ele>358.089</ele>
        <time>2022-06-17T09:30:19Z</time>
      </trkpt>
      <trkpt lat="42.222422" lon="-1.5812209999999995">
        <ele>358.487</ele>
        <time>2022-06-17T09:30:22Z</time>
      </trkpt>
      <trkpt lat="42.222509" lon="-1.5811339999999996">
        <ele>359.274</ele>
        <time>2022-06-17T09:30:26Z</time>
      </trkpt>
      <trkpt lat="42.222548" lon="-1.5810859999999995">
        <ele>359.656</ele>
        <time>2022-06-17T09:30:28Z</time>
      </trkpt>
      <trkpt lat="42.222609000000006" lon="-1.5809949999999995">
        <ele>360.421</ele>
        <time>2022-06-17T09:30:32Z</time>
      </trkpt>
      <trkpt lat="42.22264700000001" lon="-1.5809549999999994">
        <ele>360.609</ele>
        <time>2022-06-17T09:30:34Z</time>
      </trkpt>
      <trkpt lat="42.22274800000001" lon="-1.5808399999999994">
        <ele>361.858</ele>
        <time>2022-06-17T09:30:39Z</time>
      </trkpt>
      <trkpt lat="42.22285100000001" lon="-1.5807349999999993">
        <ele>362.447</ele>
        <time>2022-06-17T09:30:44Z</time>
      </trkpt>
      <trkpt lat="42.22289600000001" lon="-1.5806919999999993">
        <ele>362.822</ele>
        <time>2022-06-17T09:30:46Z</time>
      </trkpt>
      <trkpt lat="42.22304000000001" lon="-1.5805899999999993">
        <ele>363.824</ele>
        <time>2022-06-17T09:30:52Z</time>
      </trkpt>
      <trkpt lat="42.22319700000001" lon="-1.5804569999999993">
        <ele>364.297</ele>
        <time>2022-06-17T09:30:58Z</time>
      </trkpt>
      <trkpt lat="42.223399000000015" lon="-1.5803009999999993">
        <ele>364.850</ele>
        <time>2022-06-17T09:31:06Z</time>
      </trkpt>
      <trkpt lat="42.22342800000001" lon="-1.5802739999999993">
        <ele>364.828</ele>
        <time>2022-06-17T09:31:07Z</time>
      </trkpt>
      <trkpt lat="42.22358700000001" lon="-1.5801069999999993">
        <ele>365.682</ele>
        <time>2022-06-17T09:31:14Z</time>
      </trkpt>
      <trkpt lat="42.22366400000001" lon="-1.5800089999999993">
        <ele>366.050</ele>
        <time>2022-06-17T09:31:18Z</time>
      </trkpt>
      <trkpt lat="42.22370200000001" lon="-1.5799409999999994">
        <ele>366.088</ele>
        <time>2022-06-17T09:31:20Z</time>
      </trkpt>
      <trkpt lat="42.22377900000001" lon="-1.5798299999999994">
        <ele>367.024</ele>
        <time>2022-06-17T09:31:24Z</time>
      </trkpt>
      <trkpt lat="42.223870000000005" lon="-1.5796899999999994">
        <ele>367.626</ele>
        <time>2022-06-17T09:31:29Z</time>
      </trkpt>
      <trkpt lat="42.22392800000001" lon="-1.5796099999999993">
        <ele>368.209</ele>
        <time>2022-06-17T09:31:32Z</time>
      </trkpt>
      <trkpt lat="42.224047000000006" lon="-1.5794729999999992">
        <ele>369.289</ele>
        <time>2022-06-17T09:31:38Z</time>
      </trkpt>
      <trkpt lat="42.224099" lon="-1.5794239999999993">
        <ele>369.688</ele>
        <time>2022-06-17T09:31:40Z</time>
      </trkpt>
      <trkpt lat="42.224192" lon="-1.5793409999999992">
        <ele>370.223</ele>
        <time>2022-06-17T09:31:44Z</time>
      </trkpt>
      <trkpt lat="42.224284000000004" lon="-1.5792579999999992">
        <ele>370.885</ele>
        <time>2022-06-17T09:31:48Z</time>
      </trkpt>
      <trkpt lat="42.22442100000001" lon="-1.5791449999999991">
        <ele>371.228</ele>
        <time>2022-06-17T09:31:54Z</time>
      </trkpt>
      <trkpt lat="42.22445100000001" lon="-1.5791259999999991">
        <ele>371.291</ele>
        <time>2022-06-17T09:31:55Z</time>
      </trkpt>
      <trkpt lat="42.22464800000001" lon="-1.579004999999999">
        <ele>371.489</ele>
        <time>2022-06-17T09:32:00Z</time>
      </trkpt>
      <trkpt lat="42.22491600000001" lon="-1.578800999999999">
        <ele>370.433</ele>
        <time>2022-06-17T09:32:06Z</time>
      </trkpt>
      <trkpt lat="42.224953000000006" lon="-1.578757999999999">
        <ele>370.081</ele>
        <time>2022-06-17T09:32:07Z</time>
      </trkpt>
      <trkpt lat="42.225055000000005" lon="-1.578630999999999">
        <ele>368.831</ele>
        <time>2022-06-17T09:32:10Z</time>
      </trkpt>
      <trkpt lat="42.225117000000004" lon="-1.578542999999999">
        <ele>367.461</ele>
        <time>2022-06-17T09:32:12Z</time>
      </trkpt>
      <trkpt lat="42.225179000000004" lon="-1.578468999999999">
        <ele>366.807</ele>
        <time>2022-06-17T09:32:14Z</time>
      </trkpt>
      <trkpt lat="42.225312" lon="-1.578300999999999">
        <ele>366.409</ele>
        <time>2022-06-17T09:32:19Z</time>
      </trkpt>
      <trkpt lat="42.225518" lon="-1.578031999999999">
        <ele>366.454</ele>
        <time>2022-06-17T09:32:26Z</time>
      </trkpt>
      <trkpt lat="42.225642" lon="-1.577852999999999">
        <ele>366.493</ele>
        <time>2022-06-17T09:32:31Z</time>
      </trkpt>
      <trkpt lat="42.225729" lon="-1.577615999999999">
        <ele>366.288</ele>
        <time>2022-06-17T09:32:37Z</time>
      </trkpt>
      <trkpt lat="42.225767000000005" lon="-1.577481999999999">
        <ele>366.480</ele>
        <time>2022-06-17T09:32:42Z</time>
      </trkpt>
      <trkpt lat="42.225772000000006" lon="-1.5771749999999989">
        <ele>367.683</ele>
        <time>2022-06-17T09:32:50Z</time>
      </trkpt>
      <trkpt lat="42.22574900000001" lon="-1.5770729999999988">
        <ele>367.626</ele>
        <time>2022-06-17T09:32:55Z</time>
      </trkpt>
      <trkpt lat="42.22574900000001" lon="-1.5770729999999988">
        <ele>367.654</ele>
        <time>2022-06-17T09:32:56Z</time>
      </trkpt>
      <trkpt lat="42.22572900000001" lon="-1.5769969999999989">
        <ele>367.068</ele>
        <time>2022-06-17T09:33:17Z</time>
      </trkpt>
      <trkpt lat="42.22570900000001" lon="-1.5769219999999988">
        <ele>367.076</ele>
        <time>2022-06-17T09:33:19Z</time>
      </trkpt>
      <trkpt lat="42.22564800000001" lon="-1.5766789999999988">
        <ele>367.068</ele>
        <time>2022-06-17T09:33:24Z</time>
      </trkpt>
      <trkpt lat="42.225587000000004" lon="-1.5764219999999989">
        <ele>366.642</ele>
        <time>2022-06-17T09:33:30Z</time>
      </trkpt>
      <trkpt lat="42.225576000000004" lon="-1.576375999999999">
        <ele>366.426</ele>
        <time>2022-06-17T09:33:31Z</time>
      </trkpt>
      <trkpt lat="42.225504" lon="-1.5761099999999988">
        <ele>366.209</ele>
        <time>2022-06-17T09:33:37Z</time>
      </trkpt>
      <trkpt lat="42.225414" lon="-1.5758889999999988">
        <ele>365.827</ele>
        <time>2022-06-17T09:33:43Z</time>
      </trkpt>
      <trkpt lat="42.225339" lon="-1.5756949999999987">
        <ele>365.426</ele>
        <time>2022-06-17T09:33:48Z</time>
      </trkpt>
      <trkpt lat="42.225283999999995" lon="-1.5755739999999987">
        <ele>365.221</ele>
        <time>2022-06-17T09:33:51Z</time>
      </trkpt>
      <trkpt lat="42.22508799999999" lon="-1.5752349999999986">
        <ele>365.053</ele>
        <time>2022-06-17T09:34:01Z</time>
      </trkpt>
      <trkpt lat="42.22500999999999" lon="-1.5750849999999985">
        <ele>365.226</ele>
        <time>2022-06-17T09:34:06Z</time>
      </trkpt>
      <trkpt lat="42.22488099999999" lon="-1.5749229999999985">
        <ele>365.689</ele>
        <time>2022-06-17T09:34:12Z</time>
      </trkpt>
      <trkpt lat="42.22474699999999" lon="-1.5747389999999986">
        <ele>366.057</ele>
        <time>2022-06-17T09:34:19Z</time>
      </trkpt>
      <trkpt lat="42.224687999999986" lon="-1.5746099999999985">
        <ele>366.051</ele>
        <time>2022-06-17T09:34:23Z</time>
      </trkpt>
      <trkpt lat="42.22463599999999" lon="-1.5744909999999985">
        <ele>366.279</ele>
        <time>2022-06-17T09:34:27Z</time>
      </trkpt>
      <trkpt lat="42.22457599999999" lon="-1.5743069999999986">
        <ele>366.479</ele>
        <time>2022-06-17T09:34:33Z</time>
      </trkpt>
      <trkpt lat="42.22453999999999" lon="-1.5742269999999985">
        <ele>366.405</ele>
        <time>2022-06-17T09:34:36Z</time>
      </trkpt>
      <trkpt lat="42.22448099999999" lon="-1.5741299999999985">
        <ele>366.425</ele>
        <time>2022-06-17T09:34:40Z</time>
      </trkpt>
      <trkpt lat="42.22433399999999" lon="-1.5738979999999985">
        <ele>366.609</ele>
        <time>2022-06-17T09:34:49Z</time>
      </trkpt>
      <trkpt lat="42.22426999999999" lon="-1.5737969999999986">
        <ele>366.838</ele>
        <time>2022-06-17T09:34:54Z</time>
      </trkpt>
      <trkpt lat="42.22418299999999" lon="-1.5736819999999985">
        <ele>367.067</ele>
        <time>2022-06-17T09:35:00Z</time>
      </trkpt>
      <trkpt lat="42.22410899999999" lon="-1.5735059999999985">
        <ele>367.242</ele>
        <time>2022-06-17T09:35:06Z</time>
      </trkpt>
      <trkpt lat="42.224003999999994" lon="-1.5733259999999984">
        <ele>367.484</ele>
        <time>2022-06-17T09:35:14Z</time>
      </trkpt>
      <trkpt lat="42.22391" lon="-1.5731959999999985">
        <ele>367.627</ele>
        <time>2022-06-17T09:35:21Z</time>
      </trkpt>
      <trkpt lat="42.223893999999994" lon="-1.5731659999999985">
        <ele>367.690</ele>
        <time>2022-06-17T09:35:22Z</time>
      </trkpt>
      <trkpt lat="42.223805999999996" lon="-1.5729669999999984">
        <ele>367.858</ele>
        <time>2022-06-17T09:35:29Z</time>
      </trkpt>
      <trkpt lat="42.223707999999995" lon="-1.5727999999999984">
        <ele>367.822</ele>
        <time>2022-06-17T09:35:36Z</time>
      </trkpt>
      <trkpt lat="42.223606999999994" lon="-1.5726459999999984">
        <ele>368.040</ele>
        <time>2022-06-17T09:35:43Z</time>
      </trkpt>
      <trkpt lat="42.22347499999999" lon="-1.5724389999999984">
        <ele>368.465</ele>
        <time>2022-06-17T09:35:52Z</time>
      </trkpt>
      <trkpt lat="42.223457999999994" lon="-1.5724179999999983">
        <ele>368.468</ele>
        <time>2022-06-17T09:35:53Z</time>
      </trkpt>
      <trkpt lat="42.223336999999994" lon="-1.5722759999999982">
        <ele>368.814</ele>
        <time>2022-06-17T09:36:00Z</time>
      </trkpt>
      <trkpt lat="42.22323599999999" lon="-1.5720779999999983">
        <ele>369.209</ele>
        <time>2022-06-17T09:36:07Z</time>
      </trkpt>
      <trkpt lat="42.223141999999996" lon="-1.5719119999999982">
        <ele>369.447</ele>
        <time>2022-06-17T09:36:13Z</time>
      </trkpt>
      <trkpt lat="42.22311199999999" lon="-1.571861999999998">
        <ele>369.666</ele>
        <time>2022-06-17T09:36:15Z</time>
      </trkpt>
      <trkpt lat="42.22296899999999" lon="-1.571605999999998">
        <ele>369.831</ele>
        <time>2022-06-17T09:36:25Z</time>
      </trkpt>
      <trkpt lat="42.222905999999995" lon="-1.5714969999999981">
        <ele>370.053</ele>
        <time>2022-06-17T09:36:30Z</time>
      </trkpt>
      <trkpt lat="42.222790999999994" lon="-1.571249999999998">
        <ele>370.016</ele>
        <time>2022-06-17T09:36:38Z</time>
      </trkpt>
      <trkpt lat="42.22270699999999" lon="-1.570981999999998">
        <ele>370.039</ele>
        <time>2022-06-17T09:36:47Z</time>
      </trkpt>
      <trkpt lat="42.222587999999995" lon="-1.570714999999998">
        <ele>369.877</ele>
        <time>2022-06-17T09:36:56Z</time>
      </trkpt>
      <trkpt lat="42.222441999999994" lon="-1.5705039999999981">
        <ele>370.051</ele>
        <time>2022-06-17T09:37:05Z</time>
      </trkpt>
      <trkpt lat="42.222350999999996" lon="-1.570272999999998">
        <ele>370.069</ele>
        <time>2022-06-17T09:37:12Z</time>
      </trkpt>
      <trkpt lat="42.222306999999994" lon="-1.570051999999998">
        <ele>370.073</ele>
        <time>2022-06-17T09:37:18Z</time>
      </trkpt>
      <trkpt lat="42.222182" lon="-1.569786999999998">
        <ele>369.885</ele>
        <time>2022-06-17T09:37:26Z</time>
      </trkpt>
      <trkpt lat="42.22205099999999" lon="-1.569574999999998">
        <ele>369.613</ele>
        <time>2022-06-17T09:37:34Z</time>
      </trkpt>
      <trkpt lat="42.221971999999994" lon="-1.5693679999999979">
        <ele>369.409</ele>
        <time>2022-06-17T09:37:41Z</time>
      </trkpt>
      <trkpt lat="42.221900999999995" lon="-1.569220999999998">
        <ele>369.478</ele>
        <time>2022-06-17T09:37:47Z</time>
      </trkpt>
      <trkpt lat="42.22177799999999" lon="-1.569040999999998">
        <ele>369.827</ele>
        <time>2022-06-17T09:37:56Z</time>
      </trkpt>
      <trkpt lat="42.22167099999999" lon="-1.5688259999999978">
        <ele>370.022</ele>
        <time>2022-06-17T09:38:05Z</time>
      </trkpt>
      <trkpt lat="42.22165199999999" lon="-1.5687759999999977">
        <ele>370.034</ele>
        <time>2022-06-17T09:38:07Z</time>
      </trkpt>
      <trkpt lat="42.22161899999999" lon="-1.5686819999999977">
        <ele>370.027</ele>
        <time>2022-06-17T09:38:11Z</time>
      </trkpt>
      <trkpt lat="42.22154599999999" lon="-1.5684169999999977">
        <ele>370.090</ele>
        <time>2022-06-17T09:38:19Z</time>
      </trkpt>
      <trkpt lat="42.22147199999999" lon="-1.5681679999999978">
        <ele>369.688</ele>
        <time>2022-06-17T09:38:27Z</time>
      </trkpt>
      <trkpt lat="42.22138599999999" lon="-1.5679599999999978">
        <ele>369.012</ele>
        <time>2022-06-17T09:38:35Z</time>
      </trkpt>
      <trkpt lat="42.22136399999999" lon="-1.5677649999999979">
        <ele>368.820</ele>
        <time>2022-06-17T09:38:41Z</time>
      </trkpt>
      <trkpt lat="42.22143099999999" lon="-1.567620999999998">
        <ele>368.263</ele>
        <time>2022-06-17T09:38:45Z</time>
      </trkpt>
      <trkpt lat="42.22147899999999" lon="-1.567568999999998">
        <ele>367.644</ele>
        <time>2022-06-17T09:38:47Z</time>
      </trkpt>
      <trkpt lat="42.22150299999999" lon="-1.567550999999998">
        <ele>367.018</ele>
        <time>2022-06-17T09:38:48Z</time>
      </trkpt>
      <trkpt lat="42.22155599999999" lon="-1.567514999999998">
        <ele>366.009</ele>
        <time>2022-06-17T09:38:50Z</time>
      </trkpt>
      <trkpt lat="42.221644999999995" lon="-1.567476999999998">
        <ele>364.827</ele>
        <time>2022-06-17T09:38:53Z</time>
      </trkpt>
      <trkpt lat="42.221675" lon="-1.567470999999998">
        <ele>364.696</ele>
        <time>2022-06-17T09:38:54Z</time>
      </trkpt>
      <trkpt lat="42.221855" lon="-1.567417999999998">
        <ele>363.461</ele>
        <time>2022-06-17T09:39:00Z</time>
      </trkpt>
      <trkpt lat="42.221882" lon="-1.567396999999998">
        <ele>363.253</ele>
        <time>2022-06-17T09:39:01Z</time>
      </trkpt>
      <trkpt lat="42.221926" lon="-1.567275999999998">
        <ele>362.246</ele>
        <time>2022-06-17T09:39:05Z</time>
      </trkpt>
      <trkpt lat="42.221926" lon="-1.5670439999999979">
        <ele>361.269</ele>
        <time>2022-06-17T09:39:12Z</time>
      </trkpt>
      <trkpt lat="42.22185" lon="-1.5668829999999978">
        <ele>361.217</ele>
        <time>2022-06-17T09:39:18Z</time>
      </trkpt>
      <trkpt lat="42.221713" lon="-1.5666939999999978">
        <ele>361.441</ele>
        <time>2022-06-17T09:39:27Z</time>
      </trkpt>
      <trkpt lat="42.221594" lon="-1.5664989999999979">
        <ele>361.239</ele>
        <time>2022-06-17T09:39:35Z</time>
      </trkpt>
      <trkpt lat="42.221495000000004" lon="-1.5662289999999979">
        <ele>361.885</ele>
        <time>2022-06-17T09:39:45Z</time>
      </trkpt>
      <trkpt lat="42.22135300000001" lon="-1.5659279999999978">
        <ele>361.689</ele>
        <time>2022-06-17T09:39:55Z</time>
      </trkpt>
      <trkpt lat="42.221199000000006" lon="-1.5656239999999977">
        <ele>361.417</ele>
        <time>2022-06-17T09:40:06Z</time>
      </trkpt>
      <trkpt lat="42.221089000000006" lon="-1.5653749999999977">
        <ele>361.409</ele>
        <time>2022-06-17T09:40:14Z</time>
      </trkpt>
      <trkpt lat="42.22101200000001" lon="-1.5651659999999978">
        <ele>361.259</ele>
        <time>2022-06-17T09:40:20Z</time>
      </trkpt>
      <trkpt lat="42.22106600000001" lon="-1.5650339999999978">
        <ele>361.068</ele>
        <time>2022-06-17T09:40:24Z</time>
      </trkpt>
      <trkpt lat="42.22113900000001" lon="-1.5649809999999977">
        <ele>360.233</ele>
        <time>2022-06-17T09:40:27Z</time>
      </trkpt>
      <trkpt lat="42.22122600000001" lon="-1.5649379999999977">
        <ele>359.275</ele>
        <time>2022-06-17T09:40:30Z</time>
      </trkpt>
      <trkpt lat="42.22126800000001" lon="-1.5649179999999978">
        <ele>358.868</ele>
        <time>2022-06-17T09:40:31Z</time>
      </trkpt>
      <trkpt lat="42.22141600000001" lon="-1.5648569999999977">
        <ele>358.081</ele>
        <time>2022-06-17T09:40:35Z</time>
      </trkpt>
      <trkpt lat="42.22149300000001" lon="-1.5648449999999978">
        <ele>357.689</ele>
        <time>2022-06-17T09:40:37Z</time>
      </trkpt>
      <trkpt lat="42.22157000000001" lon="-1.564832999999998">
        <ele>357.053</ele>
        <time>2022-06-17T09:40:39Z</time>
      </trkpt>
      <trkpt lat="42.22172100000001" lon="-1.564796999999998">
        <ele>355.691</ele>
        <time>2022-06-17T09:40:43Z</time>
      </trkpt>
      <trkpt lat="42.22187200000001" lon="-1.564712999999998">
        <ele>354.686</ele>
        <time>2022-06-17T09:40:47Z</time>
      </trkpt>
      <trkpt lat="42.22190400000001" lon="-1.564682999999998">
        <ele>354.260</ele>
        <time>2022-06-17T09:40:48Z</time>
      </trkpt>
      <trkpt lat="42.22203000000001" lon="-1.564541999999998">
        <ele>353.226</ele>
        <time>2022-06-17T09:40:52Z</time>
      </trkpt>
      <trkpt lat="42.22205900000001" lon="-1.5645089999999982">
        <ele>352.809</ele>
        <time>2022-06-17T09:40:53Z</time>
      </trkpt>
      <trkpt lat="42.22214700000001" lon="-1.5644139999999982">
        <ele>352.039</ele>
        <time>2022-06-17T09:40:56Z</time>
      </trkpt>
      <trkpt lat="42.22227000000001" lon="-1.5642899999999982">
        <ele>350.668</ele>
        <time>2022-06-17T09:41:00Z</time>
      </trkpt>
      <trkpt lat="42.22233700000001" lon="-1.564239999999998">
        <ele>350.253</ele>
        <time>2022-06-17T09:41:03Z</time>
      </trkpt>
      <trkpt lat="42.22234400000001" lon="-1.5642229999999981">
        <ele>350.085</ele>
        <time>2022-06-17T09:41:04Z</time>
      </trkpt>
      <trkpt lat="42.222387000000005" lon="-1.5641109999999983">
        <ele>349.448</ele>
        <time>2022-06-17T09:41:07Z</time>
      </trkpt>
      <trkpt lat="42.222421000000004" lon="-1.5640029999999983">
        <ele>349.051</ele>
        <time>2022-06-17T09:41:09Z</time>
      </trkpt>
      <trkpt lat="42.222515" lon="-1.5636769999999982">
        <ele>348.629</ele>
        <time>2022-06-17T09:41:14Z</time>
      </trkpt>
      <trkpt lat="42.22253" lon="-1.5636089999999983">
        <ele>348.233</ele>
        <time>2022-06-17T09:41:15Z</time>
      </trkpt>
      <trkpt lat="42.222568" lon="-1.5634689999999982">
        <ele>347.081</ele>
        <time>2022-06-17T09:41:17Z</time>
      </trkpt>
      <trkpt lat="42.222601000000004" lon="-1.5633539999999981">
        <ele>345.883</ele>
        <time>2022-06-17T09:41:19Z</time>
      </trkpt>
      <trkpt lat="42.222652000000004" lon="-1.563141999999998">
        <ele>344.625</ele>
        <time>2022-06-17T09:41:22Z</time>
      </trkpt>
      <trkpt lat="42.222737" lon="-1.562723999999998">
        <ele>343.417</ele>
        <time>2022-06-17T09:41:28Z</time>
      </trkpt>
      <trkpt lat="42.222769" lon="-1.562587999999998">
        <ele>342.409</ele>
        <time>2022-06-17T09:41:30Z</time>
      </trkpt>
      <trkpt lat="42.222784" lon="-1.562523999999998">
        <ele>342.239</ele>
        <time>2022-06-17T09:41:31Z</time>
      </trkpt>
      <trkpt lat="42.222829999999995" lon="-1.562182999999998">
        <ele>341.678</ele>
        <time>2022-06-17T09:41:36Z</time>
      </trkpt>
      <trkpt lat="42.222863" lon="-1.561894999999998">
        <ele>341.213</ele>
        <time>2022-06-17T09:41:40Z</time>
      </trkpt>
      <trkpt lat="42.222905" lon="-1.561662999999998">
        <ele>340.815</ele>
        <time>2022-06-17T09:41:43Z</time>
      </trkpt>
      <trkpt lat="42.222922999999994" lon="-1.561470999999998">
        <ele>340.258</ele>
        <time>2022-06-17T09:41:46Z</time>
      </trkpt>
      <trkpt lat="42.22292999999999" lon="-1.561249999999998">
        <ele>339.691</ele>
        <time>2022-06-17T09:41:49Z</time>
      </trkpt>
      <trkpt lat="42.22293599999999" lon="-1.561095999999998">
        <ele>339.059</ele>
        <time>2022-06-17T09:41:51Z</time>
      </trkpt>
      <trkpt lat="42.22294699999999" lon="-1.560926999999998">
        <ele>338.023</ele>
        <time>2022-06-17T09:41:53Z</time>
      </trkpt>
      <trkpt lat="42.22295599999999" lon="-1.560721999999998">
        <ele>336.671</ele>
        <time>2022-06-17T09:41:56Z</time>
      </trkpt>
      <trkpt lat="42.22297099999999" lon="-1.5605879999999979">
        <ele>336.496</ele>
        <time>2022-06-17T09:41:58Z</time>
      </trkpt>
      <trkpt lat="42.22297399999999" lon="-1.560529999999998">
        <ele>336.231</ele>
        <time>2022-06-17T09:41:59Z</time>
      </trkpt>
      <trkpt lat="42.22295699999999" lon="-1.5603369999999979">
        <ele>335.624</ele>
        <time>2022-06-17T09:42:02Z</time>
      </trkpt>
      <trkpt lat="42.22294999999999" lon="-1.560270999999998">
        <ele>335.609</ele>
        <time>2022-06-17T09:42:03Z</time>
      </trkpt>
      <trkpt lat="42.22286399999999" lon="-1.559708999999998">
        <ele>335.080</ele>
        <time>2022-06-17T09:42:11Z</time>
      </trkpt>
      <trkpt lat="42.22284299999999" lon="-1.559547999999998">
        <ele>334.489</ele>
        <time>2022-06-17T09:42:13Z</time>
      </trkpt>
      <trkpt lat="42.22279199999999" lon="-1.559179999999998">
        <ele>333.454</ele>
        <time>2022-06-17T09:42:18Z</time>
      </trkpt>
      <trkpt lat="42.22271299999999" lon="-1.558746999999998">
        <ele>332.286</ele>
        <time>2022-06-17T09:42:24Z</time>
      </trkpt>
      <trkpt lat="42.22269299999999" lon="-1.5585979999999982">
        <ele>331.469</ele>
        <time>2022-06-17T09:42:27Z</time>
      </trkpt>
      <trkpt lat="42.22268499999999" lon="-1.5584349999999982">
        <ele>331.292</ele>
        <time>2022-06-17T09:42:32Z</time>
      </trkpt>
      <trkpt lat="42.222683999999994" lon="-1.5584279999999981">
        <ele>331.230</ele>
        <time>2022-06-17T09:42:34Z</time>
      </trkpt>
      <trkpt lat="42.222685999999996" lon="-1.5583659999999981">
        <ele>330.874</ele>
        <time>2022-06-17T09:44:17Z</time>
      </trkpt>
      <trkpt lat="42.22268" lon="-1.558158999999998">
        <ele>330.882</ele>
        <time>2022-06-17T09:44:22Z</time>
      </trkpt>
      <trkpt lat="42.222671999999996" lon="-1.557786999999998">
        <ele>330.695</ele>
        <time>2022-06-17T09:44:31Z</time>
      </trkpt>
      <trkpt lat="42.22267599999999" lon="-1.557386999999998">
        <ele>330.249</ele>
        <time>2022-06-17T09:44:38Z</time>
      </trkpt>
      <trkpt lat="42.222666999999994" lon="-1.557112999999998">
        <ele>329.823</ele>
        <time>2022-06-17T09:44:42Z</time>
      </trkpt>
      <trkpt lat="42.222638999999994" lon="-1.556841999999998">
        <ele>329.209</ele>
        <time>2022-06-17T09:44:46Z</time>
      </trkpt>
      <trkpt lat="42.22261499999999" lon="-1.556615999999998">
        <ele>328.820</ele>
        <time>2022-06-17T09:44:49Z</time>
      </trkpt>
      <trkpt lat="42.22261599999999" lon="-1.556226999999998">
        <ele>327.479</ele>
        <time>2022-06-17T09:44:54Z</time>
      </trkpt>
      <trkpt lat="42.22258799999999" lon="-1.555823999999998">
        <ele>326.444</ele>
        <time>2022-06-17T09:44:59Z</time>
      </trkpt>
      <trkpt lat="42.222515999999985" lon="-1.5553539999999981">
        <ele>325.466</ele>
        <time>2022-06-17T09:45:05Z</time>
      </trkpt>
      <trkpt lat="42.222476999999984" lon="-1.555140999999998">
        <ele>325.029</ele>
        <time>2022-06-17T09:45:08Z</time>
      </trkpt>
      <trkpt lat="42.22243899999998" lon="-1.554963999999998">
        <ele>324.872</ele>
        <time>2022-06-17T09:45:11Z</time>
      </trkpt>
      <trkpt lat="42.22241899999998" lon="-1.554898999999998">
        <ele>324.620</ele>
        <time>2022-06-17T09:45:13Z</time>
      </trkpt>
      <trkpt lat="42.22234799999998" lon="-1.554702999999998">
        <ele>324.694</ele>
        <time>2022-06-17T09:45:19Z</time>
      </trkpt>
      <trkpt lat="42.222318999999985" lon="-1.554472999999998">
        <ele>324.612</ele>
        <time>2022-06-17T09:45:24Z</time>
      </trkpt>
      <trkpt lat="42.22235999999999" lon="-1.554373999999998">
        <ele>324.687</ele>
        <time>2022-06-17T09:45:26Z</time>
      </trkpt>
      <trkpt lat="42.22241899999999" lon="-1.554275999999998">
        <ele>324.642</ele>
        <time>2022-06-17T09:45:28Z</time>
      </trkpt>
      <trkpt lat="42.22253399999999" lon="-1.554069999999998">
        <ele>324.626</ele>
        <time>2022-06-17T09:45:32Z</time>
      </trkpt>
      <trkpt lat="42.22259199999999" lon="-1.5539369999999981">
        <ele>324.609</ele>
        <time>2022-06-17T09:45:34Z</time>
      </trkpt>
      <trkpt lat="42.22266199999999" lon="-1.553723999999998">
        <ele>324.239</ele>
        <time>2022-06-17T09:45:37Z</time>
      </trkpt>
      <trkpt lat="42.222699999999996" lon="-1.5535319999999981">
        <ele>322.658</ele>
        <time>2022-06-17T09:45:40Z</time>
      </trkpt>
      <trkpt lat="42.222716" lon="-1.5534719999999982">
        <ele>322.083</ele>
        <time>2022-06-17T09:45:41Z</time>
      </trkpt>
      <trkpt lat="42.222743" lon="-1.5534049999999981">
        <ele>321.265</ele>
        <time>2022-06-17T09:45:42Z</time>
      </trkpt>
      <trkpt lat="42.222783" lon="-1.5532999999999981">
        <ele>320.478</ele>
        <time>2022-06-17T09:45:44Z</time>
      </trkpt>
      <trkpt lat="42.222799" lon="-1.553203999999998">
        <ele>320.291</ele>
        <time>2022-06-17T09:45:46Z</time>
      </trkpt>
      <trkpt lat="42.222809000000005" lon="-1.553087999999998">
        <ele>320.069</ele>
        <time>2022-06-17T09:45:49Z</time>
      </trkpt>
      <trkpt lat="42.22274900000001" lon="-1.552989999999998">
        <ele>319.893</ele>
        <time>2022-06-17T09:45:53Z</time>
      </trkpt>
      <trkpt lat="42.22259900000001" lon="-1.552849999999998">
        <ele>320.021</ele>
        <time>2022-06-17T09:46:00Z</time>
      </trkpt>
      <trkpt lat="42.22247500000001" lon="-1.552746999999998">
        <ele>320.471</ele>
        <time>2022-06-17T09:46:05Z</time>
      </trkpt>
      <trkpt lat="42.22245500000001" lon="-1.5527139999999982">
        <ele>320.441</ele>
        <time>2022-06-17T09:46:06Z</time>
      </trkpt>
      <trkpt lat="42.222372000000014" lon="-1.5525189999999982">
        <ele>320.615</ele>
        <time>2022-06-17T09:46:11Z</time>
      </trkpt>
      <trkpt lat="42.22229100000001" lon="-1.552190999999998">
        <ele>321.209</ele>
        <time>2022-06-17T09:46:19Z</time>
      </trkpt>
      <trkpt lat="42.22228300000001" lon="-1.552096999999998">
        <ele>321.288</ele>
        <time>2022-06-17T09:46:21Z</time>
      </trkpt>
      <trkpt lat="42.22224300000001" lon="-1.551791999999998">
        <ele>321.437</ele>
        <time>2022-06-17T09:46:29Z</time>
      </trkpt>
      <trkpt lat="42.222141000000015" lon="-1.551589999999998">
        <ele>322.092</ele>
        <time>2022-06-17T09:46:35Z</time>
      </trkpt>
      <trkpt lat="42.221980000000016" lon="-1.551420999999998">
        <ele>322.284</ele>
        <time>2022-06-17T09:46:41Z</time>
      </trkpt>
      <trkpt lat="42.221798000000014" lon="-1.551336999999998">
        <ele>322.467</ele>
        <time>2022-06-17T09:46:47Z</time>
      </trkpt>
      <trkpt lat="42.22164700000001" lon="-1.5512409999999979">
        <ele>322.870</ele>
        <time>2022-06-17T09:46:52Z</time>
      </trkpt>
      <trkpt lat="42.22157700000001" lon="-1.5510709999999979">
        <ele>323.088</ele>
        <time>2022-06-17T09:46:56Z</time>
      </trkpt>
      <trkpt lat="42.22158800000001" lon="-1.5508799999999978">
        <ele>323.022</ele>
        <time>2022-06-17T09:47:00Z</time>
      </trkpt>
      <trkpt lat="42.22167200000001" lon="-1.5505349999999978">
        <ele>323.080</ele>
        <time>2022-06-17T09:47:07Z</time>
      </trkpt>
      <trkpt lat="42.221730000000015" lon="-1.5501509999999978">
        <ele>322.488</ele>
        <time>2022-06-17T09:47:15Z</time>
      </trkpt>
      <trkpt lat="42.221789000000015" lon="-1.5497809999999979">
        <ele>322.224</ele>
        <time>2022-06-17T09:47:22Z</time>
      </trkpt>
      <trkpt lat="42.22179600000001" lon="-1.5495359999999978">
        <ele>322.026</ele>
        <time>2022-06-17T09:47:28Z</time>
      </trkpt>
      <trkpt lat="42.221826000000014" lon="-1.5493069999999978">
        <ele>322.009</ele>
        <time>2022-06-17T09:47:33Z</time>
      </trkpt>
      <trkpt lat="42.22190000000001" lon="-1.5489879999999978">
        <ele>321.869</ele>
        <time>2022-06-17T09:47:38Z</time>
      </trkpt>
      <trkpt lat="42.22194600000001" lon="-1.5486919999999977">
        <ele>321.248</ele>
        <time>2022-06-17T09:47:42Z</time>
      </trkpt>
      <trkpt lat="42.22197900000001" lon="-1.5484749999999978">
        <ele>320.473</ele>
        <time>2022-06-17T09:47:45Z</time>
      </trkpt>
      <trkpt lat="42.22198800000001" lon="-1.548327999999998">
        <ele>320.055</ele>
        <time>2022-06-17T09:47:47Z</time>
      </trkpt>
      <trkpt lat="42.22197400000001" lon="-1.548027999999998">
        <ele>319.688</ele>
        <time>2022-06-17T09:47:51Z</time>
      </trkpt>
      <trkpt lat="42.22200100000001" lon="-1.547679999999998">
        <ele>319.031</ele>
        <time>2022-06-17T09:47:56Z</time>
      </trkpt>
      <trkpt lat="42.222017000000015" lon="-1.547552999999998">
        <ele>318.899</ele>
        <time>2022-06-17T09:47:58Z</time>
      </trkpt>
      <trkpt lat="42.222025000000016" lon="-1.547505999999998">
        <ele>318.813</ele>
        <time>2022-06-17T09:47:59Z</time>
      </trkpt>
      <trkpt lat="42.22207800000002" lon="-1.547289999999998">
        <ele>318.271</ele>
        <time>2022-06-17T09:48:03Z</time>
      </trkpt>
      <trkpt lat="42.22213300000002" lon="-1.547024999999998">
        <ele>318.099</ele>
        <time>2022-06-17T09:48:08Z</time>
      </trkpt>
      <trkpt lat="42.22214500000002" lon="-1.546971999999998">
        <ele>318.007</ele>
        <time>2022-06-17T09:48:09Z</time>
      </trkpt>
      <trkpt lat="42.22215300000002" lon="-1.546909999999998">
        <ele>318.027</ele>
        <time>2022-06-17T09:48:10Z</time>
      </trkpt>
      <trkpt lat="42.22215800000002" lon="-1.546712999999998">
        <ele>318.009</ele>
        <time>2022-06-17T09:48:14Z</time>
      </trkpt>
      <trkpt lat="42.22219300000002" lon="-1.546442999999998">
        <ele>318.240</ele>
        <time>2022-06-17T09:48:20Z</time>
      </trkpt>
      <trkpt lat="42.222194000000016" lon="-1.546323999999998">
        <ele>318.869</ele>
        <time>2022-06-17T09:48:25Z</time>
      </trkpt>
      <trkpt lat="42.222180000000016" lon="-1.546064999999998">
        <ele>318.844</ele>
        <time>2022-06-17T09:48:31Z</time>
      </trkpt>
      <trkpt lat="42.222118000000016" lon="-1.545727999999998">
        <ele>318.856</ele>
        <time>2022-06-17T09:48:38Z</time>
      </trkpt>
      <trkpt lat="42.22209200000002" lon="-1.545411999999998">
        <ele>318.689</ele>
        <time>2022-06-17T09:48:43Z</time>
      </trkpt>
      <trkpt lat="42.22207500000002" lon="-1.545046999999998">
        <ele>318.412</ele>
        <time>2022-06-17T09:48:49Z</time>
      </trkpt>
      <trkpt lat="42.22206400000002" lon="-1.544992999999998">
        <ele>318.250</ele>
        <time>2022-06-17T09:48:50Z</time>
      </trkpt>
      <trkpt lat="42.22201300000002" lon="-1.544811999999998">
        <ele>318.044</ele>
        <time>2022-06-17T09:48:55Z</time>
      </trkpt>
      <trkpt lat="42.22201300000002" lon="-1.544811999999998">
        <ele>318.062</ele>
        <time>2022-06-17T09:48:57Z</time>
      </trkpt>
      <trkpt lat="42.221966000000016" lon="-1.5447569999999982">
        <ele>319.852</ele>
        <time>2022-06-17T09:58:53Z</time>
      </trkpt>
      <trkpt lat="42.22179400000002" lon="-1.5446319999999982">
        <ele>319.653</ele>
        <time>2022-06-17T09:58:59Z</time>
      </trkpt>
      <trkpt lat="42.221618000000014" lon="-1.5443969999999982">
        <ele>318.808</ele>
        <time>2022-06-17T09:59:08Z</time>
      </trkpt>
      <trkpt lat="42.22150900000001" lon="-1.5441839999999982">
        <ele>319.009</ele>
        <time>2022-06-17T09:59:14Z</time>
      </trkpt>
      <trkpt lat="42.221350000000015" lon="-1.5439059999999982">
        <ele>319.066</ele>
        <time>2022-06-17T09:59:21Z</time>
      </trkpt>
      <trkpt lat="42.22120800000002" lon="-1.5438639999999981">
        <ele>319.075</ele>
        <time>2022-06-17T09:59:25Z</time>
      </trkpt>
      <trkpt lat="42.22105800000002" lon="-1.5438499999999982">
        <ele>319.250</ele>
        <time>2022-06-17T09:59:30Z</time>
      </trkpt>
      <trkpt lat="42.220916000000024" lon="-1.5437679999999983">
        <ele>319.472</ele>
        <time>2022-06-17T09:59:35Z</time>
      </trkpt>
      <trkpt lat="42.22065600000003" lon="-1.5435249999999983">
        <ele>320.265</ele>
        <time>2022-06-17T09:59:44Z</time>
      </trkpt>
      <trkpt lat="42.220412000000024" lon="-1.5432889999999984">
        <ele>320.838</ele>
        <time>2022-06-17T09:59:52Z</time>
      </trkpt>
      <trkpt lat="42.220381000000025" lon="-1.5432659999999983">
        <ele>321.086</ele>
        <time>2022-06-17T09:59:53Z</time>
      </trkpt>
      <trkpt lat="42.220189000000026" lon="-1.5431329999999983">
        <ele>321.440</ele>
        <time>2022-06-17T09:59:59Z</time>
      </trkpt>
      <trkpt lat="42.220037000000026" lon="-1.5430859999999984">
        <ele>322.058</ele>
        <time>2022-06-17T10:00:04Z</time>
      </trkpt>
      <trkpt lat="42.22000000000003" lon="-1.5430759999999983">
        <ele>322.094</ele>
        <time>2022-06-17T10:00:05Z</time>
      </trkpt>
      <trkpt lat="42.21973800000003" lon="-1.5430289999999984">
        <ele>322.857</ele>
        <time>2022-06-17T10:00:12Z</time>
      </trkpt>
      <trkpt lat="42.21963100000003" lon="-1.5430029999999983">
        <ele>323.022</ele>
        <time>2022-06-17T10:00:15Z</time>
      </trkpt>
      <trkpt lat="42.21952700000003" lon="-1.5429869999999983">
        <ele>323.209</ele>
        <time>2022-06-17T10:00:18Z</time>
      </trkpt>
      <trkpt lat="42.21931300000003" lon="-1.5429359999999983">
        <ele>323.640</ele>
        <time>2022-06-17T10:00:25Z</time>
      </trkpt>
      <trkpt lat="42.21922300000003" lon="-1.5428979999999983">
        <ele>324.269</ele>
        <time>2022-06-17T10:00:28Z</time>
      </trkpt>
      <trkpt lat="42.21913500000003" lon="-1.5428269999999984">
        <ele>324.884</ele>
        <time>2022-06-17T10:00:31Z</time>
      </trkpt>
      <trkpt lat="42.21905900000003" lon="-1.5427349999999984">
        <ele>325.256</ele>
        <time>2022-06-17T10:00:34Z</time>
      </trkpt>
      <trkpt lat="42.21896200000003" lon="-1.5425879999999985">
        <ele>325.469</ele>
        <time>2022-06-17T10:00:38Z</time>
      </trkpt>
      <trkpt lat="42.218936000000035" lon="-1.5425519999999986">
        <ele>325.492</ele>
        <time>2022-06-17T10:00:39Z</time>
      </trkpt>
      <trkpt lat="42.21872100000004" lon="-1.5422379999999987">
        <ele>326.060</ele>
        <time>2022-06-17T10:00:47Z</time>
      </trkpt>
      <trkpt lat="42.21855800000004" lon="-1.5420709999999986">
        <ele>326.274</ele>
        <time>2022-06-17T10:00:52Z</time>
      </trkpt>
      <trkpt lat="42.21846200000004" lon="-1.5419879999999986">
        <ele>326.272</ele>
        <time>2022-06-17T10:00:55Z</time>
      </trkpt>
      <trkpt lat="42.21820000000004" lon="-1.5417629999999987">
        <ele>326.413</ele>
        <time>2022-06-17T10:01:03Z</time>
      </trkpt>
      <trkpt lat="42.217962000000036" lon="-1.5414979999999987">
        <ele>326.843</ele>
        <time>2022-06-17T10:01:11Z</time>
      </trkpt>
      <trkpt lat="42.21776600000003" lon="-1.5413459999999988">
        <ele>327.007</ele>
        <time>2022-06-17T10:01:18Z</time>
      </trkpt>
      <trkpt lat="42.217712000000034" lon="-1.5412989999999989">
        <ele>327.409</ele>
        <time>2022-06-17T10:01:20Z</time>
      </trkpt>
      <trkpt lat="42.21756900000003" lon="-1.541176999999999">
        <ele>328.412</ele>
        <time>2022-06-17T10:01:25Z</time>
      </trkpt>
      <trkpt lat="42.21753900000003" lon="-1.541154999999999">
        <ele>328.491</ele>
        <time>2022-06-17T10:01:26Z</time>
      </trkpt>
      <trkpt lat="42.21748100000003" lon="-1.541106999999999">
        <ele>328.836</ele>
        <time>2022-06-17T10:01:28Z</time>
      </trkpt>
      <trkpt lat="42.21728400000003" lon="-1.5409269999999988">
        <ele>329.428</ele>
        <time>2022-06-17T10:01:35Z</time>
      </trkpt>
      <trkpt lat="42.217254000000025" lon="-1.5408999999999988">
        <ele>329.691</ele>
        <time>2022-06-17T10:01:36Z</time>
      </trkpt>
      <trkpt lat="42.21699600000002" lon="-1.540655999999999">
        <ele>330.274</ele>
        <time>2022-06-17T10:01:45Z</time>
      </trkpt>
      <trkpt lat="42.21689000000002" lon="-1.5405379999999989">
        <ele>330.422</ele>
        <time>2022-06-17T10:01:49Z</time>
      </trkpt>
      <trkpt lat="42.21675200000002" lon="-1.5403799999999988">
        <ele>331.086</ele>
        <time>2022-06-17T10:01:54Z</time>
      </trkpt>
      <trkpt lat="42.21649000000002" lon="-1.5399689999999988">
        <ele>331.474</ele>
        <time>2022-06-17T10:02:05Z</time>
      </trkpt>
      <trkpt lat="42.21646700000002" lon="-1.5399289999999988">
        <ele>331.444</ele>
        <time>2022-06-17T10:02:06Z</time>
      </trkpt>
      <trkpt lat="42.21630100000002" lon="-1.5396599999999987">
        <ele>331.805</ele>
        <time>2022-06-17T10:02:13Z</time>
      </trkpt>
      <trkpt lat="42.21627900000002" lon="-1.5396219999999987">
        <ele>332.015</ele>
        <time>2022-06-17T10:02:14Z</time>
      </trkpt>
      <trkpt lat="42.216112000000024" lon="-1.5394499999999987">
        <ele>332.209</ele>
        <time>2022-06-17T10:02:20Z</time>
      </trkpt>
      <trkpt lat="42.21598600000002" lon="-1.5394229999999987">
        <ele>332.675</ele>
        <time>2022-06-17T10:02:24Z</time>
      </trkpt>
      <trkpt lat="42.21592500000002" lon="-1.5394249999999987">
        <ele>333.024</ele>
        <time>2022-06-17T10:02:26Z</time>
      </trkpt>
      <trkpt lat="42.21583700000002" lon="-1.5394199999999987">
        <ele>333.679</ele>
        <time>2022-06-17T10:02:29Z</time>
      </trkpt>
      <trkpt lat="42.215718000000024" lon="-1.5393619999999988">
        <ele>334.081</ele>
        <time>2022-06-17T10:02:33Z</time>
      </trkpt>
      <trkpt lat="42.215599000000026" lon="-1.539249999999999">
        <ele>334.064</ele>
        <time>2022-06-17T10:02:37Z</time>
      </trkpt>
      <trkpt lat="42.21542300000002" lon="-1.539122999999999">
        <ele>332.427</ele>
        <time>2022-06-17T10:02:43Z</time>
      </trkpt>
      <trkpt lat="42.21535600000002" lon="-1.539114999999999">
        <ele>331.035</ele>
        <time>2022-06-17T10:02:45Z</time>
      </trkpt>
      <trkpt lat="42.215290000000024" lon="-1.5391349999999988">
        <ele>329.669</ele>
        <time>2022-06-17T10:02:47Z</time>
      </trkpt>
      <trkpt lat="42.21525500000003" lon="-1.539160999999999">
        <ele>329.047</ele>
        <time>2022-06-17T10:02:48Z</time>
      </trkpt>
      <trkpt lat="42.21522000000003" lon="-1.539189999999999">
        <ele>328.673</ele>
        <time>2022-06-17T10:02:49Z</time>
      </trkpt>
      <trkpt lat="42.21511000000003" lon="-1.539283999999999">
        <ele>327.285</ele>
        <time>2022-06-17T10:02:52Z</time>
      </trkpt>
      <trkpt lat="42.21507400000003" lon="-1.539317999999999">
        <ele>326.813</ele>
        <time>2022-06-17T10:02:53Z</time>
      </trkpt>
      <trkpt lat="42.21503500000003" lon="-1.539353999999999">
        <ele>326.609</ele>
        <time>2022-06-17T10:02:54Z</time>
      </trkpt>
      <trkpt lat="42.21499300000003" lon="-1.539383999999999">
        <ele>325.858</ele>
        <time>2022-06-17T10:02:55Z</time>
      </trkpt>
      <trkpt lat="42.214904000000026" lon="-1.539435999999999">
        <ele>324.657</ele>
        <time>2022-06-17T10:02:57Z</time>
      </trkpt>
      <trkpt lat="42.214862000000025" lon="-1.5394669999999988">
        <ele>323.672</ele>
        <time>2022-06-17T10:02:58Z</time>
      </trkpt>
      <trkpt lat="42.21481900000003" lon="-1.5394969999999988">
        <ele>322.884</ele>
        <time>2022-06-17T10:02:59Z</time>
      </trkpt>
      <trkpt lat="42.214775000000024" lon="-1.5395289999999988">
        <ele>322.457</ele>
        <time>2022-06-17T10:03:00Z</time>
      </trkpt>
      <trkpt lat="42.21459400000003" lon="-1.5396639999999988">
        <ele>321.270</ele>
        <time>2022-06-17T10:03:04Z</time>
      </trkpt>
      <trkpt lat="42.214491000000024" lon="-1.5397269999999987">
        <ele>319.698</ele>
        <time>2022-06-17T10:03:06Z</time>
      </trkpt>
      <trkpt lat="42.214325000000024" lon="-1.5398189999999987">
        <ele>318.442</ele>
        <time>2022-06-17T10:03:09Z</time>
      </trkpt>
      <trkpt lat="42.21417700000002" lon="-1.5399109999999987">
        <ele>317.430</ele>
        <time>2022-06-17T10:03:12Z</time>
      </trkpt>
      <trkpt lat="42.21407800000002" lon="-1.5399619999999987">
        <ele>316.872</ele>
        <time>2022-06-17T10:03:14Z</time>
      </trkpt>
      <trkpt lat="42.21402800000002" lon="-1.5399879999999988">
        <ele>316.413</ele>
        <time>2022-06-17T10:03:15Z</time>
      </trkpt>
      <trkpt lat="42.21397800000002" lon="-1.5400079999999987">
        <ele>316.014</ele>
        <time>2022-06-17T10:03:16Z</time>
      </trkpt>
      <trkpt lat="42.21386300000002" lon="-1.5400199999999986">
        <ele>315.609</ele>
        <time>2022-06-17T10:03:18Z</time>
      </trkpt>
      <trkpt lat="42.21380300000002" lon="-1.5400099999999985">
        <ele>315.248</ele>
        <time>2022-06-17T10:03:19Z</time>
      </trkpt>
      <trkpt lat="42.21361600000002" lon="-1.5399819999999986">
        <ele>314.217</ele>
        <time>2022-06-17T10:03:22Z</time>
      </trkpt>
      <trkpt lat="42.21343600000002" lon="-1.5399549999999986">
        <ele>312.642</ele>
        <time>2022-06-17T10:03:25Z</time>
      </trkpt>
      <trkpt lat="42.21321500000002" lon="-1.5398989999999986">
        <ele>311.624</ele>
        <time>2022-06-17T10:03:29Z</time>
      </trkpt>
      <trkpt lat="42.21316400000002" lon="-1.5398779999999985">
        <ele>311.427</ele>
        <time>2022-06-17T10:03:30Z</time>
      </trkpt>
      <trkpt lat="42.21311400000002" lon="-1.5398519999999984">
        <ele>311.250</ele>
        <time>2022-06-17T10:03:31Z</time>
      </trkpt>
      <trkpt lat="42.213014000000015" lon="-1.5397889999999985">
        <ele>311.078</ele>
        <time>2022-06-17T10:03:33Z</time>
      </trkpt>
      <trkpt lat="42.21286700000002" lon="-1.5396759999999985">
        <ele>310.652</ele>
        <time>2022-06-17T10:03:36Z</time>
      </trkpt>
      <trkpt lat="42.21282700000002" lon="-1.5396409999999985">
        <ele>310.470</ele>
        <time>2022-06-17T10:03:37Z</time>
      </trkpt>
      <trkpt lat="42.21275000000002" lon="-1.5395789999999985">
        <ele>310.059</ele>
        <time>2022-06-17T10:03:39Z</time>
      </trkpt>
      <trkpt lat="42.21267100000002" lon="-1.5395049999999986">
        <ele>309.803</ele>
        <time>2022-06-17T10:03:41Z</time>
      </trkpt>
      <trkpt lat="42.21263400000002" lon="-1.5394629999999985">
        <ele>309.623</ele>
        <time>2022-06-17T10:03:42Z</time>
      </trkpt>
      <trkpt lat="42.21260000000002" lon="-1.5394159999999986">
        <ele>309.409</ele>
        <time>2022-06-17T10:03:43Z</time>
      </trkpt>
      <trkpt lat="42.212414000000024" lon="-1.5391089999999985">
        <ele>308.826</ele>
        <time>2022-06-17T10:03:49Z</time>
      </trkpt>
      <trkpt lat="42.21226300000002" lon="-1.5387909999999985">
        <ele>308.815</ele>
        <time>2022-06-17T10:03:55Z</time>
      </trkpt>
      <trkpt lat="42.21205300000002" lon="-1.5382909999999985">
        <ele>308.650</ele>
        <time>2022-06-17T10:04:04Z</time>
      </trkpt>
      <trkpt lat="42.21197400000002" lon="-1.5379949999999984">
        <ele>308.652</ele>
        <time>2022-06-17T10:04:09Z</time>
      </trkpt>
      <trkpt lat="42.21196700000002" lon="-1.5378739999999984">
        <ele>308.475</ele>
        <time>2022-06-17T10:04:11Z</time>
      </trkpt>
      <trkpt lat="42.211960000000026" lon="-1.5378109999999985">
        <ele>308.478</ele>
        <time>2022-06-17T10:04:12Z</time>
      </trkpt>
      <trkpt lat="42.21195300000003" lon="-1.5377439999999984">
        <ele>308.446</ele>
        <time>2022-06-17T10:04:13Z</time>
      </trkpt>
      <trkpt lat="42.21191600000003" lon="-1.5373719999999984">
        <ele>308.420</ele>
        <time>2022-06-17T10:04:19Z</time>
      </trkpt>
      <trkpt lat="42.21190700000003" lon="-1.5373179999999984">
        <ele>308.468</ele>
        <time>2022-06-17T10:04:20Z</time>
      </trkpt>
      <trkpt lat="42.21188500000003" lon="-1.5372119999999985">
        <ele>308.486</ele>
        <time>2022-06-17T10:04:22Z</time>
      </trkpt>
      <trkpt lat="42.21186000000003" lon="-1.5368789999999986">
        <ele>308.860</ele>
        <time>2022-06-17T10:04:28Z</time>
      </trkpt>
      <trkpt lat="42.21183900000003" lon="-1.5363549999999986">
        <ele>309.026</ele>
        <time>2022-06-17T10:04:37Z</time>
      </trkpt>
      <trkpt lat="42.21181200000003" lon="-1.5359529999999986">
        <ele>308.409</ele>
        <time>2022-06-17T10:04:43Z</time>
      </trkpt>
      <trkpt lat="42.21173400000003" lon="-1.5354059999999985">
        <ele>307.239</ele>
        <time>2022-06-17T10:04:51Z</time>
      </trkpt>
      <trkpt lat="42.21172800000003" lon="-1.5353409999999985">
        <ele>307.028</ele>
        <time>2022-06-17T10:04:52Z</time>
      </trkpt>
      <trkpt lat="42.21172100000003" lon="-1.5350949999999985">
        <ele>306.653</ele>
        <time>2022-06-17T10:04:56Z</time>
      </trkpt>
      <trkpt lat="42.211720000000035" lon="-1.5347959999999985">
        <ele>306.415</ele>
        <time>2022-06-17T10:05:01Z</time>
      </trkpt>
      <trkpt lat="42.21170200000004" lon="-1.5347429999999984">
        <ele>306.278</ele>
        <time>2022-06-17T10:05:02Z</time>
      </trkpt>
      <trkpt lat="42.21167400000004" lon="-1.5346919999999984">
        <ele>306.041</ele>
        <time>2022-06-17T10:05:03Z</time>
      </trkpt>
      <trkpt lat="42.211551000000036" lon="-1.5345589999999985">
        <ele>306.029</ele>
        <time>2022-06-17T10:05:06Z</time>
      </trkpt>
      <trkpt lat="42.211467000000034" lon="-1.5344629999999984">
        <ele>305.673</ele>
        <time>2022-06-17T10:05:08Z</time>
      </trkpt>
      <trkpt lat="42.21139300000004" lon="-1.5343399999999983">
        <ele>305.221</ele>
        <time>2022-06-17T10:05:10Z</time>
      </trkpt>
      <trkpt lat="42.21136200000004" lon="-1.5342749999999983">
        <ele>304.858</ele>
        <time>2022-06-17T10:05:11Z</time>
      </trkpt>
      <trkpt lat="42.21129600000004" lon="-1.5340759999999982">
        <ele>303.852</ele>
        <time>2022-06-17T10:05:14Z</time>
      </trkpt>
      <trkpt lat="42.21128400000004" lon="-1.5340089999999982">
        <ele>303.017</ele>
        <time>2022-06-17T10:05:15Z</time>
      </trkpt>
      <trkpt lat="42.21127500000004" lon="-1.5339389999999982">
        <ele>303.009</ele>
        <time>2022-06-17T10:05:16Z</time>
      </trkpt>
      <trkpt lat="42.211269000000044" lon="-1.533869999999998">
        <ele>302.436</ele>
        <time>2022-06-17T10:05:17Z</time>
      </trkpt>
      <trkpt lat="42.211255000000044" lon="-1.533735999999998">
        <ele>301.455</ele>
        <time>2022-06-17T10:05:19Z</time>
      </trkpt>
      <trkpt lat="42.211243000000046" lon="-1.533676999999998">
        <ele>301.250</ele>
        <time>2022-06-17T10:05:20Z</time>
      </trkpt>
      <trkpt lat="42.21120600000005" lon="-1.533573999999998">
        <ele>301.012</ele>
        <time>2022-06-17T10:05:22Z</time>
      </trkpt>
      <trkpt lat="42.21114100000005" lon="-1.533511999999998">
        <ele>300.835</ele>
        <time>2022-06-17T10:05:24Z</time>
      </trkpt>
      <trkpt lat="42.21085300000005" lon="-1.533408999999998">
        <ele>300.658</ele>
        <time>2022-06-17T10:05:30Z</time>
      </trkpt>
      <trkpt lat="42.21063900000005" lon="-1.533346999999998">
        <ele>300.066</ele>
        <time>2022-06-17T10:05:34Z</time>
      </trkpt>
      <trkpt lat="42.21042000000005" lon="-1.533278999999998">
        <ele>299.220</ele>
        <time>2022-06-17T10:05:38Z</time>
      </trkpt>
      <trkpt lat="42.21031300000005" lon="-1.533243999999998">
        <ele>299.088</ele>
        <time>2022-06-17T10:05:40Z</time>
      </trkpt>
      <trkpt lat="42.21005300000005" lon="-1.533168999999998">
        <ele>297.844</ele>
        <time>2022-06-17T10:05:45Z</time>
      </trkpt>
      <trkpt lat="42.20985700000005" lon="-1.533112999999998">
        <ele>297.405</ele>
        <time>2022-06-17T10:05:49Z</time>
      </trkpt>
      <trkpt lat="42.20963000000005" lon="-1.533047999999998">
        <ele>296.815</ele>
        <time>2022-06-17T10:05:54Z</time>
      </trkpt>
      <trkpt lat="42.20950000000005" lon="-1.533000999999998">
        <ele>296.609</ele>
        <time>2022-06-17T10:05:57Z</time>
      </trkpt>
      <trkpt lat="42.209110000000045" lon="-1.532868999999998">
        <ele>296.025</ele>
        <time>2022-06-17T10:06:06Z</time>
      </trkpt>
      <trkpt lat="42.208882000000045" lon="-1.532804999999998">
        <ele>295.644</ele>
        <time>2022-06-17T10:06:11Z</time>
      </trkpt>
      <trkpt lat="42.208708000000044" lon="-1.532742999999998">
        <ele>295.489</ele>
        <time>2022-06-17T10:06:15Z</time>
      </trkpt>
      <trkpt lat="42.208474000000045" lon="-1.532669999999998">
        <ele>295.281</ele>
        <time>2022-06-17T10:06:20Z</time>
      </trkpt>
      <trkpt lat="42.208328000000044" lon="-1.532630999999998">
        <ele>295.084</ele>
        <time>2022-06-17T10:06:23Z</time>
      </trkpt>
      <trkpt lat="42.208133000000046" lon="-1.532574999999998">
        <ele>294.657</ele>
        <time>2022-06-17T10:06:27Z</time>
      </trkpt>
      <trkpt lat="42.207987000000045" lon="-1.532531999999998">
        <ele>294.215</ele>
        <time>2022-06-17T10:06:30Z</time>
      </trkpt>
      <trkpt lat="42.20793800000005" lon="-1.532518999999998">
        <ele>293.849</ele>
        <time>2022-06-17T10:06:31Z</time>
      </trkpt>
      <trkpt lat="42.20783900000005" lon="-1.532486999999998">
        <ele>293.657</ele>
        <time>2022-06-17T10:06:33Z</time>
      </trkpt>
      <trkpt lat="42.20759100000005" lon="-1.532394999999998">
        <ele>293.262</ele>
        <time>2022-06-17T10:06:38Z</time>
      </trkpt>
      <trkpt lat="42.20735000000005" lon="-1.532308999999998">
        <ele>292.483</ele>
        <time>2022-06-17T10:06:43Z</time>
      </trkpt>
      <trkpt lat="42.20716200000005" lon="-1.532256999999998">
        <ele>292.611</ele>
        <time>2022-06-17T10:06:47Z</time>
      </trkpt>
      <trkpt lat="42.20664100000005" lon="-1.532104999999998">
        <ele>292.209</ele>
        <time>2022-06-17T10:06:58Z</time>
      </trkpt>
      <trkpt lat="42.20628600000005" lon="-1.531994999999998">
        <ele>291.637</ele>
        <time>2022-06-17T10:07:05Z</time>
      </trkpt>
      <trkpt lat="42.206076000000046" lon="-1.531925999999998">
        <ele>291.236</ele>
        <time>2022-06-17T10:07:09Z</time>
      </trkpt>
      <trkpt lat="42.20590000000004" lon="-1.531868999999998">
        <ele>290.441</ele>
        <time>2022-06-17T10:07:13Z</time>
      </trkpt>
      <trkpt lat="42.20586700000004" lon="-1.5318559999999979">
        <ele>290.493</ele>
        <time>2022-06-17T10:07:14Z</time>
      </trkpt>
      <trkpt lat="42.20582200000004" lon="-1.531843999999998">
        <ele>290.256</ele>
        <time>2022-06-17T10:07:17Z</time>
      </trkpt>
      <trkpt lat="42.20582200000004" lon="-1.531843999999998">
        <ele>290.269</ele>
        <time>2022-06-17T10:07:18Z</time>
      </trkpt>
      <trkpt lat="42.20577900000004" lon="-1.531842999999998">
        <ele>290.247</ele>
        <time>2022-06-17T10:09:09Z</time>
      </trkpt>
      <trkpt lat="42.20573100000004" lon="-1.5318229999999982">
        <ele>290.251</ele>
        <time>2022-06-17T10:09:11Z</time>
      </trkpt>
      <trkpt lat="42.20551500000004" lon="-1.5317559999999981">
        <ele>290.259</ele>
        <time>2022-06-17T10:09:17Z</time>
      </trkpt>
      <trkpt lat="42.20526700000004" lon="-1.5316749999999981">
        <ele>289.646</ele>
        <time>2022-06-17T10:09:23Z</time>
      </trkpt>
      <trkpt lat="42.20522500000004" lon="-1.531661999999998">
        <ele>289.488</ele>
        <time>2022-06-17T10:09:24Z</time>
      </trkpt>
      <trkpt lat="42.20489900000004" lon="-1.5315609999999982">
        <ele>289.216</ele>
        <time>2022-06-17T10:09:32Z</time>
      </trkpt>
      <trkpt lat="42.20451800000004" lon="-1.531445999999998">
        <ele>289.209</ele>
        <time>2022-06-17T10:09:41Z</time>
      </trkpt>
      <trkpt lat="42.20418600000004" lon="-1.5313449999999982">
        <ele>289.265</ele>
        <time>2022-06-17T10:09:48Z</time>
      </trkpt>
      <trkpt lat="42.20378700000004" lon="-1.5312859999999981">
        <ele>289.034</ele>
        <time>2022-06-17T10:09:56Z</time>
      </trkpt>
      <trkpt lat="42.20373300000004" lon="-1.5312909999999982">
        <ele>289.069</ele>
        <time>2022-06-17T10:09:57Z</time>
      </trkpt>
      <trkpt lat="42.20363200000004" lon="-1.5313139999999983">
        <ele>289.041</ele>
        <time>2022-06-17T10:09:59Z</time>
      </trkpt>
      <trkpt lat="42.20353600000004" lon="-1.5313579999999982">
        <ele>288.844</ele>
        <time>2022-06-17T10:10:01Z</time>
      </trkpt>
      <trkpt lat="42.20336700000004" lon="-1.5314859999999981">
        <ele>288.837</ele>
        <time>2022-06-17T10:10:05Z</time>
      </trkpt>
      <trkpt lat="42.203276000000045" lon="-1.5315669999999981">
        <ele>288.825</ele>
        <time>2022-06-17T10:10:07Z</time>
      </trkpt>
      <trkpt lat="42.20293200000005" lon="-1.5318439999999982">
        <ele>288.849</ele>
        <time>2022-06-17T10:10:15Z</time>
      </trkpt>
      <trkpt lat="42.202471000000045" lon="-1.5322529999999983">
        <ele>288.697</ele>
        <time>2022-06-17T10:10:26Z</time>
      </trkpt>
      <trkpt lat="42.20208400000004" lon="-1.5325769999999983">
        <ele>288.473</ele>
        <time>2022-06-17T10:10:35Z</time>
      </trkpt>
      <trkpt lat="42.201920000000044" lon="-1.5327249999999983">
        <ele>288.485</ele>
        <time>2022-06-17T10:10:39Z</time>
      </trkpt>
      <trkpt lat="42.201832000000046" lon="-1.5327969999999984">
        <ele>288.413</ele>
        <time>2022-06-17T10:10:41Z</time>
      </trkpt>
      <trkpt lat="42.20150400000004" lon="-1.5330529999999984">
        <ele>288.609</ele>
        <time>2022-06-17T10:10:49Z</time>
      </trkpt>
      <trkpt lat="42.20146200000004" lon="-1.5330879999999985">
        <ele>288.678</ele>
        <time>2022-06-17T10:10:50Z</time>
      </trkpt>
      <trkpt lat="42.20118400000004" lon="-1.5333509999999984">
        <ele>288.677</ele>
        <time>2022-06-17T10:10:57Z</time>
      </trkpt>
      <trkpt lat="42.20114200000004" lon="-1.5333859999999984">
        <ele>288.462</ele>
        <time>2022-06-17T10:10:58Z</time>
      </trkpt>
      <trkpt lat="42.20102300000004" lon="-1.5334689999999984">
        <ele>288.434</ele>
        <time>2022-06-17T10:11:01Z</time>
      </trkpt>
      <trkpt lat="42.20094800000004" lon="-1.5335429999999983">
        <ele>288.457</ele>
        <time>2022-06-17T10:11:03Z</time>
      </trkpt>
      <trkpt lat="42.20082900000004" lon="-1.5336599999999982">
        <ele>288.620</ele>
        <time>2022-06-17T10:11:06Z</time>
      </trkpt>
      <trkpt lat="42.20061200000004" lon="-1.5338189999999983">
        <ele>288.628</ele>
        <time>2022-06-17T10:11:11Z</time>
      </trkpt>
      <trkpt lat="42.200234000000044" lon="-1.5341149999999983">
        <ele>288.642</ele>
        <time>2022-06-17T10:11:20Z</time>
      </trkpt>
      <trkpt lat="42.200189000000044" lon="-1.5341369999999983">
        <ele>288.680</ele>
        <time>2022-06-17T10:11:21Z</time>
      </trkpt>
      <trkpt lat="42.19994500000004" lon="-1.5342119999999984">
        <ele>288.235</ele>
        <time>2022-06-17T10:11:26Z</time>
      </trkpt>
      <trkpt lat="42.199899000000045" lon="-1.5342279999999984">
        <ele>288.286</ele>
        <time>2022-06-17T10:11:27Z</time>
      </trkpt>
      <trkpt lat="42.199812000000044" lon="-1.5342669999999983">
        <ele>288.214</ele>
        <time>2022-06-17T10:11:29Z</time>
      </trkpt>
      <trkpt lat="42.19967000000005" lon="-1.5342979999999982">
        <ele>288.009</ele>
        <time>2022-06-17T10:11:32Z</time>
      </trkpt>
      <trkpt lat="42.199342000000044" lon="-1.534282999999998">
        <ele>287.634</ele>
        <time>2022-06-17T10:11:39Z</time>
      </trkpt>
      <trkpt lat="42.19887100000005" lon="-1.534313999999998">
        <ele>287.483</ele>
        <time>2022-06-17T10:11:49Z</time>
      </trkpt>
      <trkpt lat="42.198342000000046" lon="-1.534300999999998">
        <ele>287.438</ele>
        <time>2022-06-17T10:12:00Z</time>
      </trkpt>
      <trkpt lat="42.19792400000004" lon="-1.534230999999998">
        <ele>287.240</ele>
        <time>2022-06-17T10:12:09Z</time>
      </trkpt>
      <trkpt lat="42.19778900000004" lon="-1.534254999999998">
        <ele>287.043</ele>
        <time>2022-06-17T10:12:12Z</time>
      </trkpt>
      <trkpt lat="42.19765200000004" lon="-1.534310999999998">
        <ele>286.856</ele>
        <time>2022-06-17T10:12:15Z</time>
      </trkpt>
      <trkpt lat="42.19760800000004" lon="-1.534337999999998">
        <ele>286.634</ele>
        <time>2022-06-17T10:12:16Z</time>
      </trkpt>
      <trkpt lat="42.197297000000034" lon="-1.534609999999998">
        <ele>286.448</ele>
        <time>2022-06-17T10:12:24Z</time>
      </trkpt>
      <trkpt lat="42.197018000000035" lon="-1.534861999999998">
        <ele>286.496</ele>
        <time>2022-06-17T10:12:31Z</time>
      </trkpt>
      <trkpt lat="42.19689500000003" lon="-1.534963999999998">
        <ele>286.425</ele>
        <time>2022-06-17T10:12:34Z</time>
      </trkpt>
      <trkpt lat="42.19677400000003" lon="-1.535062999999998">
        <ele>286.426</ele>
        <time>2022-06-17T10:12:37Z</time>
      </trkpt>
      <trkpt lat="42.19669100000004" lon="-1.5351349999999981">
        <ele>286.608</ele>
        <time>2022-06-17T10:12:39Z</time>
      </trkpt>
      <trkpt lat="42.19649600000004" lon="-1.5353319999999981">
        <ele>286.609</ele>
        <time>2022-06-17T10:12:44Z</time>
      </trkpt>
      <trkpt lat="42.19626400000004" lon="-1.5355479999999981">
        <ele>286.823</ele>
        <time>2022-06-17T10:12:50Z</time>
      </trkpt>
      <trkpt lat="42.19613300000004" lon="-1.535632999999998">
        <ele>286.892</ele>
        <time>2022-06-17T10:12:53Z</time>
      </trkpt>
      <trkpt lat="42.195760000000035" lon="-1.535889999999998">
        <ele>287.047</ele>
        <time>2022-06-17T10:13:02Z</time>
      </trkpt>
      <trkpt lat="42.19538500000004" lon="-1.536128999999998">
        <ele>287.499</ele>
        <time>2022-06-17T10:13:11Z</time>
      </trkpt>
      <trkpt lat="42.195225000000036" lon="-1.536214999999998">
        <ele>287.822</ele>
        <time>2022-06-17T10:13:15Z</time>
      </trkpt>
      <trkpt lat="42.195107000000036" lon="-1.536268999999998">
        <ele>288.055</ele>
        <time>2022-06-17T10:13:18Z</time>
      </trkpt>
      <trkpt lat="42.195026000000034" lon="-1.536306999999998">
        <ele>288.293</ele>
        <time>2022-06-17T10:13:20Z</time>
      </trkpt>
      <trkpt lat="42.19474600000004" lon="-1.536461999999998">
        <ele>289.217</ele>
        <time>2022-06-17T10:13:28Z</time>
      </trkpt>
      <trkpt lat="42.19468100000004" lon="-1.536510999999998">
        <ele>289.435</ele>
        <time>2022-06-17T10:13:30Z</time>
      </trkpt>
      <trkpt lat="42.19453400000004" lon="-1.536655999999998">
        <ele>290.473</ele>
        <time>2022-06-17T10:13:35Z</time>
      </trkpt>
      <trkpt lat="42.19434200000004" lon="-1.536934999999998">
        <ele>291.085</ele>
        <time>2022-06-17T10:13:42Z</time>
      </trkpt>
      <trkpt lat="42.194217000000044" lon="-1.537207999999998">
        <ele>291.413</ele>
        <time>2022-06-17T10:13:48Z</time>
      </trkpt>
      <trkpt lat="42.19416200000004" lon="-1.537395999999998">
        <ele>291.609</ele>
        <time>2022-06-17T10:13:52Z</time>
      </trkpt>
      <trkpt lat="42.194099000000044" lon="-1.537799999999998">
        <ele>292.428</ele>
        <time>2022-06-17T10:14:00Z</time>
      </trkpt>
      <trkpt lat="42.19407800000005" lon="-1.538098999999998">
        <ele>292.827</ele>
        <time>2022-06-17T10:14:06Z</time>
      </trkpt>
      <trkpt lat="42.19406900000005" lon="-1.538252999999998">
        <ele>293.262</ele>
        <time>2022-06-17T10:14:09Z</time>
      </trkpt>
      <trkpt lat="42.19404100000005" lon="-1.538546999999998">
        <ele>293.854</ele>
        <time>2022-06-17T10:14:15Z</time>
      </trkpt>
      <trkpt lat="42.19402700000005" lon="-1.538736999999998">
        <ele>293.827</ele>
        <time>2022-06-17T10:14:19Z</time>
      </trkpt>
      <trkpt lat="42.19398200000005" lon="-1.539151999999998">
        <ele>294.470</ele>
        <time>2022-06-17T10:14:28Z</time>
      </trkpt>
      <trkpt lat="42.19391100000005" lon="-1.5393509999999981">
        <ele>294.828</ele>
        <time>2022-06-17T10:14:33Z</time>
      </trkpt>
      <trkpt lat="42.19389000000005" lon="-1.539383999999998">
        <ele>295.072</ele>
        <time>2022-06-17T10:14:34Z</time>
      </trkpt>
      <trkpt lat="42.193751000000056" lon="-1.539546999999998">
        <ele>296.080</ele>
        <time>2022-06-17T10:14:40Z</time>
      </trkpt>
      <trkpt lat="42.19370700000005" lon="-1.539598999999998">
        <ele>296.428</ele>
        <time>2022-06-17T10:14:42Z</time>
      </trkpt>
      <trkpt lat="42.193591000000055" lon="-1.539717999999998">
        <ele>297.089</ele>
        <time>2022-06-17T10:14:47Z</time>
      </trkpt>
      <trkpt lat="42.19354800000006" lon="-1.539801999999998">
        <ele>297.617</ele>
        <time>2022-06-17T10:14:50Z</time>
      </trkpt>
      <trkpt lat="42.19347700000006" lon="-1.539911999999998">
        <ele>298.209</ele>
        <time>2022-06-17T10:14:54Z</time>
      </trkpt>
      <trkpt lat="42.19345200000006" lon="-1.5399669999999979">
        <ele>298.653</ele>
        <time>2022-06-17T10:14:56Z</time>
      </trkpt>
      <trkpt lat="42.19338900000006" lon="-1.5400889999999978">
        <ele>299.462</ele>
        <time>2022-06-17T10:15:00Z</time>
      </trkpt>
      <trkpt lat="42.19335200000006" lon="-1.540184999999998">
        <ele>299.887</ele>
        <time>2022-06-17T10:15:03Z</time>
      </trkpt>
      <trkpt lat="42.19332100000006" lon="-1.540288999999998">
        <ele>300.419</ele>
        <time>2022-06-17T10:15:06Z</time>
      </trkpt>
      <trkpt lat="42.19328300000006" lon="-1.540450999999998">
        <ele>300.672</ele>
        <time>2022-06-17T10:15:11Z</time>
      </trkpt>
      <trkpt lat="42.193256000000055" lon="-1.540576999999998">
        <ele>301.425</ele>
        <time>2022-06-17T10:15:15Z</time>
      </trkpt>
      <trkpt lat="42.193228000000055" lon="-1.540695999999998">
        <ele>301.863</ele>
        <time>2022-06-17T10:15:19Z</time>
      </trkpt>
      <trkpt lat="42.19319200000005" lon="-1.540773999999998">
        <ele>302.637</ele>
        <time>2022-06-17T10:15:22Z</time>
      </trkpt>
      <trkpt lat="42.193158000000054" lon="-1.540879999999998">
        <ele>303.685</ele>
        <time>2022-06-17T10:15:26Z</time>
      </trkpt>
      <trkpt lat="42.193152000000055" lon="-1.540905999999998">
        <ele>304.025</ele>
        <time>2022-06-17T10:15:27Z</time>
      </trkpt>
      <trkpt lat="42.19308500000005" lon="-1.5410729999999981">
        <ele>305.026</ele>
        <time>2022-06-17T10:15:33Z</time>
      </trkpt>
      <trkpt lat="42.19306600000005" lon="-1.541127999999998">
        <ele>305.408</ele>
        <time>2022-06-17T10:15:35Z</time>
      </trkpt>
      <trkpt lat="42.19299300000005" lon="-1.541337999999998">
        <ele>306.209</ele>
        <time>2022-06-17T10:15:42Z</time>
      </trkpt>
      <trkpt lat="42.19297700000005" lon="-1.5413909999999982">
        <ele>306.673</ele>
        <time>2022-06-17T10:15:44Z</time>
      </trkpt>
      <trkpt lat="42.192939000000045" lon="-1.5414969999999981">
        <ele>307.492</ele>
        <time>2022-06-17T10:15:48Z</time>
      </trkpt>
      <trkpt lat="42.192886000000044" lon="-1.541624999999998">
        <ele>308.277</ele>
        <time>2022-06-17T10:15:53Z</time>
      </trkpt>
      <trkpt lat="42.19286100000004" lon="-1.541683999999998">
        <ele>308.629</ele>
        <time>2022-06-17T10:15:55Z</time>
      </trkpt>
      <trkpt lat="42.19283400000004" lon="-1.541761999999998">
        <ele>309.022</ele>
        <time>2022-06-17T10:15:58Z</time>
      </trkpt>
      <trkpt lat="42.19281400000004" lon="-1.5418149999999982">
        <ele>309.245</ele>
        <time>2022-06-17T10:16:00Z</time>
      </trkpt>
      <trkpt lat="42.19278800000004" lon="-1.5418919999999983">
        <ele>309.653</ele>
        <time>2022-06-17T10:16:03Z</time>
      </trkpt>
      <trkpt lat="42.19274300000004" lon="-1.5420029999999982">
        <ele>310.257</ele>
        <time>2022-06-17T10:16:07Z</time>
      </trkpt>
      <trkpt lat="42.192694000000046" lon="-1.5421119999999982">
        <ele>310.625</ele>
        <time>2022-06-17T10:16:11Z</time>
      </trkpt>
      <trkpt lat="42.19263100000005" lon="-1.5422439999999982">
        <ele>311.299</ele>
        <time>2022-06-17T10:16:16Z</time>
      </trkpt>
      <trkpt lat="42.19256000000005" lon="-1.542352999999998">
        <ele>311.807</ele>
        <time>2022-06-17T10:16:21Z</time>
      </trkpt>
      <trkpt lat="42.19252100000005" lon="-1.542398999999998">
        <ele>311.827</ele>
        <time>2022-06-17T10:16:23Z</time>
      </trkpt>
      <trkpt lat="42.19250300000005" lon="-1.542418999999998">
        <ele>312.009</ele>
        <time>2022-06-17T10:16:24Z</time>
      </trkpt>
      <trkpt lat="42.19241700000005" lon="-1.5425309999999979">
        <ele>312.460</ele>
        <time>2022-06-17T10:16:29Z</time>
      </trkpt>
      <trkpt lat="42.19239500000005" lon="-1.542548999999998">
        <ele>312.669</ele>
        <time>2022-06-17T10:16:30Z</time>
      </trkpt>
      <trkpt lat="42.19237500000005" lon="-1.5425659999999979">
        <ele>313.024</ele>
        <time>2022-06-17T10:16:31Z</time>
      </trkpt>
      <trkpt lat="42.19221800000005" lon="-1.5427049999999978">
        <ele>313.836</ele>
        <time>2022-06-17T10:16:38Z</time>
      </trkpt>
      <trkpt lat="42.19198400000005" lon="-1.5428509999999978">
        <ele>313.819</ele>
        <time>2022-06-17T10:16:46Z</time>
      </trkpt>
      <trkpt lat="42.191782000000046" lon="-1.5428649999999977">
        <ele>313.822</ele>
        <time>2022-06-17T10:16:52Z</time>
      </trkpt>
      <trkpt lat="42.19160100000005" lon="-1.5427469999999976">
        <ele>313.670</ele>
        <time>2022-06-17T10:16:58Z</time>
      </trkpt>
      <trkpt lat="42.19140100000005" lon="-1.5425349999999975">
        <ele>313.034</ele>
        <time>2022-06-17T10:17:04Z</time>
      </trkpt>
      <trkpt lat="42.19124300000005" lon="-1.5421839999999976">
        <ele>312.472</ele>
        <time>2022-06-17T10:17:09Z</time>
      </trkpt>
      <trkpt lat="42.19118900000005" lon="-1.5420219999999976">
        <ele>311.456</ele>
        <time>2022-06-17T10:17:11Z</time>
      </trkpt>
      <trkpt lat="42.19112000000005" lon="-1.5418609999999975">
        <ele>310.659</ele>
        <time>2022-06-17T10:17:13Z</time>
      </trkpt>
      <trkpt lat="42.19107500000005" lon="-1.5417879999999975">
        <ele>310.014</ele>
        <time>2022-06-17T10:17:14Z</time>
      </trkpt>
      <trkpt lat="42.19102300000005" lon="-1.5417239999999974">
        <ele>309.409</ele>
        <time>2022-06-17T10:17:15Z</time>
      </trkpt>
      <trkpt lat="42.19096400000005" lon="-1.5416689999999975">
        <ele>309.066</ele>
        <time>2022-06-17T10:17:16Z</time>
      </trkpt>
      <trkpt lat="42.19090000000005" lon="-1.5416239999999974">
        <ele>308.245</ele>
        <time>2022-06-17T10:17:17Z</time>
      </trkpt>
      <trkpt lat="42.19083400000005" lon="-1.5415909999999975">
        <ele>307.470</ele>
        <time>2022-06-17T10:17:18Z</time>
      </trkpt>
      <trkpt lat="42.190768000000055" lon="-1.5415669999999975">
        <ele>306.852</ele>
        <time>2022-06-17T10:17:19Z</time>
      </trkpt>
      <trkpt lat="42.19063500000006" lon="-1.5415399999999975">
        <ele>306.245</ele>
        <time>2022-06-17T10:17:21Z</time>
      </trkpt>
      <trkpt lat="42.19043200000006" lon="-1.5414879999999975">
        <ele>304.878</ele>
        <time>2022-06-17T10:17:24Z</time>
      </trkpt>
      <trkpt lat="42.190363000000055" lon="-1.5414629999999976">
        <ele>304.246</ele>
        <time>2022-06-17T10:17:25Z</time>
      </trkpt>
      <trkpt lat="42.190222000000055" lon="-1.5414059999999976">
        <ele>303.260</ele>
        <time>2022-06-17T10:17:27Z</time>
      </trkpt>
      <trkpt lat="42.19001200000005" lon="-1.5413059999999976">
        <ele>301.858</ele>
        <time>2022-06-17T10:17:30Z</time>
      </trkpt>
      <trkpt lat="42.18984300000005" lon="-1.5412169999999976">
        <ele>300.624</ele>
        <time>2022-06-17T10:17:32Z</time>
      </trkpt>
      <trkpt lat="42.18969800000005" lon="-1.5411379999999977">
        <ele>299.604</ele>
        <time>2022-06-17T10:17:34Z</time>
      </trkpt>
      <trkpt lat="42.189522000000046" lon="-1.5410379999999977">
        <ele>298.414</ele>
        <time>2022-06-17T10:17:36Z</time>
      </trkpt>
      <trkpt lat="42.189441000000045" lon="-1.5409919999999977">
        <ele>297.809</ele>
        <time>2022-06-17T10:17:37Z</time>
      </trkpt>
      <trkpt lat="42.18936000000004" lon="-1.5409469999999976">
        <ele>297.243</ele>
        <time>2022-06-17T10:17:38Z</time>
      </trkpt>
      <trkpt lat="42.18920100000005" lon="-1.5408489999999977">
        <ele>296.022</ele>
        <time>2022-06-17T10:17:40Z</time>
      </trkpt>
      <trkpt lat="42.18904500000005" lon="-1.5407479999999978">
        <ele>294.267</ele>
        <time>2022-06-17T10:17:42Z</time>
      </trkpt>
      <trkpt lat="42.18889700000005" lon="-1.5406369999999978">
        <ele>293.069</ele>
        <time>2022-06-17T10:17:44Z</time>
      </trkpt>
      <trkpt lat="42.18875500000005" lon="-1.5405179999999978">
        <ele>291.422</ele>
        <time>2022-06-17T10:17:46Z</time>
      </trkpt>
      <trkpt lat="42.18847700000005" lon="-1.5402489999999978">
        <ele>290.245</ele>
        <time>2022-06-17T10:17:50Z</time>
      </trkpt>
      <trkpt lat="42.188194000000045" lon="-1.5399679999999978">
        <ele>289.443</ele>
        <time>2022-06-17T10:17:54Z</time>
      </trkpt>
      <trkpt lat="42.18805500000005" lon="-1.5398389999999977">
        <ele>288.857</ele>
        <time>2022-06-17T10:17:56Z</time>
      </trkpt>
      <trkpt lat="42.18798500000005" lon="-1.5397929999999977">
        <ele>288.035</ele>
        <time>2022-06-17T10:17:57Z</time>
      </trkpt>
      <trkpt lat="42.18791200000005" lon="-1.5397619999999979">
        <ele>287.634</ele>
        <time>2022-06-17T10:17:58Z</time>
      </trkpt>
      <trkpt lat="42.18776200000005" lon="-1.539749999999998">
        <ele>286.855</ele>
        <time>2022-06-17T10:18:00Z</time>
      </trkpt>
      <trkpt lat="42.18768700000005" lon="-1.5397589999999979">
        <ele>286.210</ele>
        <time>2022-06-17T10:18:01Z</time>
      </trkpt>
      <trkpt lat="42.187615000000044" lon="-1.5397699999999979">
        <ele>285.609</ele>
        <time>2022-06-17T10:18:02Z</time>
      </trkpt>
      <trkpt lat="42.18741000000004" lon="-1.539809999999998">
        <ele>284.634</ele>
        <time>2022-06-17T10:18:05Z</time>
      </trkpt>
      <trkpt lat="42.18722200000004" lon="-1.5398509999999979">
        <ele>284.023</ele>
        <time>2022-06-17T10:18:08Z</time>
      </trkpt>
      <trkpt lat="42.18683300000004" lon="-1.5399589999999979">
        <ele>283.828</ele>
        <time>2022-06-17T10:18:15Z</time>
      </trkpt>
      <trkpt lat="42.18647900000004" lon="-1.5400409999999978">
        <ele>283.880</ele>
        <time>2022-06-17T10:18:21Z</time>
      </trkpt>
      <trkpt lat="42.18608600000004" lon="-1.5401569999999978">
        <ele>283.853</ele>
        <time>2022-06-17T10:18:28Z</time>
      </trkpt>
      <trkpt lat="42.18581800000004" lon="-1.5402949999999977">
        <ele>283.636</ele>
        <time>2022-06-17T10:18:33Z</time>
      </trkpt>
      <trkpt lat="42.18577000000004" lon="-1.5403299999999978">
        <ele>283.664</ele>
        <time>2022-06-17T10:18:34Z</time>
      </trkpt>
      <trkpt lat="42.18562500000004" lon="-1.5404289999999978">
        <ele>283.478</ele>
        <time>2022-06-17T10:18:37Z</time>
      </trkpt>
      <trkpt lat="42.18546200000004" lon="-1.5404959999999979">
        <ele>283.416</ele>
        <time>2022-06-17T10:18:40Z</time>
      </trkpt>
      <trkpt lat="42.18535200000004" lon="-1.5405349999999978">
        <ele>283.456</ele>
        <time>2022-06-17T10:18:42Z</time>
      </trkpt>
      <trkpt lat="42.18507800000004" lon="-1.5405919999999977">
        <ele>283.259</ele>
        <time>2022-06-17T10:18:47Z</time>
      </trkpt>
      <trkpt lat="42.18474100000004" lon="-1.5407129999999978">
        <ele>283.214</ele>
        <time>2022-06-17T10:18:54Z</time>
      </trkpt>
      <trkpt lat="42.18461700000004" lon="-1.5408009999999979">
        <ele>283.209</ele>
        <time>2022-06-17T10:18:57Z</time>
      </trkpt>
      <trkpt lat="42.184531000000035" lon="-1.5408559999999978">
        <ele>283.276</ele>
        <time>2022-06-17T10:18:59Z</time>
      </trkpt>
      <trkpt lat="42.184399000000035" lon="-1.5409489999999977">
        <ele>283.235</ele>
        <time>2022-06-17T10:19:02Z</time>
      </trkpt>
      <trkpt lat="42.184221000000036" lon="-1.5410929999999976">
        <ele>283.290</ele>
        <time>2022-06-17T10:19:06Z</time>
      </trkpt>
      <trkpt lat="42.183906000000036" lon="-1.5413359999999976">
        <ele>283.052</ele>
        <time>2022-06-17T10:19:13Z</time>
      </trkpt>
      <trkpt lat="42.183572000000034" lon="-1.5415489999999976">
        <ele>282.885</ele>
        <time>2022-06-17T10:19:20Z</time>
      </trkpt>
      <trkpt lat="42.18348900000004" lon="-1.5415939999999977">
        <ele>282.488</ele>
        <time>2022-06-17T10:19:22Z</time>
      </trkpt>
      <trkpt lat="42.183144000000034" lon="-1.5417509999999977">
        <ele>282.056</ele>
        <time>2022-06-17T10:19:29Z</time>
      </trkpt>
      <trkpt lat="42.18270600000003" lon="-1.5419299999999976">
        <ele>281.850</ele>
        <time>2022-06-17T10:19:38Z</time>
      </trkpt>
      <trkpt lat="42.18218200000003" lon="-1.5421529999999977">
        <ele>281.828</ele>
        <time>2022-06-17T10:19:49Z</time>
      </trkpt>
      <trkpt lat="42.18173200000003" lon="-1.5422349999999976">
        <ele>281.845</ele>
        <time>2022-06-17T10:19:59Z</time>
      </trkpt>
      <trkpt lat="42.18142000000003" lon="-1.5422149999999977">
        <ele>282.247</ele>
        <time>2022-06-17T10:20:06Z</time>
      </trkpt>
      <trkpt lat="42.18132500000003" lon="-1.5422099999999976">
        <ele>282.211</ele>
        <time>2022-06-17T10:20:08Z</time>
      </trkpt>
      <trkpt lat="42.18115400000003" lon="-1.5421829999999976">
        <ele>282.409</ele>
        <time>2022-06-17T10:20:12Z</time>
      </trkpt>
      <trkpt lat="42.180823000000025" lon="-1.5421059999999975">
        <ele>282.425</ele>
        <time>2022-06-17T10:20:19Z</time>
      </trkpt>
      <trkpt lat="42.18050000000002" lon="-1.5420459999999976">
        <ele>282.684</ele>
        <time>2022-06-17T10:20:26Z</time>
      </trkpt>
      <trkpt lat="42.18024400000002" lon="-1.5419909999999977">
        <ele>283.089</ele>
        <time>2022-06-17T10:20:32Z</time>
      </trkpt>
      <trkpt lat="42.18016100000003" lon="-1.5419739999999977">
        <ele>283.061</ele>
        <time>2022-06-17T10:20:34Z</time>
      </trkpt>
      <trkpt lat="42.17983300000002" lon="-1.5419199999999977">
        <ele>283.844</ele>
        <time>2022-06-17T10:20:42Z</time>
      </trkpt>
      <trkpt lat="42.17975700000002" lon="-1.5419099999999977">
        <ele>283.837</ele>
        <time>2022-06-17T10:20:44Z</time>
      </trkpt>
      <trkpt lat="42.17963900000002" lon="-1.5418699999999976">
        <ele>284.025</ele>
        <time>2022-06-17T10:20:47Z</time>
      </trkpt>
      <trkpt lat="42.17951300000002" lon="-1.5418069999999977">
        <ele>284.659</ele>
        <time>2022-06-17T10:20:50Z</time>
      </trkpt>
      <trkpt lat="42.179422000000024" lon="-1.5417569999999976">
        <ele>284.867</ele>
        <time>2022-06-17T10:20:52Z</time>
      </trkpt>
      <trkpt lat="42.17918100000002" lon="-1.5416299999999976">
        <ele>284.883</ele>
        <time>2022-06-17T10:20:57Z</time>
      </trkpt>
      <trkpt lat="42.17881300000002" lon="-1.5414699999999977">
        <ele>284.025</ele>
        <time>2022-06-17T10:21:04Z</time>
      </trkpt>
      <trkpt lat="42.17876000000002" lon="-1.5414589999999977">
        <ele>283.817</ele>
        <time>2022-06-17T10:21:05Z</time>
      </trkpt>
      <trkpt lat="42.17870600000002" lon="-1.5414599999999976">
        <ele>283.609</ele>
        <time>2022-06-17T10:21:06Z</time>
      </trkpt>
      <trkpt lat="42.17860100000002" lon="-1.5414929999999976">
        <ele>283.449</ele>
        <time>2022-06-17T10:21:08Z</time>
      </trkpt>
      <trkpt lat="42.17846400000002" lon="-1.5416099999999975">
        <ele>283.038</ele>
        <time>2022-06-17T10:21:11Z</time>
      </trkpt>
      <trkpt lat="42.17842000000002" lon="-1.5416649999999974">
        <ele>282.843</ele>
        <time>2022-06-17T10:21:12Z</time>
      </trkpt>
      <trkpt lat="42.17838000000002" lon="-1.5417299999999974">
        <ele>282.855</ele>
        <time>2022-06-17T10:21:13Z</time>
      </trkpt>
      <trkpt lat="42.17834100000002" lon="-1.5418009999999973">
        <ele>282.658</ele>
        <time>2022-06-17T10:21:14Z</time>
      </trkpt>
      <trkpt lat="42.178224000000014" lon="-1.5420109999999974">
        <ele>282.261</ele>
        <time>2022-06-17T10:21:17Z</time>
      </trkpt>
      <trkpt lat="42.178069000000015" lon="-1.5422879999999974">
        <ele>281.459</ele>
        <time>2022-06-17T10:21:21Z</time>
      </trkpt>
      <trkpt lat="42.177956000000016" lon="-1.5424809999999975">
        <ele>280.653</ele>
        <time>2022-06-17T10:21:24Z</time>
      </trkpt>
      <trkpt lat="42.177920000000015" lon="-1.5425429999999976">
        <ele>280.231</ele>
        <time>2022-06-17T10:21:25Z</time>
      </trkpt>
      <trkpt lat="42.17774100000001" lon="-1.5428199999999976">
        <ele>279.855</ele>
        <time>2022-06-17T10:21:30Z</time>
      </trkpt>
      <trkpt lat="42.17760700000001" lon="-1.5430419999999976">
        <ele>279.607</ele>
        <time>2022-06-17T10:21:34Z</time>
      </trkpt>
      <trkpt lat="42.17750200000001" lon="-1.5431959999999976">
        <ele>279.817</ele>
        <time>2022-06-17T10:21:37Z</time>
      </trkpt>
      <trkpt lat="42.17747300000001" lon="-1.5432469999999976">
        <ele>279.809</ele>
        <time>2022-06-17T10:21:38Z</time>
      </trkpt>
      <trkpt lat="42.17724500000001" lon="-1.5436009999999976">
        <ele>279.676</ele>
        <time>2022-06-17T10:21:45Z</time>
      </trkpt>
      <trkpt lat="42.177166000000014" lon="-1.5437399999999974">
        <ele>279.675</ele>
        <time>2022-06-17T10:21:48Z</time>
      </trkpt>
      <trkpt lat="42.177104000000014" lon="-1.5437969999999974">
        <ele>279.660</ele>
        <time>2022-06-17T10:21:50Z</time>
      </trkpt>
      <trkpt lat="42.17704900000001" lon="-1.5438209999999974">
        <ele>279.822</ele>
        <time>2022-06-17T10:21:53Z</time>
      </trkpt>
      <trkpt lat="42.17704900000001" lon="-1.5438209999999974">
        <ele>279.855</ele>
        <time>2022-06-17T10:21:55Z</time>
      </trkpt>
      <trkpt lat="42.177031000000014" lon="-1.5437549999999975">
        <ele>280.638</ele>
        <time>2022-06-17T10:23:25Z</time>
      </trkpt>
      <trkpt lat="42.177081000000015" lon="-1.5435669999999975">
        <ele>280.666</ele>
        <time>2022-06-17T10:23:30Z</time>
      </trkpt>
      <trkpt lat="42.17716100000001" lon="-1.5432679999999974">
        <ele>280.620</ele>
        <time>2022-06-17T10:23:35Z</time>
      </trkpt>
      <trkpt lat="42.17719000000001" lon="-1.5431399999999975">
        <ele>280.448</ele>
        <time>2022-06-17T10:23:37Z</time>
      </trkpt>
      <trkpt lat="42.17720800000001" lon="-1.5428619999999975">
        <ele>280.229</ele>
        <time>2022-06-17T10:23:41Z</time>
      </trkpt>
      <trkpt lat="42.17719900000001" lon="-1.5427129999999976">
        <ele>280.200</ele>
        <time>2022-06-17T10:23:43Z</time>
      </trkpt>
      <trkpt lat="42.177155000000006" lon="-1.5424919999999975">
        <ele>280.020</ele>
        <time>2022-06-17T10:23:46Z</time>
      </trkpt>
      <trkpt lat="42.176987000000004" lon="-1.5421139999999975">
        <ele>279.809</ele>
        <time>2022-06-17T10:23:52Z</time>
      </trkpt>
      <trkpt lat="42.176705000000005" lon="-1.5416999999999976">
        <ele>279.883</ele>
        <time>2022-06-17T10:23:59Z</time>
      </trkpt>
      <trkpt lat="42.17639500000001" lon="-1.5412309999999976">
        <ele>279.882</ele>
        <time>2022-06-17T10:24:07Z</time>
      </trkpt>
      <trkpt lat="42.175999000000004" lon="-1.5406979999999977">
        <ele>280.297</ele>
        <time>2022-06-17T10:24:17Z</time>
      </trkpt>
      <trkpt lat="42.175724" lon="-1.5402999999999978">
        <ele>280.649</ele>
        <time>2022-06-17T10:24:25Z</time>
      </trkpt>
      <trkpt lat="42.175655" lon="-1.540214999999998">
        <ele>280.832</ele>
        <time>2022-06-17T10:24:27Z</time>
      </trkpt>
      <trkpt lat="42.175415" lon="-1.539873999999998">
        <ele>282.245</ele>
        <time>2022-06-17T10:24:35Z</time>
      </trkpt>
      <trkpt lat="42.175319" lon="-1.5397079999999979">
        <ele>283.073</ele>
        <time>2022-06-17T10:24:39Z</time>
      </trkpt>
      <trkpt lat="42.1753" lon="-1.5396619999999979">
        <ele>283.237</ele>
        <time>2022-06-17T10:24:40Z</time>
      </trkpt>
      <trkpt lat="42.175267" lon="-1.539574999999998">
        <ele>283.815</ele>
        <time>2022-06-17T10:24:42Z</time>
      </trkpt>
      <trkpt lat="42.175245" lon="-1.539489999999998">
        <ele>284.629</ele>
        <time>2022-06-17T10:24:44Z</time>
      </trkpt>
      <trkpt lat="42.175234999999994" lon="-1.5393079999999981">
        <ele>285.600</ele>
        <time>2022-06-17T10:24:48Z</time>
      </trkpt>
      <trkpt lat="42.175256999999995" lon="-1.5391379999999981">
        <ele>287.020</ele>
        <time>2022-06-17T10:24:52Z</time>
      </trkpt>
      <trkpt lat="42.175262999999994" lon="-1.539040999999998">
        <ele>287.609</ele>
        <time>2022-06-17T10:24:54Z</time>
      </trkpt>
      <trkpt lat="42.17526899999999" lon="-1.5389999999999981">
        <ele>288.043</ele>
        <time>2022-06-17T10:24:55Z</time>
      </trkpt>
      <trkpt lat="42.175295999999996" lon="-1.5387969999999982">
        <ele>289.052</ele>
        <time>2022-06-17T10:25:00Z</time>
      </trkpt>
      <trkpt lat="42.17530299999999" lon="-1.5387159999999982">
        <ele>289.697</ele>
        <time>2022-06-17T10:25:02Z</time>
      </trkpt>
      <trkpt lat="42.17531499999999" lon="-1.5385069999999983">
        <ele>290.219</ele>
        <time>2022-06-17T10:25:07Z</time>
      </trkpt>
      <trkpt lat="42.17532699999999" lon="-1.5383449999999983">
        <ele>291.072</ele>
        <time>2022-06-17T10:25:11Z</time>
      </trkpt>
      <trkpt lat="42.17533199999999" lon="-1.5383059999999984">
        <ele>291.465</ele>
        <time>2022-06-17T10:25:12Z</time>
      </trkpt>
      <trkpt lat="42.17536299999999" lon="-1.5380859999999983">
        <ele>292.443</ele>
        <time>2022-06-17T10:25:18Z</time>
      </trkpt>
      <trkpt lat="42.17536799999999" lon="-1.5380489999999982">
        <ele>292.647</ele>
        <time>2022-06-17T10:25:19Z</time>
      </trkpt>
      <trkpt lat="42.175380999999994" lon="-1.5379409999999982">
        <ele>293.445</ele>
        <time>2022-06-17T10:25:22Z</time>
      </trkpt>
      <trkpt lat="42.175414999999994" lon="-1.5377089999999982">
        <ele>294.649</ele>
        <time>2022-06-17T10:25:29Z</time>
      </trkpt>
      <trkpt lat="42.17541799999999" lon="-1.5376749999999981">
        <ele>295.002</ele>
        <time>2022-06-17T10:25:30Z</time>
      </trkpt>
      <trkpt lat="42.175436999999995" lon="-1.5375469999999982">
        <ele>295.822</ele>
        <time>2022-06-17T10:25:34Z</time>
      </trkpt>
      <trkpt lat="42.17545499999999" lon="-1.5373509999999981">
        <ele>296.609</ele>
        <time>2022-06-17T10:25:40Z</time>
      </trkpt>
      <trkpt lat="42.175456999999994" lon="-1.5373149999999982">
        <ele>296.845</ele>
        <time>2022-06-17T10:25:41Z</time>
      </trkpt>
      <trkpt lat="42.17546899999999" lon="-1.5371429999999981">
        <ele>298.084</ele>
        <time>2022-06-17T10:25:46Z</time>
      </trkpt>
      <trkpt lat="42.17546899999999" lon="-1.5370719999999982">
        <ele>298.029</ele>
        <time>2022-06-17T10:25:48Z</time>
      </trkpt>
      <trkpt lat="42.17548099999999" lon="-1.5368499999999983">
        <ele>299.031</ele>
        <time>2022-06-17T10:25:54Z</time>
      </trkpt>
      <trkpt lat="42.17548499999999" lon="-1.5367159999999982">
        <ele>299.664</ele>
        <time>2022-06-17T10:25:58Z</time>
      </trkpt>
      <trkpt lat="42.175491999999984" lon="-1.5365859999999982">
        <ele>300.047</ele>
        <time>2022-06-17T10:26:02Z</time>
      </trkpt>
      <trkpt lat="42.175493999999986" lon="-1.5365229999999983">
        <ele>300.495</ele>
        <time>2022-06-17T10:26:04Z</time>
      </trkpt>
      <trkpt lat="42.175496999999986" lon="-1.5363989999999983">
        <ele>301.269</ele>
        <time>2022-06-17T10:26:08Z</time>
      </trkpt>
      <trkpt lat="42.17550499999999" lon="-1.5362769999999983">
        <ele>302.227</ele>
        <time>2022-06-17T10:26:12Z</time>
      </trkpt>
      <trkpt lat="42.17550999999999" lon="-1.5362479999999983">
        <ele>302.474</ele>
        <time>2022-06-17T10:26:13Z</time>
      </trkpt>
      <trkpt lat="42.17550799999999" lon="-1.5361319999999983">
        <ele>303.256</ele>
        <time>2022-06-17T10:26:17Z</time>
      </trkpt>
      <trkpt lat="42.175508999999984" lon="-1.5360449999999983">
        <ele>304.021</ele>
        <time>2022-06-17T10:26:20Z</time>
      </trkpt>
      <trkpt lat="42.17551799999998" lon="-1.5359509999999983">
        <ele>304.609</ele>
        <time>2022-06-17T10:26:23Z</time>
      </trkpt>
      <trkpt lat="42.17552899999998" lon="-1.5358269999999983">
        <ele>305.278</ele>
        <time>2022-06-17T10:26:27Z</time>
      </trkpt>
      <trkpt lat="42.17554399999998" lon="-1.5357369999999984">
        <ele>305.857</ele>
        <time>2022-06-17T10:26:30Z</time>
      </trkpt>
      <trkpt lat="42.17557399999998" lon="-1.5356189999999983">
        <ele>306.872</ele>
        <time>2022-06-17T10:26:34Z</time>
      </trkpt>
      <trkpt lat="42.175612999999984" lon="-1.5355029999999983">
        <ele>307.864</ele>
        <time>2022-06-17T10:26:38Z</time>
      </trkpt>
      <trkpt lat="42.17568699999998" lon="-1.5353089999999983">
        <ele>308.647</ele>
        <time>2022-06-17T10:26:44Z</time>
      </trkpt>
      <trkpt lat="42.175736999999984" lon="-1.5351979999999983">
        <ele>309.050</ele>
        <time>2022-06-17T10:26:47Z</time>
      </trkpt>
      <trkpt lat="42.175814999999986" lon="-1.5350019999999982">
        <ele>309.298</ele>
        <time>2022-06-17T10:26:52Z</time>
      </trkpt>
      <trkpt lat="42.17589599999999" lon="-1.5346869999999981">
        <ele>309.642</ele>
        <time>2022-06-17T10:27:00Z</time>
      </trkpt>
      <trkpt lat="42.175947999999984" lon="-1.5345359999999981">
        <ele>310.070</ele>
        <time>2022-06-17T10:27:04Z</time>
      </trkpt>
      <trkpt lat="42.17601099999998" lon="-1.534395999999998">
        <ele>311.099</ele>
        <time>2022-06-17T10:27:08Z</time>
      </trkpt>
      <trkpt lat="42.17602899999998" lon="-1.5343649999999982">
        <ele>311.007</ele>
        <time>2022-06-17T10:27:09Z</time>
      </trkpt>
      <trkpt lat="42.17615299999998" lon="-1.5342349999999982">
        <ele>311.827</ele>
        <time>2022-06-17T10:27:14Z</time>
      </trkpt>
      <trkpt lat="42.17624599999998" lon="-1.5341679999999982">
        <ele>312.209</ele>
        <time>2022-06-17T10:27:17Z</time>
      </trkpt>
      <trkpt lat="42.17635299999998" lon="-1.5341039999999981">
        <ele>312.210</ele>
        <time>2022-06-17T10:27:20Z</time>
      </trkpt>
      <trkpt lat="42.17665599999998" lon="-1.5339489999999982">
        <ele>312.629</ele>
        <time>2022-06-17T10:27:28Z</time>
      </trkpt>
      <trkpt lat="42.17700499999998" lon="-1.5338119999999982">
        <ele>313.294</ele>
        <time>2022-06-17T10:27:37Z</time>
      </trkpt>
      <trkpt lat="42.17728099999998" lon="-1.5336999999999983">
        <ele>313.466</ele>
        <time>2022-06-17T10:27:44Z</time>
      </trkpt>
      <trkpt lat="42.17768499999998" lon="-1.5335529999999984">
        <ele>313.479</ele>
        <time>2022-06-17T10:27:54Z</time>
      </trkpt>
      <trkpt lat="42.178007999999984" lon="-1.5335049999999983">
        <ele>313.622</ele>
        <time>2022-06-17T10:28:02Z</time>
      </trkpt>
      <trkpt lat="42.17834999999999" lon="-1.5335609999999984">
        <ele>313.830</ele>
        <time>2022-06-17T10:28:10Z</time>
      </trkpt>
      <trkpt lat="42.178688999999984" lon="-1.5335859999999983">
        <ele>313.864</ele>
        <time>2022-06-17T10:28:17Z</time>
      </trkpt>
      <trkpt lat="42.17888699999998" lon="-1.5335289999999984">
        <ele>313.812</ele>
        <time>2022-06-17T10:28:21Z</time>
      </trkpt>
      <trkpt lat="42.178975999999984" lon="-1.5334779999999983">
        <ele>313.628</ele>
        <time>2022-06-17T10:28:23Z</time>
      </trkpt>
      <trkpt lat="42.17924199999999" lon="-1.5332179999999984">
        <ele>313.689</ele>
        <time>2022-06-17T10:28:30Z</time>
      </trkpt>
      <trkpt lat="42.17948599999999" lon="-1.5329299999999983">
        <ele>313.617</ele>
        <time>2022-06-17T10:28:38Z</time>
      </trkpt>
      <trkpt lat="42.17961199999999" lon="-1.5327469999999983">
        <ele>314.409</ele>
        <time>2022-06-17T10:28:43Z</time>
      </trkpt>
      <trkpt lat="42.179686999999994" lon="-1.5326399999999982">
        <ele>315.443</ele>
        <time>2022-06-17T10:28:46Z</time>
      </trkpt>
      <trkpt lat="42.17970999999999" lon="-1.5326069999999983">
        <ele>315.672</ele>
        <time>2022-06-17T10:28:47Z</time>
      </trkpt>
      <trkpt lat="42.179871999999996" lon="-1.5323449999999983">
        <ele>316.637</ele>
        <time>2022-06-17T10:28:55Z</time>
      </trkpt>
      <trkpt lat="42.179973" lon="-1.5321829999999983">
        <ele>317.849</ele>
        <time>2022-06-17T10:29:00Z</time>
      </trkpt>
      <trkpt lat="42.180012" lon="-1.5321089999999984">
        <ele>318.032</ele>
        <time>2022-06-17T10:29:02Z</time>
      </trkpt>
      <trkpt lat="42.180113" lon="-1.5319049999999983">
        <ele>318.835</ele>
        <time>2022-06-17T10:29:08Z</time>
      </trkpt>
      <trkpt lat="42.180215" lon="-1.5317139999999982">
        <ele>319.613</ele>
        <time>2022-06-17T10:29:14Z</time>
      </trkpt>
      <trkpt lat="42.180254999999995" lon="-1.5316409999999983">
        <ele>320.047</ele>
        <time>2022-06-17T10:29:16Z</time>
      </trkpt>
      <trkpt lat="42.180355999999996" lon="-1.5314429999999983">
        <ele>320.425</ele>
        <time>2022-06-17T10:29:22Z</time>
      </trkpt>
      <trkpt lat="42.180406" lon="-1.5313039999999984">
        <ele>321.068</ele>
        <time>2022-06-17T10:29:26Z</time>
      </trkpt>
      <trkpt lat="42.180417999999996" lon="-1.5312319999999984">
        <ele>321.442</ele>
        <time>2022-06-17T10:29:28Z</time>
      </trkpt>
      <trkpt lat="42.180448999999996" lon="-1.5310519999999983">
        <ele>322.026</ele>
        <time>2022-06-17T10:29:33Z</time>
      </trkpt>
      <trkpt lat="42.18046399999999" lon="-1.5309289999999982">
        <ele>322.609</ele>
        <time>2022-06-17T10:29:36Z</time>
      </trkpt>
      <trkpt lat="42.18042599999999" lon="-1.5306789999999981">
        <ele>323.277</ele>
        <time>2022-06-17T10:29:43Z</time>
      </trkpt>
      <trkpt lat="42.18036899999999" lon="-1.5304649999999982">
        <ele>324.466</ele>
        <time>2022-06-17T10:29:50Z</time>
      </trkpt>
      <trkpt lat="42.18037299999999" lon="-1.5304259999999983">
        <ele>324.621</ele>
        <time>2022-06-17T10:29:52Z</time>
      </trkpt>
      <trkpt lat="42.18041699999999" lon="-1.5303579999999983">
        <ele>325.083</ele>
        <time>2022-06-17T10:29:55Z</time>
      </trkpt>
      <trkpt lat="42.18045999999999" lon="-1.5302859999999983">
        <ele>325.476</ele>
        <time>2022-06-17T10:29:58Z</time>
      </trkpt>
      <trkpt lat="42.18048599999999" lon="-1.5301919999999982">
        <ele>325.639</ele>
        <time>2022-06-17T10:30:01Z</time>
      </trkpt>
      <trkpt lat="42.180525999999986" lon="-1.5300559999999983">
        <ele>326.827</ele>
        <time>2022-06-17T10:30:06Z</time>
      </trkpt>
      <trkpt lat="42.18053399999999" lon="-1.5300429999999983">
        <ele>327.031</ele>
        <time>2022-06-17T10:30:07Z</time>
      </trkpt>
      <trkpt lat="42.180568999999984" lon="-1.5300099999999983">
        <ele>327.889</ele>
        <time>2022-06-17T10:30:12Z</time>
      </trkpt>
      <trkpt lat="42.18052199999998" lon="-1.5300809999999982">
        <ele>331.026</ele>
        <time>2022-06-17T10:52:25Z</time>
      </trkpt>
      <trkpt lat="42.180500999999985" lon="-1.5301529999999983">
        <ele>331.047</ele>
        <time>2022-06-17T10:52:27Z</time>
      </trkpt>
      <trkpt lat="42.180390999999986" lon="-1.5304089999999984">
        <ele>330.611</ele>
        <time>2022-06-17T10:52:34Z</time>
      </trkpt>
      <trkpt lat="42.180357999999984" lon="-1.5304689999999983">
        <ele>330.409</ele>
        <time>2022-06-17T10:52:36Z</time>
      </trkpt>
      <trkpt lat="42.18035699999999" lon="-1.5305099999999983">
        <ele>330.263</ele>
        <time>2022-06-17T10:52:37Z</time>
      </trkpt>
      <trkpt lat="42.180362999999986" lon="-1.5305559999999983">
        <ele>329.882</ele>
        <time>2022-06-17T10:52:38Z</time>
      </trkpt>
      <trkpt lat="42.18043299999999" lon="-1.5307589999999982">
        <ele>329.047</ele>
        <time>2022-06-17T10:52:43Z</time>
      </trkpt>
      <trkpt lat="42.18046599999999" lon="-1.5308039999999983">
        <ele>328.649</ele>
        <time>2022-06-17T10:52:45Z</time>
      </trkpt>
      <trkpt lat="42.18048999999999" lon="-1.5308129999999982">
        <ele>328.252</ele>
        <time>2022-06-17T10:52:46Z</time>
      </trkpt>
      <trkpt lat="42.18051799999999" lon="-1.5308109999999981">
        <ele>328.025</ele>
        <time>2022-06-17T10:52:47Z</time>
      </trkpt>
      <trkpt lat="42.180544999999995" lon="-1.5307969999999982">
        <ele>327.643</ele>
        <time>2022-06-17T10:52:48Z</time>
      </trkpt>
      <trkpt lat="42.18072899999999" lon="-1.5306809999999982">
        <ele>327.227</ele>
        <time>2022-06-17T10:52:55Z</time>
      </trkpt>
      <trkpt lat="42.18082799999999" lon="-1.5305109999999982">
        <ele>327.655</ele>
        <time>2022-06-17T10:53:00Z</time>
      </trkpt>
      <trkpt lat="42.18084399999999" lon="-1.530468999999998">
        <ele>327.833</ele>
        <time>2022-06-17T10:53:01Z</time>
      </trkpt>
      <trkpt lat="42.180921999999995" lon="-1.530180999999998">
        <ele>328.423</ele>
        <time>2022-06-17T10:53:07Z</time>
      </trkpt>
      <trkpt lat="42.18095399999999" lon="-1.529806999999998">
        <ele>328.615</ele>
        <time>2022-06-17T10:53:13Z</time>
      </trkpt>
      <trkpt lat="42.180935999999996" lon="-1.529497999999998">
        <ele>328.609</ele>
        <time>2022-06-17T10:53:17Z</time>
      </trkpt>
      <trkpt lat="42.18091" lon="-1.529339999999998">
        <ele>328.484</ele>
        <time>2022-06-17T10:53:19Z</time>
      </trkpt>
      <trkpt lat="42.180868999999994" lon="-1.529076999999998">
        <ele>328.243</ele>
        <time>2022-06-17T10:53:22Z</time>
      </trkpt>
      <trkpt lat="42.18081399999999" lon="-1.528793999999998">
        <ele>327.458</ele>
        <time>2022-06-17T10:53:25Z</time>
      </trkpt>
      <trkpt lat="42.18079499999999" lon="-1.528695999999998">
        <ele>326.870</ele>
        <time>2022-06-17T10:53:26Z</time>
      </trkpt>
      <trkpt lat="42.18073799999999" lon="-1.5283979999999981">
        <ele>325.893</ele>
        <time>2022-06-17T10:53:29Z</time>
      </trkpt>
      <trkpt lat="42.180702999999994" lon="-1.5281969999999983">
        <ele>324.666</ele>
        <time>2022-06-17T10:53:31Z</time>
      </trkpt>
      <trkpt lat="42.180626999999994" lon="-1.5277989999999984">
        <ele>323.214</ele>
        <time>2022-06-17T10:53:35Z</time>
      </trkpt>
      <trkpt lat="42.180592999999995" lon="-1.5276139999999983">
        <ele>322.438</ele>
        <time>2022-06-17T10:53:37Z</time>
      </trkpt>
      <trkpt lat="42.180575999999995" lon="-1.5275279999999982">
        <ele>322.226</ele>
        <time>2022-06-17T10:53:38Z</time>
      </trkpt>
      <trkpt lat="42.180482" lon="-1.5272119999999982">
        <ele>321.222</ele>
        <time>2022-06-17T10:53:42Z</time>
      </trkpt>
      <trkpt lat="42.180425" lon="-1.5270519999999983">
        <ele>320.862</ele>
        <time>2022-06-17T10:53:44Z</time>
      </trkpt>
      <trkpt lat="42.18023" lon="-1.5265219999999984">
        <ele>319.808</ele>
        <time>2022-06-17T10:53:50Z</time>
      </trkpt>
      <trkpt lat="42.180095" lon="-1.5261359999999984">
        <ele>318.609</ele>
        <time>2022-06-17T10:53:54Z</time>
      </trkpt>
      <trkpt lat="42.179984000000005" lon="-1.5258439999999984">
        <ele>317.673</ele>
        <time>2022-06-17T10:53:57Z</time>
      </trkpt>
      <trkpt lat="42.179804000000004" lon="-1.5253659999999984">
        <ele>317.042</ele>
        <time>2022-06-17T10:54:02Z</time>
      </trkpt>
      <trkpt lat="42.179735" lon="-1.5251829999999984">
        <ele>316.487</ele>
        <time>2022-06-17T10:54:04Z</time>
      </trkpt>
      <trkpt lat="42.179701" lon="-1.5250919999999983">
        <ele>316.269</ele>
        <time>2022-06-17T10:54:05Z</time>
      </trkpt>
      <trkpt lat="42.1796" lon="-1.5248229999999983">
        <ele>315.062</ele>
        <time>2022-06-17T10:54:08Z</time>
      </trkpt>
      <trkpt lat="42.179537" lon="-1.5246409999999984">
        <ele>314.085</ele>
        <time>2022-06-17T10:54:10Z</time>
      </trkpt>
      <trkpt lat="42.179472000000004" lon="-1.5244579999999983">
        <ele>312.893</ele>
        <time>2022-06-17T10:54:12Z</time>
      </trkpt>
      <trkpt lat="42.179439" lon="-1.5243649999999984">
        <ele>312.477</ele>
        <time>2022-06-17T10:54:13Z</time>
      </trkpt>
      <trkpt lat="42.179404000000005" lon="-1.5242749999999985">
        <ele>312.475</ele>
        <time>2022-06-17T10:54:14Z</time>
      </trkpt>
      <trkpt lat="42.17927900000001" lon="-1.5238129999999985">
        <ele>312.053</ele>
        <time>2022-06-17T10:54:19Z</time>
      </trkpt>
      <trkpt lat="42.17925900000001" lon="-1.5237209999999985">
        <ele>311.604</ele>
        <time>2022-06-17T10:54:20Z</time>
      </trkpt>
      <trkpt lat="42.17918100000001" lon="-1.5232969999999986">
        <ele>311.214</ele>
        <time>2022-06-17T10:54:25Z</time>
      </trkpt>
      <trkpt lat="42.17913600000001" lon="-1.5231449999999986">
        <ele>311.209</ele>
        <time>2022-06-17T10:54:27Z</time>
      </trkpt>
      <trkpt lat="42.179013000000005" lon="-1.5228299999999986">
        <ele>311.236</ele>
        <time>2022-06-17T10:54:32Z</time>
      </trkpt>
      <trkpt lat="42.179008" lon="-1.5227149999999985">
        <ele>311.045</ele>
        <time>2022-06-17T10:54:34Z</time>
      </trkpt>
      <trkpt lat="42.179019000000004" lon="-1.5226519999999986">
        <ele>311.060</ele>
        <time>2022-06-17T10:54:35Z</time>
      </trkpt>
      <trkpt lat="42.179038000000006" lon="-1.5225859999999987">
        <ele>311.052</ele>
        <time>2022-06-17T10:54:36Z</time>
      </trkpt>
      <trkpt lat="42.17919500000001" lon="-1.5222039999999986">
        <ele>311.025</ele>
        <time>2022-06-17T10:54:41Z</time>
      </trkpt>
      <trkpt lat="42.17923900000001" lon="-1.5221249999999986">
        <ele>310.878</ele>
        <time>2022-06-17T10:54:42Z</time>
      </trkpt>
      <trkpt lat="42.17929000000001" lon="-1.5220479999999985">
        <ele>310.636</ele>
        <time>2022-06-17T10:54:43Z</time>
      </trkpt>
      <trkpt lat="42.17940800000001" lon="-1.5218919999999985">
        <ele>310.430</ele>
        <time>2022-06-17T10:54:45Z</time>
      </trkpt>
      <trkpt lat="42.17947100000001" lon="-1.5218189999999985">
        <ele>309.848</ele>
        <time>2022-06-17T10:54:46Z</time>
      </trkpt>
      <trkpt lat="42.179539000000005" lon="-1.5217539999999985">
        <ele>309.038</ele>
        <time>2022-06-17T10:54:47Z</time>
      </trkpt>
      <trkpt lat="42.179683000000004" lon="-1.5216339999999986">
        <ele>308.270</ele>
        <time>2022-06-17T10:54:49Z</time>
      </trkpt>
      <trkpt lat="42.17975500000001" lon="-1.5215789999999987">
        <ele>306.817</ele>
        <time>2022-06-17T10:54:50Z</time>
      </trkpt>
      <trkpt lat="42.17989800000001" lon="-1.5214739999999987">
        <ele>305.409</ele>
        <time>2022-06-17T10:54:52Z</time>
      </trkpt>
      <trkpt lat="42.180127000000006" lon="-1.5213109999999987">
        <ele>304.244</ele>
        <time>2022-06-17T10:54:55Z</time>
      </trkpt>
      <trkpt lat="42.180282000000005" lon="-1.5212029999999988">
        <ele>302.673</ele>
        <time>2022-06-17T10:54:57Z</time>
      </trkpt>
      <trkpt lat="42.180440000000004" lon="-1.5211129999999988">
        <ele>301.678</ele>
        <time>2022-06-17T10:54:59Z</time>
      </trkpt>
      <trkpt lat="42.180519000000004" lon="-1.5210859999999988">
        <ele>301.020</ele>
        <time>2022-06-17T10:55:00Z</time>
      </trkpt>
      <trkpt lat="42.180598" lon="-1.5210719999999989">
        <ele>300.673</ele>
        <time>2022-06-17T10:55:01Z</time>
      </trkpt>
      <trkpt lat="42.18083" lon="-1.5210889999999988">
        <ele>299.056</ele>
        <time>2022-06-17T10:55:04Z</time>
      </trkpt>
      <trkpt lat="42.180903" lon="-1.5211049999999988">
        <ele>298.444</ele>
        <time>2022-06-17T10:55:05Z</time>
      </trkpt>
      <trkpt lat="42.180975000000004" lon="-1.5211259999999989">
        <ele>298.078</ele>
        <time>2022-06-17T10:55:06Z</time>
      </trkpt>
      <trkpt lat="42.181316" lon="-1.5212729999999988">
        <ele>296.856</ele>
        <time>2022-06-17T10:55:11Z</time>
      </trkpt>
      <trkpt lat="42.181518000000004" lon="-1.5213849999999987">
        <ele>296.657</ele>
        <time>2022-06-17T10:55:14Z</time>
      </trkpt>
      <trkpt lat="42.181847000000005" lon="-1.5215849999999986">
        <ele>296.400</ele>
        <time>2022-06-17T10:55:19Z</time>
      </trkpt>
      <trkpt lat="42.18232700000001" lon="-1.5219019999999985">
        <ele>296.220</ele>
        <time>2022-06-17T10:55:27Z</time>
      </trkpt>
      <trkpt lat="42.182573000000005" lon="-1.5220139999999984">
        <ele>295.609</ele>
        <time>2022-06-17T10:55:31Z</time>
      </trkpt>
      <trkpt lat="42.182698" lon="-1.5220309999999984">
        <ele>295.496</ele>
        <time>2022-06-17T10:55:33Z</time>
      </trkpt>
      <trkpt lat="42.183004000000004" lon="-1.5220079999999983">
        <ele>295.075</ele>
        <time>2022-06-17T10:55:38Z</time>
      </trkpt>
      <trkpt lat="42.183066000000004" lon="-1.5219919999999982">
        <ele>295.050</ele>
        <time>2022-06-17T10:55:39Z</time>
      </trkpt>
      <trkpt lat="42.183311" lon="-1.5219199999999982">
        <ele>294.682</ele>
        <time>2022-06-17T10:55:43Z</time>
      </trkpt>
      <trkpt lat="42.183492" lon="-1.5218499999999981">
        <ele>293.655</ele>
        <time>2022-06-17T10:55:46Z</time>
      </trkpt>
      <trkpt lat="42.183549" lon="-1.5218219999999982">
        <ele>293.468</ele>
        <time>2022-06-17T10:55:47Z</time>
      </trkpt>
      <trkpt lat="42.183904" lon="-1.5217049999999983">
        <ele>293.036</ele>
        <time>2022-06-17T10:55:53Z</time>
      </trkpt>
      <trkpt lat="42.184315" lon="-1.5216909999999984">
        <ele>292.470</ele>
        <time>2022-06-17T10:56:00Z</time>
      </trkpt>
      <trkpt lat="42.184374" lon="-1.5216959999999984">
        <ele>292.018</ele>
        <time>2022-06-17T10:56:01Z</time>
      </trkpt>
      <trkpt lat="42.184548" lon="-1.5217259999999984">
        <ele>291.431</ele>
        <time>2022-06-17T10:56:04Z</time>
      </trkpt>
      <trkpt lat="42.184777" lon="-1.5217859999999983">
        <ele>291.261</ele>
        <time>2022-06-17T10:56:08Z</time>
      </trkpt>
      <trkpt lat="42.185249" lon="-1.5219249999999982">
        <ele>290.407</ele>
        <time>2022-06-17T10:56:16Z</time>
      </trkpt>
      <trkpt lat="42.185311999999996" lon="-1.5219399999999983">
        <ele>290.209</ele>
        <time>2022-06-17T10:56:17Z</time>
      </trkpt>
      <trkpt lat="42.185745999999995" lon="-1.5219969999999983">
        <ele>290.234</ele>
        <time>2022-06-17T10:56:24Z</time>
      </trkpt>
      <trkpt lat="42.185804" lon="-1.5219859999999983">
        <ele>290.233</ele>
        <time>2022-06-17T10:56:25Z</time>
      </trkpt>
      <trkpt lat="42.186021999999994" lon="-1.5218829999999983">
        <ele>290.028</ele>
        <time>2022-06-17T10:56:29Z</time>
      </trkpt>
      <trkpt lat="42.18607099999999" lon="-1.5218449999999983">
        <ele>290.060</ele>
        <time>2022-06-17T10:56:30Z</time>
      </trkpt>
      <trkpt lat="42.18616499999999" lon="-1.5217579999999984">
        <ele>290.043</ele>
        <time>2022-06-17T10:56:32Z</time>
      </trkpt>
      <trkpt lat="42.18629399999999" lon="-1.5216169999999984">
        <ele>289.296</ele>
        <time>2022-06-17T10:56:35Z</time>
      </trkpt>
      <trkpt lat="42.18633899999999" lon="-1.5215719999999984">
        <ele>289.274</ele>
        <time>2022-06-17T10:56:36Z</time>
      </trkpt>
      <trkpt lat="42.18653299999999" lon="-1.5214319999999983">
        <ele>288.658</ele>
        <time>2022-06-17T10:56:40Z</time>
      </trkpt>
      <trkpt lat="42.18664099999999" lon="-1.5214009999999984">
        <ele>288.666</ele>
        <time>2022-06-17T10:56:42Z</time>
      </trkpt>
      <trkpt lat="42.18719199999999" lon="-1.5213659999999984">
        <ele>288.465</ele>
        <time>2022-06-17T10:56:52Z</time>
      </trkpt>
      <trkpt lat="42.18764399999999" lon="-1.5213279999999985">
        <ele>288.668</ele>
        <time>2022-06-17T10:57:00Z</time>
      </trkpt>
      <trkpt lat="42.18792199999999" lon="-1.5212629999999985">
        <ele>288.614</ele>
        <time>2022-06-17T10:57:05Z</time>
      </trkpt>
      <trkpt lat="42.18802399999999" lon="-1.5212049999999986">
        <ele>288.609</ele>
        <time>2022-06-17T10:57:07Z</time>
      </trkpt>
      <trkpt lat="42.18840699999999" lon="-1.5209239999999986">
        <ele>288.677</ele>
        <time>2022-06-17T10:57:15Z</time>
      </trkpt>
      <trkpt lat="42.18863699999999" lon="-1.5207619999999986">
        <ele>288.656</ele>
        <time>2022-06-17T10:57:20Z</time>
      </trkpt>
      <trkpt lat="42.18887699999999" lon="-1.5206069999999987">
        <ele>288.651</ele>
        <time>2022-06-17T10:57:25Z</time>
      </trkpt>
      <trkpt lat="42.18925899999999" lon="-1.5203389999999988">
        <ele>288.453</ele>
        <time>2022-06-17T10:57:33Z</time>
      </trkpt>
      <trkpt lat="42.18935999999999" lon="-1.5202969999999987">
        <ele>288.226</ele>
        <time>2022-06-17T10:57:35Z</time>
      </trkpt>
      <trkpt lat="42.18956899999999" lon="-1.5202679999999986">
        <ele>288.279</ele>
        <time>2022-06-17T10:57:39Z</time>
      </trkpt>
      <trkpt lat="42.19003599999999" lon="-1.5202709999999986">
        <ele>288.057</ele>
        <time>2022-06-17T10:57:48Z</time>
      </trkpt>
      <trkpt lat="42.19053699999999" lon="-1.5202869999999986">
        <ele>287.891</ele>
        <time>2022-06-17T10:57:58Z</time>
      </trkpt>
      <trkpt lat="42.19058599999999" lon="-1.5202879999999985">
        <ele>287.839</ele>
        <time>2022-06-17T10:57:59Z</time>
      </trkpt>
      <trkpt lat="42.19097199999999" lon="-1.5202859999999985">
        <ele>288.039</ele>
        <time>2022-06-17T10:58:07Z</time>
      </trkpt>
      <trkpt lat="42.19148099999999" lon="-1.5202689999999985">
        <ele>288.201</ele>
        <time>2022-06-17T10:58:18Z</time>
      </trkpt>
      <trkpt lat="42.19184499999999" lon="-1.5202709999999986">
        <ele>288.621</ele>
        <time>2022-06-17T10:58:26Z</time>
      </trkpt>
      <trkpt lat="42.19203599999999" lon="-1.5202719999999985">
        <ele>288.809</ele>
        <time>2022-06-17T10:58:30Z</time>
      </trkpt>
      <trkpt lat="42.19223199999999" lon="-1.5202389999999986">
        <ele>289.054</ele>
        <time>2022-06-17T10:58:34Z</time>
      </trkpt>
      <trkpt lat="42.19241699999999" lon="-1.5201839999999986">
        <ele>289.483</ele>
        <time>2022-06-17T10:58:38Z</time>
      </trkpt>
      <trkpt lat="42.192550999999995" lon="-1.5201189999999987">
        <ele>289.678</ele>
        <time>2022-06-17T10:58:41Z</time>
      </trkpt>
      <trkpt lat="42.192955999999995" lon="-1.5199469999999986">
        <ele>289.660</ele>
        <time>2022-06-17T10:58:50Z</time>
      </trkpt>
      <trkpt lat="42.192997999999996" lon="-1.5199279999999986">
        <ele>289.683</ele>
        <time>2022-06-17T10:58:51Z</time>
      </trkpt>
      <trkpt lat="42.193329999999996" lon="-1.5197599999999987">
        <ele>289.236</ele>
        <time>2022-06-17T10:58:59Z</time>
      </trkpt>
      <trkpt lat="42.193619" lon="-1.5196269999999987">
        <ele>289.274</ele>
        <time>2022-06-17T10:59:06Z</time>
      </trkpt>
      <trkpt lat="42.194044999999996" lon="-1.5194819999999987">
        <ele>289.448</ele>
        <time>2022-06-17T10:59:16Z</time>
      </trkpt>
      <trkpt lat="42.194461" lon="-1.5192919999999988">
        <ele>290.246</ele>
        <time>2022-06-17T10:59:26Z</time>
      </trkpt>
      <trkpt lat="42.194855999999994" lon="-1.5190519999999987">
        <ele>290.214</ele>
        <time>2022-06-17T10:59:35Z</time>
      </trkpt>
      <trkpt lat="42.195356" lon="-1.5187439999999988">
        <ele>290.654</ele>
        <time>2022-06-17T10:59:47Z</time>
      </trkpt>
      <trkpt lat="42.195774" lon="-1.5185199999999988">
        <ele>290.609</ele>
        <time>2022-06-17T10:59:57Z</time>
      </trkpt>
      <trkpt lat="42.196172" lon="-1.5183719999999987">
        <ele>290.609</ele>
        <time>2022-06-17T11:00:06Z</time>
      </trkpt>
      <trkpt lat="42.196217" lon="-1.5183559999999987">
        <ele>290.662</ele>
        <time>2022-06-17T11:00:07Z</time>
      </trkpt>
      <trkpt lat="42.196344999999994" lon="-1.5183089999999988">
        <ele>290.651</ele>
        <time>2022-06-17T11:00:10Z</time>
      </trkpt>
      <trkpt lat="42.19638499999999" lon="-1.5182809999999989">
        <ele>290.636</ele>
        <time>2022-06-17T11:00:11Z</time>
      </trkpt>
      <trkpt lat="42.19646199999999" lon="-1.5182199999999988">
        <ele>290.868</ele>
        <time>2022-06-17T11:00:13Z</time>
      </trkpt>
      <trkpt lat="42.19684799999999" lon="-1.5179929999999988">
        <ele>291.241</ele>
        <time>2022-06-17T11:00:22Z</time>
      </trkpt>
      <trkpt lat="42.19714399999999" lon="-1.5178429999999987">
        <ele>291.434</ele>
        <time>2022-06-17T11:00:29Z</time>
      </trkpt>
      <trkpt lat="42.19749799999999" lon="-1.5177119999999986">
        <ele>291.422</ele>
        <time>2022-06-17T11:00:37Z</time>
      </trkpt>
      <trkpt lat="42.19767199999999" lon="-1.5176519999999987">
        <ele>291.446</ele>
        <time>2022-06-17T11:00:41Z</time>
      </trkpt>
      <trkpt lat="42.19783999999999" lon="-1.5175859999999988">
        <ele>291.494</ele>
        <time>2022-06-17T11:00:45Z</time>
      </trkpt>
      <trkpt lat="42.19827599999999" lon="-1.5174319999999988">
        <ele>291.464</ele>
        <time>2022-06-17T11:00:55Z</time>
      </trkpt>
      <trkpt lat="42.19864499999999" lon="-1.5173129999999988">
        <ele>291.606</ele>
        <time>2022-06-17T11:01:04Z</time>
      </trkpt>
      <trkpt lat="42.198688999999995" lon="-1.5172979999999987">
        <ele>291.616</ele>
        <time>2022-06-17T11:01:05Z</time>
      </trkpt>
      <trkpt lat="42.199043999999994" lon="-1.5171759999999987">
        <ele>292.009</ele>
        <time>2022-06-17T11:01:13Z</time>
      </trkpt>
      <trkpt lat="42.19939699999999" lon="-1.5170349999999988">
        <ele>292.457</ele>
        <time>2022-06-17T11:01:21Z</time>
      </trkpt>
      <trkpt lat="42.19974699999999" lon="-1.5169049999999988">
        <ele>292.446</ele>
        <time>2022-06-17T11:01:30Z</time>
      </trkpt>
      <trkpt lat="42.19975499999999" lon="-1.5169019999999989">
        <ele>292.451</ele>
        <time>2022-06-17T11:01:33Z</time>
      </trkpt>
      <trkpt lat="42.19977099999999" lon="-1.5168919999999988">
        <ele>293.443</ele>
        <time>2022-06-17T11:02:53Z</time>
      </trkpt>
      <trkpt lat="42.19990799999999" lon="-1.5168589999999988">
        <ele>293.446</ele>
        <time>2022-06-17T11:02:58Z</time>
      </trkpt>
      <trkpt lat="42.200149999999994" lon="-1.5168239999999988">
        <ele>293.259</ele>
        <time>2022-06-17T11:03:04Z</time>
      </trkpt>
      <trkpt lat="42.200495999999994" lon="-1.516768999999999">
        <ele>292.887</ele>
        <time>2022-06-17T11:03:12Z</time>
      </trkpt>
      <trkpt lat="42.20067099999999" lon="-1.516727999999999">
        <ele>292.841</ele>
        <time>2022-06-17T11:03:16Z</time>
      </trkpt>
      <trkpt lat="42.20079299999999" lon="-1.516662999999999">
        <ele>292.819</ele>
        <time>2022-06-17T11:03:19Z</time>
      </trkpt>
      <trkpt lat="42.20086899999999" lon="-1.516608999999999">
        <ele>292.888</ele>
        <time>2022-06-17T11:03:21Z</time>
      </trkpt>
      <trkpt lat="42.20100799999999" lon="-1.516493999999999">
        <ele>292.824</ele>
        <time>2022-06-17T11:03:25Z</time>
      </trkpt>
      <trkpt lat="42.20105499999999" lon="-1.516452999999999">
        <ele>292.826</ele>
        <time>2022-06-17T11:03:27Z</time>
      </trkpt>
      <trkpt lat="42.201061999999986" lon="-1.5164459999999989">
        <ele>293.009</ele>
        <time>2022-06-17T11:03:30Z</time>
      </trkpt>
      <trkpt lat="42.201061999999986" lon="-1.5164459999999989">
        <ele>293.099</ele>
        <time>2022-06-17T11:03:31Z</time>
      </trkpt>
      <trkpt lat="42.201084999999985" lon="-1.516436999999999">
        <ele>294.828</ele>
        <time>2022-06-17T11:04:23Z</time>
      </trkpt>
      <trkpt lat="42.20113699999998" lon="-1.5164079999999989">
        <ele>294.863</ele>
        <time>2022-06-17T11:04:25Z</time>
      </trkpt>
      <trkpt lat="42.20132299999998" lon="-1.516323999999999">
        <ele>294.865</ele>
        <time>2022-06-17T11:04:30Z</time>
      </trkpt>
      <trkpt lat="42.201577999999984" lon="-1.516230999999999">
        <ele>294.658</ele>
        <time>2022-06-17T11:04:36Z</time>
      </trkpt>
      <trkpt lat="42.20192799999998" lon="-1.516094999999999">
        <ele>294.251</ele>
        <time>2022-06-17T11:04:43Z</time>
      </trkpt>
      <trkpt lat="42.20234299999998" lon="-1.5158839999999991">
        <ele>294.049</ele>
        <time>2022-06-17T11:04:52Z</time>
      </trkpt>
      <trkpt lat="42.202641999999976" lon="-1.515565999999999">
        <ele>294.243</ele>
        <time>2022-06-17T11:05:00Z</time>
      </trkpt>
      <trkpt lat="42.20294699999997" lon="-1.515331999999999">
        <ele>294.811</ele>
        <time>2022-06-17T11:05:07Z</time>
      </trkpt>
      <trkpt lat="42.203334999999974" lon="-1.515217999999999">
        <ele>295.281</ele>
        <time>2022-06-17T11:05:15Z</time>
      </trkpt>
      <trkpt lat="42.20368299999998" lon="-1.5151439999999992">
        <ele>295.461</ele>
        <time>2022-06-17T11:05:22Z</time>
      </trkpt>
      <trkpt lat="42.204130999999975" lon="-1.515020999999999">
        <ele>295.417</ele>
        <time>2022-06-17T11:05:31Z</time>
      </trkpt>
      <trkpt lat="42.20437199999998" lon="-1.5149549999999992">
        <ele>295.409</ele>
        <time>2022-06-17T11:05:36Z</time>
      </trkpt>
      <trkpt lat="42.20446099999998" lon="-1.5149569999999992">
        <ele>295.419</ele>
        <time>2022-06-17T11:05:38Z</time>
      </trkpt>
      <trkpt lat="42.20450999999998" lon="-1.5149659999999991">
        <ele>295.438</ele>
        <time>2022-06-17T11:05:39Z</time>
      </trkpt>
      <trkpt lat="42.20460899999998" lon="-1.5150159999999993">
        <ele>295.623</ele>
        <time>2022-06-17T11:05:41Z</time>
      </trkpt>
      <trkpt lat="42.20464999999998" lon="-1.5150499999999993">
        <ele>295.635</ele>
        <time>2022-06-17T11:05:42Z</time>
      </trkpt>
      <trkpt lat="42.20468099999998" lon="-1.5150829999999993">
        <ele>295.648</ele>
        <time>2022-06-17T11:05:43Z</time>
      </trkpt>
      <trkpt lat="42.20485799999998" lon="-1.5153299999999994">
        <ele>295.861</ele>
        <time>2022-06-17T11:05:48Z</time>
      </trkpt>
      <trkpt lat="42.20501499999998" lon="-1.5155769999999995">
        <ele>295.839</ele>
        <time>2022-06-17T11:05:53Z</time>
      </trkpt>
      <trkpt lat="42.20509099999998" lon="-1.5156539999999996">
        <ele>295.833</ele>
        <time>2022-06-17T11:05:55Z</time>
      </trkpt>
      <trkpt lat="42.20512999999998" lon="-1.5156839999999996">
        <ele>295.831</ele>
        <time>2022-06-17T11:05:56Z</time>
      </trkpt>
      <trkpt lat="42.20533399999998" lon="-1.5158239999999996">
        <ele>295.842</ele>
        <time>2022-06-17T11:06:01Z</time>
      </trkpt>
      <trkpt lat="42.20542299999998" lon="-1.5158639999999997">
        <ele>295.822</ele>
        <time>2022-06-17T11:06:03Z</time>
      </trkpt>
      <trkpt lat="42.20559299999998" lon="-1.5159519999999997">
        <ele>296.014</ele>
        <time>2022-06-17T11:06:07Z</time>
      </trkpt>
      <trkpt lat="42.20571699999998" lon="-1.5160189999999998">
        <ele>296.409</ele>
        <time>2022-06-17T11:06:10Z</time>
      </trkpt>
      <trkpt lat="42.20615499999998" lon="-1.5161529999999999">
        <ele>296.485</ele>
        <time>2022-06-17T11:06:19Z</time>
      </trkpt>
      <trkpt lat="42.206316999999984" lon="-1.5161619999999998">
        <ele>296.244</ele>
        <time>2022-06-17T11:06:22Z</time>
      </trkpt>
      <trkpt lat="42.206541999999985" lon="-1.5161609999999999">
        <ele>296.289</ele>
        <time>2022-06-17T11:06:27Z</time>
      </trkpt>
      <trkpt lat="42.20657199999999" lon="-1.516155">
        <ele>296.261</ele>
        <time>2022-06-17T11:06:30Z</time>
      </trkpt>
      <trkpt lat="42.20657199999999" lon="-1.516155">
        <ele>296.224</ele>
        <time>2022-06-17T11:06:31Z</time>
      </trkpt>
      <trkpt lat="42.206617999999985" lon="-1.5161609999999999">
        <ele>296.627</ele>
        <time>2022-06-17T11:08:07Z</time>
      </trkpt>
      <trkpt lat="42.206662999999985" lon="-1.516152">
        <ele>296.825</ele>
        <time>2022-06-17T11:08:09Z</time>
      </trkpt>
      <trkpt lat="42.206865999999984" lon="-1.516108">
        <ele>296.659</ele>
        <time>2022-06-17T11:08:15Z</time>
      </trkpt>
      <trkpt lat="42.20715099999998" lon="-1.516089">
        <ele>296.437</ele>
        <time>2022-06-17T11:08:22Z</time>
      </trkpt>
      <trkpt lat="42.20763799999998" lon="-1.516049">
        <ele>296.289</ele>
        <time>2022-06-17T11:08:33Z</time>
      </trkpt>
      <trkpt lat="42.208047999999984" lon="-1.5160259999999999">
        <ele>296.406</ele>
        <time>2022-06-17T11:08:42Z</time>
      </trkpt>
      <trkpt lat="42.20850499999998" lon="-1.5159999999999998">
        <ele>296.426</ele>
        <time>2022-06-17T11:08:53Z</time>
      </trkpt>
      <trkpt lat="42.208846999999984" lon="-1.5159579999999997">
        <ele>296.609</ele>
        <time>2022-06-17T11:09:02Z</time>
      </trkpt>
      <trkpt lat="42.20911599999999" lon="-1.5158789999999998">
        <ele>296.699</ele>
        <time>2022-06-17T11:09:09Z</time>
      </trkpt>
      <trkpt lat="42.20932699999999" lon="-1.5157429999999998">
        <ele>296.848</ele>
        <time>2022-06-17T11:09:15Z</time>
      </trkpt>
      <trkpt lat="42.20939399999999" lon="-1.5156899999999998">
        <ele>296.853</ele>
        <time>2022-06-17T11:09:17Z</time>
      </trkpt>
      <trkpt lat="42.20954499999999" lon="-1.5155679999999998">
        <ele>297.475</ele>
        <time>2022-06-17T11:09:23Z</time>
      </trkpt>
      <trkpt lat="42.20961799999999" lon="-1.515548">
        <ele>297.628</ele>
        <time>2022-06-17T11:09:26Z</time>
      </trkpt>
      <trkpt lat="42.20963799999999" lon="-1.515545">
        <ele>297.871</ele>
        <time>2022-06-17T11:09:27Z</time>
      </trkpt>
      <trkpt lat="42.20966799999999" lon="-1.515539">
        <ele>298.679</ele>
        <time>2022-06-17T11:09:31Z</time>
      </trkpt>
      <trkpt lat="42.20964899999999" lon="-1.515474">
        <ele>302.083</ele>
        <time>2022-06-17T11:30:38Z</time>
      </trkpt>
      <trkpt lat="42.20963499999999" lon="-1.51541">
        <ele>301.861</ele>
        <time>2022-06-17T11:30:40Z</time>
      </trkpt>
      <trkpt lat="42.20957299999999" lon="-1.5151949999999998">
        <ele>301.265</ele>
        <time>2022-06-17T11:30:46Z</time>
      </trkpt>
      <trkpt lat="42.20952799999999" lon="-1.5149749999999997">
        <ele>301.068</ele>
        <time>2022-06-17T11:30:52Z</time>
      </trkpt>
      <trkpt lat="42.20947499999999" lon="-1.5147789999999997">
        <ele>301.614</ele>
        <time>2022-06-17T11:30:59Z</time>
      </trkpt>
      <trkpt lat="42.209439999999994" lon="-1.5147099999999996">
        <ele>303.009</ele>
        <time>2022-06-17T11:31:03Z</time>
      </trkpt>
      <trkpt lat="42.20943799999999" lon="-1.5147039999999996">
        <ele>303.497</ele>
        <time>2022-06-17T11:31:05Z</time>
      </trkpt>
      <trkpt lat="42.209419999999994" lon="-1.5146479999999996">
        <ele>304.656</ele>
        <time>2022-06-17T11:32:58Z</time>
      </trkpt>
      <trkpt lat="42.209388999999994" lon="-1.5145899999999997">
        <ele>304.631</ele>
        <time>2022-06-17T11:33:00Z</time>
      </trkpt>
      <trkpt lat="42.209258999999996" lon="-1.5143159999999996">
        <ele>304.693</ele>
        <time>2022-06-17T11:33:07Z</time>
      </trkpt>
      <trkpt lat="42.209123" lon="-1.5140259999999996">
        <ele>304.496</ele>
        <time>2022-06-17T11:33:14Z</time>
      </trkpt>
      <trkpt lat="42.209002999999996" lon="-1.5137359999999997">
        <ele>304.619</ele>
        <time>2022-06-17T11:33:21Z</time>
      </trkpt>
      <trkpt lat="42.20883799999999" lon="-1.5133569999999998">
        <ele>304.697</ele>
        <time>2022-06-17T11:33:30Z</time>
      </trkpt>
      <trkpt lat="42.20870399999999" lon="-1.513062">
        <ele>304.871</ele>
        <time>2022-06-17T11:33:37Z</time>
      </trkpt>
      <trkpt lat="42.20855799999999" lon="-1.512741">
        <ele>305.079</ele>
        <time>2022-06-17T11:33:45Z</time>
      </trkpt>
      <trkpt lat="42.20836099999999" lon="-1.512263">
        <ele>305.822</ele>
        <time>2022-06-17T11:33:56Z</time>
      </trkpt>
      <trkpt lat="42.20832599999999" lon="-1.512176">
        <ele>305.662</ele>
        <time>2022-06-17T11:33:58Z</time>
      </trkpt>
      <trkpt lat="42.20827099999999" lon="-1.512049">
        <ele>306.008</ele>
        <time>2022-06-17T11:34:01Z</time>
      </trkpt>
      <trkpt lat="42.20819799999999" lon="-1.511869">
        <ele>306.209</ele>
        <time>2022-06-17T11:34:05Z</time>
      </trkpt>
      <trkpt lat="42.20801199999999" lon="-1.5113709999999998">
        <ele>306.843</ele>
        <time>2022-06-17T11:34:16Z</time>
      </trkpt>
      <trkpt lat="42.20792299999999" lon="-1.5111489999999999">
        <ele>306.822</ele>
        <time>2022-06-17T11:34:21Z</time>
      </trkpt>
      <trkpt lat="42.20787199999999" lon="-1.5110219999999999">
        <ele>307.287</ele>
        <time>2022-06-17T11:34:24Z</time>
      </trkpt>
      <trkpt lat="42.20775599999999" lon="-1.5107479999999998">
        <ele>307.879</ele>
        <time>2022-06-17T11:34:31Z</time>
      </trkpt>
      <trkpt lat="42.20773999999999" lon="-1.5107039999999998">
        <ele>308.082</ele>
        <time>2022-06-17T11:34:32Z</time>
      </trkpt>
      <trkpt lat="42.207622999999984" lon="-1.5104399999999998">
        <ele>308.475</ele>
        <time>2022-06-17T11:34:38Z</time>
      </trkpt>
      <trkpt lat="42.207574999999984" lon="-1.5103339999999998">
        <ele>308.433</ele>
        <time>2022-06-17T11:34:40Z</time>
      </trkpt>
      <trkpt lat="42.20737399999999" lon="-1.5099369999999999">
        <ele>308.467</ele>
        <time>2022-06-17T11:34:47Z</time>
      </trkpt>
      <trkpt lat="42.207098999999985" lon="-1.5093789999999998">
        <ele>307.255</ele>
        <time>2022-06-17T11:34:57Z</time>
      </trkpt>
      <trkpt lat="42.20696899999999" lon="-1.509089">
        <ele>307.228</ele>
        <time>2022-06-17T11:35:03Z</time>
      </trkpt>
      <trkpt lat="42.206926999999986" lon="-1.5087849999999998">
        <ele>307.889</ele>
        <time>2022-06-17T11:35:09Z</time>
      </trkpt>
      <trkpt lat="42.206952999999984" lon="-1.5085119999999999">
        <ele>308.417</ele>
        <time>2022-06-17T11:35:14Z</time>
      </trkpt>
      <trkpt lat="42.20698199999998" lon="-1.5084039999999999">
        <ele>308.409</ele>
        <time>2022-06-17T11:35:16Z</time>
      </trkpt>
      <trkpt lat="42.20713699999998" lon="-1.5079539999999998">
        <ele>308.083</ele>
        <time>2022-06-17T11:35:24Z</time>
      </trkpt>
      <trkpt lat="42.20724899999998" lon="-1.5075859999999999">
        <ele>306.812</ele>
        <time>2022-06-17T11:35:30Z</time>
      </trkpt>
      <trkpt lat="42.20726399999998" lon="-1.507518">
        <ele>306.827</ele>
        <time>2022-06-17T11:35:31Z</time>
      </trkpt>
      <trkpt lat="42.207273999999984" lon="-1.50745">
        <ele>306.879</ele>
        <time>2022-06-17T11:35:32Z</time>
      </trkpt>
      <trkpt lat="42.20732499999998" lon="-1.506864">
        <ele>306.072</ele>
        <time>2022-06-17T11:35:40Z</time>
      </trkpt>
      <trkpt lat="42.20732599999998" lon="-1.506792">
        <ele>305.655</ele>
        <time>2022-06-17T11:35:41Z</time>
      </trkpt>
      <trkpt lat="42.20732099999998" lon="-1.506573">
        <ele>305.063</ele>
        <time>2022-06-17T11:35:44Z</time>
      </trkpt>
      <trkpt lat="42.20732199999998" lon="-1.506435">
        <ele>304.637</ele>
        <time>2022-06-17T11:35:46Z</time>
      </trkpt>
      <trkpt lat="42.20731499999998" lon="-1.506306">
        <ele>304.425</ele>
        <time>2022-06-17T11:35:48Z</time>
      </trkpt>
      <trkpt lat="42.20723499999998" lon="-1.505776">
        <ele>304.036</ele>
        <time>2022-06-17T11:35:56Z</time>
      </trkpt>
      <trkpt lat="42.20702199999998" lon="-1.505247">
        <ele>303.817</ele>
        <time>2022-06-17T11:36:05Z</time>
      </trkpt>
      <trkpt lat="42.20683399999998" lon="-1.504842">
        <ele>304.018</ele>
        <time>2022-06-17T11:36:13Z</time>
      </trkpt>
      <trkpt lat="42.206671999999976" lon="-1.504492">
        <ele>304.609</ele>
        <time>2022-06-17T11:36:20Z</time>
      </trkpt>
      <trkpt lat="42.206590999999975" lon="-1.504322">
        <ele>305.024</ele>
        <time>2022-06-17T11:36:24Z</time>
      </trkpt>
      <trkpt lat="42.20648599999998" lon="-1.504105">
        <ele>305.663</ele>
        <time>2022-06-17T11:36:29Z</time>
      </trkpt>
      <trkpt lat="42.206443999999976" lon="-1.504018">
        <ele>305.878</ele>
        <time>2022-06-17T11:36:31Z</time>
      </trkpt>
      <trkpt lat="42.20635099999998" lon="-1.503811">
        <ele>307.420</ele>
        <time>2022-06-17T11:36:36Z</time>
      </trkpt>
      <trkpt lat="42.206300999999975" lon="-1.50369">
        <ele>307.833</ele>
        <time>2022-06-17T11:36:39Z</time>
      </trkpt>
      <trkpt lat="42.206266999999976" lon="-1.503612">
        <ele>308.456</ele>
        <time>2022-06-17T11:36:41Z</time>
      </trkpt>
      <trkpt lat="42.20615299999997" lon="-1.503402">
        <ele>309.434</ele>
        <time>2022-06-17T11:36:47Z</time>
      </trkpt>
      <trkpt lat="42.20604699999997" lon="-1.503164">
        <ele>310.458</ele>
        <time>2022-06-17T11:36:54Z</time>
      </trkpt>
      <trkpt lat="42.20603299999997" lon="-1.503129">
        <ele>310.636</ele>
        <time>2022-06-17T11:36:55Z</time>
      </trkpt>
      <trkpt lat="42.20596499999997" lon="-1.503005">
        <ele>311.677</ele>
        <time>2022-06-17T11:36:59Z</time>
      </trkpt>
      <trkpt lat="42.20589199999997" lon="-1.502878">
        <ele>312.261</ele>
        <time>2022-06-17T11:37:03Z</time>
      </trkpt>
      <trkpt lat="42.20583299999997" lon="-1.502743">
        <ele>312.627</ele>
        <time>2022-06-17T11:37:07Z</time>
      </trkpt>
      <trkpt lat="42.20573799999997" lon="-1.502522">
        <ele>313.209</ele>
        <time>2022-06-17T11:37:14Z</time>
      </trkpt>
      <trkpt lat="42.20569599999997" lon="-1.5024389999999999">
        <ele>313.838</ele>
        <time>2022-06-17T11:37:17Z</time>
      </trkpt>
      <trkpt lat="42.20562999999997" lon="-1.502292">
        <ele>314.227</ele>
        <time>2022-06-17T11:37:22Z</time>
      </trkpt>
      <trkpt lat="42.205577999999974" lon="-1.5021769999999999">
        <ele>314.842</ele>
        <time>2022-06-17T11:37:26Z</time>
      </trkpt>
      <trkpt lat="42.20553699999997" lon="-1.5020959999999999">
        <ele>315.444</ele>
        <time>2022-06-17T11:37:29Z</time>
      </trkpt>
      <trkpt lat="42.205501999999974" lon="-1.502011">
        <ele>316.227</ele>
        <time>2022-06-17T11:37:32Z</time>
      </trkpt>
      <trkpt lat="42.20544699999997" lon="-1.5019">
        <ele>316.650</ele>
        <time>2022-06-17T11:37:36Z</time>
      </trkpt>
      <trkpt lat="42.20539999999997" lon="-1.501762">
        <ele>317.478</ele>
        <time>2022-06-17T11:37:41Z</time>
      </trkpt>
      <trkpt lat="42.20537699999997" lon="-1.501708">
        <ele>317.662</ele>
        <time>2022-06-17T11:37:43Z</time>
      </trkpt>
      <trkpt lat="42.20529199999997" lon="-1.501589">
        <ele>318.430</ele>
        <time>2022-06-17T11:37:48Z</time>
      </trkpt>
      <trkpt lat="42.20525199999997" lon="-1.501512">
        <ele>319.224</ele>
        <time>2022-06-17T11:37:51Z</time>
      </trkpt>
      <trkpt lat="42.20523599999997" lon="-1.50149">
        <ele>319.604</ele>
        <time>2022-06-17T11:37:52Z</time>
      </trkpt>
      <trkpt lat="42.20515899999997" lon="-1.501372">
        <ele>320.614</ele>
        <time>2022-06-17T11:37:57Z</time>
      </trkpt>
      <trkpt lat="42.205140999999976" lon="-1.5013509999999999">
        <ele>321.009</ele>
        <time>2022-06-17T11:37:58Z</time>
      </trkpt>
      <trkpt lat="42.20501299999998" lon="-1.5012009999999998">
        <ele>321.843</ele>
        <time>2022-06-17T11:38:05Z</time>
      </trkpt>
      <trkpt lat="42.20499799999998" lon="-1.5011779999999997">
        <ele>321.852</ele>
        <time>2022-06-17T11:38:06Z</time>
      </trkpt>
      <trkpt lat="42.20496799999998" lon="-1.5011259999999997">
        <ele>322.087</ele>
        <time>2022-06-17T11:38:08Z</time>
      </trkpt>
      <trkpt lat="42.20486499999998" lon="-1.5010269999999997">
        <ele>322.279</ele>
        <time>2022-06-17T11:38:13Z</time>
      </trkpt>
      <trkpt lat="42.20476299999998" lon="-1.5009449999999998">
        <ele>322.862</ele>
        <time>2022-06-17T11:38:18Z</time>
      </trkpt>
      <trkpt lat="42.20472999999998" lon="-1.5008949999999996">
        <ele>323.245</ele>
        <time>2022-06-17T11:38:20Z</time>
      </trkpt>
      <trkpt lat="42.204704999999976" lon="-1.5008719999999995">
        <ele>323.653</ele>
        <time>2022-06-17T11:38:22Z</time>
      </trkpt>
      <trkpt lat="42.20469599999998" lon="-1.5008699999999995">
        <ele>323.857</ele>
        <time>2022-06-17T11:38:24Z</time>
      </trkpt>
      <trkpt lat="42.20469599999998" lon="-1.5008699999999995">
        <ele>323.865</ele>
        <time>2022-06-17T11:38:25Z</time>
      </trkpt>
      <trkpt lat="42.204631999999975" lon="-1.5008129999999995">
        <ele>324.497</ele>
        <time>2022-06-17T11:38:34Z</time>
      </trkpt>
      <trkpt lat="42.20458599999998" lon="-1.5007609999999996">
        <ele>324.423</ele>
        <time>2022-06-17T11:38:36Z</time>
      </trkpt>
      <trkpt lat="42.20443999999998" lon="-1.5005969999999995">
        <ele>324.225</ele>
        <time>2022-06-17T11:38:42Z</time>
      </trkpt>
      <trkpt lat="42.204245999999976" lon="-1.5004199999999994">
        <ele>323.609</ele>
        <time>2022-06-17T11:38:48Z</time>
      </trkpt>
      <trkpt lat="42.204071999999975" lon="-1.5002669999999994">
        <ele>323.080</ele>
        <time>2022-06-17T11:38:53Z</time>
      </trkpt>
      <trkpt lat="42.20404199999997" lon="-1.5002409999999993">
        <ele>322.829</ele>
        <time>2022-06-17T11:38:54Z</time>
      </trkpt>
      <trkpt lat="42.203981999999975" lon="-1.5001769999999992">
        <ele>322.684</ele>
        <time>2022-06-17T11:38:58Z</time>
      </trkpt>
      <trkpt lat="42.20397999999997" lon="-1.5001729999999993">
        <ele>322.686</ele>
        <time>2022-06-17T11:39:00Z</time>
      </trkpt>
      <trkpt lat="42.20396899999997" lon="-1.5001539999999993">
        <ele>322.299</ele>
        <time>2022-06-17T11:39:52Z</time>
      </trkpt>
      <trkpt lat="42.20395199999997" lon="-1.5001389999999992">
        <ele>322.082</ele>
        <time>2022-06-17T11:39:53Z</time>
      </trkpt>
      <trkpt lat="42.203815999999975" lon="-1.5000319999999991">
        <ele>321.850</ele>
        <time>2022-06-17T11:39:58Z</time>
      </trkpt>
      <trkpt lat="42.20360699999998" lon="-1.499819999999999">
        <ele>321.624</ele>
        <time>2022-06-17T11:40:04Z</time>
      </trkpt>
      <trkpt lat="42.20356999999998" lon="-1.499781999999999">
        <ele>321.422</ele>
        <time>2022-06-17T11:40:05Z</time>
      </trkpt>
      <trkpt lat="42.20340899999998" lon="-1.499620999999999">
        <ele>320.243</ele>
        <time>2022-06-17T11:40:09Z</time>
      </trkpt>
      <trkpt lat="42.20328399999998" lon="-1.499494999999999">
        <ele>319.864</ele>
        <time>2022-06-17T11:40:12Z</time>
      </trkpt>
      <trkpt lat="42.20293599999998" lon="-1.499135999999999">
        <ele>319.210</ele>
        <time>2022-06-17T11:40:20Z</time>
      </trkpt>
      <trkpt lat="42.20267199999998" lon="-1.4988829999999989">
        <ele>318.009</ele>
        <time>2022-06-17T11:40:26Z</time>
      </trkpt>
      <trkpt lat="42.202624999999976" lon="-1.498838999999999">
        <ele>317.895</ele>
        <time>2022-06-17T11:40:27Z</time>
      </trkpt>
      <trkpt lat="42.202281999999975" lon="-1.498498999999999">
        <ele>317.074</ele>
        <time>2022-06-17T11:40:34Z</time>
      </trkpt>
      <trkpt lat="42.20218199999997" lon="-1.4984079999999989">
        <ele>316.669</ele>
        <time>2022-06-17T11:40:36Z</time>
      </trkpt>
      <trkpt lat="42.20198899999997" lon="-1.4982029999999988">
        <ele>315.841</ele>
        <time>2022-06-17T11:40:40Z</time>
      </trkpt>
      <trkpt lat="42.20183599999997" lon="-1.4980539999999989">
        <ele>314.634</ele>
        <time>2022-06-17T11:40:43Z</time>
      </trkpt>
      <trkpt lat="42.20178799999997" lon="-1.4980029999999989">
        <ele>314.477</ele>
        <time>2022-06-17T11:40:44Z</time>
      </trkpt>
      <trkpt lat="42.20159099999997" lon="-1.4977949999999989">
        <ele>313.655</ele>
        <time>2022-06-17T11:40:48Z</time>
      </trkpt>
      <trkpt lat="42.201431999999976" lon="-1.4976389999999988">
        <ele>312.459</ele>
        <time>2022-06-17T11:40:51Z</time>
      </trkpt>
      <trkpt lat="42.201378999999974" lon="-1.497586999999999">
        <ele>312.047</ele>
        <time>2022-06-17T11:40:52Z</time>
      </trkpt>
      <trkpt lat="42.20118099999998" lon="-1.4973899999999989">
        <ele>311.246</ele>
        <time>2022-06-17T11:40:56Z</time>
      </trkpt>
      <trkpt lat="42.20094099999998" lon="-1.497143999999999">
        <ele>310.288</ele>
        <time>2022-06-17T11:41:01Z</time>
      </trkpt>
      <trkpt lat="42.20061699999998" lon="-1.4968069999999989">
        <ele>309.216</ele>
        <time>2022-06-17T11:41:08Z</time>
      </trkpt>
      <trkpt lat="42.20057299999998" lon="-1.496762999999999">
        <ele>309.009</ele>
        <time>2022-06-17T11:41:09Z</time>
      </trkpt>
      <trkpt lat="42.20023699999998" lon="-1.496414999999999">
        <ele>308.885</ele>
        <time>2022-06-17T11:41:17Z</time>
      </trkpt>
      <trkpt lat="42.19983099999998" lon="-1.496004999999999">
        <ele>308.864</ele>
        <time>2022-06-17T11:41:27Z</time>
      </trkpt>
      <trkpt lat="42.19954799999998" lon="-1.495712999999999">
        <ele>308.829</ele>
        <time>2022-06-17T11:41:34Z</time>
      </trkpt>
      <trkpt lat="42.19912799999998" lon="-1.495301999999999">
        <ele>308.461</ele>
        <time>2022-06-17T11:41:44Z</time>
      </trkpt>
      <trkpt lat="42.19900599999998" lon="-1.4951819999999991">
        <ele>308.024</ele>
        <time>2022-06-17T11:41:47Z</time>
      </trkpt>
      <trkpt lat="42.19884699999999" lon="-1.4950219999999992">
        <ele>307.667</ele>
        <time>2022-06-17T11:41:51Z</time>
      </trkpt>
      <trkpt lat="42.19868799999999" lon="-1.4948629999999992">
        <ele>307.255</ele>
        <time>2022-06-17T11:41:55Z</time>
      </trkpt>
      <trkpt lat="42.19827799999999" lon="-1.4944549999999992">
        <ele>307.079</ele>
        <time>2022-06-17T11:42:05Z</time>
      </trkpt>
      <trkpt lat="42.19794799999999" lon="-1.4941279999999992">
        <ele>307.077</ele>
        <time>2022-06-17T11:42:13Z</time>
      </trkpt>
      <trkpt lat="42.19786899999999" lon="-1.4940489999999993">
        <ele>307.025</ele>
        <time>2022-06-17T11:42:15Z</time>
      </trkpt>
      <trkpt lat="42.19740499999999" lon="-1.4935759999999993">
        <ele>306.426</ele>
        <time>2022-06-17T11:42:27Z</time>
      </trkpt>
      <trkpt lat="42.19707899999999" lon="-1.4932349999999994">
        <ele>306.608</ele>
        <time>2022-06-17T11:42:36Z</time>
      </trkpt>
      <trkpt lat="42.196651999999986" lon="-1.4927889999999995">
        <ele>306.809</ele>
        <time>2022-06-17T11:42:48Z</time>
      </trkpt>
      <trkpt lat="42.196615999999985" lon="-1.4927529999999996">
        <ele>306.893</ele>
        <time>2022-06-17T11:42:49Z</time>
      </trkpt>
      <trkpt lat="42.19638399999999" lon="-1.4925099999999996">
        <ele>307.022</ele>
        <time>2022-06-17T11:42:56Z</time>
      </trkpt>
      <trkpt lat="42.196122999999986" lon="-1.4922589999999996">
        <ele>307.427</ele>
        <time>2022-06-17T11:43:04Z</time>
      </trkpt>
      <trkpt lat="42.19583799999999" lon="-1.4919729999999995">
        <ele>307.869</ele>
        <time>2022-06-17T11:43:13Z</time>
      </trkpt>
      <trkpt lat="42.195776999999985" lon="-1.4919079999999996">
        <ele>308.022</ele>
        <time>2022-06-17T11:43:15Z</time>
      </trkpt>
      <trkpt lat="42.195596999999985" lon="-1.4917249999999995">
        <ele>309.085</ele>
        <time>2022-06-17T11:43:21Z</time>
      </trkpt>
      <trkpt lat="42.19556399999998" lon="-1.4916949999999995">
        <ele>309.233</ele>
        <time>2022-06-17T11:43:22Z</time>
      </trkpt>
      <trkpt lat="42.19537299999998" lon="-1.4915119999999995">
        <ele>309.857</ele>
        <time>2022-06-17T11:43:28Z</time>
      </trkpt>
      <trkpt lat="42.19518699999998" lon="-1.4913079999999994">
        <ele>310.235</ele>
        <time>2022-06-17T11:43:34Z</time>
      </trkpt>
      <trkpt lat="42.195154999999986" lon="-1.4912749999999995">
        <ele>310.458</ele>
        <time>2022-06-17T11:43:35Z</time>
      </trkpt>
      <trkpt lat="42.19502399999998" lon="-1.4911419999999995">
        <ele>310.452</ele>
        <time>2022-06-17T11:43:39Z</time>
      </trkpt>
      <trkpt lat="42.194752999999984" lon="-1.4908789999999996">
        <ele>310.017</ele>
        <time>2022-06-17T11:43:47Z</time>
      </trkpt>
      <trkpt lat="42.19442999999998" lon="-1.4905459999999997">
        <ele>310.609</ele>
        <time>2022-06-17T11:43:57Z</time>
      </trkpt>
      <trkpt lat="42.19439599999998" lon="-1.4905199999999996">
        <ele>310.656</ele>
        <time>2022-06-17T11:43:58Z</time>
      </trkpt>
      <trkpt lat="42.19411299999998" lon="-1.4902579999999996">
        <ele>310.835</ele>
        <time>2022-06-17T11:44:06Z</time>
      </trkpt>
      <trkpt lat="42.19375899999998" lon="-1.4899219999999997">
        <ele>310.470</ele>
        <time>2022-06-17T11:44:16Z</time>
      </trkpt>
      <trkpt lat="42.19362599999998" lon="-1.4897959999999997">
        <ele>310.282</ele>
        <time>2022-06-17T11:44:20Z</time>
      </trkpt>
      <trkpt lat="42.19353199999998" lon="-1.4896959999999997">
        <ele>310.275</ele>
        <time>2022-06-17T11:44:23Z</time>
      </trkpt>
      <trkpt lat="42.19335599999998" lon="-1.4895069999999997">
        <ele>311.038</ele>
        <time>2022-06-17T11:44:29Z</time>
      </trkpt>
      <trkpt lat="42.19320999999998" lon="-1.4893549999999998">
        <ele>311.676</ele>
        <time>2022-06-17T11:44:34Z</time>
      </trkpt>
      <trkpt lat="42.19310199999998" lon="-1.4892389999999998">
        <ele>312.240</ele>
        <time>2022-06-17T11:44:38Z</time>
      </trkpt>
      <trkpt lat="42.193049999999985" lon="-1.4891839999999998">
        <ele>312.668</ele>
        <time>2022-06-17T11:44:40Z</time>
      </trkpt>
      <trkpt lat="42.19294399999998" lon="-1.4890819999999998">
        <ele>313.645</ele>
        <time>2022-06-17T11:44:44Z</time>
      </trkpt>
      <trkpt lat="42.19284099999998" lon="-1.4889819999999998">
        <ele>314.047</ele>
        <time>2022-06-17T11:44:48Z</time>
      </trkpt>
      <trkpt lat="42.19276599999998" lon="-1.4889039999999998">
        <ele>314.811</ele>
        <time>2022-06-17T11:44:51Z</time>
      </trkpt>
      <trkpt lat="42.192634999999974" lon="-1.4887899999999998">
        <ele>316.009</ele>
        <time>2022-06-17T11:44:56Z</time>
      </trkpt>
      <trkpt lat="42.192406999999974" lon="-1.4885819999999998">
        <ele>316.895</ele>
        <time>2022-06-17T11:45:03Z</time>
      </trkpt>
      <trkpt lat="42.192113999999975" lon="-1.4883389999999999">
        <ele>316.824</ele>
        <time>2022-06-17T11:45:10Z</time>
      </trkpt>
      <trkpt lat="42.191742999999974" lon="-1.4880349999999998">
        <ele>316.079</ele>
        <time>2022-06-17T11:45:18Z</time>
      </trkpt>
      <trkpt lat="42.19156599999997" lon="-1.4878929999999997">
        <ele>315.831</ele>
        <time>2022-06-17T11:45:22Z</time>
      </trkpt>
      <trkpt lat="42.19145099999997" lon="-1.4877869999999997">
        <ele>315.444</ele>
        <time>2022-06-17T11:45:25Z</time>
      </trkpt>
      <trkpt lat="42.191325999999975" lon="-1.4876739999999997">
        <ele>314.887</ele>
        <time>2022-06-17T11:45:28Z</time>
      </trkpt>
      <trkpt lat="42.191137999999974" lon="-1.4875219999999998">
        <ele>314.455</ele>
        <time>2022-06-17T11:45:32Z</time>
      </trkpt>
      <trkpt lat="42.19089399999997" lon="-1.4873169999999998">
        <ele>313.899</ele>
        <time>2022-06-17T11:45:37Z</time>
      </trkpt>
      <trkpt lat="42.19074999999997" lon="-1.4871909999999997">
        <ele>313.267</ele>
        <time>2022-06-17T11:45:40Z</time>
      </trkpt>
      <trkpt lat="42.190599999999975" lon="-1.4870599999999996">
        <ele>312.684</ele>
        <time>2022-06-17T11:45:43Z</time>
      </trkpt>
      <trkpt lat="42.19026099999998" lon="-1.4867699999999997">
        <ele>311.607</ele>
        <time>2022-06-17T11:45:50Z</time>
      </trkpt>
      <trkpt lat="42.18998999999998" lon="-1.4865319999999997">
        <ele>310.417</ele>
        <time>2022-06-17T11:45:56Z</time>
      </trkpt>
      <trkpt lat="42.18986099999998" lon="-1.4864259999999998">
        <ele>310.409</ele>
        <time>2022-06-17T11:45:59Z</time>
      </trkpt>
      <trkpt lat="42.189484999999976" lon="-1.4861099999999998">
        <ele>310.489</ele>
        <time>2022-06-17T11:46:09Z</time>
      </trkpt>
      <trkpt lat="42.18918799999997" lon="-1.4858599999999997">
        <ele>311.038</ele>
        <time>2022-06-17T11:46:17Z</time>
      </trkpt>
      <trkpt lat="42.18879799999997" lon="-1.4855409999999998">
        <ele>311.243</ele>
        <time>2022-06-17T11:46:27Z</time>
      </trkpt>
      <trkpt lat="42.18874999999997" lon="-1.4854979999999998">
        <ele>311.285</ele>
        <time>2022-06-17T11:46:28Z</time>
      </trkpt>
      <trkpt lat="42.18850199999997" lon="-1.4852929999999998">
        <ele>310.818</ele>
        <time>2022-06-17T11:46:34Z</time>
      </trkpt>
      <trkpt lat="42.18801299999997" lon="-1.4848829999999997">
        <ele>310.051</ele>
        <time>2022-06-17T11:46:46Z</time>
      </trkpt>
      <trkpt lat="42.18758199999997" lon="-1.4845189999999997">
        <ele>310.039</ele>
        <time>2022-06-17T11:46:57Z</time>
      </trkpt>
      <trkpt lat="42.18725599999997" lon="-1.4842699999999998">
        <ele>309.893</ele>
        <time>2022-06-17T11:47:05Z</time>
      </trkpt>
      <trkpt lat="42.18712199999997" lon="-1.4842489999999997">
        <ele>309.871</ele>
        <time>2022-06-17T11:47:08Z</time>
      </trkpt>
      <trkpt lat="42.18703699999997" lon="-1.4842539999999997">
        <ele>309.873</ele>
        <time>2022-06-17T11:47:10Z</time>
      </trkpt>
      <trkpt lat="42.18695499999997" lon="-1.4842709999999997">
        <ele>309.485</ele>
        <time>2022-06-17T11:47:12Z</time>
      </trkpt>
      <trkpt lat="42.186792999999966" lon="-1.4843369999999996">
        <ele>309.213</ele>
        <time>2022-06-17T11:47:16Z</time>
      </trkpt>
      <trkpt lat="42.186747999999966" lon="-1.4843489999999995">
        <ele>309.209</ele>
        <time>2022-06-17T11:47:17Z</time>
      </trkpt>
      <trkpt lat="42.18670499999997" lon="-1.4843579999999994">
        <ele>309.248</ele>
        <time>2022-06-17T11:47:18Z</time>
      </trkpt>
      <trkpt lat="42.18650199999997" lon="-1.4843779999999993">
        <ele>309.047</ele>
        <time>2022-06-17T11:47:23Z</time>
      </trkpt>
      <trkpt lat="42.18645699999997" lon="-1.4843789999999992">
        <ele>309.022</ele>
        <time>2022-06-17T11:47:24Z</time>
      </trkpt>
      <trkpt lat="42.18613099999997" lon="-1.4843599999999992">
        <ele>308.424</ele>
        <time>2022-06-17T11:47:31Z</time>
      </trkpt>
      <trkpt lat="42.186086999999965" lon="-1.4843479999999993">
        <ele>308.437</ele>
        <time>2022-06-17T11:47:32Z</time>
      </trkpt>
      <trkpt lat="42.185847999999964" lon="-1.4842259999999994">
        <ele>308.060</ele>
        <time>2022-06-17T11:47:38Z</time>
      </trkpt>
      <trkpt lat="42.18580899999996" lon="-1.4841929999999994">
        <ele>308.078</ele>
        <time>2022-06-17T11:47:39Z</time>
      </trkpt>
      <trkpt lat="42.18568599999996" lon="-1.4840139999999995">
        <ele>308.072</ele>
        <time>2022-06-17T11:47:43Z</time>
      </trkpt>
      <trkpt lat="42.18551999999996" lon="-1.4836179999999994">
        <ele>308.460</ele>
        <time>2022-06-17T11:47:51Z</time>
      </trkpt>
      <trkpt lat="42.18534499999996" lon="-1.4832409999999994">
        <ele>309.455</ele>
        <time>2022-06-17T11:48:00Z</time>
      </trkpt>
      <trkpt lat="42.185166999999964" lon="-1.4829469999999993">
        <ele>310.007</ele>
        <time>2022-06-17T11:48:08Z</time>
      </trkpt>
      <trkpt lat="42.18499999999997" lon="-1.4826969999999993">
        <ele>311.017</ele>
        <time>2022-06-17T11:48:15Z</time>
      </trkpt>
      <trkpt lat="42.184800999999965" lon="-1.4824429999999993">
        <ele>311.809</ele>
        <time>2022-06-17T11:48:22Z</time>
      </trkpt>
      <trkpt lat="42.184741999999964" lon="-1.4823689999999994">
        <ele>311.866</ele>
        <time>2022-06-17T11:48:24Z</time>
      </trkpt>
      <trkpt lat="42.18446399999996" lon="-1.4819149999999994">
        <ele>311.465</ele>
        <time>2022-06-17T11:48:35Z</time>
      </trkpt>
      <trkpt lat="42.18422899999996" lon="-1.4815669999999994">
        <ele>311.230</ele>
        <time>2022-06-17T11:48:43Z</time>
      </trkpt>
      <trkpt lat="42.18404799999996" lon="-1.4811949999999994">
        <ele>310.072</ele>
        <time>2022-06-17T11:48:50Z</time>
      </trkpt>
      <trkpt lat="42.184026999999965" lon="-1.4811299999999994">
        <ele>310.065</ele>
        <time>2022-06-17T11:48:51Z</time>
      </trkpt>
      <trkpt lat="42.183961999999966" lon="-1.4808489999999994">
        <ele>309.238</ele>
        <time>2022-06-17T11:48:55Z</time>
      </trkpt>
      <trkpt lat="42.183913999999966" lon="-1.4805999999999995">
        <ele>308.866</ele>
        <time>2022-06-17T11:48:58Z</time>
      </trkpt>
      <trkpt lat="42.18387099999997" lon="-1.4803549999999994">
        <ele>307.240</ele>
        <time>2022-06-17T11:49:01Z</time>
      </trkpt>
      <trkpt lat="42.18385699999997" lon="-1.4802759999999995">
        <ele>306.888</ele>
        <time>2022-06-17T11:49:02Z</time>
      </trkpt>
      <trkpt lat="42.183823999999966" lon="-1.4801289999999996">
        <ele>305.859</ele>
        <time>2022-06-17T11:49:04Z</time>
      </trkpt>
      <trkpt lat="42.18372699999997" lon="-1.4798589999999996">
        <ele>305.003</ele>
        <time>2022-06-17T11:49:08Z</time>
      </trkpt>
      <trkpt lat="42.18352399999997" lon="-1.4795439999999995">
        <ele>305.023</ele>
        <time>2022-06-17T11:49:14Z</time>
      </trkpt>
      <trkpt lat="42.18323299999997" lon="-1.4791409999999996">
        <ele>305.609</ele>
        <time>2022-06-17T11:49:23Z</time>
      </trkpt>
      <trkpt lat="42.18307299999997" lon="-1.4788699999999997">
        <ele>305.486</ele>
        <time>2022-06-17T11:49:29Z</time>
      </trkpt>
      <trkpt lat="42.18305099999997" lon="-1.4788169999999996">
        <ele>305.465</ele>
        <time>2022-06-17T11:49:30Z</time>
      </trkpt>
      <trkpt lat="42.18290799999997" lon="-1.4784369999999996">
        <ele>304.830</ele>
        <time>2022-06-17T11:49:36Z</time>
      </trkpt>
      <trkpt lat="42.18286099999997" lon="-1.4781989999999996">
        <ele>304.632</ele>
        <time>2022-06-17T11:49:39Z</time>
      </trkpt>
      <trkpt lat="42.18285199999997" lon="-1.4780319999999996">
        <ele>304.075</ele>
        <time>2022-06-17T11:49:41Z</time>
      </trkpt>
      <trkpt lat="42.18285399999997" lon="-1.4779459999999995">
        <ele>303.488</ele>
        <time>2022-06-17T11:49:42Z</time>
      </trkpt>
      <trkpt lat="42.182891999999974" lon="-1.4776159999999996">
        <ele>301.856</ele>
        <time>2022-06-17T11:49:46Z</time>
      </trkpt>
      <trkpt lat="42.182902999999975" lon="-1.4775369999999997">
        <ele>301.440</ele>
        <time>2022-06-17T11:49:47Z</time>
      </trkpt>
      <trkpt lat="42.182933999999975" lon="-1.4772879999999997">
        <ele>300.678</ele>
        <time>2022-06-17T11:49:50Z</time>
      </trkpt>
      <trkpt lat="42.182958999999975" lon="-1.4769379999999996">
        <ele>299.626</ele>
        <time>2022-06-17T11:49:54Z</time>
      </trkpt>
      <trkpt lat="42.18296599999997" lon="-1.4768479999999997">
        <ele>299.447</ele>
        <time>2022-06-17T11:49:55Z</time>
      </trkpt>
      <trkpt lat="42.18300099999997" lon="-1.4764989999999998">
        <ele>297.611</ele>
        <time>2022-06-17T11:49:59Z</time>
      </trkpt>
      <trkpt lat="42.183035999999966" lon="-1.4762569999999997">
        <ele>296.609</ele>
        <time>2022-06-17T11:50:02Z</time>
      </trkpt>
      <trkpt lat="42.18304899999997" lon="-1.4761779999999998">
        <ele>296.433</ele>
        <time>2022-06-17T11:50:03Z</time>
      </trkpt>
      <trkpt lat="42.183052999999965" lon="-1.4756849999999997">
        <ele>296.032</ele>
        <time>2022-06-17T11:50:09Z</time>
      </trkpt>
      <trkpt lat="42.183002999999964" lon="-1.4753049999999996">
        <ele>295.477</ele>
        <time>2022-06-17T11:50:13Z</time>
      </trkpt>
      <trkpt lat="42.182985999999964" lon="-1.4752119999999997">
        <ele>294.869</ele>
        <time>2022-06-17T11:50:14Z</time>
      </trkpt>
      <trkpt lat="42.182962999999965" lon="-1.4751219999999998">
        <ele>294.422</ele>
        <time>2022-06-17T11:50:15Z</time>
      </trkpt>
      <trkpt lat="42.18286599999997" lon="-1.4748549999999998">
        <ele>293.225</ele>
        <time>2022-06-17T11:50:18Z</time>
      </trkpt>
      <trkpt lat="42.182841999999965" lon="-1.4747939999999997">
        <ele>292.883</ele>
        <time>2022-06-17T11:50:19Z</time>
      </trkpt>
      <trkpt lat="42.182712999999964" lon="-1.4743649999999997">
        <ele>292.227</ele>
        <time>2022-06-17T11:50:25Z</time>
      </trkpt>
      <trkpt lat="42.18269699999996" lon="-1.4742899999999997">
        <ele>292.235</ele>
        <time>2022-06-17T11:50:26Z</time>
      </trkpt>
      <trkpt lat="42.18267199999996" lon="-1.4740819999999997">
        <ele>292.258</ele>
        <time>2022-06-17T11:50:30Z</time>
      </trkpt>
      <trkpt lat="42.18264299999996" lon="-1.4738119999999997">
        <ele>293.852</ele>
        <time>2022-06-17T11:50:36Z</time>
      </trkpt>
      <trkpt lat="42.182641999999966" lon="-1.4737629999999997">
        <ele>294.417</ele>
        <time>2022-06-17T11:50:37Z</time>
      </trkpt>
      <trkpt lat="42.18261899999997" lon="-1.4734889999999996">
        <ele>295.609</ele>
        <time>2022-06-17T11:50:43Z</time>
      </trkpt>
      <trkpt lat="42.18260999999997" lon="-1.4733319999999996">
        <ele>295.616</ele>
        <time>2022-06-17T11:50:46Z</time>
      </trkpt>
      <trkpt lat="42.182565999999966" lon="-1.4730289999999997">
        <ele>295.635</ele>
        <time>2022-06-17T11:50:51Z</time>
      </trkpt>
      <trkpt lat="42.18249199999997" lon="-1.4725569999999997">
        <ele>295.240</ele>
        <time>2022-06-17T11:50:58Z</time>
      </trkpt>
      <trkpt lat="42.18244699999997" lon="-1.4721409999999997">
        <ele>294.482</ele>
        <time>2022-06-17T11:51:05Z</time>
      </trkpt>
      <trkpt lat="42.18243999999997" lon="-1.4720899999999997">
        <ele>294.465</ele>
        <time>2022-06-17T11:51:06Z</time>
      </trkpt>
      <trkpt lat="42.18239599999997" lon="-1.4716239999999996">
        <ele>294.458</ele>
        <time>2022-06-17T11:51:15Z</time>
      </trkpt>
      <trkpt lat="42.18236099999997" lon="-1.4712339999999997">
        <ele>295.436</ele>
        <time>2022-06-17T11:51:23Z</time>
      </trkpt>
      <trkpt lat="42.18232199999997" lon="-1.4707449999999997">
        <ele>296.020</ele>
        <time>2022-06-17T11:51:33Z</time>
      </trkpt>
      <trkpt lat="42.18228999999997" lon="-1.4703969999999997">
        <ele>296.468</ele>
        <time>2022-06-17T11:51:40Z</time>
      </trkpt>
      <trkpt lat="42.18228299999998" lon="-1.4703149999999998">
        <ele>296.662</ele>
        <time>2022-06-17T11:51:42Z</time>
      </trkpt>
      <trkpt lat="42.18225099999998" lon="-1.469893">
        <ele>297.683</ele>
        <time>2022-06-17T11:51:50Z</time>
      </trkpt>
      <trkpt lat="42.18224199999998" lon="-1.4697829999999998">
        <ele>297.611</ele>
        <time>2022-06-17T11:51:52Z</time>
      </trkpt>
      <trkpt lat="42.18218199999998" lon="-1.4694379999999998">
        <ele>297.809</ele>
        <time>2022-06-17T11:51:59Z</time>
      </trkpt>
      <trkpt lat="42.182116999999984" lon="-1.4689839999999998">
        <ele>298.267</ele>
        <time>2022-06-17T11:52:08Z</time>
      </trkpt>
      <trkpt lat="42.18208499999999" lon="-1.46874">
        <ele>298.686</ele>
        <time>2022-06-17T11:52:13Z</time>
      </trkpt>
      <trkpt lat="42.18205599999999" lon="-1.4684899999999999">
        <ele>299.251</ele>
        <time>2022-06-17T11:52:18Z</time>
      </trkpt>
      <trkpt lat="42.18201399999999" lon="-1.4680229999999999">
        <ele>299.893</ele>
        <time>2022-06-17T11:52:27Z</time>
      </trkpt>
      <trkpt lat="42.18197799999999" lon="-1.467542">
        <ele>300.656</ele>
        <time>2022-06-17T11:52:37Z</time>
      </trkpt>
      <trkpt lat="42.181944999999985" lon="-1.467242">
        <ele>300.879</ele>
        <time>2022-06-17T11:52:43Z</time>
      </trkpt>
      <trkpt lat="42.18192599999998" lon="-1.467037">
        <ele>300.877</ele>
        <time>2022-06-17T11:52:47Z</time>
      </trkpt>
      <trkpt lat="42.181865999999985" lon="-1.466589">
        <ele>301.081</ele>
        <time>2022-06-17T11:52:56Z</time>
      </trkpt>
      <trkpt lat="42.181798999999984" lon="-1.4661549999999999">
        <ele>301.059</ele>
        <time>2022-06-17T11:53:05Z</time>
      </trkpt>
      <trkpt lat="42.18173199999998" lon="-1.4657889999999998">
        <ele>301.262</ele>
        <time>2022-06-17T11:53:13Z</time>
      </trkpt>
      <trkpt lat="42.18168199999998" lon="-1.4654619999999998">
        <ele>301.483</ele>
        <time>2022-06-17T11:53:20Z</time>
      </trkpt>
      <trkpt lat="42.181584999999984" lon="-1.4650059999999998">
        <ele>301.411</ele>
        <time>2022-06-17T11:53:30Z</time>
      </trkpt>
      <trkpt lat="42.18151599999998" lon="-1.4646819999999998">
        <ele>301.609</ele>
        <time>2022-06-17T11:53:37Z</time>
      </trkpt>
      <trkpt lat="42.18145699999998" lon="-1.4643909999999998">
        <ele>302.067</ele>
        <time>2022-06-17T11:53:43Z</time>
      </trkpt>
      <trkpt lat="42.18142299999998" lon="-1.4642319999999998">
        <ele>302.216</ele>
        <time>2022-06-17T11:53:46Z</time>
      </trkpt>
      <trkpt lat="42.18138099999998" lon="-1.4638679999999997">
        <ele>303.041</ele>
        <time>2022-06-17T11:53:54Z</time>
      </trkpt>
      <trkpt lat="42.18139999999998" lon="-1.4635439999999997">
        <ele>303.663</ele>
        <time>2022-06-17T11:54:01Z</time>
      </trkpt>
      <trkpt lat="42.18145399999998" lon="-1.4630989999999997">
        <ele>304.096</ele>
        <time>2022-06-17T11:54:11Z</time>
      </trkpt>
      <trkpt lat="42.18148799999998" lon="-1.4628909999999997">
        <ele>304.479</ele>
        <time>2022-06-17T11:54:16Z</time>
      </trkpt>
      <trkpt lat="42.18149499999998" lon="-1.4628459999999996">
        <ele>304.457</ele>
        <time>2022-06-17T11:54:17Z</time>
      </trkpt>
      <trkpt lat="42.18156799999998" lon="-1.4624479999999997">
        <ele>305.461</ele>
        <time>2022-06-17T11:54:26Z</time>
      </trkpt>
      <trkpt lat="42.181574999999974" lon="-1.4624029999999997">
        <ele>305.669</ele>
        <time>2022-06-17T11:54:27Z</time>
      </trkpt>
      <trkpt lat="42.181644999999975" lon="-1.4620409999999997">
        <ele>306.482</ele>
        <time>2022-06-17T11:54:35Z</time>
      </trkpt>
      <trkpt lat="42.18165499999998" lon="-1.4619929999999997">
        <ele>306.443</ele>
        <time>2022-06-17T11:54:36Z</time>
      </trkpt>
      <trkpt lat="42.18174499999998" lon="-1.4615579999999997">
        <ele>307.017</ele>
        <time>2022-06-17T11:54:45Z</time>
      </trkpt>
      <trkpt lat="42.18180699999998" lon="-1.4611759999999996">
        <ele>307.209</ele>
        <time>2022-06-17T11:54:52Z</time>
      </trkpt>
      <trkpt lat="42.18185699999998" lon="-1.4606889999999997">
        <ele>307.439</ele>
        <time>2022-06-17T11:55:01Z</time>
      </trkpt>
      <trkpt lat="42.18186099999998" lon="-1.4605839999999997">
        <ele>307.468</ele>
        <time>2022-06-17T11:55:03Z</time>
      </trkpt>
      <trkpt lat="42.18186299999998" lon="-1.4601669999999998">
        <ele>307.683</ele>
        <time>2022-06-17T11:55:11Z</time>
      </trkpt>
      <trkpt lat="42.181852999999975" lon="-1.4598329999999997">
        <ele>307.865</ele>
        <time>2022-06-17T11:55:17Z</time>
      </trkpt>
      <trkpt lat="42.18182999999998" lon="-1.4596079999999998">
        <ele>308.058</ele>
        <time>2022-06-17T11:55:21Z</time>
      </trkpt>
      <trkpt lat="42.18179599999998" lon="-1.4593859999999999">
        <ele>308.021</ele>
        <time>2022-06-17T11:55:25Z</time>
      </trkpt>
      <trkpt lat="42.18175299999998" lon="-1.459223">
        <ele>308.019</ele>
        <time>2022-06-17T11:55:28Z</time>
      </trkpt>
      <trkpt lat="42.18170999999998" lon="-1.459066">
        <ele>308.013</ele>
        <time>2022-06-17T11:55:31Z</time>
      </trkpt>
      <trkpt lat="42.18163999999998" lon="-1.45887">
        <ele>308.081</ele>
        <time>2022-06-17T11:55:35Z</time>
      </trkpt>
      <trkpt lat="42.18150899999998" lon="-1.458661">
        <ele>308.296</ele>
        <time>2022-06-17T11:55:40Z</time>
      </trkpt>
      <trkpt lat="42.18129399999998" lon="-1.4583869999999999">
        <ele>308.431</ele>
        <time>2022-06-17T11:55:47Z</time>
      </trkpt>
      <trkpt lat="42.18106199999998" lon="-1.458092">
        <ele>308.424</ele>
        <time>2022-06-17T11:55:55Z</time>
      </trkpt>
      <trkpt lat="42.18094199999998" lon="-1.457955">
        <ele>308.409</ele>
        <time>2022-06-17T11:55:59Z</time>
      </trkpt>
      <trkpt lat="42.18077599999998" lon="-1.4577399999999998">
        <ele>308.620</ele>
        <time>2022-06-17T11:56:05Z</time>
      </trkpt>
      <trkpt lat="42.18052799999998" lon="-1.4574389999999997">
        <ele>309.429</ele>
        <time>2022-06-17T11:56:14Z</time>
      </trkpt>
      <trkpt lat="42.180205999999984" lon="-1.4570339999999997">
        <ele>310.234</ele>
        <time>2022-06-17T11:56:26Z</time>
      </trkpt>
      <trkpt lat="42.18006699999999" lon="-1.4568589999999997">
        <ele>310.826</ele>
        <time>2022-06-17T11:56:31Z</time>
      </trkpt>
      <trkpt lat="42.18001299999999" lon="-1.4567849999999998">
        <ele>311.029</ele>
        <time>2022-06-17T11:56:33Z</time>
      </trkpt>
      <trkpt lat="42.17976799999999" lon="-1.4564839999999997">
        <ele>311.682</ele>
        <time>2022-06-17T11:56:42Z</time>
      </trkpt>
      <trkpt lat="42.17968599999999" lon="-1.4563789999999996">
        <ele>311.880</ele>
        <time>2022-06-17T11:56:45Z</time>
      </trkpt>
      <trkpt lat="42.17951899999999" lon="-1.4561709999999997">
        <ele>312.034</ele>
        <time>2022-06-17T11:56:51Z</time>
      </trkpt>
      <trkpt lat="42.179345999999995" lon="-1.4559579999999996">
        <ele>312.092</ele>
        <time>2022-06-17T11:56:56Z</time>
      </trkpt>
      <trkpt lat="42.179297999999996" lon="-1.4559129999999996">
        <ele>312.087</ele>
        <time>2022-06-17T11:56:57Z</time>
      </trkpt>
      <trkpt lat="42.178940999999995" lon="-1.4555529999999997">
        <ele>310.842</ele>
        <time>2022-06-17T11:57:04Z</time>
      </trkpt>
      <trkpt lat="42.178892" lon="-1.4555029999999995">
        <ele>310.426</ele>
        <time>2022-06-17T11:57:05Z</time>
      </trkpt>
      <trkpt lat="42.178748" lon="-1.4553549999999995">
        <ele>309.209</ele>
        <time>2022-06-17T11:57:08Z</time>
      </trkpt>
      <trkpt lat="42.178618" lon="-1.4552109999999996">
        <ele>308.679</ele>
        <time>2022-06-17T11:57:11Z</time>
      </trkpt>
      <trkpt lat="42.17832" lon="-1.4548979999999996">
        <ele>308.238</ele>
        <time>2022-06-17T11:57:18Z</time>
      </trkpt>
      <trkpt lat="42.177904" lon="-1.4544579999999996">
        <ele>307.853</ele>
        <time>2022-06-17T11:57:28Z</time>
      </trkpt>
      <trkpt lat="42.177639" lon="-1.4541729999999995">
        <ele>307.275</ele>
        <time>2022-06-17T11:57:34Z</time>
      </trkpt>
      <trkpt lat="42.177448999999996" lon="-1.4539709999999995">
        <ele>306.828</ele>
        <time>2022-06-17T11:57:38Z</time>
      </trkpt>
      <trkpt lat="42.177302" lon="-1.4538139999999995">
        <ele>306.281</ele>
        <time>2022-06-17T11:57:41Z</time>
      </trkpt>
      <trkpt lat="42.177065" lon="-1.4535759999999995">
        <ele>304.839</ele>
        <time>2022-06-17T11:57:46Z</time>
      </trkpt>
      <trkpt lat="42.177018" lon="-1.4535309999999995">
        <ele>304.673</ele>
        <time>2022-06-17T11:57:47Z</time>
      </trkpt>
      <trkpt lat="42.176781999999996" lon="-1.4532889999999994">
        <ele>304.231</ele>
        <time>2022-06-17T11:57:53Z</time>
      </trkpt>
      <trkpt lat="42.176604999999995" lon="-1.4531209999999994">
        <ele>304.274</ele>
        <time>2022-06-17T11:57:58Z</time>
      </trkpt>
      <trkpt lat="42.17644299999999" lon="-1.4529559999999995">
        <ele>304.256</ele>
        <time>2022-06-17T11:58:03Z</time>
      </trkpt>
      <trkpt lat="42.176337999999994" lon="-1.4528679999999994">
        <ele>304.621</ele>
        <time>2022-06-17T11:58:06Z</time>
      </trkpt>
      <trkpt lat="42.17600899999999" lon="-1.4525879999999993">
        <ele>304.809</ele>
        <time>2022-06-17T11:58:14Z</time>
      </trkpt>
      <trkpt lat="42.175757999999995" lon="-1.4523039999999994">
        <ele>303.888</ele>
        <time>2022-06-17T11:58:19Z</time>
      </trkpt>
      <trkpt lat="42.175625999999994" lon="-1.4521019999999993">
        <ele>302.667</ele>
        <time>2022-06-17T11:58:22Z</time>
      </trkpt>
      <trkpt lat="42.17550899999999" lon="-1.4519159999999993">
        <ele>301.282</ele>
        <time>2022-06-17T11:58:25Z</time>
      </trkpt>
      <trkpt lat="42.17538999999999" lon="-1.4517279999999992">
        <ele>300.654</ele>
        <time>2022-06-17T11:58:29Z</time>
      </trkpt>
      <trkpt lat="42.175363999999995" lon="-1.4516879999999992">
        <ele>300.627</ele>
        <time>2022-06-17T11:58:30Z</time>
      </trkpt>
      <trkpt lat="42.175234999999994" lon="-1.4514739999999993">
        <ele>300.840</ele>
        <time>2022-06-17T11:58:36Z</time>
      </trkpt>
      <trkpt lat="42.175082999999994" lon="-1.4512229999999993">
        <ele>302.428</ele>
        <time>2022-06-17T11:58:43Z</time>
      </trkpt>
      <trkpt lat="42.175062" lon="-1.4511849999999993">
        <ele>302.652</ele>
        <time>2022-06-17T11:58:44Z</time>
      </trkpt>
      <trkpt lat="42.175003" lon="-1.4510809999999992">
        <ele>303.440</ele>
        <time>2022-06-17T11:58:47Z</time>
      </trkpt>
      <trkpt lat="42.174929" lon="-1.4509439999999991">
        <ele>304.626</ele>
        <time>2022-06-17T11:58:51Z</time>
      </trkpt>
      <trkpt lat="42.174911" lon="-1.4509129999999992">
        <ele>304.847</ele>
        <time>2022-06-17T11:58:52Z</time>
      </trkpt>
      <trkpt lat="42.174768" lon="-1.4506609999999993">
        <ele>305.611</ele>
        <time>2022-06-17T11:59:00Z</time>
      </trkpt>
      <trkpt lat="42.174553" lon="-1.4503549999999994">
        <ele>306.409</ele>
        <time>2022-06-17T11:59:09Z</time>
      </trkpt>
      <trkpt lat="42.174475" lon="-1.4502539999999995">
        <ele>306.663</ele>
        <time>2022-06-17T11:59:12Z</time>
      </trkpt>
      <trkpt lat="42.174373" lon="-1.4501269999999995">
        <ele>306.842</ele>
        <time>2022-06-17T11:59:16Z</time>
      </trkpt>
      <trkpt lat="42.174175000000005" lon="-1.4498789999999995">
        <ele>307.237</ele>
        <time>2022-06-17T11:59:24Z</time>
      </trkpt>
      <trkpt lat="42.174024" lon="-1.4496819999999995">
        <ele>307.659</ele>
        <time>2022-06-17T11:59:30Z</time>
      </trkpt>
      <trkpt lat="42.173797" lon="-1.4494169999999995">
        <ele>307.472</ele>
        <time>2022-06-17T11:59:37Z</time>
      </trkpt>
      <trkpt lat="42.173765" lon="-1.4493749999999994">
        <ele>307.475</ele>
        <time>2022-06-17T11:59:38Z</time>
      </trkpt>
      <trkpt lat="42.173502000000006" lon="-1.4490839999999994">
        <ele>305.813</ele>
        <time>2022-06-17T11:59:46Z</time>
      </trkpt>
      <trkpt lat="42.173433" lon="-1.4490209999999994">
        <ele>305.447</ele>
        <time>2022-06-17T11:59:48Z</time>
      </trkpt>
      <trkpt lat="42.173163" lon="-1.4487729999999994">
        <ele>305.425</ele>
        <time>2022-06-17T11:59:56Z</time>
      </trkpt>
      <trkpt lat="42.173037" lon="-1.4486309999999993">
        <ele>305.472</ele>
        <time>2022-06-17T12:00:00Z</time>
      </trkpt>
      <trkpt lat="42.172969" lon="-1.4484879999999993">
        <ele>305.213</ele>
        <time>2022-06-17T12:00:03Z</time>
      </trkpt>
      <trkpt lat="42.172815" lon="-1.4480199999999994">
        <ele>304.814</ele>
        <time>2022-06-17T12:00:12Z</time>
      </trkpt>
      <trkpt lat="42.172666" lon="-1.4476109999999993">
        <ele>305.009</ele>
        <time>2022-06-17T12:00:20Z</time>
      </trkpt>
      <trkpt lat="42.172647" lon="-1.4475659999999992">
        <ele>305.228</ele>
        <time>2022-06-17T12:00:21Z</time>
      </trkpt>
      <trkpt lat="42.172627999999996" lon="-1.4475239999999991">
        <ele>305.467</ele>
        <time>2022-06-17T12:00:22Z</time>
      </trkpt>
      <trkpt lat="42.172523" lon="-1.4473319999999992">
        <ele>306.042</ele>
        <time>2022-06-17T12:00:27Z</time>
      </trkpt>
      <trkpt lat="42.172387" lon="-1.4471419999999993">
        <ele>306.424</ele>
        <time>2022-06-17T12:00:33Z</time>
      </trkpt>
      <trkpt lat="42.172314" lon="-1.4470629999999993">
        <ele>306.897</ele>
        <time>2022-06-17T12:00:36Z</time>
      </trkpt>
      <trkpt lat="42.172184" lon="-1.4469399999999992">
        <ele>307.610</ele>
        <time>2022-06-17T12:00:41Z</time>
      </trkpt>
      <trkpt lat="42.172131" lon="-1.4468919999999992">
        <ele>308.068</ele>
        <time>2022-06-17T12:00:43Z</time>
      </trkpt>
      <trkpt lat="42.171969" lon="-1.4467539999999992">
        <ele>308.662</ele>
        <time>2022-06-17T12:00:49Z</time>
      </trkpt>
      <trkpt lat="42.171859999999995" lon="-1.4466419999999993">
        <ele>309.280</ele>
        <time>2022-06-17T12:00:53Z</time>
      </trkpt>
      <trkpt lat="42.171806999999994" lon="-1.4465909999999993">
        <ele>309.266</ele>
        <time>2022-06-17T12:00:55Z</time>
      </trkpt>
      <trkpt lat="42.17164399999999" lon="-1.4464229999999993">
        <ele>309.629</ele>
        <time>2022-06-17T12:01:01Z</time>
      </trkpt>
      <trkpt lat="42.171415999999994" lon="-1.4462039999999994">
        <ele>310.221</ele>
        <time>2022-06-17T12:01:10Z</time>
      </trkpt>
      <trkpt lat="42.171389999999995" lon="-1.4461799999999994">
        <ele>310.209</ele>
        <time>2022-06-17T12:01:11Z</time>
      </trkpt>
      <trkpt lat="42.17122499999999" lon="-1.4460219999999993">
        <ele>310.897</ele>
        <time>2022-06-17T12:01:18Z</time>
      </trkpt>
      <trkpt lat="42.17115499999999" lon="-1.4459539999999993">
        <ele>311.236</ele>
        <time>2022-06-17T12:01:21Z</time>
      </trkpt>
      <trkpt lat="42.17105299999999" lon="-1.4458439999999992">
        <ele>312.421</ele>
        <time>2022-06-17T12:01:26Z</time>
      </trkpt>
      <trkpt lat="42.17102799999999" lon="-1.4458219999999993">
        <ele>312.673</ele>
        <time>2022-06-17T12:01:27Z</time>
      </trkpt>
      <trkpt lat="42.17088699999999" lon="-1.4456949999999993">
        <ele>313.216</ele>
        <time>2022-06-17T12:01:33Z</time>
      </trkpt>
      <trkpt lat="42.17081099999999" lon="-1.4456219999999993">
        <ele>313.419</ele>
        <time>2022-06-17T12:01:36Z</time>
      </trkpt>
      <trkpt lat="42.170663999999995" lon="-1.4454459999999993">
        <ele>313.847</ele>
        <time>2022-06-17T12:01:42Z</time>
      </trkpt>
      <trkpt lat="42.1705" lon="-1.4451869999999993">
        <ele>314.261</ele>
        <time>2022-06-17T12:01:49Z</time>
      </trkpt>
      <trkpt lat="42.170305" lon="-1.4448659999999993">
        <ele>314.239</ele>
        <time>2022-06-17T12:01:56Z</time>
      </trkpt>
      <trkpt lat="42.170141" lon="-1.4445999999999992">
        <ele>314.038</ele>
        <time>2022-06-17T12:02:02Z</time>
      </trkpt>
      <trkpt lat="42.170119" lon="-1.4445659999999991">
        <ele>313.870</ele>
        <time>2022-06-17T12:02:03Z</time>
      </trkpt>
      <trkpt lat="42.169847" lon="-1.444121999999999">
        <ele>313.617</ele>
        <time>2022-06-17T12:02:13Z</time>
      </trkpt>
      <trkpt lat="42.169580999999994" lon="-1.443662999999999">
        <ele>313.409</ele>
        <time>2022-06-17T12:02:24Z</time>
      </trkpt>
      <trkpt lat="42.16938" lon="-1.443352999999999">
        <ele>313.244</ele>
        <time>2022-06-17T12:02:32Z</time>
      </trkpt>
      <trkpt lat="42.169073" lon="-1.442950999999999">
        <ele>313.823</ele>
        <time>2022-06-17T12:02:43Z</time>
      </trkpt>
      <trkpt lat="42.168834" lon="-1.442708999999999">
        <ele>314.668</ele>
        <time>2022-06-17T12:02:51Z</time>
      </trkpt>
      <trkpt lat="42.168757" lon="-1.442651999999999">
        <ele>314.620</ele>
        <time>2022-06-17T12:02:53Z</time>
      </trkpt>
      <trkpt lat="42.168485" lon="-1.4424049999999988">
        <ele>314.843</ele>
        <time>2022-06-17T12:03:01Z</time>
      </trkpt>
      <trkpt lat="42.168239" lon="-1.4421849999999987">
        <ele>314.826</ele>
        <time>2022-06-17T12:03:09Z</time>
      </trkpt>
      <trkpt lat="42.168012" lon="-1.4418839999999986">
        <ele>314.844</ele>
        <time>2022-06-17T12:03:18Z</time>
      </trkpt>
      <trkpt lat="42.167749" lon="-1.4414869999999986">
        <ele>315.228</ele>
        <time>2022-06-17T12:03:29Z</time>
      </trkpt>
      <trkpt lat="42.167558" lon="-1.4411739999999986">
        <ele>315.656</ele>
        <time>2022-06-17T12:03:37Z</time>
      </trkpt>
      <trkpt lat="42.167379" lon="-1.4408639999999986">
        <ele>316.433</ele>
        <time>2022-06-17T12:03:45Z</time>
      </trkpt>
      <trkpt lat="42.167187" lon="-1.4405459999999985">
        <ele>316.623</ele>
        <time>2022-06-17T12:03:54Z</time>
      </trkpt>
      <trkpt lat="42.16699" lon="-1.4403319999999986">
        <ele>316.815</ele>
        <time>2022-06-17T12:04:01Z</time>
      </trkpt>
      <trkpt lat="42.166754" lon="-1.4400989999999987">
        <ele>317.409</ele>
        <time>2022-06-17T12:04:09Z</time>
      </trkpt>
      <trkpt lat="42.166725" lon="-1.4400689999999987">
        <ele>317.674</ele>
        <time>2022-06-17T12:04:10Z</time>
      </trkpt>
      <trkpt lat="42.166472" lon="-1.4398159999999987">
        <ele>318.423</ele>
        <time>2022-06-17T12:04:19Z</time>
      </trkpt>
      <trkpt lat="42.166389" lon="-1.4397389999999985">
        <ele>318.678</ele>
        <time>2022-06-17T12:04:22Z</time>
      </trkpt>
      <trkpt lat="42.166177000000005" lon="-1.4395149999999985">
        <ele>319.220</ele>
        <time>2022-06-17T12:04:29Z</time>
      </trkpt>
      <trkpt lat="42.16597600000001" lon="-1.4392949999999984">
        <ele>319.813</ele>
        <time>2022-06-17T12:04:36Z</time>
      </trkpt>
      <trkpt lat="42.16586800000001" lon="-1.4391709999999984">
        <ele>320.056</ele>
        <time>2022-06-17T12:04:40Z</time>
      </trkpt>
      <trkpt lat="42.16564100000001" lon="-1.4389369999999984">
        <ele>320.614</ele>
        <time>2022-06-17T12:04:48Z</time>
      </trkpt>
      <trkpt lat="42.16561600000001" lon="-1.4389059999999985">
        <ele>320.838</ele>
        <time>2022-06-17T12:04:49Z</time>
      </trkpt>
      <trkpt lat="42.165473000000006" lon="-1.4386659999999984">
        <ele>321.226</ele>
        <time>2022-06-17T12:04:56Z</time>
      </trkpt>
      <trkpt lat="42.16535700000001" lon="-1.4384389999999985">
        <ele>321.835</ele>
        <time>2022-06-17T12:05:02Z</time>
      </trkpt>
      <trkpt lat="42.16534000000001" lon="-1.4384009999999985">
        <ele>321.886</ele>
        <time>2022-06-17T12:05:03Z</time>
      </trkpt>
      <trkpt lat="42.165220000000005" lon="-1.4381099999999984">
        <ele>322.414</ele>
        <time>2022-06-17T12:05:11Z</time>
      </trkpt>
      <trkpt lat="42.165136000000004" lon="-1.4379029999999984">
        <ele>322.809</ele>
        <time>2022-06-17T12:05:17Z</time>
      </trkpt>
      <trkpt lat="42.165092" lon="-1.4377969999999984">
        <ele>323.474</ele>
        <time>2022-06-17T12:05:20Z</time>
      </trkpt>
      <trkpt lat="42.165064" lon="-1.4377309999999985">
        <ele>324.033</ele>
        <time>2022-06-17T12:05:22Z</time>
      </trkpt>
      <trkpt lat="42.164946" lon="-1.4374169999999986">
        <ele>325.218</ele>
        <time>2022-06-17T12:05:31Z</time>
      </trkpt>
      <trkpt lat="42.164915" lon="-1.4373429999999987">
        <ele>325.470</ele>
        <time>2022-06-17T12:05:33Z</time>
      </trkpt>
      <trkpt lat="42.164768" lon="-1.4370299999999987">
        <ele>325.413</ele>
        <time>2022-06-17T12:05:40Z</time>
      </trkpt>
      <trkpt lat="42.164593" lon="-1.4366899999999987">
        <ele>324.876</ele>
        <time>2022-06-17T12:05:46Z</time>
      </trkpt>
      <trkpt lat="42.164505000000005" lon="-1.4365119999999987">
        <ele>324.074</ele>
        <time>2022-06-17T12:05:49Z</time>
      </trkpt>
      <trkpt lat="42.164382" lon="-1.4362649999999986">
        <ele>323.678</ele>
        <time>2022-06-17T12:05:53Z</time>
      </trkpt>
      <trkpt lat="42.164169" lon="-1.4358419999999985">
        <ele>323.296</ele>
        <time>2022-06-17T12:06:00Z</time>
      </trkpt>
      <trkpt lat="42.163978" lon="-1.4354659999999986">
        <ele>323.217</ele>
        <time>2022-06-17T12:06:07Z</time>
      </trkpt>
      <trkpt lat="42.163927" lon="-1.4353679999999986">
        <ele>323.087</ele>
        <time>2022-06-17T12:06:09Z</time>
      </trkpt>
      <trkpt lat="42.163734" lon="-1.4349859999999985">
        <ele>323.415</ele>
        <time>2022-06-17T12:06:17Z</time>
      </trkpt>
      <trkpt lat="42.163503999999996" lon="-1.4344859999999986">
        <ele>323.209</ele>
        <time>2022-06-17T12:06:28Z</time>
      </trkpt>
      <trkpt lat="42.163301999999995" lon="-1.4340699999999986">
        <ele>323.682</ele>
        <time>2022-06-17T12:06:38Z</time>
      </trkpt>
      <trkpt lat="42.16310299999999" lon="-1.4336579999999985">
        <ele>324.211</ele>
        <time>2022-06-17T12:06:48Z</time>
      </trkpt>
      <trkpt lat="42.162966999999995" lon="-1.4334529999999985">
        <ele>324.686</ele>
        <time>2022-06-17T12:06:54Z</time>
      </trkpt>
      <trkpt lat="42.162738999999995" lon="-1.4332509999999985">
        <ele>325.048</ele>
        <time>2022-06-17T12:07:01Z</time>
      </trkpt>
      <trkpt lat="42.162575" lon="-1.4331099999999986">
        <ele>325.291</ele>
        <time>2022-06-17T12:07:06Z</time>
      </trkpt>
      <trkpt lat="42.162504" lon="-1.4330599999999984">
        <ele>325.274</ele>
        <time>2022-06-17T12:07:08Z</time>
      </trkpt>
      <trkpt lat="42.162206999999995" lon="-1.4328929999999984">
        <ele>325.652</ele>
        <time>2022-06-17T12:07:16Z</time>
      </trkpt>
      <trkpt lat="42.161927" lon="-1.4326899999999985">
        <ele>325.656</ele>
        <time>2022-06-17T12:07:24Z</time>
      </trkpt>
      <trkpt lat="42.161794" lon="-1.4324229999999984">
        <ele>325.874</ele>
        <time>2022-06-17T12:07:30Z</time>
      </trkpt>
      <trkpt lat="42.161656" lon="-1.4320629999999985">
        <ele>325.864</ele>
        <time>2022-06-17T12:07:38Z</time>
      </trkpt>
      <trkpt lat="42.161474" lon="-1.4316029999999986">
        <ele>326.406</ele>
        <time>2022-06-17T12:07:49Z</time>
      </trkpt>
      <trkpt lat="42.16122" lon="-1.4312289999999985">
        <ele>326.616</ele>
        <time>2022-06-17T12:07:59Z</time>
      </trkpt>
      <trkpt lat="42.160963" lon="-1.4309929999999986">
        <ele>326.609</ele>
        <time>2022-06-17T12:08:07Z</time>
      </trkpt>
      <trkpt lat="42.160635" lon="-1.4307679999999987">
        <ele>327.087</ele>
        <time>2022-06-17T12:08:17Z</time>
      </trkpt>
      <trkpt lat="42.160511" lon="-1.4306789999999987">
        <ele>327.446</ele>
        <time>2022-06-17T12:08:21Z</time>
      </trkpt>
      <trkpt lat="42.160422" lon="-1.4306249999999987">
        <ele>327.681</ele>
        <time>2022-06-17T12:08:24Z</time>
      </trkpt>
      <trkpt lat="42.160278" lon="-1.4305279999999987">
        <ele>328.233</ele>
        <time>2022-06-17T12:08:29Z</time>
      </trkpt>
      <trkpt lat="42.160185" lon="-1.4304729999999988">
        <ele>328.666</ele>
        <time>2022-06-17T12:08:32Z</time>
      </trkpt>
      <trkpt lat="42.160002999999996" lon="-1.4303429999999988">
        <ele>329.059</ele>
        <time>2022-06-17T12:08:38Z</time>
      </trkpt>
      <trkpt lat="42.159783" lon="-1.4301629999999987">
        <ele>329.437</ele>
        <time>2022-06-17T12:08:45Z</time>
      </trkpt>
      <trkpt lat="42.159627" lon="-1.4300359999999988">
        <ele>329.631</ele>
        <time>2022-06-17T12:08:50Z</time>
      </trkpt>
      <trkpt lat="42.159512" lon="-1.4299289999999987">
        <ele>329.629</ele>
        <time>2022-06-17T12:08:54Z</time>
      </trkpt>
      <trkpt lat="42.159485" lon="-1.4299009999999988">
        <ele>329.678</ele>
        <time>2022-06-17T12:08:55Z</time>
      </trkpt>
      <trkpt lat="42.15921899999999" lon="-1.4296479999999987">
        <ele>330.033</ele>
        <time>2022-06-17T12:09:04Z</time>
      </trkpt>
      <trkpt lat="42.158967999999994" lon="-1.4293999999999987">
        <ele>330.626</ele>
        <time>2022-06-17T12:09:13Z</time>
      </trkpt>
      <trkpt lat="42.158913999999996" lon="-1.4293449999999988">
        <ele>330.809</ele>
        <time>2022-06-17T12:09:15Z</time>
      </trkpt>
      <trkpt lat="42.15873499999999" lon="-1.4291569999999987">
        <ele>331.498</ele>
        <time>2022-06-17T12:09:22Z</time>
      </trkpt>
      <trkpt lat="42.158624999999994" lon="-1.4290499999999986">
        <ele>331.617</ele>
        <time>2022-06-17T12:09:26Z</time>
      </trkpt>
      <trkpt lat="42.15854699999999" lon="-1.4289769999999986">
        <ele>331.872</ele>
        <time>2022-06-17T12:09:29Z</time>
      </trkpt>
      <trkpt lat="42.15824999999999" lon="-1.4287199999999987">
        <ele>332.464</ele>
        <time>2022-06-17T12:09:40Z</time>
      </trkpt>
      <trkpt lat="42.15821799999999" lon="-1.4286979999999987">
        <ele>332.477</ele>
        <time>2022-06-17T12:09:41Z</time>
      </trkpt>
      <trkpt lat="42.15815699999999" lon="-1.4286589999999988">
        <ele>332.650</ele>
        <time>2022-06-17T12:09:43Z</time>
      </trkpt>
      <trkpt lat="42.15797199999999" lon="-1.4285769999999989">
        <ele>333.248</ele>
        <time>2022-06-17T12:09:49Z</time>
      </trkpt>
      <trkpt lat="42.157811999999986" lon="-1.428538999999999">
        <ele>333.872</ele>
        <time>2022-06-17T12:09:54Z</time>
      </trkpt>
      <trkpt lat="42.15768899999998" lon="-1.428521999999999">
        <ele>334.410</ele>
        <time>2022-06-17T12:09:58Z</time>
      </trkpt>
      <trkpt lat="42.15752899999998" lon="-1.428509999999999">
        <ele>334.866</ele>
        <time>2022-06-17T12:10:03Z</time>
      </trkpt>
      <trkpt lat="42.15739499999998" lon="-1.428494999999999">
        <ele>335.229</ele>
        <time>2022-06-17T12:10:07Z</time>
      </trkpt>
      <trkpt lat="42.15716499999998" lon="-1.4284179999999989">
        <ele>335.821</ele>
        <time>2022-06-17T12:10:14Z</time>
      </trkpt>
      <trkpt lat="42.15702099999998" lon="-1.428305999999999">
        <ele>336.009</ele>
        <time>2022-06-17T12:10:19Z</time>
      </trkpt>
      <trkpt lat="42.15699299999998" lon="-1.4282799999999989">
        <ele>336.097</ele>
        <time>2022-06-17T12:10:20Z</time>
      </trkpt>
      <trkpt lat="42.15675899999998" lon="-1.428014999999999">
        <ele>336.466</ele>
        <time>2022-06-17T12:10:29Z</time>
      </trkpt>
      <trkpt lat="42.15641999999998" lon="-1.427622999999999">
        <ele>337.041</ele>
        <time>2022-06-17T12:10:42Z</time>
      </trkpt>
      <trkpt lat="42.156393999999985" lon="-1.427598999999999">
        <ele>337.013</ele>
        <time>2022-06-17T12:10:43Z</time>
      </trkpt>
      <trkpt lat="42.15622599999998" lon="-1.427409999999999">
        <ele>337.446</ele>
        <time>2022-06-17T12:10:50Z</time>
      </trkpt>
      <trkpt lat="42.15609699999998" lon="-1.427269999999999">
        <ele>338.049</ele>
        <time>2022-06-17T12:10:55Z</time>
      </trkpt>
      <trkpt lat="42.15595099999998" lon="-1.4271059999999989">
        <ele>338.277</ele>
        <time>2022-06-17T12:11:01Z</time>
      </trkpt>
      <trkpt lat="42.15564499999998" lon="-1.426740999999999">
        <ele>338.661</ele>
        <time>2022-06-17T12:11:14Z</time>
      </trkpt>
      <trkpt lat="42.15552999999998" lon="-1.4265989999999988">
        <ele>339.039</ele>
        <time>2022-06-17T12:11:19Z</time>
      </trkpt>
      <trkpt lat="42.15542799999998" lon="-1.4265239999999988">
        <ele>339.284</ele>
        <time>2022-06-17T12:11:23Z</time>
      </trkpt>
      <trkpt lat="42.15528399999998" lon="-1.426592999999999">
        <ele>339.607</ele>
        <time>2022-06-17T12:11:29Z</time>
      </trkpt>
      <trkpt lat="42.15526099999998" lon="-1.426621999999999">
        <ele>339.617</ele>
        <time>2022-06-17T12:11:33Z</time>
      </trkpt>
      <trkpt lat="42.155217999999984" lon="-1.4266739999999989">
        <ele>340.009</ele>
        <time>2022-06-17T12:11:56Z</time>
      </trkpt>
      <trkpt lat="42.15517699999998" lon="-1.4267039999999989">
        <ele>340.029</ele>
        <time>2022-06-17T12:11:58Z</time>
      </trkpt>
      <trkpt lat="42.15500099999998" lon="-1.4267909999999988">
        <ele>340.268</ele>
        <time>2022-06-17T12:12:04Z</time>
      </trkpt>
      <trkpt lat="42.15476399999998" lon="-1.4268649999999987">
        <ele>340.223</ele>
        <time>2022-06-17T12:12:11Z</time>
      </trkpt>
      <trkpt lat="42.15458599999998" lon="-1.4268289999999988">
        <ele>339.625</ele>
        <time>2022-06-17T12:12:16Z</time>
      </trkpt>
      <trkpt lat="42.15436999999998" lon="-1.4266519999999987">
        <ele>339.428</ele>
        <time>2022-06-17T12:12:23Z</time>
      </trkpt>
      <trkpt lat="42.15411599999998" lon="-1.4264209999999986">
        <ele>339.411</ele>
        <time>2022-06-17T12:12:32Z</time>
      </trkpt>
      <trkpt lat="42.15392299999998" lon="-1.4262329999999985">
        <ele>339.829</ele>
        <time>2022-06-17T12:12:39Z</time>
      </trkpt>
      <trkpt lat="42.15371099999998" lon="-1.4260309999999985">
        <ele>340.223</ele>
        <time>2022-06-17T12:12:47Z</time>
      </trkpt>
      <trkpt lat="42.15354399999998" lon="-1.4258809999999984">
        <ele>340.841</ele>
        <time>2022-06-17T12:12:53Z</time>
      </trkpt>
      <trkpt lat="42.153455999999984" lon="-1.4258199999999983">
        <ele>341.047</ele>
        <time>2022-06-17T12:12:56Z</time>
      </trkpt>
      <trkpt lat="42.15325399999998" lon="-1.4257159999999982">
        <ele>341.429</ele>
        <time>2022-06-17T12:13:02Z</time>
      </trkpt>
      <trkpt lat="42.15299499999998" lon="-1.4256329999999982">
        <ele>341.621</ele>
        <time>2022-06-17T12:13:09Z</time>
      </trkpt>
      <trkpt lat="42.152929999999984" lon="-1.425614999999998">
        <ele>341.809</ele>
        <time>2022-06-17T12:13:11Z</time>
      </trkpt>
      <trkpt lat="42.15276399999998" lon="-1.425555999999998">
        <ele>342.225</ele>
        <time>2022-06-17T12:13:16Z</time>
      </trkpt>
      <trkpt lat="42.15269499999998" lon="-1.425529999999998">
        <ele>342.284</ele>
        <time>2022-06-17T12:13:18Z</time>
      </trkpt>
      <trkpt lat="42.15231299999998" lon="-1.425345999999998">
        <ele>342.259</ele>
        <time>2022-06-17T12:13:29Z</time>
      </trkpt>
      <trkpt lat="42.15205299999998" lon="-1.425300999999998">
        <ele>342.241</ele>
        <time>2022-06-17T12:13:36Z</time>
      </trkpt>
      <trkpt lat="42.15181199999998" lon="-1.4253909999999979">
        <ele>342.294</ele>
        <time>2022-06-17T12:13:43Z</time>
      </trkpt>
      <trkpt lat="42.151576999999975" lon="-1.4254429999999978">
        <ele>343.057</ele>
        <time>2022-06-17T12:13:50Z</time>
      </trkpt>
      <trkpt lat="42.151444999999974" lon="-1.4254539999999978">
        <ele>343.225</ele>
        <time>2022-06-17T12:13:54Z</time>
      </trkpt>
      <trkpt lat="42.151348999999975" lon="-1.4254619999999978">
        <ele>343.429</ele>
        <time>2022-06-17T12:13:57Z</time>
      </trkpt>
      <trkpt lat="42.151092999999975" lon="-1.4255469999999977">
        <ele>344.037</ele>
        <time>2022-06-17T12:14:05Z</time>
      </trkpt>
      <trkpt lat="42.150996999999975" lon="-1.4255889999999978">
        <ele>344.271</ele>
        <time>2022-06-17T12:14:08Z</time>
      </trkpt>
      <trkpt lat="42.15080399999997" lon="-1.4257029999999977">
        <ele>344.441</ele>
        <time>2022-06-17T12:14:14Z</time>
      </trkpt>
      <trkpt lat="42.150563999999974" lon="-1.4258569999999977">
        <ele>345.015</ele>
        <time>2022-06-17T12:14:22Z</time>
      </trkpt>
      <trkpt lat="42.150473999999974" lon="-1.4259229999999976">
        <ele>345.409</ele>
        <time>2022-06-17T12:14:25Z</time>
      </trkpt>
      <trkpt lat="42.15042999999997" lon="-1.4259559999999976">
        <ele>345.898</ele>
        <time>2022-06-17T12:14:27Z</time>
      </trkpt>
      <trkpt lat="42.15032699999997" lon="-1.4260309999999976">
        <ele>346.487</ele>
        <time>2022-06-17T12:14:31Z</time>
      </trkpt>
      <trkpt lat="42.15023999999997" lon="-1.4260669999999975">
        <ele>346.832</ele>
        <time>2022-06-17T12:14:34Z</time>
      </trkpt>
      <trkpt lat="42.14999999999997" lon="-1.4261369999999975">
        <ele>347.434</ele>
        <time>2022-06-17T12:14:42Z</time>
      </trkpt>
      <trkpt lat="42.14997299999997" lon="-1.4261459999999975">
        <ele>347.657</ele>
        <time>2022-06-17T12:14:43Z</time>
      </trkpt>
      <trkpt lat="42.14976499999997" lon="-1.4261759999999974">
        <ele>347.830</ele>
        <time>2022-06-17T12:14:50Z</time>
      </trkpt>
      <trkpt lat="42.14957799999997" lon="-1.4260909999999976">
        <ele>348.058</ele>
        <time>2022-06-17T12:14:57Z</time>
      </trkpt>
      <trkpt lat="42.14936699999997" lon="-1.4259779999999975">
        <ele>348.482</ele>
        <time>2022-06-17T12:15:05Z</time>
      </trkpt>
      <trkpt lat="42.14931899999997" lon="-1.4259459999999975">
        <ele>348.670</ele>
        <time>2022-06-17T12:15:07Z</time>
      </trkpt>
      <trkpt lat="42.14916699999997" lon="-1.4258329999999975">
        <ele>349.655</ele>
        <time>2022-06-17T12:15:13Z</time>
      </trkpt>
      <trkpt lat="42.14913799999997" lon="-1.4258079999999975">
        <ele>349.607</ele>
        <time>2022-06-17T12:15:14Z</time>
      </trkpt>
      <trkpt lat="42.14895599999997" lon="-1.4256269999999975">
        <ele>350.817</ele>
        <time>2022-06-17T12:15:22Z</time>
      </trkpt>
      <trkpt lat="42.14880699999997" lon="-1.4254789999999975">
        <ele>351.809</ele>
        <time>2022-06-17T12:15:29Z</time>
      </trkpt>
      <trkpt lat="42.14878199999997" lon="-1.4254609999999974">
        <ele>352.086</ele>
        <time>2022-06-17T12:15:30Z</time>
      </trkpt>
      <trkpt lat="42.14854999999997" lon="-1.4253459999999973">
        <ele>352.645</ele>
        <time>2022-06-17T12:15:38Z</time>
      </trkpt>
      <trkpt lat="42.14842399999997" lon="-1.4252649999999973">
        <ele>353.050</ele>
        <time>2022-06-17T12:15:43Z</time>
      </trkpt>
      <trkpt lat="42.14840099999997" lon="-1.4252399999999974">
        <ele>353.052</ele>
        <time>2022-06-17T12:15:44Z</time>
      </trkpt>
      <trkpt lat="42.14824099999997" lon="-1.4250209999999974">
        <ele>354.025</ele>
        <time>2022-06-17T12:15:53Z</time>
      </trkpt>
      <trkpt lat="42.14822299999997" lon="-1.4249989999999975">
        <ele>354.068</ele>
        <time>2022-06-17T12:15:54Z</time>
      </trkpt>
      <trkpt lat="42.14815399999997" lon="-1.4249529999999975">
        <ele>354.036</ele>
        <time>2022-06-17T12:15:57Z</time>
      </trkpt>
      <trkpt lat="42.14810799999997" lon="-1.4249549999999975">
        <ele>354.210</ele>
        <time>2022-06-17T12:15:59Z</time>
      </trkpt>
      <trkpt lat="42.148064999999974" lon="-1.4249789999999976">
        <ele>354.468</ele>
        <time>2022-06-17T12:16:01Z</time>
      </trkpt>
      <trkpt lat="42.148002999999974" lon="-1.4250629999999975">
        <ele>355.422</ele>
        <time>2022-06-17T12:16:05Z</time>
      </trkpt>
      <trkpt lat="42.147965999999975" lon="-1.4251299999999976">
        <ele>356.462</ele>
        <time>2022-06-17T12:16:08Z</time>
      </trkpt>
      <trkpt lat="42.147929999999974" lon="-1.4252279999999975">
        <ele>357.608</ele>
        <time>2022-06-17T12:16:12Z</time>
      </trkpt>
      <trkpt lat="42.147920999999975" lon="-1.4252539999999976">
        <ele>358.009</ele>
        <time>2022-06-17T12:16:13Z</time>
      </trkpt>
      <trkpt lat="42.147883999999976" lon="-1.4253269999999976">
        <ele>358.883</ele>
        <time>2022-06-17T12:16:16Z</time>
      </trkpt>
      <trkpt lat="42.14779099999998" lon="-1.4254439999999975">
        <ele>359.642</ele>
        <time>2022-06-17T12:16:22Z</time>
      </trkpt>
      <trkpt lat="42.14775299999997" lon="-1.4254719999999974">
        <ele>359.837</ele>
        <time>2022-06-17T12:16:24Z</time>
      </trkpt>
      <trkpt lat="42.147625999999974" lon="-1.4255389999999974">
        <ele>360.689</ele>
        <time>2022-06-17T12:16:31Z</time>
      </trkpt>
      <trkpt lat="42.14756199999997" lon="-1.4255399999999974">
        <ele>360.842</ele>
        <time>2022-06-17T12:16:34Z</time>
      </trkpt>
      <trkpt lat="42.14746699999997" lon="-1.4255429999999973">
        <ele>362.235</ele>
        <time>2022-06-17T12:16:39Z</time>
      </trkpt>
      <trkpt lat="42.14732799999997" lon="-1.4255259999999974">
        <ele>363.223</ele>
        <time>2022-06-17T12:16:46Z</time>
      </trkpt>
      <trkpt lat="42.147287999999975" lon="-1.4255189999999973">
        <ele>363.497</ele>
        <time>2022-06-17T12:16:48Z</time>
      </trkpt>
      <trkpt lat="42.14717099999997" lon="-1.4255179999999974">
        <ele>364.425</ele>
        <time>2022-06-17T12:16:54Z</time>
      </trkpt>
      <trkpt lat="42.14707599999997" lon="-1.4255099999999974">
        <ele>365.419</ele>
        <time>2022-06-17T12:16:59Z</time>
      </trkpt>
      <trkpt lat="42.14703799999997" lon="-1.4255079999999973">
        <ele>365.409</ele>
        <time>2022-06-17T12:17:01Z</time>
      </trkpt>
      <trkpt lat="42.14699199999997" lon="-1.4255009999999972">
        <ele>365.819</ele>
        <time>2022-06-17T12:17:03Z</time>
      </trkpt>
      <trkpt lat="42.14689599999997" lon="-1.4254869999999973">
        <ele>366.609</ele>
        <time>2022-06-17T12:17:08Z</time>
      </trkpt>
      <trkpt lat="42.14679399999997" lon="-1.4254729999999973">
        <ele>367.862</ele>
        <time>2022-06-17T12:17:13Z</time>
      </trkpt>
      <trkpt lat="42.146713999999974" lon="-1.4254609999999974">
        <ele>368.641</ele>
        <time>2022-06-17T12:17:17Z</time>
      </trkpt>
      <trkpt lat="42.146693999999975" lon="-1.4254579999999974">
        <ele>368.886</ele>
        <time>2022-06-17T12:17:18Z</time>
      </trkpt>
      <trkpt lat="42.14654399999998" lon="-1.4254559999999974">
        <ele>369.458</ele>
        <time>2022-06-17T12:17:26Z</time>
      </trkpt>
      <trkpt lat="42.14646099999998" lon="-1.4254739999999975">
        <ele>370.061</ele>
        <time>2022-06-17T12:17:30Z</time>
      </trkpt>
      <trkpt lat="42.14638999999998" lon="-1.4254929999999975">
        <ele>370.894</ele>
        <time>2022-06-17T12:17:34Z</time>
      </trkpt>
      <trkpt lat="42.14635199999998" lon="-1.4254989999999974">
        <ele>371.422</ele>
        <time>2022-06-17T12:17:36Z</time>
      </trkpt>
      <trkpt lat="42.14630299999998" lon="-1.4255269999999973">
        <ele>372.026</ele>
        <time>2022-06-17T12:17:39Z</time>
      </trkpt>
      <trkpt lat="42.14626499999998" lon="-1.4255389999999972">
        <ele>372.464</ele>
        <time>2022-06-17T12:17:41Z</time>
      </trkpt>
      <trkpt lat="42.14614299999998" lon="-1.4255469999999972">
        <ele>373.222</ele>
        <time>2022-06-17T12:17:48Z</time>
      </trkpt>
      <trkpt lat="42.14612699999998" lon="-1.4255499999999972">
        <ele>373.462</ele>
        <time>2022-06-17T12:17:49Z</time>
      </trkpt>
      <trkpt lat="42.14605999999998" lon="-1.4255599999999973">
        <ele>374.408</ele>
        <time>2022-06-17T12:17:53Z</time>
      </trkpt>
      <trkpt lat="42.145981999999975" lon="-1.4255549999999972">
        <ele>375.009</ele>
        <time>2022-06-17T12:17:58Z</time>
      </trkpt>
      <trkpt lat="42.145947999999976" lon="-1.4255529999999972">
        <ele>375.483</ele>
        <time>2022-06-17T12:18:00Z</time>
      </trkpt>
      <trkpt lat="42.14584199999997" lon="-1.4255169999999973">
        <ele>376.662</ele>
        <time>2022-06-17T12:18:06Z</time>
      </trkpt>
      <trkpt lat="42.145733999999976" lon="-1.4254619999999973">
        <ele>377.627</ele>
        <time>2022-06-17T12:18:13Z</time>
      </trkpt>
      <trkpt lat="42.145714999999974" lon="-1.4254509999999974">
        <ele>377.889</ele>
        <time>2022-06-17T12:18:14Z</time>
      </trkpt>
      <trkpt lat="42.145652999999974" lon="-1.4254109999999973">
        <ele>378.682</ele>
        <time>2022-06-17T12:18:18Z</time>
      </trkpt>
      <trkpt lat="42.14563999999997" lon="-1.4253999999999973">
        <ele>378.855</ele>
        <time>2022-06-17T12:18:19Z</time>
      </trkpt>
      <trkpt lat="42.145596999999974" lon="-1.4253599999999973">
        <ele>379.263</ele>
        <time>2022-06-17T12:18:22Z</time>
      </trkpt>
      <trkpt lat="42.145536999999976" lon="-1.4252759999999973">
        <ele>379.897</ele>
        <time>2022-06-17T12:18:26Z</time>
      </trkpt>
      <trkpt lat="42.145483999999975" lon="-1.4251829999999974">
        <ele>379.835</ele>
        <time>2022-06-17T12:18:29Z</time>
      </trkpt>
      <trkpt lat="42.145365999999974" lon="-1.4249409999999973">
        <ele>379.823</ele>
        <time>2022-06-17T12:18:35Z</time>
      </trkpt>
      <trkpt lat="42.145233999999974" lon="-1.4246339999999973">
        <ele>379.683</ele>
        <time>2022-06-17T12:18:42Z</time>
      </trkpt>
      <trkpt lat="42.14518099999997" lon="-1.4244639999999973">
        <ele>379.611</ele>
        <time>2022-06-17T12:18:47Z</time>
      </trkpt>
      <trkpt lat="42.14517499999997" lon="-1.4242279999999974">
        <ele>380.209</ele>
        <time>2022-06-17T12:18:54Z</time>
      </trkpt>
      <trkpt lat="42.14518999999997" lon="-1.4240729999999975">
        <ele>381.073</ele>
        <time>2022-06-17T12:18:59Z</time>
      </trkpt>
      <trkpt lat="42.14519299999997" lon="-1.4239789999999974">
        <ele>381.442</ele>
        <time>2022-06-17T12:19:02Z</time>
      </trkpt>
      <trkpt lat="42.14519499999997" lon="-1.4238889999999975">
        <ele>382.017</ele>
        <time>2022-06-17T12:19:05Z</time>
      </trkpt>
      <trkpt lat="42.145199999999974" lon="-1.4237659999999974">
        <ele>382.839</ele>
        <time>2022-06-17T12:19:09Z</time>
      </trkpt>
      <trkpt lat="42.14520399999997" lon="-1.4237339999999974">
        <ele>383.082</ele>
        <time>2022-06-17T12:19:10Z</time>
      </trkpt>
      <trkpt lat="42.145213999999974" lon="-1.4235579999999974">
        <ele>384.255</ele>
        <time>2022-06-17T12:19:16Z</time>
      </trkpt>
      <trkpt lat="42.145218999999976" lon="-1.4235009999999975">
        <ele>384.683</ele>
        <time>2022-06-17T12:19:18Z</time>
      </trkpt>
      <trkpt lat="42.14520099999998" lon="-1.4233509999999974">
        <ele>385.277</ele>
        <time>2022-06-17T12:19:23Z</time>
      </trkpt>
      <trkpt lat="42.14519399999998" lon="-1.4232979999999973">
        <ele>385.675</ele>
        <time>2022-06-17T12:19:25Z</time>
      </trkpt>
      <trkpt lat="42.14518599999998" lon="-1.4231779999999974">
        <ele>386.284</ele>
        <time>2022-06-17T12:19:29Z</time>
      </trkpt>
      <trkpt lat="42.14517799999998" lon="-1.4230349999999974">
        <ele>387.007</ele>
        <time>2022-06-17T12:19:34Z</time>
      </trkpt>
      <trkpt lat="42.14516699999998" lon="-1.4229519999999973">
        <ele>387.617</ele>
        <time>2022-06-17T12:19:37Z</time>
      </trkpt>
      <trkpt lat="42.14513699999998" lon="-1.4228369999999972">
        <ele>388.209</ele>
        <time>2022-06-17T12:19:41Z</time>
      </trkpt>
      <trkpt lat="42.14508799999998" lon="-1.4227129999999972">
        <ele>388.689</ele>
        <time>2022-06-17T12:19:45Z</time>
      </trkpt>
      <trkpt lat="42.14503099999998" lon="-1.4226019999999973">
        <ele>389.418</ele>
        <time>2022-06-17T12:19:49Z</time>
      </trkpt>
      <trkpt lat="42.14497499999998" lon="-1.4225109999999972">
        <ele>389.673</ele>
        <time>2022-06-17T12:19:53Z</time>
      </trkpt>
      <trkpt lat="42.14489699999998" lon="-1.4224459999999972">
        <ele>390.265</ele>
        <time>2022-06-17T12:19:57Z</time>
      </trkpt>
      <trkpt lat="42.14484399999998" lon="-1.4224069999999973">
        <ele>390.848</ele>
        <time>2022-06-17T12:20:00Z</time>
      </trkpt>
      <trkpt lat="42.14478099999998" lon="-1.4223499999999973">
        <ele>392.081</ele>
        <time>2022-06-17T12:20:04Z</time>
      </trkpt>
      <trkpt lat="42.14476799999998" lon="-1.4223349999999972">
        <ele>392.439</ele>
        <time>2022-06-17T12:20:05Z</time>
      </trkpt>
      <trkpt lat="42.144709999999975" lon="-1.4222839999999972">
        <ele>393.233</ele>
        <time>2022-06-17T12:20:09Z</time>
      </trkpt>
      <trkpt lat="42.14465999999997" lon="-1.4222539999999972">
        <ele>394.041</ele>
        <time>2022-06-17T12:20:12Z</time>
      </trkpt>
      <trkpt lat="42.14464699999997" lon="-1.4222449999999973">
        <ele>394.232</ele>
        <time>2022-06-17T12:20:13Z</time>
      </trkpt>
      <trkpt lat="42.14455999999997" lon="-1.4221809999999973">
        <ele>395.492</ele>
        <time>2022-06-17T12:20:19Z</time>
      </trkpt>
      <trkpt lat="42.14454699999997" lon="-1.4221679999999972">
        <ele>395.611</ele>
        <time>2022-06-17T12:20:20Z</time>
      </trkpt>
      <trkpt lat="42.144496999999966" lon="-1.422117999999997">
        <ele>396.609</ele>
        <time>2022-06-17T12:20:24Z</time>
      </trkpt>
      <trkpt lat="42.144451999999966" lon="-1.422066999999997">
        <ele>397.454</ele>
        <time>2022-06-17T12:20:28Z</time>
      </trkpt>
      <trkpt lat="42.144443999999964" lon="-1.422048999999997">
        <ele>397.623</ele>
        <time>2022-06-17T12:20:29Z</time>
      </trkpt>
      <trkpt lat="42.144389999999966" lon="-1.421964999999997">
        <ele>398.638</ele>
        <time>2022-06-17T12:20:34Z</time>
      </trkpt>
      <trkpt lat="42.14436699999997" lon="-1.421930999999997">
        <ele>399.080</ele>
        <time>2022-06-17T12:20:36Z</time>
      </trkpt>
      <trkpt lat="42.144330999999966" lon="-1.4218809999999968">
        <ele>399.873</ele>
        <time>2022-06-17T12:20:39Z</time>
      </trkpt>
      <trkpt lat="42.14426499999997" lon="-1.4218159999999969">
        <ele>400.656</ele>
        <time>2022-06-17T12:20:44Z</time>
      </trkpt>
      <trkpt lat="42.144254999999966" lon="-1.4217979999999968">
        <ele>400.894</ele>
        <time>2022-06-17T12:20:45Z</time>
      </trkpt>
      <trkpt lat="42.14418399999997" lon="-1.4216959999999967">
        <ele>401.848</ele>
        <time>2022-06-17T12:20:51Z</time>
      </trkpt>
      <trkpt lat="42.14409899999997" lon="-1.4215989999999967">
        <ele>402.886</ele>
        <time>2022-06-17T12:20:58Z</time>
      </trkpt>
      <trkpt lat="42.14407999999997" lon="-1.4215759999999966">
        <ele>403.257</ele>
        <time>2022-06-17T12:21:00Z</time>
      </trkpt>
      <trkpt lat="42.144032999999965" lon="-1.4215019999999967">
        <ele>404.200</ele>
        <time>2022-06-17T12:21:05Z</time>
      </trkpt>
      <trkpt lat="42.14401699999996" lon="-1.4214679999999966">
        <ele>404.820</ele>
        <time>2022-06-17T12:21:07Z</time>
      </trkpt>
      <trkpt lat="42.144007999999964" lon="-1.4214499999999965">
        <ele>405.009</ele>
        <time>2022-06-17T12:21:08Z</time>
      </trkpt>
      <trkpt lat="42.14398899999996" lon="-1.4213959999999966">
        <ele>405.466</ele>
        <time>2022-06-17T12:21:11Z</time>
      </trkpt>
      <trkpt lat="42.14397899999996" lon="-1.4213119999999966">
        <ele>406.025</ele>
        <time>2022-06-17T12:21:15Z</time>
      </trkpt>
      <trkpt lat="42.14396799999996" lon="-1.4212399999999965">
        <ele>406.440</ele>
        <time>2022-06-17T12:21:18Z</time>
      </trkpt>
      <trkpt lat="42.14394599999996" lon="-1.4211559999999965">
        <ele>407.052</ele>
        <time>2022-06-17T12:21:22Z</time>
      </trkpt>
      <trkpt lat="42.143920999999956" lon="-1.4210979999999966">
        <ele>407.695</ele>
        <time>2022-06-17T12:21:25Z</time>
      </trkpt>
      <trkpt lat="42.143889999999956" lon="-1.4210119999999966">
        <ele>408.258</ele>
        <time>2022-06-17T12:21:29Z</time>
      </trkpt>
      <trkpt lat="42.14386399999996" lon="-1.4209799999999966">
        <ele>408.686</ele>
        <time>2022-06-17T12:21:31Z</time>
      </trkpt>
      <trkpt lat="42.14381799999996" lon="-1.4209399999999965">
        <ele>409.030</ele>
        <time>2022-06-17T12:21:34Z</time>
      </trkpt>
      <trkpt lat="42.14374299999996" lon="-1.4208809999999965">
        <ele>409.688</ele>
        <time>2022-06-17T12:21:39Z</time>
      </trkpt>
      <trkpt lat="42.14367599999996" lon="-1.4208499999999966">
        <ele>410.287</ele>
        <time>2022-06-17T12:21:43Z</time>
      </trkpt>
      <trkpt lat="42.14366099999996" lon="-1.4208419999999966">
        <ele>410.442</ele>
        <time>2022-06-17T12:21:44Z</time>
      </trkpt>
      <trkpt lat="42.143633999999956" lon="-1.4208379999999967">
        <ele>410.626</ele>
        <time>2022-06-17T12:21:46Z</time>
      </trkpt>
      <trkpt lat="42.143563999999955" lon="-1.4208389999999966">
        <ele>411.409</ele>
        <time>2022-06-17T12:21:50Z</time>
      </trkpt>
      <trkpt lat="42.14350899999995" lon="-1.4208379999999967">
        <ele>411.669</ele>
        <time>2022-06-17T12:21:53Z</time>
      </trkpt>
      <trkpt lat="42.14343699999995" lon="-1.4208589999999968">
        <ele>412.418</ele>
        <time>2022-06-17T12:21:57Z</time>
      </trkpt>
      <trkpt lat="42.14341999999995" lon="-1.4208619999999967">
        <ele>412.453</ele>
        <time>2022-06-17T12:21:58Z</time>
      </trkpt>
      <trkpt lat="42.14340099999995" lon="-1.4208589999999968">
        <ele>412.645</ele>
        <time>2022-06-17T12:21:59Z</time>
      </trkpt>
      <trkpt lat="42.14335599999995" lon="-1.4208419999999968">
        <ele>413.088</ele>
        <time>2022-06-17T12:22:02Z</time>
      </trkpt>
      <trkpt lat="42.14326599999995" lon="-1.4208389999999969">
        <ele>413.821</ele>
        <time>2022-06-17T12:22:07Z</time>
      </trkpt>
      <trkpt lat="42.14319299999995" lon="-1.4208309999999968">
        <ele>414.669</ele>
        <time>2022-06-17T12:22:11Z</time>
      </trkpt>
      <trkpt lat="42.14316399999995" lon="-1.4208239999999968">
        <ele>415.073</ele>
        <time>2022-06-17T12:22:13Z</time>
      </trkpt>
      <trkpt lat="42.14313199999995" lon="-1.4208169999999967">
        <ele>415.481</ele>
        <time>2022-06-17T12:22:15Z</time>
      </trkpt>
      <trkpt lat="42.14306299999995" lon="-1.4208029999999967">
        <ele>416.224</ele>
        <time>2022-06-17T12:22:19Z</time>
      </trkpt>
      <trkpt lat="42.14296799999995" lon="-1.4207849999999966">
        <ele>417.204</ele>
        <time>2022-06-17T12:22:25Z</time>
      </trkpt>
      <trkpt lat="42.142914999999945" lon="-1.4207779999999965">
        <ele>418.014</ele>
        <time>2022-06-17T12:22:28Z</time>
      </trkpt>
      <trkpt lat="42.142861999999944" lon="-1.4207679999999965">
        <ele>418.609</ele>
        <time>2022-06-17T12:22:31Z</time>
      </trkpt>
      <trkpt lat="42.142740999999944" lon="-1.4207419999999964">
        <ele>419.463</ele>
        <time>2022-06-17T12:22:38Z</time>
      </trkpt>
      <trkpt lat="42.142723999999944" lon="-1.4207389999999964">
        <ele>419.632</ele>
        <time>2022-06-17T12:22:39Z</time>
      </trkpt>
      <trkpt lat="42.14264399999995" lon="-1.4207159999999963">
        <ele>420.827</ele>
        <time>2022-06-17T12:22:44Z</time>
      </trkpt>
      <trkpt lat="42.142576999999946" lon="-1.4207229999999964">
        <ele>421.449</ele>
        <time>2022-06-17T12:22:48Z</time>
      </trkpt>
      <trkpt lat="42.142543999999944" lon="-1.4207199999999964">
        <ele>421.842</ele>
        <time>2022-06-17T12:22:50Z</time>
      </trkpt>
      <trkpt lat="42.142478999999945" lon="-1.4207159999999965">
        <ele>423.045</ele>
        <time>2022-06-17T12:22:54Z</time>
      </trkpt>
      <trkpt lat="42.142416999999945" lon="-1.4207149999999966">
        <ele>424.013</ele>
        <time>2022-06-17T12:22:58Z</time>
      </trkpt>
      <trkpt lat="42.14238199999995" lon="-1.4207209999999966">
        <ele>424.277</ele>
        <time>2022-06-17T12:23:00Z</time>
      </trkpt>
      <trkpt lat="42.14230299999995" lon="-1.4207359999999967">
        <ele>425.075</ele>
        <time>2022-06-17T12:23:05Z</time>
      </trkpt>
      <trkpt lat="42.14229199999995" lon="-1.4207509999999968">
        <ele>425.042</ele>
        <time>2022-06-17T12:23:06Z</time>
      </trkpt>
      <trkpt lat="42.14221599999995" lon="-1.4208289999999968">
        <ele>426.222</ele>
        <time>2022-06-17T12:23:12Z</time>
      </trkpt>
      <trkpt lat="42.14211099999995" lon="-1.4209099999999968">
        <ele>427.414</ele>
        <time>2022-06-17T12:23:19Z</time>
      </trkpt>
      <trkpt lat="42.14204999999995" lon="-1.4209479999999968">
        <ele>428.409</ele>
        <time>2022-06-17T12:23:23Z</time>
      </trkpt>
      <trkpt lat="42.14199399999995" lon="-1.4209879999999968">
        <ele>429.055</ele>
        <time>2022-06-17T12:23:27Z</time>
      </trkpt>
      <trkpt lat="42.14196199999995" lon="-1.4209989999999968">
        <ele>429.464</ele>
        <time>2022-06-17T12:23:29Z</time>
      </trkpt>
      <trkpt lat="42.14189599999995" lon="-1.4210209999999968">
        <ele>430.479</ele>
        <time>2022-06-17T12:23:33Z</time>
      </trkpt>
      <trkpt lat="42.141880999999955" lon="-1.4210279999999968">
        <ele>430.821</ele>
        <time>2022-06-17T12:23:34Z</time>
      </trkpt>
      <trkpt lat="42.14184899999996" lon="-1.421042999999997">
        <ele>431.254</ele>
        <time>2022-06-17T12:23:36Z</time>
      </trkpt>
      <trkpt lat="42.14180299999996" lon="-1.421055999999997">
        <ele>431.477</ele>
        <time>2022-06-17T12:23:39Z</time>
      </trkpt>
      <trkpt lat="42.14178799999996" lon="-1.4210599999999969">
        <ele>431.445</ele>
        <time>2022-06-17T12:23:40Z</time>
      </trkpt>
      <trkpt lat="42.141721999999966" lon="-1.4210659999999968">
        <ele>432.279</ele>
        <time>2022-06-17T12:23:44Z</time>
      </trkpt>
      <trkpt lat="42.14169299999997" lon="-1.421053999999997">
        <ele>432.637</ele>
        <time>2022-06-17T12:23:46Z</time>
      </trkpt>
      <trkpt lat="42.14164999999997" lon="-1.421033999999997">
        <ele>433.619</ele>
        <time>2022-06-17T12:23:49Z</time>
      </trkpt>
      <trkpt lat="42.14161499999997" lon="-1.421020999999997">
        <ele>434.009</ele>
        <time>2022-06-17T12:23:51Z</time>
      </trkpt>
      <trkpt lat="42.14152199999997" lon="-1.420993999999997">
        <ele>434.619</ele>
        <time>2022-06-17T12:23:56Z</time>
      </trkpt>
      <trkpt lat="42.141467999999975" lon="-1.420986999999997">
        <ele>435.009</ele>
        <time>2022-06-17T12:23:59Z</time>
      </trkpt>
      <trkpt lat="42.14135399999997" lon="-1.4210419999999968">
        <ele>435.692</ele>
        <time>2022-06-17T12:24:06Z</time>
      </trkpt>
      <trkpt lat="42.14133499999997" lon="-1.4210529999999968">
        <ele>435.861</ele>
        <time>2022-06-17T12:24:07Z</time>
      </trkpt>
      <trkpt lat="42.14118799999997" lon="-1.4211309999999968">
        <ele>436.666</ele>
        <time>2022-06-17T12:24:16Z</time>
      </trkpt>
      <trkpt lat="42.14106499999997" lon="-1.4212059999999969">
        <ele>437.618</ele>
        <time>2022-06-17T12:24:24Z</time>
      </trkpt>
      <trkpt lat="42.14105299999997" lon="-1.421215999999997">
        <ele>437.671</ele>
        <time>2022-06-17T12:24:25Z</time>
      </trkpt>
      <trkpt lat="42.14090499999997" lon="-1.421323999999997">
        <ele>438.824</ele>
        <time>2022-06-17T12:24:34Z</time>
      </trkpt>
      <trkpt lat="42.14080899999997" lon="-1.4214189999999969">
        <ele>440.042</ele>
        <time>2022-06-17T12:24:41Z</time>
      </trkpt>
      <trkpt lat="42.14079499999997" lon="-1.4214359999999968">
        <ele>440.226</ele>
        <time>2022-06-17T12:24:42Z</time>
      </trkpt>
      <trkpt lat="42.14067699999997" lon="-1.4215289999999967">
        <ele>441.094</ele>
        <time>2022-06-17T12:24:50Z</time>
      </trkpt>
      <trkpt lat="42.14064799999997" lon="-1.4215509999999967">
        <ele>441.679</ele>
        <time>2022-06-17T12:24:52Z</time>
      </trkpt>
      <trkpt lat="42.14060499999997" lon="-1.4215829999999967">
        <ele>442.405</ele>
        <time>2022-06-17T12:24:55Z</time>
      </trkpt>
      <trkpt lat="42.140521999999976" lon="-1.4216219999999966">
        <ele>443.225</ele>
        <time>2022-06-17T12:25:00Z</time>
      </trkpt>
      <trkpt lat="42.14048999999998" lon="-1.4216369999999967">
        <ele>443.409</ele>
        <time>2022-06-17T12:25:02Z</time>
      </trkpt>
      <trkpt lat="42.14041399999998" lon="-1.4216829999999967">
        <ele>444.488</ele>
        <time>2022-06-17T12:25:07Z</time>
      </trkpt>
      <trkpt lat="42.14037999999998" lon="-1.4216919999999966">
        <ele>444.677</ele>
        <time>2022-06-17T12:25:09Z</time>
      </trkpt>
      <trkpt lat="42.140276999999976" lon="-1.4217199999999965">
        <ele>445.882</ele>
        <time>2022-06-17T12:25:15Z</time>
      </trkpt>
      <trkpt lat="42.140139999999974" lon="-1.4217699999999966">
        <ele>446.634</ele>
        <time>2022-06-17T12:25:23Z</time>
      </trkpt>
      <trkpt lat="42.140122999999974" lon="-1.4217779999999967">
        <ele>446.887</ele>
        <time>2022-06-17T12:25:24Z</time>
      </trkpt>
      <trkpt lat="42.140004999999974" lon="-1.4218189999999966">
        <ele>447.840</ele>
        <time>2022-06-17T12:25:31Z</time>
      </trkpt>
      <trkpt lat="42.13998599999997" lon="-1.4218239999999966">
        <ele>447.898</ele>
        <time>2022-06-17T12:25:32Z</time>
      </trkpt>
      <trkpt lat="42.13987599999997" lon="-1.4218429999999966">
        <ele>448.652</ele>
        <time>2022-06-17T12:25:38Z</time>
      </trkpt>
      <trkpt lat="42.13974499999997" lon="-1.4218019999999967">
        <ele>448.650</ele>
        <time>2022-06-17T12:25:43Z</time>
      </trkpt>
      <trkpt lat="42.13968099999997" lon="-1.4217879999999967">
        <ele>448.627</ele>
        <time>2022-06-17T12:25:45Z</time>
      </trkpt>
      <trkpt lat="42.13949199999997" lon="-1.4217029999999968">
        <ele>448.668</ele>
        <time>2022-06-17T12:25:51Z</time>
      </trkpt>
      <trkpt lat="42.139157999999966" lon="-1.4215689999999968">
        <ele>448.214</ele>
        <time>2022-06-17T12:26:01Z</time>
      </trkpt>
      <trkpt lat="42.13886199999997" lon="-1.4214499999999968">
        <ele>448.209</ele>
        <time>2022-06-17T12:26:10Z</time>
      </trkpt>
      <trkpt lat="42.13869599999997" lon="-1.4213909999999967">
        <ele>448.083</ele>
        <time>2022-06-17T12:26:16Z</time>
      </trkpt>
      <trkpt lat="42.13865299999997" lon="-1.4213779999999967">
        <ele>448.262</ele>
        <time>2022-06-17T12:26:20Z</time>
      </trkpt>
      <trkpt lat="42.13865299999997" lon="-1.4213779999999967">
        <ele>448.287</ele>
        <time>2022-06-17T12:26:21Z</time>
      </trkpt>
      <trkpt lat="42.13863799999997" lon="-1.4213759999999966">
        <ele>448.429</ele>
        <time>2022-06-17T12:32:44Z</time>
      </trkpt>
      <trkpt lat="42.138571999999975" lon="-1.4213719999999967">
        <ele>448.222</ele>
        <time>2022-06-17T12:32:47Z</time>
      </trkpt>
      <trkpt lat="42.13837399999998" lon="-1.4213359999999968">
        <ele>448.295</ele>
        <time>2022-06-17T12:32:54Z</time>
      </trkpt>
      <trkpt lat="42.13816899999998" lon="-1.4211959999999968">
        <ele>447.853</ele>
        <time>2022-06-17T12:33:01Z</time>
      </trkpt>
      <trkpt lat="42.13804399999998" lon="-1.4210879999999968">
        <ele>447.467</ele>
        <time>2022-06-17T12:33:07Z</time>
      </trkpt>
      <trkpt lat="42.13804399999998" lon="-1.4210879999999968">
        <ele>447.495</ele>
        <time>2022-06-17T12:33:09Z</time>
      </trkpt>
      <trkpt lat="42.13800799999998" lon="-1.4210619999999967">
        <ele>447.625</ele>
        <time>2022-06-17T12:33:25Z</time>
      </trkpt>
      <trkpt lat="42.13798699999998" lon="-1.4210559999999968">
        <ele>447.626</ele>
        <time>2022-06-17T12:33:26Z</time>
      </trkpt>
      <trkpt lat="42.13781499999998" lon="-1.4210749999999968">
        <ele>447.608</ele>
        <time>2022-06-17T12:33:31Z</time>
      </trkpt>
      <trkpt lat="42.13759899999998" lon="-1.4211429999999967">
        <ele>447.409</ele>
        <time>2022-06-17T12:33:35Z</time>
      </trkpt>
      <trkpt lat="42.13740399999998" lon="-1.4212189999999967">
        <ele>446.443</ele>
        <time>2022-06-17T12:33:38Z</time>
      </trkpt>
      <trkpt lat="42.13732299999998" lon="-1.4212229999999966">
        <ele>446.042</ele>
        <time>2022-06-17T12:33:39Z</time>
      </trkpt>
      <trkpt lat="42.13721399999998" lon="-1.4212129999999965">
        <ele>444.227</ele>
        <time>2022-06-17T12:33:41Z</time>
      </trkpt>
      <trkpt lat="42.13709899999998" lon="-1.4212359999999966">
        <ele>442.839</ele>
        <time>2022-06-17T12:33:43Z</time>
      </trkpt>
      <trkpt lat="42.13703899999998" lon="-1.4212559999999965">
        <ele>442.022</ele>
        <time>2022-06-17T12:33:44Z</time>
      </trkpt>
      <trkpt lat="42.13697099999998" lon="-1.4212859999999965">
        <ele>441.485</ele>
        <time>2022-06-17T12:33:45Z</time>
      </trkpt>
      <trkpt lat="42.136814999999984" lon="-1.4213879999999965">
        <ele>440.633</ele>
        <time>2022-06-17T12:33:48Z</time>
      </trkpt>
      <trkpt lat="42.13675999999998" lon="-1.4214409999999966">
        <ele>440.477</ele>
        <time>2022-06-17T12:33:49Z</time>
      </trkpt>
      <trkpt lat="42.13670999999998" lon="-1.4215079999999967">
        <ele>440.265</ele>
        <time>2022-06-17T12:33:50Z</time>
      </trkpt>
      <trkpt lat="42.13661199999998" lon="-1.4216729999999966">
        <ele>440.033</ele>
        <time>2022-06-17T12:33:52Z</time>
      </trkpt>
      <trkpt lat="42.13656199999998" lon="-1.4217809999999966">
        <ele>439.023</ele>
        <time>2022-06-17T12:33:53Z</time>
      </trkpt>
      <trkpt lat="42.136494999999975" lon="-1.4219739999999967">
        <ele>437.815</ele>
        <time>2022-06-17T12:33:55Z</time>
      </trkpt>
      <trkpt lat="42.13645199999998" lon="-1.4221519999999968">
        <ele>436.609</ele>
        <time>2022-06-17T12:33:57Z</time>
      </trkpt>
      <trkpt lat="42.136424999999974" lon="-1.4223299999999968">
        <ele>435.464</ele>
        <time>2022-06-17T12:33:59Z</time>
      </trkpt>
      <trkpt lat="42.136410999999974" lon="-1.4224089999999967">
        <ele>435.093</ele>
        <time>2022-06-17T12:34:00Z</time>
      </trkpt>
      <trkpt lat="42.13639299999998" lon="-1.4224809999999968">
        <ele>434.658</ele>
        <time>2022-06-17T12:34:01Z</time>
      </trkpt>
      <trkpt lat="42.13636899999997" lon="-1.4225399999999968">
        <ele>434.260</ele>
        <time>2022-06-17T12:34:02Z</time>
      </trkpt>
      <trkpt lat="42.13628799999997" lon="-1.4226839999999967">
        <ele>433.823</ele>
        <time>2022-06-17T12:34:05Z</time>
      </trkpt>
      <trkpt lat="42.13622299999997" lon="-1.4227519999999967">
        <ele>433.816</ele>
        <time>2022-06-17T12:34:07Z</time>
      </trkpt>
      <trkpt lat="42.13609199999997" lon="-1.4228169999999967">
        <ele>433.454</ele>
        <time>2022-06-17T12:34:10Z</time>
      </trkpt>
      <trkpt lat="42.13576499999997" lon="-1.4229399999999968">
        <ele>433.878</ele>
        <time>2022-06-17T12:34:19Z</time>
      </trkpt>
      <trkpt lat="42.13566399999997" lon="-1.4229739999999969">
        <ele>434.026</ele>
        <time>2022-06-17T12:34:22Z</time>
      </trkpt>
      <trkpt lat="42.13550899999997" lon="-1.423048999999997">
        <ele>434.478</ele>
        <time>2022-06-17T12:34:27Z</time>
      </trkpt>
      <trkpt lat="42.135380999999974" lon="-1.423125999999997">
        <ele>435.233</ele>
        <time>2022-06-17T12:34:32Z</time>
      </trkpt>
      <trkpt lat="42.13533099999997" lon="-1.423159999999997">
        <ele>435.626</ele>
        <time>2022-06-17T12:34:34Z</time>
      </trkpt>
      <trkpt lat="42.135245999999974" lon="-1.4232209999999972">
        <ele>436.409</ele>
        <time>2022-06-17T12:34:38Z</time>
      </trkpt>
      <trkpt lat="42.135188999999976" lon="-1.4232689999999972">
        <ele>437.268</ele>
        <time>2022-06-17T12:34:41Z</time>
      </trkpt>
      <trkpt lat="42.13515399999998" lon="-1.4232949999999973">
        <ele>437.677</ele>
        <time>2022-06-17T12:34:43Z</time>
      </trkpt>
      <trkpt lat="42.13505499999998" lon="-1.4233309999999972">
        <ele>438.662</ele>
        <time>2022-06-17T12:34:48Z</time>
      </trkpt>
      <trkpt lat="42.13492699999998" lon="-1.4233079999999971">
        <ele>439.854</ele>
        <time>2022-06-17T12:34:55Z</time>
      </trkpt>
      <trkpt lat="42.134909999999984" lon="-1.423292999999997">
        <ele>439.877</ele>
        <time>2022-06-17T12:34:56Z</time>
      </trkpt>
      <trkpt lat="42.13480099999998" lon="-1.4232109999999971">
        <ele>440.830</ele>
        <time>2022-06-17T12:35:03Z</time>
      </trkpt>
      <trkpt lat="42.13477299999998" lon="-1.423186999999997">
        <ele>441.488</ele>
        <time>2022-06-17T12:35:05Z</time>
      </trkpt>
      <trkpt lat="42.13472299999998" lon="-1.4231619999999972">
        <ele>441.832</ele>
        <time>2022-06-17T12:35:08Z</time>
      </trkpt>
      <trkpt lat="42.13463599999998" lon="-1.4231319999999972">
        <ele>442.670</ele>
        <time>2022-06-17T12:35:13Z</time>
      </trkpt>
      <trkpt lat="42.13461799999998" lon="-1.4231279999999973">
        <ele>442.873</ele>
        <time>2022-06-17T12:35:14Z</time>
      </trkpt>
      <trkpt lat="42.134481999999984" lon="-1.4231249999999973">
        <ele>444.085</ele>
        <time>2022-06-17T12:35:21Z</time>
      </trkpt>
      <trkpt lat="42.13433899999998" lon="-1.4231319999999974">
        <ele>445.013</ele>
        <time>2022-06-17T12:35:29Z</time>
      </trkpt>
      <trkpt lat="42.13431999999998" lon="-1.4231319999999974">
        <ele>445.209</ele>
        <time>2022-06-17T12:35:30Z</time>
      </trkpt>
      <trkpt lat="42.13415199999998" lon="-1.4231859999999974">
        <ele>445.888</ele>
        <time>2022-06-17T12:35:39Z</time>
      </trkpt>
      <trkpt lat="42.13411799999998" lon="-1.4232149999999975">
        <ele>446.037</ele>
        <time>2022-06-17T12:35:41Z</time>
      </trkpt>
      <trkpt lat="42.13409699999998" lon="-1.4232439999999975">
        <ele>446.022</ele>
        <time>2022-06-17T12:35:43Z</time>
      </trkpt>
      <trkpt lat="42.134090999999984" lon="-1.4232659999999975">
        <ele>446.054</ele>
        <time>2022-06-17T12:35:44Z</time>
      </trkpt>
      <trkpt lat="42.13409499999998" lon="-1.4233149999999974">
        <ele>446.287</ele>
        <time>2022-06-17T12:35:46Z</time>
      </trkpt>
      <trkpt lat="42.134132999999984" lon="-1.4233569999999975">
        <ele>446.640</ele>
        <time>2022-06-17T12:35:49Z</time>
      </trkpt>
      <trkpt lat="42.13415099999998" lon="-1.4233659999999975">
        <ele>446.878</ele>
        <time>2022-06-17T12:35:50Z</time>
      </trkpt>
      <trkpt lat="42.13420999999998" lon="-1.4233799999999974">
        <ele>447.652</ele>
        <time>2022-06-17T12:35:53Z</time>
      </trkpt>
      <trkpt lat="42.134278999999985" lon="-1.4233899999999975">
        <ele>447.860</ele>
        <time>2022-06-17T12:35:56Z</time>
      </trkpt>
      <trkpt lat="42.134298999999984" lon="-1.4233949999999975">
        <ele>448.054</ele>
        <time>2022-06-17T12:35:57Z</time>
      </trkpt>
      <trkpt lat="42.13446299999998" lon="-1.4234409999999975">
        <ele>448.856</ele>
        <time>2022-06-17T12:36:06Z</time>
      </trkpt>
      <trkpt lat="42.13448599999998" lon="-1.4234509999999976">
        <ele>449.011</ele>
        <time>2022-06-17T12:36:07Z</time>
      </trkpt>
      <trkpt lat="42.13459899999998" lon="-1.4235579999999977">
        <ele>449.409</ele>
        <time>2022-06-17T12:36:14Z</time>
      </trkpt>
      <trkpt lat="42.13472099999998" lon="-1.4237219999999977">
        <ele>449.466</ele>
        <time>2022-06-17T12:36:20Z</time>
      </trkpt>
      <trkpt lat="42.134845999999975" lon="-1.4239849999999976">
        <ele>449.465</ele>
        <time>2022-06-17T12:36:27Z</time>
      </trkpt>
      <trkpt lat="42.134881999999976" lon="-1.4242169999999976">
        <ele>449.450</ele>
        <time>2022-06-17T12:36:33Z</time>
      </trkpt>
      <trkpt lat="42.13490999999998" lon="-1.4244839999999976">
        <ele>449.842</ele>
        <time>2022-06-17T12:36:40Z</time>
      </trkpt>
      <trkpt lat="42.134912999999976" lon="-1.4245189999999976">
        <ele>450.095</ele>
        <time>2022-06-17T12:36:41Z</time>
      </trkpt>
      <trkpt lat="42.13492299999998" lon="-1.4246009999999976">
        <ele>450.228</ele>
        <time>2022-06-17T12:36:43Z</time>
      </trkpt>
      <trkpt lat="42.13493299999998" lon="-1.4247899999999976">
        <ele>450.436</ele>
        <time>2022-06-17T12:36:48Z</time>
      </trkpt>
      <trkpt lat="42.13487499999998" lon="-1.4249989999999975">
        <ele>450.820</ele>
        <time>2022-06-17T12:36:55Z</time>
      </trkpt>
      <trkpt lat="42.13486499999998" lon="-1.4250199999999975">
        <ele>451.058</ele>
        <time>2022-06-17T12:36:56Z</time>
      </trkpt>
      <trkpt lat="42.134806999999974" lon="-1.4252009999999975">
        <ele>452.234</ele>
        <time>2022-06-17T12:37:02Z</time>
      </trkpt>
      <trkpt lat="42.13477999999997" lon="-1.4254249999999975">
        <ele>453.255</ele>
        <time>2022-06-17T12:37:09Z</time>
      </trkpt>
      <trkpt lat="42.13476999999997" lon="-1.4254829999999974">
        <ele>453.410</ele>
        <time>2022-06-17T12:37:11Z</time>
      </trkpt>
      <trkpt lat="42.13475299999997" lon="-1.4256789999999975">
        <ele>453.809</ele>
        <time>2022-06-17T12:37:17Z</time>
      </trkpt>
      <trkpt lat="42.134719999999966" lon="-1.4257229999999974">
        <ele>453.834</ele>
        <time>2022-06-17T12:37:19Z</time>
      </trkpt>
      <trkpt lat="42.134573999999965" lon="-1.4257529999999974">
        <ele>454.033</ele>
        <time>2022-06-17T12:37:25Z</time>
      </trkpt>
      <trkpt lat="42.13452799999997" lon="-1.4257609999999974">
        <ele>454.098</ele>
        <time>2022-06-17T12:37:27Z</time>
      </trkpt>
      <trkpt lat="42.134342999999966" lon="-1.4258159999999973">
        <ele>454.660</ele>
        <time>2022-06-17T12:37:35Z</time>
      </trkpt>
      <trkpt lat="42.134252999999966" lon="-1.4258429999999973">
        <ele>455.033</ele>
        <time>2022-06-17T12:37:39Z</time>
      </trkpt>
      <trkpt lat="42.13411599999996" lon="-1.4258779999999973">
        <ele>455.656</ele>
        <time>2022-06-17T12:37:45Z</time>
      </trkpt>
      <trkpt lat="42.133993999999966" lon="-1.4259039999999974">
        <ele>456.254</ele>
        <time>2022-06-17T12:37:51Z</time>
      </trkpt>
      <trkpt lat="42.133937999999965" lon="-1.4259289999999973">
        <ele>456.628</ele>
        <time>2022-06-17T12:37:54Z</time>
      </trkpt>
      <trkpt lat="42.133920999999965" lon="-1.4259379999999973">
        <ele>456.866</ele>
        <time>2022-06-17T12:37:55Z</time>
      </trkpt>
      <trkpt lat="42.13385199999996" lon="-1.4259709999999972">
        <ele>457.265</ele>
        <time>2022-06-17T12:37:59Z</time>
      </trkpt>
      <trkpt lat="42.13379599999996" lon="-1.4259939999999973">
        <ele>457.468</ele>
        <time>2022-06-17T12:38:02Z</time>
      </trkpt>
      <trkpt lat="42.13364499999996" lon="-1.4260869999999972">
        <ele>458.214</ele>
        <time>2022-06-17T12:38:08Z</time>
      </trkpt>
      <trkpt lat="42.13357199999996" lon="-1.4261509999999973">
        <ele>458.209</ele>
        <time>2022-06-17T12:38:11Z</time>
      </trkpt>
      <trkpt lat="42.13346199999996" lon="-1.4262299999999972">
        <ele>458.457</ele>
        <time>2022-06-17T12:38:15Z</time>
      </trkpt>
      <trkpt lat="42.13330199999996" lon="-1.4263919999999972">
        <ele>458.496</ele>
        <time>2022-06-17T12:38:21Z</time>
      </trkpt>
      <trkpt lat="42.133246999999955" lon="-1.4265059999999972">
        <ele>458.461</ele>
        <time>2022-06-17T12:38:23Z</time>
      </trkpt>
      <trkpt lat="42.13317799999995" lon="-1.4267159999999972">
        <ele>458.273</ele>
        <time>2022-06-17T12:38:26Z</time>
      </trkpt>
      <trkpt lat="42.13304599999995" lon="-1.4270309999999973">
        <ele>457.246</ele>
        <time>2022-06-17T12:38:31Z</time>
      </trkpt>
      <trkpt lat="42.13301499999995" lon="-1.4270859999999972">
        <ele>456.889</ele>
        <time>2022-06-17T12:38:32Z</time>
      </trkpt>
      <trkpt lat="42.13290199999995" lon="-1.4273229999999972">
        <ele>456.877</ele>
        <time>2022-06-17T12:38:37Z</time>
      </trkpt>
      <trkpt lat="42.132776999999955" lon="-1.4277379999999973">
        <ele>456.891</ele>
        <time>2022-06-17T12:38:45Z</time>
      </trkpt>
      <trkpt lat="42.132756999999955" lon="-1.4278319999999973">
        <ele>456.829</ele>
        <time>2022-06-17T12:38:47Z</time>
      </trkpt>
      <trkpt lat="42.13273599999996" lon="-1.4280059999999972">
        <ele>456.853</ele>
        <time>2022-06-17T12:38:50Z</time>
      </trkpt>
      <trkpt lat="42.13270299999996" lon="-1.4281489999999972">
        <ele>456.804</ele>
        <time>2022-06-17T12:38:52Z</time>
      </trkpt>
      <trkpt lat="42.13256199999996" lon="-1.4285259999999973">
        <ele>456.814</ele>
        <time>2022-06-17T12:38:57Z</time>
      </trkpt>
      <trkpt lat="42.13249399999996" lon="-1.4286759999999974">
        <ele>455.809</ele>
        <time>2022-06-17T12:38:59Z</time>
      </trkpt>
      <trkpt lat="42.13238099999996" lon="-1.4289259999999975">
        <ele>454.826</ele>
        <time>2022-06-17T12:39:02Z</time>
      </trkpt>
      <trkpt lat="42.13234699999996" lon="-1.4290229999999975">
        <ele>454.645</ele>
        <time>2022-06-17T12:39:03Z</time>
      </trkpt>
      <trkpt lat="42.13219599999996" lon="-1.4294099999999974">
        <ele>453.650</ele>
        <time>2022-06-17T12:39:07Z</time>
      </trkpt>
      <trkpt lat="42.132148999999956" lon="-1.4294859999999974">
        <ele>453.232</ele>
        <time>2022-06-17T12:39:08Z</time>
      </trkpt>
      <trkpt lat="42.13205199999996" lon="-1.4296189999999973">
        <ele>452.065</ele>
        <time>2022-06-17T12:39:10Z</time>
      </trkpt>
      <trkpt lat="42.131906999999956" lon="-1.4297859999999973">
        <ele>451.258</ele>
        <time>2022-06-17T12:39:13Z</time>
      </trkpt>
      <trkpt lat="42.13180399999995" lon="-1.4298809999999973">
        <ele>451.026</ele>
        <time>2022-06-17T12:39:15Z</time>
      </trkpt>
      <trkpt lat="42.13164399999995" lon="-1.4299789999999972">
        <ele>450.430</ele>
        <time>2022-06-17T12:39:18Z</time>
      </trkpt>
      <trkpt lat="42.13128699999995" lon="-1.4301839999999972">
        <ele>450.298</ele>
        <time>2022-06-17T12:39:25Z</time>
      </trkpt>
      <trkpt lat="42.13115399999995" lon="-1.4302939999999973">
        <ele>450.235</ele>
        <time>2022-06-17T12:39:28Z</time>
      </trkpt>
      <trkpt lat="42.13106999999995" lon="-1.4303809999999972">
        <ele>450.286</ele>
        <time>2022-06-17T12:39:30Z</time>
      </trkpt>
      <trkpt lat="42.13098599999995" lon="-1.4304689999999973">
        <ele>450.014</ele>
        <time>2022-06-17T12:39:32Z</time>
      </trkpt>
      <trkpt lat="42.13091199999995" lon="-1.4305589999999972">
        <ele>450.009</ele>
        <time>2022-06-17T12:39:34Z</time>
      </trkpt>
      <trkpt lat="42.130761999999955" lon="-1.4307529999999973">
        <ele>449.864</ele>
        <time>2022-06-17T12:39:38Z</time>
      </trkpt>
      <trkpt lat="42.13073799999995" lon="-1.4307919999999972">
        <ele>449.853</ele>
        <time>2022-06-17T12:39:39Z</time>
      </trkpt>
      <trkpt lat="42.13067399999995" lon="-1.4309049999999972">
        <ele>449.628</ele>
        <time>2022-06-17T12:39:41Z</time>
      </trkpt>
      <trkpt lat="42.13054999999995" lon="-1.4310799999999972">
        <ele>449.680</ele>
        <time>2022-06-17T12:39:45Z</time>
      </trkpt>
      <trkpt lat="42.13033599999995" lon="-1.4314219999999973">
        <ele>449.233</ele>
        <time>2022-06-17T12:39:52Z</time>
      </trkpt>
      <trkpt lat="42.13025799999995" lon="-1.4315489999999973">
        <ele>449.016</ele>
        <time>2022-06-17T12:39:55Z</time>
      </trkpt>
      <trkpt lat="42.130199999999945" lon="-1.4316969999999973">
        <ele>448.864</ele>
        <time>2022-06-17T12:39:58Z</time>
      </trkpt>
      <trkpt lat="42.13011199999995" lon="-1.4319809999999973">
        <ele>448.418</ele>
        <time>2022-06-17T12:40:04Z</time>
      </trkpt>
      <trkpt lat="42.13003299999995" lon="-1.4322249999999972">
        <ele>447.866</ele>
        <time>2022-06-17T12:40:09Z</time>
      </trkpt>
      <trkpt lat="42.12997399999995" lon="-1.4324109999999972">
        <ele>447.257</ele>
        <time>2022-06-17T12:40:12Z</time>
      </trkpt>
      <trkpt lat="42.12994899999995" lon="-1.4324589999999973">
        <ele>446.600</ele>
        <time>2022-06-17T12:40:13Z</time>
      </trkpt>
      <trkpt lat="42.12991499999995" lon="-1.4325209999999973">
        <ele>446.420</ele>
        <time>2022-06-17T12:40:14Z</time>
      </trkpt>
      <trkpt lat="42.12987299999995" lon="-1.4325839999999972">
        <ele>446.009</ele>
        <time>2022-06-17T12:40:15Z</time>
      </trkpt>
      <trkpt lat="42.129813999999946" lon="-1.4326539999999972">
        <ele>445.226</ele>
        <time>2022-06-17T12:40:16Z</time>
      </trkpt>
      <trkpt lat="42.129709999999946" lon="-1.4327569999999972">
        <ele>444.045</ele>
        <time>2022-06-17T12:40:18Z</time>
      </trkpt>
      <trkpt lat="42.129580999999945" lon="-1.4328759999999972">
        <ele>442.440</ele>
        <time>2022-06-17T12:40:20Z</time>
      </trkpt>
      <trkpt lat="42.12946999999995" lon="-1.4329699999999972">
        <ele>440.822</ele>
        <time>2022-06-17T12:40:22Z</time>
      </trkpt>
      <trkpt lat="42.129405999999946" lon="-1.4330219999999971">
        <ele>440.055</ele>
        <time>2022-06-17T12:40:23Z</time>
      </trkpt>
      <trkpt lat="42.12934299999995" lon="-1.4330729999999972">
        <ele>438.858</ele>
        <time>2022-06-17T12:40:24Z</time>
      </trkpt>
      <trkpt lat="42.12922499999995" lon="-1.433181999999997">
        <ele>437.616</ele>
        <time>2022-06-17T12:40:26Z</time>
      </trkpt>
      <trkpt lat="42.129118999999946" lon="-1.433305999999997">
        <ele>436.480</ele>
        <time>2022-06-17T12:40:28Z</time>
      </trkpt>
      <trkpt lat="42.129068999999944" lon="-1.433370999999997">
        <ele>435.898</ele>
        <time>2022-06-17T12:40:29Z</time>
      </trkpt>
      <trkpt lat="42.12901399999994" lon="-1.4334539999999971">
        <ele>435.482</ele>
        <time>2022-06-17T12:40:30Z</time>
      </trkpt>
      <trkpt lat="42.12873599999994" lon="-1.433915999999997">
        <ele>433.843</ele>
        <time>2022-06-17T12:40:36Z</time>
      </trkpt>
      <trkpt lat="42.12863699999994" lon="-1.434075999999997">
        <ele>432.417</ele>
        <time>2022-06-17T12:40:38Z</time>
      </trkpt>
      <trkpt lat="42.12848899999994" lon="-1.434291999999997">
        <ele>430.409</ele>
        <time>2022-06-17T12:40:41Z</time>
      </trkpt>
      <trkpt lat="42.12843299999994" lon="-1.434355999999997">
        <ele>429.849</ele>
        <time>2022-06-17T12:40:42Z</time>
      </trkpt>
      <trkpt lat="42.12837699999994" lon="-1.434418999999997">
        <ele>428.888</ele>
        <time>2022-06-17T12:40:43Z</time>
      </trkpt>
      <trkpt lat="42.128258999999936" lon="-1.434543999999997">
        <ele>427.873</ele>
        <time>2022-06-17T12:40:45Z</time>
      </trkpt>
      <trkpt lat="42.12812799999993" lon="-1.4346879999999969">
        <ele>427.485</ele>
        <time>2022-06-17T12:40:47Z</time>
      </trkpt>
      <trkpt lat="42.12808399999993" lon="-1.4347529999999968">
        <ele>427.078</ele>
        <time>2022-06-17T12:40:48Z</time>
      </trkpt>
      <trkpt lat="42.12803299999993" lon="-1.4348459999999967">
        <ele>426.641</ele>
        <time>2022-06-17T12:40:49Z</time>
      </trkpt>
      <trkpt lat="42.12794499999993" lon="-1.4350629999999966">
        <ele>426.259</ele>
        <time>2022-06-17T12:40:51Z</time>
      </trkpt>
      <trkpt lat="42.12791799999993" lon="-1.4351629999999966">
        <ele>426.043</ele>
        <time>2022-06-17T12:40:52Z</time>
      </trkpt>
      <trkpt lat="42.12790399999993" lon="-1.4352439999999966">
        <ele>425.681</ele>
        <time>2022-06-17T12:40:53Z</time>
      </trkpt>
      <trkpt lat="42.12789099999993" lon="-1.4353439999999966">
        <ele>425.257</ele>
        <time>2022-06-17T12:40:54Z</time>
      </trkpt>
      <trkpt lat="42.12788799999993" lon="-1.4354419999999966">
        <ele>425.000</ele>
        <time>2022-06-17T12:40:55Z</time>
      </trkpt>
      <trkpt lat="42.127888999999925" lon="-1.4355599999999966">
        <ele>424.620</ele>
        <time>2022-06-17T12:40:56Z</time>
      </trkpt>
      <trkpt lat="42.12788999999992" lon="-1.4356369999999967">
        <ele>424.009</ele>
        <time>2022-06-17T12:40:57Z</time>
      </trkpt>
      <trkpt lat="42.127885999999926" lon="-1.4362889999999968">
        <ele>423.226</ele>
        <time>2022-06-17T12:41:04Z</time>
      </trkpt>
      <trkpt lat="42.127851999999926" lon="-1.4367959999999969">
        <ele>422.225</ele>
        <time>2022-06-17T12:41:10Z</time>
      </trkpt>
      <trkpt lat="42.127730999999926" lon="-1.4372019999999968">
        <ele>422.280</ele>
        <time>2022-06-17T12:41:16Z</time>
      </trkpt>
      <trkpt lat="42.127525999999925" lon="-1.4375879999999968">
        <ele>422.482</ele>
        <time>2022-06-17T12:41:23Z</time>
      </trkpt>
      <trkpt lat="42.127438999999924" lon="-1.4377369999999967">
        <ele>422.415</ele>
        <time>2022-06-17T12:41:26Z</time>
      </trkpt>
      <trkpt lat="42.12737599999993" lon="-1.4378969999999967">
        <ele>422.668</ele>
        <time>2022-06-17T12:41:29Z</time>
      </trkpt>
      <trkpt lat="42.12730499999993" lon="-1.4381129999999966">
        <ele>422.686</ele>
        <time>2022-06-17T12:41:33Z</time>
      </trkpt>
      <trkpt lat="42.127260999999926" lon="-1.4382729999999966">
        <ele>422.830</ele>
        <time>2022-06-17T12:41:36Z</time>
      </trkpt>
      <trkpt lat="42.12725099999992" lon="-1.4383299999999966">
        <ele>422.888</ele>
        <time>2022-06-17T12:41:37Z</time>
      </trkpt>
      <trkpt lat="42.12720099999992" lon="-1.4388069999999966">
        <ele>422.845</ele>
        <time>2022-06-17T12:41:45Z</time>
      </trkpt>
      <trkpt lat="42.127165999999924" lon="-1.4390439999999967">
        <ele>422.647</ele>
        <time>2022-06-17T12:41:49Z</time>
      </trkpt>
      <trkpt lat="42.127114999999925" lon="-1.4392269999999967">
        <ele>422.411</ele>
        <time>2022-06-17T12:41:52Z</time>
      </trkpt>
      <trkpt lat="42.127052999999925" lon="-1.4394029999999967">
        <ele>422.209</ele>
        <time>2022-06-17T12:41:55Z</time>
      </trkpt>
      <trkpt lat="42.12698499999993" lon="-1.4395739999999966">
        <ele>422.045</ele>
        <time>2022-06-17T12:41:58Z</time>
      </trkpt>
      <trkpt lat="42.12687699999993" lon="-1.4397789999999966">
        <ele>421.844</ele>
        <time>2022-06-17T12:42:02Z</time>
      </trkpt>
      <trkpt lat="42.12676899999993" lon="-1.4399069999999965">
        <ele>421.899</ele>
        <time>2022-06-17T12:42:05Z</time>
      </trkpt>
      <trkpt lat="42.12655599999993" lon="-1.4400679999999966">
        <ele>421.691</ele>
        <time>2022-06-17T12:42:10Z</time>
      </trkpt>
      <trkpt lat="42.12647099999993" lon="-1.4401149999999965">
        <ele>421.434</ele>
        <time>2022-06-17T12:42:12Z</time>
      </trkpt>
      <trkpt lat="42.12635099999993" lon="-1.4402019999999964">
        <ele>421.057</ele>
        <time>2022-06-17T12:42:15Z</time>
      </trkpt>
      <trkpt lat="42.12614599999993" lon="-1.4403569999999963">
        <ele>420.495</ele>
        <time>2022-06-17T12:42:20Z</time>
      </trkpt>
      <trkpt lat="42.126070999999925" lon="-1.4404219999999963">
        <ele>420.449</ele>
        <time>2022-06-17T12:42:22Z</time>
      </trkpt>
      <trkpt lat="42.12590299999992" lon="-1.4405139999999963">
        <ele>420.267</ele>
        <time>2022-06-17T12:42:26Z</time>
      </trkpt>
      <trkpt lat="42.125653999999926" lon="-1.4405849999999962">
        <ele>420.048</ele>
        <time>2022-06-17T12:42:31Z</time>
      </trkpt>
      <trkpt lat="42.12555199999993" lon="-1.4405959999999962">
        <ele>419.861</ele>
        <time>2022-06-17T12:42:33Z</time>
      </trkpt>
      <trkpt lat="42.12523699999993" lon="-1.4405709999999963">
        <ele>419.217</ele>
        <time>2022-06-17T12:42:39Z</time>
      </trkpt>
      <trkpt lat="42.12508199999993" lon="-1.4405299999999963">
        <ele>418.809</ele>
        <time>2022-06-17T12:42:42Z</time>
      </trkpt>
      <trkpt lat="42.12482799999993" lon="-1.4404699999999964">
        <ele>418.025</ele>
        <time>2022-06-17T12:42:47Z</time>
      </trkpt>
      <trkpt lat="42.12477899999993" lon="-1.4404609999999964">
        <ele>417.814</ele>
        <time>2022-06-17T12:42:48Z</time>
      </trkpt>
      <trkpt lat="42.12440299999993" lon="-1.4404319999999964">
        <ele>417.289</ele>
        <time>2022-06-17T12:42:55Z</time>
      </trkpt>
      <trkpt lat="42.12399899999993" lon="-1.4404199999999965">
        <ele>416.871</ele>
        <time>2022-06-17T12:43:03Z</time>
      </trkpt>
      <trkpt lat="42.12394999999993" lon="-1.4404079999999966">
        <ele>416.684</ele>
        <time>2022-06-17T12:43:04Z</time>
      </trkpt>
      <trkpt lat="42.12390099999993" lon="-1.4403959999999967">
        <ele>416.677</ele>
        <time>2022-06-17T12:43:05Z</time>
      </trkpt>
      <trkpt lat="42.12360799999993" lon="-1.4403099999999966">
        <ele>416.265</ele>
        <time>2022-06-17T12:43:11Z</time>
      </trkpt>
      <trkpt lat="42.12307999999993" lon="-1.4400929999999967">
        <ele>415.689</ele>
        <time>2022-06-17T12:43:22Z</time>
      </trkpt>
      <trkpt lat="42.12303599999993" lon="-1.4400729999999968">
        <ele>415.627</ele>
        <time>2022-06-17T12:43:23Z</time>
      </trkpt>
      <trkpt lat="42.122614999999925" lon="-1.4398849999999968">
        <ele>415.424</ele>
        <time>2022-06-17T12:43:33Z</time>
      </trkpt>
      <trkpt lat="42.122403999999925" lon="-1.4398089999999968">
        <ele>415.404</ele>
        <time>2022-06-17T12:43:38Z</time>
      </trkpt>
      <trkpt lat="42.12232099999993" lon="-1.4397849999999968">
        <ele>415.414</ele>
        <time>2022-06-17T12:43:40Z</time>
      </trkpt>
      <trkpt lat="42.12202199999993" lon="-1.4397639999999967">
        <ele>415.409</ele>
        <time>2022-06-17T12:43:47Z</time>
      </trkpt>
      <trkpt lat="42.12193799999993" lon="-1.4397829999999967">
        <ele>415.463</ele>
        <time>2022-06-17T12:43:49Z</time>
      </trkpt>
      <trkpt lat="42.12185999999993" lon="-1.4398179999999967">
        <ele>415.462</ele>
        <time>2022-06-17T12:43:51Z</time>
      </trkpt>
      <trkpt lat="42.12176299999993" lon="-1.4398869999999968">
        <ele>415.457</ele>
        <time>2022-06-17T12:43:54Z</time>
      </trkpt>
      <trkpt lat="42.12145899999993" lon="-1.4400979999999968">
        <ele>415.649</ele>
        <time>2022-06-17T12:44:02Z</time>
      </trkpt>
      <trkpt lat="42.12115299999993" lon="-1.4403259999999967">
        <ele>415.472</ele>
        <time>2022-06-17T12:44:09Z</time>
      </trkpt>
      <trkpt lat="42.12086299999993" lon="-1.4405729999999968">
        <ele>414.645</ele>
        <time>2022-06-17T12:44:15Z</time>
      </trkpt>
      <trkpt lat="42.12081299999993" lon="-1.4406209999999968">
        <ele>414.423</ele>
        <time>2022-06-17T12:44:16Z</time>
      </trkpt>
      <trkpt lat="42.120562999999926" lon="-1.4408509999999968">
        <ele>413.257</ele>
        <time>2022-06-17T12:44:21Z</time>
      </trkpt>
      <trkpt lat="42.12047999999993" lon="-1.4409299999999967">
        <ele>411.845</ele>
        <time>2022-06-17T12:44:23Z</time>
      </trkpt>
      <trkpt lat="42.12037699999993" lon="-1.4410249999999967">
        <ele>411.277</ele>
        <time>2022-06-17T12:44:25Z</time>
      </trkpt>
      <trkpt lat="42.120092999999926" lon="-1.4413249999999966">
        <ele>410.861</ele>
        <time>2022-06-17T12:44:32Z</time>
      </trkpt>
      <trkpt lat="42.11986999999993" lon="-1.4416729999999967">
        <ele>411.227</ele>
        <time>2022-06-17T12:44:39Z</time>
      </trkpt>
      <trkpt lat="42.11969699999993" lon="-1.4418779999999967">
        <ele>411.209</ele>
        <time>2022-06-17T12:44:44Z</time>
      </trkpt>
      <trkpt lat="42.119650999999934" lon="-1.4419129999999967">
        <ele>411.288</ele>
        <time>2022-06-17T12:44:45Z</time>
      </trkpt>
      <trkpt lat="42.11960999999993" lon="-1.4419389999999968">
        <ele>411.257</ele>
        <time>2022-06-17T12:44:46Z</time>
      </trkpt>
      <trkpt lat="42.11942799999993" lon="-1.4420159999999969">
        <ele>411.252</ele>
        <time>2022-06-17T12:44:50Z</time>
      </trkpt>
      <trkpt lat="42.119127999999925" lon="-1.4421279999999967">
        <ele>410.894</ele>
        <time>2022-06-17T12:44:57Z</time>
      </trkpt>
      <trkpt lat="42.118947999999925" lon="-1.4422129999999966">
        <ele>410.457</ele>
        <time>2022-06-17T12:45:01Z</time>
      </trkpt>
      <trkpt lat="42.11856699999993" lon="-1.4425289999999966">
        <ele>410.070</ele>
        <time>2022-06-17T12:45:10Z</time>
      </trkpt>
      <trkpt lat="42.11844599999993" lon="-1.4426649999999965">
        <ele>409.838</ele>
        <time>2022-06-17T12:45:13Z</time>
      </trkpt>
      <trkpt lat="42.11822399999993" lon="-1.4429779999999965">
        <ele>409.652</ele>
        <time>2022-06-17T12:45:19Z</time>
      </trkpt>
      <trkpt lat="42.11782899999993" lon="-1.4435599999999966">
        <ele>408.890</ele>
        <time>2022-06-17T12:45:30Z</time>
      </trkpt>
      <trkpt lat="42.11752899999993" lon="-1.4439949999999966">
        <ele>409.093</ele>
        <time>2022-06-17T12:45:39Z</time>
      </trkpt>
      <trkpt lat="42.11732199999992" lon="-1.4443319999999966">
        <ele>409.265</ele>
        <time>2022-06-17T12:45:46Z</time>
      </trkpt>
      <trkpt lat="42.11714199999992" lon="-1.4446809999999966">
        <ele>409.621</ele>
        <time>2022-06-17T12:45:54Z</time>
      </trkpt>
      <trkpt lat="42.11696599999992" lon="-1.4449999999999965">
        <ele>410.409</ele>
        <time>2022-06-17T12:46:02Z</time>
      </trkpt>
      <trkpt lat="42.11682899999992" lon="-1.4452169999999964">
        <ele>411.030</ele>
        <time>2022-06-17T12:46:08Z</time>
      </trkpt>
      <trkpt lat="42.116806999999916" lon="-1.4452529999999963">
        <ele>411.079</ele>
        <time>2022-06-17T12:46:09Z</time>
      </trkpt>
      <trkpt lat="42.11656899999991" lon="-1.4456179999999963">
        <ele>411.414</ele>
        <time>2022-06-17T12:46:19Z</time>
      </trkpt>
      <trkpt lat="42.116320999999914" lon="-1.4459469999999963">
        <ele>411.236</ele>
        <time>2022-06-17T12:46:27Z</time>
      </trkpt>
      <trkpt lat="42.11610499999991" lon="-1.4462459999999964">
        <ele>410.849</ele>
        <time>2022-06-17T12:46:33Z</time>
      </trkpt>
      <trkpt lat="42.11598499999991" lon="-1.4464089999999963">
        <ele>409.812</ele>
        <time>2022-06-17T12:46:36Z</time>
      </trkpt>
      <trkpt lat="42.11593599999991" lon="-1.4464799999999962">
        <ele>409.680</ele>
        <time>2022-06-17T12:46:37Z</time>
      </trkpt>
      <trkpt lat="42.115847999999914" lon="-1.4465889999999961">
        <ele>409.294</ele>
        <time>2022-06-17T12:46:39Z</time>
      </trkpt>
      <trkpt lat="42.115748999999916" lon="-1.446705999999996">
        <ele>408.852</ele>
        <time>2022-06-17T12:46:41Z</time>
      </trkpt>
      <trkpt lat="42.115675999999915" lon="-1.4468509999999961">
        <ele>408.262</ele>
        <time>2022-06-17T12:46:43Z</time>
      </trkpt>
      <trkpt lat="42.11565499999992" lon="-1.4469279999999962">
        <ele>408.283</ele>
        <time>2022-06-17T12:46:44Z</time>
      </trkpt>
      <trkpt lat="42.115638999999916" lon="-1.4470059999999962">
        <ele>408.011</ele>
        <time>2022-06-17T12:46:45Z</time>
      </trkpt>
      <trkpt lat="42.115627999999916" lon="-1.4471509999999963">
        <ele>407.609</ele>
        <time>2022-06-17T12:46:47Z</time>
      </trkpt>
      <trkpt lat="42.11562699999992" lon="-1.4472139999999962">
        <ele>407.647</ele>
        <time>2022-06-17T12:46:48Z</time>
      </trkpt>
      <trkpt lat="42.11561499999992" lon="-1.4473779999999963">
        <ele>407.456</ele>
        <time>2022-06-17T12:46:51Z</time>
      </trkpt>
      <trkpt lat="42.11559599999992" lon="-1.4474799999999963">
        <ele>407.411</ele>
        <time>2022-06-17T12:46:53Z</time>
      </trkpt>
      <trkpt lat="42.115486999999916" lon="-1.4477599999999964">
        <ele>408.043</ele>
        <time>2022-06-17T12:46:59Z</time>
      </trkpt>
      <trkpt lat="42.115242999999914" lon="-1.4481079999999964">
        <ele>408.266</ele>
        <time>2022-06-17T12:47:08Z</time>
      </trkpt>
      <trkpt lat="42.115087999999915" lon="-1.4484279999999965">
        <ele>408.239</ele>
        <time>2022-06-17T12:47:15Z</time>
      </trkpt>
      <trkpt lat="42.114887999999915" lon="-1.4488399999999966">
        <ele>408.447</ele>
        <time>2022-06-17T12:47:25Z</time>
      </trkpt>
      <trkpt lat="42.11471299999992" lon="-1.4490499999999966">
        <ele>408.851</ele>
        <time>2022-06-17T12:47:32Z</time>
      </trkpt>
      <trkpt lat="42.11468699999992" lon="-1.4490789999999967">
        <ele>408.819</ele>
        <time>2022-06-17T12:47:33Z</time>
      </trkpt>
      <trkpt lat="42.11456899999992" lon="-1.4492259999999966">
        <ele>409.278</ele>
        <time>2022-06-17T12:47:38Z</time>
      </trkpt>
      <trkpt lat="42.114403999999915" lon="-1.4494059999999966">
        <ele>409.633</ele>
        <time>2022-06-17T12:47:45Z</time>
      </trkpt>
      <trkpt lat="42.11433499999991" lon="-1.4494969999999967">
        <ele>410.026</ele>
        <time>2022-06-17T12:47:48Z</time>
      </trkpt>
      <trkpt lat="42.11420599999991" lon="-1.4496919999999966">
        <ele>410.009</ele>
        <time>2022-06-17T12:47:53Z</time>
      </trkpt>
      <trkpt lat="42.11399599999991" lon="-1.4501129999999967">
        <ele>409.448</ele>
        <time>2022-06-17T12:48:01Z</time>
      </trkpt>
      <trkpt lat="42.113948999999906" lon="-1.4502389999999967">
        <ele>409.057</ele>
        <time>2022-06-17T12:48:03Z</time>
      </trkpt>
      <trkpt lat="42.11388599999991" lon="-1.4504399999999966">
        <ele>408.492</ele>
        <time>2022-06-17T12:48:06Z</time>
      </trkpt>
      <trkpt lat="42.11383499999991" lon="-1.4505679999999965">
        <ele>408.064</ele>
        <time>2022-06-17T12:48:08Z</time>
      </trkpt>
      <trkpt lat="42.11380299999991" lon="-1.4506279999999965">
        <ele>408.077</ele>
        <time>2022-06-17T12:48:09Z</time>
      </trkpt>
      <trkpt lat="42.11376699999991" lon="-1.4506879999999964">
        <ele>407.820</ele>
        <time>2022-06-17T12:48:10Z</time>
      </trkpt>
      <trkpt lat="42.11361899999991" lon="-1.4509109999999965">
        <ele>407.458</ele>
        <time>2022-06-17T12:48:14Z</time>
      </trkpt>
      <trkpt lat="42.11354199999991" lon="-1.4510069999999966">
        <ele>406.682</ele>
        <time>2022-06-17T12:48:16Z</time>
      </trkpt>
      <trkpt lat="42.11346699999991" lon="-1.4510929999999966">
        <ele>406.260</ele>
        <time>2022-06-17T12:48:18Z</time>
      </trkpt>
      <trkpt lat="42.11338499999991" lon="-1.4511699999999967">
        <ele>405.894</ele>
        <time>2022-06-17T12:48:20Z</time>
      </trkpt>
      <trkpt lat="42.11329199999991" lon="-1.4512379999999967">
        <ele>405.457</ele>
        <time>2022-06-17T12:48:22Z</time>
      </trkpt>
      <trkpt lat="42.11314599999991" lon="-1.4513299999999967">
        <ele>405.022</ele>
        <time>2022-06-17T12:48:25Z</time>
      </trkpt>
      <trkpt lat="42.113098999999906" lon="-1.4513679999999967">
        <ele>404.809</ele>
        <time>2022-06-17T12:48:26Z</time>
      </trkpt>
      <trkpt lat="42.113008999999906" lon="-1.4514389999999966">
        <ele>404.490</ele>
        <time>2022-06-17T12:48:28Z</time>
      </trkpt>
      <trkpt lat="42.112916999999904" lon="-1.4515099999999965">
        <ele>404.059</ele>
        <time>2022-06-17T12:48:30Z</time>
      </trkpt>
      <trkpt lat="42.112763999999906" lon="-1.4516749999999965">
        <ele>403.844</ele>
        <time>2022-06-17T12:48:34Z</time>
      </trkpt>
      <trkpt lat="42.11253499999991" lon="-1.4519199999999965">
        <ele>403.456</ele>
        <time>2022-06-17T12:48:40Z</time>
      </trkpt>
      <trkpt lat="42.11249999999991" lon="-1.4519559999999965">
        <ele>403.479</ele>
        <time>2022-06-17T12:48:41Z</time>
      </trkpt>
      <trkpt lat="42.112222999999915" lon="-1.4521599999999966">
        <ele>403.272</ele>
        <time>2022-06-17T12:48:48Z</time>
      </trkpt>
      <trkpt lat="42.11217899999991" lon="-1.4521779999999966">
        <ele>403.280</ele>
        <time>2022-06-17T12:48:49Z</time>
      </trkpt>
      <trkpt lat="42.111935999999915" lon="-1.4522539999999966">
        <ele>402.864</ele>
        <time>2022-06-17T12:48:54Z</time>
      </trkpt>
      <trkpt lat="42.111853999999916" lon="-1.4522979999999965">
        <ele>402.292</ele>
        <time>2022-06-17T12:48:56Z</time>
      </trkpt>
      <trkpt lat="42.11166099999991" lon="-1.4524269999999966">
        <ele>402.047</ele>
        <time>2022-06-17T12:49:01Z</time>
      </trkpt>
      <trkpt lat="42.11143399999991" lon="-1.4526089999999965">
        <ele>402.229</ele>
        <time>2022-06-17T12:49:07Z</time>
      </trkpt>
      <trkpt lat="42.11135599999991" lon="-1.4526839999999965">
        <ele>402.221</ele>
        <time>2022-06-17T12:49:09Z</time>
      </trkpt>
      <trkpt lat="42.11127999999991" lon="-1.4527519999999965">
        <ele>402.209</ele>
        <time>2022-06-17T12:49:11Z</time>
      </trkpt>
      <trkpt lat="42.11124299999991" lon="-1.4527829999999964">
        <ele>402.235</ele>
        <time>2022-06-17T12:49:12Z</time>
      </trkpt>
      <trkpt lat="42.11112499999991" lon="-1.4528759999999963">
        <ele>402.274</ele>
        <time>2022-06-17T12:49:15Z</time>
      </trkpt>
      <trkpt lat="42.11107999999991" lon="-1.4528979999999962">
        <ele>402.299</ele>
        <time>2022-06-17T12:49:16Z</time>
      </trkpt>
      <trkpt lat="42.11089799999991" lon="-1.4529499999999962">
        <ele>402.021</ele>
        <time>2022-06-17T12:49:20Z</time>
      </trkpt>
      <trkpt lat="42.11075699999991" lon="-1.452950999999996">
        <ele>401.864</ele>
        <time>2022-06-17T12:49:23Z</time>
      </trkpt>
      <trkpt lat="42.11050599999991" lon="-1.452918999999996">
        <ele>401.237</ele>
        <time>2022-06-17T12:49:28Z</time>
      </trkpt>
      <trkpt lat="42.11041099999991" lon="-1.452922999999996">
        <ele>400.875</ele>
        <time>2022-06-17T12:49:30Z</time>
      </trkpt>
      <trkpt lat="42.11036499999991" lon="-1.452930999999996">
        <ele>400.879</ele>
        <time>2022-06-17T12:49:31Z</time>
      </trkpt>
      <trkpt lat="42.11023699999991" lon="-1.452971999999996">
        <ele>400.627</ele>
        <time>2022-06-17T12:49:34Z</time>
      </trkpt>
      <trkpt lat="42.110114999999915" lon="-1.453038999999996">
        <ele>400.414</ele>
        <time>2022-06-17T12:49:37Z</time>
      </trkpt>
      <trkpt lat="42.10987499999992" lon="-1.453179999999996">
        <ele>400.254</ele>
        <time>2022-06-17T12:49:43Z</time>
      </trkpt>
      <trkpt lat="42.109790999999916" lon="-1.453227999999996">
        <ele>400.009</ele>
        <time>2022-06-17T12:49:45Z</time>
      </trkpt>
      <trkpt lat="42.10945799999992" lon="-1.453407999999996">
        <ele>399.609</ele>
        <time>2022-06-17T12:49:53Z</time>
      </trkpt>
      <trkpt lat="42.10906599999992" lon="-1.453628999999996">
        <ele>399.242</ele>
        <time>2022-06-17T12:50:02Z</time>
      </trkpt>
      <trkpt lat="42.10902599999992" lon="-1.453658999999996">
        <ele>398.891</ele>
        <time>2022-06-17T12:50:03Z</time>
      </trkpt>
      <trkpt lat="42.10880399999992" lon="-1.453856999999996">
        <ele>398.086</ele>
        <time>2022-06-17T12:50:09Z</time>
      </trkpt>
      <trkpt lat="42.10842899999992" lon="-1.454258999999996">
        <ele>397.868</ele>
        <time>2022-06-17T12:50:20Z</time>
      </trkpt>
      <trkpt lat="42.10817099999992" lon="-1.4545759999999959">
        <ele>397.831</ele>
        <time>2022-06-17T12:50:29Z</time>
      </trkpt>
      <trkpt lat="42.10803199999992" lon="-1.4546379999999959">
        <ele>397.654</ele>
        <time>2022-06-17T12:50:33Z</time>
      </trkpt>
      <trkpt lat="42.107884999999925" lon="-1.4545519999999958">
        <ele>397.642</ele>
        <time>2022-06-17T12:50:37Z</time>
      </trkpt>
      <trkpt lat="42.107670999999925" lon="-1.454296999999996">
        <ele>397.876</ele>
        <time>2022-06-17T12:50:44Z</time>
      </trkpt>
      <trkpt lat="42.10747199999992" lon="-1.4539739999999959">
        <ele>398.064</ele>
        <time>2022-06-17T12:50:52Z</time>
      </trkpt>
      <trkpt lat="42.107301999999926" lon="-1.4536529999999959">
        <ele>398.241</ele>
        <time>2022-06-17T12:51:00Z</time>
      </trkpt>
      <trkpt lat="42.10713199999993" lon="-1.4533329999999958">
        <ele>398.281</ele>
        <time>2022-06-17T12:51:08Z</time>
      </trkpt>
      <trkpt lat="42.10693999999993" lon="-1.4530299999999958">
        <ele>398.409</ele>
        <time>2022-06-17T12:51:16Z</time>
      </trkpt>
      <trkpt lat="42.10675899999993" lon="-1.452720999999996">
        <ele>398.609</ele>
        <time>2022-06-17T12:51:24Z</time>
      </trkpt>
      <trkpt lat="42.10655399999993" lon="-1.4524519999999959">
        <ele>398.875</ele>
        <time>2022-06-17T12:51:31Z</time>
      </trkpt>
      <trkpt lat="42.10630399999993" lon="-1.4523059999999959">
        <ele>398.494</ele>
        <time>2022-06-17T12:51:37Z</time>
      </trkpt>
      <trkpt lat="42.10595999999993" lon="-1.4522469999999958">
        <ele>397.679</ele>
        <time>2022-06-17T12:51:44Z</time>
      </trkpt>
      <trkpt lat="42.10575499999993" lon="-1.4521979999999959">
        <ele>396.851</ele>
        <time>2022-06-17T12:51:48Z</time>
      </trkpt>
      <trkpt lat="42.10560599999993" lon="-1.4521389999999958">
        <ele>396.044</ele>
        <time>2022-06-17T12:51:51Z</time>
      </trkpt>
      <trkpt lat="42.105553999999934" lon="-1.4521149999999958">
        <ele>395.657</ele>
        <time>2022-06-17T12:51:52Z</time>
      </trkpt>
      <trkpt lat="42.10523899999993" lon="-1.4519499999999959">
        <ele>395.065</ele>
        <time>2022-06-17T12:51:58Z</time>
      </trkpt>
      <trkpt lat="42.105083999999934" lon="-1.4518729999999958">
        <ele>394.639</ele>
        <time>2022-06-17T12:52:01Z</time>
      </trkpt>
      <trkpt lat="42.104779999999934" lon="-1.4517129999999958">
        <ele>393.647</ele>
        <time>2022-06-17T12:52:07Z</time>
      </trkpt>
      <trkpt lat="42.104365999999935" lon="-1.451595999999996">
        <ele>393.044</ele>
        <time>2022-06-17T12:52:15Z</time>
      </trkpt>
      <trkpt lat="42.104112999999934" lon="-1.4516239999999958">
        <ele>392.805</ele>
        <time>2022-06-17T12:52:20Z</time>
      </trkpt>
      <trkpt lat="42.10403299999994" lon="-1.4516449999999959">
        <ele>393.015</ele>
        <time>2022-06-17T12:52:22Z</time>
      </trkpt>
      <trkpt lat="42.10375899999994" lon="-1.4517069999999959">
        <ele>393.609</ele>
        <time>2022-06-17T12:52:28Z</time>
      </trkpt>
      <trkpt lat="42.10366599999994" lon="-1.4517209999999958">
        <ele>393.835</ele>
        <time>2022-06-17T12:52:30Z</time>
      </trkpt>
      <trkpt lat="42.10347199999994" lon="-1.451692999999996">
        <ele>393.884</ele>
        <time>2022-06-17T12:52:34Z</time>
      </trkpt>
      <trkpt lat="42.10337099999994" lon="-1.451634999999996">
        <ele>393.879</ele>
        <time>2022-06-17T12:52:36Z</time>
      </trkpt>
      <trkpt lat="42.10326699999994" lon="-1.451537999999996">
        <ele>393.891</ele>
        <time>2022-06-17T12:52:38Z</time>
      </trkpt>
      <trkpt lat="42.10301299999994" lon="-1.451216999999996">
        <ele>393.064</ele>
        <time>2022-06-17T12:52:43Z</time>
      </trkpt>
      <trkpt lat="42.10290099999994" lon="-1.451073999999996">
        <ele>392.457</ele>
        <time>2022-06-17T12:52:45Z</time>
      </trkpt>
      <trkpt lat="42.102786999999935" lon="-1.450930999999996">
        <ele>391.465</ele>
        <time>2022-06-17T12:52:47Z</time>
      </trkpt>
      <trkpt lat="42.102668999999935" lon="-1.450789999999996">
        <ele>390.459</ele>
        <time>2022-06-17T12:52:49Z</time>
      </trkpt>
      <trkpt lat="42.10261099999993" lon="-1.450720999999996">
        <ele>389.627</ele>
        <time>2022-06-17T12:52:50Z</time>
      </trkpt>
      <trkpt lat="42.10255199999993" lon="-1.450654999999996">
        <ele>389.223</ele>
        <time>2022-06-17T12:52:51Z</time>
      </trkpt>
      <trkpt lat="42.102429999999934" lon="-1.450538999999996">
        <ele>388.083</ele>
        <time>2022-06-17T12:52:53Z</time>
      </trkpt>
      <trkpt lat="42.10230199999994" lon="-1.450451999999996">
        <ele>387.411</ele>
        <time>2022-06-17T12:52:55Z</time>
      </trkpt>
      <trkpt lat="42.102037999999936" lon="-1.450314999999996">
        <ele>387.209</ele>
        <time>2022-06-17T12:52:59Z</time>
      </trkpt>
      <trkpt lat="42.10189999999994" lon="-1.450277999999996">
        <ele>387.033</ele>
        <time>2022-06-17T12:53:01Z</time>
      </trkpt>
      <trkpt lat="42.101767999999936" lon="-1.450300999999996">
        <ele>386.882</ele>
        <time>2022-06-17T12:53:03Z</time>
      </trkpt>
      <trkpt lat="42.10162299999993" lon="-1.450357999999996">
        <ele>386.667</ele>
        <time>2022-06-17T12:53:05Z</time>
      </trkpt>
      <trkpt lat="42.10130899999993" lon="-1.450438999999996">
        <ele>385.849</ele>
        <time>2022-06-17T12:53:09Z</time>
      </trkpt>
      <trkpt lat="42.10123499999993" lon="-1.450447999999996">
        <ele>385.492</ele>
        <time>2022-06-17T12:53:10Z</time>
      </trkpt>
      <trkpt lat="42.10101299999993" lon="-1.450474999999996">
        <ele>384.845</ele>
        <time>2022-06-17T12:53:13Z</time>
      </trkpt>
      <trkpt lat="42.10079099999993" lon="-1.450500999999996">
        <ele>383.813</ele>
        <time>2022-06-17T12:53:16Z</time>
      </trkpt>
      <trkpt lat="42.10051099999993" lon="-1.450504999999996">
        <ele>383.277</ele>
        <time>2022-06-17T12:53:20Z</time>
      </trkpt>
      <trkpt lat="42.100309999999936" lon="-1.4505299999999959">
        <ele>382.675</ele>
        <time>2022-06-17T12:53:23Z</time>
      </trkpt>
      <trkpt lat="42.100177999999936" lon="-1.450558999999996">
        <ele>382.461</ele>
        <time>2022-06-17T12:53:25Z</time>
      </trkpt>
      <trkpt lat="42.099710999999935" lon="-1.4505759999999959">
        <ele>382.221</ele>
        <time>2022-06-17T12:53:32Z</time>
      </trkpt>
      <trkpt lat="42.099229999999935" lon="-1.450491999999996">
        <ele>381.813</ele>
        <time>2022-06-17T12:53:39Z</time>
      </trkpt>
      <trkpt lat="42.099161999999936" lon="-1.450493999999996">
        <ele>381.409</ele>
        <time>2022-06-17T12:53:40Z</time>
      </trkpt>
      <trkpt lat="42.09909599999994" lon="-1.450506999999996">
        <ele>381.097</ele>
        <time>2022-06-17T12:53:41Z</time>
      </trkpt>
      <trkpt lat="42.09890899999994" lon="-1.450592999999996">
        <ele>380.466</ele>
        <time>2022-06-17T12:53:44Z</time>
      </trkpt>
      <trkpt lat="42.09847599999994" lon="-1.450837999999996">
        <ele>379.421</ele>
        <time>2022-06-17T12:53:51Z</time>
      </trkpt>
      <trkpt lat="42.09841499999994" lon="-1.4508719999999962">
        <ele>379.443</ele>
        <time>2022-06-17T12:53:52Z</time>
      </trkpt>
      <trkpt lat="42.09829599999994" lon="-1.450945999999996">
        <ele>379.236</ele>
        <time>2022-06-17T12:53:54Z</time>
      </trkpt>
      <trkpt lat="42.09807399999994" lon="-1.451137999999996">
        <ele>378.649</ele>
        <time>2022-06-17T12:53:58Z</time>
      </trkpt>
      <trkpt lat="42.09785499999994" lon="-1.451321999999996">
        <ele>378.427</ele>
        <time>2022-06-17T12:54:02Z</time>
      </trkpt>
      <trkpt lat="42.09767199999994" lon="-1.451463999999996">
        <ele>378.051</ele>
        <time>2022-06-17T12:54:05Z</time>
      </trkpt>
      <trkpt lat="42.097419999999936" lon="-1.4516329999999962">
        <ele>377.249</ele>
        <time>2022-06-17T12:54:09Z</time>
      </trkpt>
      <trkpt lat="42.09722199999994" lon="-1.4517429999999962">
        <ele>376.665</ele>
        <time>2022-06-17T12:54:12Z</time>
      </trkpt>
      <trkpt lat="42.09692699999994" lon="-1.4519119999999963">
        <ele>376.268</ele>
        <time>2022-06-17T12:54:17Z</time>
      </trkpt>
      <trkpt lat="42.096808999999936" lon="-1.4519879999999963">
        <ele>376.214</ele>
        <time>2022-06-17T12:54:19Z</time>
      </trkpt>
      <trkpt lat="42.09643699999994" lon="-1.4522749999999962">
        <ele>375.809</ele>
        <time>2022-06-17T12:54:26Z</time>
      </trkpt>
      <trkpt lat="42.096116999999936" lon="-1.4526769999999962">
        <ele>375.487</ele>
        <time>2022-06-17T12:54:33Z</time>
      </trkpt>
      <trkpt lat="42.09607299999993" lon="-1.4527339999999962">
        <ele>375.456</ele>
        <time>2022-06-17T12:54:34Z</time>
      </trkpt>
      <trkpt lat="42.09574399999993" lon="-1.4531219999999962">
        <ele>374.651</ele>
        <time>2022-06-17T12:54:41Z</time>
      </trkpt>
      <trkpt lat="42.09569899999993" lon="-1.4531759999999962">
        <ele>374.283</ele>
        <time>2022-06-17T12:54:42Z</time>
      </trkpt>
      <trkpt lat="42.09541999999993" lon="-1.4534939999999963">
        <ele>373.416</ele>
        <time>2022-06-17T12:54:48Z</time>
      </trkpt>
      <trkpt lat="42.09527399999993" lon="-1.4536469999999964">
        <ele>373.269</ele>
        <time>2022-06-17T12:54:51Z</time>
      </trkpt>
      <trkpt lat="42.09492499999993" lon="-1.4540079999999964">
        <ele>372.217</ele>
        <time>2022-06-17T12:54:58Z</time>
      </trkpt>
      <trkpt lat="42.094875999999935" lon="-1.4540619999999964">
        <ele>372.221</ele>
        <time>2022-06-17T12:54:59Z</time>
      </trkpt>
      <trkpt lat="42.09451799999994" lon="-1.4544139999999963">
        <ele>371.439</ele>
        <time>2022-06-17T12:55:06Z</time>
      </trkpt>
      <trkpt lat="42.09435699999994" lon="-1.4545049999999964">
        <ele>371.281</ele>
        <time>2022-06-17T12:55:09Z</time>
      </trkpt>
      <trkpt lat="42.094250999999936" lon="-1.4545329999999963">
        <ele>371.261</ele>
        <time>2022-06-17T12:55:11Z</time>
      </trkpt>
      <trkpt lat="42.09419399999994" lon="-1.4545419999999962">
        <ele>371.017</ele>
        <time>2022-06-17T12:55:12Z</time>
      </trkpt>
      <trkpt lat="42.093966999999935" lon="-1.4545319999999962">
        <ele>370.809</ele>
        <time>2022-06-17T12:55:16Z</time>
      </trkpt>
      <trkpt lat="42.093755999999935" lon="-1.454462999999996">
        <ele>370.679</ele>
        <time>2022-06-17T12:55:20Z</time>
      </trkpt>
      <trkpt lat="42.09371199999993" lon="-1.454432999999996">
        <ele>370.678</ele>
        <time>2022-06-17T12:55:21Z</time>
      </trkpt>
      <trkpt lat="42.09363699999993" lon="-1.4543839999999961">
        <ele>370.473</ele>
        <time>2022-06-17T12:55:23Z</time>
      </trkpt>
      <trkpt lat="42.09360399999993" lon="-1.454386999999996">
        <ele>370.265</ele>
        <time>2022-06-17T12:55:24Z</time>
      </trkpt>
      <trkpt lat="42.09344799999993" lon="-1.454506999999996">
        <ele>370.028</ele>
        <time>2022-06-17T12:55:28Z</time>
      </trkpt>
      <trkpt lat="42.093288999999935" lon="-1.454601999999996">
        <ele>370.031</ele>
        <time>2022-06-17T12:55:31Z</time>
      </trkpt>
      <trkpt lat="42.09317799999994" lon="-1.454628999999996">
        <ele>369.879</ele>
        <time>2022-06-17T12:55:33Z</time>
      </trkpt>
      <trkpt lat="42.093020999999936" lon="-1.4546409999999959">
        <ele>369.093</ele>
        <time>2022-06-17T12:55:36Z</time>
      </trkpt>
      <trkpt lat="42.09281499999994" lon="-1.4546419999999958">
        <ele>368.051</ele>
        <time>2022-06-17T12:55:40Z</time>
      </trkpt>
      <trkpt lat="42.09276099999994" lon="-1.4546399999999957">
        <ele>368.025</ele>
        <time>2022-06-17T12:55:41Z</time>
      </trkpt>
      <trkpt lat="42.09237599999994" lon="-1.4547079999999957">
        <ele>367.026</ele>
        <time>2022-06-17T12:55:48Z</time>
      </trkpt>
      <trkpt lat="42.09231899999994" lon="-1.4547219999999956">
        <ele>366.808</ele>
        <time>2022-06-17T12:55:49Z</time>
      </trkpt>
      <trkpt lat="42.09194799999994" lon="-1.4548289999999957">
        <ele>366.009</ele>
        <time>2022-06-17T12:55:55Z</time>
      </trkpt>
      <trkpt lat="42.09173699999994" lon="-1.4548879999999957">
        <ele>365.833</ele>
        <time>2022-06-17T12:55:58Z</time>
      </trkpt>
      <trkpt lat="42.09144999999994" lon="-1.4549829999999957">
        <ele>365.072</ele>
        <time>2022-06-17T12:56:02Z</time>
      </trkpt>
      <trkpt lat="42.09138299999994" lon="-1.4550089999999958">
        <ele>364.627</ele>
        <time>2022-06-17T12:56:03Z</time>
      </trkpt>
      <trkpt lat="42.091202999999936" lon="-1.4550759999999958">
        <ele>363.089</ele>
        <time>2022-06-17T12:56:06Z</time>
      </trkpt>
      <trkpt lat="42.09111799999994" lon="-1.4550949999999958">
        <ele>362.482</ele>
        <time>2022-06-17T12:56:08Z</time>
      </trkpt>
      <trkpt lat="42.09104999999994" lon="-1.4550879999999957">
        <ele>362.015</ele>
        <time>2022-06-17T12:56:10Z</time>
      </trkpt>
      <trkpt lat="42.09097999999994" lon="-1.4550489999999958">
        <ele>361.883</ele>
        <time>2022-06-17T12:56:12Z</time>
      </trkpt>
      <trkpt lat="42.09094499999994" lon="-1.4550199999999958">
        <ele>361.847</ele>
        <time>2022-06-17T12:56:13Z</time>
      </trkpt>
      <trkpt lat="42.09083299999994" lon="-1.4549149999999957">
        <ele>361.675</ele>
        <time>2022-06-17T12:56:16Z</time>
      </trkpt>
      <trkpt lat="42.09079599999994" lon="-1.4548979999999958">
        <ele>361.485</ele>
        <time>2022-06-17T12:56:17Z</time>
      </trkpt>
      <trkpt lat="42.090729999999944" lon="-1.4548879999999957">
        <ele>360.889</ele>
        <time>2022-06-17T12:56:19Z</time>
      </trkpt>
      <trkpt lat="42.09067399999994" lon="-1.4548729999999956">
        <ele>360.417</ele>
        <time>2022-06-17T12:56:21Z</time>
      </trkpt>
      <trkpt lat="42.09058999999994" lon="-1.4547979999999956">
        <ele>360.209</ele>
        <time>2022-06-17T12:56:26Z</time>
      </trkpt>
      <trkpt lat="42.09044499999994" lon="-1.4546269999999957">
        <ele>361.089</ele>
        <time>2022-06-17T12:56:34Z</time>
      </trkpt>
      <trkpt lat="42.090293999999936" lon="-1.4544709999999956">
        <ele>361.078</ele>
        <time>2022-06-17T12:56:41Z</time>
      </trkpt>
      <trkpt lat="42.09016699999994" lon="-1.4543539999999957">
        <ele>362.043</ele>
        <time>2022-06-17T12:56:47Z</time>
      </trkpt>
      <trkpt lat="42.09014899999994" lon="-1.4543339999999958">
        <ele>362.285</ele>
        <time>2022-06-17T12:56:48Z</time>
      </trkpt>
      <trkpt lat="42.09001799999994" lon="-1.4542399999999958">
        <ele>362.618</ele>
        <time>2022-06-17T12:56:54Z</time>
      </trkpt>
      <trkpt lat="42.08992399999994" lon="-1.4541799999999958">
        <ele>363.411</ele>
        <time>2022-06-17T12:56:59Z</time>
      </trkpt>
      <trkpt lat="42.08990499999994" lon="-1.4541669999999958">
        <ele>363.449</ele>
        <time>2022-06-17T12:57:00Z</time>
      </trkpt>
      <trkpt lat="42.08973599999994" lon="-1.4540649999999957">
        <ele>364.443</ele>
        <time>2022-06-17T12:57:08Z</time>
      </trkpt>
      <trkpt lat="42.08971399999994" lon="-1.4540469999999956">
        <ele>364.631</ele>
        <time>2022-06-17T12:57:09Z</time>
      </trkpt>
      <trkpt lat="42.08955499999994" lon="-1.4538959999999956">
        <ele>365.638</ele>
        <time>2022-06-17T12:57:16Z</time>
      </trkpt>
      <trkpt lat="42.08940599999994" lon="-1.4536889999999956">
        <ele>366.270</ele>
        <time>2022-06-17T12:57:24Z</time>
      </trkpt>
      <trkpt lat="42.08925099999994" lon="-1.4534269999999956">
        <ele>366.417</ele>
        <time>2022-06-17T12:57:33Z</time>
      </trkpt>
      <trkpt lat="42.08913399999994" lon="-1.4531199999999955">
        <ele>366.609</ele>
        <time>2022-06-17T12:57:42Z</time>
      </trkpt>
      <trkpt lat="42.089097999999936" lon="-1.4530089999999956">
        <ele>366.884</ele>
        <time>2022-06-17T12:57:45Z</time>
      </trkpt>
      <trkpt lat="42.08906399999994" lon="-1.4528619999999957">
        <ele>366.893</ele>
        <time>2022-06-17T12:57:49Z</time>
      </trkpt>
      <trkpt lat="42.08894699999993" lon="-1.4524939999999957">
        <ele>367.218</ele>
        <time>2022-06-17T12:57:59Z</time>
      </trkpt>
      <trkpt lat="42.08890299999993" lon="-1.4521809999999957">
        <ele>367.270</ele>
        <time>2022-06-17T12:58:07Z</time>
      </trkpt>
      <trkpt lat="42.08890499999993" lon="-1.4518179999999958">
        <ele>367.453</ele>
        <time>2022-06-17T12:58:16Z</time>
      </trkpt>
      <trkpt lat="42.088878999999935" lon="-1.4513709999999957">
        <ele>367.476</ele>
        <time>2022-06-17T12:58:27Z</time>
      </trkpt>
      <trkpt lat="42.088808999999934" lon="-1.4510149999999957">
        <ele>367.694</ele>
        <time>2022-06-17T12:58:36Z</time>
      </trkpt>
      <trkpt lat="42.08875399999993" lon="-1.4507719999999957">
        <ele>367.838</ele>
        <time>2022-06-17T12:58:43Z</time>
      </trkpt>
      <trkpt lat="42.08874499999993" lon="-1.4507379999999956">
        <ele>367.826</ele>
        <time>2022-06-17T12:58:44Z</time>
      </trkpt>
      <trkpt lat="42.08866699999993" lon="-1.4505029999999957">
        <ele>368.231</ele>
        <time>2022-06-17T12:58:51Z</time>
      </trkpt>
      <trkpt lat="42.08859599999993" lon="-1.4502949999999957">
        <ele>368.861</ele>
        <time>2022-06-17T12:58:57Z</time>
      </trkpt>
      <trkpt lat="42.08860699999993" lon="-1.4501459999999957">
        <ele>368.607</ele>
        <time>2022-06-17T12:59:02Z</time>
      </trkpt>
      <trkpt lat="42.08860699999993" lon="-1.4501399999999958">
        <ele>368.809</ele>
        <time>2022-06-17T12:59:05Z</time>
      </trkpt>
      <trkpt lat="42.08862199999993" lon="-1.4501089999999959">
        <ele>370.434</ele>
        <time>2022-06-17T13:07:21Z</time>
      </trkpt>
      <trkpt lat="42.08869299999993" lon="-1.4499069999999958">
        <ele>370.273</ele>
        <time>2022-06-17T13:07:26Z</time>
      </trkpt>
      <trkpt lat="42.088783999999926" lon="-1.449689999999996">
        <ele>369.878</ele>
        <time>2022-06-17T13:07:31Z</time>
      </trkpt>
      <trkpt lat="42.08888399999993" lon="-1.449433999999996">
        <ele>369.450</ele>
        <time>2022-06-17T13:07:36Z</time>
      </trkpt>
      <trkpt lat="42.08890899999993" lon="-1.4493699999999958">
        <ele>369.273</ele>
        <time>2022-06-17T13:07:37Z</time>
      </trkpt>
      <trkpt lat="42.08893199999993" lon="-1.4493169999999957">
        <ele>369.286</ele>
        <time>2022-06-17T13:07:38Z</time>
      </trkpt>
      <trkpt lat="42.08917299999993" lon="-1.4487869999999958">
        <ele>368.424</ele>
        <time>2022-06-17T13:07:48Z</time>
      </trkpt>
      <trkpt lat="42.08924699999993" lon="-1.4486259999999958">
        <ele>368.448</ele>
        <time>2022-06-17T13:07:51Z</time>
      </trkpt>
      <trkpt lat="42.089419999999926" lon="-1.4482549999999959">
        <ele>368.486</ele>
        <time>2022-06-17T13:07:58Z</time>
      </trkpt>
      <trkpt lat="42.08963199999992" lon="-1.4477859999999958">
        <ele>368.476</ele>
        <time>2022-06-17T13:08:07Z</time>
      </trkpt>
      <trkpt lat="42.08972299999992" lon="-1.4475839999999958">
        <ele>368.490</ele>
        <time>2022-06-17T13:08:11Z</time>
      </trkpt>
      <trkpt lat="42.09001499999992" lon="-1.4469609999999957">
        <ele>368.419</ele>
        <time>2022-06-17T13:08:24Z</time>
      </trkpt>
      <trkpt lat="42.09014299999992" lon="-1.4466779999999957">
        <ele>368.609</ele>
        <time>2022-06-17T13:08:30Z</time>
      </trkpt>
      <trkpt lat="42.09020999999992" lon="-1.4465189999999957">
        <ele>368.658</ele>
        <time>2022-06-17T13:08:33Z</time>
      </trkpt>
      <trkpt lat="42.09041799999992" lon="-1.4459909999999956">
        <ele>369.447</ele>
        <time>2022-06-17T13:08:44Z</time>
      </trkpt>
      <trkpt lat="42.090506999999924" lon="-1.4457439999999955">
        <ele>369.642</ele>
        <time>2022-06-17T13:08:49Z</time>
      </trkpt>
      <trkpt lat="42.090582999999924" lon="-1.4455479999999954">
        <ele>369.844</ele>
        <time>2022-06-17T13:08:53Z</time>
      </trkpt>
      <trkpt lat="42.090632999999926" lon="-1.4453959999999955">
        <ele>369.887</ele>
        <time>2022-06-17T13:08:56Z</time>
      </trkpt>
      <trkpt lat="42.090818999999925" lon="-1.4448829999999955">
        <ele>370.420</ele>
        <time>2022-06-17T13:09:06Z</time>
      </trkpt>
      <trkpt lat="42.090863999999925" lon="-1.4447379999999954">
        <ele>370.628</ele>
        <time>2022-06-17T13:09:09Z</time>
      </trkpt>
      <trkpt lat="42.090959999999924" lon="-1.4444309999999954">
        <ele>371.042</ele>
        <time>2022-06-17T13:09:15Z</time>
      </trkpt>
      <trkpt lat="42.09098999999993" lon="-1.4443299999999955">
        <ele>371.070</ele>
        <time>2022-06-17T13:09:17Z</time>
      </trkpt>
      <trkpt lat="42.091119999999925" lon="-1.4438639999999954">
        <ele>371.619</ele>
        <time>2022-06-17T13:09:26Z</time>
      </trkpt>
      <trkpt lat="42.09116599999992" lon="-1.4436969999999953">
        <ele>371.809</ele>
        <time>2022-06-17T13:09:29Z</time>
      </trkpt>
      <trkpt lat="42.09128799999992" lon="-1.4432339999999952">
        <ele>372.019</ele>
        <time>2022-06-17T13:09:38Z</time>
      </trkpt>
      <trkpt lat="42.09130299999992" lon="-1.4431729999999952">
        <ele>372.009</ele>
        <time>2022-06-17T13:09:39Z</time>
      </trkpt>
      <trkpt lat="42.09141599999992" lon="-1.4426469999999951">
        <ele>372.662</ele>
        <time>2022-06-17T13:09:49Z</time>
      </trkpt>
      <trkpt lat="42.091512999999914" lon="-1.4421959999999951">
        <ele>372.811</ele>
        <time>2022-06-17T13:09:57Z</time>
      </trkpt>
      <trkpt lat="42.091559999999916" lon="-1.4419639999999951">
        <ele>373.246</ele>
        <time>2022-06-17T13:10:01Z</time>
      </trkpt>
      <trkpt lat="42.091666999999916" lon="-1.441429999999995">
        <ele>373.878</ele>
        <time>2022-06-17T13:10:10Z</time>
      </trkpt>
      <trkpt lat="42.091700999999915" lon="-1.4412399999999952">
        <ele>374.081</ele>
        <time>2022-06-17T13:10:13Z</time>
      </trkpt>
      <trkpt lat="42.09178699999992" lon="-1.440776999999995">
        <ele>374.064</ele>
        <time>2022-06-17T13:10:21Z</time>
      </trkpt>
      <trkpt lat="42.09179499999992" lon="-1.4407169999999951">
        <ele>374.012</ele>
        <time>2022-06-17T13:10:22Z</time>
      </trkpt>
      <trkpt lat="42.09188599999992" lon="-1.4402609999999951">
        <ele>373.686</ele>
        <time>2022-06-17T13:10:30Z</time>
      </trkpt>
      <trkpt lat="42.09198599999992" lon="-1.439697999999995">
        <ele>373.684</ele>
        <time>2022-06-17T13:10:40Z</time>
      </trkpt>
      <trkpt lat="42.09211099999992" lon="-1.4390299999999951">
        <ele>374.635</ele>
        <time>2022-06-17T13:10:52Z</time>
      </trkpt>
      <trkpt lat="42.09222899999992" lon="-1.438417999999995">
        <ele>375.086</ele>
        <time>2022-06-17T13:11:03Z</time>
      </trkpt>
      <trkpt lat="42.092235999999914" lon="-1.4383629999999952">
        <ele>375.014</ele>
        <time>2022-06-17T13:11:04Z</time>
      </trkpt>
      <trkpt lat="42.09230499999992" lon="-1.4379449999999951">
        <ele>375.409</ele>
        <time>2022-06-17T13:11:12Z</time>
      </trkpt>
      <trkpt lat="42.092446999999915" lon="-1.4373579999999953">
        <ele>375.624</ele>
        <time>2022-06-17T13:11:23Z</time>
      </trkpt>
      <trkpt lat="42.092542999999914" lon="-1.4369839999999952">
        <ele>376.073</ele>
        <time>2022-06-17T13:11:30Z</time>
      </trkpt>
      <trkpt lat="42.09257499999991" lon="-1.4368649999999952">
        <ele>376.428</ele>
        <time>2022-06-17T13:11:32Z</time>
      </trkpt>
      <trkpt lat="42.09265999999991" lon="-1.436560999999995">
        <ele>377.240</ele>
        <time>2022-06-17T13:11:38Z</time>
      </trkpt>
      <trkpt lat="42.09280399999991" lon="-1.436042999999995">
        <ele>377.473</ele>
        <time>2022-06-17T13:11:47Z</time>
      </trkpt>
      <trkpt lat="42.09296799999991" lon="-1.435494999999995">
        <ele>377.826</ele>
        <time>2022-06-17T13:11:59Z</time>
      </trkpt>
      <trkpt lat="42.09309099999991" lon="-1.435130999999995">
        <ele>378.264</ele>
        <time>2022-06-17T13:12:06Z</time>
      </trkpt>
      <trkpt lat="42.09314599999991" lon="-1.434982999999995">
        <ele>378.428</ele>
        <time>2022-06-17T13:12:09Z</time>
      </trkpt>
      <trkpt lat="42.093307999999915" lon="-1.434539999999995">
        <ele>379.446</ele>
        <time>2022-06-17T13:12:20Z</time>
      </trkpt>
      <trkpt lat="42.09336899999992" lon="-1.434379999999995">
        <ele>379.688</ele>
        <time>2022-06-17T13:12:23Z</time>
      </trkpt>
      <trkpt lat="42.093414999999915" lon="-1.4342469999999952">
        <ele>379.824</ele>
        <time>2022-06-17T13:12:27Z</time>
      </trkpt>
      <trkpt lat="42.09348399999992" lon="-1.434066999999995">
        <ele>380.026</ele>
        <time>2022-06-17T13:12:31Z</time>
      </trkpt>
      <trkpt lat="42.09362899999992" lon="-1.433715999999995">
        <ele>380.609</ele>
        <time>2022-06-17T13:12:38Z</time>
      </trkpt>
      <trkpt lat="42.09371999999992" lon="-1.4335049999999951">
        <ele>381.279</ele>
        <time>2022-06-17T13:12:43Z</time>
      </trkpt>
      <trkpt lat="42.09385199999992" lon="-1.4332179999999952">
        <ele>381.488</ele>
        <time>2022-06-17T13:12:50Z</time>
      </trkpt>
      <trkpt lat="42.09400799999992" lon="-1.4328759999999952">
        <ele>381.693</ele>
        <time>2022-06-17T13:12:58Z</time>
      </trkpt>
      <trkpt lat="42.094019999999915" lon="-1.4328429999999952">
        <ele>381.885</ele>
        <time>2022-06-17T13:13:00Z</time>
      </trkpt>
      <trkpt lat="42.09418699999991" lon="-1.4325059999999952">
        <ele>382.668</ele>
        <time>2022-06-17T13:13:08Z</time>
      </trkpt>
      <trkpt lat="42.09429399999991" lon="-1.4323009999999952">
        <ele>382.831</ele>
        <time>2022-06-17T13:13:12Z</time>
      </trkpt>
      <trkpt lat="42.09431199999991" lon="-1.432266999999995">
        <ele>383.059</ele>
        <time>2022-06-17T13:13:13Z</time>
      </trkpt>
      <trkpt lat="42.09442099999991" lon="-1.4320639999999951">
        <ele>383.683</ele>
        <time>2022-06-17T13:13:19Z</time>
      </trkpt>
      <trkpt lat="42.09454999999991" lon="-1.4318259999999952">
        <ele>384.011</ele>
        <time>2022-06-17T13:13:24Z</time>
      </trkpt>
      <trkpt lat="42.094574999999914" lon="-1.431775999999995">
        <ele>384.243</ele>
        <time>2022-06-17T13:13:26Z</time>
      </trkpt>
      <trkpt lat="42.094785999999914" lon="-1.4313999999999951">
        <ele>385.064</ele>
        <time>2022-06-17T13:13:34Z</time>
      </trkpt>
      <trkpt lat="42.09482899999991" lon="-1.4313269999999951">
        <ele>385.410</ele>
        <time>2022-06-17T13:13:36Z</time>
      </trkpt>
      <trkpt lat="42.095027999999914" lon="-1.430971999999995">
        <ele>386.009</ele>
        <time>2022-06-17T13:13:44Z</time>
      </trkpt>
      <trkpt lat="42.09512199999991" lon="-1.430809999999995">
        <ele>386.695</ele>
        <time>2022-06-17T13:13:48Z</time>
      </trkpt>
      <trkpt lat="42.09526799999991" lon="-1.430553999999995">
        <ele>387.084</ele>
        <time>2022-06-17T13:13:54Z</time>
      </trkpt>
      <trkpt lat="42.09526799999991" lon="-1.430553999999995">
        <ele>387.219</ele>
        <time>2022-06-17T13:13:55Z</time>
      </trkpt>
      <trkpt lat="42.09537799999991" lon="-1.430357999999995">
        <ele>387.461</ele>
        <time>2022-06-17T13:13:59Z</time>
      </trkpt>
      <trkpt lat="42.09557199999991" lon="-1.430016999999995">
        <ele>387.644</ele>
        <time>2022-06-17T13:14:07Z</time>
      </trkpt>
      <trkpt lat="42.095888999999914" lon="-1.429462999999995">
        <ele>387.847</ele>
        <time>2022-06-17T13:14:20Z</time>
      </trkpt>
      <trkpt lat="42.09601699999991" lon="-1.429244999999995">
        <ele>387.415</ele>
        <time>2022-06-17T13:14:25Z</time>
      </trkpt>
      <trkpt lat="42.09607299999991" lon="-1.429150999999995">
        <ele>387.439</ele>
        <time>2022-06-17T13:14:27Z</time>
      </trkpt>
      <trkpt lat="42.09613299999991" lon="-1.429055999999995">
        <ele>387.457</ele>
        <time>2022-06-17T13:14:29Z</time>
      </trkpt>
      <trkpt lat="42.09639199999991" lon="-1.428603999999995">
        <ele>387.276</ele>
        <time>2022-06-17T13:14:38Z</time>
      </trkpt>
      <trkpt lat="42.09666699999991" lon="-1.428120999999995">
        <ele>387.090</ele>
        <time>2022-06-17T13:14:48Z</time>
      </trkpt>
      <trkpt lat="42.09672599999991" lon="-1.4280149999999951">
        <ele>387.019</ele>
        <time>2022-06-17T13:14:49Z</time>
      </trkpt>
      <trkpt lat="42.09705799999991" lon="-1.427440999999995">
        <ele>386.609</ele>
        <time>2022-06-17T13:15:01Z</time>
      </trkpt>
      <trkpt lat="42.09720699999991" lon="-1.427192999999995">
        <ele>386.468</ele>
        <time>2022-06-17T13:15:05Z</time>
      </trkpt>
      <trkpt lat="42.09734799999991" lon="-1.4269379999999952">
        <ele>386.057</ele>
        <time>2022-06-17T13:15:10Z</time>
      </trkpt>
      <trkpt lat="42.097436999999914" lon="-1.426781999999995">
        <ele>385.852</ele>
        <time>2022-06-17T13:15:13Z</time>
      </trkpt>
      <trkpt lat="42.09751099999991" lon="-1.4266489999999952">
        <ele>385.634</ele>
        <time>2022-06-17T13:15:17Z</time>
      </trkpt>
      <trkpt lat="42.097799999999914" lon="-1.4261159999999953">
        <ele>386.077</ele>
        <time>2022-06-17T13:15:27Z</time>
      </trkpt>
      <trkpt lat="42.09806299999991" lon="-1.4255709999999953">
        <ele>387.080</ele>
        <time>2022-06-17T13:15:38Z</time>
      </trkpt>
      <trkpt lat="42.09827499999991" lon="-1.4251279999999953">
        <ele>387.248</ele>
        <time>2022-06-17T13:15:47Z</time>
      </trkpt>
      <trkpt lat="42.09831599999991" lon="-1.4250279999999953">
        <ele>387.222</ele>
        <time>2022-06-17T13:15:49Z</time>
      </trkpt>
      <trkpt lat="42.09835899999991" lon="-1.4249269999999954">
        <ele>387.230</ele>
        <time>2022-06-17T13:15:51Z</time>
      </trkpt>
      <trkpt lat="42.09858999999991" lon="-1.4243949999999954">
        <ele>388.059</ele>
        <time>2022-06-17T13:16:02Z</time>
      </trkpt>
      <trkpt lat="42.09866499999991" lon="-1.4241909999999953">
        <ele>388.403</ele>
        <time>2022-06-17T13:16:06Z</time>
      </trkpt>
      <trkpt lat="42.09877199999991" lon="-1.4239379999999953">
        <ele>388.823</ele>
        <time>2022-06-17T13:16:11Z</time>
      </trkpt>
      <trkpt lat="42.09880499999991" lon="-1.4238369999999954">
        <ele>389.009</ele>
        <time>2022-06-17T13:16:13Z</time>
      </trkpt>
      <trkpt lat="42.098820999999916" lon="-1.4237999999999953">
        <ele>389.086</ele>
        <time>2022-06-17T13:16:14Z</time>
      </trkpt>
      <trkpt lat="42.098891999999914" lon="-1.4236219999999953">
        <ele>389.255</ele>
        <time>2022-06-17T13:16:19Z</time>
      </trkpt>
      <trkpt lat="42.098958999999915" lon="-1.4234029999999953">
        <ele>389.430</ele>
        <time>2022-06-17T13:16:23Z</time>
      </trkpt>
      <trkpt lat="42.09900799999991" lon="-1.4232719999999952">
        <ele>390.262</ele>
        <time>2022-06-17T13:16:26Z</time>
      </trkpt>
      <trkpt lat="42.09903699999991" lon="-1.4231919999999951">
        <ele>390.885</ele>
        <time>2022-06-17T13:16:28Z</time>
      </trkpt>
      <trkpt lat="42.09912599999991" lon="-1.4229369999999952">
        <ele>392.038</ele>
        <time>2022-06-17T13:16:34Z</time>
      </trkpt>
      <trkpt lat="42.09913499999991" lon="-1.4228999999999952">
        <ele>392.276</ele>
        <time>2022-06-17T13:16:35Z</time>
      </trkpt>
      <trkpt lat="42.09919399999991" lon="-1.422714999999995">
        <ele>393.240</ele>
        <time>2022-06-17T13:16:40Z</time>
      </trkpt>
      <trkpt lat="42.09920499999991" lon="-1.422680999999995">
        <ele>393.628</ele>
        <time>2022-06-17T13:16:42Z</time>
      </trkpt>
      <trkpt lat="42.09927599999991" lon="-1.422451999999995">
        <ele>394.272</ele>
        <time>2022-06-17T13:16:47Z</time>
      </trkpt>
      <trkpt lat="42.09933499999991" lon="-1.422253999999995">
        <ele>394.613</ele>
        <time>2022-06-17T13:16:52Z</time>
      </trkpt>
      <trkpt lat="42.09943899999991" lon="-1.421872999999995">
        <ele>395.214</ele>
        <time>2022-06-17T13:17:01Z</time>
      </trkpt>
      <trkpt lat="42.09948499999991" lon="-1.421714999999995">
        <ele>395.409</ele>
        <time>2022-06-17T13:17:04Z</time>
      </trkpt>
      <trkpt lat="42.09959099999991" lon="-1.421325999999995">
        <ele>395.278</ele>
        <time>2022-06-17T13:17:11Z</time>
      </trkpt>
      <trkpt lat="42.09974599999991" lon="-1.420740999999995">
        <ele>394.827</ele>
        <time>2022-06-17T13:17:19Z</time>
      </trkpt>
      <trkpt lat="42.09983799999991" lon="-1.420419999999995">
        <ele>394.252</ele>
        <time>2022-06-17T13:17:23Z</time>
      </trkpt>
      <trkpt lat="42.09995699999991" lon="-1.4200049999999949">
        <ele>393.484</ele>
        <time>2022-06-17T13:17:28Z</time>
      </trkpt>
      <trkpt lat="42.10000299999991" lon="-1.4198509999999949">
        <ele>393.247</ele>
        <time>2022-06-17T13:17:30Z</time>
      </trkpt>
      <trkpt lat="42.10005099999991" lon="-1.4196619999999949">
        <ele>392.630</ele>
        <time>2022-06-17T13:17:32Z</time>
      </trkpt>
      <trkpt lat="42.100085999999905" lon="-1.419506999999995">
        <ele>392.288</ele>
        <time>2022-06-17T13:17:34Z</time>
      </trkpt>
      <trkpt lat="42.1001319999999" lon="-1.419345999999995">
        <ele>391.832</ele>
        <time>2022-06-17T13:17:36Z</time>
      </trkpt>
      <trkpt lat="42.100274999999904" lon="-1.418815999999995">
        <ele>391.460</ele>
        <time>2022-06-17T13:17:43Z</time>
      </trkpt>
      <trkpt lat="42.1003659999999" lon="-1.418501999999995">
        <ele>391.485</ele>
        <time>2022-06-17T13:17:49Z</time>
      </trkpt>
      <trkpt lat="42.1004539999999" lon="-1.4181849999999951">
        <ele>393.489</ele>
        <time>2022-06-17T13:17:56Z</time>
      </trkpt>
      <trkpt lat="42.1005009999999" lon="-1.418012999999995">
        <ele>394.817</ele>
        <time>2022-06-17T13:18:00Z</time>
      </trkpt>
      <trkpt lat="42.1005629999999" lon="-1.4178179999999951">
        <ele>395.609</ele>
        <time>2022-06-17T13:18:05Z</time>
      </trkpt>
      <trkpt lat="42.1005739999999" lon="-1.4177789999999952">
        <ele>395.829</ele>
        <time>2022-06-17T13:18:06Z</time>
      </trkpt>
      <trkpt lat="42.1006419999999" lon="-1.4175739999999952">
        <ele>396.898</ele>
        <time>2022-06-17T13:18:12Z</time>
      </trkpt>
      <trkpt lat="42.1006559999999" lon="-1.4175399999999951">
        <ele>397.053</ele>
        <time>2022-06-17T13:18:13Z</time>
      </trkpt>
      <trkpt lat="42.1007369999999" lon="-1.4173369999999952">
        <ele>398.215</ele>
        <time>2022-06-17T13:18:20Z</time>
      </trkpt>
      <trkpt lat="42.1007769999999" lon="-1.4172509999999952">
        <ele>398.648</ele>
        <time>2022-06-17T13:18:22Z</time>
      </trkpt>
      <trkpt lat="42.1008259999999" lon="-1.417113999999995">
        <ele>399.281</ele>
        <time>2022-06-17T13:18:26Z</time>
      </trkpt>
      <trkpt lat="42.100902999999896" lon="-1.4169539999999952">
        <ele>400.049</ele>
        <time>2022-06-17T13:18:31Z</time>
      </trkpt>
      <trkpt lat="42.1009359999999" lon="-1.416884999999995">
        <ele>400.483</ele>
        <time>2022-06-17T13:18:33Z</time>
      </trkpt>
      <trkpt lat="42.1010109999999" lon="-1.4167379999999952">
        <ele>401.041</ele>
        <time>2022-06-17T13:18:38Z</time>
      </trkpt>
      <trkpt lat="42.1010499999999" lon="-1.4166569999999952">
        <ele>401.481</ele>
        <time>2022-06-17T13:18:41Z</time>
      </trkpt>
      <trkpt lat="42.1011659999999" lon="-1.416444999999995">
        <ele>402.661</ele>
        <time>2022-06-17T13:18:48Z</time>
      </trkpt>
      <trkpt lat="42.1011989999999" lon="-1.416388999999995">
        <ele>402.817</ele>
        <time>2022-06-17T13:18:50Z</time>
      </trkpt>
      <trkpt lat="42.101290999999904" lon="-1.416234999999995">
        <ele>403.609</ele>
        <time>2022-06-17T13:18:55Z</time>
      </trkpt>
      <trkpt lat="42.1014069999999" lon="-1.416067999999995">
        <ele>404.669</ele>
        <time>2022-06-17T13:19:01Z</time>
      </trkpt>
      <trkpt lat="42.101560999999904" lon="-1.415859999999995">
        <ele>405.638</ele>
        <time>2022-06-17T13:19:09Z</time>
      </trkpt>
      <trkpt lat="42.1016099999999" lon="-1.4158019999999951">
        <ele>405.893</ele>
        <time>2022-06-17T13:19:11Z</time>
      </trkpt>
      <trkpt lat="42.1017379999999" lon="-1.415651999999995">
        <ele>406.825</ele>
        <time>2022-06-17T13:19:17Z</time>
      </trkpt>
      <trkpt lat="42.1017999999999" lon="-1.415579999999995">
        <ele>407.218</ele>
        <time>2022-06-17T13:19:20Z</time>
      </trkpt>
      <trkpt lat="42.101884999999896" lon="-1.415489999999995">
        <ele>408.051</ele>
        <time>2022-06-17T13:19:24Z</time>
      </trkpt>
      <trkpt lat="42.102050999999896" lon="-1.415335999999995">
        <ele>409.089</ele>
        <time>2022-06-17T13:19:31Z</time>
      </trkpt>
      <trkpt lat="42.10207199999989" lon="-1.4153159999999951">
        <ele>409.083</ele>
        <time>2022-06-17T13:19:32Z</time>
      </trkpt>
      <trkpt lat="42.10224099999989" lon="-1.415143999999995">
        <ele>410.241</ele>
        <time>2022-06-17T13:19:40Z</time>
      </trkpt>
      <trkpt lat="42.102354999999896" lon="-1.415039999999995">
        <ele>410.676</ele>
        <time>2022-06-17T13:19:45Z</time>
      </trkpt>
      <trkpt lat="42.102492999999896" lon="-1.414927999999995">
        <ele>411.290</ele>
        <time>2022-06-17T13:19:51Z</time>
      </trkpt>
      <trkpt lat="42.1025119999999" lon="-1.414903999999995">
        <ele>411.419</ele>
        <time>2022-06-17T13:19:53Z</time>
      </trkpt>
      <trkpt lat="42.1026699999999" lon="-1.414749999999995">
        <ele>412.209</ele>
        <time>2022-06-17T13:19:59Z</time>
      </trkpt>
      <trkpt lat="42.102771999999895" lon="-1.414657999999995">
        <ele>412.628</ele>
        <time>2022-06-17T13:20:03Z</time>
      </trkpt>
      <trkpt lat="42.102909999999895" lon="-1.4145299999999952">
        <ele>413.477</ele>
        <time>2022-06-17T13:20:10Z</time>
      </trkpt>
      <trkpt lat="42.1030269999999" lon="-1.4144179999999953">
        <ele>413.422</ele>
        <time>2022-06-17T13:20:14Z</time>
      </trkpt>
      <trkpt lat="42.1033159999999" lon="-1.4141639999999953">
        <ele>414.044</ele>
        <time>2022-06-17T13:20:26Z</time>
      </trkpt>
      <trkpt lat="42.1035589999999" lon="-1.4139289999999953">
        <ele>414.457</ele>
        <time>2022-06-17T13:20:36Z</time>
      </trkpt>
      <trkpt lat="42.1036319999999" lon="-1.4138589999999953">
        <ele>414.430</ele>
        <time>2022-06-17T13:20:39Z</time>
      </trkpt>
      <trkpt lat="42.1038909999999" lon="-1.4135899999999952">
        <ele>414.648</ele>
        <time>2022-06-17T13:20:49Z</time>
      </trkpt>
      <trkpt lat="42.104071999999896" lon="-1.4133589999999951">
        <ele>414.662</ele>
        <time>2022-06-17T13:20:56Z</time>
      </trkpt>
      <trkpt lat="42.104190999999894" lon="-1.413192999999995">
        <ele>414.660</ele>
        <time>2022-06-17T13:21:00Z</time>
      </trkpt>
      <trkpt lat="42.104327999999896" lon="-1.412954999999995">
        <ele>414.621</ele>
        <time>2022-06-17T13:21:05Z</time>
      </trkpt>
      <trkpt lat="42.104583999999896" lon="-1.412393999999995">
        <ele>414.041</ele>
        <time>2022-06-17T13:21:15Z</time>
      </trkpt>
      <trkpt lat="42.1047329999999" lon="-1.411857999999995">
        <ele>413.605</ele>
        <time>2022-06-17T13:21:23Z</time>
      </trkpt>
      <trkpt lat="42.104795999999894" lon="-1.411495999999995">
        <ele>413.209</ele>
        <time>2022-06-17T13:21:28Z</time>
      </trkpt>
      <trkpt lat="42.104828999999896" lon="-1.411201999999995">
        <ele>412.273</ele>
        <time>2022-06-17T13:21:32Z</time>
      </trkpt>
      <trkpt lat="42.1048369999999" lon="-1.411128999999995">
        <ele>411.872</ele>
        <time>2022-06-17T13:21:33Z</time>
      </trkpt>
      <trkpt lat="42.10485799999989" lon="-1.410911999999995">
        <ele>411.277</ele>
        <time>2022-06-17T13:21:36Z</time>
      </trkpt>
      <trkpt lat="42.10486199999989" lon="-1.410693999999995">
        <ele>411.089</ele>
        <time>2022-06-17T13:21:39Z</time>
      </trkpt>
      <trkpt lat="42.10486299999989" lon="-1.410546999999995">
        <ele>411.022</ele>
        <time>2022-06-17T13:21:41Z</time>
      </trkpt>
      <trkpt lat="42.10487399999989" lon="-1.4100959999999951">
        <ele>410.045</ele>
        <time>2022-06-17T13:21:47Z</time>
      </trkpt>
      <trkpt lat="42.104880999999885" lon="-1.409802999999995">
        <ele>409.693</ele>
        <time>2022-06-17T13:21:52Z</time>
      </trkpt>
      <trkpt lat="42.10488199999988" lon="-1.409473999999995">
        <ele>409.667</ele>
        <time>2022-06-17T13:21:56Z</time>
      </trkpt>
      <trkpt lat="42.10488499999988" lon="-1.409414999999995">
        <ele>409.875</ele>
        <time>2022-06-17T13:21:58Z</time>
      </trkpt>
      <trkpt lat="42.10488799999988" lon="-1.4088519999999949">
        <ele>410.488</ele>
        <time>2022-06-17T13:22:07Z</time>
      </trkpt>
      <trkpt lat="42.104886999999884" lon="-1.408664999999995">
        <ele>411.024</ele>
        <time>2022-06-17T13:22:12Z</time>
      </trkpt>
      <trkpt lat="42.104889999999884" lon="-1.408448999999995">
        <ele>412.026</ele>
        <time>2022-06-17T13:22:16Z</time>
      </trkpt>
      <trkpt lat="42.104889999999884" lon="-1.408448999999995">
        <ele>412.209</ele>
        <time>2022-06-17T13:22:17Z</time>
      </trkpt>
      <trkpt lat="42.10488599999989" lon="-1.408166999999995">
        <ele>413.449</ele>
        <time>2022-06-17T13:22:23Z</time>
      </trkpt>
      <trkpt lat="42.10488799999989" lon="-1.408126999999995">
        <ele>413.678</ele>
        <time>2022-06-17T13:22:24Z</time>
      </trkpt>
      <trkpt lat="42.10489999999989" lon="-1.407816999999995">
        <ele>414.633</ele>
        <time>2022-06-17T13:22:32Z</time>
      </trkpt>
      <trkpt lat="42.104897999999885" lon="-1.407700999999995">
        <ele>415.085</ele>
        <time>2022-06-17T13:22:35Z</time>
      </trkpt>
      <trkpt lat="42.10490999999988" lon="-1.407583999999995">
        <ele>415.828</ele>
        <time>2022-06-17T13:22:38Z</time>
      </trkpt>
      <trkpt lat="42.10491699999988" lon="-1.407345999999995">
        <ele>416.651</ele>
        <time>2022-06-17T13:22:44Z</time>
      </trkpt>
      <trkpt lat="42.10493099999988" lon="-1.407210999999995">
        <ele>416.899</ele>
        <time>2022-06-17T13:22:47Z</time>
      </trkpt>
      <trkpt lat="42.10496399999988" lon="-1.407000999999995">
        <ele>416.843</ele>
        <time>2022-06-17T13:22:51Z</time>
      </trkpt>
      <trkpt lat="42.10507999999988" lon="-1.406623999999995">
        <ele>416.811</ele>
        <time>2022-06-17T13:22:57Z</time>
      </trkpt>
      <trkpt lat="42.10524499999988" lon="-1.406239999999995">
        <ele>416.015</ele>
        <time>2022-06-17T13:23:03Z</time>
      </trkpt>
      <trkpt lat="42.10532199999988" lon="-1.406098999999995">
        <ele>415.465</ele>
        <time>2022-06-17T13:23:05Z</time>
      </trkpt>
      <trkpt lat="42.10551899999988" lon="-1.4058009999999952">
        <ele>414.811</ele>
        <time>2022-06-17T13:23:10Z</time>
      </trkpt>
      <trkpt lat="42.10555999999988" lon="-1.4057519999999952">
        <ele>414.609</ele>
        <time>2022-06-17T13:23:11Z</time>
      </trkpt>
      <trkpt lat="42.105730999999885" lon="-1.4055679999999953">
        <ele>414.292</ele>
        <time>2022-06-17T13:23:15Z</time>
      </trkpt>
      <trkpt lat="42.10577199999989" lon="-1.4055329999999953">
        <ele>414.051</ele>
        <time>2022-06-17T13:23:17Z</time>
      </trkpt>
      <trkpt lat="42.106011999999886" lon="-1.4053139999999953">
        <ele>413.816</ele>
        <time>2022-06-17T13:23:23Z</time>
      </trkpt>
      <trkpt lat="42.106254999999884" lon="-1.4051339999999952">
        <ele>414.488</ele>
        <time>2022-06-17T13:23:29Z</time>
      </trkpt>
      <trkpt lat="42.10646399999988" lon="-1.4049519999999953">
        <ele>415.261</ele>
        <time>2022-06-17T13:23:37Z</time>
      </trkpt>
      <trkpt lat="42.10655399999988" lon="-1.4048689999999953">
        <ele>415.674</ele>
        <time>2022-06-17T13:23:39Z</time>
      </trkpt>
      <trkpt lat="42.10671199999988" lon="-1.4047249999999953">
        <ele>416.492</ele>
        <time>2022-06-17T13:23:45Z</time>
      </trkpt>
      <trkpt lat="42.10680999999988" lon="-1.4046429999999954">
        <ele>416.846</ele>
        <time>2022-06-17T13:23:49Z</time>
      </trkpt>
      <trkpt lat="42.10693999999988" lon="-1.4045089999999953">
        <ele>417.424</ele>
        <time>2022-06-17T13:23:55Z</time>
      </trkpt>
      <trkpt lat="42.10695999999988" lon="-1.4044829999999953">
        <ele>417.678</ele>
        <time>2022-06-17T13:23:56Z</time>
      </trkpt>
      <trkpt lat="42.10710799999988" lon="-1.4042879999999953">
        <ele>418.433</ele>
        <time>2022-06-17T13:24:03Z</time>
      </trkpt>
      <trkpt lat="42.107126999999885" lon="-1.4042579999999953">
        <ele>418.626</ele>
        <time>2022-06-17T13:24:04Z</time>
      </trkpt>
      <trkpt lat="42.107297999999886" lon="-1.4039129999999953">
        <ele>418.809</ele>
        <time>2022-06-17T13:24:15Z</time>
      </trkpt>
      <trkpt lat="42.107469999999886" lon="-1.4034049999999954">
        <ele>418.068</ele>
        <time>2022-06-17T13:24:25Z</time>
      </trkpt>
      <trkpt lat="42.107500999999885" lon="-1.4032319999999954">
        <ele>417.457</ele>
        <time>2022-06-17T13:24:28Z</time>
      </trkpt>
      <trkpt lat="42.107525999999886" lon="-1.4030669999999954">
        <ele>417.022</ele>
        <time>2022-06-17T13:24:30Z</time>
      </trkpt>
      <trkpt lat="42.107585999999884" lon="-1.4025899999999953">
        <ele>416.424</ele>
        <time>2022-06-17T13:24:36Z</time>
      </trkpt>
      <trkpt lat="42.10761299999989" lon="-1.4022769999999953">
        <ele>415.087</ele>
        <time>2022-06-17T13:24:40Z</time>
      </trkpt>
      <trkpt lat="42.10765499999989" lon="-1.4018089999999954">
        <ele>414.040</ele>
        <time>2022-06-17T13:24:48Z</time>
      </trkpt>
      <trkpt lat="42.107714999999885" lon="-1.4013029999999955">
        <ele>414.248</ele>
        <time>2022-06-17T13:24:56Z</time>
      </trkpt>
      <trkpt lat="42.10782599999988" lon="-1.4007089999999955">
        <ele>415.282</ele>
        <time>2022-06-17T13:25:08Z</time>
      </trkpt>
      <trkpt lat="42.10799299999988" lon="-1.4001389999999956">
        <ele>415.630</ele>
        <time>2022-06-17T13:25:20Z</time>
      </trkpt>
      <trkpt lat="42.10809799999988" lon="-1.3998559999999955">
        <ele>416.075</ele>
        <time>2022-06-17T13:25:26Z</time>
      </trkpt>
      <trkpt lat="42.10815099999988" lon="-1.3997159999999955">
        <ele>416.428</ele>
        <time>2022-06-17T13:25:29Z</time>
      </trkpt>
      <trkpt lat="42.108331999999876" lon="-1.3993279999999955">
        <ele>416.620</ele>
        <time>2022-06-17T13:25:38Z</time>
      </trkpt>
      <trkpt lat="42.108514999999876" lon="-1.3990089999999955">
        <ele>416.809</ele>
        <time>2022-06-17T13:25:46Z</time>
      </trkpt>
      <trkpt lat="42.10857899999988" lon="-1.3989019999999954">
        <ele>417.028</ele>
        <time>2022-06-17T13:25:49Z</time>
      </trkpt>
      <trkpt lat="42.10875799999988" lon="-1.3986399999999954">
        <ele>417.687</ele>
        <time>2022-06-17T13:25:56Z</time>
      </trkpt>
      <trkpt lat="42.108947999999884" lon="-1.3984219999999954">
        <ele>418.272</ele>
        <time>2022-06-17T13:26:04Z</time>
      </trkpt>
      <trkpt lat="42.109025999999886" lon="-1.3983289999999955">
        <ele>418.234</ele>
        <time>2022-06-17T13:26:06Z</time>
      </trkpt>
      <trkpt lat="42.109259999999885" lon="-1.3980739999999956">
        <ele>419.077</ele>
        <time>2022-06-17T13:26:15Z</time>
      </trkpt>
      <trkpt lat="42.10928699999989" lon="-1.3980469999999956">
        <ele>419.270</ele>
        <time>2022-06-17T13:26:16Z</time>
      </trkpt>
      <trkpt lat="42.10947199999989" lon="-1.3978709999999956">
        <ele>420.268</ele>
        <time>2022-06-17T13:26:23Z</time>
      </trkpt>
      <trkpt lat="42.10951699999989" lon="-1.3978219999999957">
        <ele>420.422</ele>
        <time>2022-06-17T13:26:25Z</time>
      </trkpt>
      <trkpt lat="42.10969999999989" lon="-1.3976559999999956">
        <ele>420.870</ele>
        <time>2022-06-17T13:26:32Z</time>
      </trkpt>
      <trkpt lat="42.10994599999989" lon="-1.3974279999999957">
        <ele>421.448</ele>
        <time>2022-06-17T13:26:41Z</time>
      </trkpt>
      <trkpt lat="42.11005299999989" lon="-1.3973229999999957">
        <ele>421.661</ele>
        <time>2022-06-17T13:26:45Z</time>
      </trkpt>
      <trkpt lat="42.110233999999885" lon="-1.3971599999999957">
        <ele>422.217</ele>
        <time>2022-06-17T13:26:52Z</time>
      </trkpt>
      <trkpt lat="42.11034799999989" lon="-1.3970279999999957">
        <ele>422.409</ele>
        <time>2022-06-17T13:26:57Z</time>
      </trkpt>
      <trkpt lat="42.11038999999989" lon="-1.3969689999999957">
        <ele>422.655</ele>
        <time>2022-06-17T13:26:59Z</time>
      </trkpt>
      <trkpt lat="42.11050599999989" lon="-1.3968229999999957">
        <ele>422.884</ele>
        <time>2022-06-17T13:27:04Z</time>
      </trkpt>
      <trkpt lat="42.11060699999989" lon="-1.3966749999999957">
        <ele>423.629</ele>
        <time>2022-06-17T13:27:09Z</time>
      </trkpt>
      <trkpt lat="42.11068299999989" lon="-1.3965359999999958">
        <ele>424.081</ele>
        <time>2022-06-17T13:27:14Z</time>
      </trkpt>
      <trkpt lat="42.11073699999989" lon="-1.3964309999999958">
        <ele>424.014</ele>
        <time>2022-06-17T13:27:16Z</time>
      </trkpt>
      <trkpt lat="42.11080699999989" lon="-1.3963019999999957">
        <ele>424.687</ele>
        <time>2022-06-17T13:27:20Z</time>
      </trkpt>
      <trkpt lat="42.110849999999886" lon="-1.3962029999999956">
        <ele>424.815</ele>
        <time>2022-06-17T13:27:23Z</time>
      </trkpt>
      <trkpt lat="42.11093599999989" lon="-1.3959629999999956">
        <ele>425.239</ele>
        <time>2022-06-17T13:27:30Z</time>
      </trkpt>
      <trkpt lat="42.110984999999886" lon="-1.3958019999999955">
        <ele>425.847</ele>
        <time>2022-06-17T13:27:35Z</time>
      </trkpt>
      <trkpt lat="42.11105499999989" lon="-1.3955789999999955">
        <ele>426.448</ele>
        <time>2022-06-17T13:27:41Z</time>
      </trkpt>
      <trkpt lat="42.111119999999886" lon="-1.3953819999999955">
        <ele>427.061</ele>
        <time>2022-06-17T13:27:46Z</time>
      </trkpt>
      <trkpt lat="42.11115199999988" lon="-1.3952659999999955">
        <ele>427.417</ele>
        <time>2022-06-17T13:27:49Z</time>
      </trkpt>
      <trkpt lat="42.11123999999988" lon="-1.3949649999999953">
        <ele>427.609</ele>
        <time>2022-06-17T13:27:57Z</time>
      </trkpt>
      <trkpt lat="42.111390999999884" lon="-1.3944639999999953">
        <ele>428.055</ele>
        <time>2022-06-17T13:28:09Z</time>
      </trkpt>
      <trkpt lat="42.111483999999884" lon="-1.3941679999999952">
        <ele>427.874</ele>
        <time>2022-06-17T13:28:16Z</time>
      </trkpt>
      <trkpt lat="42.11152699999988" lon="-1.3940299999999952">
        <ele>427.859</ele>
        <time>2022-06-17T13:28:19Z</time>
      </trkpt>
      <trkpt lat="42.11168799999988" lon="-1.3935129999999951">
        <ele>427.821</ele>
        <time>2022-06-17T13:28:31Z</time>
      </trkpt>
      <trkpt lat="42.11187999999988" lon="-1.392924999999995">
        <ele>428.054</ele>
        <time>2022-06-17T13:28:43Z</time>
      </trkpt>
      <trkpt lat="42.11203699999988" lon="-1.3924249999999951">
        <ele>428.277</ele>
        <time>2022-06-17T13:28:53Z</time>
      </trkpt>
      <trkpt lat="42.11223299999988" lon="-1.391826999999995">
        <ele>428.665</ele>
        <time>2022-06-17T13:29:05Z</time>
      </trkpt>
      <trkpt lat="42.112377999999886" lon="-1.391341999999995">
        <ele>428.099</ele>
        <time>2022-06-17T13:29:15Z</time>
      </trkpt>
      <trkpt lat="42.112557999999886" lon="-1.390792999999995">
        <ele>428.627</ele>
        <time>2022-06-17T13:29:27Z</time>
      </trkpt>
      <trkpt lat="42.112665999999884" lon="-1.390442999999995">
        <ele>428.886</ele>
        <time>2022-06-17T13:29:33Z</time>
      </trkpt>
      <trkpt lat="42.11270899999988" lon="-1.390304999999995">
        <ele>429.060</ele>
        <time>2022-06-17T13:29:37Z</time>
      </trkpt>
      <trkpt lat="42.11288999999988" lon="-1.389700999999995">
        <ele>429.226</ele>
        <time>2022-06-17T13:29:48Z</time>
      </trkpt>
      <trkpt lat="42.113045999999876" lon="-1.389197999999995">
        <ele>429.209</ele>
        <time>2022-06-17T13:29:58Z</time>
      </trkpt>
      <trkpt lat="42.113161999999875" lon="-1.388804999999995">
        <ele>429.889</ele>
        <time>2022-06-17T13:30:06Z</time>
      </trkpt>
      <trkpt lat="42.113242999999876" lon="-1.388563999999995">
        <ele>430.448</ele>
        <time>2022-06-17T13:30:11Z</time>
      </trkpt>
      <trkpt lat="42.11345799999987" lon="-1.387923999999995">
        <ele>430.893</ele>
        <time>2022-06-17T13:30:24Z</time>
      </trkpt>
      <trkpt lat="42.113623999999874" lon="-1.3874049999999951">
        <ele>430.835</ele>
        <time>2022-06-17T13:30:35Z</time>
      </trkpt>
      <trkpt lat="42.11366999999987" lon="-1.3872669999999951">
        <ele>431.038</ele>
        <time>2022-06-17T13:30:38Z</time>
      </trkpt>
      <trkpt lat="42.11383799999987" lon="-1.386824999999995">
        <ele>431.261</ele>
        <time>2022-06-17T13:30:48Z</time>
      </trkpt>
      <trkpt lat="42.114059999999874" lon="-1.386311999999995">
        <ele>431.889</ele>
        <time>2022-06-17T13:31:01Z</time>
      </trkpt>
      <trkpt lat="42.114123999999876" lon="-1.386166999999995">
        <ele>432.023</ele>
        <time>2022-06-17T13:31:05Z</time>
      </trkpt>
      <trkpt lat="42.11424899999987" lon="-1.3858849999999951">
        <ele>432.661</ele>
        <time>2022-06-17T13:31:13Z</time>
      </trkpt>
      <trkpt lat="42.114292999999876" lon="-1.3857849999999952">
        <ele>432.864</ele>
        <time>2022-06-17T13:31:16Z</time>
      </trkpt>
      <trkpt lat="42.114416999999875" lon="-1.3855249999999952">
        <ele>433.406</ele>
        <time>2022-06-17T13:31:24Z</time>
      </trkpt>
      <trkpt lat="42.11455699999988" lon="-1.3852549999999952">
        <ele>434.016</ele>
        <time>2022-06-17T13:31:33Z</time>
      </trkpt>
      <trkpt lat="42.11457099999988" lon="-1.3852229999999952">
        <ele>434.009</ele>
        <time>2022-06-17T13:31:34Z</time>
      </trkpt>
      <trkpt lat="42.11477099999988" lon="-1.3848439999999953">
        <ele>435.047</ele>
        <time>2022-06-17T13:31:46Z</time>
      </trkpt>
      <trkpt lat="42.114920999999875" lon="-1.3845659999999953">
        <ele>435.636</ele>
        <time>2022-06-17T13:31:56Z</time>
      </trkpt>
      <trkpt lat="42.115021999999875" lon="-1.3843879999999953">
        <ele>436.021</ele>
        <time>2022-06-17T13:32:01Z</time>
      </trkpt>
      <trkpt lat="42.11511599999987" lon="-1.3842309999999953">
        <ele>436.273</ele>
        <time>2022-06-17T13:32:06Z</time>
      </trkpt>
      <trkpt lat="42.11526899999987" lon="-1.3839719999999953">
        <ele>437.066</ele>
        <time>2022-06-17T13:32:15Z</time>
      </trkpt>
      <trkpt lat="42.11530499999987" lon="-1.3839089999999954">
        <ele>437.069</ele>
        <time>2022-06-17T13:32:17Z</time>
      </trkpt>
      <trkpt lat="42.115483999999874" lon="-1.3836189999999955">
        <ele>438.047</ele>
        <time>2022-06-17T13:32:27Z</time>
      </trkpt>
      <trkpt lat="42.115517999999874" lon="-1.3835619999999955">
        <ele>438.011</ele>
        <time>2022-06-17T13:32:29Z</time>
      </trkpt>
      <trkpt lat="42.115682999999876" lon="-1.3833059999999955">
        <ele>438.419</ele>
        <time>2022-06-17T13:32:39Z</time>
      </trkpt>
      <trkpt lat="42.115958999999876" lon="-1.3829019999999954">
        <ele>439.062</ele>
        <time>2022-06-17T13:32:52Z</time>
      </trkpt>
      <trkpt lat="42.11620799999987" lon="-1.3825509999999954">
        <ele>439.083</ele>
        <time>2022-06-17T13:33:02Z</time>
      </trkpt>
      <trkpt lat="42.11640499999987" lon="-1.3823159999999954">
        <ele>439.011</ele>
        <time>2022-06-17T13:33:09Z</time>
      </trkpt>
      <trkpt lat="42.116485999999874" lon="-1.3822189999999954">
        <ele>439.009</ele>
        <time>2022-06-17T13:33:10Z</time>
      </trkpt>
      <trkpt lat="42.116687999999876" lon="-1.3819599999999954">
        <ele>438.477</ele>
        <time>2022-06-17T13:33:15Z</time>
      </trkpt>
      <trkpt lat="42.11700699999987" lon="-1.3815489999999955">
        <ele>437.226</ele>
        <time>2022-06-17T13:33:21Z</time>
      </trkpt>
      <trkpt lat="42.117123999999876" lon="-1.3813949999999955">
        <ele>436.831</ele>
        <time>2022-06-17T13:33:23Z</time>
      </trkpt>
      <trkpt lat="42.117312999999875" lon="-1.3811629999999955">
        <ele>435.663</ele>
        <time>2022-06-17T13:33:26Z</time>
      </trkpt>
      <trkpt lat="42.117441999999876" lon="-1.3809989999999954">
        <ele>433.846</ele>
        <time>2022-06-17T13:33:28Z</time>
      </trkpt>
      <trkpt lat="42.11757599999988" lon="-1.3808309999999955">
        <ele>432.289</ele>
        <time>2022-06-17T13:33:30Z</time>
      </trkpt>
      <trkpt lat="42.11770999999988" lon="-1.3806629999999955">
        <ele>430.877</ele>
        <time>2022-06-17T13:33:32Z</time>
      </trkpt>
      <trkpt lat="42.11784599999988" lon="-1.3804919999999956">
        <ele>429.651</ele>
        <time>2022-06-17T13:33:34Z</time>
      </trkpt>
      <trkpt lat="42.11799299999988" lon="-1.3803069999999955">
        <ele>428.499</ele>
        <time>2022-06-17T13:33:36Z</time>
      </trkpt>
      <trkpt lat="42.118117999999875" lon="-1.3801569999999954">
        <ele>426.637</ele>
        <time>2022-06-17T13:33:38Z</time>
      </trkpt>
      <trkpt lat="42.118184999999876" lon="-1.3800729999999954">
        <ele>425.649</ele>
        <time>2022-06-17T13:33:39Z</time>
      </trkpt>
      <trkpt lat="42.118249999999875" lon="-1.3799889999999955">
        <ele>424.413</ele>
        <time>2022-06-17T13:33:41Z</time>
      </trkpt>
      <trkpt lat="42.11849999999988" lon="-1.3796759999999955">
        <ele>423.209</ele>
        <time>2022-06-17T13:33:44Z</time>
      </trkpt>
      <trkpt lat="42.11862299999988" lon="-1.3795259999999954">
        <ele>422.664</ele>
        <time>2022-06-17T13:33:46Z</time>
      </trkpt>
      <trkpt lat="42.11874099999988" lon="-1.3793749999999954">
        <ele>422.073</ele>
        <time>2022-06-17T13:33:48Z</time>
      </trkpt>
      <trkpt lat="42.11901099999988" lon="-1.3790049999999954">
        <ele>421.228</ele>
        <time>2022-06-17T13:33:53Z</time>
      </trkpt>
      <trkpt lat="42.11915799999988" lon="-1.3788209999999954">
        <ele>420.890</ele>
        <time>2022-06-17T13:33:56Z</time>
      </trkpt>
      <trkpt lat="42.11942199999988" lon="-1.3784919999999954">
        <ele>419.673</ele>
        <time>2022-06-17T13:34:01Z</time>
      </trkpt>
      <trkpt lat="42.11948999999988" lon="-1.3784089999999953">
        <ele>419.256</ele>
        <time>2022-06-17T13:34:03Z</time>
      </trkpt>
      <trkpt lat="42.11976199999988" lon="-1.3780809999999952">
        <ele>418.444</ele>
        <time>2022-06-17T13:34:07Z</time>
      </trkpt>
      <trkpt lat="42.119999999999884" lon="-1.3777789999999952">
        <ele>417.458</ele>
        <time>2022-06-17T13:34:11Z</time>
      </trkpt>
      <trkpt lat="42.12018099999988" lon="-1.3775359999999952">
        <ele>416.486</ele>
        <time>2022-06-17T13:34:14Z</time>
      </trkpt>
      <trkpt lat="42.12043499999988" lon="-1.3772069999999952">
        <ele>415.694</ele>
        <time>2022-06-17T13:34:18Z</time>
      </trkpt>
      <trkpt lat="42.12049899999988" lon="-1.3771229999999952">
        <ele>415.257</ele>
        <time>2022-06-17T13:34:19Z</time>
      </trkpt>
      <trkpt lat="42.12068999999988" lon="-1.3768639999999952">
        <ele>413.822</ele>
        <time>2022-06-17T13:34:22Z</time>
      </trkpt>
      <trkpt lat="42.12087599999988" lon="-1.3765909999999952">
        <ele>412.209</ele>
        <time>2022-06-17T13:34:25Z</time>
      </trkpt>
      <trkpt lat="42.12093899999988" lon="-1.3764979999999953">
        <ele>411.630</ele>
        <time>2022-06-17T13:34:26Z</time>
      </trkpt>
      <trkpt lat="42.12101299999988" lon="-1.3763899999999953">
        <ele>411.039</ele>
        <time>2022-06-17T13:34:27Z</time>
      </trkpt>
      <trkpt lat="42.12117299999988" lon="-1.3761329999999954">
        <ele>409.654</ele>
        <time>2022-06-17T13:34:30Z</time>
      </trkpt>
      <trkpt lat="42.12128299999988" lon="-1.3759519999999954">
        <ele>409.276</ele>
        <time>2022-06-17T13:34:32Z</time>
      </trkpt>
      <trkpt lat="42.12142099999988" lon="-1.3756869999999954">
        <ele>408.469</ele>
        <time>2022-06-17T13:34:35Z</time>
      </trkpt>
      <trkpt lat="42.12159799999988" lon="-1.3753539999999955">
        <ele>407.282</ele>
        <time>2022-06-17T13:34:39Z</time>
      </trkpt>
      <trkpt lat="42.12171599999988" lon="-1.3751209999999956">
        <ele>406.410</ele>
        <time>2022-06-17T13:34:42Z</time>
      </trkpt>
      <trkpt lat="42.12184999999988" lon="-1.3748309999999957">
        <ele>406.244</ele>
        <time>2022-06-17T13:34:46Z</time>
      </trkpt>
      <trkpt lat="42.12207299999988" lon="-1.3742999999999956">
        <ele>405.892</ele>
        <time>2022-06-17T13:34:54Z</time>
      </trkpt>
      <trkpt lat="42.12223399999988" lon="-1.3738619999999957">
        <ele>405.677</ele>
        <time>2022-06-17T13:35:02Z</time>
      </trkpt>
      <trkpt lat="42.12248199999988" lon="-1.3731139999999957">
        <ele>405.861</ele>
        <time>2022-06-17T13:35:13Z</time>
      </trkpt>
      <trkpt lat="42.12251199999988" lon="-1.3729909999999956">
        <ele>406.027</ele>
        <time>2022-06-17T13:35:15Z</time>
      </trkpt>
      <trkpt lat="42.12265499999988" lon="-1.3723709999999956">
        <ele>406.209</ele>
        <time>2022-06-17T13:35:25Z</time>
      </trkpt>
      <trkpt lat="42.12281199999988" lon="-1.3716219999999955">
        <ele>406.038</ele>
        <time>2022-06-17T13:35:37Z</time>
      </trkpt>
      <trkpt lat="42.122903999999885" lon="-1.3708959999999955">
        <ele>405.247</ele>
        <time>2022-06-17T13:35:49Z</time>
      </trkpt>
      <trkpt lat="42.122909999999884" lon="-1.3708369999999954">
        <ele>405.272</ele>
        <time>2022-06-17T13:35:50Z</time>
      </trkpt>
      <trkpt lat="42.12291599999988" lon="-1.3707789999999955">
        <ele>405.064</ele>
        <time>2022-06-17T13:35:51Z</time>
      </trkpt>
      <trkpt lat="42.12296699999988" lon="-1.3702059999999956">
        <ele>404.437</ele>
        <time>2022-06-17T13:36:01Z</time>
      </trkpt>
      <trkpt lat="42.122999999999884" lon="-1.3695309999999956">
        <ele>404.440</ele>
        <time>2022-06-17T13:36:12Z</time>
      </trkpt>
      <trkpt lat="42.122999999999884" lon="-1.3692079999999955">
        <ele>404.058</ele>
        <time>2022-06-17T13:36:17Z</time>
      </trkpt>
      <trkpt lat="42.122993999999885" lon="-1.3688839999999955">
        <ele>403.642</ele>
        <time>2022-06-17T13:36:22Z</time>
      </trkpt>
      <trkpt lat="42.12297899999989" lon="-1.3684809999999956">
        <ele>402.840</ele>
        <time>2022-06-17T13:36:28Z</time>
      </trkpt>
      <trkpt lat="42.12296399999989" lon="-1.3681989999999957">
        <ele>402.621</ele>
        <time>2022-06-17T13:36:32Z</time>
      </trkpt>
      <trkpt lat="42.12291099999989" lon="-1.3675919999999957">
        <ele>402.441</ele>
        <time>2022-06-17T13:36:40Z</time>
      </trkpt>
      <trkpt lat="42.12284899999989" lon="-1.3670419999999956">
        <ele>401.805</ele>
        <time>2022-06-17T13:36:47Z</time>
      </trkpt>
      <trkpt lat="42.12283799999989" lon="-1.3669579999999957">
        <ele>401.609</ele>
        <time>2022-06-17T13:36:48Z</time>
      </trkpt>
      <trkpt lat="42.12280899999989" lon="-1.3667099999999957">
        <ele>400.483</ele>
        <time>2022-06-17T13:36:51Z</time>
      </trkpt>
      <trkpt lat="42.12276099999989" lon="-1.3662859999999957">
        <ele>399.412</ele>
        <time>2022-06-17T13:36:56Z</time>
      </trkpt>
      <trkpt lat="42.12274999999989" lon="-1.3661979999999956">
        <ele>399.457</ele>
        <time>2022-06-17T13:36:57Z</time>
      </trkpt>
      <trkpt lat="42.12271699999989" lon="-1.3658369999999955">
        <ele>398.489</ele>
        <time>2022-06-17T13:37:01Z</time>
      </trkpt>
      <trkpt lat="42.12269999999989" lon="-1.3653709999999954">
        <ele>398.042</ele>
        <time>2022-06-17T13:37:06Z</time>
      </trkpt>
      <trkpt lat="42.122697999999886" lon="-1.3649859999999954">
        <ele>397.275</ele>
        <time>2022-06-17T13:37:11Z</time>
      </trkpt>
      <trkpt lat="42.12270799999989" lon="-1.3645079999999954">
        <ele>396.083</ele>
        <time>2022-06-17T13:37:15Z</time>
      </trkpt>
      <trkpt lat="42.12271699999989" lon="-1.3643199999999953">
        <ele>394.867</ele>
        <time>2022-06-17T13:37:17Z</time>
      </trkpt>
      <trkpt lat="42.122737999999885" lon="-1.3640399999999953">
        <ele>393.655</ele>
        <time>2022-06-17T13:37:20Z</time>
      </trkpt>
      <trkpt lat="42.122745999999886" lon="-1.3639479999999953">
        <ele>393.066</ele>
        <time>2022-06-17T13:37:21Z</time>
      </trkpt>
      <trkpt lat="42.12276499999989" lon="-1.3637579999999954">
        <ele>392.429</ele>
        <time>2022-06-17T13:37:23Z</time>
      </trkpt>
      <trkpt lat="42.122801999999886" lon="-1.3634679999999955">
        <ele>392.021</ele>
        <time>2022-06-17T13:37:26Z</time>
      </trkpt>
      <trkpt lat="42.122877999999886" lon="-1.3629909999999954">
        <ele>391.409</ele>
        <time>2022-06-17T13:37:31Z</time>
      </trkpt>
      <trkpt lat="42.12296799999989" lon="-1.3625239999999954">
        <ele>390.687</ele>
        <time>2022-06-17T13:37:36Z</time>
      </trkpt>
      <trkpt lat="42.123015999999886" lon="-1.3623429999999954">
        <ele>390.236</ele>
        <time>2022-06-17T13:37:38Z</time>
      </trkpt>
      <trkpt lat="42.12309299999988" lon="-1.3620279999999954">
        <ele>388.861</ele>
        <time>2022-06-17T13:37:42Z</time>
      </trkpt>
      <trkpt lat="42.123114999999885" lon="-1.3618989999999953">
        <ele>388.063</ele>
        <time>2022-06-17T13:37:45Z</time>
      </trkpt>
      <trkpt lat="42.123120999999884" lon="-1.3618669999999953">
        <ele>387.856</ele>
        <time>2022-06-17T13:37:48Z</time>
      </trkpt>
      <trkpt lat="42.123120999999884" lon="-1.3618669999999953">
        <ele>387.839</ele>
        <time>2022-06-17T13:37:49Z</time>
      </trkpt>
      <trkpt lat="42.12314199999988" lon="-1.3618459999999952">
        <ele>389.027</ele>
        <time>2022-06-17T13:40:50Z</time>
      </trkpt>
      <trkpt lat="42.123165999999884" lon="-1.3617869999999952">
        <ele>389.071</ele>
        <time>2022-06-17T13:40:52Z</time>
      </trkpt>
      <trkpt lat="42.12323799999989" lon="-1.361555999999995">
        <ele>389.069</ele>
        <time>2022-06-17T13:40:57Z</time>
      </trkpt>
      <trkpt lat="42.12330799999989" lon="-1.361308999999995">
        <ele>388.261</ele>
        <time>2022-06-17T13:41:01Z</time>
      </trkpt>
      <trkpt lat="42.123328999999885" lon="-1.361243999999995">
        <ele>387.621</ele>
        <time>2022-06-17T13:41:03Z</time>
      </trkpt>
      <trkpt lat="42.123373999999885" lon="-1.3611049999999951">
        <ele>387.213</ele>
        <time>2022-06-17T13:41:04Z</time>
      </trkpt>
      <trkpt lat="42.12347899999988" lon="-1.360746999999995">
        <ele>386.009</ele>
        <time>2022-06-17T13:41:09Z</time>
      </trkpt>
      <trkpt lat="42.12350199999988" lon="-1.360671999999995">
        <ele>385.437</ele>
        <time>2022-06-17T13:41:10Z</time>
      </trkpt>
      <trkpt lat="42.12354699999988" lon="-1.360521999999995">
        <ele>384.836</ele>
        <time>2022-06-17T13:41:12Z</time>
      </trkpt>
      <trkpt lat="42.12361299999988" lon="-1.360289999999995">
        <ele>383.841</ele>
        <time>2022-06-17T13:41:15Z</time>
      </trkpt>
      <trkpt lat="42.123748999999876" lon="-1.3598179999999949">
        <ele>383.453</ele>
        <time>2022-06-17T13:41:21Z</time>
      </trkpt>
      <trkpt lat="42.12379899999988" lon="-1.3596539999999948">
        <ele>382.886</ele>
        <time>2022-06-17T13:41:23Z</time>
      </trkpt>
      <trkpt lat="42.123914999999876" lon="-1.3592359999999948">
        <ele>381.829</ele>
        <time>2022-06-17T13:41:28Z</time>
      </trkpt>
      <trkpt lat="42.123940999999874" lon="-1.3591569999999948">
        <ele>381.667</ele>
        <time>2022-06-17T13:41:29Z</time>
      </trkpt>
      <trkpt lat="42.12402999999988" lon="-1.3588259999999948">
        <ele>380.441</ele>
        <time>2022-06-17T13:41:33Z</time>
      </trkpt>
      <trkpt lat="42.124139999999876" lon="-1.3584229999999948">
        <ele>379.629</ele>
        <time>2022-06-17T13:41:38Z</time>
      </trkpt>
      <trkpt lat="42.12416199999988" lon="-1.3583429999999947">
        <ele>379.487</ele>
        <time>2022-06-17T13:41:39Z</time>
      </trkpt>
      <trkpt lat="42.124362999999875" lon="-1.3576269999999948">
        <ele>378.442</ele>
        <time>2022-06-17T13:41:48Z</time>
      </trkpt>
      <trkpt lat="42.124382999999874" lon="-1.3575479999999949">
        <ele>378.226</ele>
        <time>2022-06-17T13:41:49Z</time>
      </trkpt>
      <trkpt lat="42.124424999999874" lon="-1.3573919999999948">
        <ele>377.809</ele>
        <time>2022-06-17T13:41:51Z</time>
      </trkpt>
      <trkpt lat="42.12451399999988" lon="-1.3570809999999949">
        <ele>377.249</ele>
        <time>2022-06-17T13:41:55Z</time>
      </trkpt>
      <trkpt lat="42.12462299999988" lon="-1.356690999999995">
        <ele>376.238</ele>
        <time>2022-06-17T13:42:00Z</time>
      </trkpt>
      <trkpt lat="42.12468799999988" lon="-1.356457999999995">
        <ele>376.233</ele>
        <time>2022-06-17T13:42:03Z</time>
      </trkpt>
      <trkpt lat="42.124840999999876" lon="-1.355906999999995">
        <ele>375.645</ele>
        <time>2022-06-17T13:42:10Z</time>
      </trkpt>
      <trkpt lat="42.12490799999988" lon="-1.355672999999995">
        <ele>375.278</ele>
        <time>2022-06-17T13:42:13Z</time>
      </trkpt>
      <trkpt lat="42.12507699999988" lon="-1.355048999999995">
        <ele>374.271</ele>
        <time>2022-06-17T13:42:21Z</time>
      </trkpt>
      <trkpt lat="42.12509899999988" lon="-1.354972999999995">
        <ele>374.039</ele>
        <time>2022-06-17T13:42:22Z</time>
      </trkpt>
      <trkpt lat="42.125245999999876" lon="-1.354438999999995">
        <ele>372.893</ele>
        <time>2022-06-17T13:42:29Z</time>
      </trkpt>
      <trkpt lat="42.125330999999875" lon="-1.354136999999995">
        <ele>371.681</ele>
        <time>2022-06-17T13:42:33Z</time>
      </trkpt>
      <trkpt lat="42.125414999999876" lon="-1.353836999999995">
        <ele>371.035</ele>
        <time>2022-06-17T13:42:37Z</time>
      </trkpt>
      <trkpt lat="42.12553799999988" lon="-1.3533989999999951">
        <ele>370.686</ele>
        <time>2022-06-17T13:42:43Z</time>
      </trkpt>
      <trkpt lat="42.12563699999988" lon="-1.353053999999995">
        <ele>370.014</ele>
        <time>2022-06-17T13:42:49Z</time>
      </trkpt>
      <trkpt lat="42.125800999999875" lon="-1.352470999999995">
        <ele>369.609</ele>
        <time>2022-06-17T13:42:57Z</time>
      </trkpt>
      <trkpt lat="42.125817999999875" lon="-1.3524049999999952">
        <ele>369.654</ele>
        <time>2022-06-17T13:42:59Z</time>
      </trkpt>
      <trkpt lat="42.126002999999876" lon="-1.3517169999999952">
        <ele>369.263</ele>
        <time>2022-06-17T13:43:08Z</time>
      </trkpt>
      <trkpt lat="42.126002999999876" lon="-1.3517169999999952">
        <ele>369.218</ele>
        <time>2022-06-17T13:43:09Z</time>
      </trkpt>
      <trkpt lat="42.126188999999876" lon="-1.351061999999995">
        <ele>368.850</ele>
        <time>2022-06-17T13:43:16Z</time>
      </trkpt>
      <trkpt lat="42.126309999999876" lon="-1.3506189999999951">
        <ele>367.673</ele>
        <time>2022-06-17T13:43:21Z</time>
      </trkpt>
      <trkpt lat="42.12640799999988" lon="-1.3502589999999952">
        <ele>366.866</ele>
        <time>2022-06-17T13:43:25Z</time>
      </trkpt>
      <trkpt lat="42.12643499999988" lon="-1.3501689999999953">
        <ele>366.454</ele>
        <time>2022-06-17T13:43:26Z</time>
      </trkpt>
      <trkpt lat="42.12652799999988" lon="-1.3498249999999954">
        <ele>365.298</ele>
        <time>2022-06-17T13:43:30Z</time>
      </trkpt>
      <trkpt lat="42.12659599999988" lon="-1.3495819999999954">
        <ele>364.276</ele>
        <time>2022-06-17T13:43:33Z</time>
      </trkpt>
      <trkpt lat="42.12663899999988" lon="-1.3494279999999954">
        <ele>364.053</ele>
        <time>2022-06-17T13:43:35Z</time>
      </trkpt>
      <trkpt lat="42.126810999999876" lon="-1.3487899999999955">
        <ele>363.604</ele>
        <time>2022-06-17T13:43:44Z</time>
      </trkpt>
      <trkpt lat="42.12695699999988" lon="-1.3482639999999955">
        <ele>363.614</ele>
        <time>2022-06-17T13:43:52Z</time>
      </trkpt>
      <trkpt lat="42.12712999999987" lon="-1.3476419999999956">
        <ele>363.209</ele>
        <time>2022-06-17T13:44:02Z</time>
      </trkpt>
      <trkpt lat="42.127182999999874" lon="-1.3474469999999956">
        <ele>363.246</ele>
        <time>2022-06-17T13:44:05Z</time>
      </trkpt>
      <trkpt lat="42.127216999999874" lon="-1.3473279999999956">
        <ele>363.055</ele>
        <time>2022-06-17T13:44:07Z</time>
      </trkpt>
      <trkpt lat="42.127339999999876" lon="-1.3469029999999957">
        <ele>363.240</ele>
        <time>2022-06-17T13:44:14Z</time>
      </trkpt>
      <trkpt lat="42.12752799999988" lon="-1.3462259999999957">
        <ele>363.042</ele>
        <time>2022-06-17T13:44:25Z</time>
      </trkpt>
      <trkpt lat="42.12771399999988" lon="-1.3455699999999957">
        <ele>362.245</ele>
        <time>2022-06-17T13:44:37Z</time>
      </trkpt>
      <trkpt lat="42.127742999999874" lon="-1.3454539999999957">
        <ele>362.298</ele>
        <time>2022-06-17T13:44:38Z</time>
      </trkpt>
      <trkpt lat="42.12794399999987" lon="-1.3447439999999957">
        <ele>361.856</ele>
        <time>2022-06-17T13:44:50Z</time>
      </trkpt>
      <trkpt lat="42.12814599999987" lon="-1.3440149999999957">
        <ele>361.430</ele>
        <time>2022-06-17T13:45:02Z</time>
      </trkpt>
      <trkpt lat="42.128322999999874" lon="-1.3433549999999956">
        <ele>361.298</ele>
        <time>2022-06-17T13:45:13Z</time>
      </trkpt>
      <trkpt lat="42.12837699999987" lon="-1.3431739999999956">
        <ele>361.225</ele>
        <time>2022-06-17T13:45:16Z</time>
      </trkpt>
      <trkpt lat="42.12847599999987" lon="-1.3427949999999957">
        <ele>361.226</ele>
        <time>2022-06-17T13:45:22Z</time>
      </trkpt>
      <trkpt lat="42.12849499999987" lon="-1.3427299999999958">
        <ele>361.008</ele>
        <time>2022-06-17T13:45:23Z</time>
      </trkpt>
      <trkpt lat="42.12865599999987" lon="-1.3421599999999958">
        <ele>360.809</ele>
        <time>2022-06-17T13:45:32Z</time>
      </trkpt>
      <trkpt lat="42.128848999999875" lon="-1.3414679999999959">
        <ele>360.423</ele>
        <time>2022-06-17T13:45:43Z</time>
      </trkpt>
      <trkpt lat="42.128879999999874" lon="-1.341342999999996">
        <ele>360.222</ele>
        <time>2022-06-17T13:45:45Z</time>
      </trkpt>
      <trkpt lat="42.129034999999874" lon="-1.340788999999996">
        <ele>359.827</ele>
        <time>2022-06-17T13:45:55Z</time>
      </trkpt>
      <trkpt lat="42.129222999999875" lon="-1.340122999999996">
        <ele>359.289</ele>
        <time>2022-06-17T13:46:05Z</time>
      </trkpt>
      <trkpt lat="42.12930899999988" lon="-1.339820999999996">
        <ele>359.272</ele>
        <time>2022-06-17T13:46:10Z</time>
      </trkpt>
      <trkpt lat="42.12945999999988" lon="-1.339269999999996">
        <ele>358.825</ele>
        <time>2022-06-17T13:46:19Z</time>
      </trkpt>
      <trkpt lat="42.12962299999988" lon="-1.338710999999996">
        <ele>358.473</ele>
        <time>2022-06-17T13:46:28Z</time>
      </trkpt>
      <trkpt lat="42.12968999999988" lon="-1.338454999999996">
        <ele>358.247</ele>
        <time>2022-06-17T13:46:32Z</time>
      </trkpt>
      <trkpt lat="42.12987599999988" lon="-1.337816999999996">
        <ele>357.885</ele>
        <time>2022-06-17T13:46:42Z</time>
      </trkpt>
      <trkpt lat="42.13004199999988" lon="-1.337166999999996">
        <ele>357.449</ele>
        <time>2022-06-17T13:46:53Z</time>
      </trkpt>
      <trkpt lat="42.130077999999884" lon="-1.336964999999996">
        <ele>357.202</ele>
        <time>2022-06-17T13:46:55Z</time>
      </trkpt>
      <trkpt lat="42.13015199999988" lon="-1.336423999999996">
        <ele>356.422</ele>
        <time>2022-06-17T13:47:03Z</time>
      </trkpt>
      <trkpt lat="42.13015799999988" lon="-1.3362849999999962">
        <ele>356.409</ele>
        <time>2022-06-17T13:47:05Z</time>
      </trkpt>
      <trkpt lat="42.13017699999988" lon="-1.335799999999996">
        <ele>356.045</ele>
        <time>2022-06-17T13:47:12Z</time>
      </trkpt>
      <trkpt lat="42.13016299999988" lon="-1.335058999999996">
        <ele>355.694</ele>
        <time>2022-06-17T13:47:23Z</time>
      </trkpt>
      <trkpt lat="42.13015999999988" lon="-1.334989999999996">
        <ele>355.679</ele>
        <time>2022-06-17T13:47:24Z</time>
      </trkpt>
      <trkpt lat="42.13014899999988" lon="-1.334648999999996">
        <ele>355.291</ele>
        <time>2022-06-17T13:47:29Z</time>
      </trkpt>
      <trkpt lat="42.130150999999884" lon="-1.334159999999996">
        <ele>355.214</ele>
        <time>2022-06-17T13:47:36Z</time>
      </trkpt>
      <trkpt lat="42.13021199999989" lon="-1.333410999999996">
        <ele>355.237</ele>
        <time>2022-06-17T13:47:47Z</time>
      </trkpt>
      <trkpt lat="42.13022299999989" lon="-1.333344999999996">
        <ele>355.215</ele>
        <time>2022-06-17T13:47:48Z</time>
      </trkpt>
      <trkpt lat="42.13033799999989" lon="-1.332746999999996">
        <ele>354.429</ele>
        <time>2022-06-17T13:47:58Z</time>
      </trkpt>
      <trkpt lat="42.13036899999989" lon="-1.332613999999996">
        <ele>354.267</ele>
        <time>2022-06-17T13:47:59Z</time>
      </trkpt>
      <trkpt lat="42.13050099999989" lon="-1.332086999999996">
        <ele>353.278</ele>
        <time>2022-06-17T13:48:07Z</time>
      </trkpt>
      <trkpt lat="42.13068999999989" lon="-1.331397999999996">
        <ele>352.633</ele>
        <time>2022-06-17T13:48:18Z</time>
      </trkpt>
      <trkpt lat="42.130712999999886" lon="-1.331284999999996">
        <ele>352.626</ele>
        <time>2022-06-17T13:48:20Z</time>
      </trkpt>
      <trkpt lat="42.13083599999989" lon="-1.330836999999996">
        <ele>353.009</ele>
        <time>2022-06-17T13:48:28Z</time>
      </trkpt>
      <trkpt lat="42.13095999999989" lon="-1.330393999999996">
        <ele>354.038</ele>
        <time>2022-06-17T13:48:37Z</time>
      </trkpt>
      <trkpt lat="42.13098799999989" lon="-1.330299999999996">
        <ele>354.257</ele>
        <time>2022-06-17T13:48:39Z</time>
      </trkpt>
      <trkpt lat="42.131064999999886" lon="-1.3299639999999961">
        <ele>354.472</ele>
        <time>2022-06-17T13:48:46Z</time>
      </trkpt>
      <trkpt lat="42.13120499999989" lon="-1.3294179999999962">
        <ele>355.454</ele>
        <time>2022-06-17T13:48:58Z</time>
      </trkpt>
      <trkpt lat="42.13120499999989" lon="-1.3294179999999962">
        <ele>355.427</ele>
        <time>2022-06-17T13:48:59Z</time>
      </trkpt>
      <trkpt lat="42.13133399999989" lon="-1.3289069999999963">
        <ele>356.030</ele>
        <time>2022-06-17T13:49:09Z</time>
      </trkpt>
      <trkpt lat="42.13143199999989" lon="-1.3285359999999964">
        <ele>356.078</ele>
        <time>2022-06-17T13:49:17Z</time>
      </trkpt>
      <trkpt lat="42.13155699999989" lon="-1.3280649999999963">
        <ele>356.472</ele>
        <time>2022-06-17T13:49:27Z</time>
      </trkpt>
      <trkpt lat="42.13158099999989" lon="-1.3279669999999963">
        <ele>356.650</ele>
        <time>2022-06-17T13:49:29Z</time>
      </trkpt>
      <trkpt lat="42.13173199999989" lon="-1.3273669999999964">
        <ele>357.066</ele>
        <time>2022-06-17T13:49:40Z</time>
      </trkpt>
      <trkpt lat="42.13191499999989" lon="-1.3266579999999963">
        <ele>355.829</ele>
        <time>2022-06-17T13:49:51Z</time>
      </trkpt>
      <trkpt lat="42.132026999999894" lon="-1.3260939999999963">
        <ele>355.621</ele>
        <time>2022-06-17T13:49:59Z</time>
      </trkpt>
      <trkpt lat="42.132037999999895" lon="-1.3260219999999963">
        <ele>355.409</ele>
        <time>2022-06-17T13:50:00Z</time>
      </trkpt>
      <trkpt lat="42.132118999999896" lon="-1.3253579999999963">
        <ele>354.837</ele>
        <time>2022-06-17T13:50:09Z</time>
      </trkpt>
      <trkpt lat="42.1321289999999" lon="-1.3251419999999963">
        <ele>354.286</ele>
        <time>2022-06-17T13:50:12Z</time>
      </trkpt>
      <trkpt lat="42.1321299999999" lon="-1.3246429999999962">
        <ele>353.891</ele>
        <time>2022-06-17T13:50:19Z</time>
      </trkpt>
      <trkpt lat="42.1321299999999" lon="-1.3241469999999962">
        <ele>353.453</ele>
        <time>2022-06-17T13:50:26Z</time>
      </trkpt>
      <trkpt lat="42.1321319999999" lon="-1.3239379999999963">
        <ele>353.246</ele>
        <time>2022-06-17T13:50:29Z</time>
      </trkpt>
      <trkpt lat="42.1321329999999" lon="-1.3231769999999963">
        <ele>352.659</ele>
        <time>2022-06-17T13:50:40Z</time>
      </trkpt>
      <trkpt lat="42.1321319999999" lon="-1.3230359999999963">
        <ele>352.677</ele>
        <time>2022-06-17T13:50:42Z</time>
      </trkpt>
      <trkpt lat="42.1321369999999" lon="-1.3228239999999962">
        <ele>352.451</ele>
        <time>2022-06-17T13:50:45Z</time>
      </trkpt>
      <trkpt lat="42.1321369999999" lon="-1.3225429999999962">
        <ele>352.019</ele>
        <time>2022-06-17T13:50:49Z</time>
      </trkpt>
      <trkpt lat="42.1321419999999" lon="-1.3219009999999962">
        <ele>351.473</ele>
        <time>2022-06-17T13:50:58Z</time>
      </trkpt>
      <trkpt lat="42.1321389999999" lon="-1.3217689999999962">
        <ele>351.285</ele>
        <time>2022-06-17T13:51:00Z</time>
      </trkpt>
      <trkpt lat="42.132140999999905" lon="-1.321170999999996">
        <ele>351.013</ele>
        <time>2022-06-17T13:51:09Z</time>
      </trkpt>
      <trkpt lat="42.13213699999991" lon="-1.3208569999999962">
        <ele>350.409</ele>
        <time>2022-06-17T13:51:14Z</time>
      </trkpt>
      <trkpt lat="42.132137999999905" lon="-1.320444999999996">
        <ele>350.078</ele>
        <time>2022-06-17T13:51:20Z</time>
      </trkpt>
      <trkpt lat="42.132140999999905" lon="-1.3199749999999961">
        <ele>349.687</ele>
        <time>2022-06-17T13:51:28Z</time>
      </trkpt>
      <trkpt lat="42.13214299999991" lon="-1.319840999999996">
        <ele>349.432</ele>
        <time>2022-06-17T13:51:29Z</time>
      </trkpt>
      <trkpt lat="42.132140999999905" lon="-1.319581999999996">
        <ele>349.264</ele>
        <time>2022-06-17T13:51:34Z</time>
      </trkpt>
      <trkpt lat="42.1321479999999" lon="-1.318930999999996">
        <ele>348.687</ele>
        <time>2022-06-17T13:51:44Z</time>
      </trkpt>
      <trkpt lat="42.1321539999999" lon="-1.3183899999999962">
        <ele>348.210</ele>
        <time>2022-06-17T13:51:51Z</time>
      </trkpt>
      <trkpt lat="42.1321589999999" lon="-1.317842999999996">
        <ele>348.298</ele>
        <time>2022-06-17T13:51:59Z</time>
      </trkpt>
      <trkpt lat="42.132157999999905" lon="-1.317232999999996">
        <ele>348.062</ele>
        <time>2022-06-17T13:52:08Z</time>
      </trkpt>
      <trkpt lat="42.132154999999905" lon="-1.316962999999996">
        <ele>347.460</ele>
        <time>2022-06-17T13:52:12Z</time>
      </trkpt>
      <trkpt lat="42.13215399999991" lon="-1.3164759999999962">
        <ele>347.275</ele>
        <time>2022-06-17T13:52:19Z</time>
      </trkpt>
      <trkpt lat="42.13215299999991" lon="-1.3157489999999963">
        <ele>347.028</ele>
        <time>2022-06-17T13:52:29Z</time>
      </trkpt>
      <trkpt lat="42.13215399999991" lon="-1.3150079999999962">
        <ele>346.620</ele>
        <time>2022-06-17T13:52:39Z</time>
      </trkpt>
      <trkpt lat="42.132151999999905" lon="-1.3146479999999963">
        <ele>346.409</ele>
        <time>2022-06-17T13:52:44Z</time>
      </trkpt>
      <trkpt lat="42.1321589999999" lon="-1.3142309999999964">
        <ele>346.288</ele>
        <time>2022-06-17T13:52:50Z</time>
      </trkpt>
      <trkpt lat="42.1321599999999" lon="-1.3135989999999964">
        <ele>345.457</ele>
        <time>2022-06-17T13:52:59Z</time>
      </trkpt>
      <trkpt lat="42.1321589999999" lon="-1.3134629999999965">
        <ele>345.432</ele>
        <time>2022-06-17T13:53:01Z</time>
      </trkpt>
      <trkpt lat="42.1321599999999" lon="-1.3129969999999964">
        <ele>345.254</ele>
        <time>2022-06-17T13:53:08Z</time>
      </trkpt>
      <trkpt lat="42.1321679999999" lon="-1.3124789999999964">
        <ele>344.827</ele>
        <time>2022-06-17T13:53:16Z</time>
      </trkpt>
      <trkpt lat="42.1321649999999" lon="-1.3120249999999964">
        <ele>344.640</ele>
        <time>2022-06-17T13:53:24Z</time>
      </trkpt>
      <trkpt lat="42.1321719999999" lon="-1.3117739999999964">
        <ele>344.658</ele>
        <time>2022-06-17T13:53:27Z</time>
      </trkpt>
      <trkpt lat="42.1321719999999" lon="-1.3115119999999965">
        <ele>344.422</ele>
        <time>2022-06-17T13:53:31Z</time>
      </trkpt>
      <trkpt lat="42.1321719999999" lon="-1.3115119999999965">
        <ele>344.270</ele>
        <time>2022-06-17T13:53:32Z</time>
      </trkpt>
      <trkpt lat="42.1321719999999" lon="-1.3108759999999964">
        <ele>343.691</ele>
        <time>2022-06-17T13:53:41Z</time>
      </trkpt>
      <trkpt lat="42.132166999999896" lon="-1.3105869999999964">
        <ele>343.681</ele>
        <time>2022-06-17T13:53:46Z</time>
      </trkpt>
      <trkpt lat="42.13216799999989" lon="-1.3105309999999963">
        <ele>343.419</ele>
        <time>2022-06-17T13:53:47Z</time>
      </trkpt>
      <trkpt lat="42.13217999999989" lon="-1.3104829999999963">
        <ele>343.409</ele>
        <time>2022-06-17T13:53:48Z</time>
      </trkpt>
      <trkpt lat="42.132234999999895" lon="-1.3104369999999963">
        <ele>343.470</ele>
        <time>2022-06-17T13:53:50Z</time>
      </trkpt>
      <trkpt lat="42.13236299999989" lon="-1.3104199999999964">
        <ele>343.429</ele>
        <time>2022-06-17T13:53:53Z</time>
      </trkpt>
      <trkpt lat="42.13250399999989" lon="-1.3104209999999963">
        <ele>343.454</ele>
        <time>2022-06-17T13:53:56Z</time>
      </trkpt>
      <trkpt lat="42.13282399999989" lon="-1.3104299999999962">
        <ele>343.446</ele>
        <time>2022-06-17T13:54:04Z</time>
      </trkpt>
      <trkpt lat="42.13317599999989" lon="-1.3104529999999963">
        <ele>343.669</ele>
        <time>2022-06-17T13:54:13Z</time>
      </trkpt>
      <trkpt lat="42.13360699999989" lon="-1.3104729999999962">
        <ele>343.412</ele>
        <time>2022-06-17T13:54:24Z</time>
      </trkpt>
      <trkpt lat="42.13370199999989" lon="-1.3104659999999961">
        <ele>343.480</ele>
        <time>2022-06-17T13:54:28Z</time>
      </trkpt>
      <trkpt lat="42.13383699999989" lon="-1.3103739999999962">
        <ele>343.684</ele>
        <time>2022-06-17T13:54:35Z</time>
      </trkpt>
      <trkpt lat="42.13384099999989" lon="-1.310366999999996">
        <ele>344.042</ele>
        <time>2022-06-17T13:54:38Z</time>
      </trkpt>
      <trkpt lat="42.13385299999989" lon="-1.310274999999996">
        <ele>344.446</ele>
        <time>2022-06-17T13:56:05Z</time>
      </trkpt>
      <trkpt lat="42.133898999999886" lon="-1.310056999999996">
        <ele>344.488</ele>
        <time>2022-06-17T13:56:11Z</time>
      </trkpt>
      <trkpt lat="42.13390299999988" lon="-1.309664999999996">
        <ele>344.016</ele>
        <time>2022-06-17T13:56:19Z</time>
      </trkpt>
      <trkpt lat="42.13390999999988" lon="-1.309290999999996">
        <ele>343.609</ele>
        <time>2022-06-17T13:56:27Z</time>
      </trkpt>
      <trkpt lat="42.13389399999988" lon="-1.308944999999996">
        <ele>343.665</ele>
        <time>2022-06-17T13:56:35Z</time>
      </trkpt>
      <trkpt lat="42.13392099999988" lon="-1.308731999999996">
        <ele>343.624</ele>
        <time>2022-06-17T13:56:41Z</time>
      </trkpt>
      <trkpt lat="42.13392899999988" lon="-1.308663999999996">
        <ele>343.689</ele>
        <time>2022-06-17T13:56:44Z</time>
      </trkpt>
      <trkpt lat="42.13389599999988" lon="-1.308620999999996">
        <ele>343.661</ele>
        <time>2022-06-17T13:56:46Z</time>
      </trkpt>
      <trkpt lat="42.133781999999876" lon="-1.308639999999996">
        <ele>343.674</ele>
        <time>2022-06-17T13:56:51Z</time>
      </trkpt>
      <trkpt lat="42.133562999999874" lon="-1.308702999999996">
        <ele>343.687</ele>
        <time>2022-06-17T13:56:59Z</time>
      </trkpt>
      <trkpt lat="42.13331599999987" lon="-1.308680999999996">
        <ele>343.455</ele>
        <time>2022-06-17T13:57:07Z</time>
      </trkpt>
      <trkpt lat="42.13316199999987" lon="-1.308701999999996">
        <ele>343.459</ele>
        <time>2022-06-17T13:57:13Z</time>
      </trkpt>
      <trkpt lat="42.13313399999987" lon="-1.308709999999996">
        <ele>343.477</ele>
        <time>2022-06-17T13:57:17Z</time>
      </trkpt>
      <trkpt lat="42.13309799999987" lon="-1.3087059999999962">
        <ele>343.665</ele>
        <time>2022-06-17T13:57:25Z</time>
      </trkpt>
      <trkpt lat="42.13300299999987" lon="-1.3087089999999961">
        <ele>343.668</ele>
        <time>2022-06-17T13:57:29Z</time>
      </trkpt>
      <trkpt lat="42.132690999999866" lon="-1.3087089999999961">
        <ele>343.214</ele>
        <time>2022-06-17T13:57:38Z</time>
      </trkpt>
      <trkpt lat="42.13257699999986" lon="-1.3087009999999961">
        <ele>343.209</ele>
        <time>2022-06-17T13:57:43Z</time>
      </trkpt>
      <trkpt lat="42.13244799999986" lon="-1.308666999999996">
        <ele>343.267</ele>
        <time>2022-06-17T13:57:49Z</time>
      </trkpt>
      <trkpt lat="42.132429999999864" lon="-1.3086629999999961">
        <ele>343.276</ele>
        <time>2022-06-17T13:57:53Z</time>
      </trkpt>
      <trkpt lat="42.132429999999864" lon="-1.3086629999999961">
        <ele>343.441</ele>
        <time>2022-06-17T13:57:54Z</time>
      </trkpt>
      <trkpt lat="42.13247399999987" lon="-1.3087129999999962">
        <ele>343.853</ele>
        <time>2022-06-17T13:58:13Z</time>
      </trkpt>
      <trkpt lat="42.132496999999866" lon="-1.3087149999999963">
        <ele>343.866</ele>
        <time>2022-06-17T13:58:14Z</time>
      </trkpt>
      <trkpt lat="42.132507999999866" lon="-1.3087139999999964">
        <ele>343.869</ele>
        <time>2022-06-17T13:58:15Z</time>
      </trkpt>
      <trkpt lat="42.132522999999864" lon="-1.3087109999999964">
        <ele>343.887</ele>
        <time>2022-06-17T13:58:16Z</time>
      </trkpt>
      <trkpt lat="42.13267299999986" lon="-1.3087069999999965">
        <ele>344.071</ele>
        <time>2022-06-17T13:58:21Z</time>
      </trkpt>
      <trkpt lat="42.13295099999986" lon="-1.3086789999999966">
        <ele>343.819</ele>
        <time>2022-06-17T13:58:30Z</time>
      </trkpt>
      <trkpt lat="42.133132999999866" lon="-1.3087229999999965">
        <ele>343.477</ele>
        <time>2022-06-17T13:58:37Z</time>
      </trkpt>
      <trkpt lat="42.133161999999864" lon="-1.3087759999999966">
        <ele>343.461</ele>
        <time>2022-06-17T13:58:39Z</time>
      </trkpt>
      <trkpt lat="42.13316899999986" lon="-1.3088589999999967">
        <ele>343.427</ele>
        <time>2022-06-17T13:58:41Z</time>
      </trkpt>
      <trkpt lat="42.13318499999986" lon="-1.3091979999999968">
        <ele>343.409</ele>
        <time>2022-06-17T13:58:48Z</time>
      </trkpt>
      <trkpt lat="42.13319199999986" lon="-1.3094569999999968">
        <ele>343.458</ele>
        <time>2022-06-17T13:58:54Z</time>
      </trkpt>
      <trkpt lat="42.13323699999986" lon="-1.3095179999999969">
        <ele>343.457</ele>
        <time>2022-06-17T13:58:57Z</time>
      </trkpt>
      <trkpt lat="42.13326599999986" lon="-1.3095289999999968">
        <ele>343.442</ele>
        <time>2022-06-17T13:58:58Z</time>
      </trkpt>
      <trkpt lat="42.13329599999986" lon="-1.3095319999999968">
        <ele>343.454</ele>
        <time>2022-06-17T13:58:59Z</time>
      </trkpt>
      <trkpt lat="42.13345999999986" lon="-1.3094949999999967">
        <ele>343.677</ele>
        <time>2022-06-17T13:59:05Z</time>
      </trkpt>
      <trkpt lat="42.13349099999986" lon="-1.3094999999999968">
        <ele>343.630</ele>
        <time>2022-06-17T13:59:09Z</time>
      </trkpt>
      <trkpt lat="42.13349099999986" lon="-1.3094999999999968">
        <ele>343.838</ele>
        <time>2022-06-17T13:59:10Z</time>
      </trkpt>
      <trkpt lat="42.13356099999986" lon="-1.3095669999999968">
        <ele>344.442</ele>
        <time>2022-06-17T14:01:48Z</time>
      </trkpt>
      <trkpt lat="42.13356599999986" lon="-1.3095609999999969">
        <ele>344.430</ele>
        <time>2022-06-17T14:01:50Z</time>
      </trkpt>
      <trkpt lat="42.13356599999986" lon="-1.3095609999999969">
        <ele>344.457</ele>
        <time>2022-06-17T14:01:53Z</time>
      </trkpt>
      <trkpt lat="42.13353399999986" lon="-1.3095109999999968">
        <ele>347.600</ele>
        <time>2022-06-17T14:41:04Z</time>
      </trkpt>
      <trkpt lat="42.13351699999986" lon="-1.3095069999999969">
        <ele>347.620</ele>
        <time>2022-06-17T14:41:05Z</time>
      </trkpt>
      <trkpt lat="42.133408999999865" lon="-1.3095109999999968">
        <ele>347.609</ele>
        <time>2022-06-17T14:41:09Z</time>
      </trkpt>
      <trkpt lat="42.13338299999987" lon="-1.3095169999999967">
        <ele>347.686</ele>
        <time>2022-06-17T14:41:10Z</time>
      </trkpt>
      <trkpt lat="42.133307999999865" lon="-1.3094879999999967">
        <ele>347.465</ele>
        <time>2022-06-17T14:41:13Z</time>
      </trkpt>
      <trkpt lat="42.133174999999866" lon="-1.3094539999999966">
        <ele>347.260</ele>
        <time>2022-06-17T14:41:19Z</time>
      </trkpt>
      <trkpt lat="42.13316599999987" lon="-1.3094249999999965">
        <ele>347.282</ele>
        <time>2022-06-17T14:41:20Z</time>
      </trkpt>
      <trkpt lat="42.13315799999987" lon="-1.3092529999999964">
        <ele>347.075</ele>
        <time>2022-06-17T14:41:24Z</time>
      </trkpt>
      <trkpt lat="42.13315099999987" lon="-1.3090059999999963">
        <ele>346.638</ele>
        <time>2022-06-17T14:41:30Z</time>
      </trkpt>
      <trkpt lat="42.13315099999987" lon="-1.3089769999999963">
        <ele>346.666</ele>
        <time>2022-06-17T14:41:31Z</time>
      </trkpt>
      <trkpt lat="42.13314999999987" lon="-1.3087579999999963">
        <ele>346.620</ele>
        <time>2022-06-17T14:41:37Z</time>
      </trkpt>
      <trkpt lat="42.13314199999987" lon="-1.3087339999999963">
        <ele>346.668</ele>
        <time>2022-06-17T14:41:38Z</time>
      </trkpt>
      <trkpt lat="42.13310099999987" lon="-1.3087059999999964">
        <ele>346.662</ele>
        <time>2022-06-17T14:41:40Z</time>
      </trkpt>
      <trkpt lat="42.132865999999865" lon="-1.3087189999999964">
        <ele>346.683</ele>
        <time>2022-06-17T14:41:47Z</time>
      </trkpt>
      <trkpt lat="42.13254399999987" lon="-1.3087279999999963">
        <ele>346.811</ele>
        <time>2022-06-17T14:41:56Z</time>
      </trkpt>
      <trkpt lat="42.132271999999865" lon="-1.3087269999999964">
        <ele>347.009</ele>
        <time>2022-06-17T14:42:04Z</time>
      </trkpt>
      <trkpt lat="42.132178999999866" lon="-1.3087209999999965">
        <ele>347.277</ele>
        <time>2022-06-17T14:42:08Z</time>
      </trkpt>
      <trkpt lat="42.131933999999866" lon="-1.3087059999999964">
        <ele>347.216</ele>
        <time>2022-06-17T14:42:15Z</time>
      </trkpt>
      <trkpt lat="42.13171399999987" lon="-1.3086999999999964">
        <ele>346.821</ele>
        <time>2022-06-17T14:42:21Z</time>
      </trkpt>
      <trkpt lat="42.131446999999866" lon="-1.3086779999999965">
        <ele>346.853</ele>
        <time>2022-06-17T14:42:29Z</time>
      </trkpt>
      <trkpt lat="42.13130199999986" lon="-1.3086809999999964">
        <ele>346.686</ele>
        <time>2022-06-17T14:42:34Z</time>
      </trkpt>
      <trkpt lat="42.13128299999986" lon="-1.3086659999999963">
        <ele>346.659</ele>
        <time>2022-06-17T14:42:35Z</time>
      </trkpt>
      <trkpt lat="42.13123299999986" lon="-1.3085649999999964">
        <ele>346.627</ele>
        <time>2022-06-17T14:42:39Z</time>
      </trkpt>
      <trkpt lat="42.13122399999986" lon="-1.3085129999999965">
        <ele>346.681</ele>
        <time>2022-06-17T14:42:41Z</time>
      </trkpt>
      <trkpt lat="42.13122499999986" lon="-1.3084479999999965">
        <ele>346.859</ele>
        <time>2022-06-17T14:42:47Z</time>
      </trkpt>
      <trkpt lat="42.13124099999986" lon="-1.3083429999999965">
        <ele>346.817</ele>
        <time>2022-06-17T14:42:52Z</time>
      </trkpt>
      <trkpt lat="42.13127199999986" lon="-1.3081989999999966">
        <ele>346.887</ele>
        <time>2022-06-17T14:42:58Z</time>
      </trkpt>
      <trkpt lat="42.13128099999986" lon="-1.3081789999999967">
        <ele>347.015</ele>
        <time>2022-06-17T14:43:01Z</time>
      </trkpt>
      <trkpt lat="42.13125199999986" lon="-1.3081989999999966">
        <ele>347.209</ele>
        <time>2022-06-17T14:44:50Z</time>
      </trkpt>
      <trkpt lat="42.13119399999986" lon="-1.3082099999999965">
        <ele>347.492</ele>
        <time>2022-06-17T14:44:53Z</time>
      </trkpt>
      <trkpt lat="42.13117999999986" lon="-1.3081989999999966">
        <ele>347.271</ele>
        <time>2022-06-17T14:44:54Z</time>
      </trkpt>
      <trkpt lat="42.13110399999986" lon="-1.3081229999999966">
        <ele>347.266</ele>
        <time>2022-06-17T14:45:00Z</time>
      </trkpt>
      <trkpt lat="42.13108999999986" lon="-1.3079459999999965">
        <ele>347.288</ele>
        <time>2022-06-17T14:45:05Z</time>
      </trkpt>
      <trkpt lat="42.13108499999986" lon="-1.3076439999999965">
        <ele>347.051</ele>
        <time>2022-06-17T14:45:11Z</time>
      </trkpt>
      <trkpt lat="42.13108399999986" lon="-1.3073249999999965">
        <ele>346.854</ele>
        <time>2022-06-17T14:45:17Z</time>
      </trkpt>
      <trkpt lat="42.13110699999986" lon="-1.3071379999999966">
        <ele>346.632</ele>
        <time>2022-06-17T14:45:22Z</time>
      </trkpt>
      <trkpt lat="42.131234999999855" lon="-1.3070629999999965">
        <ele>346.486</ele>
        <time>2022-06-17T14:45:27Z</time>
      </trkpt>
      <trkpt lat="42.13152899999985" lon="-1.3070739999999965">
        <ele>346.674</ele>
        <time>2022-06-17T14:45:35Z</time>
      </trkpt>
      <trkpt lat="42.13185799999985" lon="-1.3070629999999965">
        <ele>346.614</ele>
        <time>2022-06-17T14:45:43Z</time>
      </trkpt>
      <trkpt lat="42.132126999999855" lon="-1.3070749999999964">
        <ele>346.654</ele>
        <time>2022-06-17T14:45:51Z</time>
      </trkpt>
      <trkpt lat="42.13217399999986" lon="-1.3070499999999965">
        <ele>346.609</ele>
        <time>2022-06-17T14:45:53Z</time>
      </trkpt>
      <trkpt lat="42.13218499999986" lon="-1.3070159999999964">
        <ele>346.609</ele>
        <time>2022-06-17T14:45:54Z</time>
      </trkpt>
      <trkpt lat="42.13218799999986" lon="-1.3069769999999965">
        <ele>346.622</ele>
        <time>2022-06-17T14:45:55Z</time>
      </trkpt>
      <trkpt lat="42.132171999999855" lon="-1.3067899999999966">
        <ele>346.861</ele>
        <time>2022-06-17T14:45:59Z</time>
      </trkpt>
      <trkpt lat="42.13209699999985" lon="-1.3065489999999966">
        <ele>346.826</ele>
        <time>2022-06-17T14:46:04Z</time>
      </trkpt>
      <trkpt lat="42.132064999999855" lon="-1.3062839999999967">
        <ele>346.898</ele>
        <time>2022-06-17T14:46:09Z</time>
      </trkpt>
      <trkpt lat="42.13211099999985" lon="-1.3061269999999967">
        <ele>346.841</ele>
        <time>2022-06-17T14:46:12Z</time>
      </trkpt>
      <trkpt lat="42.13215599999985" lon="-1.3060299999999967">
        <ele>346.644</ele>
        <time>2022-06-17T14:46:14Z</time>
      </trkpt>
      <trkpt lat="42.132174999999854" lon="-1.3059779999999968">
        <ele>346.672</ele>
        <time>2022-06-17T14:46:15Z</time>
      </trkpt>
      <trkpt lat="42.13219299999985" lon="-1.3058549999999967">
        <ele>346.486</ele>
        <time>2022-06-17T14:46:17Z</time>
      </trkpt>
      <trkpt lat="42.132191999999854" lon="-1.3058049999999966">
        <ele>346.454</ele>
        <time>2022-06-17T14:46:18Z</time>
      </trkpt>
      <trkpt lat="42.132179999999856" lon="-1.3052749999999966">
        <ele>346.252</ele>
        <time>2022-06-17T14:46:26Z</time>
      </trkpt>
      <trkpt lat="42.13217099999986" lon="-1.3049399999999967">
        <ele>346.053</ele>
        <time>2022-06-17T14:46:31Z</time>
      </trkpt>
      <trkpt lat="42.13217699999986" lon="-1.3046079999999967">
        <ele>345.808</ele>
        <time>2022-06-17T14:46:36Z</time>
      </trkpt>
      <trkpt lat="42.132171999999855" lon="-1.3044719999999967">
        <ele>345.609</ele>
        <time>2022-06-17T14:46:38Z</time>
      </trkpt>
      <trkpt lat="42.13217399999986" lon="-1.3041279999999968">
        <ele>345.626</ele>
        <time>2022-06-17T14:46:43Z</time>
      </trkpt>
      <trkpt lat="42.13218799999986" lon="-1.303513999999997">
        <ele>345.425</ele>
        <time>2022-06-17T14:46:52Z</time>
      </trkpt>
      <trkpt lat="42.132207999999856" lon="-1.302892999999997">
        <ele>345.250</ele>
        <time>2022-06-17T14:47:01Z</time>
      </trkpt>
      <trkpt lat="42.13221199999985" lon="-1.302621999999997">
        <ele>344.892</ele>
        <time>2022-06-17T14:47:05Z</time>
      </trkpt>
      <trkpt lat="42.13221899999985" lon="-1.302149999999997">
        <ele>344.645</ele>
        <time>2022-06-17T14:47:12Z</time>
      </trkpt>
      <trkpt lat="42.13223799999985" lon="-1.301396999999997">
        <ele>344.058</ele>
        <time>2022-06-17T14:47:23Z</time>
      </trkpt>
      <trkpt lat="42.132239999999854" lon="-1.3012609999999971">
        <ele>343.836</ele>
        <time>2022-06-17T14:47:25Z</time>
      </trkpt>
      <trkpt lat="42.132250999999854" lon="-1.3007129999999971">
        <ele>343.620</ele>
        <time>2022-06-17T14:47:33Z</time>
      </trkpt>
      <trkpt lat="42.13226699999986" lon="-1.299952999999997">
        <ele>343.838</ele>
        <time>2022-06-17T14:47:44Z</time>
      </trkpt>
      <trkpt lat="42.13226899999986" lon="-1.2998139999999971">
        <ele>343.882</ele>
        <time>2022-06-17T14:47:46Z</time>
      </trkpt>
      <trkpt lat="42.13228599999986" lon="-1.2991359999999972">
        <ele>343.243</ele>
        <time>2022-06-17T14:47:56Z</time>
      </trkpt>
      <trkpt lat="42.132292999999855" lon="-1.2986589999999971">
        <ele>343.017</ele>
        <time>2022-06-17T14:48:03Z</time>
      </trkpt>
      <trkpt lat="42.132300999999856" lon="-1.298167999999997">
        <ele>343.009</ele>
        <time>2022-06-17T14:48:10Z</time>
      </trkpt>
      <trkpt lat="42.13231399999986" lon="-1.297379999999997">
        <ele>342.869</ele>
        <time>2022-06-17T14:48:21Z</time>
      </trkpt>
      <trkpt lat="42.13231399999986" lon="-1.2972389999999971">
        <ele>342.878</ele>
        <time>2022-06-17T14:48:23Z</time>
      </trkpt>
      <trkpt lat="42.13232299999986" lon="-1.2964239999999971">
        <ele>342.663</ele>
        <time>2022-06-17T14:48:35Z</time>
      </trkpt>
      <trkpt lat="42.13232299999986" lon="-1.2961079999999972">
        <ele>342.095</ele>
        <time>2022-06-17T14:48:40Z</time>
      </trkpt>
      <trkpt lat="42.13232599999986" lon="-1.295860999999997">
        <ele>341.818</ele>
        <time>2022-06-17T14:48:44Z</time>
      </trkpt>
      <trkpt lat="42.13232799999986" lon="-1.2952389999999971">
        <ele>341.871</ele>
        <time>2022-06-17T14:48:54Z</time>
      </trkpt>
      <trkpt lat="42.13232999999986" lon="-1.2945659999999972">
        <ele>341.819</ele>
        <time>2022-06-17T14:49:05Z</time>
      </trkpt>
      <trkpt lat="42.132328999999864" lon="-1.2939429999999972">
        <ele>341.653</ele>
        <time>2022-06-17T14:49:15Z</time>
      </trkpt>
      <trkpt lat="42.132330999999866" lon="-1.2932519999999972">
        <ele>341.851</ele>
        <time>2022-06-17T14:49:26Z</time>
      </trkpt>
      <trkpt lat="42.13232999999987" lon="-1.2926689999999972">
        <ele>341.855</ele>
        <time>2022-06-17T14:49:35Z</time>
      </trkpt>
      <trkpt lat="42.13232599999987" lon="-1.2921549999999973">
        <ele>341.607</ele>
        <time>2022-06-17T14:49:43Z</time>
      </trkpt>
      <trkpt lat="42.13233099999987" lon="-1.2914669999999973">
        <ele>341.617</ele>
        <time>2022-06-17T14:49:54Z</time>
      </trkpt>
      <trkpt lat="42.13232799999987" lon="-1.2907039999999972">
        <ele>341.809</ele>
        <time>2022-06-17T14:50:06Z</time>
      </trkpt>
      <trkpt lat="42.13232599999987" lon="-1.2905779999999971">
        <ele>341.856</ele>
        <time>2022-06-17T14:50:08Z</time>
      </trkpt>
      <trkpt lat="42.13232599999987" lon="-1.290041999999997">
        <ele>342.225</ele>
        <time>2022-06-17T14:50:17Z</time>
      </trkpt>
      <trkpt lat="42.13233299999987" lon="-1.289563999999997">
        <ele>342.620</ele>
        <time>2022-06-17T14:50:26Z</time>
      </trkpt>
      <trkpt lat="42.13232999999987" lon="-1.289353999999997">
        <ele>343.492</ele>
        <time>2022-06-17T14:50:30Z</time>
      </trkpt>
      <trkpt lat="42.132327999999866" lon="-1.289155999999997">
        <ele>344.245</ele>
        <time>2022-06-17T14:50:34Z</time>
      </trkpt>
      <trkpt lat="42.13232399999987" lon="-1.2890579999999972">
        <ele>344.468</ele>
        <time>2022-06-17T14:50:36Z</time>
      </trkpt>
      <trkpt lat="42.13232299999987" lon="-1.2888179999999971">
        <ele>345.446</ele>
        <time>2022-06-17T14:50:41Z</time>
      </trkpt>
      <trkpt lat="42.13232299999987" lon="-1.2885779999999971">
        <ele>346.480</ele>
        <time>2022-06-17T14:50:46Z</time>
      </trkpt>
      <trkpt lat="42.13232399999987" lon="-1.288527999999997">
        <ele>346.628</ele>
        <time>2022-06-17T14:50:47Z</time>
      </trkpt>
      <trkpt lat="42.13232699999987" lon="-1.288050999999997">
        <ele>347.678</ele>
        <time>2022-06-17T14:50:57Z</time>
      </trkpt>
      <trkpt lat="42.13232999999987" lon="-1.288003999999997">
        <ele>347.633</ele>
        <time>2022-06-17T14:50:58Z</time>
      </trkpt>
      <trkpt lat="42.13232699999987" lon="-1.287487999999997">
        <ele>348.026</ele>
        <time>2022-06-17T14:51:09Z</time>
      </trkpt>
      <trkpt lat="42.132330999999866" lon="-1.286972999999997">
        <ele>348.209</ele>
        <time>2022-06-17T14:51:19Z</time>
      </trkpt>
      <trkpt lat="42.13233299999987" lon="-1.286324999999997">
        <ele>348.478</ele>
        <time>2022-06-17T14:51:29Z</time>
      </trkpt>
      <trkpt lat="42.13233599999987" lon="-1.285800999999997">
        <ele>348.267</ele>
        <time>2022-06-17T14:51:36Z</time>
      </trkpt>
      <trkpt lat="42.132336999999865" lon="-1.2853439999999972">
        <ele>346.662</ele>
        <time>2022-06-17T14:51:42Z</time>
      </trkpt>
      <trkpt lat="42.13233899999987" lon="-1.2847719999999971">
        <ele>346.224</ele>
        <time>2022-06-17T14:51:50Z</time>
      </trkpt>
      <trkpt lat="42.132342999999864" lon="-1.2842069999999972">
        <ele>346.217</ele>
        <time>2022-06-17T14:51:59Z</time>
      </trkpt>
      <trkpt lat="42.13234599999986" lon="-1.2836089999999971">
        <ele>346.650</ele>
        <time>2022-06-17T14:52:09Z</time>
      </trkpt>
      <trkpt lat="42.132350999999865" lon="-1.282820999999997">
        <ele>347.478</ele>
        <time>2022-06-17T14:52:22Z</time>
      </trkpt>
      <trkpt lat="42.132350999999865" lon="-1.282524999999997">
        <ele>347.492</ele>
        <time>2022-06-17T14:52:27Z</time>
      </trkpt>
      <trkpt lat="42.13234899999986" lon="-1.282272999999997">
        <ele>347.650</ele>
        <time>2022-06-17T14:52:31Z</time>
      </trkpt>
      <trkpt lat="42.132350999999865" lon="-1.2819459999999971">
        <ele>347.675</ele>
        <time>2022-06-17T14:52:36Z</time>
      </trkpt>
      <trkpt lat="42.13234999999987" lon="-1.2814699999999972">
        <ele>347.828</ele>
        <time>2022-06-17T14:52:44Z</time>
      </trkpt>
      <trkpt lat="42.132353999999864" lon="-1.2807389999999972">
        <ele>347.820</ele>
        <time>2022-06-17T14:52:56Z</time>
      </trkpt>
      <trkpt lat="42.132350999999865" lon="-1.280677999999997">
        <ele>347.809</ele>
        <time>2022-06-17T14:52:57Z</time>
      </trkpt>
      <trkpt lat="42.13235299999987" lon="-1.279911999999997">
        <ele>347.478</ele>
        <time>2022-06-17T14:53:09Z</time>
      </trkpt>
      <trkpt lat="42.13235299999987" lon="-1.279842999999997">
        <ele>347.457</ele>
        <time>2022-06-17T14:53:10Z</time>
      </trkpt>
      <trkpt lat="42.13235199999987" lon="-1.279274999999997">
        <ele>346.662</ele>
        <time>2022-06-17T14:53:18Z</time>
      </trkpt>
      <trkpt lat="42.13235599999987" lon="-1.2791389999999971">
        <ele>346.474</ele>
        <time>2022-06-17T14:53:20Z</time>
      </trkpt>
      <trkpt lat="42.132356999999864" lon="-1.2790679999999972">
        <ele>346.477</ele>
        <time>2022-06-17T14:53:21Z</time>
      </trkpt>
      <trkpt lat="42.132358999999866" lon="-1.2784659999999972">
        <ele>346.260</ele>
        <time>2022-06-17T14:53:30Z</time>
      </trkpt>
      <trkpt lat="42.132361999999866" lon="-1.2780449999999972">
        <ele>346.478</ele>
        <time>2022-06-17T14:53:37Z</time>
      </trkpt>
      <trkpt lat="42.132356999999864" lon="-1.2775429999999972">
        <ele>347.082</ele>
        <time>2022-06-17T14:53:46Z</time>
      </trkpt>
      <trkpt lat="42.13235799999986" lon="-1.2773879999999973">
        <ele>347.650</ele>
        <time>2022-06-17T14:53:49Z</time>
      </trkpt>
      <trkpt lat="42.13235799999986" lon="-1.2770989999999973">
        <ele>348.436</ele>
        <time>2022-06-17T14:53:55Z</time>
      </trkpt>
      <trkpt lat="42.13236199999986" lon="-1.2769619999999973">
        <ele>348.617</ele>
        <time>2022-06-17T14:53:58Z</time>
      </trkpt>
      <trkpt lat="42.13236199999986" lon="-1.2766519999999972">
        <ele>349.218</ele>
        <time>2022-06-17T14:54:05Z</time>
      </trkpt>
      <trkpt lat="42.13236699999986" lon="-1.2764839999999973">
        <ele>349.609</ele>
        <time>2022-06-17T14:54:09Z</time>
      </trkpt>
      <trkpt lat="42.13236399999986" lon="-1.2762799999999972">
        <ele>350.444</ele>
        <time>2022-06-17T14:54:14Z</time>
      </trkpt>
      <trkpt lat="42.13236699999986" lon="-1.2761999999999971">
        <ele>350.853</ele>
        <time>2022-06-17T14:54:16Z</time>
      </trkpt>
      <trkpt lat="42.13236499999986" lon="-1.2759619999999972">
        <ele>351.878</ele>
        <time>2022-06-17T14:54:22Z</time>
      </trkpt>
      <trkpt lat="42.132365999999855" lon="-1.2757949999999971">
        <ele>352.250</ele>
        <time>2022-06-17T14:54:26Z</time>
      </trkpt>
      <trkpt lat="42.132365999999855" lon="-1.2755859999999972">
        <ele>352.823</ele>
        <time>2022-06-17T14:54:31Z</time>
      </trkpt>
      <trkpt lat="42.13236699999985" lon="-1.2754629999999971">
        <ele>353.226</ele>
        <time>2022-06-17T14:54:34Z</time>
      </trkpt>
      <trkpt lat="42.13235899999985" lon="-1.275228999999997">
        <ele>354.284</ele>
        <time>2022-06-17T14:54:40Z</time>
      </trkpt>
      <trkpt lat="42.13236299999985" lon="-1.2750199999999972">
        <ele>354.698</ele>
        <time>2022-06-17T14:54:45Z</time>
      </trkpt>
      <trkpt lat="42.13236299999985" lon="-1.274766999999997">
        <ele>355.256</ele>
        <time>2022-06-17T14:54:51Z</time>
      </trkpt>
      <trkpt lat="42.13236499999985" lon="-1.274545999999997">
        <ele>355.637</ele>
        <time>2022-06-17T14:54:56Z</time>
      </trkpt>
      <trkpt lat="42.13236699999985" lon="-1.274156999999997">
        <ele>356.049</ele>
        <time>2022-06-17T14:55:04Z</time>
      </trkpt>
      <trkpt lat="42.132368999999855" lon="-1.2739349999999972">
        <ele>356.213</ele>
        <time>2022-06-17T14:55:08Z</time>
      </trkpt>
      <trkpt lat="42.13236999999985" lon="-1.2733199999999971">
        <ele>356.209</ele>
        <time>2022-06-17T14:55:18Z</time>
      </trkpt>
      <trkpt lat="42.13238099999985" lon="-1.272710999999997">
        <ele>355.814</ele>
        <time>2022-06-17T14:55:26Z</time>
      </trkpt>
      <trkpt lat="42.132377999999854" lon="-1.2721779999999971">
        <ele>355.663</ele>
        <time>2022-06-17T14:55:32Z</time>
      </trkpt>
      <trkpt lat="42.13237599999985" lon="-1.2716789999999971">
        <ele>354.278</ele>
        <time>2022-06-17T14:55:37Z</time>
      </trkpt>
      <trkpt lat="42.13237599999985" lon="-1.271573999999997">
        <ele>353.870</ele>
        <time>2022-06-17T14:55:38Z</time>
      </trkpt>
      <trkpt lat="42.132371999999854" lon="-1.271355999999997">
        <ele>353.233</ele>
        <time>2022-06-17T14:55:40Z</time>
      </trkpt>
      <trkpt lat="42.132371999999854" lon="-1.271013999999997">
        <ele>352.056</ele>
        <time>2022-06-17T14:55:43Z</time>
      </trkpt>
      <trkpt lat="42.13237299999985" lon="-1.270899999999997">
        <ele>351.664</ele>
        <time>2022-06-17T14:55:44Z</time>
      </trkpt>
      <trkpt lat="42.132377999999854" lon="-1.270672999999997">
        <ele>350.838</ele>
        <time>2022-06-17T14:55:46Z</time>
      </trkpt>
      <trkpt lat="42.132374999999854" lon="-1.270338999999997">
        <ele>349.876</ele>
        <time>2022-06-17T14:55:49Z</time>
      </trkpt>
      <trkpt lat="42.13237599999985" lon="-1.270023999999997">
        <ele>348.854</ele>
        <time>2022-06-17T14:55:52Z</time>
      </trkpt>
      <trkpt lat="42.132374999999854" lon="-1.269825999999997">
        <ele>348.456</ele>
        <time>2022-06-17T14:55:54Z</time>
      </trkpt>
      <trkpt lat="42.132379999999856" lon="-1.269630999999997">
        <ele>347.411</ele>
        <time>2022-06-17T14:55:56Z</time>
      </trkpt>
      <trkpt lat="42.13237899999986" lon="-1.269247999999997">
        <ele>346.409</ele>
        <time>2022-06-17T14:56:00Z</time>
      </trkpt>
      <trkpt lat="42.13238099999986" lon="-1.2691549999999971">
        <ele>346.466</ele>
        <time>2022-06-17T14:56:01Z</time>
      </trkpt>
      <trkpt lat="42.13237899999986" lon="-1.2683629999999972">
        <ele>346.035</ele>
        <time>2022-06-17T14:56:10Z</time>
      </trkpt>
      <trkpt lat="42.13238499999986" lon="-1.2676179999999972">
        <ele>345.870</ele>
        <time>2022-06-17T14:56:19Z</time>
      </trkpt>
      <trkpt lat="42.13238699999986" lon="-1.2674489999999972">
        <ele>345.852</ele>
        <time>2022-06-17T14:56:21Z</time>
      </trkpt>
      <trkpt lat="42.13238499999986" lon="-1.2668929999999972">
        <ele>345.465</ele>
        <time>2022-06-17T14:56:28Z</time>
      </trkpt>
      <trkpt lat="42.132385999999855" lon="-1.266739999999997">
        <ele>345.458</ele>
        <time>2022-06-17T14:56:30Z</time>
      </trkpt>
      <trkpt lat="42.13238399999985" lon="-1.266662999999997">
        <ele>345.296</ele>
        <time>2022-06-17T14:56:31Z</time>
      </trkpt>
      <trkpt lat="42.13238999999985" lon="-1.265916999999997">
        <ele>345.260</ele>
        <time>2022-06-17T14:56:41Z</time>
      </trkpt>
      <trkpt lat="42.13238999999985" lon="-1.265843999999997">
        <ele>345.238</ele>
        <time>2022-06-17T14:56:42Z</time>
      </trkpt>
      <trkpt lat="42.13239599999985" lon="-1.265048999999997">
        <ele>345.222</ele>
        <time>2022-06-17T14:56:53Z</time>
      </trkpt>
      <trkpt lat="42.13239699999985" lon="-1.264841999999997">
        <ele>345.262</ele>
        <time>2022-06-17T14:56:56Z</time>
      </trkpt>
      <trkpt lat="42.13239899999985" lon="-1.264146999999997">
        <ele>345.008</ele>
        <time>2022-06-17T14:57:06Z</time>
      </trkpt>
      <trkpt lat="42.13239599999985" lon="-1.263405999999997">
        <ele>345.009</ele>
        <time>2022-06-17T14:57:17Z</time>
      </trkpt>
      <trkpt lat="42.13239699999985" lon="-1.2626319999999969">
        <ele>345.283</ele>
        <time>2022-06-17T14:57:29Z</time>
      </trkpt>
      <trkpt lat="42.13239699999985" lon="-1.262565999999997">
        <ele>345.222</ele>
        <time>2022-06-17T14:57:30Z</time>
      </trkpt>
      <trkpt lat="42.132394999999846" lon="-1.261784999999997">
        <ele>345.237</ele>
        <time>2022-06-17T14:57:42Z</time>
      </trkpt>
      <trkpt lat="42.132392999999844" lon="-1.261007999999997">
        <ele>345.429</ele>
        <time>2022-06-17T14:57:54Z</time>
      </trkpt>
      <trkpt lat="42.13239199999985" lon="-1.260816999999997">
        <ele>345.422</ele>
        <time>2022-06-17T14:57:57Z</time>
      </trkpt>
      <trkpt lat="42.13239399999985" lon="-1.260242999999997">
        <ele>345.655</ele>
        <time>2022-06-17T14:58:06Z</time>
      </trkpt>
      <trkpt lat="42.13239699999985" lon="-1.2599229999999968">
        <ele>345.453</ele>
        <time>2022-06-17T14:58:11Z</time>
      </trkpt>
      <trkpt lat="42.13239999999985" lon="-1.2594209999999968">
        <ele>345.687</ele>
        <time>2022-06-17T14:58:19Z</time>
      </trkpt>
      <trkpt lat="42.13239299999985" lon="-1.2587739999999967">
        <ele>345.615</ele>
        <time>2022-06-17T14:58:29Z</time>
      </trkpt>
      <trkpt lat="42.13239599999985" lon="-1.2580399999999967">
        <ele>345.832</ele>
        <time>2022-06-17T14:58:40Z</time>
      </trkpt>
      <trkpt lat="42.13240299999985" lon="-1.2573829999999968">
        <ele>345.892</ele>
        <time>2022-06-17T14:58:50Z</time>
      </trkpt>
      <trkpt lat="42.13241099999985" lon="-1.2566209999999969">
        <ele>345.611</ele>
        <time>2022-06-17T14:59:02Z</time>
      </trkpt>
      <trkpt lat="42.13241599999985" lon="-1.2559569999999969">
        <ele>345.809</ele>
        <time>2022-06-17T14:59:12Z</time>
      </trkpt>
      <trkpt lat="42.13242199999985" lon="-1.2552119999999969">
        <ele>345.824</ele>
        <time>2022-06-17T14:59:23Z</time>
      </trkpt>
      <trkpt lat="42.13242499999985" lon="-1.254938999999997">
        <ele>345.843</ele>
        <time>2022-06-17T14:59:27Z</time>
      </trkpt>
      <trkpt lat="42.132425999999846" lon="-1.2542459999999969">
        <ele>345.278</ele>
        <time>2022-06-17T14:59:37Z</time>
      </trkpt>
      <trkpt lat="42.13242699999984" lon="-1.253653999999997">
        <ele>345.280</ele>
        <time>2022-06-17T14:59:46Z</time>
      </trkpt>
      <trkpt lat="42.13243299999984" lon="-1.252972999999997">
        <ele>345.873</ele>
        <time>2022-06-17T14:59:57Z</time>
      </trkpt>
      <trkpt lat="42.13243099999984" lon="-1.252685999999997">
        <ele>346.676</ele>
        <time>2022-06-17T15:00:02Z</time>
      </trkpt>
      <trkpt lat="42.13243199999984" lon="-1.2522909999999972">
        <ele>347.494</ele>
        <time>2022-06-17T15:00:09Z</time>
      </trkpt>
      <trkpt lat="42.132432999999835" lon="-1.2522389999999972">
        <ele>347.898</ele>
        <time>2022-06-17T15:00:10Z</time>
      </trkpt>
      <trkpt lat="42.132432999999835" lon="-1.2518619999999971">
        <ele>348.886</ele>
        <time>2022-06-17T15:00:17Z</time>
      </trkpt>
      <trkpt lat="42.13243199999984" lon="-1.2516489999999971">
        <ele>349.096</ele>
        <time>2022-06-17T15:00:21Z</time>
      </trkpt>
      <trkpt lat="42.13243399999984" lon="-1.251274999999997">
        <ele>349.831</ele>
        <time>2022-06-17T15:00:28Z</time>
      </trkpt>
      <trkpt lat="42.13242999999984" lon="-1.250689999999997">
        <ele>350.424</ele>
        <time>2022-06-17T15:00:38Z</time>
      </trkpt>
      <trkpt lat="42.13243099999984" lon="-1.250247999999997">
        <ele>351.009</ele>
        <time>2022-06-17T15:00:45Z</time>
      </trkpt>
      <trkpt lat="42.13242799999984" lon="-1.2498389999999968">
        <ele>351.080</ele>
        <time>2022-06-17T15:00:51Z</time>
      </trkpt>
      <trkpt lat="42.13243399999984" lon="-1.2490609999999969">
        <ele>350.699</ele>
        <time>2022-06-17T15:01:02Z</time>
      </trkpt>
      <trkpt lat="42.13243499999984" lon="-1.2484699999999969">
        <ele>349.834</ele>
        <time>2022-06-17T15:01:10Z</time>
      </trkpt>
      <trkpt lat="42.13243999999984" lon="-1.2480949999999968">
        <ele>349.416</ele>
        <time>2022-06-17T15:01:15Z</time>
      </trkpt>
      <trkpt lat="42.13243599999984" lon="-1.2474979999999969">
        <ele>348.859</ele>
        <time>2022-06-17T15:01:23Z</time>
      </trkpt>
      <trkpt lat="42.132440999999844" lon="-1.2469939999999968">
        <ele>348.432</ele>
        <time>2022-06-17T15:01:30Z</time>
      </trkpt>
      <trkpt lat="42.132440999999844" lon="-1.2462979999999968">
        <ele>348.430</ele>
        <time>2022-06-17T15:01:40Z</time>
      </trkpt>
      <trkpt lat="42.132448999999845" lon="-1.2456079999999967">
        <ele>348.844</ele>
        <time>2022-06-17T15:01:50Z</time>
      </trkpt>
      <trkpt lat="42.13245099999985" lon="-1.2448429999999968">
        <ele>349.022</ele>
        <time>2022-06-17T15:02:01Z</time>
      </trkpt>
      <trkpt lat="42.132451999999844" lon="-1.2447739999999967">
        <ele>348.834</ele>
        <time>2022-06-17T15:02:02Z</time>
      </trkpt>
      <trkpt lat="42.132451999999844" lon="-1.2440309999999968">
        <ele>349.255</ele>
        <time>2022-06-17T15:02:13Z</time>
      </trkpt>
      <trkpt lat="42.132454999999844" lon="-1.2438389999999968">
        <ele>349.210</ele>
        <time>2022-06-17T15:02:16Z</time>
      </trkpt>
      <trkpt lat="42.132454999999844" lon="-1.2430879999999969">
        <ele>349.409</ele>
        <time>2022-06-17T15:02:27Z</time>
      </trkpt>
      <trkpt lat="42.13245299999984" lon="-1.2428859999999968">
        <ele>349.454</ele>
        <time>2022-06-17T15:02:30Z</time>
      </trkpt>
      <trkpt lat="42.13245899999984" lon="-1.2421119999999968">
        <ele>349.813</ele>
        <time>2022-06-17T15:02:42Z</time>
      </trkpt>
      <trkpt lat="42.13245999999984" lon="-1.2419409999999969">
        <ele>350.238</ele>
        <time>2022-06-17T15:02:45Z</time>
      </trkpt>
      <trkpt lat="42.13245899999984" lon="-1.241491999999997">
        <ele>351.020</ele>
        <time>2022-06-17T15:02:53Z</time>
      </trkpt>
      <trkpt lat="42.13246099999984" lon="-1.2413229999999968">
        <ele>351.233</ele>
        <time>2022-06-17T15:02:56Z</time>
      </trkpt>
      <trkpt lat="42.132462999999845" lon="-1.2407989999999969">
        <ele>352.086</ele>
        <time>2022-06-17T15:03:05Z</time>
      </trkpt>
      <trkpt lat="42.13245899999985" lon="-1.2406239999999968">
        <ele>352.254</ele>
        <time>2022-06-17T15:03:08Z</time>
      </trkpt>
      <trkpt lat="42.13246099999985" lon="-1.2402279999999968">
        <ele>353.088</ele>
        <time>2022-06-17T15:03:15Z</time>
      </trkpt>
      <trkpt lat="42.13246399999985" lon="-1.2401159999999969">
        <ele>353.296</ele>
        <time>2022-06-17T15:03:17Z</time>
      </trkpt>
      <trkpt lat="42.13246599999985" lon="-1.2394979999999969">
        <ele>354.227</ele>
        <time>2022-06-17T15:03:28Z</time>
      </trkpt>
      <trkpt lat="42.132464999999854" lon="-1.239383999999997">
        <ele>354.268</ele>
        <time>2022-06-17T15:03:30Z</time>
      </trkpt>
      <trkpt lat="42.132469999999856" lon="-1.238689999999997">
        <ele>355.414</ele>
        <time>2022-06-17T15:03:42Z</time>
      </trkpt>
      <trkpt lat="42.132472999999855" lon="-1.237979999999997">
        <ele>356.209</ele>
        <time>2022-06-17T15:03:55Z</time>
      </trkpt>
      <trkpt lat="42.13247099999985" lon="-1.237927999999997">
        <ele>356.413</ele>
        <time>2022-06-17T15:03:56Z</time>
      </trkpt>
      <trkpt lat="42.13245999999985" lon="-1.237569999999997">
        <ele>357.452</ele>
        <time>2022-06-17T15:04:03Z</time>
      </trkpt>
      <trkpt lat="42.13246899999985" lon="-1.2374119999999968">
        <ele>357.467</ele>
        <time>2022-06-17T15:04:06Z</time>
      </trkpt>
      <trkpt lat="42.13246399999985" lon="-1.2370579999999969">
        <ele>357.839</ele>
        <time>2022-06-17T15:04:13Z</time>
      </trkpt>
      <trkpt lat="42.13246499999985" lon="-1.236668999999997">
        <ele>358.662</ele>
        <time>2022-06-17T15:04:20Z</time>
      </trkpt>
      <trkpt lat="42.132459999999845" lon="-1.2364999999999968">
        <ele>359.055</ele>
        <time>2022-06-17T15:04:23Z</time>
      </trkpt>
      <trkpt lat="42.132465999999845" lon="-1.2360489999999968">
        <ele>359.663</ele>
        <time>2022-06-17T15:04:31Z</time>
      </trkpt>
      <trkpt lat="42.13246799999985" lon="-1.2359339999999968">
        <ele>359.847</ele>
        <time>2022-06-17T15:04:33Z</time>
      </trkpt>
      <trkpt lat="42.13246399999985" lon="-1.2354669999999968">
        <ele>360.235</ele>
        <time>2022-06-17T15:04:41Z</time>
      </trkpt>
      <trkpt lat="42.13247599999985" lon="-1.2348679999999967">
        <ele>360.295</ele>
        <time>2022-06-17T15:04:51Z</time>
      </trkpt>
      <trkpt lat="42.13247599999985" lon="-1.2341439999999968">
        <ele>360.449</ele>
        <time>2022-06-17T15:05:03Z</time>
      </trkpt>
      <trkpt lat="42.13247599999985" lon="-1.2334669999999968">
        <ele>360.023</ele>
        <time>2022-06-17T15:05:14Z</time>
      </trkpt>
      <trkpt lat="42.13248999999985" lon="-1.2329829999999968">
        <ele>360.009</ele>
        <time>2022-06-17T15:05:22Z</time>
      </trkpt>
      <trkpt lat="42.13248199999985" lon="-1.2324219999999968">
        <ele>360.050</ele>
        <time>2022-06-17T15:05:31Z</time>
      </trkpt>
      <trkpt lat="42.13248399999985" lon="-1.2316779999999967">
        <ele>360.259</ele>
        <time>2022-06-17T15:05:43Z</time>
      </trkpt>
      <trkpt lat="42.13248599999985" lon="-1.2315459999999967">
        <ele>360.474</ele>
        <time>2022-06-17T15:05:45Z</time>
      </trkpt>
      <trkpt lat="42.13248699999985" lon="-1.2307719999999966">
        <ele>360.086</ele>
        <time>2022-06-17T15:05:56Z</time>
      </trkpt>
      <trkpt lat="42.13248699999985" lon="-1.2306939999999966">
        <ele>360.019</ele>
        <time>2022-06-17T15:05:57Z</time>
      </trkpt>
      <trkpt lat="42.132484999999846" lon="-1.2299009999999966">
        <ele>359.022</ele>
        <time>2022-06-17T15:06:06Z</time>
      </trkpt>
      <trkpt lat="42.13247899999985" lon="-1.2296119999999966">
        <ele>358.640</ele>
        <time>2022-06-17T15:06:09Z</time>
      </trkpt>
      <trkpt lat="42.132476999999845" lon="-1.2292349999999965">
        <ele>357.454</ele>
        <time>2022-06-17T15:06:13Z</time>
      </trkpt>
      <trkpt lat="42.132476999999845" lon="-1.2291379999999965">
        <ele>357.052</ele>
        <time>2022-06-17T15:06:14Z</time>
      </trkpt>
      <trkpt lat="42.132476999999845" lon="-1.2289489999999965">
        <ele>356.455</ele>
        <time>2022-06-17T15:06:16Z</time>
      </trkpt>
      <trkpt lat="42.13247799999984" lon="-1.2283299999999966">
        <ele>355.607</ele>
        <time>2022-06-17T15:06:23Z</time>
      </trkpt>
      <trkpt lat="42.13247499999984" lon="-1.2278599999999966">
        <ele>355.417</ele>
        <time>2022-06-17T15:06:29Z</time>
      </trkpt>
      <trkpt lat="42.13248099999984" lon="-1.2273489999999967">
        <ele>356.409</ele>
        <time>2022-06-17T15:06:37Z</time>
      </trkpt>
      <trkpt lat="42.132485999999844" lon="-1.2269879999999966">
        <ele>357.436</ele>
        <time>2022-06-17T15:06:43Z</time>
      </trkpt>
      <trkpt lat="42.132482999999844" lon="-1.2268129999999966">
        <ele>358.035</ele>
        <time>2022-06-17T15:06:46Z</time>
      </trkpt>
      <trkpt lat="42.13248399999984" lon="-1.2266409999999965">
        <ele>358.650</ele>
        <time>2022-06-17T15:06:49Z</time>
      </trkpt>
      <trkpt lat="42.132482999999844" lon="-1.2262229999999965">
        <ele>359.042</ele>
        <time>2022-06-17T15:06:56Z</time>
      </trkpt>
      <trkpt lat="42.132476999999845" lon="-1.2254869999999964">
        <ele>359.625</ele>
        <time>2022-06-17T15:07:08Z</time>
      </trkpt>
      <trkpt lat="42.132476999999845" lon="-1.2248599999999965">
        <ele>360.468</ele>
        <time>2022-06-17T15:07:18Z</time>
      </trkpt>
      <trkpt lat="42.132473999999846" lon="-1.2244609999999965">
        <ele>360.676</ele>
        <time>2022-06-17T15:07:24Z</time>
      </trkpt>
      <trkpt lat="42.13247599999985" lon="-1.2240579999999965">
        <ele>360.870</ele>
        <time>2022-06-17T15:07:30Z</time>
      </trkpt>
      <trkpt lat="42.132479999999845" lon="-1.2232769999999966">
        <ele>360.828</ele>
        <time>2022-06-17T15:07:42Z</time>
      </trkpt>
      <trkpt lat="42.13247899999985" lon="-1.2230839999999965">
        <ele>360.847</ele>
        <time>2022-06-17T15:07:45Z</time>
      </trkpt>
      <trkpt lat="42.132485999999844" lon="-1.2223509999999964">
        <ele>361.629</ele>
        <time>2022-06-17T15:07:56Z</time>
      </trkpt>
      <trkpt lat="42.132485999999844" lon="-1.2222809999999964">
        <ele>361.621</ele>
        <time>2022-06-17T15:07:57Z</time>
      </trkpt>
      <trkpt lat="42.13248699999984" lon="-1.2221409999999964">
        <ele>361.809</ele>
        <time>2022-06-17T15:07:59Z</time>
      </trkpt>
      <trkpt lat="42.13248899999984" lon="-1.2220009999999963">
        <ele>362.085</ele>
        <time>2022-06-17T15:08:01Z</time>
      </trkpt>
      <trkpt lat="42.13248999999984" lon="-1.2212259999999964">
        <ele>362.254</ele>
        <time>2022-06-17T15:08:12Z</time>
      </trkpt>
      <trkpt lat="42.13248799999984" lon="-1.2208739999999965">
        <ele>362.259</ele>
        <time>2022-06-17T15:08:17Z</time>
      </trkpt>
      <trkpt lat="42.132494999999835" lon="-1.2203049999999964">
        <ele>362.271</ele>
        <time>2022-06-17T15:08:25Z</time>
      </trkpt>
      <trkpt lat="42.13249099999984" lon="-1.2195479999999965">
        <ele>362.494</ele>
        <time>2022-06-17T15:08:36Z</time>
      </trkpt>
      <trkpt lat="42.132491999999836" lon="-1.2193459999999965">
        <ele>362.437</ele>
        <time>2022-06-17T15:08:39Z</time>
      </trkpt>
      <trkpt lat="42.132494999999835" lon="-1.2185909999999964">
        <ele>362.445</ele>
        <time>2022-06-17T15:08:50Z</time>
      </trkpt>
      <trkpt lat="42.132491999999836" lon="-1.2178459999999964">
        <ele>362.029</ele>
        <time>2022-06-17T15:09:01Z</time>
      </trkpt>
      <trkpt lat="42.13249299999983" lon="-1.2177789999999964">
        <ele>361.837</ele>
        <time>2022-06-17T15:09:02Z</time>
      </trkpt>
      <trkpt lat="42.132491999999836" lon="-1.2170489999999965">
        <ele>361.618</ele>
        <time>2022-06-17T15:09:13Z</time>
      </trkpt>
      <trkpt lat="42.132494999999835" lon="-1.2167759999999965">
        <ele>361.698</ele>
        <time>2022-06-17T15:09:17Z</time>
      </trkpt>
      <trkpt lat="42.13249299999983" lon="-1.2160389999999965">
        <ele>361.817</ele>
        <time>2022-06-17T15:09:28Z</time>
      </trkpt>
      <trkpt lat="42.13249599999983" lon="-1.2158399999999965">
        <ele>361.809</ele>
        <time>2022-06-17T15:09:31Z</time>
      </trkpt>
      <trkpt lat="42.132497999999835" lon="-1.2150929999999964">
        <ele>362.042</ele>
        <time>2022-06-17T15:09:42Z</time>
      </trkpt>
      <trkpt lat="42.13250499999983" lon="-1.2148309999999964">
        <ele>362.261</ele>
        <time>2022-06-17T15:09:46Z</time>
      </trkpt>
      <trkpt lat="42.13250499999983" lon="-1.2140469999999965">
        <ele>362.236</ele>
        <time>2022-06-17T15:09:58Z</time>
      </trkpt>
      <trkpt lat="42.13251299999983" lon="-1.2136629999999966">
        <ele>362.688</ele>
        <time>2022-06-17T15:10:04Z</time>
      </trkpt>
      <trkpt lat="42.132517999999834" lon="-1.2130409999999967">
        <ele>363.251</ele>
        <time>2022-06-17T15:10:13Z</time>
      </trkpt>
      <trkpt lat="42.13252699999983" lon="-1.2123359999999967">
        <ele>363.054</ele>
        <time>2022-06-17T15:10:22Z</time>
      </trkpt>
      <trkpt lat="42.13253099999983" lon="-1.2115709999999968">
        <ele>361.682</ele>
        <time>2022-06-17T15:10:31Z</time>
      </trkpt>
      <trkpt lat="42.13253099999983" lon="-1.211313999999997">
        <ele>361.286</ele>
        <time>2022-06-17T15:10:34Z</time>
      </trkpt>
      <trkpt lat="42.13252999999983" lon="-1.2108069999999969">
        <ele>360.624</ele>
        <time>2022-06-17T15:10:40Z</time>
      </trkpt>
      <trkpt lat="42.132531999999834" lon="-1.210317999999997">
        <ele>359.846</ele>
        <time>2022-06-17T15:10:46Z</time>
      </trkpt>
      <trkpt lat="42.132531999999834" lon="-1.210160999999997">
        <ele>359.488</ele>
        <time>2022-06-17T15:10:48Z</time>
      </trkpt>
      <trkpt lat="42.132534999999834" lon="-1.209530999999997">
        <ele>359.216</ele>
        <time>2022-06-17T15:10:56Z</time>
      </trkpt>
      <trkpt lat="42.132536999999836" lon="-1.208741999999997">
        <ele>359.009</ele>
        <time>2022-06-17T15:11:06Z</time>
      </trkpt>
      <trkpt lat="42.132542999999835" lon="-1.2084389999999972">
        <ele>359.025</ele>
        <time>2022-06-17T15:11:10Z</time>
      </trkpt>
      <trkpt lat="42.132542999999835" lon="-1.2076849999999972">
        <ele>358.854</ele>
        <time>2022-06-17T15:11:20Z</time>
      </trkpt>
      <trkpt lat="42.13254399999983" lon="-1.2076129999999972">
        <ele>358.839</ele>
        <time>2022-06-17T15:11:21Z</time>
      </trkpt>
      <trkpt lat="42.132545999999834" lon="-1.2069479999999972">
        <ele>360.051</ele>
        <time>2022-06-17T15:11:31Z</time>
      </trkpt>
      <trkpt lat="42.13255199999983" lon="-1.2066349999999972">
        <ele>360.864</ele>
        <time>2022-06-17T15:11:36Z</time>
      </trkpt>
      <trkpt lat="42.13255499999983" lon="-1.2062089999999972">
        <ele>361.677</ele>
        <time>2022-06-17T15:11:43Z</time>
      </trkpt>
      <trkpt lat="42.13255599999983" lon="-1.2060849999999972">
        <ele>361.825</ele>
        <time>2022-06-17T15:11:45Z</time>
      </trkpt>
      <trkpt lat="42.13255299999983" lon="-1.2054959999999972">
        <ele>362.459</ele>
        <time>2022-06-17T15:11:54Z</time>
      </trkpt>
      <trkpt lat="42.13254799999983" lon="-1.2048959999999973">
        <ele>362.667</ele>
        <time>2022-06-17T15:12:02Z</time>
      </trkpt>
      <trkpt lat="42.13254499999983" lon="-1.2041379999999973">
        <ele>362.046</ele>
        <time>2022-06-17T15:12:12Z</time>
      </trkpt>
      <trkpt lat="42.13254399999983" lon="-1.2040619999999973">
        <ele>361.888</ele>
        <time>2022-06-17T15:12:13Z</time>
      </trkpt>
      <trkpt lat="42.132545999999834" lon="-1.2033069999999972">
        <ele>361.416</ele>
        <time>2022-06-17T15:12:23Z</time>
      </trkpt>
      <trkpt lat="42.132550999999836" lon="-1.2025079999999972">
        <ele>361.009</ele>
        <time>2022-06-17T15:12:34Z</time>
      </trkpt>
      <trkpt lat="42.13255499999983" lon="-1.2017139999999973">
        <ele>361.035</ele>
        <time>2022-06-17T15:12:45Z</time>
      </trkpt>
      <trkpt lat="42.13255599999983" lon="-1.2009279999999973">
        <ele>361.244</ele>
        <time>2022-06-17T15:12:56Z</time>
      </trkpt>
      <trkpt lat="42.13255699999983" lon="-1.2007129999999973">
        <ele>361.259</ele>
        <time>2022-06-17T15:12:59Z</time>
      </trkpt>
      <trkpt lat="42.13255599999983" lon="-1.1999779999999973">
        <ele>361.481</ele>
        <time>2022-06-17T15:13:09Z</time>
      </trkpt>
      <trkpt lat="42.13256399999983" lon="-1.1997389999999972">
        <ele>361.434</ele>
        <time>2022-06-17T15:13:12Z</time>
      </trkpt>
      <trkpt lat="42.132562999999834" lon="-1.1989359999999971">
        <ele>361.487</ele>
        <time>2022-06-17T15:13:22Z</time>
      </trkpt>
      <trkpt lat="42.13256199999984" lon="-1.1984199999999972">
        <ele>361.445</ele>
        <time>2022-06-17T15:13:29Z</time>
      </trkpt>
      <trkpt lat="42.13256199999984" lon="-1.1978399999999971">
        <ele>361.489</ele>
        <time>2022-06-17T15:13:37Z</time>
      </trkpt>
      <trkpt lat="42.132562999999834" lon="-1.1973379999999971">
        <ele>361.657</ele>
        <time>2022-06-17T15:13:44Z</time>
      </trkpt>
      <trkpt lat="42.13256399999983" lon="-1.196633999999997">
        <ele>361.448</ele>
        <time>2022-06-17T15:13:54Z</time>
      </trkpt>
      <trkpt lat="42.132565999999834" lon="-1.196563999999997">
        <ele>361.461</ele>
        <time>2022-06-17T15:13:55Z</time>
      </trkpt>
      <trkpt lat="42.13256399999983" lon="-1.195850999999997">
        <ele>361.417</ele>
        <time>2022-06-17T15:14:05Z</time>
      </trkpt>
      <trkpt lat="42.13256799999983" lon="-1.195154999999997">
        <ele>361.209</ele>
        <time>2022-06-17T15:14:14Z</time>
      </trkpt>
      <trkpt lat="42.132571999999826" lon="-1.194844999999997">
        <ele>360.825</ele>
        <time>2022-06-17T15:14:18Z</time>
      </trkpt>
      <trkpt lat="42.13256799999983" lon="-1.194227999999997">
        <ele>360.814</ele>
        <time>2022-06-17T15:14:26Z</time>
      </trkpt>
      <trkpt lat="42.13256799999983" lon="-1.193461999999997">
        <ele>361.079</ele>
        <time>2022-06-17T15:14:36Z</time>
      </trkpt>
      <trkpt lat="42.132571999999826" lon="-1.193228999999997">
        <ele>361.051</ele>
        <time>2022-06-17T15:14:39Z</time>
      </trkpt>
      <trkpt lat="42.13257099999983" lon="-1.1924529999999969">
        <ele>361.024</ele>
        <time>2022-06-17T15:14:49Z</time>
      </trkpt>
      <trkpt lat="42.13257299999983" lon="-1.192141999999997">
        <ele>361.057</ele>
        <time>2022-06-17T15:14:53Z</time>
      </trkpt>
      <trkpt lat="42.13256899999983" lon="-1.191371999999997">
        <ele>361.265</ele>
        <time>2022-06-17T15:15:03Z</time>
      </trkpt>
      <trkpt lat="42.13257599999983" lon="-1.191077999999997">
        <ele>361.249</ele>
        <time>2022-06-17T15:15:07Z</time>
      </trkpt>
      <trkpt lat="42.13257199999983" lon="-1.190321999999997">
        <ele>361.257</ele>
        <time>2022-06-17T15:15:17Z</time>
      </trkpt>
      <trkpt lat="42.132573999999835" lon="-1.190167999999997">
        <ele>361.248</ele>
        <time>2022-06-17T15:15:19Z</time>
      </trkpt>
      <trkpt lat="42.132573999999835" lon="-1.190014999999997">
        <ele>361.261</ele>
        <time>2022-06-17T15:15:21Z</time>
      </trkpt>
      <trkpt lat="42.132579999999834" lon="-1.189239999999997">
        <ele>361.217</ele>
        <time>2022-06-17T15:15:31Z</time>
      </trkpt>
      <trkpt lat="42.132579999999834" lon="-1.189088999999997">
        <ele>361.209</ele>
        <time>2022-06-17T15:15:33Z</time>
      </trkpt>
      <trkpt lat="42.13257799999983" lon="-1.188315999999997">
        <ele>361.035</ele>
        <time>2022-06-17T15:15:43Z</time>
      </trkpt>
      <trkpt lat="42.13258199999983" lon="-1.1880829999999971">
        <ele>361.074</ele>
        <time>2022-06-17T15:15:46Z</time>
      </trkpt>
      <trkpt lat="42.13258499999983" lon="-1.1873609999999972">
        <ele>361.079</ele>
        <time>2022-06-17T15:15:55Z</time>
      </trkpt>
      <trkpt lat="42.132585999999826" lon="-1.1865839999999972">
        <ele>360.461</ele>
        <time>2022-06-17T15:16:05Z</time>
      </trkpt>
      <trkpt lat="42.13258499999983" lon="-1.1863559999999973">
        <ele>360.234</ele>
        <time>2022-06-17T15:16:08Z</time>
      </trkpt>
      <trkpt lat="42.132588999999825" lon="-1.1855939999999974">
        <ele>360.267</ele>
        <time>2022-06-17T15:16:18Z</time>
      </trkpt>
      <trkpt lat="42.13258699999982" lon="-1.1852899999999973">
        <ele>360.265</ele>
        <time>2022-06-17T15:16:22Z</time>
      </trkpt>
      <trkpt lat="42.13258799999982" lon="-1.1845319999999973">
        <ele>360.299</ele>
        <time>2022-06-17T15:16:32Z</time>
      </trkpt>
      <trkpt lat="42.13258799999982" lon="-1.1843809999999972">
        <ele>360.297</ele>
        <time>2022-06-17T15:16:34Z</time>
      </trkpt>
      <trkpt lat="42.13258999999982" lon="-1.1836039999999972">
        <ele>360.027</ele>
        <time>2022-06-17T15:16:44Z</time>
      </trkpt>
      <trkpt lat="42.132591999999825" lon="-1.1835249999999973">
        <ele>360.068</ele>
        <time>2022-06-17T15:16:45Z</time>
      </trkpt>
      <trkpt lat="42.132591999999825" lon="-1.1834479999999972">
        <ele>360.014</ele>
        <time>2022-06-17T15:16:46Z</time>
      </trkpt>
      <trkpt lat="42.13257099999983" lon="-1.1829969999999972">
        <ele>359.809</ele>
        <time>2022-06-17T15:16:52Z</time>
      </trkpt>
      <trkpt lat="42.13255599999983" lon="-1.182927999999997">
        <ele>359.813</ele>
        <time>2022-06-17T15:16:53Z</time>
      </trkpt>
      <trkpt lat="42.13253699999983" lon="-1.1828619999999972">
        <ele>359.812</ele>
        <time>2022-06-17T15:16:54Z</time>
      </trkpt>
      <trkpt lat="42.13245699999983" lon="-1.1826679999999972">
        <ele>359.877</ele>
        <time>2022-06-17T15:16:57Z</time>
      </trkpt>
      <trkpt lat="42.13243499999983" lon="-1.1825979999999972">
        <ele>359.849</ele>
        <time>2022-06-17T15:16:58Z</time>
      </trkpt>
      <trkpt lat="42.13238699999983" lon="-1.182382999999997">
        <ele>359.882</ele>
        <time>2022-06-17T15:17:01Z</time>
      </trkpt>
      <trkpt lat="42.13239599999983" lon="-1.1822339999999971">
        <ele>360.035</ele>
        <time>2022-06-17T15:17:03Z</time>
      </trkpt>
      <trkpt lat="42.13253599999983" lon="-1.181821999999997">
        <ele>360.053</ele>
        <time>2022-06-17T15:17:09Z</time>
      </trkpt>
      <trkpt lat="42.13258499999983" lon="-1.181607999999997">
        <ele>359.867</ele>
        <time>2022-06-17T15:17:12Z</time>
      </trkpt>
      <trkpt lat="42.13259299999983" lon="-1.1814529999999972">
        <ele>359.835</ele>
        <time>2022-06-17T15:17:14Z</time>
      </trkpt>
      <trkpt lat="42.13259399999983" lon="-1.1808059999999971">
        <ele>359.469</ele>
        <time>2022-06-17T15:17:22Z</time>
      </trkpt>
      <trkpt lat="42.132602999999825" lon="-1.1800819999999972">
        <ele>359.204</ele>
        <time>2022-06-17T15:17:31Z</time>
      </trkpt>
      <trkpt lat="42.13260199999983" lon="-1.1796009999999972">
        <ele>359.024</ele>
        <time>2022-06-17T15:17:37Z</time>
      </trkpt>
      <trkpt lat="42.13260199999983" lon="-1.1793649999999973">
        <ele>358.809</ele>
        <time>2022-06-17T15:17:40Z</time>
      </trkpt>
      <trkpt lat="42.132602999999825" lon="-1.1785969999999972">
        <ele>358.617</ele>
        <time>2022-06-17T15:17:50Z</time>
      </trkpt>
      <trkpt lat="42.13260499999983" lon="-1.1782989999999973">
        <ele>358.666</ele>
        <time>2022-06-17T15:17:54Z</time>
      </trkpt>
      <trkpt lat="42.13258999999983" lon="-1.1775099999999974">
        <ele>358.481</ele>
        <time>2022-06-17T15:18:05Z</time>
      </trkpt>
      <trkpt lat="42.13258799999983" lon="-1.1774539999999973">
        <ele>358.443</ele>
        <time>2022-06-17T15:18:06Z</time>
      </trkpt>
      <trkpt lat="42.13257299999983" lon="-1.1767799999999973">
        <ele>358.436</ele>
        <time>2022-06-17T15:18:15Z</time>
      </trkpt>
      <trkpt lat="42.13257199999983" lon="-1.1760309999999972">
        <ele>358.479</ele>
        <time>2022-06-17T15:18:25Z</time>
      </trkpt>
      <trkpt lat="42.13257199999983" lon="-1.175953999999997">
        <ele>358.467</ele>
        <time>2022-06-17T15:18:26Z</time>
      </trkpt>
      <trkpt lat="42.13257599999983" lon="-1.175208999999997">
        <ele>358.291</ele>
        <time>2022-06-17T15:18:36Z</time>
      </trkpt>
      <trkpt lat="42.13257899999983" lon="-1.175057999999997">
        <ele>358.279</ele>
        <time>2022-06-17T15:18:38Z</time>
      </trkpt>
      <trkpt lat="42.132585999999826" lon="-1.174289999999997">
        <ele>358.293</ele>
        <time>2022-06-17T15:18:48Z</time>
      </trkpt>
      <trkpt lat="42.132585999999826" lon="-1.1742129999999968">
        <ele>358.265</ele>
        <time>2022-06-17T15:18:49Z</time>
      </trkpt>
      <trkpt lat="42.13258799999983" lon="-1.1734469999999968">
        <ele>358.021</ele>
        <time>2022-06-17T15:18:59Z</time>
      </trkpt>
      <trkpt lat="42.13258699999983" lon="-1.1732959999999968">
        <ele>358.009</ele>
        <time>2022-06-17T15:19:01Z</time>
      </trkpt>
      <trkpt lat="42.13258599999983" lon="-1.1725409999999967">
        <ele>358.080</ele>
        <time>2022-06-17T15:19:11Z</time>
      </trkpt>
      <trkpt lat="42.13258899999983" lon="-1.1724669999999968">
        <ele>358.079</ele>
        <time>2022-06-17T15:19:12Z</time>
      </trkpt>
      <trkpt lat="42.132587999999835" lon="-1.1717089999999968">
        <ele>358.264</ele>
        <time>2022-06-17T15:19:22Z</time>
      </trkpt>
      <trkpt lat="42.13259199999983" lon="-1.1715529999999967">
        <ele>358.246</ele>
        <time>2022-06-17T15:19:24Z</time>
      </trkpt>
      <trkpt lat="42.13258899999983" lon="-1.1710009999999966">
        <ele>358.089</ele>
        <time>2022-06-17T15:19:31Z</time>
      </trkpt>
      <trkpt lat="42.13258899999983" lon="-1.1706769999999966">
        <ele>357.812</ele>
        <time>2022-06-17T15:19:35Z</time>
      </trkpt>
      <trkpt lat="42.13259499999983" lon="-1.1699289999999967">
        <ele>357.660</ele>
        <time>2022-06-17T15:19:44Z</time>
      </trkpt>
      <trkpt lat="42.13260599999983" lon="-1.1697639999999967">
        <ele>357.624</ele>
        <time>2022-06-17T15:19:46Z</time>
      </trkpt>
      <trkpt lat="42.13263399999983" lon="-1.1691939999999967">
        <ele>357.422</ele>
        <time>2022-06-17T15:19:53Z</time>
      </trkpt>
      <trkpt lat="42.13258299999983" lon="-1.1686809999999968">
        <ele>357.216</ele>
        <time>2022-06-17T15:19:59Z</time>
      </trkpt>
      <trkpt lat="42.13254999999983" lon="-1.1681569999999968">
        <ele>357.076</ele>
        <time>2022-06-17T15:20:05Z</time>
      </trkpt>
      <trkpt lat="42.13254499999983" lon="-1.1680659999999967">
        <ele>356.813</ele>
        <time>2022-06-17T15:20:06Z</time>
      </trkpt>
      <trkpt lat="42.13249599999983" lon="-1.1673429999999967">
        <ele>356.609</ele>
        <time>2022-06-17T15:20:14Z</time>
      </trkpt>
      <trkpt lat="42.132435999999835" lon="-1.1665929999999967">
        <ele>356.272</ele>
        <time>2022-06-17T15:20:22Z</time>
      </trkpt>
      <trkpt lat="42.13240599999983" lon="-1.1662939999999966">
        <ele>355.891</ele>
        <time>2022-06-17T15:20:25Z</time>
      </trkpt>
      <trkpt lat="42.13236399999983" lon="-1.1657839999999966">
        <ele>354.666</ele>
        <time>2022-06-17T15:20:30Z</time>
      </trkpt>
      <trkpt lat="42.13234799999983" lon="-1.1655739999999966">
        <ele>354.478</ele>
        <time>2022-06-17T15:20:32Z</time>
      </trkpt>
      <trkpt lat="42.13232799999983" lon="-1.1653589999999965">
        <ele>353.651</ele>
        <time>2022-06-17T15:20:34Z</time>
      </trkpt>
      <trkpt lat="42.13226899999983" lon="-1.1646049999999966">
        <ele>352.694</ele>
        <time>2022-06-17T15:20:41Z</time>
      </trkpt>
      <trkpt lat="42.13226099999983" lon="-1.1644959999999966">
        <ele>352.422</ele>
        <time>2022-06-17T15:20:42Z</time>
      </trkpt>
      <trkpt lat="42.13222399999983" lon="-1.1640759999999966">
        <ele>351.056</ele>
        <time>2022-06-17T15:20:46Z</time>
      </trkpt>
      <trkpt lat="42.13216499999983" lon="-1.1633729999999967">
        <ele>350.024</ele>
        <time>2022-06-17T15:20:53Z</time>
      </trkpt>
      <trkpt lat="42.13214799999983" lon="-1.1631769999999966">
        <ele>349.646</ele>
        <time>2022-06-17T15:20:55Z</time>
      </trkpt>
      <trkpt lat="42.13206999999983" lon="-1.1624229999999967">
        <ele>349.288</ele>
        <time>2022-06-17T15:21:03Z</time>
      </trkpt>
      <trkpt lat="42.13204499999983" lon="-1.1621529999999967">
        <ele>349.216</ele>
        <time>2022-06-17T15:21:06Z</time>
      </trkpt>
      <trkpt lat="42.13191499999983" lon="-1.1613569999999966">
        <ele>349.209</ele>
        <time>2022-06-17T15:21:15Z</time>
      </trkpt>
      <trkpt lat="42.13189699999983" lon="-1.1612699999999967">
        <ele>349.225</ele>
        <time>2022-06-17T15:21:16Z</time>
      </trkpt>
      <trkpt lat="42.13185699999983" lon="-1.1610969999999967">
        <ele>349.034</ele>
        <time>2022-06-17T15:21:18Z</time>
      </trkpt>
      <trkpt lat="42.131675999999835" lon="-1.1604039999999967">
        <ele>348.819</ele>
        <time>2022-06-17T15:21:26Z</time>
      </trkpt>
      <trkpt lat="42.131456999999834" lon="-1.1597169999999966">
        <ele>348.251</ele>
        <time>2022-06-17T15:21:34Z</time>
      </trkpt>
      <trkpt lat="42.131377999999835" lon="-1.1594479999999965">
        <ele>348.024</ele>
        <time>2022-06-17T15:21:37Z</time>
      </trkpt>
      <trkpt lat="42.13116499999983" lon="-1.1587529999999966">
        <ele>347.687</ele>
        <time>2022-06-17T15:21:45Z</time>
      </trkpt>
      <trkpt lat="42.13113499999983" lon="-1.1586689999999966">
        <ele>347.625</ele>
        <time>2022-06-17T15:21:46Z</time>
      </trkpt>
      <trkpt lat="42.13104799999983" lon="-1.1585209999999966">
        <ele>347.479</ele>
        <time>2022-06-17T15:21:48Z</time>
      </trkpt>
      <trkpt lat="42.13099499999983" lon="-1.1584589999999966">
        <ele>347.297</ele>
        <time>2022-06-17T15:21:49Z</time>
      </trkpt>
      <trkpt lat="42.13088999999983" lon="-1.1583349999999966">
        <ele>347.086</ele>
        <time>2022-06-17T15:21:51Z</time>
      </trkpt>
      <trkpt lat="42.13081199999983" lon="-1.1581719999999966">
        <ele>347.060</ele>
        <time>2022-06-17T15:21:53Z</time>
      </trkpt>
      <trkpt lat="42.13080099999983" lon="-1.1579839999999966">
        <ele>346.826</ele>
        <time>2022-06-17T15:21:55Z</time>
      </trkpt>
      <trkpt lat="42.13081199999983" lon="-1.1578929999999965">
        <ele>346.609</ele>
        <time>2022-06-17T15:21:56Z</time>
      </trkpt>
      <trkpt lat="42.13082099999983" lon="-1.1577999999999966">
        <ele>346.489</ele>
        <time>2022-06-17T15:21:57Z</time>
      </trkpt>
      <trkpt lat="42.13081199999983" lon="-1.1576129999999967">
        <ele>346.288</ele>
        <time>2022-06-17T15:21:59Z</time>
      </trkpt>
      <trkpt lat="42.13078899999983" lon="-1.1575229999999967">
        <ele>346.073</ele>
        <time>2022-06-17T15:22:00Z</time>
      </trkpt>
      <trkpt lat="42.13075999999983" lon="-1.1574359999999968">
        <ele>346.035</ele>
        <time>2022-06-17T15:22:01Z</time>
      </trkpt>
      <trkpt lat="42.130600999999835" lon="-1.1569039999999968">
        <ele>345.658</ele>
        <time>2022-06-17T15:22:07Z</time>
      </trkpt>
      <trkpt lat="42.130547999999834" lon="-1.1567229999999968">
        <ele>345.461</ele>
        <time>2022-06-17T15:22:09Z</time>
      </trkpt>
      <trkpt lat="42.13040899999984" lon="-1.156270999999997">
        <ele>345.059</ele>
        <time>2022-06-17T15:22:14Z</time>
      </trkpt>
      <trkpt lat="42.13019099999984" lon="-1.155567999999997">
        <ele>344.053</ele>
        <time>2022-06-17T15:22:22Z</time>
      </trkpt>
      <trkpt lat="42.13016499999984" lon="-1.155478999999997">
        <ele>343.841</ele>
        <time>2022-06-17T15:22:23Z</time>
      </trkpt>
      <trkpt lat="42.12994899999984" lon="-1.154777999999997">
        <ele>342.864</ele>
        <time>2022-06-17T15:22:31Z</time>
      </trkpt>
      <trkpt lat="42.12988899999984" lon="-1.1545819999999969">
        <ele>342.806</ele>
        <time>2022-06-17T15:22:33Z</time>
      </trkpt>
      <trkpt lat="42.12986899999984" lon="-1.1545119999999969">
        <ele>342.616</ele>
        <time>2022-06-17T15:22:34Z</time>
      </trkpt>
      <trkpt lat="42.129704999999845" lon="-1.153970999999997">
        <ele>341.809</ele>
        <time>2022-06-17T15:22:40Z</time>
      </trkpt>
      <trkpt lat="42.129676999999845" lon="-1.153885999999997">
        <ele>341.637</ele>
        <time>2022-06-17T15:22:41Z</time>
      </trkpt>
      <trkpt lat="42.12962399999984" lon="-1.153721999999997">
        <ele>341.466</ele>
        <time>2022-06-17T15:22:43Z</time>
      </trkpt>
      <trkpt lat="42.129600999999845" lon="-1.153637999999997">
        <ele>341.271</ele>
        <time>2022-06-17T15:22:44Z</time>
      </trkpt>
      <trkpt lat="42.12937699999984" lon="-1.1529029999999971">
        <ele>341.083</ele>
        <time>2022-06-17T15:22:53Z</time>
      </trkpt>
      <trkpt lat="42.12930399999984" lon="-1.1526709999999971">
        <ele>341.066</ele>
        <time>2022-06-17T15:22:56Z</time>
      </trkpt>
      <trkpt lat="42.12913599999984" lon="-1.1520879999999971">
        <ele>341.499</ele>
        <time>2022-06-17T15:23:04Z</time>
      </trkpt>
      <trkpt lat="42.12894699999984" lon="-1.1514989999999972">
        <ele>342.057</ele>
        <time>2022-06-17T15:23:13Z</time>
      </trkpt>
      <trkpt lat="42.12889299999984" lon="-1.1513859999999971">
        <ele>342.031</ele>
        <time>2022-06-17T15:23:15Z</time>
      </trkpt>
      <trkpt lat="42.128818999999844" lon="-1.1513019999999972">
        <ele>342.069</ele>
        <time>2022-06-17T15:23:17Z</time>
      </trkpt>
      <trkpt lat="42.128787999999844" lon="-1.1512819999999973">
        <ele>342.292</ele>
        <time>2022-06-17T15:23:18Z</time>
      </trkpt>
      <trkpt lat="42.12876599999984" lon="-1.1512759999999973">
        <ele>342.473</ele>
        <time>2022-06-17T15:23:21Z</time>
      </trkpt>
      <trkpt lat="42.12875499999984" lon="-1.1512669999999974">
        <ele>342.620</ele>
        <time>2022-06-17T15:23:22Z</time>
      </trkpt>
      <trkpt lat="42.12867099999984" lon="-1.1512379999999973">
        <ele>343.209</ele>
        <time>2022-06-17T15:23:26Z</time>
      </trkpt>
      <trkpt lat="42.12849899999984" lon="-1.1511069999999972">
        <ele>343.670</ele>
        <time>2022-06-17T15:23:31Z</time>
      </trkpt>
      <trkpt lat="42.12841699999984" lon="-1.1509549999999973">
        <ele>343.679</ele>
        <time>2022-06-17T15:23:34Z</time>
      </trkpt>
      <trkpt lat="42.128381999999846" lon="-1.1508289999999972">
        <ele>343.874</ele>
        <time>2022-06-17T15:23:36Z</time>
      </trkpt>
      <trkpt lat="42.12837199999984" lon="-1.1507619999999972">
        <ele>344.086</ele>
        <time>2022-06-17T15:23:37Z</time>
      </trkpt>
      <trkpt lat="42.12836699999984" lon="-1.1506319999999972">
        <ele>344.029</ele>
        <time>2022-06-17T15:23:39Z</time>
      </trkpt>
      <trkpt lat="42.12838199999984" lon="-1.1505049999999972">
        <ele>343.642</ele>
        <time>2022-06-17T15:23:41Z</time>
      </trkpt>
      <trkpt lat="42.12846299999984" lon="-1.1501909999999973">
        <ele>343.680</ele>
        <time>2022-06-17T15:23:46Z</time>
      </trkpt>
      <trkpt lat="42.12847499999984" lon="-1.1500539999999972">
        <ele>343.614</ele>
        <time>2022-06-17T15:23:48Z</time>
      </trkpt>
      <trkpt lat="42.12846299999984" lon="-1.1499139999999972">
        <ele>343.652</ele>
        <time>2022-06-17T15:23:50Z</time>
      </trkpt>
      <trkpt lat="42.12843199999984" lon="-1.1497859999999973">
        <ele>343.665</ele>
        <time>2022-06-17T15:23:52Z</time>
      </trkpt>
      <trkpt lat="42.12840099999984" lon="-1.1496569999999973">
        <ele>343.668</ele>
        <time>2022-06-17T15:23:54Z</time>
      </trkpt>
      <trkpt lat="42.12831999999984" lon="-1.1494109999999973">
        <ele>343.614</ele>
        <time>2022-06-17T15:23:58Z</time>
      </trkpt>
      <trkpt lat="42.12809999999984" lon="-1.1487219999999974">
        <ele>343.209</ele>
        <time>2022-06-17T15:24:09Z</time>
      </trkpt>
      <trkpt lat="42.12808199999984" lon="-1.1486569999999974">
        <ele>343.277</ele>
        <time>2022-06-17T15:24:10Z</time>
      </trkpt>
      <trkpt lat="42.127858999999845" lon="-1.1479229999999974">
        <ele>342.816</ele>
        <time>2022-06-17T15:24:21Z</time>
      </trkpt>
      <trkpt lat="42.12772999999984" lon="-1.1473629999999975">
        <ele>342.851</ele>
        <time>2022-06-17T15:24:29Z</time>
      </trkpt>
      <trkpt lat="42.127714999999846" lon="-1.1472919999999975">
        <ele>342.873</ele>
        <time>2022-06-17T15:24:30Z</time>
      </trkpt>
      <trkpt lat="42.12765399999984" lon="-1.1471729999999976">
        <ele>342.816</ele>
        <time>2022-06-17T15:24:32Z</time>
      </trkpt>
      <trkpt lat="42.12755299999984" lon="-1.1469959999999975">
        <ele>342.839</ele>
        <time>2022-06-17T15:24:35Z</time>
      </trkpt>
      <trkpt lat="42.12751399999984" lon="-1.1468549999999975">
        <ele>342.837</ele>
        <time>2022-06-17T15:24:37Z</time>
      </trkpt>
      <trkpt lat="42.12748399999984" lon="-1.1467159999999976">
        <ele>342.871</ele>
        <time>2022-06-17T15:24:39Z</time>
      </trkpt>
      <trkpt lat="42.12742099999984" lon="-1.1464419999999975">
        <ele>342.899</ele>
        <time>2022-06-17T15:24:43Z</time>
      </trkpt>
      <trkpt lat="42.12739799999984" lon="-1.1463769999999975">
        <ele>342.871</ele>
        <time>2022-06-17T15:24:44Z</time>
      </trkpt>
      <trkpt lat="42.12720399999984" lon="-1.1459639999999975">
        <ele>342.841</ele>
        <time>2022-06-17T15:24:51Z</time>
      </trkpt>
      <trkpt lat="42.12711399999984" lon="-1.1457869999999974">
        <ele>342.815</ele>
        <time>2022-06-17T15:24:54Z</time>
      </trkpt>
      <trkpt lat="42.12700399999984" lon="-1.1455519999999975">
        <ele>343.009</ele>
        <time>2022-06-17T15:24:58Z</time>
      </trkpt>
      <trkpt lat="42.126794999999845" lon="-1.1451409999999975">
        <ele>343.488</ele>
        <time>2022-06-17T15:25:05Z</time>
      </trkpt>
      <trkpt lat="42.12663799999984" lon="-1.1448249999999975">
        <ele>343.447</ele>
        <time>2022-06-17T15:25:10Z</time>
      </trkpt>
      <trkpt lat="42.12635999999984" lon="-1.1442589999999975">
        <ele>342.852</ele>
        <time>2022-06-17T15:25:19Z</time>
      </trkpt>
      <trkpt lat="42.12605899999984" lon="-1.1436379999999975">
        <ele>342.664</ele>
        <time>2022-06-17T15:25:29Z</time>
      </trkpt>
      <trkpt lat="42.12599399999984" lon="-1.1435109999999975">
        <ele>342.657</ele>
        <time>2022-06-17T15:25:31Z</time>
      </trkpt>
      <trkpt lat="42.12580299999984" lon="-1.1430329999999975">
        <ele>342.280</ele>
        <time>2022-06-17T15:25:38Z</time>
      </trkpt>
      <trkpt lat="42.12574199999984" lon="-1.1428729999999976">
        <ele>342.078</ele>
        <time>2022-06-17T15:25:41Z</time>
      </trkpt>
      <trkpt lat="42.12571899999984" lon="-1.1428159999999976">
        <ele>342.032</ele>
        <time>2022-06-17T15:25:42Z</time>
      </trkpt>
      <trkpt lat="42.12565399999984" lon="-1.1426399999999977">
        <ele>341.840</ele>
        <time>2022-06-17T15:25:45Z</time>
      </trkpt>
      <trkpt lat="42.12560799999984" lon="-1.1424649999999976">
        <ele>341.848</ele>
        <time>2022-06-17T15:25:48Z</time>
      </trkpt>
      <trkpt lat="42.125592999999846" lon="-1.1424029999999976">
        <ele>341.861</ele>
        <time>2022-06-17T15:25:49Z</time>
      </trkpt>
      <trkpt lat="42.125592999999846" lon="-1.1422709999999976">
        <ele>341.817</ele>
        <time>2022-06-17T15:25:51Z</time>
      </trkpt>
      <trkpt lat="42.125609999999845" lon="-1.1421979999999976">
        <ele>341.809</ele>
        <time>2022-06-17T15:25:52Z</time>
      </trkpt>
      <trkpt lat="42.12577399999984" lon="-1.1417619999999975">
        <ele>342.255</ele>
        <time>2022-06-17T15:26:00Z</time>
      </trkpt>
      <trkpt lat="42.125772999999846" lon="-1.1416759999999975">
        <ele>342.284</ele>
        <time>2022-06-17T15:26:02Z</time>
      </trkpt>
      <trkpt lat="42.12576999999985" lon="-1.1416589999999975">
        <ele>342.449</ele>
        <time>2022-06-17T15:26:03Z</time>
      </trkpt>
      <trkpt lat="42.12576999999985" lon="-1.1416589999999975">
        <ele>342.631</ele>
        <time>2022-06-17T15:26:05Z</time>
      </trkpt>
      <trkpt lat="42.12577999999985" lon="-1.1415869999999975">
        <ele>343.894</ele>
        <time>2022-06-17T15:26:14Z</time>
      </trkpt>
      <trkpt lat="42.12584699999985" lon="-1.1414459999999975">
        <ele>343.847</ele>
        <time>2022-06-17T15:26:19Z</time>
      </trkpt>
      <trkpt lat="42.12588199999985" lon="-1.1413509999999976">
        <ele>343.835</ele>
        <time>2022-06-17T15:26:22Z</time>
      </trkpt>
      <trkpt lat="42.12590099999985" lon="-1.1412899999999975">
        <ele>343.889</ele>
        <time>2022-06-17T15:26:24Z</time>
      </trkpt>
      <trkpt lat="42.12593699999985" lon="-1.1412009999999975">
        <ele>344.077</ele>
        <time>2022-06-17T15:26:28Z</time>
      </trkpt>
      <trkpt lat="42.12602099999985" lon="-1.1409989999999974">
        <ele>344.425</ele>
        <time>2022-06-17T15:26:34Z</time>
      </trkpt>
      <trkpt lat="42.12610399999985" lon="-1.1407239999999974">
        <ele>344.626</ele>
        <time>2022-06-17T15:26:40Z</time>
      </trkpt>
      <trkpt lat="42.12619599999985" lon="-1.1404739999999973">
        <ele>344.608</ele>
        <time>2022-06-17T15:26:46Z</time>
      </trkpt>
      <trkpt lat="42.12630699999985" lon="-1.1402469999999973">
        <ele>344.609</ele>
        <time>2022-06-17T15:26:52Z</time>
      </trkpt>
      <trkpt lat="42.126369999999845" lon="-1.1400819999999974">
        <ele>344.693</ele>
        <time>2022-06-17T15:26:57Z</time>
      </trkpt>
      <trkpt lat="42.12640199999984" lon="-1.1400319999999973">
        <ele>344.642</ele>
        <time>2022-06-17T15:27:00Z</time>
      </trkpt>
      <trkpt lat="42.12640599999984" lon="-1.1400309999999974">
        <ele>344.857</ele>
        <time>2022-06-17T15:27:02Z</time>
      </trkpt>
      <trkpt lat="42.12643699999984" lon="-1.1400189999999975">
        <ele>345.229</ele>
        <time>2022-06-17T15:27:07Z</time>
      </trkpt>
      <trkpt lat="42.12649499999984" lon="-1.1399659999999974">
        <ele>345.242</ele>
        <time>2022-06-17T15:27:10Z</time>
      </trkpt>
      <trkpt lat="42.12651299999984" lon="-1.1399599999999974">
        <ele>345.475</ele>
        <time>2022-06-17T15:27:11Z</time>
      </trkpt>
      <trkpt lat="42.12653899999984" lon="-1.1399489999999974">
        <ele>345.653</ele>
        <time>2022-06-17T15:27:15Z</time>
      </trkpt>
      <trkpt lat="42.12653899999984" lon="-1.1399489999999974">
        <ele>345.667</ele>
        <time>2022-06-17T15:27:16Z</time>
      </trkpt>
      <trkpt lat="42.126573999999835" lon="-1.1399689999999973">
        <ele>345.875</ele>
        <time>2022-06-17T15:27:36Z</time>
      </trkpt>
      <trkpt lat="42.12662799999983" lon="-1.1399879999999973">
        <ele>345.834</ele>
        <time>2022-06-17T15:27:38Z</time>
      </trkpt>
      <trkpt lat="42.126660999999835" lon="-1.1399979999999974">
        <ele>345.855</ele>
        <time>2022-06-17T15:27:39Z</time>
      </trkpt>
      <trkpt lat="42.12669899999984" lon="-1.1400239999999975">
        <ele>345.810</ele>
        <time>2022-06-17T15:27:42Z</time>
      </trkpt>
      <trkpt lat="42.12670999999984" lon="-1.1400219999999974">
        <ele>345.809</ele>
        <time>2022-06-17T15:27:43Z</time>
      </trkpt>
      <trkpt lat="42.12676399999984" lon="-1.1400869999999974">
        <ele>345.874</ele>
        <time>2022-06-17T15:27:47Z</time>
      </trkpt>
      <trkpt lat="42.12677699999984" lon="-1.1402519999999974">
        <ele>345.893</ele>
        <time>2022-06-17T15:27:51Z</time>
      </trkpt>
      <trkpt lat="42.12680199999984" lon="-1.1403089999999974">
        <ele>345.838</ele>
        <time>2022-06-17T15:27:53Z</time>
      </trkpt>
      <trkpt lat="42.12683799999984" lon="-1.1403509999999975">
        <ele>345.860</ele>
        <time>2022-06-17T15:27:55Z</time>
      </trkpt>
      <trkpt lat="42.12695699999984" lon="-1.1404819999999976">
        <ele>345.893</ele>
        <time>2022-06-17T15:28:01Z</time>
      </trkpt>
      <trkpt lat="42.12695599999984" lon="-1.1405319999999977">
        <ele>345.856</ele>
        <time>2022-06-17T15:28:03Z</time>
      </trkpt>
      <trkpt lat="42.12694299999984" lon="-1.1406219999999976">
        <ele>345.854</ele>
        <time>2022-06-17T15:28:06Z</time>
      </trkpt>
      <trkpt lat="42.12688699999984" lon="-1.1408139999999976">
        <ele>345.848</ele>
        <time>2022-06-17T15:28:11Z</time>
      </trkpt>
      <trkpt lat="42.12677999999984" lon="-1.1410919999999976">
        <ele>345.246</ele>
        <time>2022-06-17T15:28:18Z</time>
      </trkpt>
      <trkpt lat="42.12662999999984" lon="-1.1413219999999975">
        <ele>344.256</ele>
        <time>2022-06-17T15:28:24Z</time>
      </trkpt>
      <trkpt lat="42.12659999999984" lon="-1.1413629999999975">
        <ele>344.259</ele>
        <time>2022-06-17T15:28:25Z</time>
      </trkpt>
      <trkpt lat="42.12648199999984" lon="-1.1415549999999974">
        <ele>344.014</ele>
        <time>2022-06-17T15:28:30Z</time>
      </trkpt>
      <trkpt lat="42.12631699999984" lon="-1.1417249999999974">
        <ele>344.009</ele>
        <time>2022-06-17T15:28:37Z</time>
      </trkpt>
      <trkpt lat="42.12630199999984" lon="-1.1417229999999974">
        <ele>344.086</ele>
        <time>2022-06-17T15:28:38Z</time>
      </trkpt>
      <trkpt lat="42.12623899999984" lon="-1.1416989999999974">
        <ele>343.845</ele>
        <time>2022-06-17T15:28:41Z</time>
      </trkpt>
      <trkpt lat="42.12612699999984" lon="-1.1416379999999973">
        <ele>343.830</ele>
        <time>2022-06-17T15:28:45Z</time>
      </trkpt>
      <trkpt lat="42.12603099999984" lon="-1.1415489999999973">
        <ele>344.022</ele>
        <time>2022-06-17T15:28:51Z</time>
      </trkpt>
      <trkpt lat="42.12598799999984" lon="-1.1415169999999972">
        <ele>344.245</ele>
        <time>2022-06-17T15:28:56Z</time>
      </trkpt>
      <trkpt lat="42.126006999999845" lon="-1.1414679999999973">
        <ele>344.438</ele>
        <time>2022-06-17T15:30:01Z</time>
      </trkpt>
      <trkpt lat="42.12602799999984" lon="-1.1414009999999972">
        <ele>344.446</ele>
        <time>2022-06-17T15:30:03Z</time>
      </trkpt>
      <trkpt lat="42.12610199999984" lon="-1.1411809999999971">
        <ele>344.430</ele>
        <time>2022-06-17T15:30:09Z</time>
      </trkpt>
      <trkpt lat="42.12619599999984" lon="-1.1408809999999971">
        <ele>344.648</ele>
        <time>2022-06-17T15:30:17Z</time>
      </trkpt>
      <trkpt lat="42.12625699999984" lon="-1.1406489999999971">
        <ele>344.871</ele>
        <time>2022-06-17T15:30:23Z</time>
      </trkpt>
      <trkpt lat="42.12633199999984" lon="-1.140428999999997">
        <ele>345.241</ele>
        <time>2022-06-17T15:30:29Z</time>
      </trkpt>
      <trkpt lat="42.12642299999984" lon="-1.140256999999997">
        <ele>345.415</ele>
        <time>2022-06-17T15:30:35Z</time>
      </trkpt>
      <trkpt lat="42.126474999999836" lon="-1.140099999999997">
        <ele>345.809</ele>
        <time>2022-06-17T15:30:41Z</time>
      </trkpt>
      <trkpt lat="42.12655199999983" lon="-1.139893999999997">
        <ele>346.238</ele>
        <time>2022-06-17T15:30:48Z</time>
      </trkpt>
      <trkpt lat="42.12664299999983" lon="-1.1396529999999971">
        <ele>346.437</ele>
        <time>2022-06-17T15:30:55Z</time>
      </trkpt>
      <trkpt lat="42.126655999999834" lon="-1.1396169999999972">
        <ele>346.432</ele>
        <time>2022-06-17T15:30:56Z</time>
      </trkpt>
      <trkpt lat="42.126719999999835" lon="-1.1394889999999973">
        <ele>346.434</ele>
        <time>2022-06-17T15:31:00Z</time>
      </trkpt>
      <trkpt lat="42.126744999999836" lon="-1.1394169999999972">
        <ele>346.667</ele>
        <time>2022-06-17T15:31:02Z</time>
      </trkpt>
      <trkpt lat="42.12685399999984" lon="-1.1391449999999972">
        <ele>347.060</ele>
        <time>2022-06-17T15:31:10Z</time>
      </trkpt>
      <trkpt lat="42.126885999999836" lon="-1.138967999999997">
        <ele>347.238</ele>
        <time>2022-06-17T15:31:16Z</time>
      </trkpt>
      <trkpt lat="42.12693499999983" lon="-1.138817999999997">
        <ele>347.442</ele>
        <time>2022-06-17T15:31:22Z</time>
      </trkpt>
      <trkpt lat="42.12698299999983" lon="-1.138761999999997">
        <ele>347.620</ele>
        <time>2022-06-17T15:31:25Z</time>
      </trkpt>
      <trkpt lat="42.12698699999983" lon="-1.1387629999999969">
        <ele>347.672</ele>
        <time>2022-06-17T15:31:26Z</time>
      </trkpt>
      <trkpt lat="42.12698699999983" lon="-1.1387629999999969">
        <ele>347.613</ele>
        <time>2022-06-17T15:31:28Z</time>
      </trkpt>
      <trkpt lat="42.12692799999983" lon="-1.1387899999999969">
        <ele>349.614</ele>
        <time>2022-06-17T15:51:51Z</time>
      </trkpt>
      <trkpt lat="42.12692799999983" lon="-1.1387899999999969">
        <ele>349.609</ele>
        <time>2022-06-17T15:51:52Z</time>
      </trkpt>
      <trkpt lat="42.12689199999983" lon="-1.138810999999997">
        <ele>349.448</ele>
        <time>2022-06-17T15:51:54Z</time>
      </trkpt>
      <trkpt lat="42.126855999999826" lon="-1.138812999999997">
        <ele>349.237</ele>
        <time>2022-06-17T15:51:55Z</time>
      </trkpt>
      <trkpt lat="42.12661599999983" lon="-1.138802999999997">
        <ele>348.662</ele>
        <time>2022-06-17T15:52:00Z</time>
      </trkpt>
      <trkpt lat="42.12632499999983" lon="-1.1387599999999969">
        <ele>348.224</ele>
        <time>2022-06-17T15:52:07Z</time>
      </trkpt>
      <trkpt lat="42.12627999999983" lon="-1.138650999999997">
        <ele>348.277</ele>
        <time>2022-06-17T15:52:11Z</time>
      </trkpt>
      <trkpt lat="42.12634199999983" lon="-1.138558999999997">
        <ele>348.030</ele>
        <time>2022-06-17T15:52:16Z</time>
      </trkpt>
      <trkpt lat="42.12640599999983" lon="-1.138361999999997">
        <ele>348.088</ele>
        <time>2022-06-17T15:52:22Z</time>
      </trkpt>
      <trkpt lat="42.126472999999834" lon="-1.138234999999997">
        <ele>348.062</ele>
        <time>2022-06-17T15:52:28Z</time>
      </trkpt>
      <trkpt lat="42.12647999999983" lon="-1.138204999999997">
        <ele>348.050</ele>
        <time>2022-06-17T15:52:32Z</time>
      </trkpt>
      <trkpt lat="42.12654199999983" lon="-1.138385999999997">
        <ele>352.645</ele>
        <time>2022-06-17T16:34:27Z</time>
      </trkpt>
      <trkpt lat="42.12650499999983" lon="-1.138403999999997">
        <ele>352.647</ele>
        <time>2022-06-17T16:34:29Z</time>
      </trkpt>
      <trkpt lat="42.12646399999983" lon="-1.138409999999997">
        <ele>352.411</ele>
        <time>2022-06-17T16:34:31Z</time>
      </trkpt>
      <trkpt lat="42.126489999999826" lon="-1.138442999999997">
        <ele>352.409</ele>
        <time>2022-06-17T16:34:33Z</time>
      </trkpt>
      <trkpt lat="42.12648699999983" lon="-1.1384549999999969">
        <ele>352.485</ele>
        <time>2022-06-17T16:34:35Z</time>
      </trkpt>
      <trkpt lat="42.12644199999983" lon="-1.138510999999997">
        <ele>352.454</ele>
        <time>2022-06-17T16:34:37Z</time>
      </trkpt>
      <trkpt lat="42.126422999999825" lon="-1.138575999999997">
        <ele>352.479</ele>
        <time>2022-06-17T16:34:39Z</time>
      </trkpt>
      <trkpt lat="42.126428999999824" lon="-1.138639999999997">
        <ele>352.411</ele>
        <time>2022-06-17T16:34:42Z</time>
      </trkpt>
      <trkpt lat="42.12643799999982" lon="-1.138735999999997">
        <ele>352.424</ele>
        <time>2022-06-17T16:34:47Z</time>
      </trkpt>
      <trkpt lat="42.126461999999826" lon="-1.138738999999997">
        <ele>352.467</ele>
        <time>2022-06-17T16:34:49Z</time>
      </trkpt>
      <trkpt lat="42.126467999999825" lon="-1.138739999999997">
        <ele>352.675</ele>
        <time>2022-06-17T16:34:52Z</time>
      </trkpt>
      <trkpt lat="42.12651199999983" lon="-1.138746999999997">
        <ele>353.069</ele>
        <time>2022-06-17T16:35:08Z</time>
      </trkpt>
      <trkpt lat="42.126565999999826" lon="-1.138750999999997">
        <ele>353.077</ele>
        <time>2022-06-17T16:35:10Z</time>
      </trkpt>
      <trkpt lat="42.126763999999824" lon="-1.138773999999997">
        <ele>353.052</ele>
        <time>2022-06-17T16:35:17Z</time>
      </trkpt>
      <trkpt lat="42.12680699999982" lon="-1.1387969999999972">
        <ele>353.053</ele>
        <time>2022-06-17T16:35:20Z</time>
      </trkpt>
      <trkpt lat="42.126822999999824" lon="-1.1388449999999972">
        <ele>353.208</ele>
        <time>2022-06-17T16:35:22Z</time>
      </trkpt>
      <trkpt lat="42.12681799999982" lon="-1.1389109999999971">
        <ele>353.209</ele>
        <time>2022-06-17T16:35:24Z</time>
      </trkpt>
      <trkpt lat="42.126763999999824" lon="-1.1390159999999971">
        <ele>353.246</ele>
        <time>2022-06-17T16:35:27Z</time>
      </trkpt>
      <trkpt lat="42.12666099999982" lon="-1.1393149999999972">
        <ele>353.285</ele>
        <time>2022-06-17T16:35:33Z</time>
      </trkpt>
      <trkpt lat="42.12662999999982" lon="-1.1394119999999972">
        <ele>353.010</ele>
        <time>2022-06-17T16:35:35Z</time>
      </trkpt>
      <trkpt lat="42.12656299999982" lon="-1.1396379999999973">
        <ele>352.822</ele>
        <time>2022-06-17T16:35:39Z</time>
      </trkpt>
      <trkpt lat="42.12654399999982" lon="-1.1396899999999972">
        <ele>352.675</ele>
        <time>2022-06-17T16:35:40Z</time>
      </trkpt>
      <trkpt lat="42.12638299999982" lon="-1.1401179999999973">
        <ele>352.048</ele>
        <time>2022-06-17T16:35:48Z</time>
      </trkpt>
      <trkpt lat="42.12633499999982" lon="-1.1402149999999973">
        <ele>352.096</ele>
        <time>2022-06-17T16:35:51Z</time>
      </trkpt>
      <trkpt lat="42.12625199999982" lon="-1.1404109999999974">
        <ele>351.820</ele>
        <time>2022-06-17T16:35:56Z</time>
      </trkpt>
      <trkpt lat="42.12614499999982" lon="-1.1406899999999973">
        <ele>351.438</ele>
        <time>2022-06-17T16:36:02Z</time>
      </trkpt>
      <trkpt lat="42.12613099999982" lon="-1.1407409999999973">
        <ele>351.442</ele>
        <time>2022-06-17T16:36:03Z</time>
      </trkpt>
      <trkpt lat="42.125983999999825" lon="-1.1411679999999973">
        <ele>351.222</ele>
        <time>2022-06-17T16:36:11Z</time>
      </trkpt>
      <trkpt lat="42.125955999999825" lon="-1.1413109999999973">
        <ele>351.014</ele>
        <time>2022-06-17T16:36:15Z</time>
      </trkpt>
      <trkpt lat="42.125958999999824" lon="-1.1413389999999972">
        <ele>350.809</ele>
        <time>2022-06-17T16:36:16Z</time>
      </trkpt>
      <trkpt lat="42.125966999999825" lon="-1.1414009999999972">
        <ele>350.885</ele>
        <time>2022-06-17T16:36:18Z</time>
      </trkpt>
      <trkpt lat="42.125963999999826" lon="-1.1414249999999972">
        <ele>350.674</ele>
        <time>2022-06-17T16:36:19Z</time>
      </trkpt>
      <trkpt lat="42.125893999999825" lon="-1.1415949999999973">
        <ele>350.449</ele>
        <time>2022-06-17T16:36:24Z</time>
      </trkpt>
      <trkpt lat="42.125840999999824" lon="-1.1417489999999972">
        <ele>350.271</ele>
        <time>2022-06-17T16:36:28Z</time>
      </trkpt>
      <trkpt lat="42.12576299999982" lon="-1.1420689999999973">
        <ele>350.234</ele>
        <time>2022-06-17T16:36:37Z</time>
      </trkpt>
      <trkpt lat="42.12576799999982" lon="-1.1420929999999974">
        <ele>350.087</ele>
        <time>2022-06-17T16:36:38Z</time>
      </trkpt>
      <trkpt lat="42.12577699999982" lon="-1.1421259999999973">
        <ele>350.045</ele>
        <time>2022-06-17T16:36:40Z</time>
      </trkpt>
      <trkpt lat="42.12578799999982" lon="-1.1421429999999972">
        <ele>350.029</ele>
        <time>2022-06-17T16:36:42Z</time>
      </trkpt>
      <trkpt lat="42.12578799999982" lon="-1.1421429999999972">
        <ele>350.087</ele>
        <time>2022-06-17T16:36:44Z</time>
      </trkpt>
      <trkpt lat="42.12583099999982" lon="-1.1422209999999973">
        <ele>351.615</ele>
        <time>2022-06-17T16:51:13Z</time>
      </trkpt>
      <trkpt lat="42.12583699999982" lon="-1.1422419999999973">
        <ele>351.665</ele>
        <time>2022-06-17T16:51:14Z</time>
      </trkpt>
      <trkpt lat="42.12584099999982" lon="-1.1422629999999974">
        <ele>351.611</ele>
        <time>2022-06-17T16:51:15Z</time>
      </trkpt>
      <trkpt lat="42.12583099999981" lon="-1.1423189999999974">
        <ele>351.609</ele>
        <time>2022-06-17T16:51:17Z</time>
      </trkpt>
      <trkpt lat="42.12581699999981" lon="-1.1423489999999974">
        <ele>351.642</ele>
        <time>2022-06-17T16:51:18Z</time>
      </trkpt>
      <trkpt lat="42.125708999999816" lon="-1.1425039999999973">
        <ele>351.451</ele>
        <time>2022-06-17T16:51:24Z</time>
      </trkpt>
      <trkpt lat="42.125728999999815" lon="-1.1427499999999973">
        <ele>351.246</ele>
        <time>2022-06-17T16:51:30Z</time>
      </trkpt>
      <trkpt lat="42.125827999999814" lon="-1.1429959999999972">
        <ele>350.838</ele>
        <time>2022-06-17T16:51:35Z</time>
      </trkpt>
      <trkpt lat="42.12584899999981" lon="-1.1430469999999973">
        <ele>350.641</ele>
        <time>2022-06-17T16:51:36Z</time>
      </trkpt>
      <trkpt lat="42.12604299999981" lon="-1.1435059999999972">
        <ele>350.484</ele>
        <time>2022-06-17T16:51:45Z</time>
      </trkpt>
      <trkpt lat="42.12606599999981" lon="-1.1435509999999973">
        <ele>350.482</ele>
        <time>2022-06-17T16:51:46Z</time>
      </trkpt>
      <trkpt lat="42.12615699999981" lon="-1.1437249999999972">
        <ele>350.426</ele>
        <time>2022-06-17T16:51:50Z</time>
      </trkpt>
      <trkpt lat="42.126351999999805" lon="-1.1441469999999971">
        <ele>350.814</ele>
        <time>2022-06-17T16:51:59Z</time>
      </trkpt>
      <trkpt lat="42.126590999999806" lon="-1.1446329999999971">
        <ele>351.215</ele>
        <time>2022-06-17T16:52:09Z</time>
      </trkpt>
      <trkpt lat="42.12663199999981" lon="-1.1447239999999972">
        <ele>351.265</ele>
        <time>2022-06-17T16:52:11Z</time>
      </trkpt>
      <trkpt lat="42.12678399999981" lon="-1.1449999999999971">
        <ele>351.411</ele>
        <time>2022-06-17T16:52:17Z</time>
      </trkpt>
      <trkpt lat="42.12695899999981" lon="-1.1453449999999972">
        <ele>351.609</ele>
        <time>2022-06-17T16:52:25Z</time>
      </trkpt>
      <trkpt lat="42.127060999999806" lon="-1.1453819999999972">
        <ele>351.872</ele>
        <time>2022-06-17T16:52:29Z</time>
      </trkpt>
      <trkpt lat="42.12724299999981" lon="-1.1452999999999973">
        <ele>351.821</ele>
        <time>2022-06-17T16:52:35Z</time>
      </trkpt>
      <trkpt lat="42.12735299999981" lon="-1.1453179999999974">
        <ele>351.886</ele>
        <time>2022-06-17T16:52:39Z</time>
      </trkpt>
      <trkpt lat="42.12751499999981" lon="-1.1453479999999974">
        <ele>351.878</ele>
        <time>2022-06-17T16:52:45Z</time>
      </trkpt>
      <trkpt lat="42.12764799999981" lon="-1.1453779999999973">
        <ele>351.871</ele>
        <time>2022-06-17T16:52:51Z</time>
      </trkpt>
      <trkpt lat="42.12766199999981" lon="-1.1453929999999974">
        <ele>352.074</ele>
        <time>2022-06-17T16:52:55Z</time>
      </trkpt>
      <trkpt lat="42.12766199999981" lon="-1.1453929999999974">
        <ele>352.062</ele>
        <time>2022-06-17T16:52:56Z</time>
      </trkpt>
      <trkpt lat="42.127713999999806" lon="-1.1453229999999974">
        <ele>352.866</ele>
        <time>2022-06-17T16:58:34Z</time>
      </trkpt>
      <trkpt lat="42.127738999999806" lon="-1.1453159999999973">
        <ele>353.084</ele>
        <time>2022-06-17T16:58:37Z</time>
      </trkpt>
      <trkpt lat="42.127769999999806" lon="-1.1452739999999972">
        <ele>353.024</ele>
        <time>2022-06-17T16:58:40Z</time>
      </trkpt>
      <trkpt lat="42.127770999999804" lon="-1.1452739999999972">
        <ele>353.004</ele>
        <time>2022-06-17T16:58:41Z</time>
      </trkpt>
      <trkpt lat="42.12778099999981" lon="-1.1452649999999973">
        <ele>353.014</ele>
        <time>2022-06-17T16:58:42Z</time>
      </trkpt>
      <trkpt lat="42.12779399999981" lon="-1.1452529999999974">
        <ele>353.009</ele>
        <time>2022-06-17T16:58:44Z</time>
      </trkpt>
      <trkpt lat="42.12782699999981" lon="-1.1451959999999974">
        <ele>353.063</ele>
        <time>2022-06-17T16:58:51Z</time>
      </trkpt>
      <trkpt lat="42.12778599999981" lon="-1.1452629999999975">
        <ele>352.672</ele>
        <time>2022-06-17T16:59:45Z</time>
      </trkpt>
      <trkpt lat="42.12779699999981" lon="-1.1452549999999975">
        <ele>352.687</ele>
        <time>2022-06-17T16:59:46Z</time>
      </trkpt>
      <trkpt lat="42.12781099999981" lon="-1.1452449999999974">
        <ele>352.689</ele>
        <time>2022-06-17T16:59:47Z</time>
      </trkpt>
      <trkpt lat="42.12780999999981" lon="-1.1452479999999974">
        <ele>352.612</ele>
        <time>2022-06-17T16:59:50Z</time>
      </trkpt>
      <trkpt lat="42.127819999999815" lon="-1.1452559999999974">
        <ele>352.815</ele>
        <time>2022-06-17T17:00:12Z</time>
      </trkpt>
      <trkpt lat="42.12792499999981" lon="-1.1451669999999974">
        <ele>353.023</ele>
        <time>2022-06-17T17:00:17Z</time>
      </trkpt>
      <trkpt lat="42.12792299999981" lon="-1.1451709999999973">
        <ele>353.077</ele>
        <time>2022-06-17T17:00:21Z</time>
      </trkpt>
      <trkpt lat="42.12785899999981" lon="-1.1452379999999973">
        <ele>352.885</ele>
        <time>2022-06-17T17:00:34Z</time>
      </trkpt>
      <trkpt lat="42.12778599999981" lon="-1.1452899999999973">
        <ele>352.837</ele>
        <time>2022-06-17T17:00:36Z</time>
      </trkpt>
      <trkpt lat="42.12766999999981" lon="-1.1453579999999972">
        <ele>352.849</ele>
        <time>2022-06-17T17:00:42Z</time>
      </trkpt>
      <trkpt lat="42.12766999999981" lon="-1.1453579999999972">
        <ele>352.813</ele>
        <time>2022-06-17T17:00:43Z</time>
      </trkpt>
      <trkpt lat="42.12760799999981" lon="-1.1454139999999973">
        <ele>353.209</ele>
        <time>2022-06-17T17:10:23Z</time>
      </trkpt>
      <trkpt lat="42.12758399999981" lon="-1.1454049999999973">
        <ele>353.234</ele>
        <time>2022-06-17T17:10:25Z</time>
      </trkpt>
      <trkpt lat="42.12751799999981" lon="-1.1454339999999974">
        <ele>353.433</ele>
        <time>2022-06-17T17:10:30Z</time>
      </trkpt>
      <trkpt lat="42.12750499999981" lon="-1.1454229999999974">
        <ele>353.428</ele>
        <time>2022-06-17T17:10:31Z</time>
      </trkpt>
      <trkpt lat="42.127505999999805" lon="-1.1454189999999975">
        <ele>353.430</ele>
        <time>2022-06-17T17:10:32Z</time>
      </trkpt>
      <trkpt lat="42.127505999999805" lon="-1.1454189999999975">
        <ele>353.453</ele>
        <time>2022-06-17T17:10:34Z</time>
      </trkpt>
      <trkpt lat="42.1274869999998" lon="-1.1453579999999974">
        <ele>353.426</ele>
        <time>2022-06-17T17:10:46Z</time>
      </trkpt>
      <trkpt lat="42.127488999999805" lon="-1.1453479999999974">
        <ele>353.434</ele>
        <time>2022-06-17T17:10:48Z</time>
      </trkpt>
      <trkpt lat="42.127483999999804" lon="-1.1453599999999973">
        <ele>353.488</ele>
        <time>2022-06-17T17:10:59Z</time>
      </trkpt>
      <trkpt lat="42.1274819999998" lon="-1.1453679999999973">
        <ele>353.446</ele>
        <time>2022-06-17T17:11:02Z</time>
      </trkpt>
      <trkpt lat="42.1275519999998" lon="-1.1452749999999974">
        <ele>353.264</ele>
        <time>2022-06-17T17:11:11Z</time>
      </trkpt>
      <trkpt lat="42.1275869999998" lon="-1.1452419999999974">
        <ele>353.206</ele>
        <time>2022-06-17T17:11:19Z</time>
      </trkpt>
      <trkpt lat="42.1275889999998" lon="-1.1452359999999975">
        <ele>353.416</ele>
        <time>2022-06-17T17:11:23Z</time>
      </trkpt>
      <trkpt lat="42.1275929999998" lon="-1.1452319999999976">
        <ele>353.409</ele>
        <time>2022-06-17T17:11:27Z</time>
      </trkpt>
      <trkpt lat="42.127565999999796" lon="-1.1452939999999976">
        <ele>353.427</ele>
        <time>2022-06-17T17:11:41Z</time>
      </trkpt>
      <trkpt lat="42.1274329999998" lon="-1.1455039999999976">
        <ele>353.476</ele>
        <time>2022-06-17T17:11:48Z</time>
      </trkpt>
      <trkpt lat="42.1274329999998" lon="-1.1455059999999977">
        <ele>353.491</ele>
        <time>2022-06-17T17:11:53Z</time>
      </trkpt>
      <trkpt lat="42.1274329999998" lon="-1.1455059999999977">
        <ele>353.493</ele>
        <time>2022-06-17T17:11:54Z</time>
      </trkpt>
      <trkpt lat="42.1276459999998" lon="-1.1453759999999977">
        <ele>353.486</ele>
        <time>2022-06-17T17:13:42Z</time>
      </trkpt>
      <trkpt lat="42.1276479999998" lon="-1.1453759999999977">
        <ele>353.449</ele>
        <time>2022-06-17T17:13:44Z</time>
      </trkpt>
      <trkpt lat="42.1276549999998" lon="-1.1453729999999978">
        <ele>353.437</ele>
        <time>2022-06-17T17:13:47Z</time>
      </trkpt>
      <trkpt lat="42.1276549999998" lon="-1.1453729999999978">
        <ele>353.471</ele>
        <time>2022-06-17T17:13:49Z</time>
      </trkpt>
      <trkpt lat="42.127641999999796" lon="-1.1453949999999977">
        <ele>353.489</ele>
        <time>2022-06-17T17:13:53Z</time>
      </trkpt>
      <trkpt lat="42.1276439999998" lon="-1.1453969999999978">
        <ele>353.465</ele>
        <time>2022-06-17T17:13:54Z</time>
      </trkpt>
      <trkpt lat="42.1276439999998" lon="-1.1453969999999978">
        <ele>353.468</ele>
        <time>2022-06-17T17:13:55Z</time>
      </trkpt>
      <trkpt lat="42.127787999999796" lon="-1.1452729999999978">
        <ele>353.414</ele>
        <time>2022-06-17T17:14:26Z</time>
      </trkpt>
      <trkpt lat="42.127787999999796" lon="-1.1452729999999978">
        <ele>353.409</ele>
        <time>2022-06-17T17:14:28Z</time>
      </trkpt>
      <trkpt lat="42.127787999999796" lon="-1.1452749999999978">
        <ele>353.427</ele>
        <time>2022-06-17T17:14:31Z</time>
      </trkpt>
      <trkpt lat="42.127793999999795" lon="-1.1452749999999978">
        <ele>353.446</ele>
        <time>2022-06-17T17:16:34Z</time>
      </trkpt>
      <trkpt lat="42.127782999999795" lon="-1.1452969999999978">
        <ele>353.461</ele>
        <time>2022-06-17T17:16:35Z</time>
      </trkpt>
      <trkpt lat="42.127765999999795" lon="-1.1453609999999979">
        <ele>353.423</ele>
        <time>2022-06-17T17:16:37Z</time>
      </trkpt>
      <trkpt lat="42.127748999999795" lon="-1.145394999999998">
        <ele>353.456</ele>
        <time>2022-06-17T17:16:38Z</time>
      </trkpt>
      <trkpt lat="42.12764899999979" lon="-1.145512999999998">
        <ele>353.449</ele>
        <time>2022-06-17T17:16:41Z</time>
      </trkpt>
      <trkpt lat="42.127616999999795" lon="-1.145532999999998">
        <ele>353.467</ele>
        <time>2022-06-17T17:16:42Z</time>
      </trkpt>
      <trkpt lat="42.12749699999979" lon="-1.145486999999998">
        <ele>353.211</ele>
        <time>2022-06-17T17:16:46Z</time>
      </trkpt>
      <trkpt lat="42.12734599999979" lon="-1.145265999999998">
        <ele>353.019</ele>
        <time>2022-06-17T17:16:53Z</time>
      </trkpt>
      <trkpt lat="42.12724499999979" lon="-1.1452639999999978">
        <ele>352.892</ele>
        <time>2022-06-17T17:16:58Z</time>
      </trkpt>
      <trkpt lat="42.12710699999979" lon="-1.145456999999998">
        <ele>352.873</ele>
        <time>2022-06-17T17:17:05Z</time>
      </trkpt>
      <trkpt lat="42.127093999999786" lon="-1.145543999999998">
        <ele>352.820</ele>
        <time>2022-06-17T17:17:10Z</time>
      </trkpt>
      <trkpt lat="42.127091999999784" lon="-1.145567999999998">
        <ele>352.809</ele>
        <time>2022-06-17T17:17:13Z</time>
      </trkpt>
      <trkpt lat="42.12712399999978" lon="-1.1456579999999978">
        <ele>352.840</ele>
        <time>2022-06-17T17:17:17Z</time>
      </trkpt>
      <trkpt lat="42.12724899999978" lon="-1.1458819999999978">
        <ele>352.829</ele>
        <time>2022-06-17T17:17:23Z</time>
      </trkpt>
      <trkpt lat="42.12742299999978" lon="-1.1461839999999979">
        <ele>352.684</ele>
        <time>2022-06-17T17:17:30Z</time>
      </trkpt>
      <trkpt lat="42.12751099999978" lon="-1.1463219999999978">
        <ele>352.476</ele>
        <time>2022-06-17T17:17:33Z</time>
      </trkpt>
      <trkpt lat="42.127604999999775" lon="-1.1464309999999978">
        <ele>352.259</ele>
        <time>2022-06-17T17:17:36Z</time>
      </trkpt>
      <trkpt lat="42.127649999999775" lon="-1.1464639999999977">
        <ele>352.222</ele>
        <time>2022-06-17T17:17:37Z</time>
      </trkpt>
      <trkpt lat="42.127691999999776" lon="-1.1464759999999976">
        <ele>352.220</ele>
        <time>2022-06-17T17:17:38Z</time>
      </trkpt>
      <trkpt lat="42.127810999999774" lon="-1.1464819999999976">
        <ele>352.214</ele>
        <time>2022-06-17T17:17:41Z</time>
      </trkpt>
      <trkpt lat="42.12785399999977" lon="-1.1464899999999976">
        <ele>352.282</ele>
        <time>2022-06-17T17:17:42Z</time>
      </trkpt>
      <trkpt lat="42.127900999999774" lon="-1.1465069999999975">
        <ele>352.288</ele>
        <time>2022-06-17T17:17:43Z</time>
      </trkpt>
      <trkpt lat="42.12796999999978" lon="-1.1465629999999976">
        <ele>352.224</ele>
        <time>2022-06-17T17:17:45Z</time>
      </trkpt>
      <trkpt lat="42.127998999999775" lon="-1.1466029999999976">
        <ele>352.226</ele>
        <time>2022-06-17T17:17:46Z</time>
      </trkpt>
      <trkpt lat="42.128021999999774" lon="-1.1466479999999977">
        <ele>352.209</ele>
        <time>2022-06-17T17:17:47Z</time>
      </trkpt>
      <trkpt lat="42.128052999999774" lon="-1.1467539999999976">
        <ele>352.289</ele>
        <time>2022-06-17T17:17:49Z</time>
      </trkpt>
      <trkpt lat="42.12805999999977" lon="-1.1468129999999976">
        <ele>352.288</ele>
        <time>2022-06-17T17:17:50Z</time>
      </trkpt>
      <trkpt lat="42.12806099999977" lon="-1.1468769999999977">
        <ele>352.233</ele>
        <time>2022-06-17T17:17:51Z</time>
      </trkpt>
      <trkpt lat="42.12804099999977" lon="-1.1469989999999977">
        <ele>352.225</ele>
        <time>2022-06-17T17:17:53Z</time>
      </trkpt>
      <trkpt lat="42.12801999999977" lon="-1.1470539999999976">
        <ele>352.288</ele>
        <time>2022-06-17T17:17:54Z</time>
      </trkpt>
      <trkpt lat="42.12799499999977" lon="-1.1470949999999975">
        <ele>352.261</ele>
        <time>2022-06-17T17:17:55Z</time>
      </trkpt>
      <trkpt lat="42.12789399999977" lon="-1.1472279999999975">
        <ele>352.239</ele>
        <time>2022-06-17T17:17:58Z</time>
      </trkpt>
      <trkpt lat="42.12786699999977" lon="-1.1472769999999974">
        <ele>352.233</ele>
        <time>2022-06-17T17:17:59Z</time>
      </trkpt>
      <trkpt lat="42.12784699999977" lon="-1.1473339999999974">
        <ele>352.241</ele>
        <time>2022-06-17T17:18:00Z</time>
      </trkpt>
      <trkpt lat="42.12783999999977" lon="-1.1474569999999975">
        <ele>352.273</ele>
        <time>2022-06-17T17:18:02Z</time>
      </trkpt>
      <trkpt lat="42.127849999999775" lon="-1.1475189999999975">
        <ele>352.285</ele>
        <time>2022-06-17T17:18:03Z</time>
      </trkpt>
      <trkpt lat="42.128001999999775" lon="-1.1480429999999975">
        <ele>352.213</ele>
        <time>2022-06-17T17:18:12Z</time>
      </trkpt>
      <trkpt lat="42.12817699999977" lon="-1.1486059999999976">
        <ele>352.209</ele>
        <time>2022-06-17T17:18:22Z</time>
      </trkpt>
      <trkpt lat="42.128372999999776" lon="-1.1492429999999976">
        <ele>352.638</ele>
        <time>2022-06-17T17:18:33Z</time>
      </trkpt>
      <trkpt lat="42.128595999999774" lon="-1.1499059999999977">
        <ele>353.037</ele>
        <time>2022-06-17T17:18:44Z</time>
      </trkpt>
      <trkpt lat="42.12861699999977" lon="-1.1499469999999976">
        <ele>353.042</ele>
        <time>2022-06-17T17:18:45Z</time>
      </trkpt>
      <trkpt lat="42.12869599999977" lon="-1.1500389999999976">
        <ele>353.074</ele>
        <time>2022-06-17T17:18:47Z</time>
      </trkpt>
      <trkpt lat="42.12872999999977" lon="-1.1500619999999977">
        <ele>353.027</ele>
        <time>2022-06-17T17:18:48Z</time>
      </trkpt>
      <trkpt lat="42.12877499999977" lon="-1.1500889999999977">
        <ele>353.080</ele>
        <time>2022-06-17T17:18:49Z</time>
      </trkpt>
      <trkpt lat="42.12888099999977" lon="-1.1501309999999978">
        <ele>352.858</ele>
        <time>2022-06-17T17:18:51Z</time>
      </trkpt>
      <trkpt lat="42.12897199999977" lon="-1.1501779999999977">
        <ele>352.862</ele>
        <time>2022-06-17T17:18:53Z</time>
      </trkpt>
      <trkpt lat="42.12904999999977" lon="-1.1502419999999978">
        <ele>352.880</ele>
        <time>2022-06-17T17:18:55Z</time>
      </trkpt>
      <trkpt lat="42.129113999999774" lon="-1.1503319999999977">
        <ele>352.885</ele>
        <time>2022-06-17T17:18:57Z</time>
      </trkpt>
      <trkpt lat="42.129158999999774" lon="-1.1504479999999977">
        <ele>352.889</ele>
        <time>2022-06-17T17:18:59Z</time>
      </trkpt>
      <trkpt lat="42.129186999999774" lon="-1.1505729999999976">
        <ele>352.817</ele>
        <time>2022-06-17T17:19:01Z</time>
      </trkpt>
      <trkpt lat="42.129194999999775" lon="-1.1506369999999977">
        <ele>352.809</ele>
        <time>2022-06-17T17:19:02Z</time>
      </trkpt>
      <trkpt lat="42.129205999999776" lon="-1.1507039999999977">
        <ele>352.849</ele>
        <time>2022-06-17T17:19:03Z</time>
      </trkpt>
      <trkpt lat="42.12922499999978" lon="-1.1507679999999978">
        <ele>352.858</ele>
        <time>2022-06-17T17:19:04Z</time>
      </trkpt>
      <trkpt lat="42.129253999999776" lon="-1.1508229999999977">
        <ele>352.873</ele>
        <time>2022-06-17T17:19:05Z</time>
      </trkpt>
      <trkpt lat="42.12929499999978" lon="-1.1508699999999976">
        <ele>352.855</ele>
        <time>2022-06-17T17:19:06Z</time>
      </trkpt>
      <trkpt lat="42.12934299999978" lon="-1.1509059999999975">
        <ele>352.818</ele>
        <time>2022-06-17T17:19:07Z</time>
      </trkpt>
      <trkpt lat="42.129543999999775" lon="-1.1509999999999976">
        <ele>352.811</ele>
        <time>2022-06-17T17:19:11Z</time>
      </trkpt>
      <trkpt lat="42.129926999999775" lon="-1.1511489999999975">
        <ele>352.849</ele>
        <time>2022-06-17T17:19:19Z</time>
      </trkpt>
      <trkpt lat="42.130115999999774" lon="-1.1511569999999975">
        <ele>352.873</ele>
        <time>2022-06-17T17:19:23Z</time>
      </trkpt>
      <trkpt lat="42.13021499999977" lon="-1.1511289999999976">
        <ele>352.861</ele>
        <time>2022-06-17T17:19:25Z</time>
      </trkpt>
      <trkpt lat="42.13048499999977" lon="-1.1509689999999977">
        <ele>353.085</ele>
        <time>2022-06-17T17:19:31Z</time>
      </trkpt>
      <trkpt lat="42.13078399999977" lon="-1.1507349999999976">
        <ele>353.089</ele>
        <time>2022-06-17T17:19:38Z</time>
      </trkpt>
      <trkpt lat="42.13104499999977" lon="-1.1505809999999976">
        <ele>353.217</ele>
        <time>2022-06-17T17:19:44Z</time>
      </trkpt>
      <trkpt lat="42.13114699999977" lon="-1.1505569999999976">
        <ele>353.409</ele>
        <time>2022-06-17T17:19:46Z</time>
      </trkpt>
      <trkpt lat="42.13129099999977" lon="-1.1505429999999977">
        <ele>353.689</ele>
        <time>2022-06-17T17:19:49Z</time>
      </trkpt>
      <trkpt lat="42.13134099999977" lon="-1.1505509999999977">
        <ele>353.628</ele>
        <time>2022-06-17T17:19:50Z</time>
      </trkpt>
      <trkpt lat="42.13143699999977" lon="-1.1505719999999977">
        <ele>353.623</ele>
        <time>2022-06-17T17:19:52Z</time>
      </trkpt>
      <trkpt lat="42.13161999999977" lon="-1.1506579999999977">
        <ele>353.675</ele>
        <time>2022-06-17T17:19:56Z</time>
      </trkpt>
      <trkpt lat="42.13170399999977" lon="-1.1507199999999977">
        <ele>353.658</ele>
        <time>2022-06-17T17:19:58Z</time>
      </trkpt>
      <trkpt lat="42.13219899999977" lon="-1.1511459999999978">
        <ele>353.831</ele>
        <time>2022-06-17T17:20:10Z</time>
      </trkpt>
      <trkpt lat="42.13256899999977" lon="-1.1514839999999977">
        <ele>354.219</ele>
        <time>2022-06-17T17:20:19Z</time>
      </trkpt>
      <trkpt lat="42.133028999999766" lon="-1.1518759999999977">
        <ele>354.633</ele>
        <time>2022-06-17T17:20:30Z</time>
      </trkpt>
      <trkpt lat="42.13341699999977" lon="-1.1522149999999978">
        <ele>354.861</ele>
        <time>2022-06-17T17:20:40Z</time>
      </trkpt>
      <trkpt lat="42.13375199999977" lon="-1.1525049999999977">
        <ele>355.625</ele>
        <time>2022-06-17T17:20:49Z</time>
      </trkpt>
      <trkpt lat="42.13411699999977" lon="-1.1528149999999977">
        <ele>356.626</ele>
        <time>2022-06-17T17:20:59Z</time>
      </trkpt>
      <trkpt lat="42.13415599999977" lon="-1.1528469999999977">
        <ele>356.808</ele>
        <time>2022-06-17T17:21:00Z</time>
      </trkpt>
      <trkpt lat="42.13453799999977" lon="-1.1531849999999977">
        <ele>357.409</ele>
        <time>2022-06-17T17:21:10Z</time>
      </trkpt>
      <trkpt lat="42.134646999999774" lon="-1.1532759999999977">
        <ele>357.873</ele>
        <time>2022-06-17T17:21:13Z</time>
      </trkpt>
      <trkpt lat="42.134871999999774" lon="-1.1534669999999978">
        <ele>358.232</ele>
        <time>2022-06-17T17:21:19Z</time>
      </trkpt>
      <trkpt lat="42.13490899999977" lon="-1.1534999999999977">
        <ele>358.487</ele>
        <time>2022-06-17T17:21:20Z</time>
      </trkpt>
      <trkpt lat="42.13519699999977" lon="-1.1537439999999977">
        <ele>359.039</ele>
        <time>2022-06-17T17:21:28Z</time>
      </trkpt>
      <trkpt lat="42.13526799999977" lon="-1.1538049999999977">
        <ele>359.092</ele>
        <time>2022-06-17T17:21:30Z</time>
      </trkpt>
      <trkpt lat="42.13558699999977" lon="-1.1540779999999977">
        <ele>359.665</ele>
        <time>2022-06-17T17:21:39Z</time>
      </trkpt>
      <trkpt lat="42.13579999999977" lon="-1.1542579999999978">
        <ele>360.043</ele>
        <time>2022-06-17T17:21:45Z</time>
      </trkpt>
      <trkpt lat="42.13600299999977" lon="-1.1544359999999978">
        <ele>360.847</ele>
        <time>2022-06-17T17:21:51Z</time>
      </trkpt>
      <trkpt lat="42.13610199999977" lon="-1.1545209999999977">
        <ele>361.245</ele>
        <time>2022-06-17T17:21:54Z</time>
      </trkpt>
      <trkpt lat="42.13634399999977" lon="-1.1547289999999977">
        <ele>361.686</ele>
        <time>2022-06-17T17:22:01Z</time>
      </trkpt>
      <trkpt lat="42.136557999999766" lon="-1.1549169999999978">
        <ele>362.260</ele>
        <time>2022-06-17T17:22:07Z</time>
      </trkpt>
      <trkpt lat="42.136830999999766" lon="-1.1551549999999977">
        <ele>362.226</ele>
        <time>2022-06-17T17:22:14Z</time>
      </trkpt>
      <trkpt lat="42.13721599999977" lon="-1.1554929999999977">
        <ele>362.409</ele>
        <time>2022-06-17T17:22:24Z</time>
      </trkpt>
      <trkpt lat="42.137703999999765" lon="-1.1559039999999976">
        <ele>362.849</ele>
        <time>2022-06-17T17:22:37Z</time>
      </trkpt>
      <trkpt lat="42.137739999999766" lon="-1.1559349999999975">
        <ele>362.858</ele>
        <time>2022-06-17T17:22:38Z</time>
      </trkpt>
      <trkpt lat="42.13784599999977" lon="-1.1560319999999975">
        <ele>363.273</ele>
        <time>2022-06-17T17:22:41Z</time>
      </trkpt>
      <trkpt lat="42.13816199999977" lon="-1.1563069999999975">
        <ele>364.025</ele>
        <time>2022-06-17T17:22:50Z</time>
      </trkpt>
      <trkpt lat="42.13826599999977" lon="-1.1564009999999976">
        <ele>364.288</ele>
        <time>2022-06-17T17:22:53Z</time>
      </trkpt>
      <trkpt lat="42.138556999999764" lon="-1.1566549999999975">
        <ele>364.621</ele>
        <time>2022-06-17T17:23:01Z</time>
      </trkpt>
      <trkpt lat="42.138952999999766" lon="-1.1569929999999975">
        <ele>365.089</ele>
        <time>2022-06-17T17:23:11Z</time>
      </trkpt>
      <trkpt lat="42.13944799999977" lon="-1.1574129999999976">
        <ele>365.243</ele>
        <time>2022-06-17T17:23:23Z</time>
      </trkpt>
      <trkpt lat="42.13948899999977" lon="-1.1574499999999976">
        <ele>365.251</ele>
        <time>2022-06-17T17:23:24Z</time>
      </trkpt>
      <trkpt lat="42.13989399999977" lon="-1.1578079999999977">
        <ele>365.444</ele>
        <time>2022-06-17T17:23:34Z</time>
      </trkpt>
      <trkpt lat="42.14033999999977" lon="-1.1581859999999977">
        <ele>365.605</ele>
        <time>2022-06-17T17:23:45Z</time>
      </trkpt>
      <trkpt lat="42.14074799999977" lon="-1.1585429999999977">
        <ele>366.015</ele>
        <time>2022-06-17T17:23:55Z</time>
      </trkpt>
      <trkpt lat="42.14095799999977" lon="-1.1587169999999976">
        <ele>366.209</ele>
        <time>2022-06-17T17:24:00Z</time>
      </trkpt>
      <trkpt lat="42.14120199999977" lon="-1.1589279999999975">
        <ele>366.485</ele>
        <time>2022-06-17T17:24:06Z</time>
      </trkpt>
      <trkpt lat="42.14124399999977" lon="-1.1589649999999976">
        <ele>366.454</ele>
        <time>2022-06-17T17:24:07Z</time>
      </trkpt>
      <trkpt lat="42.14152299999977" lon="-1.1592189999999976">
        <ele>366.439</ele>
        <time>2022-06-17T17:24:14Z</time>
      </trkpt>
      <trkpt lat="42.141963999999774" lon="-1.1595999999999975">
        <ele>366.881</ele>
        <time>2022-06-17T17:24:25Z</time>
      </trkpt>
      <trkpt lat="42.142371999999774" lon="-1.1599459999999975">
        <ele>367.234</ele>
        <time>2022-06-17T17:24:35Z</time>
      </trkpt>
      <trkpt lat="42.14245399999977" lon="-1.1600169999999974">
        <ele>367.287</ele>
        <time>2022-06-17T17:24:37Z</time>
      </trkpt>
      <trkpt lat="42.14285699999977" lon="-1.1603679999999974">
        <ele>367.695</ele>
        <time>2022-06-17T17:24:47Z</time>
      </trkpt>
      <trkpt lat="42.143339999999775" lon="-1.1607859999999974">
        <ele>368.259</ele>
        <time>2022-06-17T17:24:59Z</time>
      </trkpt>
      <trkpt lat="42.14338099999978" lon="-1.1608229999999975">
        <ele>368.237</ele>
        <time>2022-06-17T17:25:00Z</time>
      </trkpt>
      <trkpt lat="42.143420999999776" lon="-1.1608599999999976">
        <ele>368.264</ele>
        <time>2022-06-17T17:25:01Z</time>
      </trkpt>
      <trkpt lat="42.143902999999774" lon="-1.1612679999999975">
        <ele>368.806</ele>
        <time>2022-06-17T17:25:13Z</time>
      </trkpt>
      <trkpt lat="42.143983999999776" lon="-1.1613349999999976">
        <ele>368.816</ele>
        <time>2022-06-17T17:25:15Z</time>
      </trkpt>
      <trkpt lat="42.144428999999775" lon="-1.1617269999999975">
        <ele>369.009</ele>
        <time>2022-06-17T17:25:26Z</time>
      </trkpt>
      <trkpt lat="42.14463099999978" lon="-1.1619019999999975">
        <ele>369.247</ele>
        <time>2022-06-17T17:25:31Z</time>
      </trkpt>
      <trkpt lat="42.14484099999978" lon="-1.1620789999999976">
        <ele>369.476</ele>
        <time>2022-06-17T17:25:36Z</time>
      </trkpt>
      <trkpt lat="42.14529899999978" lon="-1.1624679999999976">
        <ele>369.821</ele>
        <time>2022-06-17T17:25:47Z</time>
      </trkpt>
      <trkpt lat="42.14546199999978" lon="-1.1626069999999975">
        <ele>369.823</ele>
        <time>2022-06-17T17:25:51Z</time>
      </trkpt>
      <trkpt lat="42.14582599999978" lon="-1.1629199999999975">
        <ele>370.456</ele>
        <time>2022-06-17T17:26:00Z</time>
      </trkpt>
      <trkpt lat="42.14590799999978" lon="-1.1629939999999974">
        <ele>370.459</ele>
        <time>2022-06-17T17:26:02Z</time>
      </trkpt>
      <trkpt lat="42.14638699999978" lon="-1.1634089999999975">
        <ele>371.037</ele>
        <time>2022-06-17T17:26:14Z</time>
      </trkpt>
      <trkpt lat="42.14647399999978" lon="-1.1634849999999974">
        <ele>371.021</ele>
        <time>2022-06-17T17:26:16Z</time>
      </trkpt>
      <trkpt lat="42.14678799999978" lon="-1.1637609999999974">
        <ele>371.439</ele>
        <time>2022-06-17T17:26:24Z</time>
      </trkpt>
      <trkpt lat="42.14694799999978" lon="-1.1639039999999974">
        <ele>371.694</ele>
        <time>2022-06-17T17:26:28Z</time>
      </trkpt>
      <trkpt lat="42.14738499999978" lon="-1.1642839999999974">
        <ele>371.857</ele>
        <time>2022-06-17T17:26:39Z</time>
      </trkpt>
      <trkpt lat="42.14777599999978" lon="-1.1646089999999973">
        <ele>372.222</ele>
        <time>2022-06-17T17:26:49Z</time>
      </trkpt>
      <trkpt lat="42.14789599999978" lon="-1.1647139999999974">
        <ele>372.409</ele>
        <time>2022-06-17T17:26:52Z</time>
      </trkpt>
      <trkpt lat="42.14813299999978" lon="-1.1649139999999973">
        <ele>372.870</ele>
        <time>2022-06-17T17:26:58Z</time>
      </trkpt>
      <trkpt lat="42.14852199999978" lon="-1.1652459999999973">
        <ele>373.239</ele>
        <time>2022-06-17T17:27:08Z</time>
      </trkpt>
      <trkpt lat="42.14856099999978" lon="-1.1652819999999973">
        <ele>373.474</ele>
        <time>2022-06-17T17:27:09Z</time>
      </trkpt>
      <trkpt lat="42.14903599999978" lon="-1.1656879999999972">
        <ele>373.846</ele>
        <time>2022-06-17T17:27:21Z</time>
      </trkpt>
      <trkpt lat="42.149076999999785" lon="-1.1657199999999972">
        <ele>373.829</ele>
        <time>2022-06-17T17:27:22Z</time>
      </trkpt>
      <trkpt lat="42.149434999999784" lon="-1.166028999999997">
        <ele>374.222</ele>
        <time>2022-06-17T17:27:31Z</time>
      </trkpt>
      <trkpt lat="42.14978999999978" lon="-1.166339999999997">
        <ele>374.470</ele>
        <time>2022-06-17T17:27:40Z</time>
      </trkpt>
      <trkpt lat="42.14990899999978" lon="-1.166447999999997">
        <ele>374.674</ele>
        <time>2022-06-17T17:27:43Z</time>
      </trkpt>
      <trkpt lat="42.15039199999978" lon="-1.1668569999999971">
        <ele>375.272</ele>
        <time>2022-06-17T17:27:55Z</time>
      </trkpt>
      <trkpt lat="42.150430999999784" lon="-1.1668909999999972">
        <ele>375.275</ele>
        <time>2022-06-17T17:27:56Z</time>
      </trkpt>
      <trkpt lat="42.150590999999785" lon="-1.1670279999999973">
        <ele>375.428</ele>
        <time>2022-06-17T17:28:00Z</time>
      </trkpt>
      <trkpt lat="42.15102899999979" lon="-1.1674009999999972">
        <ele>376.020</ele>
        <time>2022-06-17T17:28:11Z</time>
      </trkpt>
      <trkpt lat="42.15146699999979" lon="-1.1677889999999973">
        <ele>376.409</ele>
        <time>2022-06-17T17:28:22Z</time>
      </trkpt>
      <trkpt lat="42.15162099999979" lon="-1.1679309999999974">
        <ele>376.658</ele>
        <time>2022-06-17T17:28:26Z</time>
      </trkpt>
      <trkpt lat="42.152095999999794" lon="-1.1683389999999974">
        <ele>377.037</ele>
        <time>2022-06-17T17:28:38Z</time>
      </trkpt>
      <trkpt lat="42.152174999999794" lon="-1.1684079999999974">
        <ele>377.242</ele>
        <time>2022-06-17T17:28:40Z</time>
      </trkpt>
      <trkpt lat="42.152418999999796" lon="-1.1686169999999974">
        <ele>377.464</ele>
        <time>2022-06-17T17:28:46Z</time>
      </trkpt>
      <trkpt lat="42.152778999999796" lon="-1.1689249999999973">
        <ele>378.087</ele>
        <time>2022-06-17T17:28:55Z</time>
      </trkpt>
      <trkpt lat="42.153184999999795" lon="-1.1692749999999974">
        <ele>378.630</ele>
        <time>2022-06-17T17:29:05Z</time>
      </trkpt>
      <trkpt lat="42.153341999999796" lon="-1.1694129999999974">
        <ele>378.638</ele>
        <time>2022-06-17T17:29:09Z</time>
      </trkpt>
      <trkpt lat="42.153766999999796" lon="-1.1697739999999974">
        <ele>379.492</ele>
        <time>2022-06-17T17:29:20Z</time>
      </trkpt>
      <trkpt lat="42.1538789999998" lon="-1.1698729999999975">
        <ele>379.620</ele>
        <time>2022-06-17T17:29:23Z</time>
      </trkpt>
      <trkpt lat="42.154031999999795" lon="-1.1700079999999975">
        <ele>380.082</ele>
        <time>2022-06-17T17:29:27Z</time>
      </trkpt>
      <trkpt lat="42.15410299999979" lon="-1.1700689999999976">
        <ele>380.643</ele>
        <time>2022-06-17T17:29:29Z</time>
      </trkpt>
      <trkpt lat="42.154456999999795" lon="-1.1703769999999976">
        <ele>381.217</ele>
        <time>2022-06-17T17:29:38Z</time>
      </trkpt>
      <trkpt lat="42.1548609999998" lon="-1.1707229999999975">
        <ele>381.609</ele>
        <time>2022-06-17T17:29:48Z</time>
      </trkpt>
      <trkpt lat="42.1553469999998" lon="-1.1711419999999975">
        <ele>382.259</ele>
        <time>2022-06-17T17:30:00Z</time>
      </trkpt>
      <trkpt lat="42.1555049999998" lon="-1.1712819999999975">
        <ele>382.218</ele>
        <time>2022-06-17T17:30:04Z</time>
      </trkpt>
      <trkpt lat="42.1557019999998" lon="-1.1714509999999976">
        <ele>382.693</ele>
        <time>2022-06-17T17:30:09Z</time>
      </trkpt>
      <trkpt lat="42.1559429999998" lon="-1.1716639999999976">
        <ele>382.875</ele>
        <time>2022-06-17T17:30:15Z</time>
      </trkpt>
      <trkpt lat="42.1563409999998" lon="-1.1720069999999976">
        <ele>383.068</ele>
        <time>2022-06-17T17:30:25Z</time>
      </trkpt>
      <trkpt lat="42.1568189999998" lon="-1.1724169999999976">
        <ele>383.441</ele>
        <time>2022-06-17T17:30:37Z</time>
      </trkpt>
      <trkpt lat="42.1570609999998" lon="-1.1726209999999977">
        <ele>383.489</ele>
        <time>2022-06-17T17:30:43Z</time>
      </trkpt>
      <trkpt lat="42.1572659999998" lon="-1.1727949999999976">
        <ele>383.623</ele>
        <time>2022-06-17T17:30:48Z</time>
      </trkpt>
      <trkpt lat="42.157717999999804" lon="-1.1731939999999976">
        <ele>384.051</ele>
        <time>2022-06-17T17:30:59Z</time>
      </trkpt>
      <trkpt lat="42.1578419999998" lon="-1.1732959999999977">
        <ele>384.248</ele>
        <time>2022-06-17T17:31:02Z</time>
      </trkpt>
      <trkpt lat="42.1581409999998" lon="-1.1735529999999976">
        <ele>384.661</ele>
        <time>2022-06-17T17:31:09Z</time>
      </trkpt>
      <trkpt lat="42.158395999999804" lon="-1.1737689999999976">
        <ele>384.817</ele>
        <time>2022-06-17T17:31:15Z</time>
      </trkpt>
      <trkpt lat="42.15869599999981" lon="-1.1740349999999977">
        <ele>385.209</ele>
        <time>2022-06-17T17:31:22Z</time>
      </trkpt>
      <trkpt lat="42.158862999999805" lon="-1.1741799999999978">
        <ele>385.485</ele>
        <time>2022-06-17T17:31:26Z</time>
      </trkpt>
      <trkpt lat="42.158941999999804" lon="-1.1742539999999977">
        <ele>385.654</ele>
        <time>2022-06-17T17:31:28Z</time>
      </trkpt>
      <trkpt lat="42.1592749999998" lon="-1.1745309999999978">
        <ele>385.819</ele>
        <time>2022-06-17T17:31:36Z</time>
      </trkpt>
      <trkpt lat="42.1597559999998" lon="-1.1749539999999978">
        <ele>386.421</ele>
        <time>2022-06-17T17:31:48Z</time>
      </trkpt>
      <trkpt lat="42.159844999999805" lon="-1.1750249999999978">
        <ele>386.664</ele>
        <time>2022-06-17T17:31:50Z</time>
      </trkpt>
      <trkpt lat="42.160320999999804" lon="-1.1754309999999977">
        <ele>387.057</ele>
        <time>2022-06-17T17:32:02Z</time>
      </trkpt>
      <trkpt lat="42.160719999999806" lon="-1.1757809999999977">
        <ele>387.685</ele>
        <time>2022-06-17T17:32:12Z</time>
      </trkpt>
      <trkpt lat="42.1608029999998" lon="-1.1758509999999978">
        <ele>387.839</ele>
        <time>2022-06-17T17:32:14Z</time>
      </trkpt>
      <trkpt lat="42.1612109999998" lon="-1.1762059999999979">
        <ele>388.087</ele>
        <time>2022-06-17T17:32:24Z</time>
      </trkpt>
      <trkpt lat="42.1616989999998" lon="-1.1766329999999978">
        <ele>388.244</ele>
        <time>2022-06-17T17:32:36Z</time>
      </trkpt>
      <trkpt lat="42.1619809999998" lon="-1.1768759999999978">
        <ele>388.605</ele>
        <time>2022-06-17T17:32:43Z</time>
      </trkpt>
      <trkpt lat="42.1622219999998" lon="-1.1770819999999977">
        <ele>388.815</ele>
        <time>2022-06-17T17:32:49Z</time>
      </trkpt>
      <trkpt lat="42.1627029999998" lon="-1.1774839999999978">
        <ele>389.409</ele>
        <time>2022-06-17T17:33:01Z</time>
      </trkpt>
      <trkpt lat="42.1627429999998" lon="-1.1775199999999977">
        <ele>389.665</ele>
        <time>2022-06-17T17:33:02Z</time>
      </trkpt>
      <trkpt lat="42.1628579999998" lon="-1.1776199999999977">
        <ele>389.654</ele>
        <time>2022-06-17T17:33:05Z</time>
      </trkpt>
      <trkpt lat="42.1631449999998" lon="-1.1778799999999976">
        <ele>390.049</ele>
        <time>2022-06-17T17:33:12Z</time>
      </trkpt>
      <trkpt lat="42.1636119999998" lon="-1.1782819999999976">
        <ele>390.621</ele>
        <time>2022-06-17T17:33:24Z</time>
      </trkpt>
      <trkpt lat="42.1637309999998" lon="-1.1783819999999976">
        <ele>390.674</ele>
        <time>2022-06-17T17:33:27Z</time>
      </trkpt>
      <trkpt lat="42.1637699999998" lon="-1.1784169999999976">
        <ele>390.827</ele>
        <time>2022-06-17T17:33:28Z</time>
      </trkpt>
      <trkpt lat="42.1641689999998" lon="-1.1787589999999977">
        <ele>391.465</ele>
        <time>2022-06-17T17:33:38Z</time>
      </trkpt>
      <trkpt lat="42.164364999999805" lon="-1.1789299999999976">
        <ele>391.859</ele>
        <time>2022-06-17T17:33:43Z</time>
      </trkpt>
      <trkpt lat="42.1647179999998" lon="-1.1792399999999976">
        <ele>392.257</ele>
        <time>2022-06-17T17:33:52Z</time>
      </trkpt>
      <trkpt lat="42.1651969999998" lon="-1.1796559999999976">
        <ele>392.641</ele>
        <time>2022-06-17T17:34:04Z</time>
      </trkpt>
      <trkpt lat="42.1653169999998" lon="-1.1797599999999977">
        <ele>392.881</ele>
        <time>2022-06-17T17:34:07Z</time>
      </trkpt>
      <trkpt lat="42.1653169999998" lon="-1.1797599999999977">
        <ele>392.809</ele>
        <time>2022-06-17T17:34:08Z</time>
      </trkpt>
      <trkpt lat="42.1657289999998" lon="-1.1801129999999977">
        <ele>393.409</ele>
        <time>2022-06-17T17:34:17Z</time>
      </trkpt>
      <trkpt lat="42.1658099999998" lon="-1.1801829999999978">
        <ele>393.455</ele>
        <time>2022-06-17T17:34:19Z</time>
      </trkpt>
      <trkpt lat="42.1662799999998" lon="-1.1805809999999977">
        <ele>393.834</ele>
        <time>2022-06-17T17:34:31Z</time>
      </trkpt>
      <trkpt lat="42.1663589999998" lon="-1.1806479999999977">
        <ele>393.899</ele>
        <time>2022-06-17T17:34:33Z</time>
      </trkpt>
      <trkpt lat="42.1666859999998" lon="-1.1809359999999978">
        <ele>394.281</ele>
        <time>2022-06-17T17:34:41Z</time>
      </trkpt>
      <trkpt lat="42.1671389999998" lon="-1.1813339999999977">
        <ele>394.684</ele>
        <time>2022-06-17T17:34:52Z</time>
      </trkpt>
      <trkpt lat="42.1672199999998" lon="-1.1814019999999976">
        <ele>394.627</ele>
        <time>2022-06-17T17:34:54Z</time>
      </trkpt>
      <trkpt lat="42.167257999999805" lon="-1.1814379999999975">
        <ele>394.855</ele>
        <time>2022-06-17T17:34:55Z</time>
      </trkpt>
      <trkpt lat="42.167696999999805" lon="-1.1818309999999976">
        <ele>395.469</ele>
        <time>2022-06-17T17:35:06Z</time>
      </trkpt>
      <trkpt lat="42.1681879999998" lon="-1.1822599999999976">
        <ele>395.837</ele>
        <time>2022-06-17T17:35:18Z</time>
      </trkpt>
      <trkpt lat="42.1682639999998" lon="-1.1823249999999976">
        <ele>396.049</ele>
        <time>2022-06-17T17:35:20Z</time>
      </trkpt>
      <trkpt lat="42.1686629999998" lon="-1.1826669999999977">
        <ele>396.202</ele>
        <time>2022-06-17T17:35:30Z</time>
      </trkpt>
      <trkpt lat="42.169092999999805" lon="-1.1830369999999977">
        <ele>396.422</ele>
        <time>2022-06-17T17:35:41Z</time>
      </trkpt>
      <trkpt lat="42.1695299999998" lon="-1.1834239999999976">
        <ele>396.609</ele>
        <time>2022-06-17T17:35:52Z</time>
      </trkpt>
      <trkpt lat="42.169649999999805" lon="-1.1835199999999977">
        <ele>397.045</ele>
        <time>2022-06-17T17:35:56Z</time>
      </trkpt>
      <trkpt lat="42.16985499999981" lon="-1.1836989999999976">
        <ele>397.284</ele>
        <time>2022-06-17T17:36:00Z</time>
      </trkpt>
      <trkpt lat="42.17031299999981" lon="-1.1840949999999977">
        <ele>397.489</ele>
        <time>2022-06-17T17:36:11Z</time>
      </trkpt>
      <trkpt lat="42.17059099999981" lon="-1.1843359999999976">
        <ele>397.831</ele>
        <time>2022-06-17T17:36:18Z</time>
      </trkpt>
      <trkpt lat="42.17074699999981" lon="-1.1844659999999976">
        <ele>397.884</ele>
        <time>2022-06-17T17:36:22Z</time>
      </trkpt>
      <trkpt lat="42.17116499999981" lon="-1.1848319999999977">
        <ele>398.277</ele>
        <time>2022-06-17T17:36:32Z</time>
      </trkpt>
      <trkpt lat="42.17153599999981" lon="-1.1851469999999977">
        <ele>398.455</ele>
        <time>2022-06-17T17:36:41Z</time>
      </trkpt>
      <trkpt lat="42.17173099999981" lon="-1.1853119999999977">
        <ele>398.859</ele>
        <time>2022-06-17T17:36:46Z</time>
      </trkpt>
      <trkpt lat="42.17195899999981" lon="-1.1855159999999978">
        <ele>399.267</ele>
        <time>2022-06-17T17:36:52Z</time>
      </trkpt>
      <trkpt lat="42.17219699999981" lon="-1.1857349999999978">
        <ele>399.836</ele>
        <time>2022-06-17T17:36:58Z</time>
      </trkpt>
      <trkpt lat="42.17234999999981" lon="-1.1858629999999977">
        <ele>400.217</ele>
        <time>2022-06-17T17:37:02Z</time>
      </trkpt>
      <trkpt lat="42.17274599999981" lon="-1.1862109999999977">
        <ele>400.818</ele>
        <time>2022-06-17T17:37:12Z</time>
      </trkpt>
      <trkpt lat="42.172786999999815" lon="-1.1862469999999976">
        <ele>400.809</ele>
        <time>2022-06-17T17:37:13Z</time>
      </trkpt>
      <trkpt lat="42.17326999999982" lon="-1.1866669999999977">
        <ele>401.874</ele>
        <time>2022-06-17T17:37:25Z</time>
      </trkpt>
      <trkpt lat="42.173321999999814" lon="-1.1867109999999976">
        <ele>401.873</ele>
        <time>2022-06-17T17:37:26Z</time>
      </trkpt>
      <trkpt lat="42.17375399999982" lon="-1.1870829999999977">
        <ele>402.418</ele>
        <time>2022-06-17T17:37:36Z</time>
      </trkpt>
      <trkpt lat="42.17406799999982" lon="-1.1873569999999978">
        <ele>402.870</ele>
        <time>2022-06-17T17:37:43Z</time>
      </trkpt>
      <trkpt lat="42.17425699999982" lon="-1.1875079999999978">
        <ele>403.263</ele>
        <time>2022-06-17T17:37:47Z</time>
      </trkpt>
      <trkpt lat="42.17465199999982" lon="-1.1877969999999978">
        <ele>403.666</ele>
        <time>2022-06-17T17:37:56Z</time>
      </trkpt>
      <trkpt lat="42.17470199999982" lon="-1.1878069999999978">
        <ele>403.664</ele>
        <time>2022-06-17T17:37:57Z</time>
      </trkpt>
      <trkpt lat="42.17475299999982" lon="-1.1877929999999979">
        <ele>403.838</ele>
        <time>2022-06-17T17:37:58Z</time>
      </trkpt>
      <trkpt lat="42.17484899999982" lon="-1.187718999999998">
        <ele>403.846</ele>
        <time>2022-06-17T17:38:00Z</time>
      </trkpt>
      <trkpt lat="42.17506299999982" lon="-1.187465999999998">
        <ele>403.853</ele>
        <time>2022-06-17T17:38:05Z</time>
      </trkpt>
      <trkpt lat="42.17517199999982" lon="-1.187383999999998">
        <ele>403.804</ele>
        <time>2022-06-17T17:38:07Z</time>
      </trkpt>
      <trkpt lat="42.175524999999816" lon="-1.187229999999998">
        <ele>402.614</ele>
        <time>2022-06-17T17:38:13Z</time>
      </trkpt>
      <trkpt lat="42.17588999999982" lon="-1.187091999999998">
        <ele>401.809</ele>
        <time>2022-06-17T17:38:19Z</time>
      </trkpt>
      <trkpt lat="42.17594499999982" lon="-1.187070999999998">
        <ele>401.856</ele>
        <time>2022-06-17T17:38:20Z</time>
      </trkpt>
      <trkpt lat="42.176244999999824" lon="-1.186962999999998">
        <ele>401.825</ele>
        <time>2022-06-17T17:38:26Z</time>
      </trkpt>
      <trkpt lat="42.17677499999982" lon="-1.186814999999998">
        <ele>402.820</ele>
        <time>2022-06-17T17:38:36Z</time>
      </trkpt>
      <trkpt lat="42.17686599999982" lon="-1.186800999999998">
        <ele>403.032</ele>
        <time>2022-06-17T17:38:38Z</time>
      </trkpt>
      <trkpt lat="42.17724399999982" lon="-1.186759999999998">
        <ele>403.445</ele>
        <time>2022-06-17T17:38:46Z</time>
      </trkpt>
      <trkpt lat="42.17741799999982" lon="-1.186749999999998">
        <ele>404.038</ele>
        <time>2022-06-17T17:38:50Z</time>
      </trkpt>
      <trkpt lat="42.17768299999982" lon="-1.186738999999998">
        <ele>404.626</ele>
        <time>2022-06-17T17:38:56Z</time>
      </trkpt>
      <trkpt lat="42.17784899999982" lon="-1.186737999999998">
        <ele>405.260</ele>
        <time>2022-06-17T17:39:00Z</time>
      </trkpt>
      <trkpt lat="42.17811899999982" lon="-1.1867289999999981">
        <ele>406.028</ele>
        <time>2022-06-17T17:39:07Z</time>
      </trkpt>
      <trkpt lat="42.17815199999982" lon="-1.186718999999998">
        <ele>406.272</ele>
        <time>2022-06-17T17:39:08Z</time>
      </trkpt>
      <trkpt lat="42.17819699999982" lon="-1.186689999999998">
        <ele>406.413</ele>
        <time>2022-06-17T17:39:10Z</time>
      </trkpt>
      <trkpt lat="42.17820999999982" lon="-1.186667999999998">
        <ele>406.414</ele>
        <time>2022-06-17T17:39:11Z</time>
      </trkpt>
      <trkpt lat="42.178208999999825" lon="-1.186640999999998">
        <ele>406.409</ele>
        <time>2022-06-17T17:39:12Z</time>
      </trkpt>
      <trkpt lat="42.17816199999982" lon="-1.186551999999998">
        <ele>406.868</ele>
        <time>2022-06-17T17:39:15Z</time>
      </trkpt>
      <trkpt lat="42.17796799999982" lon="-1.1863269999999981">
        <ele>407.237</ele>
        <time>2022-06-17T17:39:22Z</time>
      </trkpt>
      <trkpt lat="42.17772899999982" lon="-1.186065999999998">
        <ele>407.252</ele>
        <time>2022-06-17T17:39:30Z</time>
      </trkpt>
      <trkpt lat="42.17760299999982" lon="-1.185939999999998">
        <ele>407.274</ele>
        <time>2022-06-17T17:39:34Z</time>
      </trkpt>
      <trkpt lat="42.17750899999982" lon="-1.185856999999998">
        <ele>407.267</ele>
        <time>2022-06-17T17:39:37Z</time>
      </trkpt>
      <trkpt lat="42.17736899999982" lon="-1.185659999999998">
        <ele>407.460</ele>
        <time>2022-06-17T17:39:43Z</time>
      </trkpt>
      <trkpt lat="42.17735199999982" lon="-1.185489999999998">
        <ele>407.488</ele>
        <time>2022-06-17T17:39:47Z</time>
      </trkpt>
      <trkpt lat="42.177440999999824" lon="-1.1852989999999979">
        <ele>407.842</ele>
        <time>2022-06-17T17:39:53Z</time>
      </trkpt>
      <trkpt lat="42.17752699999983" lon="-1.1852509999999978">
        <ele>408.220</ele>
        <time>2022-06-17T17:39:56Z</time>
      </trkpt>
      <trkpt lat="42.17761299999983" lon="-1.1852169999999977">
        <ele>408.894</ele>
        <time>2022-06-17T17:39:59Z</time>
      </trkpt>
      <trkpt lat="42.17772999999983" lon="-1.1851939999999976">
        <ele>409.257</ele>
        <time>2022-06-17T17:40:03Z</time>
      </trkpt>
      <trkpt lat="42.177796999999835" lon="-1.1851839999999976">
        <ele>409.622</ele>
        <time>2022-06-17T17:40:05Z</time>
      </trkpt>
      <trkpt lat="42.17796199999984" lon="-1.1851729999999976">
        <ele>410.209</ele>
        <time>2022-06-17T17:40:10Z</time>
      </trkpt>
      <trkpt lat="42.17821399999984" lon="-1.1851659999999975">
        <ele>411.290</ele>
        <time>2022-06-17T17:40:18Z</time>
      </trkpt>
      <trkpt lat="42.178268999999844" lon="-1.1851619999999976">
        <ele>411.259</ele>
        <time>2022-06-17T17:40:20Z</time>
      </trkpt>
      <trkpt lat="42.17841099999984" lon="-1.1851169999999975">
        <ele>411.884</ele>
        <time>2022-06-17T17:40:25Z</time>
      </trkpt>
      <trkpt lat="42.17842299999984" lon="-1.1850489999999976">
        <ele>412.026</ele>
        <time>2022-06-17T17:40:27Z</time>
      </trkpt>
      <trkpt lat="42.17840799999984" lon="-1.1850119999999975">
        <ele>412.029</ele>
        <time>2022-06-17T17:40:28Z</time>
      </trkpt>
      <trkpt lat="42.17827899999984" lon="-1.1849269999999976">
        <ele>412.252</ele>
        <time>2022-06-17T17:40:32Z</time>
      </trkpt>
      <trkpt lat="42.17809499999984" lon="-1.1847229999999975">
        <ele>412.080</ele>
        <time>2022-06-17T17:40:38Z</time>
      </trkpt>
      <trkpt lat="42.17790999999984" lon="-1.1844429999999975">
        <ele>410.844</ele>
        <time>2022-06-17T17:40:43Z</time>
      </trkpt>
      <trkpt lat="42.17777399999984" lon="-1.1842719999999975">
        <ele>409.832</ele>
        <time>2022-06-17T17:40:46Z</time>
      </trkpt>
      <trkpt lat="42.17764499999984" lon="-1.1841379999999975">
        <ele>409.038</ele>
        <time>2022-06-17T17:40:49Z</time>
      </trkpt>
      <trkpt lat="42.17760399999984" lon="-1.1841049999999975">
        <ele>408.670</ele>
        <time>2022-06-17T17:40:50Z</time>
      </trkpt>
      <trkpt lat="42.17756099999984" lon="-1.1840769999999976">
        <ele>408.217</ele>
        <time>2022-06-17T17:40:51Z</time>
      </trkpt>
      <trkpt lat="42.177480999999844" lon="-1.1840539999999975">
        <ele>407.809</ele>
        <time>2022-06-17T17:40:53Z</time>
      </trkpt>
      <trkpt lat="42.177378999999846" lon="-1.1839959999999976">
        <ele>407.844</ele>
        <time>2022-06-17T17:40:57Z</time>
      </trkpt>
      <trkpt lat="42.17730999999984" lon="-1.1838439999999977">
        <ele>407.823</ele>
        <time>2022-06-17T17:41:01Z</time>
      </trkpt>
      <trkpt lat="42.17721799999984" lon="-1.1837519999999977">
        <ele>408.488</ele>
        <time>2022-06-17T17:41:05Z</time>
      </trkpt>
      <trkpt lat="42.17712299999984" lon="-1.1837729999999977">
        <ele>409.030</ele>
        <time>2022-06-17T17:41:10Z</time>
      </trkpt>
      <trkpt lat="42.177053999999835" lon="-1.1838999999999977">
        <ele>409.283</ele>
        <time>2022-06-17T17:41:15Z</time>
      </trkpt>
      <trkpt lat="42.17705199999983" lon="-1.1840289999999978">
        <ele>409.246</ele>
        <time>2022-06-17T17:41:20Z</time>
      </trkpt>
      <trkpt lat="42.177056999999834" lon="-1.1841059999999979">
        <ele>408.844</ele>
        <time>2022-06-17T17:41:23Z</time>
      </trkpt>
      <trkpt lat="42.177042999999834" lon="-1.1841449999999978">
        <ele>408.618</ele>
        <time>2022-06-17T17:41:26Z</time>
      </trkpt>
      <trkpt lat="42.177042999999834" lon="-1.1841449999999978">
        <ele>408.466</ele>
        <time>2022-06-17T17:41:28Z</time>
      </trkpt>
      <trkpt lat="42.176927" lon="-1.184326">
        <ele>377.847</ele>
        <time>2022-06-18T07:45:15Z</time>
      </trkpt>
      <trkpt lat="42.176927" lon="-1.184326">
        <ele>380.429</ele>
        <time>2022-06-18T07:45:16Z</time>
      </trkpt>
      <trkpt lat="42.176992999999996" lon="-1.184188">
        <ele>380.621</ele>
        <time>2022-06-18T07:45:32Z</time>
      </trkpt>
      <trkpt lat="42.176995999999995" lon="-1.184132">
        <ele>380.409</ele>
        <time>2022-06-18T07:45:34Z</time>
      </trkpt>
      <trkpt lat="42.17703099999999" lon="-1.184073">
        <ele>380.225</ele>
        <time>2022-06-18T07:45:37Z</time>
      </trkpt>
      <trkpt lat="42.17704799999999" lon="-1.183979">
        <ele>380.454</ele>
        <time>2022-06-18T07:45:40Z</time>
      </trkpt>
      <trkpt lat="42.177133999999995" lon="-1.183798">
        <ele>380.839</ele>
        <time>2022-06-18T07:45:47Z</time>
      </trkpt>
      <trkpt lat="42.177192" lon="-1.183643">
        <ele>381.061</ele>
        <time>2022-06-18T07:45:53Z</time>
      </trkpt>
      <trkpt lat="42.177192999999995" lon="-1.183589">
        <ele>381.463</ele>
        <time>2022-06-18T07:45:55Z</time>
      </trkpt>
      <trkpt lat="42.177201" lon="-1.183463">
        <ele>381.837</ele>
        <time>2022-06-18T07:46:01Z</time>
      </trkpt>
      <trkpt lat="42.177203" lon="-1.183462">
        <ele>381.865</ele>
        <time>2022-06-18T07:46:02Z</time>
      </trkpt>
      <trkpt lat="42.177312" lon="-1.183517">
        <ele>382.020</ele>
        <time>2022-06-18T07:46:25Z</time>
      </trkpt>
      <trkpt lat="42.177355" lon="-1.183533">
        <ele>382.080</ele>
        <time>2022-06-18T07:46:27Z</time>
      </trkpt>
      <trkpt lat="42.177383" lon="-1.183544">
        <ele>382.264</ele>
        <time>2022-06-18T07:46:31Z</time>
      </trkpt>
      <trkpt lat="42.177382" lon="-1.1835419999999999">
        <ele>382.206</ele>
        <time>2022-06-18T07:46:32Z</time>
      </trkpt>
      <trkpt lat="42.177375000000005" lon="-1.183619">
        <ele>382.816</ele>
        <time>2022-06-18T07:54:12Z</time>
      </trkpt>
      <trkpt lat="42.177364000000004" lon="-1.1836769999999999">
        <ele>382.809</ele>
        <time>2022-06-18T07:54:14Z</time>
      </trkpt>
      <trkpt lat="42.17735700000001" lon="-1.1839129999999998">
        <ele>382.657</ele>
        <time>2022-06-18T07:54:20Z</time>
      </trkpt>
      <trkpt lat="42.177437000000005" lon="-1.1840369999999998">
        <ele>382.656</ele>
        <time>2022-06-18T07:54:24Z</time>
      </trkpt>
      <trkpt lat="42.17755700000001" lon="-1.1840419999999998">
        <ele>382.431</ele>
        <time>2022-06-18T07:54:28Z</time>
      </trkpt>
      <trkpt lat="42.17758700000001" lon="-1.1839719999999998">
        <ele>382.073</ele>
        <time>2022-06-18T07:54:31Z</time>
      </trkpt>
      <trkpt lat="42.17761000000001" lon="-1.1838529999999998">
        <ele>380.885</ele>
        <time>2022-06-18T07:54:35Z</time>
      </trkpt>
      <trkpt lat="42.17760600000001" lon="-1.1837579999999999">
        <ele>380.259</ele>
        <time>2022-06-18T07:54:38Z</time>
      </trkpt>
      <trkpt lat="42.17760300000001" lon="-1.183695">
        <ele>379.827</ele>
        <time>2022-06-18T07:54:40Z</time>
      </trkpt>
      <trkpt lat="42.17759400000001" lon="-1.1835309999999999">
        <ele>379.032</ele>
        <time>2022-06-18T07:54:46Z</time>
      </trkpt>
      <trkpt lat="42.17759200000001" lon="-1.183509">
        <ele>378.622</ele>
        <time>2022-06-18T07:54:47Z</time>
      </trkpt>
      <trkpt lat="42.17757600000001" lon="-1.183439">
        <ele>377.896</ele>
        <time>2022-06-18T07:54:51Z</time>
      </trkpt>
      <trkpt lat="42.17757300000001" lon="-1.183436">
        <ele>377.231</ele>
        <time>2022-06-18T07:54:52Z</time>
      </trkpt>
      <trkpt lat="42.17757100000001" lon="-1.183438">
        <ele>376.624</ele>
        <time>2022-06-18T07:54:54Z</time>
      </trkpt>
      <trkpt lat="42.17757300000001" lon="-1.183519">
        <ele>377.009</ele>
        <time>2022-06-18T07:59:58Z</time>
      </trkpt>
      <trkpt lat="42.17757700000001" lon="-1.183544">
        <ele>377.020</ele>
        <time>2022-06-18T07:59:59Z</time>
      </trkpt>
      <trkpt lat="42.177586000000005" lon="-1.183716">
        <ele>377.249</ele>
        <time>2022-06-18T08:00:05Z</time>
      </trkpt>
      <trkpt lat="42.17757900000001" lon="-1.18391">
        <ele>378.014</ele>
        <time>2022-06-18T08:00:12Z</time>
      </trkpt>
      <trkpt lat="42.177569000000005" lon="-1.183985">
        <ele>378.686</ele>
        <time>2022-06-18T08:00:15Z</time>
      </trkpt>
      <trkpt lat="42.17756500000001" lon="-1.184069">
        <ele>379.078</ele>
        <time>2022-06-18T08:00:19Z</time>
      </trkpt>
      <trkpt lat="42.17757400000001" lon="-1.184082">
        <ele>379.232</ele>
        <time>2022-06-18T08:00:20Z</time>
      </trkpt>
      <trkpt lat="42.17758800000001" lon="-1.184096">
        <ele>379.410</ele>
        <time>2022-06-18T08:00:21Z</time>
      </trkpt>
      <trkpt lat="42.17763500000001" lon="-1.184167">
        <ele>380.225</ele>
        <time>2022-06-18T08:00:25Z</time>
      </trkpt>
      <trkpt lat="42.17764700000001" lon="-1.1841949999999999">
        <ele>380.625</ele>
        <time>2022-06-18T08:00:27Z</time>
      </trkpt>
      <trkpt lat="42.177651000000004" lon="-1.184238">
        <ele>381.032</ele>
        <time>2022-06-18T08:00:32Z</time>
      </trkpt>
      <trkpt lat="42.177613" lon="-1.184281">
        <ele>383.092</ele>
        <time>2022-06-18T08:33:26Z</time>
      </trkpt>
      <trkpt lat="42.177625" lon="-1.184251">
        <ele>384.011</ele>
        <time>2022-06-18T08:33:28Z</time>
      </trkpt>
      <trkpt lat="42.177636" lon="-1.184235">
        <ele>384.009</ele>
        <time>2022-06-18T08:33:30Z</time>
      </trkpt>
      <trkpt lat="42.177623" lon="-1.184213">
        <ele>384.024</ele>
        <time>2022-06-18T08:33:32Z</time>
      </trkpt>
      <trkpt lat="42.177679999999995" lon="-1.184173">
        <ele>383.693</ele>
        <time>2022-06-18T08:33:44Z</time>
      </trkpt>
      <trkpt lat="42.177696999999995" lon="-1.184173">
        <ele>383.638</ele>
        <time>2022-06-18T08:33:45Z</time>
      </trkpt>
      <trkpt lat="42.177809999999994" lon="-1.184283">
        <ele>383.490</ele>
        <time>2022-06-18T08:33:50Z</time>
      </trkpt>
      <trkpt lat="42.177994999999996" lon="-1.184463">
        <ele>383.432</ele>
        <time>2022-06-18T08:33:57Z</time>
      </trkpt>
      <trkpt lat="42.178197" lon="-1.184491">
        <ele>383.856</ele>
        <time>2022-06-18T08:34:03Z</time>
      </trkpt>
      <trkpt lat="42.178411999999994" lon="-1.184402">
        <ele>384.064</ele>
        <time>2022-06-18T08:34:08Z</time>
      </trkpt>
      <trkpt lat="42.178459" lon="-1.184385">
        <ele>384.099</ele>
        <time>2022-06-18T08:34:09Z</time>
      </trkpt>
      <trkpt lat="42.178608999999994" lon="-1.184377">
        <ele>384.049</ele>
        <time>2022-06-18T08:34:12Z</time>
      </trkpt>
      <trkpt lat="42.17871399999999" lon="-1.184409">
        <ele>384.043</ele>
        <time>2022-06-18T08:34:14Z</time>
      </trkpt>
      <trkpt lat="42.17886299999999" lon="-1.184474">
        <ele>383.664</ele>
        <time>2022-06-18T08:34:17Z</time>
      </trkpt>
      <trkpt lat="42.17891199999999" lon="-1.184496">
        <ele>383.010</ele>
        <time>2022-06-18T08:34:18Z</time>
      </trkpt>
      <trkpt lat="42.17900399999999" lon="-1.18455">
        <ele>382.409</ele>
        <time>2022-06-18T08:34:20Z</time>
      </trkpt>
      <trkpt lat="42.17913299999999" lon="-1.184672">
        <ele>382.225</ele>
        <time>2022-06-18T08:34:23Z</time>
      </trkpt>
      <trkpt lat="42.179210999999995" lon="-1.184769">
        <ele>382.264</ele>
        <time>2022-06-18T08:34:25Z</time>
      </trkpt>
      <trkpt lat="42.179266999999996" lon="-1.184885">
        <ele>382.059</ele>
        <time>2022-06-18T08:34:27Z</time>
      </trkpt>
      <trkpt lat="42.17928499999999" lon="-1.184949">
        <ele>382.061</ele>
        <time>2022-06-18T08:34:28Z</time>
      </trkpt>
      <trkpt lat="42.17929399999999" lon="-1.185017">
        <ele>382.083</ele>
        <time>2022-06-18T08:34:29Z</time>
      </trkpt>
      <trkpt lat="42.17928599999999" lon="-1.185157">
        <ele>382.087</ele>
        <time>2022-06-18T08:34:31Z</time>
      </trkpt>
      <trkpt lat="42.17927099999999" lon="-1.185224">
        <ele>382.045</ele>
        <time>2022-06-18T08:34:32Z</time>
      </trkpt>
      <trkpt lat="42.179213999999995" lon="-1.185419">
        <ele>381.860</ele>
        <time>2022-06-18T08:34:35Z</time>
      </trkpt>
      <trkpt lat="42.179145999999996" lon="-1.18553">
        <ele>381.830</ele>
        <time>2022-06-18T08:34:37Z</time>
      </trkpt>
      <trkpt lat="42.17910499999999" lon="-1.185573">
        <ele>381.896</ele>
        <time>2022-06-18T08:34:38Z</time>
      </trkpt>
      <trkpt lat="42.17896799999999" lon="-1.185681">
        <ele>381.831</ele>
        <time>2022-06-18T08:34:41Z</time>
      </trkpt>
      <trkpt lat="42.17869599999999" lon="-1.185878">
        <ele>382.024</ele>
        <time>2022-06-18T08:34:47Z</time>
      </trkpt>
      <trkpt lat="42.17865699999999" lon="-1.185919">
        <ele>382.409</ele>
        <time>2022-06-18T08:34:48Z</time>
      </trkpt>
      <trkpt lat="42.17843999999999" lon="-1.1862">
        <ele>383.070</ele>
        <time>2022-06-18T08:34:54Z</time>
      </trkpt>
      <trkpt lat="42.178395999999985" lon="-1.186254">
        <ele>383.079</ele>
        <time>2022-06-18T08:34:55Z</time>
      </trkpt>
      <trkpt lat="42.17826299999999" lon="-1.186424">
        <ele>383.084</ele>
        <time>2022-06-18T08:34:59Z</time>
      </trkpt>
      <trkpt lat="42.17821399999999" lon="-1.186523">
        <ele>383.036</ele>
        <time>2022-06-18T08:35:01Z</time>
      </trkpt>
      <trkpt lat="42.17813999999999" lon="-1.186717">
        <ele>382.828</ele>
        <time>2022-06-18T08:35:06Z</time>
      </trkpt>
      <trkpt lat="42.17803099999999" lon="-1.186773">
        <ele>382.612</ele>
        <time>2022-06-18T08:35:09Z</time>
      </trkpt>
      <trkpt lat="42.17798299999999" lon="-1.1867800000000002">
        <ele>382.650</ele>
        <time>2022-06-18T08:35:10Z</time>
      </trkpt>
      <trkpt lat="42.17766099999999" lon="-1.1867990000000002">
        <ele>382.245</ele>
        <time>2022-06-18T08:35:16Z</time>
      </trkpt>
      <trkpt lat="42.177536999999994" lon="-1.186803">
        <ele>382.025</ele>
        <time>2022-06-18T08:35:18Z</time>
      </trkpt>
      <trkpt lat="42.177305999999994" lon="-1.1868100000000001">
        <ele>380.853</ele>
        <time>2022-06-18T08:35:22Z</time>
      </trkpt>
      <trkpt lat="42.17718899999999" lon="-1.1868180000000002">
        <ele>380.404</ele>
        <time>2022-06-18T08:35:24Z</time>
      </trkpt>
      <trkpt lat="42.17690699999999" lon="-1.1868420000000002">
        <ele>379.814</ele>
        <time>2022-06-18T08:35:29Z</time>
      </trkpt>
      <trkpt lat="42.17665499999999" lon="-1.1868920000000003">
        <ele>379.409</ele>
        <time>2022-06-18T08:35:33Z</time>
      </trkpt>
      <trkpt lat="42.17635199999999" lon="-1.1869670000000003">
        <ele>378.836</ele>
        <time>2022-06-18T08:35:38Z</time>
      </trkpt>
      <trkpt lat="42.17606099999999" lon="-1.1870640000000003">
        <ele>378.475</ele>
        <time>2022-06-18T08:35:43Z</time>
      </trkpt>
      <trkpt lat="42.17559599999999" lon="-1.1872320000000003">
        <ele>377.630</ele>
        <time>2022-06-18T08:35:51Z</time>
      </trkpt>
      <trkpt lat="42.17547999999999" lon="-1.1872710000000002">
        <ele>377.662</ele>
        <time>2022-06-18T08:35:53Z</time>
      </trkpt>
      <trkpt lat="42.17512299999999" lon="-1.1874430000000002">
        <ele>377.464</ele>
        <time>2022-06-18T08:36:00Z</time>
      </trkpt>
      <trkpt lat="42.17507899999999" lon="-1.1874770000000003">
        <ele>377.468</ele>
        <time>2022-06-18T08:36:01Z</time>
      </trkpt>
      <trkpt lat="42.17495299999999" lon="-1.1875900000000004">
        <ele>377.656</ele>
        <time>2022-06-18T08:36:04Z</time>
      </trkpt>
      <trkpt lat="42.174863999999985" lon="-1.1877160000000004">
        <ele>378.041</ele>
        <time>2022-06-18T08:36:07Z</time>
      </trkpt>
      <trkpt lat="42.174818999999985" lon="-1.1878330000000004">
        <ele>378.251</ele>
        <time>2022-06-18T08:36:09Z</time>
      </trkpt>
      <trkpt lat="42.174815999999986" lon="-1.1878910000000003">
        <ele>378.481</ele>
        <time>2022-06-18T08:36:10Z</time>
      </trkpt>
      <trkpt lat="42.17482299999998" lon="-1.1879480000000002">
        <ele>378.461</ele>
        <time>2022-06-18T08:36:11Z</time>
      </trkpt>
      <trkpt lat="42.174858999999984" lon="-1.1880550000000003">
        <ele>378.817</ele>
        <time>2022-06-18T08:36:13Z</time>
      </trkpt>
      <trkpt lat="42.17489399999998" lon="-1.1880940000000002">
        <ele>379.009</ele>
        <time>2022-06-18T08:36:14Z</time>
      </trkpt>
      <trkpt lat="42.17523399999998" lon="-1.1883900000000003">
        <ele>379.889</ele>
        <time>2022-06-18T08:36:22Z</time>
      </trkpt>
      <trkpt lat="42.17569799999998" lon="-1.1887890000000003">
        <ele>380.678</ele>
        <time>2022-06-18T08:36:32Z</time>
      </trkpt>
      <trkpt lat="42.176008999999986" lon="-1.1890530000000004">
        <ele>380.883</ele>
        <time>2022-06-18T08:36:39Z</time>
      </trkpt>
      <trkpt lat="42.176186999999985" lon="-1.1892030000000005">
        <ele>381.025</ele>
        <time>2022-06-18T08:36:43Z</time>
      </trkpt>
      <trkpt lat="42.17623099999999" lon="-1.1892390000000004">
        <ele>381.047</ele>
        <time>2022-06-18T08:36:44Z</time>
      </trkpt>
      <trkpt lat="42.17654599999999" lon="-1.1895150000000003">
        <ele>381.091</ele>
        <time>2022-06-18T08:36:51Z</time>
      </trkpt>
      <trkpt lat="42.177036999999984" lon="-1.1899390000000003">
        <ele>381.489</ele>
        <time>2022-06-18T08:37:02Z</time>
      </trkpt>
      <trkpt lat="42.17708299999998" lon="-1.1899790000000003">
        <ele>381.424</ele>
        <time>2022-06-18T08:37:03Z</time>
      </trkpt>
      <trkpt lat="42.17753399999998" lon="-1.1903720000000004">
        <ele>381.644</ele>
        <time>2022-06-18T08:37:13Z</time>
      </trkpt>
      <trkpt lat="42.17789599999998" lon="-1.1906810000000003">
        <ele>381.854</ele>
        <time>2022-06-18T08:37:21Z</time>
      </trkpt>
      <trkpt lat="42.17794099999998" lon="-1.1907190000000003">
        <ele>381.856</ele>
        <time>2022-06-18T08:37:22Z</time>
      </trkpt>
      <trkpt lat="42.178215999999985" lon="-1.1909550000000002">
        <ele>382.011</ele>
        <time>2022-06-18T08:37:28Z</time>
      </trkpt>
      <trkpt lat="42.17839499999999" lon="-1.1911120000000002">
        <ele>382.009</ele>
        <time>2022-06-18T08:37:32Z</time>
      </trkpt>
      <trkpt lat="42.178887999999986" lon="-1.1915400000000003">
        <ele>383.076</ele>
        <time>2022-06-18T08:37:43Z</time>
      </trkpt>
      <trkpt lat="42.178930999999984" lon="-1.1915800000000003">
        <ele>383.065</ele>
        <time>2022-06-18T08:37:44Z</time>
      </trkpt>
      <trkpt lat="42.17939299999998" lon="-1.1919750000000002">
        <ele>384.070</ele>
        <time>2022-06-18T08:37:54Z</time>
      </trkpt>
      <trkpt lat="42.17943799999998" lon="-1.1920160000000002">
        <ele>384.052</ele>
        <time>2022-06-18T08:37:55Z</time>
      </trkpt>
      <trkpt lat="42.17953099999998" lon="-1.1920960000000003">
        <ele>384.084</ele>
        <time>2022-06-18T08:37:57Z</time>
      </trkpt>
      <trkpt lat="42.179577999999985" lon="-1.1921360000000003">
        <ele>384.228</ele>
        <time>2022-06-18T08:37:58Z</time>
      </trkpt>
      <trkpt lat="42.179979999999986" lon="-1.1924880000000002">
        <ele>384.286</ele>
        <time>2022-06-18T08:38:07Z</time>
      </trkpt>
      <trkpt lat="42.180365999999985" lon="-1.1928210000000001">
        <ele>384.611</ele>
        <time>2022-06-18T08:38:16Z</time>
      </trkpt>
      <trkpt lat="42.18061999999998" lon="-1.1930390000000002">
        <ele>385.071</ele>
        <time>2022-06-18T08:38:22Z</time>
      </trkpt>
      <trkpt lat="42.18070499999998" lon="-1.1931110000000003">
        <ele>385.222</ele>
        <time>2022-06-18T08:38:24Z</time>
      </trkpt>
      <trkpt lat="42.18087699999998" lon="-1.1932590000000003">
        <ele>385.262</ele>
        <time>2022-06-18T08:38:28Z</time>
      </trkpt>
      <trkpt lat="42.18099999999998" lon="-1.1933740000000004">
        <ele>385.408</ele>
        <time>2022-06-18T08:38:31Z</time>
      </trkpt>
      <trkpt lat="42.18134199999999" lon="-1.1936760000000004">
        <ele>386.009</ele>
        <time>2022-06-18T08:38:39Z</time>
      </trkpt>
      <trkpt lat="42.18138399999999" lon="-1.1937120000000003">
        <ele>386.223</ele>
        <time>2022-06-18T08:38:40Z</time>
      </trkpt>
      <trkpt lat="42.181778999999985" lon="-1.1940450000000002">
        <ele>387.092</ele>
        <time>2022-06-18T08:38:49Z</time>
      </trkpt>
      <trkpt lat="42.181955999999985" lon="-1.1941970000000002">
        <ele>387.257</ele>
        <time>2022-06-18T08:38:53Z</time>
      </trkpt>
      <trkpt lat="42.18239099999999" lon="-1.194573">
        <ele>388.229</ele>
        <time>2022-06-18T08:39:03Z</time>
      </trkpt>
      <trkpt lat="42.18278099999999" lon="-1.194914">
        <ele>388.281</ele>
        <time>2022-06-18T08:39:12Z</time>
      </trkpt>
      <trkpt lat="42.18282399999999" lon="-1.19495">
        <ele>388.295</ele>
        <time>2022-06-18T08:39:13Z</time>
      </trkpt>
      <trkpt lat="42.18286499999999" lon="-1.194987">
        <ele>388.233</ele>
        <time>2022-06-18T08:39:14Z</time>
      </trkpt>
      <trkpt lat="42.18329299999999" lon="-1.195363">
        <ele>388.638</ele>
        <time>2022-06-18T08:39:24Z</time>
      </trkpt>
      <trkpt lat="42.18371799999999" lon="-1.1957259999999998">
        <ele>389.478</ele>
        <time>2022-06-18T08:39:34Z</time>
      </trkpt>
      <trkpt lat="42.18389099999999" lon="-1.1958769999999999">
        <ele>390.044</ele>
        <time>2022-06-18T08:39:38Z</time>
      </trkpt>
      <trkpt lat="42.184364999999985" lon="-1.1962899999999999">
        <ele>390.605</ele>
        <time>2022-06-18T08:39:49Z</time>
      </trkpt>
      <trkpt lat="42.184406999999986" lon="-1.1963289999999998">
        <ele>390.615</ele>
        <time>2022-06-18T08:39:50Z</time>
      </trkpt>
      <trkpt lat="42.18475199999999" lon="-1.1966309999999998">
        <ele>391.209</ele>
        <time>2022-06-18T08:39:58Z</time>
      </trkpt>
      <trkpt lat="42.18484099999999" lon="-1.1967079999999999">
        <ele>391.415</ele>
        <time>2022-06-18T08:40:00Z</time>
      </trkpt>
      <trkpt lat="42.18524299999999" lon="-1.1970519999999998">
        <ele>391.644</ele>
        <time>2022-06-18T08:40:09Z</time>
      </trkpt>
      <trkpt lat="42.185725999999995" lon="-1.1974729999999998">
        <ele>392.059</ele>
        <time>2022-06-18T08:40:20Z</time>
      </trkpt>
      <trkpt lat="42.18581699999999" lon="-1.1975509999999998">
        <ele>392.211</ele>
        <time>2022-06-18T08:40:22Z</time>
      </trkpt>
      <trkpt lat="42.18603499999999" lon="-1.1977419999999999">
        <ele>392.623</ele>
        <time>2022-06-18T08:40:27Z</time>
      </trkpt>
      <trkpt lat="42.18633299999999" lon="-1.1979969999999998">
        <ele>393.077</ele>
        <time>2022-06-18T08:40:34Z</time>
      </trkpt>
      <trkpt lat="42.18670999999999" lon="-1.1983319999999997">
        <ele>393.855</ele>
        <time>2022-06-18T08:40:43Z</time>
      </trkpt>
      <trkpt lat="42.186750999999994" lon="-1.1983649999999997">
        <ele>393.870</ele>
        <time>2022-06-18T08:40:44Z</time>
      </trkpt>
      <trkpt lat="42.187217999999994" lon="-1.1987679999999996">
        <ele>394.260</ele>
        <time>2022-06-18T08:40:55Z</time>
      </trkpt>
      <trkpt lat="42.187259999999995" lon="-1.1988079999999997">
        <ele>394.285</ele>
        <time>2022-06-18T08:40:56Z</time>
      </trkpt>
      <trkpt lat="42.187557999999996" lon="-1.1990619999999996">
        <ele>394.889</ele>
        <time>2022-06-18T08:41:03Z</time>
      </trkpt>
      <trkpt lat="42.187765999999996" lon="-1.1992459999999996">
        <ele>395.217</ele>
        <time>2022-06-18T08:41:08Z</time>
      </trkpt>
      <trkpt lat="42.187841" lon="-1.1993119999999995">
        <ele>395.209</ele>
        <time>2022-06-18T08:41:10Z</time>
      </trkpt>
      <trkpt lat="42.188184" lon="-1.1996079999999996">
        <ele>395.689</ele>
        <time>2022-06-18T08:41:18Z</time>
      </trkpt>
      <trkpt lat="42.188304" lon="-1.1997159999999996">
        <ele>395.838</ele>
        <time>2022-06-18T08:41:21Z</time>
      </trkpt>
      <trkpt lat="42.188680000000005" lon="-1.2000439999999997">
        <ele>397.033</ele>
        <time>2022-06-18T08:41:30Z</time>
      </trkpt>
      <trkpt lat="42.189176" lon="-1.2004669999999997">
        <ele>397.655</ele>
        <time>2022-06-18T08:41:42Z</time>
      </trkpt>
      <trkpt lat="42.189339000000004" lon="-1.2006089999999998">
        <ele>398.067</ele>
        <time>2022-06-18T08:41:46Z</time>
      </trkpt>
      <trkpt lat="42.189628000000006" lon="-1.2008689999999997">
        <ele>398.871</ele>
        <time>2022-06-18T08:41:53Z</time>
      </trkpt>
      <trkpt lat="42.189966000000005" lon="-1.2011629999999998">
        <ele>399.229</ele>
        <time>2022-06-18T08:42:01Z</time>
      </trkpt>
      <trkpt lat="42.190094" lon="-1.2012719999999997">
        <ele>399.694</ele>
        <time>2022-06-18T08:42:04Z</time>
      </trkpt>
      <trkpt lat="42.190474" lon="-1.2015939999999996">
        <ele>400.064</ele>
        <time>2022-06-18T08:42:13Z</time>
      </trkpt>
      <trkpt lat="42.190843" lon="-1.2019169999999997">
        <ele>400.218</ele>
        <time>2022-06-18T08:42:22Z</time>
      </trkpt>
      <trkpt lat="42.190917" lon="-1.2019799999999996">
        <ele>400.298</ele>
        <time>2022-06-18T08:42:24Z</time>
      </trkpt>
      <trkpt lat="42.191389" lon="-1.2023869999999997">
        <ele>400.817</ele>
        <time>2022-06-18T08:42:35Z</time>
      </trkpt>
      <trkpt lat="42.191856" lon="-1.2027869999999996">
        <ele>401.209</ele>
        <time>2022-06-18T08:42:46Z</time>
      </trkpt>
      <trkpt lat="42.191899" lon="-1.2028249999999996">
        <ele>401.452</ele>
        <time>2022-06-18T08:42:47Z</time>
      </trkpt>
      <trkpt lat="42.191985" lon="-1.2029009999999996">
        <ele>401.421</ele>
        <time>2022-06-18T08:42:49Z</time>
      </trkpt>
      <trkpt lat="42.192447" lon="-1.2033069999999995">
        <ele>402.226</ele>
        <time>2022-06-18T08:43:00Z</time>
      </trkpt>
      <trkpt lat="42.192486" lon="-1.2033409999999995">
        <ele>402.268</ele>
        <time>2022-06-18T08:43:01Z</time>
      </trkpt>
      <trkpt lat="42.192529" lon="-1.2033769999999995">
        <ele>402.470</ele>
        <time>2022-06-18T08:43:02Z</time>
      </trkpt>
      <trkpt lat="42.19257" lon="-1.2034129999999994">
        <ele>402.474</ele>
        <time>2022-06-18T08:43:03Z</time>
      </trkpt>
      <trkpt lat="42.192895" lon="-1.2036919999999993">
        <ele>402.652</ele>
        <time>2022-06-18T08:43:11Z</time>
      </trkpt>
      <trkpt lat="42.193181" lon="-1.2039479999999994">
        <ele>403.467</ele>
        <time>2022-06-18T08:43:18Z</time>
      </trkpt>
      <trkpt lat="42.193304000000005" lon="-1.2040529999999994">
        <ele>403.677</ele>
        <time>2022-06-18T08:43:21Z</time>
      </trkpt>
      <trkpt lat="42.19378700000001" lon="-1.2044699999999993">
        <ele>404.273</ele>
        <time>2022-06-18T08:43:33Z</time>
      </trkpt>
      <trkpt lat="42.19391300000001" lon="-1.2045769999999993">
        <ele>404.285</ele>
        <time>2022-06-18T08:43:36Z</time>
      </trkpt>
      <trkpt lat="42.19424600000001" lon="-1.2048619999999994">
        <ele>404.413</ele>
        <time>2022-06-18T08:43:44Z</time>
      </trkpt>
      <trkpt lat="42.194328000000006" lon="-1.2049359999999993">
        <ele>404.609</ele>
        <time>2022-06-18T08:43:46Z</time>
      </trkpt>
      <trkpt lat="42.194810000000004" lon="-1.2053579999999993">
        <ele>405.478</ele>
        <time>2022-06-18T08:43:58Z</time>
      </trkpt>
      <trkpt lat="42.195239" lon="-1.2057229999999992">
        <ele>406.047</ele>
        <time>2022-06-18T08:44:08Z</time>
      </trkpt>
      <trkpt lat="42.195493" lon="-1.2059439999999992">
        <ele>406.492</ele>
        <time>2022-06-18T08:44:14Z</time>
      </trkpt>
      <trkpt lat="42.195817999999996" lon="-1.2062319999999993">
        <ele>407.064</ele>
        <time>2022-06-18T08:44:22Z</time>
      </trkpt>
      <trkpt lat="42.196234" lon="-1.2065899999999994">
        <ele>407.256</ele>
        <time>2022-06-18T08:44:32Z</time>
      </trkpt>
      <trkpt lat="42.196658" lon="-1.2069549999999993">
        <ele>407.620</ele>
        <time>2022-06-18T08:44:42Z</time>
      </trkpt>
      <trkpt lat="42.196702" lon="-1.2069939999999992">
        <ele>407.688</ele>
        <time>2022-06-18T08:44:43Z</time>
      </trkpt>
      <trkpt lat="42.197181" lon="-1.2074129999999992">
        <ele>408.653</ele>
        <time>2022-06-18T08:44:54Z</time>
      </trkpt>
      <trkpt lat="42.197224" lon="-1.207448999999999">
        <ele>408.663</ele>
        <time>2022-06-18T08:44:55Z</time>
      </trkpt>
      <trkpt lat="42.19752" lon="-1.207705999999999">
        <ele>409.224</ele>
        <time>2022-06-18T08:45:02Z</time>
      </trkpt>
      <trkpt lat="42.197691" lon="-1.207846999999999">
        <ele>409.404</ele>
        <time>2022-06-18T08:45:06Z</time>
      </trkpt>
      <trkpt lat="42.198154" lon="-1.208249999999999">
        <ele>409.414</ele>
        <time>2022-06-18T08:45:17Z</time>
      </trkpt>
      <trkpt lat="42.198283" lon="-1.208360999999999">
        <ele>409.809</ele>
        <time>2022-06-18T08:45:20Z</time>
      </trkpt>
      <trkpt lat="42.198325000000004" lon="-1.208398999999999">
        <ele>409.873</ele>
        <time>2022-06-18T08:45:21Z</time>
      </trkpt>
      <trkpt lat="42.198795000000004" lon="-1.208805999999999">
        <ele>410.832</ele>
        <time>2022-06-18T08:45:32Z</time>
      </trkpt>
      <trkpt lat="42.198838" lon="-1.2088419999999989">
        <ele>411.047</ele>
        <time>2022-06-18T08:45:33Z</time>
      </trkpt>
      <trkpt lat="42.199312" lon="-1.2092499999999988">
        <ele>411.689</ele>
        <time>2022-06-18T08:45:44Z</time>
      </trkpt>
      <trkpt lat="42.199571999999996" lon="-1.2094819999999988">
        <ele>412.081</ele>
        <time>2022-06-18T08:45:50Z</time>
      </trkpt>
      <trkpt lat="42.199783" lon="-1.2096649999999989">
        <ele>412.225</ele>
        <time>2022-06-18T08:45:55Z</time>
      </trkpt>
      <trkpt lat="42.200244" lon="-1.210068999999999">
        <ele>412.623</ele>
        <time>2022-06-18T08:46:06Z</time>
      </trkpt>
      <trkpt lat="42.200285" lon="-1.2101049999999989">
        <ele>412.858</ele>
        <time>2022-06-18T08:46:07Z</time>
      </trkpt>
      <trkpt lat="42.200498" lon="-1.2102859999999989">
        <ele>413.038</ele>
        <time>2022-06-18T08:46:12Z</time>
      </trkpt>
      <trkpt lat="42.20071" lon="-1.2104749999999989">
        <ele>413.274</ele>
        <time>2022-06-18T08:46:17Z</time>
      </trkpt>
      <trkpt lat="42.200879" lon="-1.210624999999999">
        <ele>413.456</ele>
        <time>2022-06-18T08:46:21Z</time>
      </trkpt>
      <trkpt lat="42.201352" lon="-1.2110309999999989">
        <ele>413.821</ele>
        <time>2022-06-18T08:46:32Z</time>
      </trkpt>
      <trkpt lat="42.201396" lon="-1.2110659999999989">
        <ele>414.009</ele>
        <time>2022-06-18T08:46:33Z</time>
      </trkpt>
      <trkpt lat="42.201855" lon="-1.2114709999999989">
        <ele>414.068</ele>
        <time>2022-06-18T08:46:43Z</time>
      </trkpt>
      <trkpt lat="42.201904" lon="-1.211512999999999">
        <ele>414.067</ele>
        <time>2022-06-18T08:46:44Z</time>
      </trkpt>
      <trkpt lat="42.201952" lon="-1.211555999999999">
        <ele>414.282</ele>
        <time>2022-06-18T08:46:45Z</time>
      </trkpt>
      <trkpt lat="42.202439999999996" lon="-1.211979999999999">
        <ele>414.444</ele>
        <time>2022-06-18T08:46:55Z</time>
      </trkpt>
      <trkpt lat="42.20249" lon="-1.212022999999999">
        <ele>414.486</ele>
        <time>2022-06-18T08:46:56Z</time>
      </trkpt>
      <trkpt lat="42.202991999999995" lon="-1.212454999999999">
        <ele>414.450</ele>
        <time>2022-06-18T08:47:06Z</time>
      </trkpt>
      <trkpt lat="42.20346599999999" lon="-1.2128689999999989">
        <ele>414.468</ele>
        <time>2022-06-18T08:47:16Z</time>
      </trkpt>
      <trkpt lat="42.203554999999994" lon="-1.2129469999999989">
        <ele>414.423</ele>
        <time>2022-06-18T08:47:18Z</time>
      </trkpt>
      <trkpt lat="42.20378099999999" lon="-1.213142999999999">
        <ele>415.013</ele>
        <time>2022-06-18T08:47:23Z</time>
      </trkpt>
      <trkpt lat="42.203959999999995" lon="-1.213301999999999">
        <ele>415.486</ele>
        <time>2022-06-18T08:47:27Z</time>
      </trkpt>
      <trkpt lat="42.20422799999999" lon="-1.213528999999999">
        <ele>416.260</ele>
        <time>2022-06-18T08:47:33Z</time>
      </trkpt>
      <trkpt lat="42.20459399999999" lon="-1.213846999999999">
        <ele>416.626</ele>
        <time>2022-06-18T08:47:41Z</time>
      </trkpt>
      <trkpt lat="42.20463999999999" lon="-1.213885999999999">
        <ele>416.609</ele>
        <time>2022-06-18T08:47:42Z</time>
      </trkpt>
      <trkpt lat="42.20496099999999" lon="-1.2141679999999988">
        <ele>417.029</ele>
        <time>2022-06-18T08:47:49Z</time>
      </trkpt>
      <trkpt lat="42.20514199999999" lon="-1.2143229999999987">
        <ele>417.248</ele>
        <time>2022-06-18T08:47:53Z</time>
      </trkpt>
      <trkpt lat="42.20541399999999" lon="-1.2145599999999988">
        <ele>417.853</ele>
        <time>2022-06-18T08:47:59Z</time>
      </trkpt>
      <trkpt lat="42.20581999999999" lon="-1.2149269999999988">
        <ele>418.435</ele>
        <time>2022-06-18T08:48:08Z</time>
      </trkpt>
      <trkpt lat="42.206138999999986" lon="-1.2151929999999989">
        <ele>419.097</ele>
        <time>2022-06-18T08:48:15Z</time>
      </trkpt>
      <trkpt lat="42.206454999999984" lon="-1.215469999999999">
        <ele>419.481</ele>
        <time>2022-06-18T08:48:22Z</time>
      </trkpt>
      <trkpt lat="42.206814999999985" lon="-1.215779999999999">
        <ele>420.079</ele>
        <time>2022-06-18T08:48:30Z</time>
      </trkpt>
      <trkpt lat="42.207273999999984" lon="-1.216182999999999">
        <ele>420.274</ele>
        <time>2022-06-18T08:48:40Z</time>
      </trkpt>
      <trkpt lat="42.207320999999986" lon="-1.2162219999999988">
        <ele>420.284</ele>
        <time>2022-06-18T08:48:41Z</time>
      </trkpt>
      <trkpt lat="42.207684999999984" lon="-1.2165459999999988">
        <ele>420.462</ele>
        <time>2022-06-18T08:48:49Z</time>
      </trkpt>
      <trkpt lat="42.207816999999984" lon="-1.2166639999999989">
        <ele>420.483</ele>
        <time>2022-06-18T08:48:52Z</time>
      </trkpt>
      <trkpt lat="42.20804099999999" lon="-1.216854999999999">
        <ele>420.611</ele>
        <time>2022-06-18T08:48:57Z</time>
      </trkpt>
      <trkpt lat="42.208263999999986" lon="-1.2170449999999988">
        <ele>421.009</ele>
        <time>2022-06-18T08:49:02Z</time>
      </trkpt>
      <trkpt lat="42.20873299999999" lon="-1.2174429999999987">
        <ele>421.467</ele>
        <time>2022-06-18T08:49:12Z</time>
      </trkpt>
      <trkpt lat="42.20882599999999" lon="-1.2175299999999987">
        <ele>421.476</ele>
        <time>2022-06-18T08:49:14Z</time>
      </trkpt>
      <trkpt lat="42.20928899999999" lon="-1.2179289999999987">
        <ele>421.441</ele>
        <time>2022-06-18T08:49:24Z</time>
      </trkpt>
      <trkpt lat="42.20937599999999" lon="-1.2180019999999987">
        <ele>421.693</ele>
        <time>2022-06-18T08:49:26Z</time>
      </trkpt>
      <trkpt lat="42.20963999999999" lon="-1.2182279999999988">
        <ele>421.685</ele>
        <time>2022-06-18T08:49:32Z</time>
      </trkpt>
      <trkpt lat="42.209773999999996" lon="-1.2183479999999987">
        <ele>421.879</ele>
        <time>2022-06-18T08:49:35Z</time>
      </trkpt>
      <trkpt lat="42.210255999999994" lon="-1.2187699999999986">
        <ele>422.477</ele>
        <time>2022-06-18T08:49:46Z</time>
      </trkpt>
      <trkpt lat="42.210347999999996" lon="-1.2188509999999986">
        <ele>422.442</ele>
        <time>2022-06-18T08:49:48Z</time>
      </trkpt>
      <trkpt lat="42.210722" lon="-1.2191769999999986">
        <ele>422.862</ele>
        <time>2022-06-18T08:49:56Z</time>
      </trkpt>
      <trkpt lat="42.210862999999996" lon="-1.2193029999999987">
        <ele>422.888</ele>
        <time>2022-06-18T08:49:59Z</time>
      </trkpt>
      <trkpt lat="42.211318" lon="-1.2197049999999987">
        <ele>423.224</ele>
        <time>2022-06-18T08:50:09Z</time>
      </trkpt>
      <trkpt lat="42.211406" lon="-1.2197819999999988">
        <ele>423.226</ele>
        <time>2022-06-18T08:50:11Z</time>
      </trkpt>
      <trkpt lat="42.211890999999994" lon="-1.2202049999999989">
        <ele>423.809</ele>
        <time>2022-06-18T08:50:22Z</time>
      </trkpt>
      <trkpt lat="42.21193399999999" lon="-1.2202439999999988">
        <ele>423.829</ele>
        <time>2022-06-18T08:50:23Z</time>
      </trkpt>
      <trkpt lat="42.21237599999999" lon="-1.2206289999999989">
        <ele>424.478</ele>
        <time>2022-06-18T08:50:33Z</time>
      </trkpt>
      <trkpt lat="42.21282099999999" lon="-1.2210209999999988">
        <ele>424.643</ele>
        <time>2022-06-18T08:50:43Z</time>
      </trkpt>
      <trkpt lat="42.212864999999994" lon="-1.2210599999999987">
        <ele>424.855</ele>
        <time>2022-06-18T08:50:44Z</time>
      </trkpt>
      <trkpt lat="42.21328999999999" lon="-1.2214249999999987">
        <ele>425.457</ele>
        <time>2022-06-18T08:50:53Z</time>
      </trkpt>
      <trkpt lat="42.213570999999995" lon="-1.2216699999999987">
        <ele>425.821</ele>
        <time>2022-06-18T08:50:59Z</time>
      </trkpt>
      <trkpt lat="42.213803999999996" lon="-1.2218739999999988">
        <ele>426.029</ele>
        <time>2022-06-18T08:51:04Z</time>
      </trkpt>
      <trkpt lat="42.214301999999996" lon="-1.2223089999999988">
        <ele>426.654</ele>
        <time>2022-06-18T08:51:15Z</time>
      </trkpt>
      <trkpt lat="42.214346" lon="-1.2223469999999987">
        <ele>426.844</ele>
        <time>2022-06-18T08:51:16Z</time>
      </trkpt>
      <trkpt lat="42.214434" lon="-1.2224179999999987">
        <ele>426.817</ele>
        <time>2022-06-18T08:51:18Z</time>
      </trkpt>
      <trkpt lat="42.214867999999996" lon="-1.2227839999999988">
        <ele>427.487</ele>
        <time>2022-06-18T08:51:28Z</time>
      </trkpt>
      <trkpt lat="42.21513099999999" lon="-1.2230059999999987">
        <ele>427.815</ele>
        <time>2022-06-18T08:51:34Z</time>
      </trkpt>
      <trkpt lat="42.21530799999999" lon="-1.2231609999999986">
        <ele>428.009</ele>
        <time>2022-06-18T08:51:38Z</time>
      </trkpt>
      <trkpt lat="42.21579499999999" lon="-1.2235909999999985">
        <ele>428.422</ele>
        <time>2022-06-18T08:51:49Z</time>
      </trkpt>
      <trkpt lat="42.21583999999999" lon="-1.2236289999999985">
        <ele>428.841</ele>
        <time>2022-06-18T08:51:50Z</time>
      </trkpt>
      <trkpt lat="42.21597499999999" lon="-1.2237439999999986">
        <ele>429.036</ele>
        <time>2022-06-18T08:51:53Z</time>
      </trkpt>
      <trkpt lat="42.216421999999994" lon="-1.2241289999999987">
        <ele>429.848</ele>
        <time>2022-06-18T08:52:03Z</time>
      </trkpt>
      <trkpt lat="42.216637999999996" lon="-1.2243249999999988">
        <ele>430.050</ele>
        <time>2022-06-18T08:52:08Z</time>
      </trkpt>
      <trkpt lat="42.216809" lon="-1.2244829999999989">
        <ele>430.654</ele>
        <time>2022-06-18T08:52:12Z</time>
      </trkpt>
      <trkpt lat="42.217247" lon="-1.224859999999999">
        <ele>431.032</ele>
        <time>2022-06-18T08:52:22Z</time>
      </trkpt>
      <trkpt lat="42.21729" lon="-1.224896999999999">
        <ele>431.487</ele>
        <time>2022-06-18T08:52:23Z</time>
      </trkpt>
      <trkpt lat="42.217732999999996" lon="-1.225271999999999">
        <ele>432.057</ele>
        <time>2022-06-18T08:52:33Z</time>
      </trkpt>
      <trkpt lat="42.21807999999999" lon="-1.2255729999999991">
        <ele>432.455</ele>
        <time>2022-06-18T08:52:41Z</time>
      </trkpt>
      <trkpt lat="42.21824999999999" lon="-1.225721999999999">
        <ele>432.607</ele>
        <time>2022-06-18T08:52:45Z</time>
      </trkpt>
      <trkpt lat="42.21873899999999" lon="-1.226151999999999">
        <ele>433.417</ele>
        <time>2022-06-18T08:52:56Z</time>
      </trkpt>
      <trkpt lat="42.21878499999999" lon="-1.226192999999999">
        <ele>433.409</ele>
        <time>2022-06-18T08:52:57Z</time>
      </trkpt>
      <trkpt lat="42.21891999999999" lon="-1.226309999999999">
        <ele>433.456</ele>
        <time>2022-06-18T08:53:00Z</time>
      </trkpt>
      <trkpt lat="42.21940599999999" lon="-1.2267239999999988">
        <ele>434.085</ele>
        <time>2022-06-18T08:53:11Z</time>
      </trkpt>
      <trkpt lat="42.21953499999999" lon="-1.2268349999999988">
        <ele>434.050</ele>
        <time>2022-06-18T08:53:14Z</time>
      </trkpt>
      <trkpt lat="42.21983899999999" lon="-1.227108999999999">
        <ele>434.462</ele>
        <time>2022-06-18T08:53:21Z</time>
      </trkpt>
      <trkpt lat="42.219927999999996" lon="-1.227186999999999">
        <ele>434.654</ele>
        <time>2022-06-18T08:53:23Z</time>
      </trkpt>
      <trkpt lat="42.22039899999999" lon="-1.2275929999999988">
        <ele>435.088</ele>
        <time>2022-06-18T08:53:34Z</time>
      </trkpt>
      <trkpt lat="42.220611999999996" lon="-1.227780999999999">
        <ele>435.426</ele>
        <time>2022-06-18T08:53:39Z</time>
      </trkpt>
      <trkpt lat="42.220896999999994" lon="-1.228031999999999">
        <ele>436.261</ele>
        <time>2022-06-18T08:53:46Z</time>
      </trkpt>
      <trkpt lat="42.22123299999999" lon="-1.228319999999999">
        <ele>436.421</ele>
        <time>2022-06-18T08:53:54Z</time>
      </trkpt>
      <trkpt lat="42.22148599999999" lon="-1.228539999999999">
        <ele>437.056</ele>
        <time>2022-06-18T08:54:00Z</time>
      </trkpt>
      <trkpt lat="42.22194699999999" lon="-1.2289389999999991">
        <ele>437.459</ele>
        <time>2022-06-18T08:54:11Z</time>
      </trkpt>
      <trkpt lat="42.221987999999996" lon="-1.228974999999999">
        <ele>437.414</ele>
        <time>2022-06-18T08:54:12Z</time>
      </trkpt>
      <trkpt lat="42.22206799999999" lon="-1.229044999999999">
        <ele>437.609</ele>
        <time>2022-06-18T08:54:14Z</time>
      </trkpt>
      <trkpt lat="42.22252199999999" lon="-1.229439999999999">
        <ele>438.286</ele>
        <time>2022-06-18T08:54:25Z</time>
      </trkpt>
      <trkpt lat="42.22256199999999" lon="-1.229475999999999">
        <ele>438.415</ele>
        <time>2022-06-18T08:54:26Z</time>
      </trkpt>
      <trkpt lat="42.22276399999999" lon="-1.2296549999999988">
        <ele>438.630</ele>
        <time>2022-06-18T08:54:31Z</time>
      </trkpt>
      <trkpt lat="42.22300399999999" lon="-1.2298759999999989">
        <ele>438.822</ele>
        <time>2022-06-18T08:54:37Z</time>
      </trkpt>
      <trkpt lat="42.22343499999999" lon="-1.230249999999999">
        <ele>439.254</ele>
        <time>2022-06-18T08:54:47Z</time>
      </trkpt>
      <trkpt lat="42.22356899999999" lon="-1.2303669999999989">
        <ele>439.648</ele>
        <time>2022-06-18T08:54:50Z</time>
      </trkpt>
      <trkpt lat="42.22403399999999" lon="-1.2307729999999988">
        <ele>440.036</ele>
        <time>2022-06-18T08:55:01Z</time>
      </trkpt>
      <trkpt lat="42.22449999999999" lon="-1.2311709999999987">
        <ele>440.481</ele>
        <time>2022-06-18T08:55:12Z</time>
      </trkpt>
      <trkpt lat="42.224543999999995" lon="-1.2312089999999987">
        <ele>440.441</ele>
        <time>2022-06-18T08:55:13Z</time>
      </trkpt>
      <trkpt lat="42.224999999999994" lon="-1.2316059999999986">
        <ele>440.439</ele>
        <time>2022-06-18T08:55:23Z</time>
      </trkpt>
      <trkpt lat="42.22509399999999" lon="-1.2316859999999987">
        <ele>440.601</ele>
        <time>2022-06-18T08:55:25Z</time>
      </trkpt>
      <trkpt lat="42.225562999999994" lon="-1.2321079999999986">
        <ele>440.621</ele>
        <time>2022-06-18T08:55:35Z</time>
      </trkpt>
      <trkpt lat="42.22565899999999" lon="-1.2321899999999986">
        <ele>440.609</ele>
        <time>2022-06-18T08:55:37Z</time>
      </trkpt>
      <trkpt lat="42.22584599999999" lon="-1.2323539999999986">
        <ele>440.694</ele>
        <time>2022-06-18T08:55:41Z</time>
      </trkpt>
      <trkpt lat="42.22620899999999" lon="-1.2326699999999986">
        <ele>440.833</ele>
        <time>2022-06-18T08:55:49Z</time>
      </trkpt>
      <trkpt lat="42.22664199999999" lon="-1.2330479999999986">
        <ele>441.258</ele>
        <time>2022-06-18T08:55:59Z</time>
      </trkpt>
      <trkpt lat="42.22685699999999" lon="-1.2332319999999986">
        <ele>441.620</ele>
        <time>2022-06-18T08:56:04Z</time>
      </trkpt>
      <trkpt lat="42.22732699999999" lon="-1.2336409999999987">
        <ele>442.492</ele>
        <time>2022-06-18T08:56:15Z</time>
      </trkpt>
      <trkpt lat="42.22741299999999" lon="-1.2337119999999986">
        <ele>442.856</ele>
        <time>2022-06-18T08:56:17Z</time>
      </trkpt>
      <trkpt lat="42.22783599999999" lon="-1.2340749999999985">
        <ele>443.824</ele>
        <time>2022-06-18T08:56:27Z</time>
      </trkpt>
      <trkpt lat="42.22787499999999" lon="-1.2341099999999985">
        <ele>443.859</ele>
        <time>2022-06-18T08:56:28Z</time>
      </trkpt>
      <trkpt lat="42.22824999999999" lon="-1.2344389999999985">
        <ele>444.699</ele>
        <time>2022-06-18T08:56:37Z</time>
      </trkpt>
      <trkpt lat="42.22841499999999" lon="-1.2345839999999986">
        <ele>444.866</ele>
        <time>2022-06-18T08:56:41Z</time>
      </trkpt>
      <trkpt lat="42.22875899999999" lon="-1.2348809999999986">
        <ele>445.229</ele>
        <time>2022-06-18T08:56:49Z</time>
      </trkpt>
      <trkpt lat="42.22905599999999" lon="-1.2351469999999987">
        <ele>445.421</ele>
        <time>2022-06-18T08:56:56Z</time>
      </trkpt>
      <trkpt lat="42.22918299999999" lon="-1.2352649999999987">
        <ele>445.609</ele>
        <time>2022-06-18T08:56:59Z</time>
      </trkpt>
      <trkpt lat="42.229524999999995" lon="-1.2355699999999987">
        <ele>445.877</ele>
        <time>2022-06-18T08:57:07Z</time>
      </trkpt>
      <trkpt lat="42.22964999999999" lon="-1.2356719999999988">
        <ele>446.246</ele>
        <time>2022-06-18T08:57:10Z</time>
      </trkpt>
      <trkpt lat="42.229980999999995" lon="-1.2359649999999989">
        <ele>447.041</ele>
        <time>2022-06-18T08:57:18Z</time>
      </trkpt>
      <trkpt lat="42.230064999999996" lon="-1.2360409999999988">
        <ele>447.433</ele>
        <time>2022-06-18T08:57:20Z</time>
      </trkpt>
      <trkpt lat="42.230371" lon="-1.2363049999999989">
        <ele>447.845</ele>
        <time>2022-06-18T08:57:27Z</time>
      </trkpt>
      <trkpt lat="42.230591" lon="-1.2364889999999988">
        <ele>448.239</ele>
        <time>2022-06-18T08:57:32Z</time>
      </trkpt>
      <trkpt lat="42.230888" lon="-1.2367489999999988">
        <ele>448.817</ele>
        <time>2022-06-18T08:57:39Z</time>
      </trkpt>
      <trkpt lat="42.231186" lon="-1.2370089999999987">
        <ele>449.282</ele>
        <time>2022-06-18T08:57:46Z</time>
      </trkpt>
      <trkpt lat="42.231484" lon="-1.2372649999999987">
        <ele>449.212</ele>
        <time>2022-06-18T08:57:53Z</time>
      </trkpt>
      <trkpt lat="42.231905000000005" lon="-1.2376189999999987">
        <ele>449.464</ele>
        <time>2022-06-18T08:58:03Z</time>
      </trkpt>
      <trkpt lat="42.232192000000005" lon="-1.2378749999999987">
        <ele>450.206</ele>
        <time>2022-06-18T08:58:10Z</time>
      </trkpt>
      <trkpt lat="42.232400000000005" lon="-1.2380519999999988">
        <ele>450.416</ele>
        <time>2022-06-18T08:58:15Z</time>
      </trkpt>
      <trkpt lat="42.232873000000005" lon="-1.2384629999999988">
        <ele>451.009</ele>
        <time>2022-06-18T08:58:26Z</time>
      </trkpt>
      <trkpt lat="42.232958" lon="-1.2385369999999987">
        <ele>451.297</ele>
        <time>2022-06-18T08:58:28Z</time>
      </trkpt>
      <trkpt lat="42.23343800000001" lon="-1.2389489999999987">
        <ele>452.066</ele>
        <time>2022-06-18T08:58:39Z</time>
      </trkpt>
      <trkpt lat="42.23357000000001" lon="-1.2390559999999988">
        <ele>452.291</ele>
        <time>2022-06-18T08:58:42Z</time>
      </trkpt>
      <trkpt lat="42.233613000000005" lon="-1.2390939999999988">
        <ele>452.443</ele>
        <time>2022-06-18T08:58:43Z</time>
      </trkpt>
      <trkpt lat="42.23388200000001" lon="-1.2393279999999989">
        <ele>452.675</ele>
        <time>2022-06-18T08:58:49Z</time>
      </trkpt>
      <trkpt lat="42.23435500000001" lon="-1.239728999999999">
        <ele>453.029</ele>
        <time>2022-06-18T08:58:59Z</time>
      </trkpt>
      <trkpt lat="42.23440300000001" lon="-1.239769999999999">
        <ele>453.047</ele>
        <time>2022-06-18T08:59:00Z</time>
      </trkpt>
      <trkpt lat="42.234753000000005" lon="-1.240071999999999">
        <ele>453.432</ele>
        <time>2022-06-18T08:59:07Z</time>
      </trkpt>
      <trkpt lat="42.234957" lon="-1.240248999999999">
        <ele>453.622</ele>
        <time>2022-06-18T08:59:11Z</time>
      </trkpt>
      <trkpt lat="42.23536" lon="-1.2405989999999991">
        <ele>453.834</ele>
        <time>2022-06-18T08:59:19Z</time>
      </trkpt>
      <trkpt lat="42.235836" lon="-1.241014999999999">
        <ele>453.855</ele>
        <time>2022-06-18T08:59:29Z</time>
      </trkpt>
      <trkpt lat="42.235884" lon="-1.241055999999999">
        <ele>453.810</ele>
        <time>2022-06-18T08:59:30Z</time>
      </trkpt>
      <trkpt lat="42.236352" lon="-1.241457999999999">
        <ele>454.209</ele>
        <time>2022-06-18T08:59:40Z</time>
      </trkpt>
      <trkpt lat="42.236399" lon="-1.241498999999999">
        <ele>454.224</ele>
        <time>2022-06-18T08:59:41Z</time>
      </trkpt>
      <trkpt lat="42.236682" lon="-1.241739999999999">
        <ele>454.433</ele>
        <time>2022-06-18T08:59:47Z</time>
      </trkpt>
      <trkpt lat="42.237013000000005" lon="-1.242019999999999">
        <ele>454.698</ele>
        <time>2022-06-18T08:59:54Z</time>
      </trkpt>
      <trkpt lat="42.23747900000001" lon="-1.242415999999999">
        <ele>455.070</ele>
        <time>2022-06-18T09:00:04Z</time>
      </trkpt>
      <trkpt lat="42.23780000000001" lon="-1.242696999999999">
        <ele>455.452</ele>
        <time>2022-06-18T09:00:11Z</time>
      </trkpt>
      <trkpt lat="42.23801900000001" lon="-1.242888999999999">
        <ele>455.646</ele>
        <time>2022-06-18T09:00:16Z</time>
      </trkpt>
      <trkpt lat="42.23849500000001" lon="-1.243300999999999">
        <ele>456.424</ele>
        <time>2022-06-18T09:00:27Z</time>
      </trkpt>
      <trkpt lat="42.23892500000001" lon="-1.243670999999999">
        <ele>457.449</ele>
        <time>2022-06-18T09:00:37Z</time>
      </trkpt>
      <trkpt lat="42.23939300000001" lon="-1.244081999999999">
        <ele>458.279</ele>
        <time>2022-06-18T09:00:48Z</time>
      </trkpt>
      <trkpt lat="42.239436000000005" lon="-1.244120999999999">
        <ele>458.276</ele>
        <time>2022-06-18T09:00:49Z</time>
      </trkpt>
      <trkpt lat="42.239568000000006" lon="-1.2442299999999988">
        <ele>458.690</ele>
        <time>2022-06-18T09:00:52Z</time>
      </trkpt>
      <trkpt lat="42.239968000000005" lon="-1.2445649999999988">
        <ele>459.219</ele>
        <time>2022-06-18T09:01:01Z</time>
      </trkpt>
      <trkpt lat="42.240103000000005" lon="-1.2446839999999988">
        <ele>459.609</ele>
        <time>2022-06-18T09:01:04Z</time>
      </trkpt>
      <trkpt lat="42.240421000000005" lon="-1.2449509999999988">
        <ele>460.298</ele>
        <time>2022-06-18T09:01:11Z</time>
      </trkpt>
      <trkpt lat="42.240925000000004" lon="-1.2453759999999987">
        <ele>460.427</ele>
        <time>2022-06-18T09:01:22Z</time>
      </trkpt>
      <trkpt lat="42.241241" lon="-1.2456539999999987">
        <ele>460.672</ele>
        <time>2022-06-18T09:01:29Z</time>
      </trkpt>
      <trkpt lat="42.241424" lon="-1.2458109999999987">
        <ele>460.834</ele>
        <time>2022-06-18T09:01:33Z</time>
      </trkpt>
      <trkpt lat="42.241883" lon="-1.2462039999999988">
        <ele>461.086</ele>
        <time>2022-06-18T09:01:43Z</time>
      </trkpt>
      <trkpt lat="42.241975000000004" lon="-1.2462839999999988">
        <ele>461.030</ele>
        <time>2022-06-18T09:01:45Z</time>
      </trkpt>
      <trkpt lat="42.242434" lon="-1.2466789999999988">
        <ele>461.238</ele>
        <time>2022-06-18T09:01:55Z</time>
      </trkpt>
      <trkpt lat="42.24248" lon="-1.2467199999999987">
        <ele>461.223</ele>
        <time>2022-06-18T09:01:56Z</time>
      </trkpt>
      <trkpt lat="42.242525" lon="-1.2467569999999988">
        <ele>461.243</ele>
        <time>2022-06-18T09:01:57Z</time>
      </trkpt>
      <trkpt lat="42.242894" lon="-1.2470649999999988">
        <ele>461.478</ele>
        <time>2022-06-18T09:02:05Z</time>
      </trkpt>
      <trkpt lat="42.243162" lon="-1.2472989999999988">
        <ele>461.633</ele>
        <time>2022-06-18T09:02:11Z</time>
      </trkpt>
      <trkpt lat="42.243427" lon="-1.2475279999999989">
        <ele>461.826</ele>
        <time>2022-06-18T09:02:17Z</time>
      </trkpt>
      <trkpt lat="42.24391" lon="-1.2479389999999988">
        <ele>462.409</ele>
        <time>2022-06-18T09:02:28Z</time>
      </trkpt>
      <trkpt lat="42.243996" lon="-1.2480139999999988">
        <ele>462.698</ele>
        <time>2022-06-18T09:02:30Z</time>
      </trkpt>
      <trkpt lat="42.244039" lon="-1.2480519999999988">
        <ele>462.647</ele>
        <time>2022-06-18T09:02:31Z</time>
      </trkpt>
      <trkpt lat="42.244521" lon="-1.248460999999999">
        <ele>463.412</ele>
        <time>2022-06-18T09:02:42Z</time>
      </trkpt>
      <trkpt lat="42.24461" lon="-1.248540999999999">
        <ele>463.654</ele>
        <time>2022-06-18T09:02:44Z</time>
      </trkpt>
      <trkpt lat="42.244696000000005" lon="-1.2486179999999991">
        <ele>463.836</ele>
        <time>2022-06-18T09:02:46Z</time>
      </trkpt>
      <trkpt lat="42.245143000000006" lon="-1.2490029999999992">
        <ele>464.280</ele>
        <time>2022-06-18T09:02:56Z</time>
      </trkpt>
      <trkpt lat="42.245597000000004" lon="-1.249392999999999">
        <ele>464.848</ele>
        <time>2022-06-18T09:03:06Z</time>
      </trkpt>
      <trkpt lat="42.245729000000004" lon="-1.249500999999999">
        <ele>464.853</ele>
        <time>2022-06-18T09:03:09Z</time>
      </trkpt>
      <trkpt lat="42.245816000000005" lon="-1.249576999999999">
        <ele>465.033</ele>
        <time>2022-06-18T09:03:11Z</time>
      </trkpt>
      <trkpt lat="42.246318" lon="-1.250009999999999">
        <ele>465.828</ele>
        <time>2022-06-18T09:03:22Z</time>
      </trkpt>
      <trkpt lat="42.246795" lon="-1.250413999999999">
        <ele>465.889</ele>
        <time>2022-06-18T09:03:32Z</time>
      </trkpt>
      <trkpt lat="42.24689" lon="-1.250496999999999">
        <ele>465.817</ele>
        <time>2022-06-18T09:03:34Z</time>
      </trkpt>
      <trkpt lat="42.246985" lon="-1.250581999999999">
        <ele>465.809</ele>
        <time>2022-06-18T09:03:36Z</time>
      </trkpt>
      <trkpt lat="42.247468000000005" lon="-1.250996999999999">
        <ele>466.463</ele>
        <time>2022-06-18T09:03:46Z</time>
      </trkpt>
      <trkpt lat="42.247704000000006" lon="-1.251194999999999">
        <ele>466.662</ele>
        <time>2022-06-18T09:03:51Z</time>
      </trkpt>
      <trkpt lat="42.24788900000001" lon="-1.251355999999999">
        <ele>467.087</ele>
        <time>2022-06-18T09:03:55Z</time>
      </trkpt>
      <trkpt lat="42.248292000000006" lon="-1.251701999999999">
        <ele>467.619</ele>
        <time>2022-06-18T09:04:04Z</time>
      </trkpt>
      <trkpt lat="42.24851100000001" lon="-1.251892999999999">
        <ele>468.081</ele>
        <time>2022-06-18T09:04:09Z</time>
      </trkpt>
      <trkpt lat="42.248726000000005" lon="-1.252081999999999">
        <ele>468.055</ele>
        <time>2022-06-18T09:04:14Z</time>
      </trkpt>
      <trkpt lat="42.24903200000001" lon="-1.252336999999999">
        <ele>468.633</ele>
        <time>2022-06-18T09:04:21Z</time>
      </trkpt>
      <trkpt lat="42.249204000000006" lon="-1.2524889999999989">
        <ele>469.058</ele>
        <time>2022-06-18T09:04:25Z</time>
      </trkpt>
      <trkpt lat="42.24928800000001" lon="-1.252563999999999">
        <ele>469.298</ele>
        <time>2022-06-18T09:04:27Z</time>
      </trkpt>
      <trkpt lat="42.249579000000004" lon="-1.2528179999999989">
        <ele>469.431</ele>
        <time>2022-06-18T09:04:34Z</time>
      </trkpt>
      <trkpt lat="42.249974" lon="-1.253148999999999">
        <ele>470.061</ele>
        <time>2022-06-18T09:04:43Z</time>
      </trkpt>
      <trkpt lat="42.250460000000004" lon="-1.2535659999999988">
        <ele>470.807</ele>
        <time>2022-06-18T09:04:54Z</time>
      </trkpt>
      <trkpt lat="42.250548" lon="-1.253642999999999">
        <ele>471.009</ele>
        <time>2022-06-18T09:04:56Z</time>
      </trkpt>
      <trkpt lat="42.250724000000005" lon="-1.253787999999999">
        <ele>471.034</ele>
        <time>2022-06-18T09:05:00Z</time>
      </trkpt>
      <trkpt lat="42.25099000000001" lon="-1.254015999999999">
        <ele>471.233</ele>
        <time>2022-06-18T09:05:06Z</time>
      </trkpt>
      <trkpt lat="42.25145200000001" lon="-1.254411999999999">
        <ele>471.248</ele>
        <time>2022-06-18T09:05:16Z</time>
      </trkpt>
      <trkpt lat="42.25154800000001" lon="-1.254497999999999">
        <ele>471.490</ele>
        <time>2022-06-18T09:05:18Z</time>
      </trkpt>
      <trkpt lat="42.25201800000001" lon="-1.254892999999999">
        <ele>471.852</ele>
        <time>2022-06-18T09:05:28Z</time>
      </trkpt>
      <trkpt lat="42.252159000000006" lon="-1.2550129999999988">
        <ele>472.036</ele>
        <time>2022-06-18T09:05:31Z</time>
      </trkpt>
      <trkpt lat="42.252253" lon="-1.255092999999999">
        <ele>472.024</ele>
        <time>2022-06-18T09:05:33Z</time>
      </trkpt>
      <trkpt lat="42.252301" lon="-1.255134999999999">
        <ele>472.229</ele>
        <time>2022-06-18T09:05:34Z</time>
      </trkpt>
      <trkpt lat="42.252784000000005" lon="-1.255547999999999">
        <ele>472.469</ele>
        <time>2022-06-18T09:05:44Z</time>
      </trkpt>
      <trkpt lat="42.252877000000005" lon="-1.255629999999999">
        <ele>472.436</ele>
        <time>2022-06-18T09:05:46Z</time>
      </trkpt>
      <trkpt lat="42.253370000000004" lon="-1.256047999999999">
        <ele>472.617</ele>
        <time>2022-06-18T09:05:57Z</time>
      </trkpt>
      <trkpt lat="42.25341400000001" lon="-1.256084999999999">
        <ele>472.618</ele>
        <time>2022-06-18T09:05:58Z</time>
      </trkpt>
      <trkpt lat="42.253592000000005" lon="-1.256231999999999">
        <ele>473.009</ele>
        <time>2022-06-18T09:06:02Z</time>
      </trkpt>
      <trkpt lat="42.25394000000001" lon="-1.256536999999999">
        <ele>474.014</ele>
        <time>2022-06-18T09:06:10Z</time>
      </trkpt>
      <trkpt lat="42.254025000000006" lon="-1.256613999999999">
        <ele>474.243</ele>
        <time>2022-06-18T09:06:12Z</time>
      </trkpt>
      <trkpt lat="42.254461000000006" lon="-1.256983999999999">
        <ele>474.898</ele>
        <time>2022-06-18T09:06:22Z</time>
      </trkpt>
      <trkpt lat="42.254850000000005" lon="-1.257313999999999">
        <ele>475.270</ele>
        <time>2022-06-18T09:06:31Z</time>
      </trkpt>
      <trkpt lat="42.25489400000001" lon="-1.2573499999999989">
        <ele>475.282</ele>
        <time>2022-06-18T09:06:32Z</time>
      </trkpt>
      <trkpt lat="42.25536300000001" lon="-1.2577519999999989">
        <ele>475.666</ele>
        <time>2022-06-18T09:06:43Z</time>
      </trkpt>
      <trkpt lat="42.25571100000001" lon="-1.258047999999999">
        <ele>476.224</ele>
        <time>2022-06-18T09:06:51Z</time>
      </trkpt>
      <trkpt lat="42.25584400000001" lon="-1.2581649999999989">
        <ele>476.439</ele>
        <time>2022-06-18T09:06:54Z</time>
      </trkpt>
      <trkpt lat="42.25624200000001" lon="-1.2585049999999989">
        <ele>477.259</ele>
        <time>2022-06-18T09:07:03Z</time>
      </trkpt>
      <trkpt lat="42.25632900000001" lon="-1.2585779999999989">
        <ele>477.273</ele>
        <time>2022-06-18T09:07:05Z</time>
      </trkpt>
      <trkpt lat="42.256668000000005" lon="-1.258865999999999">
        <ele>478.085</ele>
        <time>2022-06-18T09:07:13Z</time>
      </trkpt>
      <trkpt lat="42.256925" lon="-1.259085999999999">
        <ele>478.213</ele>
        <time>2022-06-18T09:07:19Z</time>
      </trkpt>
      <trkpt lat="42.257139" lon="-1.259267999999999">
        <ele>478.609</ele>
        <time>2022-06-18T09:07:24Z</time>
      </trkpt>
      <trkpt lat="42.257488" lon="-1.259560999999999">
        <ele>479.028</ele>
        <time>2022-06-18T09:07:32Z</time>
      </trkpt>
      <trkpt lat="42.257661" lon="-1.259711999999999">
        <ele>479.287</ele>
        <time>2022-06-18T09:07:36Z</time>
      </trkpt>
      <trkpt lat="42.257833999999995" lon="-1.259859999999999">
        <ele>479.432</ele>
        <time>2022-06-18T09:07:40Z</time>
      </trkpt>
      <trkpt lat="42.258055999999996" lon="-1.260046999999999">
        <ele>480.084</ele>
        <time>2022-06-18T09:07:45Z</time>
      </trkpt>
      <trkpt lat="42.258404" lon="-1.260350999999999">
        <ele>480.456</ele>
        <time>2022-06-18T09:07:53Z</time>
      </trkpt>
      <trkpt lat="42.258582" lon="-1.2605009999999992">
        <ele>480.630</ele>
        <time>2022-06-18T09:07:57Z</time>
      </trkpt>
      <trkpt lat="42.259026" lon="-1.2608789999999992">
        <ele>481.678</ele>
        <time>2022-06-18T09:08:07Z</time>
      </trkpt>
      <trkpt lat="42.25907" lon="-1.2609159999999993">
        <ele>481.633</ele>
        <time>2022-06-18T09:08:08Z</time>
      </trkpt>
      <trkpt lat="42.259539000000004" lon="-1.2613189999999992">
        <ele>482.433</ele>
        <time>2022-06-18T09:08:19Z</time>
      </trkpt>
      <trkpt lat="42.259627" lon="-1.2613909999999993">
        <ele>482.454</ele>
        <time>2022-06-18T09:08:21Z</time>
      </trkpt>
      <trkpt lat="42.259712" lon="-1.2614599999999994">
        <ele>482.856</ele>
        <time>2022-06-18T09:08:23Z</time>
      </trkpt>
      <trkpt lat="42.260096" lon="-1.2617929999999993">
        <ele>483.211</ele>
        <time>2022-06-18T09:08:32Z</time>
      </trkpt>
      <trkpt lat="42.260349999999995" lon="-1.2620099999999992">
        <ele>483.809</ele>
        <time>2022-06-18T09:08:38Z</time>
      </trkpt>
      <trkpt lat="42.26056499999999" lon="-1.2621859999999991">
        <ele>484.426</ele>
        <time>2022-06-18T09:08:43Z</time>
      </trkpt>
      <trkpt lat="42.260735999999994" lon="-1.262332999999999">
        <ele>484.835</ele>
        <time>2022-06-18T09:08:47Z</time>
      </trkpt>
      <trkpt lat="42.26116" lon="-1.262694999999999">
        <ele>485.050</ele>
        <time>2022-06-18T09:08:57Z</time>
      </trkpt>
      <trkpt lat="42.261542999999996" lon="-1.263029999999999">
        <ele>485.892</ele>
        <time>2022-06-18T09:09:06Z</time>
      </trkpt>
      <trkpt lat="42.261672999999995" lon="-1.263137999999999">
        <ele>486.044</ele>
        <time>2022-06-18T09:09:09Z</time>
      </trkpt>
      <trkpt lat="42.26214699999999" lon="-1.263543999999999">
        <ele>486.868</ele>
        <time>2022-06-18T09:09:20Z</time>
      </trkpt>
      <trkpt lat="42.26218999999999" lon="-1.263577999999999">
        <ele>487.016</ele>
        <time>2022-06-18T09:09:21Z</time>
      </trkpt>
      <trkpt lat="42.26266499999999" lon="-1.263961999999999">
        <ele>487.691</ele>
        <time>2022-06-18T09:09:32Z</time>
      </trkpt>
      <trkpt lat="42.26310699999999" lon="-1.2642349999999989">
        <ele>488.011</ele>
        <time>2022-06-18T09:09:41Z</time>
      </trkpt>
      <trkpt lat="42.26350399999999" lon="-1.264385999999999">
        <ele>488.085</ele>
        <time>2022-06-18T09:09:49Z</time>
      </trkpt>
      <trkpt lat="42.26369999999999" lon="-1.264422999999999">
        <ele>488.289</ele>
        <time>2022-06-18T09:09:53Z</time>
      </trkpt>
      <trkpt lat="42.263892999999996" lon="-1.264437999999999">
        <ele>488.817</ele>
        <time>2022-06-18T09:09:57Z</time>
      </trkpt>
      <trkpt lat="42.263991999999995" lon="-1.2644369999999991">
        <ele>489.009</ele>
        <time>2022-06-18T09:09:59Z</time>
      </trkpt>
      <trkpt lat="42.264444" lon="-1.264383999999999">
        <ele>489.449</ele>
        <time>2022-06-18T09:10:08Z</time>
      </trkpt>
      <trkpt lat="42.264995" lon="-1.264170999999999">
        <ele>489.288</ele>
        <time>2022-06-18T09:10:18Z</time>
      </trkpt>
      <trkpt lat="42.265538" lon="-1.2638889999999992">
        <ele>488.663</ele>
        <time>2022-06-18T09:10:27Z</time>
      </trkpt>
      <trkpt lat="42.265601" lon="-1.2638559999999992">
        <ele>488.655</ele>
        <time>2022-06-18T09:10:28Z</time>
      </trkpt>
      <trkpt lat="42.26612299999999" lon="-1.2636039999999993">
        <ele>488.227</ele>
        <time>2022-06-18T09:10:36Z</time>
      </trkpt>
      <trkpt lat="42.26625299999999" lon="-1.2635589999999992">
        <ele>488.281</ele>
        <time>2022-06-18T09:10:38Z</time>
      </trkpt>
      <trkpt lat="42.26634999999999" lon="-1.2635319999999992">
        <ele>488.289</ele>
        <time>2022-06-18T09:10:40Z</time>
      </trkpt>
      <trkpt lat="42.266415999999985" lon="-1.2634849999999993">
        <ele>488.264</ele>
        <time>2022-06-18T09:10:42Z</time>
      </trkpt>
      <trkpt lat="42.266466999999984" lon="-1.2634149999999993">
        <ele>488.244</ele>
        <time>2022-06-18T09:10:47Z</time>
      </trkpt>
      <trkpt lat="42.266466999999984" lon="-1.2634149999999993">
        <ele>488.427</ele>
        <time>2022-06-18T09:10:48Z</time>
      </trkpt>
      <trkpt lat="42.266502999999986" lon="-1.2634699999999992">
        <ele>488.268</ele>
        <time>2022-06-18T09:12:54Z</time>
      </trkpt>
      <trkpt lat="42.266550999999986" lon="-1.2635059999999991">
        <ele>488.214</ele>
        <time>2022-06-18T09:12:56Z</time>
      </trkpt>
      <trkpt lat="42.266705999999985" lon="-1.2635029999999992">
        <ele>488.209</ele>
        <time>2022-06-18T09:13:00Z</time>
      </trkpt>
      <trkpt lat="42.266975999999985" lon="-1.263522999999999">
        <ele>488.223</ele>
        <time>2022-06-18T09:13:05Z</time>
      </trkpt>
      <trkpt lat="42.26731199999998" lon="-1.263603999999999">
        <ele>487.832</ele>
        <time>2022-06-18T09:13:10Z</time>
      </trkpt>
      <trkpt lat="42.267465999999985" lon="-1.2636599999999991">
        <ele>487.877</ele>
        <time>2022-06-18T09:13:12Z</time>
      </trkpt>
      <trkpt lat="42.267623999999984" lon="-1.263733999999999">
        <ele>487.689</ele>
        <time>2022-06-18T09:13:14Z</time>
      </trkpt>
      <trkpt lat="42.26770399999998" lon="-1.263780999999999">
        <ele>487.621</ele>
        <time>2022-06-18T09:13:15Z</time>
      </trkpt>
      <trkpt lat="42.26804499999998" lon="-1.264028999999999">
        <ele>486.455</ele>
        <time>2022-06-18T09:13:19Z</time>
      </trkpt>
      <trkpt lat="42.26812999999998" lon="-1.2641109999999989">
        <ele>486.043</ele>
        <time>2022-06-18T09:13:20Z</time>
      </trkpt>
      <trkpt lat="42.26829499999998" lon="-1.264301999999999">
        <ele>485.438</ele>
        <time>2022-06-18T09:13:22Z</time>
      </trkpt>
      <trkpt lat="42.26846699999998" lon="-1.264530999999999">
        <ele>484.658</ele>
        <time>2022-06-18T09:13:24Z</time>
      </trkpt>
      <trkpt lat="42.26863099999998" lon="-1.264800999999999">
        <ele>483.631</ele>
        <time>2022-06-18T09:13:26Z</time>
      </trkpt>
      <trkpt lat="42.26878299999998" lon="-1.265104999999999">
        <ele>482.061</ele>
        <time>2022-06-18T09:13:28Z</time>
      </trkpt>
      <trkpt lat="42.268915999999976" lon="-1.2653979999999991">
        <ele>480.007</ele>
        <time>2022-06-18T09:13:30Z</time>
      </trkpt>
      <trkpt lat="42.268989999999974" lon="-1.2655669999999992">
        <ele>479.009</ele>
        <time>2022-06-18T09:13:31Z</time>
      </trkpt>
      <trkpt lat="42.26915699999997" lon="-1.2659479999999992">
        <ele>477.214</ele>
        <time>2022-06-18T09:13:33Z</time>
      </trkpt>
      <trkpt lat="42.26922299999997" lon="-1.2660849999999992">
        <ele>476.053</ele>
        <time>2022-06-18T09:13:34Z</time>
      </trkpt>
      <trkpt lat="42.269313999999966" lon="-1.2662539999999993">
        <ele>474.468</ele>
        <time>2022-06-18T09:13:35Z</time>
      </trkpt>
      <trkpt lat="42.269431999999966" lon="-1.2664479999999994">
        <ele>472.870</ele>
        <time>2022-06-18T09:13:36Z</time>
      </trkpt>
      <trkpt lat="42.26953599999997" lon="-1.2666029999999993">
        <ele>471.882</ele>
        <time>2022-06-18T09:13:37Z</time>
      </trkpt>
      <trkpt lat="42.269646999999964" lon="-1.2667449999999993">
        <ele>471.836</ele>
        <time>2022-06-18T09:13:38Z</time>
      </trkpt>
      <trkpt lat="42.269741999999965" lon="-1.2668539999999993">
        <ele>470.214</ele>
        <time>2022-06-18T09:13:39Z</time>
      </trkpt>
      <trkpt lat="42.269865999999965" lon="-1.2669829999999993">
        <ele>468.669</ele>
        <time>2022-06-18T09:13:40Z</time>
      </trkpt>
      <trkpt lat="42.270017999999965" lon="-1.2671289999999993">
        <ele>467.029</ele>
        <time>2022-06-18T09:13:41Z</time>
      </trkpt>
      <trkpt lat="42.270149999999965" lon="-1.2672369999999993">
        <ele>465.866</ele>
        <time>2022-06-18T09:13:42Z</time>
      </trkpt>
      <trkpt lat="42.27028899999996" lon="-1.2673349999999992">
        <ele>464.029</ele>
        <time>2022-06-18T09:13:43Z</time>
      </trkpt>
      <trkpt lat="42.270431999999964" lon="-1.2674209999999992">
        <ele>462.421</ele>
        <time>2022-06-18T09:13:44Z</time>
      </trkpt>
      <trkpt lat="42.27057399999996" lon="-1.2674949999999992">
        <ele>459.409</ele>
        <time>2022-06-18T09:13:45Z</time>
      </trkpt>
      <trkpt lat="42.27071399999996" lon="-1.267565999999999">
        <ele>457.847</ele>
        <time>2022-06-18T09:13:46Z</time>
      </trkpt>
      <trkpt lat="42.27098999999996" lon="-1.267700999999999">
        <ele>456.286</ele>
        <time>2022-06-18T09:13:48Z</time>
      </trkpt>
      <trkpt lat="42.271230999999965" lon="-1.267816999999999">
        <ele>454.461</ele>
        <time>2022-06-18T09:13:50Z</time>
      </trkpt>
      <trkpt lat="42.27138699999996" lon="-1.267894999999999">
        <ele>451.883</ele>
        <time>2022-06-18T09:13:51Z</time>
      </trkpt>
      <trkpt lat="42.27151499999996" lon="-1.2679589999999992">
        <ele>450.275</ele>
        <time>2022-06-18T09:13:52Z</time>
      </trkpt>
      <trkpt lat="42.271642999999955" lon="-1.2680189999999991">
        <ele>449.069</ele>
        <time>2022-06-18T09:13:53Z</time>
      </trkpt>
      <trkpt lat="42.27177099999995" lon="-1.2680799999999992">
        <ele>447.827</ele>
        <time>2022-06-18T09:13:54Z</time>
      </trkpt>
      <trkpt lat="42.27202399999995" lon="-1.2682029999999993">
        <ele>446.442</ele>
        <time>2022-06-18T09:13:56Z</time>
      </trkpt>
      <trkpt lat="42.27227699999995" lon="-1.2683169999999993">
        <ele>445.842</ele>
        <time>2022-06-18T09:13:58Z</time>
      </trkpt>
      <trkpt lat="42.272376999999956" lon="-1.2683609999999992">
        <ele>445.448</ele>
        <time>2022-06-18T09:13:59Z</time>
      </trkpt>
      <trkpt lat="42.272500999999956" lon="-1.2684099999999991">
        <ele>444.861</ele>
        <time>2022-06-18T09:14:00Z</time>
      </trkpt>
      <trkpt lat="42.27290499999996" lon="-1.2685259999999992">
        <ele>443.617</ele>
        <time>2022-06-18T09:14:03Z</time>
      </trkpt>
      <trkpt lat="42.27300299999996" lon="-1.2685479999999991">
        <ele>442.609</ele>
        <time>2022-06-18T09:14:04Z</time>
      </trkpt>
      <trkpt lat="42.27326799999996" lon="-1.268620999999999">
        <ele>441.445</ele>
        <time>2022-06-18T09:14:06Z</time>
      </trkpt>
      <trkpt lat="42.27347999999996" lon="-1.2686709999999992">
        <ele>440.094</ele>
        <time>2022-06-18T09:14:08Z</time>
      </trkpt>
      <trkpt lat="42.27359399999996" lon="-1.2686999999999993">
        <ele>439.479</ele>
        <time>2022-06-18T09:14:09Z</time>
      </trkpt>
      <trkpt lat="42.27384299999996" lon="-1.2687619999999993">
        <ele>438.821</ele>
        <time>2022-06-18T09:14:11Z</time>
      </trkpt>
      <trkpt lat="42.27416799999995" lon="-1.2688459999999993">
        <ele>437.863</ele>
        <time>2022-06-18T09:14:14Z</time>
      </trkpt>
      <trkpt lat="42.27436899999995" lon="-1.2688909999999993">
        <ele>437.457</ele>
        <time>2022-06-18T09:14:16Z</time>
      </trkpt>
      <trkpt lat="42.27491799999995" lon="-1.2690299999999992">
        <ele>437.465</ele>
        <time>2022-06-18T09:14:22Z</time>
      </trkpt>
      <trkpt lat="42.27530799999995" lon="-1.2691299999999992">
        <ele>437.840</ele>
        <time>2022-06-18T09:14:27Z</time>
      </trkpt>
      <trkpt lat="42.27537899999995" lon="-1.2691469999999991">
        <ele>437.810</ele>
        <time>2022-06-18T09:14:28Z</time>
      </trkpt>
      <trkpt lat="42.27576699999995" lon="-1.2692359999999991">
        <ele>438.838</ele>
        <time>2022-06-18T09:14:34Z</time>
      </trkpt>
      <trkpt lat="42.275827999999954" lon="-1.2692519999999992">
        <ele>438.870</ele>
        <time>2022-06-18T09:14:35Z</time>
      </trkpt>
      <trkpt lat="42.27616999999996" lon="-1.269352999999999">
        <ele>440.017</ele>
        <time>2022-06-18T09:14:41Z</time>
      </trkpt>
      <trkpt lat="42.276333999999956" lon="-1.2693869999999992">
        <ele>441.609</ele>
        <time>2022-06-18T09:14:44Z</time>
      </trkpt>
      <trkpt lat="42.27649699999996" lon="-1.2694189999999992">
        <ele>442.634</ele>
        <time>2022-06-18T09:14:47Z</time>
      </trkpt>
      <trkpt lat="42.27654999999996" lon="-1.2694319999999992">
        <ele>442.883</ele>
        <time>2022-06-18T09:14:48Z</time>
      </trkpt>
      <trkpt lat="42.27697799999996" lon="-1.2695459999999992">
        <ele>443.438</ele>
        <time>2022-06-18T09:14:56Z</time>
      </trkpt>
      <trkpt lat="42.27752099999996" lon="-1.2696829999999992">
        <ele>443.230</ele>
        <time>2022-06-18T09:15:06Z</time>
      </trkpt>
      <trkpt lat="42.27798799999996" lon="-1.2697989999999992">
        <ele>443.222</ele>
        <time>2022-06-18T09:15:15Z</time>
      </trkpt>
      <trkpt lat="42.27843499999996" lon="-1.2699149999999992">
        <ele>443.646</ele>
        <time>2022-06-18T09:15:24Z</time>
      </trkpt>
      <trkpt lat="42.278528999999956" lon="-1.2699409999999993">
        <ele>443.624</ele>
        <time>2022-06-18T09:15:26Z</time>
      </trkpt>
      <trkpt lat="42.278956999999956" lon="-1.2700579999999992">
        <ele>444.269</ele>
        <time>2022-06-18T09:15:35Z</time>
      </trkpt>
      <trkpt lat="42.279120999999954" lon="-1.2700939999999992">
        <ele>444.459</ele>
        <time>2022-06-18T09:15:39Z</time>
      </trkpt>
      <trkpt lat="42.279142999999955" lon="-1.2700729999999991">
        <ele>444.648</ele>
        <time>2022-06-18T09:15:40Z</time>
      </trkpt>
      <trkpt lat="42.27915499999995" lon="-1.2700379999999991">
        <ele>444.661</ele>
        <time>2022-06-18T09:15:41Z</time>
      </trkpt>
      <trkpt lat="42.279159999999955" lon="-1.269992999999999">
        <ele>444.617</ele>
        <time>2022-06-18T09:15:42Z</time>
      </trkpt>
      <trkpt lat="42.279159999999955" lon="-1.269896999999999">
        <ele>445.009</ele>
        <time>2022-06-18T09:15:44Z</time>
      </trkpt>
      <trkpt lat="42.27916999999996" lon="-1.269447999999999">
        <ele>445.075</ele>
        <time>2022-06-18T09:15:52Z</time>
      </trkpt>
      <trkpt lat="42.279181999999956" lon="-1.269234999999999">
        <ele>445.024</ele>
        <time>2022-06-18T09:15:56Z</time>
      </trkpt>
      <trkpt lat="42.27921199999996" lon="-1.269145999999999">
        <ele>444.849</ele>
        <time>2022-06-18T09:15:58Z</time>
      </trkpt>
      <trkpt lat="42.27931399999996" lon="-1.269062999999999">
        <ele>444.821</ele>
        <time>2022-06-18T09:16:02Z</time>
      </trkpt>
      <trkpt lat="42.279361999999956" lon="-1.268857999999999">
        <ele>444.873</ele>
        <time>2022-06-18T09:16:07Z</time>
      </trkpt>
      <trkpt lat="42.279466999999954" lon="-1.268633999999999">
        <ele>445.227</ele>
        <time>2022-06-18T09:16:12Z</time>
      </trkpt>
      <trkpt lat="42.27964599999996" lon="-1.268576999999999">
        <ele>445.255</ele>
        <time>2022-06-18T09:16:17Z</time>
      </trkpt>
      <trkpt lat="42.27990499999996" lon="-1.268562999999999">
        <ele>445.450</ele>
        <time>2022-06-18T09:16:24Z</time>
      </trkpt>
      <trkpt lat="42.27999199999996" lon="-1.268539999999999">
        <ele>445.470</ele>
        <time>2022-06-18T09:16:28Z</time>
      </trkpt>
      <trkpt lat="42.28007799999996" lon="-1.268571999999999">
        <ele>445.625</ele>
        <time>2022-06-18T09:16:34Z</time>
      </trkpt>
      <trkpt lat="42.28008899999996" lon="-1.268563999999999">
        <ele>445.626</ele>
        <time>2022-06-18T09:16:35Z</time>
      </trkpt>
      <trkpt lat="42.280126999999965" lon="-1.268458999999999">
        <ele>445.608</ele>
        <time>2022-06-18T09:16:39Z</time>
      </trkpt>
      <trkpt lat="42.28015299999996" lon="-1.268350999999999">
        <ele>446.009</ele>
        <time>2022-06-18T09:16:42Z</time>
      </trkpt>
      <trkpt lat="42.280185999999965" lon="-1.268265999999999">
        <ele>446.093</ele>
        <time>2022-06-18T09:16:45Z</time>
      </trkpt>
      <trkpt lat="42.280253999999964" lon="-1.268239999999999">
        <ele>446.822</ele>
        <time>2022-06-18T09:16:49Z</time>
      </trkpt>
      <trkpt lat="42.28027999999996" lon="-1.268249999999999">
        <ele>447.017</ele>
        <time>2022-06-18T09:16:50Z</time>
      </trkpt>
      <trkpt lat="42.28040799999996" lon="-1.268313999999999">
        <ele>447.449</ele>
        <time>2022-06-18T09:16:54Z</time>
      </trkpt>
      <trkpt lat="42.28059999999996" lon="-1.268433999999999">
        <ele>447.831</ele>
        <time>2022-06-18T09:17:00Z</time>
      </trkpt>
      <trkpt lat="42.280814999999954" lon="-1.268556999999999">
        <ele>448.085</ele>
        <time>2022-06-18T09:17:07Z</time>
      </trkpt>
      <trkpt lat="42.280999999999956" lon="-1.268649999999999">
        <ele>448.043</ele>
        <time>2022-06-18T09:17:14Z</time>
      </trkpt>
      <trkpt lat="42.281013999999956" lon="-1.2686399999999989">
        <ele>448.218</ele>
        <time>2022-06-18T09:17:15Z</time>
      </trkpt>
      <trkpt lat="42.28101799999995" lon="-1.2686159999999989">
        <ele>448.438</ele>
        <time>2022-06-18T09:17:16Z</time>
      </trkpt>
      <trkpt lat="42.281016999999956" lon="-1.2685869999999988">
        <ele>448.687</ele>
        <time>2022-06-18T09:17:17Z</time>
      </trkpt>
      <trkpt lat="42.28102799999996" lon="-1.2684879999999987">
        <ele>448.842</ele>
        <time>2022-06-18T09:17:20Z</time>
      </trkpt>
      <trkpt lat="42.28104899999995" lon="-1.2684359999999988">
        <ele>449.026</ele>
        <time>2022-06-18T09:17:22Z</time>
      </trkpt>
      <trkpt lat="42.28108699999996" lon="-1.2683049999999987">
        <ele>449.409</ele>
        <time>2022-06-18T09:17:26Z</time>
      </trkpt>
      <trkpt lat="42.28113199999996" lon="-1.2681769999999988">
        <ele>450.859</ele>
        <time>2022-06-18T09:17:30Z</time>
      </trkpt>
      <trkpt lat="42.28113999999996" lon="-1.2680459999999987">
        <ele>451.458</ele>
        <time>2022-06-18T09:17:35Z</time>
      </trkpt>
      <trkpt lat="42.28099299999996" lon="-1.2678809999999987">
        <ele>451.443</ele>
        <time>2022-06-18T09:17:42Z</time>
      </trkpt>
      <trkpt lat="42.28083899999996" lon="-1.2677049999999987">
        <ele>451.415</ele>
        <time>2022-06-18T09:17:50Z</time>
      </trkpt>
      <trkpt lat="42.28071799999996" lon="-1.2676299999999987">
        <ele>451.877</ele>
        <time>2022-06-18T09:17:57Z</time>
      </trkpt>
      <trkpt lat="42.28070299999996" lon="-1.2676159999999987">
        <ele>452.071</ele>
        <time>2022-06-18T09:17:58Z</time>
      </trkpt>
      <trkpt lat="42.28070099999996" lon="-1.2675839999999987">
        <ele>452.229</ele>
        <time>2022-06-18T09:18:00Z</time>
      </trkpt>
      <trkpt lat="42.28079399999996" lon="-1.2675969999999988">
        <ele>452.684</ele>
        <time>2022-06-18T09:18:05Z</time>
      </trkpt>
      <trkpt lat="42.28089199999996" lon="-1.2676289999999988">
        <ele>453.064</ele>
        <time>2022-06-18T09:18:10Z</time>
      </trkpt>
      <trkpt lat="42.28095199999996" lon="-1.2676489999999987">
        <ele>453.418</ele>
        <time>2022-06-18T09:18:14Z</time>
      </trkpt>
      <trkpt lat="42.28095899999995" lon="-1.2676509999999988">
        <ele>454.298</ele>
        <time>2022-06-18T09:18:17Z</time>
      </trkpt>
      <trkpt lat="42.28093499999995" lon="-1.2676569999999987">
        <ele>455.817</ele>
        <time>2022-06-18T09:39:30Z</time>
      </trkpt>
      <trkpt lat="42.28088899999995" lon="-1.2676349999999987">
        <ele>455.609</ele>
        <time>2022-06-18T09:39:32Z</time>
      </trkpt>
      <trkpt lat="42.28081299999995" lon="-1.2676039999999988">
        <ele>455.652</ele>
        <time>2022-06-18T09:39:35Z</time>
      </trkpt>
      <trkpt lat="42.28076599999995" lon="-1.2676019999999988">
        <ele>455.641</ele>
        <time>2022-06-18T09:39:37Z</time>
      </trkpt>
      <trkpt lat="42.28076699999995" lon="-1.2676399999999988">
        <ele>455.246</ele>
        <time>2022-06-18T09:39:39Z</time>
      </trkpt>
      <trkpt lat="42.28080599999995" lon="-1.2676669999999988">
        <ele>454.438</ele>
        <time>2022-06-18T09:39:42Z</time>
      </trkpt>
      <trkpt lat="42.280868999999946" lon="-1.2677159999999987">
        <ele>453.830</ele>
        <time>2022-06-18T09:39:45Z</time>
      </trkpt>
      <trkpt lat="42.28099099999994" lon="-1.2678349999999987">
        <ele>453.434</ele>
        <time>2022-06-18T09:39:50Z</time>
      </trkpt>
      <trkpt lat="42.281018999999944" lon="-1.2678659999999986">
        <ele>453.222</ele>
        <time>2022-06-18T09:39:51Z</time>
      </trkpt>
      <trkpt lat="42.28120899999995" lon="-1.2680929999999986">
        <ele>453.027</ele>
        <time>2022-06-18T09:39:58Z</time>
      </trkpt>
      <trkpt lat="42.281245999999946" lon="-1.2681539999999987">
        <ele>453.067</ele>
        <time>2022-06-18T09:40:01Z</time>
      </trkpt>
      <trkpt lat="42.281240999999945" lon="-1.2681709999999986">
        <ele>453.033</ele>
        <time>2022-06-18T09:40:02Z</time>
      </trkpt>
      <trkpt lat="42.28116899999994" lon="-1.2683199999999986">
        <ele>453.023</ele>
        <time>2022-06-18T09:40:07Z</time>
      </trkpt>
      <trkpt lat="42.28107899999994" lon="-1.2685789999999986">
        <ele>452.615</ele>
        <time>2022-06-18T09:40:12Z</time>
      </trkpt>
      <trkpt lat="42.28104199999994" lon="-1.2686939999999987">
        <ele>451.809</ele>
        <time>2022-06-18T09:40:14Z</time>
      </trkpt>
      <trkpt lat="42.280995999999945" lon="-1.2688099999999987">
        <ele>451.294</ele>
        <time>2022-06-18T09:40:16Z</time>
      </trkpt>
      <trkpt lat="42.28095499999994" lon="-1.2689339999999987">
        <ele>450.673</ele>
        <time>2022-06-18T09:40:18Z</time>
      </trkpt>
      <trkpt lat="42.280877999999944" lon="-1.2692209999999986">
        <ele>449.428</ele>
        <time>2022-06-18T09:40:24Z</time>
      </trkpt>
      <trkpt lat="42.280787999999944" lon="-1.2695599999999987">
        <ele>448.660</ele>
        <time>2022-06-18T09:40:31Z</time>
      </trkpt>
      <trkpt lat="42.28075799999994" lon="-1.2696329999999987">
        <ele>448.482</ele>
        <time>2022-06-18T09:40:33Z</time>
      </trkpt>
      <trkpt lat="42.28074899999994" lon="-1.2696789999999987">
        <ele>448.036</ele>
        <time>2022-06-18T09:40:34Z</time>
      </trkpt>
      <trkpt lat="42.28073799999994" lon="-1.2697499999999986">
        <ele>447.844</ele>
        <time>2022-06-18T09:40:36Z</time>
      </trkpt>
      <trkpt lat="42.280742999999944" lon="-1.2697709999999987">
        <ele>447.219</ele>
        <time>2022-06-18T09:40:37Z</time>
      </trkpt>
      <trkpt lat="42.280829999999945" lon="-1.2698589999999987">
        <ele>446.819</ele>
        <time>2022-06-18T09:40:41Z</time>
      </trkpt>
      <trkpt lat="42.28086199999994" lon="-1.2699209999999987">
        <ele>446.888</ele>
        <time>2022-06-18T09:40:43Z</time>
      </trkpt>
      <trkpt lat="42.28088499999994" lon="-1.2700409999999986">
        <ele>446.824</ele>
        <time>2022-06-18T09:40:46Z</time>
      </trkpt>
      <trkpt lat="42.28089899999994" lon="-1.2700909999999987">
        <ele>446.826</ele>
        <time>2022-06-18T09:40:48Z</time>
      </trkpt>
      <trkpt lat="42.28091999999994" lon="-1.2700869999999989">
        <ele>446.809</ele>
        <time>2022-06-18T09:40:49Z</time>
      </trkpt>
      <trkpt lat="42.28113399999994" lon="-1.270099999999999">
        <ele>447.039</ele>
        <time>2022-06-18T09:40:56Z</time>
      </trkpt>
      <trkpt lat="42.28138099999994" lon="-1.270228999999999">
        <ele>447.428</ele>
        <time>2022-06-18T09:41:04Z</time>
      </trkpt>
      <trkpt lat="42.28150399999994" lon="-1.270303999999999">
        <ele>447.443</ele>
        <time>2022-06-18T09:41:09Z</time>
      </trkpt>
      <trkpt lat="42.28169099999994" lon="-1.2703619999999989">
        <ele>447.465</ele>
        <time>2022-06-18T09:41:16Z</time>
      </trkpt>
      <trkpt lat="42.28183999999994" lon="-1.270465999999999">
        <ele>447.487</ele>
        <time>2022-06-18T09:41:23Z</time>
      </trkpt>
      <trkpt lat="42.28198099999994" lon="-1.270665999999999">
        <ele>447.821</ele>
        <time>2022-06-18T09:41:29Z</time>
      </trkpt>
      <trkpt lat="42.28203399999994" lon="-1.270880999999999">
        <ele>447.859</ele>
        <time>2022-06-18T09:41:34Z</time>
      </trkpt>
      <trkpt lat="42.28195999999994" lon="-1.271040999999999">
        <ele>447.834</ele>
        <time>2022-06-18T09:41:38Z</time>
      </trkpt>
      <trkpt lat="42.28184799999994" lon="-1.271228999999999">
        <ele>447.274</ele>
        <time>2022-06-18T09:41:44Z</time>
      </trkpt>
      <trkpt lat="42.28185199999994" lon="-1.271253999999999">
        <ele>447.053</ele>
        <time>2022-06-18T09:41:45Z</time>
      </trkpt>
      <trkpt lat="42.28189699999994" lon="-1.271312999999999">
        <ele>446.604</ele>
        <time>2022-06-18T09:41:48Z</time>
      </trkpt>
      <trkpt lat="42.28194899999993" lon="-1.271367999999999">
        <ele>446.614</ele>
        <time>2022-06-18T09:41:51Z</time>
      </trkpt>
      <trkpt lat="42.281962999999934" lon="-1.271386999999999">
        <ele>446.609</ele>
        <time>2022-06-18T09:41:52Z</time>
      </trkpt>
      <trkpt lat="42.28201399999993" lon="-1.271454999999999">
        <ele>446.636</ele>
        <time>2022-06-18T09:41:56Z</time>
      </trkpt>
      <trkpt lat="42.28202099999993" lon="-1.271480999999999">
        <ele>446.885</ele>
        <time>2022-06-18T09:41:57Z</time>
      </trkpt>
      <trkpt lat="42.28204299999993" lon="-1.271537999999999">
        <ele>447.030</ele>
        <time>2022-06-18T09:42:00Z</time>
      </trkpt>
      <trkpt lat="42.28208699999993" lon="-1.271647999999999">
        <ele>447.282</ele>
        <time>2022-06-18T09:42:06Z</time>
      </trkpt>
      <trkpt lat="42.282094999999934" lon="-1.271690999999999">
        <ele>447.234</ele>
        <time>2022-06-18T09:42:08Z</time>
      </trkpt>
      <trkpt lat="42.282057999999935" lon="-1.271742999999999">
        <ele>447.428</ele>
        <time>2022-06-18T09:42:11Z</time>
      </trkpt>
      <trkpt lat="42.28194999999994" lon="-1.271833999999999">
        <ele>448.086</ele>
        <time>2022-06-18T09:42:17Z</time>
      </trkpt>
      <trkpt lat="42.281936999999935" lon="-1.271853999999999">
        <ele>448.021</ele>
        <time>2022-06-18T09:42:18Z</time>
      </trkpt>
      <trkpt lat="42.28191799999993" lon="-1.271871999999999">
        <ele>448.241</ele>
        <time>2022-06-18T09:42:19Z</time>
      </trkpt>
      <trkpt lat="42.28179999999993" lon="-1.271935999999999">
        <ele>448.423</ele>
        <time>2022-06-18T09:42:23Z</time>
      </trkpt>
      <trkpt lat="42.281776999999934" lon="-1.271946999999999">
        <ele>448.683</ele>
        <time>2022-06-18T09:42:24Z</time>
      </trkpt>
      <trkpt lat="42.28164599999993" lon="-1.272044999999999">
        <ele>449.011</ele>
        <time>2022-06-18T09:42:30Z</time>
      </trkpt>
      <trkpt lat="42.28160799999993" lon="-1.272088999999999">
        <ele>449.209</ele>
        <time>2022-06-18T09:42:35Z</time>
      </trkpt>
      <trkpt lat="42.281616999999926" lon="-1.2722279999999988">
        <ele>449.623</ele>
        <time>2022-06-18T09:42:39Z</time>
      </trkpt>
      <trkpt lat="42.281599999999926" lon="-1.2724079999999989">
        <ele>449.862</ele>
        <time>2022-06-18T09:42:43Z</time>
      </trkpt>
      <trkpt lat="42.281591999999925" lon="-1.2725699999999989">
        <ele>449.887</ele>
        <time>2022-06-18T09:42:47Z</time>
      </trkpt>
      <trkpt lat="42.28158299999993" lon="-1.2725949999999988">
        <ele>449.839</ele>
        <time>2022-06-18T09:42:48Z</time>
      </trkpt>
      <trkpt lat="42.28152099999993" lon="-1.2727359999999988">
        <ele>448.841</ele>
        <time>2022-06-18T09:42:54Z</time>
      </trkpt>
      <trkpt lat="42.281512999999926" lon="-1.2727819999999987">
        <ele>448.455</ele>
        <time>2022-06-18T09:42:57Z</time>
      </trkpt>
      <trkpt lat="42.28150699999993" lon="-1.2727739999999987">
        <ele>448.253</ele>
        <time>2022-06-18T09:43:00Z</time>
      </trkpt>
      <trkpt lat="42.28151199999993" lon="-1.2727919999999988">
        <ele>448.228</ele>
        <time>2022-06-18T09:43:01Z</time>
      </trkpt>
      <trkpt lat="42.28151999999993" lon="-1.272806999999999">
        <ele>448.088</ele>
        <time>2022-06-18T09:43:05Z</time>
      </trkpt>
      <trkpt lat="42.28151999999993" lon="-1.272806999999999">
        <ele>447.822</ele>
        <time>2022-06-18T09:43:08Z</time>
      </trkpt>
      <trkpt lat="42.28153399999993" lon="-1.272802999999999">
        <ele>448.262</ele>
        <time>2022-06-18T09:43:42Z</time>
      </trkpt>
      <trkpt lat="42.28154899999993" lon="-1.272784999999999">
        <ele>448.208</ele>
        <time>2022-06-18T09:43:43Z</time>
      </trkpt>
      <trkpt lat="42.28164899999993" lon="-1.272699999999999">
        <ele>448.209</ele>
        <time>2022-06-18T09:43:48Z</time>
      </trkpt>
      <trkpt lat="42.28182299999993" lon="-1.272542999999999">
        <ele>448.243</ele>
        <time>2022-06-18T09:43:55Z</time>
      </trkpt>
      <trkpt lat="42.282015999999935" lon="-1.272335999999999">
        <ele>448.092</ele>
        <time>2022-06-18T09:44:03Z</time>
      </trkpt>
      <trkpt lat="42.282094999999934" lon="-1.272267999999999">
        <ele>448.247</ele>
        <time>2022-06-18T09:44:07Z</time>
      </trkpt>
      <trkpt lat="42.282102999999935" lon="-1.2722669999999991">
        <ele>448.239</ele>
        <time>2022-06-18T09:44:08Z</time>
      </trkpt>
      <trkpt lat="42.28233299999994" lon="-1.272124999999999">
        <ele>449.241</ele>
        <time>2022-06-18T09:44:20Z</time>
      </trkpt>
      <trkpt lat="42.28221199999994" lon="-1.271932999999999">
        <ele>449.235</ele>
        <time>2022-06-18T09:44:50Z</time>
      </trkpt>
      <trkpt lat="42.282192999999936" lon="-1.2718779999999992">
        <ele>449.213</ele>
        <time>2022-06-18T09:44:52Z</time>
      </trkpt>
      <trkpt lat="42.282096999999936" lon="-1.2718129999999992">
        <ele>449.238</ele>
        <time>2022-06-18T09:44:56Z</time>
      </trkpt>
      <trkpt lat="42.282054999999936" lon="-1.2717969999999992">
        <ele>449.218</ele>
        <time>2022-06-18T09:44:58Z</time>
      </trkpt>
      <trkpt lat="42.28201699999993" lon="-1.271781999999999">
        <ele>449.244</ele>
        <time>2022-06-18T09:45:00Z</time>
      </trkpt>
      <trkpt lat="42.282018999999934" lon="-1.271658999999999">
        <ele>448.605</ele>
        <time>2022-06-18T09:45:03Z</time>
      </trkpt>
      <trkpt lat="42.28199499999993" lon="-1.271559999999999">
        <ele>448.215</ele>
        <time>2022-06-18T09:45:06Z</time>
      </trkpt>
      <trkpt lat="42.28194799999993" lon="-1.271467999999999">
        <ele>448.009</ele>
        <time>2022-06-18T09:45:09Z</time>
      </trkpt>
      <trkpt lat="42.28186699999993" lon="-1.2713689999999989">
        <ele>447.855</ele>
        <time>2022-06-18T09:45:13Z</time>
      </trkpt>
      <trkpt lat="42.28185199999993" lon="-1.271362999999999">
        <ele>447.884</ele>
        <time>2022-06-18T09:45:14Z</time>
      </trkpt>
      <trkpt lat="42.28183499999993" lon="-1.2713479999999988">
        <ele>447.459</ele>
        <time>2022-06-18T09:45:16Z</time>
      </trkpt>
      <trkpt lat="42.28183099999993" lon="-1.271343999999999">
        <ele>447.081</ele>
        <time>2022-06-18T09:45:19Z</time>
      </trkpt>
      <trkpt lat="42.28183099999993" lon="-1.2713689999999989">
        <ele>447.493</ele>
        <time>2022-06-18T09:45:49Z</time>
      </trkpt>
      <trkpt lat="42.281826999999936" lon="-1.271305999999999">
        <ele>447.467</ele>
        <time>2022-06-18T09:45:51Z</time>
      </trkpt>
      <trkpt lat="42.281843999999936" lon="-1.271151999999999">
        <ele>447.265</ele>
        <time>2022-06-18T09:45:56Z</time>
      </trkpt>
      <trkpt lat="42.28193799999993" lon="-1.270978999999999">
        <ele>446.870</ele>
        <time>2022-06-18T09:46:03Z</time>
      </trkpt>
      <trkpt lat="42.28199499999993" lon="-1.270945999999999">
        <ele>446.850</ele>
        <time>2022-06-18T09:46:06Z</time>
      </trkpt>
      <trkpt lat="42.28201599999993" lon="-1.270954999999999">
        <ele>446.848</ele>
        <time>2022-06-18T09:46:07Z</time>
      </trkpt>
      <trkpt lat="42.28210599999993" lon="-1.2709639999999989">
        <ele>447.061</ele>
        <time>2022-06-18T09:46:12Z</time>
      </trkpt>
      <trkpt lat="42.28211199999993" lon="-1.270965999999999">
        <ele>447.417</ele>
        <time>2022-06-18T09:46:15Z</time>
      </trkpt>
      <trkpt lat="42.282345999999926" lon="-1.271210999999999">
        <ele>449.209</ele>
        <time>2022-06-18T10:06:32Z</time>
      </trkpt>
      <trkpt lat="42.28237899999993" lon="-1.271296999999999">
        <ele>449.295</ele>
        <time>2022-06-18T10:06:35Z</time>
      </trkpt>
      <trkpt lat="42.28239499999993" lon="-1.271348999999999">
        <ele>449.484</ele>
        <time>2022-06-18T10:06:36Z</time>
      </trkpt>
      <trkpt lat="42.28255199999993" lon="-1.271564999999999">
        <ele>449.849</ele>
        <time>2022-06-18T10:06:42Z</time>
      </trkpt>
      <trkpt lat="42.28258299999993" lon="-1.2715929999999989">
        <ele>449.891</ele>
        <time>2022-06-18T10:06:43Z</time>
      </trkpt>
      <trkpt lat="42.282792999999934" lon="-1.271866999999999">
        <ele>450.243</ele>
        <time>2022-06-18T10:06:50Z</time>
      </trkpt>
      <trkpt lat="42.282873999999936" lon="-1.271927999999999">
        <ele>450.257</ele>
        <time>2022-06-18T10:06:52Z</time>
      </trkpt>
      <trkpt lat="42.283037999999934" lon="-1.272030999999999">
        <ele>450.215</ele>
        <time>2022-06-18T10:06:56Z</time>
      </trkpt>
      <trkpt lat="42.283335999999935" lon="-1.272212999999999">
        <ele>450.030</ele>
        <time>2022-06-18T10:07:03Z</time>
      </trkpt>
      <trkpt lat="42.283422999999935" lon="-1.272255999999999">
        <ele>450.040</ele>
        <time>2022-06-18T10:07:05Z</time>
      </trkpt>
      <trkpt lat="42.283560999999935" lon="-1.272314999999999">
        <ele>449.836</ele>
        <time>2022-06-18T10:07:08Z</time>
      </trkpt>
      <trkpt lat="42.283867999999934" lon="-1.272507999999999">
        <ele>449.617</ele>
        <time>2022-06-18T10:07:15Z</time>
      </trkpt>
      <trkpt lat="42.28404699999994" lon="-1.2726259999999991">
        <ele>449.818</ele>
        <time>2022-06-18T10:07:19Z</time>
      </trkpt>
      <trkpt lat="42.28409699999994" lon="-1.2726469999999992">
        <ele>449.809</ele>
        <time>2022-06-18T10:07:20Z</time>
      </trkpt>
      <trkpt lat="42.28414799999994" lon="-1.2726689999999992">
        <ele>449.824</ele>
        <time>2022-06-18T10:07:21Z</time>
      </trkpt>
      <trkpt lat="42.28419599999994" lon="-1.2726949999999992">
        <ele>450.023</ele>
        <time>2022-06-18T10:07:22Z</time>
      </trkpt>
      <trkpt lat="42.284556999999936" lon="-1.2728769999999991">
        <ele>450.478</ele>
        <time>2022-06-18T10:07:29Z</time>
      </trkpt>
      <trkpt lat="42.28494099999993" lon="-1.2730869999999992">
        <ele>450.450</ele>
        <time>2022-06-18T10:07:37Z</time>
      </trkpt>
      <trkpt lat="42.285339999999934" lon="-1.2733069999999993">
        <ele>450.622</ele>
        <time>2022-06-18T10:07:45Z</time>
      </trkpt>
      <trkpt lat="42.28579099999993" lon="-1.2735609999999993">
        <ele>450.666</ele>
        <time>2022-06-18T10:07:54Z</time>
      </trkpt>
      <trkpt lat="42.286324999999934" lon="-1.2738779999999992">
        <ele>450.674</ele>
        <time>2022-06-18T10:08:04Z</time>
      </trkpt>
      <trkpt lat="42.286709999999935" lon="-1.2740959999999992">
        <ele>450.649</ele>
        <time>2022-06-18T10:08:11Z</time>
      </trkpt>
      <trkpt lat="42.28693399999994" lon="-1.2742219999999993">
        <ele>450.899</ele>
        <time>2022-06-18T10:08:15Z</time>
      </trkpt>
      <trkpt lat="42.28742999999994" lon="-1.2744949999999993">
        <ele>450.883</ele>
        <time>2022-06-18T10:08:24Z</time>
      </trkpt>
      <trkpt lat="42.287976999999934" lon="-1.2748109999999993">
        <ele>450.825</ele>
        <time>2022-06-18T10:08:34Z</time>
      </trkpt>
      <trkpt lat="42.28803099999993" lon="-1.2748399999999993">
        <ele>450.817</ele>
        <time>2022-06-18T10:08:35Z</time>
      </trkpt>
      <trkpt lat="42.28808299999993" lon="-1.2748719999999993">
        <ele>450.809</ele>
        <time>2022-06-18T10:08:36Z</time>
      </trkpt>
      <trkpt lat="42.28862799999993" lon="-1.2751709999999994">
        <ele>451.049</ele>
        <time>2022-06-18T10:08:46Z</time>
      </trkpt>
      <trkpt lat="42.288682999999935" lon="-1.2752039999999993">
        <ele>451.038</ele>
        <time>2022-06-18T10:08:47Z</time>
      </trkpt>
      <trkpt lat="42.28873799999994" lon="-1.2752379999999994">
        <ele>451.023</ele>
        <time>2022-06-18T10:08:48Z</time>
      </trkpt>
      <trkpt lat="42.28913099999994" lon="-1.2754689999999995">
        <ele>451.065</ele>
        <time>2022-06-18T10:08:55Z</time>
      </trkpt>
      <trkpt lat="42.28964499999994" lon="-1.2757609999999995">
        <ele>451.227</ele>
        <time>2022-06-18T10:09:04Z</time>
      </trkpt>
      <trkpt lat="42.28981499999994" lon="-1.2758539999999994">
        <ele>451.241</ele>
        <time>2022-06-18T10:09:07Z</time>
      </trkpt>
      <trkpt lat="42.29022699999994" lon="-1.2760939999999994">
        <ele>451.859</ele>
        <time>2022-06-18T10:09:15Z</time>
      </trkpt>
      <trkpt lat="42.29027499999994" lon="-1.2761239999999994">
        <ele>451.864</ele>
        <time>2022-06-18T10:09:16Z</time>
      </trkpt>
      <trkpt lat="42.29055599999994" lon="-1.2762929999999995">
        <ele>453.074</ele>
        <time>2022-06-18T10:09:22Z</time>
      </trkpt>
      <trkpt lat="42.29060299999994" lon="-1.2763149999999994">
        <ele>453.025</ele>
        <time>2022-06-18T10:09:23Z</time>
      </trkpt>
      <trkpt lat="42.29074199999994" lon="-1.2763859999999994">
        <ele>453.426</ele>
        <time>2022-06-18T10:09:26Z</time>
      </trkpt>
      <trkpt lat="42.290922999999935" lon="-1.2764849999999994">
        <ele>454.008</ele>
        <time>2022-06-18T10:09:30Z</time>
      </trkpt>
      <trkpt lat="42.29096899999993" lon="-1.2765079999999995">
        <ele>454.209</ele>
        <time>2022-06-18T10:09:31Z</time>
      </trkpt>
      <trkpt lat="42.29132699999993" lon="-1.2767249999999994">
        <ele>455.023</ele>
        <time>2022-06-18T10:09:39Z</time>
      </trkpt>
      <trkpt lat="42.29145699999993" lon="-1.2768019999999995">
        <ele>455.462</ele>
        <time>2022-06-18T10:09:42Z</time>
      </trkpt>
      <trkpt lat="42.29181299999993" lon="-1.2770349999999995">
        <ele>456.017</ele>
        <time>2022-06-18T10:09:50Z</time>
      </trkpt>
      <trkpt lat="42.29199999999992" lon="-1.2771729999999994">
        <ele>456.439</ele>
        <time>2022-06-18T10:09:54Z</time>
      </trkpt>
      <trkpt lat="42.29239999999992" lon="-1.2775099999999995">
        <ele>456.661</ele>
        <time>2022-06-18T10:10:02Z</time>
      </trkpt>
      <trkpt lat="42.292682999999926" lon="-1.2777559999999994">
        <ele>456.465</ele>
        <time>2022-06-18T10:10:07Z</time>
      </trkpt>
      <trkpt lat="42.292747999999925" lon="-1.2778089999999995">
        <ele>456.273</ele>
        <time>2022-06-18T10:10:08Z</time>
      </trkpt>
      <trkpt lat="42.29321899999992" lon="-1.2782279999999995">
        <ele>455.018</ele>
        <time>2022-06-18T10:10:15Z</time>
      </trkpt>
      <trkpt lat="42.293290999999925" lon="-1.2782899999999995">
        <ele>454.828</ele>
        <time>2022-06-18T10:10:16Z</time>
      </trkpt>
      <trkpt lat="42.293437999999924" lon="-1.2784169999999995">
        <ele>454.086</ele>
        <time>2022-06-18T10:10:18Z</time>
      </trkpt>
      <trkpt lat="42.293870999999925" lon="-1.2787899999999994">
        <ele>452.860</ele>
        <time>2022-06-18T10:10:24Z</time>
      </trkpt>
      <trkpt lat="42.294360999999924" lon="-1.2792169999999994">
        <ele>452.226</ele>
        <time>2022-06-18T10:10:31Z</time>
      </trkpt>
      <trkpt lat="42.29450299999992" lon="-1.2793329999999994">
        <ele>452.009</ele>
        <time>2022-06-18T10:10:33Z</time>
      </trkpt>
      <trkpt lat="42.29498499999992" lon="-1.2797459999999994">
        <ele>451.859</ele>
        <time>2022-06-18T10:10:40Z</time>
      </trkpt>
      <trkpt lat="42.29505299999992" lon="-1.2798039999999993">
        <ele>451.828</ele>
        <time>2022-06-18T10:10:41Z</time>
      </trkpt>
      <trkpt lat="42.29556799999992" lon="-1.2802469999999992">
        <ele>451.873</ele>
        <time>2022-06-18T10:10:49Z</time>
      </trkpt>
      <trkpt lat="42.29562899999992" lon="-1.2803029999999993">
        <ele>451.855</ele>
        <time>2022-06-18T10:10:50Z</time>
      </trkpt>
      <trkpt lat="42.29609599999992" lon="-1.2807079999999993">
        <ele>452.687</ele>
        <time>2022-06-18T10:10:58Z</time>
      </trkpt>
      <trkpt lat="42.296209999999924" lon="-1.2808039999999994">
        <ele>452.681</ele>
        <time>2022-06-18T10:11:00Z</time>
      </trkpt>
      <trkpt lat="42.29669499999992" lon="-1.2812209999999993">
        <ele>453.449</ele>
        <time>2022-06-18T10:11:09Z</time>
      </trkpt>
      <trkpt lat="42.296797999999924" lon="-1.2813169999999994">
        <ele>453.644</ele>
        <time>2022-06-18T10:11:11Z</time>
      </trkpt>
      <trkpt lat="42.29685199999992" lon="-1.2813609999999993">
        <ele>453.864</ele>
        <time>2022-06-18T10:11:12Z</time>
      </trkpt>
      <trkpt lat="42.29729199999992" lon="-1.2817389999999993">
        <ele>455.046</ele>
        <time>2022-06-18T10:11:20Z</time>
      </trkpt>
      <trkpt lat="42.29746399999992" lon="-1.2818899999999993">
        <ele>455.288</ele>
        <time>2022-06-18T10:11:23Z</time>
      </trkpt>
      <trkpt lat="42.29796799999992" lon="-1.2823279999999992">
        <ele>455.016</ele>
        <time>2022-06-18T10:11:32Z</time>
      </trkpt>
      <trkpt lat="42.29818399999992" lon="-1.2825199999999992">
        <ele>455.009</ele>
        <time>2022-06-18T10:11:36Z</time>
      </trkpt>
      <trkpt lat="42.29864499999992" lon="-1.2829299999999992">
        <ele>455.415</ele>
        <time>2022-06-18T10:11:45Z</time>
      </trkpt>
      <trkpt lat="42.29869399999992" lon="-1.2829719999999993">
        <ele>455.434</ele>
        <time>2022-06-18T10:11:46Z</time>
      </trkpt>
      <trkpt lat="42.298880999999916" lon="-1.2831329999999994">
        <ele>456.429</ele>
        <time>2022-06-18T10:11:50Z</time>
      </trkpt>
      <trkpt lat="42.299286999999914" lon="-1.2834729999999994">
        <ele>456.861</ele>
        <time>2022-06-18T10:11:58Z</time>
      </trkpt>
      <trkpt lat="42.29969299999991" lon="-1.2838239999999994">
        <ele>457.453</ele>
        <time>2022-06-18T10:12:07Z</time>
      </trkpt>
      <trkpt lat="42.29973299999991" lon="-1.2838649999999994">
        <ele>457.637</ele>
        <time>2022-06-18T10:12:08Z</time>
      </trkpt>
      <trkpt lat="42.29987899999991" lon="-1.2840189999999994">
        <ele>458.035</ele>
        <time>2022-06-18T10:12:12Z</time>
      </trkpt>
      <trkpt lat="42.30009099999991" lon="-1.2841899999999993">
        <ele>458.610</ele>
        <time>2022-06-18T10:12:17Z</time>
      </trkpt>
      <trkpt lat="42.30013499999991" lon="-1.2842239999999994">
        <ele>458.890</ele>
        <time>2022-06-18T10:12:18Z</time>
      </trkpt>
      <trkpt lat="42.30055999999991" lon="-1.2845679999999993">
        <ele>459.838</ele>
        <time>2022-06-18T10:12:28Z</time>
      </trkpt>
      <trkpt lat="42.300690999999915" lon="-1.2846699999999993">
        <ele>460.070</ele>
        <time>2022-06-18T10:12:31Z</time>
      </trkpt>
      <trkpt lat="42.30113099999991" lon="-1.2850329999999992">
        <ele>460.617</ele>
        <time>2022-06-18T10:12:41Z</time>
      </trkpt>
      <trkpt lat="42.30117599999991" lon="-1.2850709999999992">
        <ele>460.809</ele>
        <time>2022-06-18T10:12:42Z</time>
      </trkpt>
      <trkpt lat="42.30164599999991" lon="-1.285449999999999">
        <ele>461.434</ele>
        <time>2022-06-18T10:12:52Z</time>
      </trkpt>
      <trkpt lat="42.301692999999915" lon="-1.2854899999999991">
        <ele>461.423</ele>
        <time>2022-06-18T10:12:53Z</time>
      </trkpt>
      <trkpt lat="42.30202699999992" lon="-1.285768999999999">
        <ele>461.628</ele>
        <time>2022-06-18T10:13:00Z</time>
      </trkpt>
      <trkpt lat="42.302170999999916" lon="-1.285882999999999">
        <ele>461.680</ele>
        <time>2022-06-18T10:13:03Z</time>
      </trkpt>
      <trkpt lat="42.30258599999991" lon="-1.286225999999999">
        <ele>461.812</ele>
        <time>2022-06-18T10:13:12Z</time>
      </trkpt>
      <trkpt lat="42.302716999999916" lon="-1.286324999999999">
        <ele>462.026</ele>
        <time>2022-06-18T10:13:15Z</time>
      </trkpt>
      <trkpt lat="42.30284899999992" lon="-1.286433999999999">
        <ele>462.034</ele>
        <time>2022-06-18T10:13:18Z</time>
      </trkpt>
      <trkpt lat="42.303029999999914" lon="-1.286583999999999">
        <ele>462.829</ele>
        <time>2022-06-18T10:13:22Z</time>
      </trkpt>
      <trkpt lat="42.303426999999914" lon="-1.2869229999999992">
        <ele>464.089</ele>
        <time>2022-06-18T10:13:31Z</time>
      </trkpt>
      <trkpt lat="42.30350699999991" lon="-1.2869919999999992">
        <ele>464.425</ele>
        <time>2022-06-18T10:13:33Z</time>
      </trkpt>
      <trkpt lat="42.30370899999991" lon="-1.2871659999999991">
        <ele>465.226</ele>
        <time>2022-06-18T10:13:38Z</time>
      </trkpt>
      <trkpt lat="42.30379099999991" lon="-1.2872359999999992">
        <ele>465.608</ele>
        <time>2022-06-18T10:13:40Z</time>
      </trkpt>
      <trkpt lat="42.303910999999914" lon="-1.287333999999999">
        <ele>466.209</ele>
        <time>2022-06-18T10:13:43Z</time>
      </trkpt>
      <trkpt lat="42.30395399999991" lon="-1.287363999999999">
        <ele>466.263</ele>
        <time>2022-06-18T10:13:44Z</time>
      </trkpt>
      <trkpt lat="42.30434299999991" lon="-1.287680999999999">
        <ele>467.012</ele>
        <time>2022-06-18T10:13:54Z</time>
      </trkpt>
      <trkpt lat="42.30446399999991" lon="-1.287774999999999">
        <ele>467.427</ele>
        <time>2022-06-18T10:13:57Z</time>
      </trkpt>
      <trkpt lat="42.30473499999991" lon="-1.288000999999999">
        <ele>468.079</ele>
        <time>2022-06-18T10:14:04Z</time>
      </trkpt>
      <trkpt lat="42.30488999999991" lon="-1.288119999999999">
        <ele>468.471</ele>
        <time>2022-06-18T10:14:08Z</time>
      </trkpt>
      <trkpt lat="42.30508899999991" lon="-1.288286999999999">
        <ele>469.035</ele>
        <time>2022-06-18T10:14:13Z</time>
      </trkpt>
      <trkpt lat="42.30519099999991" lon="-1.288375999999999">
        <ele>469.693</ele>
        <time>2022-06-18T10:14:16Z</time>
      </trkpt>
      <trkpt lat="42.30537999999991" lon="-1.2885209999999991">
        <ele>470.428</ele>
        <time>2022-06-18T10:14:21Z</time>
      </trkpt>
      <trkpt lat="42.305416999999906" lon="-1.288545999999999">
        <ele>470.628</ele>
        <time>2022-06-18T10:14:22Z</time>
      </trkpt>
      <trkpt lat="42.305453999999905" lon="-1.288570999999999">
        <ele>470.872</ele>
        <time>2022-06-18T10:14:23Z</time>
      </trkpt>
      <trkpt lat="42.30565299999991" lon="-1.288679999999999">
        <ele>471.813</ele>
        <time>2022-06-18T10:14:28Z</time>
      </trkpt>
      <trkpt lat="42.30581899999991" lon="-1.288756999999999">
        <ele>472.214</ele>
        <time>2022-06-18T10:14:32Z</time>
      </trkpt>
      <trkpt lat="42.30620699999991" lon="-1.288927999999999">
        <ele>473.009</ele>
        <time>2022-06-18T10:14:41Z</time>
      </trkpt>
      <trkpt lat="42.30640299999991" lon="-1.2890179999999989">
        <ele>473.478</ele>
        <time>2022-06-18T10:14:45Z</time>
      </trkpt>
      <trkpt lat="42.30668799999991" lon="-1.2891449999999989">
        <ele>473.437</ele>
        <time>2022-06-18T10:14:50Z</time>
      </trkpt>
      <trkpt lat="42.30711599999991" lon="-1.2893449999999989">
        <ele>473.052</ele>
        <time>2022-06-18T10:14:56Z</time>
      </trkpt>
      <trkpt lat="42.30763099999991" lon="-1.2895309999999989">
        <ele>472.034</ele>
        <time>2022-06-18T10:15:02Z</time>
      </trkpt>
      <trkpt lat="42.308067999999906" lon="-1.2895849999999989">
        <ele>470.646</ele>
        <time>2022-06-18T10:15:06Z</time>
      </trkpt>
      <trkpt lat="42.30820199999991" lon="-1.289580999999999">
        <ele>469.880</ele>
        <time>2022-06-18T10:15:07Z</time>
      </trkpt>
      <trkpt lat="42.30829199999991" lon="-1.2895659999999989">
        <ele>469.478</ele>
        <time>2022-06-18T10:15:08Z</time>
      </trkpt>
      <trkpt lat="42.30851899999991" lon="-1.289499999999999">
        <ele>468.883</ele>
        <time>2022-06-18T10:15:10Z</time>
      </trkpt>
      <trkpt lat="42.308632999999915" lon="-1.2894579999999989">
        <ele>468.233</ele>
        <time>2022-06-18T10:15:11Z</time>
      </trkpt>
      <trkpt lat="42.30885399999992" lon="-1.289356999999999">
        <ele>466.881</ele>
        <time>2022-06-18T10:15:13Z</time>
      </trkpt>
      <trkpt lat="42.30907399999992" lon="-1.289251999999999">
        <ele>466.261</ele>
        <time>2022-06-18T10:15:15Z</time>
      </trkpt>
      <trkpt lat="42.309184999999914" lon="-1.2891989999999989">
        <ele>465.417</ele>
        <time>2022-06-18T10:15:16Z</time>
      </trkpt>
      <trkpt lat="42.309293999999916" lon="-1.2891429999999988">
        <ele>464.209</ele>
        <time>2022-06-18T10:15:17Z</time>
      </trkpt>
      <trkpt lat="42.30942199999991" lon="-1.2890749999999989">
        <ele>463.019</ele>
        <time>2022-06-18T10:15:18Z</time>
      </trkpt>
      <trkpt lat="42.309524999999915" lon="-1.2890099999999989">
        <ele>461.468</ele>
        <time>2022-06-18T10:15:19Z</time>
      </trkpt>
      <trkpt lat="42.30960299999992" lon="-1.2889429999999988">
        <ele>460.263</ele>
        <time>2022-06-18T10:15:20Z</time>
      </trkpt>
      <trkpt lat="42.30970999999992" lon="-1.2888219999999988">
        <ele>459.475</ele>
        <time>2022-06-18T10:15:21Z</time>
      </trkpt>
      <trkpt lat="42.30977199999992" lon="-1.288720999999999">
        <ele>459.047</ele>
        <time>2022-06-18T10:15:22Z</time>
      </trkpt>
      <trkpt lat="42.309837999999914" lon="-1.2885809999999989">
        <ele>458.831</ele>
        <time>2022-06-18T10:15:23Z</time>
      </trkpt>
      <trkpt lat="42.31002399999991" lon="-1.2879689999999988">
        <ele>458.089</ele>
        <time>2022-06-18T10:15:27Z</time>
      </trkpt>
      <trkpt lat="42.310067999999916" lon="-1.287821999999999">
        <ele>457.624</ele>
        <time>2022-06-18T10:15:28Z</time>
      </trkpt>
      <trkpt lat="42.310152999999914" lon="-1.287539999999999">
        <ele>456.664</ele>
        <time>2022-06-18T10:15:30Z</time>
      </trkpt>
      <trkpt lat="42.310191999999915" lon="-1.287402999999999">
        <ele>455.641</ele>
        <time>2022-06-18T10:15:31Z</time>
      </trkpt>
      <trkpt lat="42.310231999999914" lon="-1.287270999999999">
        <ele>453.281</ele>
        <time>2022-06-18T10:15:32Z</time>
      </trkpt>
      <trkpt lat="42.31027299999992" lon="-1.287143999999999">
        <ele>451.409</ele>
        <time>2022-06-18T10:15:33Z</time>
      </trkpt>
      <trkpt lat="42.310315999999915" lon="-1.287019999999999">
        <ele>450.209</ele>
        <time>2022-06-18T10:15:34Z</time>
      </trkpt>
      <trkpt lat="42.31036599999992" lon="-1.286899999999999">
        <ele>449.465</ele>
        <time>2022-06-18T10:15:35Z</time>
      </trkpt>
      <trkpt lat="42.310428999999914" lon="-1.286792999999999">
        <ele>449.084</ele>
        <time>2022-06-18T10:15:36Z</time>
      </trkpt>
      <trkpt lat="42.31050599999991" lon="-1.286705999999999">
        <ele>448.689</ele>
        <time>2022-06-18T10:15:37Z</time>
      </trkpt>
      <trkpt lat="42.31068899999991" lon="-1.286579999999999">
        <ele>448.291</ele>
        <time>2022-06-18T10:15:39Z</time>
      </trkpt>
      <trkpt lat="42.31079799999991" lon="-1.2865459999999989">
        <ele>447.823</ele>
        <time>2022-06-18T10:15:40Z</time>
      </trkpt>
      <trkpt lat="42.31091199999992" lon="-1.2865279999999988">
        <ele>447.887</ele>
        <time>2022-06-18T10:15:41Z</time>
      </trkpt>
      <trkpt lat="42.31113699999992" lon="-1.2865689999999987">
        <ele>447.645</ele>
        <time>2022-06-18T10:15:43Z</time>
      </trkpt>
      <trkpt lat="42.31155499999992" lon="-1.2867459999999988">
        <ele>447.280</ele>
        <time>2022-06-18T10:15:47Z</time>
      </trkpt>
      <trkpt lat="42.31208199999992" lon="-1.2869709999999988">
        <ele>446.630</ele>
        <time>2022-06-18T10:15:52Z</time>
      </trkpt>
      <trkpt lat="42.312296999999916" lon="-1.2870929999999987">
        <ele>445.851</ele>
        <time>2022-06-18T10:15:54Z</time>
      </trkpt>
      <trkpt lat="42.31236699999992" lon="-1.2871499999999987">
        <ele>445.401</ele>
        <time>2022-06-18T10:15:55Z</time>
      </trkpt>
      <trkpt lat="42.312541999999915" lon="-1.2873029999999988">
        <ele>444.011</ele>
        <time>2022-06-18T10:15:57Z</time>
      </trkpt>
      <trkpt lat="42.31270999999992" lon="-1.2874759999999987">
        <ele>443.209</ele>
        <time>2022-06-18T10:15:59Z</time>
      </trkpt>
      <trkpt lat="42.312797999999916" lon="-1.2875699999999988">
        <ele>443.066</ele>
        <time>2022-06-18T10:16:00Z</time>
      </trkpt>
      <trkpt lat="42.31325499999991" lon="-1.2880329999999989">
        <ele>442.035</ele>
        <time>2022-06-18T10:16:05Z</time>
      </trkpt>
      <trkpt lat="42.31335999999991" lon="-1.2881089999999988">
        <ele>441.630</ele>
        <time>2022-06-18T10:16:06Z</time>
      </trkpt>
      <trkpt lat="42.31359099999991" lon="-1.2882199999999988">
        <ele>441.252</ele>
        <time>2022-06-18T10:16:08Z</time>
      </trkpt>
      <trkpt lat="42.31371399999991" lon="-1.2882529999999988">
        <ele>440.864</ele>
        <time>2022-06-18T10:16:09Z</time>
      </trkpt>
      <trkpt lat="42.31383599999991" lon="-1.2882699999999987">
        <ele>440.628</ele>
        <time>2022-06-18T10:16:10Z</time>
      </trkpt>
      <trkpt lat="42.31395899999991" lon="-1.2882659999999988">
        <ele>440.416</ele>
        <time>2022-06-18T10:16:11Z</time>
      </trkpt>
      <trkpt lat="42.31407499999991" lon="-1.2882639999999987">
        <ele>439.431</ele>
        <time>2022-06-18T10:16:12Z</time>
      </trkpt>
      <trkpt lat="42.31419099999991" lon="-1.2882609999999988">
        <ele>439.081</ele>
        <time>2022-06-18T10:16:13Z</time>
      </trkpt>
      <trkpt lat="42.31441699999991" lon="-1.2882529999999988">
        <ele>437.884</ele>
        <time>2022-06-18T10:16:15Z</time>
      </trkpt>
      <trkpt lat="42.314526999999906" lon="-1.2882489999999989">
        <ele>436.207</ele>
        <time>2022-06-18T10:16:16Z</time>
      </trkpt>
      <trkpt lat="42.31463299999991" lon="-1.288245999999999">
        <ele>434.817</ele>
        <time>2022-06-18T10:16:17Z</time>
      </trkpt>
      <trkpt lat="42.31484099999991" lon="-1.2882389999999988">
        <ele>433.609</ele>
        <time>2022-06-18T10:16:19Z</time>
      </trkpt>
      <trkpt lat="42.31544499999991" lon="-1.2882219999999989">
        <ele>433.029</ele>
        <time>2022-06-18T10:16:25Z</time>
      </trkpt>
      <trkpt lat="42.31572699999991" lon="-1.288215999999999">
        <ele>433.068</ele>
        <time>2022-06-18T10:16:28Z</time>
      </trkpt>
      <trkpt lat="42.31590799999991" lon="-1.288217999999999">
        <ele>433.073</ele>
        <time>2022-06-18T10:16:30Z</time>
      </trkpt>
      <trkpt lat="42.31643599999991" lon="-1.288205999999999">
        <ele>433.465</ele>
        <time>2022-06-18T10:16:36Z</time>
      </trkpt>
      <trkpt lat="42.31699599999991" lon="-1.288194999999999">
        <ele>434.627</ele>
        <time>2022-06-18T10:16:43Z</time>
      </trkpt>
      <trkpt lat="42.31705699999991" lon="-1.2881939999999992">
        <ele>434.611</ele>
        <time>2022-06-18T10:16:44Z</time>
      </trkpt>
      <trkpt lat="42.31759799999991" lon="-1.2881799999999992">
        <ele>435.229</ele>
        <time>2022-06-18T10:16:51Z</time>
      </trkpt>
      <trkpt lat="42.31772399999991" lon="-1.2881799999999992">
        <ele>435.224</ele>
        <time>2022-06-18T10:16:53Z</time>
      </trkpt>
      <trkpt lat="42.318339999999914" lon="-1.2881709999999993">
        <ele>435.694</ele>
        <time>2022-06-18T10:17:02Z</time>
      </trkpt>
      <trkpt lat="42.31872299999991" lon="-1.2881669999999994">
        <ele>436.845</ele>
        <time>2022-06-18T10:17:08Z</time>
      </trkpt>
      <trkpt lat="42.318960999999916" lon="-1.2881699999999994">
        <ele>437.247</ele>
        <time>2022-06-18T10:17:12Z</time>
      </trkpt>
      <trkpt lat="42.31954799999992" lon="-1.2881569999999993">
        <ele>437.811</ele>
        <time>2022-06-18T10:17:22Z</time>
      </trkpt>
      <trkpt lat="42.319613999999916" lon="-1.2881579999999992">
        <ele>437.809</ele>
        <time>2022-06-18T10:17:23Z</time>
      </trkpt>
      <trkpt lat="42.31992899999992" lon="-1.2881579999999992">
        <ele>438.835</ele>
        <time>2022-06-18T10:17:29Z</time>
      </trkpt>
      <trkpt lat="42.31997899999992" lon="-1.2881609999999992">
        <ele>439.054</ele>
        <time>2022-06-18T10:17:30Z</time>
      </trkpt>
      <trkpt lat="42.32027199999992" lon="-1.2881989999999992">
        <ele>440.059</ele>
        <time>2022-06-18T10:17:36Z</time>
      </trkpt>
      <trkpt lat="42.32030799999992" lon="-1.2882099999999992">
        <ele>440.021</ele>
        <time>2022-06-18T10:17:37Z</time>
      </trkpt>
      <trkpt lat="42.32052999999992" lon="-1.2883119999999992">
        <ele>441.253</ele>
        <time>2022-06-18T10:17:42Z</time>
      </trkpt>
      <trkpt lat="42.32061599999992" lon="-1.2883639999999992">
        <ele>441.667</ele>
        <time>2022-06-18T10:17:44Z</time>
      </trkpt>
      <trkpt lat="42.320749999999926" lon="-1.2884509999999991">
        <ele>442.455</ele>
        <time>2022-06-18T10:17:47Z</time>
      </trkpt>
      <trkpt lat="42.32096799999992" lon="-1.288567999999999">
        <ele>443.080</ele>
        <time>2022-06-18T10:17:52Z</time>
      </trkpt>
      <trkpt lat="42.321048999999924" lon="-1.288597999999999">
        <ele>443.480</ele>
        <time>2022-06-18T10:17:54Z</time>
      </trkpt>
      <trkpt lat="42.32133999999992" lon="-1.288646999999999">
        <ele>444.222</ele>
        <time>2022-06-18T10:18:00Z</time>
      </trkpt>
      <trkpt lat="42.32170999999992" lon="-1.288634999999999">
        <ele>444.462</ele>
        <time>2022-06-18T10:18:08Z</time>
      </trkpt>
      <trkpt lat="42.32175699999992" lon="-1.2886309999999992">
        <ele>444.608</ele>
        <time>2022-06-18T10:18:09Z</time>
      </trkpt>
      <trkpt lat="42.32230699999992" lon="-1.2885919999999993">
        <ele>445.409</ele>
        <time>2022-06-18T10:18:21Z</time>
      </trkpt>
      <trkpt lat="42.32235199999992" lon="-1.2885899999999992">
        <ele>445.663</ele>
        <time>2022-06-18T10:18:22Z</time>
      </trkpt>
      <trkpt lat="42.32271499999992" lon="-1.2885669999999991">
        <ele>446.662</ele>
        <time>2022-06-18T10:18:30Z</time>
      </trkpt>
      <trkpt lat="42.32275999999992" lon="-1.2885659999999992">
        <ele>446.857</ele>
        <time>2022-06-18T10:18:31Z</time>
      </trkpt>
      <trkpt lat="42.32317599999992" lon="-1.2885399999999991">
        <ele>447.889</ele>
        <time>2022-06-18T10:18:40Z</time>
      </trkpt>
      <trkpt lat="42.323218999999916" lon="-1.2885369999999992">
        <ele>447.841</ele>
        <time>2022-06-18T10:18:41Z</time>
      </trkpt>
      <trkpt lat="42.323658999999914" lon="-1.2885129999999991">
        <ele>448.645</ele>
        <time>2022-06-18T10:18:51Z</time>
      </trkpt>
      <trkpt lat="42.323700999999915" lon="-1.2885129999999991">
        <ele>448.833</ele>
        <time>2022-06-18T10:18:52Z</time>
      </trkpt>
      <trkpt lat="42.32403099999991" lon="-1.288572999999999">
        <ele>450.248</ele>
        <time>2022-06-18T10:19:00Z</time>
      </trkpt>
      <trkpt lat="42.324077999999915" lon="-1.2885959999999992">
        <ele>450.618</ele>
        <time>2022-06-18T10:19:01Z</time>
      </trkpt>
      <trkpt lat="42.32419399999991" lon="-1.288653999999999">
        <ele>451.434</ele>
        <time>2022-06-18T10:19:04Z</time>
      </trkpt>
      <trkpt lat="42.32434399999991" lon="-1.2887449999999991">
        <ele>452.055</ele>
        <time>2022-06-18T10:19:08Z</time>
      </trkpt>
      <trkpt lat="42.32442099999991" lon="-1.2887989999999991">
        <ele>452.410</ele>
        <time>2022-06-18T10:19:10Z</time>
      </trkpt>
      <trkpt lat="42.32460999999991" lon="-1.2889499999999992">
        <ele>453.609</ele>
        <time>2022-06-18T10:19:15Z</time>
      </trkpt>
      <trkpt lat="42.32474999999991" lon="-1.2890599999999992">
        <ele>454.074</ele>
        <time>2022-06-18T10:19:18Z</time>
      </trkpt>
      <trkpt lat="42.32502199999991" lon="-1.2892949999999992">
        <ele>454.093</ele>
        <time>2022-06-18T10:19:23Z</time>
      </trkpt>
      <trkpt lat="42.32541399999991" lon="-1.2896149999999993">
        <ele>454.078</ele>
        <time>2022-06-18T10:19:29Z</time>
      </trkpt>
      <trkpt lat="42.32573599999991" lon="-1.2898769999999993">
        <ele>452.670</ele>
        <time>2022-06-18T10:19:33Z</time>
      </trkpt>
      <trkpt lat="42.325983999999906" lon="-1.2900829999999992">
        <ele>451.222</ele>
        <time>2022-06-18T10:19:36Z</time>
      </trkpt>
      <trkpt lat="42.326442999999905" lon="-1.2904219999999993">
        <ele>449.856</ele>
        <time>2022-06-18T10:19:41Z</time>
      </trkpt>
      <trkpt lat="42.32654599999991" lon="-1.2904699999999993">
        <ele>449.434</ele>
        <time>2022-06-18T10:19:42Z</time>
      </trkpt>
      <trkpt lat="42.32663099999991" lon="-1.2904999999999993">
        <ele>448.649</ele>
        <time>2022-06-18T10:19:43Z</time>
      </trkpt>
      <trkpt lat="42.326977999999905" lon="-1.2905739999999992">
        <ele>446.869</ele>
        <time>2022-06-18T10:19:46Z</time>
      </trkpt>
      <trkpt lat="42.327301999999904" lon="-1.2906249999999992">
        <ele>445.647</ele>
        <time>2022-06-18T10:19:49Z</time>
      </trkpt>
      <trkpt lat="42.3276269999999" lon="-1.2906739999999992">
        <ele>444.229</ele>
        <time>2022-06-18T10:19:52Z</time>
      </trkpt>
      <trkpt lat="42.3277359999999" lon="-1.2906879999999992">
        <ele>443.221</ele>
        <time>2022-06-18T10:19:53Z</time>
      </trkpt>
      <trkpt lat="42.327844999999904" lon="-1.2907009999999992">
        <ele>442.209</ele>
        <time>2022-06-18T10:19:54Z</time>
      </trkpt>
      <trkpt lat="42.327953999999906" lon="-1.2907149999999992">
        <ele>441.665</ele>
        <time>2022-06-18T10:19:55Z</time>
      </trkpt>
      <trkpt lat="42.328381999999905" lon="-1.2907769999999992">
        <ele>440.254</ele>
        <time>2022-06-18T10:19:59Z</time>
      </trkpt>
      <trkpt lat="42.3286979999999" lon="-1.2908229999999992">
        <ele>439.039</ele>
        <time>2022-06-18T10:20:02Z</time>
      </trkpt>
      <trkpt lat="42.32888799999991" lon="-1.2908489999999992">
        <ele>438.241</ele>
        <time>2022-06-18T10:20:04Z</time>
      </trkpt>
      <trkpt lat="42.32910099999991" lon="-1.2908789999999992">
        <ele>437.873</ele>
        <time>2022-06-18T10:20:06Z</time>
      </trkpt>
      <trkpt lat="42.32972799999991" lon="-1.2909789999999992">
        <ele>436.887</ele>
        <time>2022-06-18T10:20:12Z</time>
      </trkpt>
      <trkpt lat="42.32994999999991" lon="-1.2910159999999993">
        <ele>436.485</ele>
        <time>2022-06-18T10:20:14Z</time>
      </trkpt>
      <trkpt lat="42.33002999999991" lon="-1.2910329999999992">
        <ele>436.440</ele>
        <time>2022-06-18T10:20:15Z</time>
      </trkpt>
      <trkpt lat="42.33034999999991" lon="-1.2910789999999992">
        <ele>435.680</ele>
        <time>2022-06-18T10:20:18Z</time>
      </trkpt>
      <trkpt lat="42.33052899999991" lon="-1.2911069999999991">
        <ele>434.621</ele>
        <time>2022-06-18T10:20:20Z</time>
      </trkpt>
      <trkpt lat="42.330626999999915" lon="-1.2911249999999992">
        <ele>434.241</ele>
        <time>2022-06-18T10:20:21Z</time>
      </trkpt>
      <trkpt lat="42.331116999999914" lon="-1.2912769999999991">
        <ele>433.805</ele>
        <time>2022-06-18T10:20:26Z</time>
      </trkpt>
      <trkpt lat="42.33138199999991" lon="-1.2914189999999992">
        <ele>433.609</ele>
        <time>2022-06-18T10:20:29Z</time>
      </trkpt>
      <trkpt lat="42.33171799999991" lon="-1.2916349999999992">
        <ele>433.263</ele>
        <time>2022-06-18T10:20:33Z</time>
      </trkpt>
      <trkpt lat="42.33226399999991" lon="-1.2920099999999992">
        <ele>433.232</ele>
        <time>2022-06-18T10:20:40Z</time>
      </trkpt>
      <trkpt lat="42.33241099999991" lon="-1.2921109999999991">
        <ele>433.477</ele>
        <time>2022-06-18T10:20:42Z</time>
      </trkpt>
      <trkpt lat="42.332963999999905" lon="-1.292486999999999">
        <ele>434.479</ele>
        <time>2022-06-18T10:20:50Z</time>
      </trkpt>
      <trkpt lat="42.3330969999999" lon="-1.292573999999999">
        <ele>434.621</ele>
        <time>2022-06-18T10:20:52Z</time>
      </trkpt>
      <trkpt lat="42.333354999999905" lon="-1.292757999999999">
        <ele>435.265</ele>
        <time>2022-06-18T10:20:56Z</time>
      </trkpt>
      <trkpt lat="42.333605999999904" lon="-1.292933999999999">
        <ele>435.693</ele>
        <time>2022-06-18T10:21:00Z</time>
      </trkpt>
      <trkpt lat="42.334029999999906" lon="-1.293227999999999">
        <ele>436.228</ele>
        <time>2022-06-18T10:21:07Z</time>
      </trkpt>
      <trkpt lat="42.334170999999905" lon="-1.2933179999999989">
        <ele>436.678</ele>
        <time>2022-06-18T10:21:09Z</time>
      </trkpt>
      <trkpt lat="42.334694999999904" lon="-1.2936749999999988">
        <ele>437.282</ele>
        <time>2022-06-18T10:21:17Z</time>
      </trkpt>
      <trkpt lat="42.3347629999999" lon="-1.2937199999999989">
        <ele>437.243</ele>
        <time>2022-06-18T10:21:18Z</time>
      </trkpt>
      <trkpt lat="42.3352949999999" lon="-1.294058999999999">
        <ele>437.217</ele>
        <time>2022-06-18T10:21:26Z</time>
      </trkpt>
      <trkpt lat="42.335845999999904" lon="-1.294306999999999">
        <ele>436.809</ele>
        <time>2022-06-18T10:21:33Z</time>
      </trkpt>
      <trkpt lat="42.3359229999999" lon="-1.294339999999999">
        <ele>437.049</ele>
        <time>2022-06-18T10:21:34Z</time>
      </trkpt>
      <trkpt lat="42.3364749999999" lon="-1.294563999999999">
        <ele>436.088</ele>
        <time>2022-06-18T10:21:41Z</time>
      </trkpt>
      <trkpt lat="42.336636999999904" lon="-1.294628999999999">
        <ele>435.843</ele>
        <time>2022-06-18T10:21:43Z</time>
      </trkpt>
      <trkpt lat="42.3367019999999" lon="-1.294654999999999">
        <ele>435.675</ele>
        <time>2022-06-18T10:21:44Z</time>
      </trkpt>
      <trkpt lat="42.3371079999999" lon="-1.294815999999999">
        <ele>434.487</ele>
        <time>2022-06-18T10:21:49Z</time>
      </trkpt>
      <trkpt lat="42.3375109999999" lon="-1.294974999999999">
        <ele>433.451</ele>
        <time>2022-06-18T10:21:54Z</time>
      </trkpt>
      <trkpt lat="42.3376789999999" lon="-1.2950499999999991">
        <ele>433.469</ele>
        <time>2022-06-18T10:21:56Z</time>
      </trkpt>
      <trkpt lat="42.3382759999999" lon="-1.2952979999999992">
        <ele>433.424</ele>
        <time>2022-06-18T10:22:04Z</time>
      </trkpt>
      <trkpt lat="42.338834999999904" lon="-1.2955239999999992">
        <ele>434.014</ele>
        <time>2022-06-18T10:22:12Z</time>
      </trkpt>
      <trkpt lat="42.33939099999991" lon="-1.2958319999999992">
        <ele>434.229</ele>
        <time>2022-06-18T10:22:20Z</time>
      </trkpt>
      <trkpt lat="42.33952799999991" lon="-1.2959219999999991">
        <ele>434.400</ele>
        <time>2022-06-18T10:22:22Z</time>
      </trkpt>
      <trkpt lat="42.33999899999991" lon="-1.296256999999999">
        <ele>434.420</ele>
        <time>2022-06-18T10:22:29Z</time>
      </trkpt>
      <trkpt lat="42.34020699999991" lon="-1.296402999999999">
        <ele>434.409</ele>
        <time>2022-06-18T10:22:32Z</time>
      </trkpt>
      <trkpt lat="42.340685999999906" lon="-1.296745999999999">
        <ele>434.223</ele>
        <time>2022-06-18T10:22:39Z</time>
      </trkpt>
      <trkpt lat="42.3409599999999" lon="-1.2969369999999991">
        <ele>434.082</ele>
        <time>2022-06-18T10:22:43Z</time>
      </trkpt>
      <trkpt lat="42.3414579999999" lon="-1.2971879999999991">
        <ele>434.067</ele>
        <time>2022-06-18T10:22:50Z</time>
      </trkpt>
      <trkpt lat="42.3419729999999" lon="-1.2972819999999992">
        <ele>434.029</ele>
        <time>2022-06-18T10:22:57Z</time>
      </trkpt>
      <trkpt lat="42.342357999999905" lon="-1.297325999999999">
        <ele>433.231</ele>
        <time>2022-06-18T10:23:02Z</time>
      </trkpt>
      <trkpt lat="42.342695999999904" lon="-1.297364999999999">
        <ele>432.645</ele>
        <time>2022-06-18T10:23:06Z</time>
      </trkpt>
      <trkpt lat="42.342923999999904" lon="-1.297393999999999">
        <ele>432.213</ele>
        <time>2022-06-18T10:23:09Z</time>
      </trkpt>
      <trkpt lat="42.343384999999905" lon="-1.297444999999999">
        <ele>431.468</ele>
        <time>2022-06-18T10:23:15Z</time>
      </trkpt>
      <trkpt lat="42.3439769999999" lon="-1.297518999999999">
        <ele>431.478</ele>
        <time>2022-06-18T10:23:23Z</time>
      </trkpt>
      <trkpt lat="42.3440499999999" lon="-1.2975309999999989">
        <ele>431.682</ele>
        <time>2022-06-18T10:23:24Z</time>
      </trkpt>
      <trkpt lat="42.3445549999999" lon="-1.2975909999999988">
        <ele>432.243</ele>
        <time>2022-06-18T10:23:31Z</time>
      </trkpt>
      <trkpt lat="42.3451119999999" lon="-1.297654999999999">
        <ele>433.017</ele>
        <time>2022-06-18T10:23:39Z</time>
      </trkpt>
      <trkpt lat="42.3452479999999" lon="-1.297677999999999">
        <ele>433.009</ele>
        <time>2022-06-18T10:23:41Z</time>
      </trkpt>
      <trkpt lat="42.3457819999999" lon="-1.297731999999999">
        <ele>433.089</ele>
        <time>2022-06-18T10:23:49Z</time>
      </trkpt>
      <trkpt lat="42.346289999999904" lon="-1.297733999999999">
        <ele>433.478</ele>
        <time>2022-06-18T10:23:57Z</time>
      </trkpt>
      <trkpt lat="42.346466999999905" lon="-1.2976899999999991">
        <ele>433.653</ele>
        <time>2022-06-18T10:24:00Z</time>
      </trkpt>
      <trkpt lat="42.3466849999999" lon="-1.297593999999999">
        <ele>434.065</ele>
        <time>2022-06-18T10:24:04Z</time>
      </trkpt>
      <trkpt lat="42.3471349999999" lon="-1.297352999999999">
        <ele>434.647</ele>
        <time>2022-06-18T10:24:13Z</time>
      </trkpt>
      <trkpt lat="42.3471839999999" lon="-1.2973249999999992">
        <ele>434.641</ele>
        <time>2022-06-18T10:24:14Z</time>
      </trkpt>
      <trkpt lat="42.3475109999999" lon="-1.2971409999999992">
        <ele>435.829</ele>
        <time>2022-06-18T10:24:21Z</time>
      </trkpt>
      <trkpt lat="42.347604999999895" lon="-1.2970899999999992">
        <ele>435.884</ele>
        <time>2022-06-18T10:24:23Z</time>
      </trkpt>
      <trkpt lat="42.34778899999989" lon="-1.2969959999999991">
        <ele>436.844</ele>
        <time>2022-06-18T10:24:27Z</time>
      </trkpt>
      <trkpt lat="42.348012999999895" lon="-1.2968639999999991">
        <ele>437.083</ele>
        <time>2022-06-18T10:24:32Z</time>
      </trkpt>
      <trkpt lat="42.34841899999989" lon="-1.2966529999999992">
        <ele>437.825</ele>
        <time>2022-06-18T10:24:41Z</time>
      </trkpt>
      <trkpt lat="42.34846399999989" lon="-1.2966329999999993">
        <ele>438.017</ele>
        <time>2022-06-18T10:24:42Z</time>
      </trkpt>
      <trkpt lat="42.348904999999895" lon="-1.2964019999999992">
        <ele>439.009</ele>
        <time>2022-06-18T10:24:52Z</time>
      </trkpt>
      <trkpt lat="42.349383999999894" lon="-1.296135999999999">
        <ele>440.449</ele>
        <time>2022-06-18T10:25:03Z</time>
      </trkpt>
      <trkpt lat="42.34983799999989" lon="-1.295889999999999">
        <ele>441.438</ele>
        <time>2022-06-18T10:25:13Z</time>
      </trkpt>
      <trkpt lat="42.34988699999989" lon="-1.295866999999999">
        <ele>441.633</ele>
        <time>2022-06-18T10:25:14Z</time>
      </trkpt>
      <trkpt lat="42.350281999999886" lon="-1.295651999999999">
        <ele>442.255</ele>
        <time>2022-06-18T10:25:22Z</time>
      </trkpt>
      <trkpt lat="42.350763999999884" lon="-1.295389999999999">
        <ele>442.287</ele>
        <time>2022-06-18T10:25:31Z</time>
      </trkpt>
      <trkpt lat="42.35128099999989" lon="-1.295108999999999">
        <ele>442.061</ele>
        <time>2022-06-18T10:25:40Z</time>
      </trkpt>
      <trkpt lat="42.35133999999989" lon="-1.295073999999999">
        <ele>442.049</ele>
        <time>2022-06-18T10:25:41Z</time>
      </trkpt>
      <trkpt lat="42.351877999999886" lon="-1.294786999999999">
        <ele>440.624</ele>
        <time>2022-06-18T10:25:50Z</time>
      </trkpt>
      <trkpt lat="42.351919999999886" lon="-1.294761999999999">
        <ele>440.474</ele>
        <time>2022-06-18T10:25:51Z</time>
      </trkpt>
      <trkpt lat="42.35234099999989" lon="-1.294508999999999">
        <ele>440.076</ele>
        <time>2022-06-18T10:25:59Z</time>
      </trkpt>
      <trkpt lat="42.35258799999989" lon="-1.294273999999999">
        <ele>441.090</ele>
        <time>2022-06-18T10:26:05Z</time>
      </trkpt>
      <trkpt lat="42.35268099999989" lon="-1.294144999999999">
        <ele>441.619</ele>
        <time>2022-06-18T10:26:08Z</time>
      </trkpt>
      <trkpt lat="42.35279799999989" lon="-1.293956999999999">
        <ele>442.609</ele>
        <time>2022-06-18T10:26:12Z</time>
      </trkpt>
      <trkpt lat="42.35304099999989" lon="-1.293494999999999">
        <ele>443.848</ele>
        <time>2022-06-18T10:26:22Z</time>
      </trkpt>
      <trkpt lat="42.35312599999989" lon="-1.293323999999999">
        <ele>444.847</ele>
        <time>2022-06-18T10:26:26Z</time>
      </trkpt>
      <trkpt lat="42.35320499999989" lon="-1.293177999999999">
        <ele>445.442</ele>
        <time>2022-06-18T10:26:30Z</time>
      </trkpt>
      <trkpt lat="42.35327999999989" lon="-1.293020999999999">
        <ele>446.074</ele>
        <time>2022-06-18T10:26:34Z</time>
      </trkpt>
      <trkpt lat="42.35337699999989" lon="-1.2928339999999992">
        <ele>447.266</ele>
        <time>2022-06-18T10:26:39Z</time>
      </trkpt>
      <trkpt lat="42.35339599999989" lon="-1.292799999999999">
        <ele>447.880</ele>
        <time>2022-06-18T10:26:40Z</time>
      </trkpt>
      <trkpt lat="42.35343799999989" lon="-1.292724999999999">
        <ele>448.478</ele>
        <time>2022-06-18T10:26:42Z</time>
      </trkpt>
      <trkpt lat="42.35355699999989" lon="-1.292548999999999">
        <ele>448.873</ele>
        <time>2022-06-18T10:26:48Z</time>
      </trkpt>
      <trkpt lat="42.353709999999886" lon="-1.2923809999999991">
        <ele>449.453</ele>
        <time>2022-06-18T10:26:54Z</time>
      </trkpt>
      <trkpt lat="42.35379699999989" lon="-1.292308999999999">
        <ele>449.676</ele>
        <time>2022-06-18T10:26:57Z</time>
      </trkpt>
      <trkpt lat="42.35395599999988" lon="-1.2922269999999991">
        <ele>450.690</ele>
        <time>2022-06-18T10:27:02Z</time>
      </trkpt>
      <trkpt lat="42.35401799999988" lon="-1.2921989999999992">
        <ele>451.619</ele>
        <time>2022-06-18T10:27:04Z</time>
      </trkpt>
      <trkpt lat="42.35411399999988" lon="-1.2921689999999992">
        <ele>452.009</ele>
        <time>2022-06-18T10:27:07Z</time>
      </trkpt>
      <trkpt lat="42.35428099999988" lon="-1.2921239999999992">
        <ele>452.858</ele>
        <time>2022-06-18T10:27:12Z</time>
      </trkpt>
      <trkpt lat="42.354377999999876" lon="-1.292105999999999">
        <ele>453.857</ele>
        <time>2022-06-18T10:27:15Z</time>
      </trkpt>
      <trkpt lat="42.354541999999874" lon="-1.2920669999999992">
        <ele>455.062</ele>
        <time>2022-06-18T10:27:20Z</time>
      </trkpt>
      <trkpt lat="42.35464199999988" lon="-1.2920499999999993">
        <ele>455.674</ele>
        <time>2022-06-18T10:27:23Z</time>
      </trkpt>
      <trkpt lat="42.35481099999988" lon="-1.2920249999999993">
        <ele>456.256</ele>
        <time>2022-06-18T10:27:28Z</time>
      </trkpt>
      <trkpt lat="42.354988999999875" lon="-1.2920059999999993">
        <ele>456.640</ele>
        <time>2022-06-18T10:27:33Z</time>
      </trkpt>
      <trkpt lat="42.35518699999987" lon="-1.2919779999999994">
        <ele>457.288</ele>
        <time>2022-06-18T10:27:38Z</time>
      </trkpt>
      <trkpt lat="42.355332999999874" lon="-1.2919489999999993">
        <ele>457.493</ele>
        <time>2022-06-18T10:27:41Z</time>
      </trkpt>
      <trkpt lat="42.35563299999988" lon="-1.2918899999999993">
        <ele>457.663</ele>
        <time>2022-06-18T10:27:47Z</time>
      </trkpt>
      <trkpt lat="42.35568899999988" lon="-1.2918789999999993">
        <ele>457.687</ele>
        <time>2022-06-18T10:27:48Z</time>
      </trkpt>
      <trkpt lat="42.35579899999988" lon="-1.2918489999999994">
        <ele>457.442</ele>
        <time>2022-06-18T10:27:50Z</time>
      </trkpt>
      <trkpt lat="42.35608299999988" lon="-1.2917849999999993">
        <ele>457.226</ele>
        <time>2022-06-18T10:27:55Z</time>
      </trkpt>
      <trkpt lat="42.356480999999874" lon="-1.2916659999999993">
        <ele>456.809</ele>
        <time>2022-06-18T10:28:01Z</time>
      </trkpt>
      <trkpt lat="42.35668199999987" lon="-1.2916149999999993">
        <ele>456.289</ele>
        <time>2022-06-18T10:28:04Z</time>
      </trkpt>
      <trkpt lat="42.35696599999987" lon="-1.2915459999999992">
        <ele>455.658</ele>
        <time>2022-06-18T10:28:08Z</time>
      </trkpt>
      <trkpt lat="42.357172999999875" lon="-1.2914889999999992">
        <ele>455.293</ele>
        <time>2022-06-18T10:28:11Z</time>
      </trkpt>
      <trkpt lat="42.35730599999987" lon="-1.2914579999999993">
        <ele>454.235</ele>
        <time>2022-06-18T10:28:13Z</time>
      </trkpt>
      <trkpt lat="42.357501999999876" lon="-1.2913969999999992">
        <ele>453.637</ele>
        <time>2022-06-18T10:28:16Z</time>
      </trkpt>
      <trkpt lat="42.35803299999988" lon="-1.2912689999999993">
        <ele>453.661</ele>
        <time>2022-06-18T10:28:25Z</time>
      </trkpt>
      <trkpt lat="42.35847199999988" lon="-1.2911439999999994">
        <ele>454.469</ele>
        <time>2022-06-18T10:28:33Z</time>
      </trkpt>
      <trkpt lat="42.35869299999988" lon="-1.2910799999999993">
        <ele>455.424</ele>
        <time>2022-06-18T10:28:37Z</time>
      </trkpt>
      <trkpt lat="42.35892899999988" lon="-1.2910199999999994">
        <ele>455.674</ele>
        <time>2022-06-18T10:28:41Z</time>
      </trkpt>
      <trkpt lat="42.35939699999988" lon="-1.2909019999999993">
        <ele>455.682</ele>
        <time>2022-06-18T10:28:50Z</time>
      </trkpt>
      <trkpt lat="42.35982099999988" lon="-1.2907839999999993">
        <ele>456.043</ele>
        <time>2022-06-18T10:28:59Z</time>
      </trkpt>
      <trkpt lat="42.35986299999988" lon="-1.2907759999999993">
        <ele>456.417</ele>
        <time>2022-06-18T10:29:00Z</time>
      </trkpt>
      <trkpt lat="42.360132999999884" lon="-1.2906949999999993">
        <ele>457.609</ele>
        <time>2022-06-18T10:29:07Z</time>
      </trkpt>
      <trkpt lat="42.36033399999988" lon="-1.2905739999999992">
        <ele>458.479</ele>
        <time>2022-06-18T10:29:13Z</time>
      </trkpt>
      <trkpt lat="42.36036399999988" lon="-1.2905509999999991">
        <ele>458.848</ele>
        <time>2022-06-18T10:29:14Z</time>
      </trkpt>
      <trkpt lat="42.36047399999988" lon="-1.290435999999999">
        <ele>460.093</ele>
        <time>2022-06-18T10:29:18Z</time>
      </trkpt>
      <trkpt lat="42.360542999999886" lon="-1.2903429999999991">
        <ele>460.435</ele>
        <time>2022-06-18T10:29:21Z</time>
      </trkpt>
      <trkpt lat="42.360708999999886" lon="-1.290116999999999">
        <ele>461.077</ele>
        <time>2022-06-18T10:29:28Z</time>
      </trkpt>
      <trkpt lat="42.36073299999989" lon="-1.290084999999999">
        <ele>461.411</ele>
        <time>2022-06-18T10:29:29Z</time>
      </trkpt>
      <trkpt lat="42.36079599999989" lon="-1.289982999999999">
        <ele>462.219</ele>
        <time>2022-06-18T10:29:32Z</time>
      </trkpt>
      <trkpt lat="42.36090799999989" lon="-1.289826999999999">
        <ele>462.484</ele>
        <time>2022-06-18T10:29:37Z</time>
      </trkpt>
      <trkpt lat="42.361018999999885" lon="-1.2896739999999989">
        <ele>463.424</ele>
        <time>2022-06-18T10:29:42Z</time>
      </trkpt>
      <trkpt lat="42.361111999999885" lon="-1.289543999999999">
        <ele>464.487</ele>
        <time>2022-06-18T10:29:46Z</time>
      </trkpt>
      <trkpt lat="42.361238999999884" lon="-1.2893639999999988">
        <ele>465.642</ele>
        <time>2022-06-18T10:29:52Z</time>
      </trkpt>
      <trkpt lat="42.36132799999989" lon="-1.289246999999999">
        <ele>466.226</ele>
        <time>2022-06-18T10:29:56Z</time>
      </trkpt>
      <trkpt lat="42.361423999999886" lon="-1.289134999999999">
        <ele>466.609</ele>
        <time>2022-06-18T10:30:00Z</time>
      </trkpt>
      <trkpt lat="42.36154699999989" lon="-1.2890149999999991">
        <ele>467.869</ele>
        <time>2022-06-18T10:30:05Z</time>
      </trkpt>
      <trkpt lat="42.36165699999989" lon="-1.2889339999999991">
        <ele>469.058</ele>
        <time>2022-06-18T10:30:09Z</time>
      </trkpt>
      <trkpt lat="42.361750999999884" lon="-1.288891999999999">
        <ele>469.473</ele>
        <time>2022-06-18T10:30:12Z</time>
      </trkpt>
      <trkpt lat="42.36181199999989" lon="-1.288856999999999">
        <ele>470.255</ele>
        <time>2022-06-18T10:30:14Z</time>
      </trkpt>
      <trkpt lat="42.361998999999884" lon="-1.288785999999999">
        <ele>471.447</ele>
        <time>2022-06-18T10:30:20Z</time>
      </trkpt>
      <trkpt lat="42.36202799999988" lon="-1.288775999999999">
        <ele>471.441</ele>
        <time>2022-06-18T10:30:21Z</time>
      </trkpt>
      <trkpt lat="42.36222199999988" lon="-1.288725999999999">
        <ele>472.499</ele>
        <time>2022-06-18T10:30:27Z</time>
      </trkpt>
      <trkpt lat="42.36229499999988" lon="-1.288711999999999">
        <ele>472.864</ele>
        <time>2022-06-18T10:30:29Z</time>
      </trkpt>
      <trkpt lat="42.36254799999988" lon="-1.288645999999999">
        <ele>473.034</ele>
        <time>2022-06-18T10:30:35Z</time>
      </trkpt>
      <trkpt lat="42.36292899999988" lon="-1.288549999999999">
        <ele>472.839</ele>
        <time>2022-06-18T10:30:43Z</time>
      </trkpt>
      <trkpt lat="42.36297699999988" lon="-1.288536999999999">
        <ele>472.801</ele>
        <time>2022-06-18T10:30:44Z</time>
      </trkpt>
      <trkpt lat="42.36342899999988" lon="-1.288419999999999">
        <ele>472.821</ele>
        <time>2022-06-18T10:30:53Z</time>
      </trkpt>
      <trkpt lat="42.36400899999988" lon="-1.288270999999999">
        <ele>472.609</ele>
        <time>2022-06-18T10:31:04Z</time>
      </trkpt>
      <trkpt lat="42.36459099999988" lon="-1.2881269999999991">
        <ele>472.884</ele>
        <time>2022-06-18T10:31:15Z</time>
      </trkpt>
      <trkpt lat="42.364685999999885" lon="-1.2880969999999992">
        <ele>473.013</ele>
        <time>2022-06-18T10:31:17Z</time>
      </trkpt>
      <trkpt lat="42.36485399999989" lon="-1.2880619999999992">
        <ele>473.628</ele>
        <time>2022-06-18T10:31:20Z</time>
      </trkpt>
      <trkpt lat="42.36526099999989" lon="-1.2879479999999992">
        <ele>474.250</ele>
        <time>2022-06-18T10:31:28Z</time>
      </trkpt>
      <trkpt lat="42.36570799999989" lon="-1.2878359999999993">
        <ele>474.432</ele>
        <time>2022-06-18T10:31:37Z</time>
      </trkpt>
      <trkpt lat="42.36575899999989" lon="-1.2878249999999993">
        <ele>474.676</ele>
        <time>2022-06-18T10:31:38Z</time>
      </trkpt>
      <trkpt lat="42.36615799999989" lon="-1.2877109999999994">
        <ele>475.684</ele>
        <time>2022-06-18T10:31:46Z</time>
      </trkpt>
      <trkpt lat="42.366207999999894" lon="-1.2876969999999994">
        <ele>475.639</ele>
        <time>2022-06-18T10:31:47Z</time>
      </trkpt>
      <trkpt lat="42.3666879999999" lon="-1.2875749999999995">
        <ele>476.459</ele>
        <time>2022-06-18T10:31:57Z</time>
      </trkpt>
      <trkpt lat="42.366919999999894" lon="-1.2875089999999996">
        <ele>476.692</ele>
        <time>2022-06-18T10:32:02Z</time>
      </trkpt>
      <trkpt lat="42.36709799999989" lon="-1.2874189999999996">
        <ele>476.873</ele>
        <time>2022-06-18T10:32:06Z</time>
      </trkpt>
      <trkpt lat="42.36731199999989" lon="-1.2872559999999997">
        <ele>477.620</ele>
        <time>2022-06-18T10:32:11Z</time>
      </trkpt>
      <trkpt lat="42.36739399999989" lon="-1.2871869999999996">
        <ele>477.809</ele>
        <time>2022-06-18T10:32:13Z</time>
      </trkpt>
      <trkpt lat="42.367707999999894" lon="-1.2868889999999997">
        <ele>478.070</ele>
        <time>2022-06-18T10:32:21Z</time>
      </trkpt>
      <trkpt lat="42.368103999999896" lon="-1.2864999999999998">
        <ele>478.279</ele>
        <time>2022-06-18T10:32:32Z</time>
      </trkpt>
      <trkpt lat="42.36825999999989" lon="-1.2863449999999998">
        <ele>478.844</ele>
        <time>2022-06-18T10:32:37Z</time>
      </trkpt>
      <trkpt lat="42.36835099999989" lon="-1.286255">
        <ele>479.456</ele>
        <time>2022-06-18T10:32:40Z</time>
      </trkpt>
      <trkpt lat="42.36841199999989" lon="-1.286196">
        <ele>480.038</ele>
        <time>2022-06-18T10:32:42Z</time>
      </trkpt>
      <trkpt lat="42.36858699999989" lon="-1.286025">
        <ele>481.062</ele>
        <time>2022-06-18T10:32:48Z</time>
      </trkpt>
      <trkpt lat="42.36867199999989" lon="-1.285944">
        <ele>482.280</ele>
        <time>2022-06-18T10:32:51Z</time>
      </trkpt>
      <trkpt lat="42.36872999999989" lon="-1.285887">
        <ele>482.685</ele>
        <time>2022-06-18T10:32:53Z</time>
      </trkpt>
      <trkpt lat="42.368844999999894" lon="-1.285777">
        <ele>483.485</ele>
        <time>2022-06-18T10:32:57Z</time>
      </trkpt>
      <trkpt lat="42.369021999999894" lon="-1.285603">
        <ele>484.615</ele>
        <time>2022-06-18T10:33:03Z</time>
      </trkpt>
      <trkpt lat="42.3692629999999" lon="-1.285355">
        <ele>485.065</ele>
        <time>2022-06-18T10:33:10Z</time>
      </trkpt>
      <trkpt lat="42.3695299999999" lon="-1.285076">
        <ele>485.211</ele>
        <time>2022-06-18T10:33:17Z</time>
      </trkpt>
      <trkpt lat="42.3699289999999" lon="-1.284656">
        <ele>485.209</ele>
        <time>2022-06-18T10:33:27Z</time>
      </trkpt>
      <trkpt lat="42.3703789999999" lon="-1.284185">
        <ele>485.472</ele>
        <time>2022-06-18T10:33:39Z</time>
      </trkpt>
      <trkpt lat="42.3707629999999" lon="-1.2837839999999998">
        <ele>485.841</ele>
        <time>2022-06-18T10:33:50Z</time>
      </trkpt>
      <trkpt lat="42.370830999999896" lon="-1.2837139999999998">
        <ele>486.096</ele>
        <time>2022-06-18T10:33:52Z</time>
      </trkpt>
      <trkpt lat="42.371224999999896" lon="-1.2833069999999998">
        <ele>486.698</ele>
        <time>2022-06-18T10:34:03Z</time>
      </trkpt>
      <trkpt lat="42.3714999999999" lon="-1.2830249999999999">
        <ele>486.820</ele>
        <time>2022-06-18T10:34:11Z</time>
      </trkpt>
      <trkpt lat="42.3715329999999" lon="-1.2829879999999998">
        <ele>487.054</ele>
        <time>2022-06-18T10:34:12Z</time>
      </trkpt>
      <trkpt lat="42.3718039999999" lon="-1.2827069999999998">
        <ele>487.272</ele>
        <time>2022-06-18T10:34:20Z</time>
      </trkpt>
      <trkpt lat="42.3720099999999" lon="-1.2824879999999999">
        <ele>488.047</ele>
        <time>2022-06-18T10:34:26Z</time>
      </trkpt>
      <trkpt lat="42.372114999999894" lon="-1.2823829999999998">
        <ele>488.667</ele>
        <time>2022-06-18T10:34:29Z</time>
      </trkpt>
      <trkpt lat="42.37222299999989" lon="-1.2822729999999998">
        <ele>489.029</ele>
        <time>2022-06-18T10:34:32Z</time>
      </trkpt>
      <trkpt lat="42.37244899999989" lon="-1.2820549999999997">
        <ele>489.600</ele>
        <time>2022-06-18T10:34:38Z</time>
      </trkpt>
      <trkpt lat="42.372804999999886" lon="-1.2817949999999998">
        <ele>490.020</ele>
        <time>2022-06-18T10:34:47Z</time>
      </trkpt>
      <trkpt lat="42.373074999999886" lon="-1.2815979999999998">
        <ele>490.009</ele>
        <time>2022-06-18T10:34:52Z</time>
      </trkpt>
      <trkpt lat="42.37349099999989" lon="-1.2812949999999999">
        <ele>487.693</ele>
        <time>2022-06-18T10:34:59Z</time>
      </trkpt>
      <trkpt lat="42.373561999999886" lon="-1.281229">
        <ele>487.012</ele>
        <time>2022-06-18T10:35:00Z</time>
      </trkpt>
      <trkpt lat="42.373615999999885" lon="-1.2811649999999999">
        <ele>486.477</ele>
        <time>2022-06-18T10:35:01Z</time>
      </trkpt>
      <trkpt lat="42.37366499999988" lon="-1.281092">
        <ele>485.689</ele>
        <time>2022-06-18T10:35:02Z</time>
      </trkpt>
      <trkpt lat="42.37370199999988" lon="-1.281011">
        <ele>485.231</ele>
        <time>2022-06-18T10:35:03Z</time>
      </trkpt>
      <trkpt lat="42.37372999999988" lon="-1.2809229999999998">
        <ele>484.615</ele>
        <time>2022-06-18T10:35:04Z</time>
      </trkpt>
      <trkpt lat="42.37376599999988" lon="-1.2807339999999998">
        <ele>484.063</ele>
        <time>2022-06-18T10:35:06Z</time>
      </trkpt>
      <trkpt lat="42.37377499999988" lon="-1.2806389999999999">
        <ele>482.868</ele>
        <time>2022-06-18T10:35:07Z</time>
      </trkpt>
      <trkpt lat="42.37379999999988" lon="-1.2803509999999998">
        <ele>481.688</ele>
        <time>2022-06-18T10:35:10Z</time>
      </trkpt>
      <trkpt lat="42.373823999999885" lon="-1.2800729999999998">
        <ele>480.461</ele>
        <time>2022-06-18T10:35:13Z</time>
      </trkpt>
      <trkpt lat="42.37382899999989" lon="-1.2799839999999998">
        <ele>480.021</ele>
        <time>2022-06-18T10:35:14Z</time>
      </trkpt>
      <trkpt lat="42.373846999999884" lon="-1.2797349999999998">
        <ele>479.213</ele>
        <time>2022-06-18T10:35:17Z</time>
      </trkpt>
      <trkpt lat="42.37385899999988" lon="-1.2795809999999999">
        <ele>478.409</ele>
        <time>2022-06-18T10:35:19Z</time>
      </trkpt>
      <trkpt lat="42.37386599999988" lon="-1.2795059999999998">
        <ele>478.017</ele>
        <time>2022-06-18T10:35:20Z</time>
      </trkpt>
      <trkpt lat="42.37391399999988" lon="-1.2789959999999998">
        <ele>477.656</ele>
        <time>2022-06-18T10:35:27Z</time>
      </trkpt>
      <trkpt lat="42.37391899999988" lon="-1.2789249999999999">
        <ele>477.661</ele>
        <time>2022-06-18T10:35:28Z</time>
      </trkpt>
      <trkpt lat="42.37394499999988" lon="-1.278581">
        <ele>478.053</ele>
        <time>2022-06-18T10:35:33Z</time>
      </trkpt>
      <trkpt lat="42.37399499999988" lon="-1.2780019999999999">
        <ele>478.615</ele>
        <time>2022-06-18T10:35:42Z</time>
      </trkpt>
      <trkpt lat="42.37401999999988" lon="-1.2775809999999999">
        <ele>478.619</ele>
        <time>2022-06-18T10:35:49Z</time>
      </trkpt>
      <trkpt lat="42.37403999999988" lon="-1.277278">
        <ele>478.647</ele>
        <time>2022-06-18T10:35:54Z</time>
      </trkpt>
      <trkpt lat="42.37404299999988" lon="-1.27722">
        <ele>478.852</ele>
        <time>2022-06-18T10:35:55Z</time>
      </trkpt>
      <trkpt lat="42.37406199999988" lon="-1.276991">
        <ele>479.082</ele>
        <time>2022-06-18T10:35:59Z</time>
      </trkpt>
      <trkpt lat="42.37406999999988" lon="-1.276878">
        <ele>479.081</ele>
        <time>2022-06-18T10:36:01Z</time>
      </trkpt>
      <trkpt lat="42.37410499999988" lon="-1.276567">
        <ele>479.661</ele>
        <time>2022-06-18T10:36:07Z</time>
      </trkpt>
      <trkpt lat="42.37411499999988" lon="-1.27647">
        <ele>480.417</ele>
        <time>2022-06-18T10:36:09Z</time>
      </trkpt>
      <trkpt lat="42.37412899999988" lon="-1.276246">
        <ele>481.609</ele>
        <time>2022-06-18T10:36:14Z</time>
      </trkpt>
      <trkpt lat="42.374158999999885" lon="-1.275986">
        <ele>482.649</ele>
        <time>2022-06-18T10:36:20Z</time>
      </trkpt>
      <trkpt lat="42.37417699999988" lon="-1.2759010000000002">
        <ele>483.688</ele>
        <time>2022-06-18T10:36:22Z</time>
      </trkpt>
      <trkpt lat="42.37418499999988" lon="-1.2758570000000002">
        <ele>484.213</ele>
        <time>2022-06-18T10:36:23Z</time>
      </trkpt>
      <trkpt lat="42.37418899999988" lon="-1.2758140000000002">
        <ele>484.825</ele>
        <time>2022-06-18T10:36:24Z</time>
      </trkpt>
      <trkpt lat="42.37421099999988" lon="-1.2756460000000003">
        <ele>485.887</ele>
        <time>2022-06-18T10:36:28Z</time>
      </trkpt>
      <trkpt lat="42.374226999999884" lon="-1.2755610000000004">
        <ele>486.031</ele>
        <time>2022-06-18T10:36:30Z</time>
      </trkpt>
      <trkpt lat="42.37427899999988" lon="-1.2752330000000003">
        <ele>486.689</ele>
        <time>2022-06-18T10:36:37Z</time>
      </trkpt>
      <trkpt lat="42.37431299999988" lon="-1.2750970000000004">
        <ele>487.094</ele>
        <time>2022-06-18T10:36:40Z</time>
      </trkpt>
      <trkpt lat="42.37436799999988" lon="-1.2749180000000004">
        <ele>487.424</ele>
        <time>2022-06-18T10:36:44Z</time>
      </trkpt>
      <trkpt lat="42.37448699999988" lon="-1.2745810000000004">
        <ele>487.629</ele>
        <time>2022-06-18T10:36:51Z</time>
      </trkpt>
      <trkpt lat="42.37463999999988" lon="-1.2742680000000004">
        <ele>487.800</ele>
        <time>2022-06-18T10:36:59Z</time>
      </trkpt>
      <trkpt lat="42.37468099999988" lon="-1.2741880000000003">
        <ele>487.820</ele>
        <time>2022-06-18T10:37:01Z</time>
      </trkpt>
      <trkpt lat="42.37471599999988" lon="-1.2741080000000002">
        <ele>488.209</ele>
        <time>2022-06-18T10:37:03Z</time>
      </trkpt>
      <trkpt lat="42.37481499999988" lon="-1.2739130000000003">
        <ele>488.633</ele>
        <time>2022-06-18T10:37:08Z</time>
      </trkpt>
      <trkpt lat="42.37491899999988" lon="-1.2737350000000003">
        <ele>488.672</ele>
        <time>2022-06-18T10:37:13Z</time>
      </trkpt>
      <trkpt lat="42.37509499999988" lon="-1.2735050000000003">
        <ele>488.837</ele>
        <time>2022-06-18T10:37:20Z</time>
      </trkpt>
      <trkpt lat="42.375152999999884" lon="-1.2734470000000004">
        <ele>489.289</ele>
        <time>2022-06-18T10:37:22Z</time>
      </trkpt>
      <trkpt lat="42.37524099999988" lon="-1.2733570000000005">
        <ele>489.221</ele>
        <time>2022-06-18T10:37:25Z</time>
      </trkpt>
      <trkpt lat="42.37534299999988" lon="-1.2732650000000005">
        <ele>489.475</ele>
        <time>2022-06-18T10:37:30Z</time>
      </trkpt>
      <trkpt lat="42.37538699999988" lon="-1.2732240000000006">
        <ele>489.653</ele>
        <time>2022-06-18T10:37:32Z</time>
      </trkpt>
      <trkpt lat="42.37547699999988" lon="-1.2731670000000006">
        <ele>489.668</ele>
        <time>2022-06-18T10:37:35Z</time>
      </trkpt>
      <trkpt lat="42.37552499999988" lon="-1.2731310000000007">
        <ele>490.268</ele>
        <time>2022-06-18T10:37:37Z</time>
      </trkpt>
      <trkpt lat="42.375630999999885" lon="-1.2730630000000007">
        <ele>490.852</ele>
        <time>2022-06-18T10:37:41Z</time>
      </trkpt>
      <trkpt lat="42.37578999999988" lon="-1.2729450000000007">
        <ele>491.053</ele>
        <time>2022-06-18T10:37:49Z</time>
      </trkpt>
      <trkpt lat="42.375875999999884" lon="-1.2728570000000006">
        <ele>491.408</ele>
        <time>2022-06-18T10:37:54Z</time>
      </trkpt>
      <trkpt lat="42.37592699999988" lon="-1.2727860000000006">
        <ele>492.409</ele>
        <time>2022-06-18T10:37:57Z</time>
      </trkpt>
      <trkpt lat="42.37594399999988" lon="-1.2727560000000007">
        <ele>492.636</ele>
        <time>2022-06-18T10:37:58Z</time>
      </trkpt>
      <trkpt lat="42.37602899999988" lon="-1.2726530000000007">
        <ele>493.645</ele>
        <time>2022-06-18T10:38:03Z</time>
      </trkpt>
      <trkpt lat="42.376162999999885" lon="-1.2725190000000006">
        <ele>494.660</ele>
        <time>2022-06-18T10:38:08Z</time>
      </trkpt>
      <trkpt lat="42.37619199999988" lon="-1.2725180000000007">
        <ele>494.892</ele>
        <time>2022-06-18T10:38:09Z</time>
      </trkpt>
      <trkpt lat="42.37631399999988" lon="-1.2725780000000007">
        <ele>495.284</ele>
        <time>2022-06-18T10:38:14Z</time>
      </trkpt>
      <trkpt lat="42.37641299999988" lon="-1.2726830000000007">
        <ele>495.648</ele>
        <time>2022-06-18T10:38:19Z</time>
      </trkpt>
      <trkpt lat="42.37642899999988" lon="-1.2727050000000006">
        <ele>495.666</ele>
        <time>2022-06-18T10:38:20Z</time>
      </trkpt>
      <trkpt lat="42.376455999999884" lon="-1.2727380000000006">
        <ele>495.881</ele>
        <time>2022-06-18T10:38:22Z</time>
      </trkpt>
      <trkpt lat="42.376486999999884" lon="-1.2727960000000005">
        <ele>496.061</ele>
        <time>2022-06-18T10:38:24Z</time>
      </trkpt>
      <trkpt lat="42.37650199999988" lon="-1.2728440000000005">
        <ele>496.044</ele>
        <time>2022-06-18T10:38:26Z</time>
      </trkpt>
      <trkpt lat="42.37648999999988" lon="-1.2728890000000006">
        <ele>496.205</ele>
        <time>2022-06-18T10:38:28Z</time>
      </trkpt>
      <trkpt lat="42.376410999999884" lon="-1.2730000000000006">
        <ele>496.415</ele>
        <time>2022-06-18T10:38:34Z</time>
      </trkpt>
      <trkpt lat="42.37638999999989" lon="-1.2730220000000005">
        <ele>497.009</ele>
        <time>2022-06-18T10:38:36Z</time>
      </trkpt>
      <trkpt lat="42.37637799999989" lon="-1.2730390000000005">
        <ele>497.035</ele>
        <time>2022-06-18T10:38:37Z</time>
      </trkpt>
      <trkpt lat="42.37635299999989" lon="-1.2730770000000005">
        <ele>497.234</ele>
        <time>2022-06-18T10:38:39Z</time>
      </trkpt>
      <trkpt lat="42.37628599999989" lon="-1.2731560000000004">
        <ele>498.019</ele>
        <time>2022-06-18T10:38:44Z</time>
      </trkpt>
      <trkpt lat="42.37625699999989" lon="-1.2732250000000005">
        <ele>498.441</ele>
        <time>2022-06-18T10:38:47Z</time>
      </trkpt>
      <trkpt lat="42.37617699999989" lon="-1.2734260000000004">
        <ele>498.633</ele>
        <time>2022-06-18T10:38:55Z</time>
      </trkpt>
      <trkpt lat="42.37613499999989" lon="-1.2735840000000005">
        <ele>496.817</ele>
        <time>2022-06-18T10:39:00Z</time>
      </trkpt>
      <trkpt lat="42.37614099999989" lon="-1.2736200000000004">
        <ele>496.085</ele>
        <time>2022-06-18T10:39:01Z</time>
      </trkpt>
      <trkpt lat="42.37614599999989" lon="-1.2736590000000003">
        <ele>495.440</ele>
        <time>2022-06-18T10:39:02Z</time>
      </trkpt>
      <trkpt lat="42.37615499999989" lon="-1.2737280000000004">
        <ele>495.050</ele>
        <time>2022-06-18T10:39:04Z</time>
      </trkpt>
      <trkpt lat="42.37619399999989" lon="-1.2739110000000005">
        <ele>495.065</ele>
        <time>2022-06-18T10:39:10Z</time>
      </trkpt>
      <trkpt lat="42.37632599999989" lon="-1.2741370000000005">
        <ele>495.268</ele>
        <time>2022-06-18T10:39:18Z</time>
      </trkpt>
      <trkpt lat="42.37633999999989" lon="-1.2741530000000005">
        <ele>495.214</ele>
        <time>2022-06-18T10:39:22Z</time>
      </trkpt>
      <trkpt lat="42.376515999999896" lon="-1.2739420000000006">
        <ele>503.209</ele>
        <time>2022-06-18T10:40:55Z</time>
      </trkpt>
      <trkpt lat="42.37647199999989" lon="-1.2739450000000005">
        <ele>503.487</ele>
        <time>2022-06-18T10:40:57Z</time>
      </trkpt>
      <trkpt lat="42.376422999999896" lon="-1.2739360000000006">
        <ele>503.486</ele>
        <time>2022-06-18T10:40:59Z</time>
      </trkpt>
      <trkpt lat="42.376372999999894" lon="-1.2738940000000005">
        <ele>503.251</ele>
        <time>2022-06-18T10:41:02Z</time>
      </trkpt>
      <trkpt lat="42.376313999999894" lon="-1.2736990000000006">
        <ele>502.453</ele>
        <time>2022-06-18T10:41:10Z</time>
      </trkpt>
      <trkpt lat="42.37631199999989" lon="-1.2736780000000005">
        <ele>502.445</ele>
        <time>2022-06-18T10:41:11Z</time>
      </trkpt>
      <trkpt lat="42.37632599999989" lon="-1.2735550000000004">
        <ele>502.269</ele>
        <time>2022-06-18T10:41:16Z</time>
      </trkpt>
      <trkpt lat="42.37636499999989" lon="-1.2733590000000004">
        <ele>503.437</ele>
        <time>2022-06-18T10:41:26Z</time>
      </trkpt>
      <trkpt lat="42.37636499999989" lon="-1.2733590000000004">
        <ele>503.622</ele>
        <time>2022-06-18T10:41:27Z</time>
      </trkpt>
      <trkpt lat="42.37636499999989" lon="-1.2733590000000004">
        <ele>503.832</ele>
        <time>2022-06-18T10:41:28Z</time>
      </trkpt>
      <trkpt lat="42.3763579999999" lon="-1.2734380000000003">
        <ele>505.266</ele>
        <time>2022-06-18T10:41:50Z</time>
      </trkpt>
      <trkpt lat="42.3763519999999" lon="-1.2734720000000004">
        <ele>505.229</ele>
        <time>2022-06-18T10:41:51Z</time>
      </trkpt>
      <trkpt lat="42.3763369999999" lon="-1.2735540000000003">
        <ele>505.221</ele>
        <time>2022-06-18T10:41:53Z</time>
      </trkpt>
      <trkpt lat="42.3763159999999" lon="-1.2737150000000004">
        <ele>505.209</ele>
        <time>2022-06-18T10:41:57Z</time>
      </trkpt>
      <trkpt lat="42.376365999999905" lon="-1.2738740000000004">
        <ele>504.877</ele>
        <time>2022-06-18T10:42:02Z</time>
      </trkpt>
      <trkpt lat="42.3764629999999" lon="-1.2739610000000003">
        <ele>504.646</ele>
        <time>2022-06-18T10:42:07Z</time>
      </trkpt>
      <trkpt lat="42.376534999999905" lon="-1.2739470000000004">
        <ele>504.411</ele>
        <time>2022-06-18T10:42:10Z</time>
      </trkpt>
      <trkpt lat="42.3766149999999" lon="-1.2739230000000004">
        <ele>504.243</ele>
        <time>2022-06-18T10:42:14Z</time>
      </trkpt>
      <trkpt lat="42.3766889999999" lon="-1.2739040000000004">
        <ele>504.065</ele>
        <time>2022-06-18T10:42:17Z</time>
      </trkpt>
      <trkpt lat="42.3767279999999" lon="-1.2738570000000005">
        <ele>503.889</ele>
        <time>2022-06-18T10:42:19Z</time>
      </trkpt>
      <trkpt lat="42.3768569999999" lon="-1.2736900000000004">
        <ele>503.677</ele>
        <time>2022-06-18T10:42:26Z</time>
      </trkpt>
      <trkpt lat="42.3769269999999" lon="-1.2736420000000004">
        <ele>503.462</ele>
        <time>2022-06-18T10:42:30Z</time>
      </trkpt>
      <trkpt lat="42.376936999999906" lon="-1.2736320000000003">
        <ele>503.442</ele>
        <time>2022-06-18T10:42:31Z</time>
      </trkpt>
      <trkpt lat="42.376942999999905" lon="-1.2736240000000003">
        <ele>503.275</ele>
        <time>2022-06-18T10:42:32Z</time>
      </trkpt>
      <trkpt lat="42.37694199999991" lon="-1.2736200000000004">
        <ele>503.228</ele>
        <time>2022-06-18T10:42:34Z</time>
      </trkpt>
      <trkpt lat="42.37694199999991" lon="-1.2736200000000004">
        <ele>503.220</ele>
        <time>2022-06-18T10:42:35Z</time>
      </trkpt>
      <trkpt lat="42.377074999999905" lon="-1.2734450000000004">
        <ele>501.609</ele>
        <time>2022-06-18T10:54:53Z</time>
      </trkpt>
      <trkpt lat="42.377035999999904" lon="-1.2734370000000004">
        <ele>501.638</ele>
        <time>2022-06-18T10:54:55Z</time>
      </trkpt>
      <trkpt lat="42.37693899999991" lon="-1.2733630000000005">
        <ele>502.087</ele>
        <time>2022-06-18T10:55:01Z</time>
      </trkpt>
      <trkpt lat="42.37693199999991" lon="-1.2733400000000004">
        <ele>502.012</ele>
        <time>2022-06-18T10:55:02Z</time>
      </trkpt>
      <trkpt lat="42.37693199999991" lon="-1.2732970000000003">
        <ele>501.834</ele>
        <time>2022-06-18T10:55:04Z</time>
      </trkpt>
      <trkpt lat="42.37697899999991" lon="-1.2732640000000004">
        <ele>501.616</ele>
        <time>2022-06-18T10:55:07Z</time>
      </trkpt>
      <trkpt lat="42.37712399999992" lon="-1.2733490000000003">
        <ele>500.840</ele>
        <time>2022-06-18T10:55:14Z</time>
      </trkpt>
      <trkpt lat="42.37715999999992" lon="-1.2733900000000002">
        <ele>500.488</ele>
        <time>2022-06-18T10:55:16Z</time>
      </trkpt>
      <trkpt lat="42.377194999999915" lon="-1.2734710000000002">
        <ele>499.493</ele>
        <time>2022-06-18T10:55:19Z</time>
      </trkpt>
      <trkpt lat="42.377200999999914" lon="-1.2735020000000001">
        <ele>498.673</ele>
        <time>2022-06-18T10:55:20Z</time>
      </trkpt>
      <trkpt lat="42.37720799999991" lon="-1.273532">
        <ele>498.297</ele>
        <time>2022-06-18T10:55:21Z</time>
      </trkpt>
      <trkpt lat="42.37722899999991" lon="-1.273652">
        <ele>497.023</ele>
        <time>2022-06-18T10:55:25Z</time>
      </trkpt>
      <trkpt lat="42.377226999999905" lon="-1.273717">
        <ele>496.425</ele>
        <time>2022-06-18T10:55:27Z</time>
      </trkpt>
      <trkpt lat="42.377226999999905" lon="-1.273769">
        <ele>495.809</ele>
        <time>2022-06-18T10:55:29Z</time>
      </trkpt>
      <trkpt lat="42.37720899999991" lon="-1.2739429999999998">
        <ele>494.830</ele>
        <time>2022-06-18T10:55:35Z</time>
      </trkpt>
      <trkpt lat="42.37720499999991" lon="-1.2739739999999997">
        <ele>494.459</ele>
        <time>2022-06-18T10:55:36Z</time>
      </trkpt>
      <trkpt lat="42.37719099999991" lon="-1.2740599999999997">
        <ele>493.634</ele>
        <time>2022-06-18T10:55:40Z</time>
      </trkpt>
      <trkpt lat="42.37719499999991" lon="-1.2740669999999998">
        <ele>493.436</ele>
        <time>2022-06-18T10:55:41Z</time>
      </trkpt>
      <trkpt lat="42.37720799999991" lon="-1.2740609999999999">
        <ele>492.838</ele>
        <time>2022-06-18T10:55:43Z</time>
      </trkpt>
      <trkpt lat="42.37721599999991" lon="-1.274039">
        <ele>492.632</ele>
        <time>2022-06-18T10:55:45Z</time>
      </trkpt>
      <trkpt lat="42.37721599999991" lon="-1.274039">
        <ele>492.420</ele>
        <time>2022-06-18T10:55:46Z</time>
      </trkpt>
      <trkpt lat="42.37723699999991" lon="-1.273992">
        <ele>492.225</ele>
        <time>2022-06-18T10:55:52Z</time>
      </trkpt>
      <trkpt lat="42.37725899999991" lon="-1.273928">
        <ele>492.295</ele>
        <time>2022-06-18T10:55:54Z</time>
      </trkpt>
      <trkpt lat="42.37728299999991" lon="-1.27375">
        <ele>492.268</ele>
        <time>2022-06-18T10:55:59Z</time>
      </trkpt>
      <trkpt lat="42.377278999999916" lon="-1.273468">
        <ele>492.442</ele>
        <time>2022-06-18T10:56:07Z</time>
      </trkpt>
      <trkpt lat="42.37725899999992" lon="-1.273283">
        <ele>492.426</ele>
        <time>2022-06-18T10:56:12Z</time>
      </trkpt>
      <trkpt lat="42.377270999999915" lon="-1.273262">
        <ele>492.209</ele>
        <time>2022-06-18T10:56:13Z</time>
      </trkpt>
      <trkpt lat="42.37731499999992" lon="-1.2732489999999999">
        <ele>492.297</ele>
        <time>2022-06-18T10:56:16Z</time>
      </trkpt>
      <trkpt lat="42.37733099999992" lon="-1.2732689999999998">
        <ele>492.216</ele>
        <time>2022-06-18T10:56:17Z</time>
      </trkpt>
      <trkpt lat="42.37738899999992" lon="-1.2734969999999997">
        <ele>492.281</ele>
        <time>2022-06-18T10:56:22Z</time>
      </trkpt>
      <trkpt lat="42.377401999999925" lon="-1.2735609999999997">
        <ele>492.233</ele>
        <time>2022-06-18T10:56:23Z</time>
      </trkpt>
      <trkpt lat="42.37742899999993" lon="-1.2737919999999998">
        <ele>491.615</ele>
        <time>2022-06-18T10:56:26Z</time>
      </trkpt>
      <trkpt lat="42.377432999999925" lon="-1.2740629999999997">
        <ele>491.429</ele>
        <time>2022-06-18T10:56:29Z</time>
      </trkpt>
      <trkpt lat="42.377418999999925" lon="-1.2743339999999996">
        <ele>490.247</ele>
        <time>2022-06-18T10:56:32Z</time>
      </trkpt>
      <trkpt lat="42.37740999999993" lon="-1.2744109999999997">
        <ele>489.672</ele>
        <time>2022-06-18T10:56:33Z</time>
      </trkpt>
      <trkpt lat="42.37736999999993" lon="-1.2745409999999997">
        <ele>488.622</ele>
        <time>2022-06-18T10:56:35Z</time>
      </trkpt>
      <trkpt lat="42.37729899999993" lon="-1.2746409999999997">
        <ele>488.248</ele>
        <time>2022-06-18T10:56:37Z</time>
      </trkpt>
      <trkpt lat="42.37725399999993" lon="-1.2746789999999997">
        <ele>487.861</ele>
        <time>2022-06-18T10:56:38Z</time>
      </trkpt>
      <trkpt lat="42.37720399999993" lon="-1.2747129999999998">
        <ele>487.417</ele>
        <time>2022-06-18T10:56:39Z</time>
      </trkpt>
      <trkpt lat="42.376937999999925" lon="-1.2748229999999998">
        <ele>486.009</ele>
        <time>2022-06-18T10:56:44Z</time>
      </trkpt>
      <trkpt lat="42.37682999999993" lon="-1.274846">
        <ele>485.665</ele>
        <time>2022-06-18T10:56:46Z</time>
      </trkpt>
      <trkpt lat="42.376624999999926" lon="-1.274859">
        <ele>485.284</ele>
        <time>2022-06-18T10:56:50Z</time>
      </trkpt>
      <trkpt lat="42.37652899999993" lon="-1.27485">
        <ele>485.079</ele>
        <time>2022-06-18T10:56:52Z</time>
      </trkpt>
      <trkpt lat="42.376411999999924" lon="-1.274828">
        <ele>484.871</ele>
        <time>2022-06-18T10:56:55Z</time>
      </trkpt>
      <trkpt lat="42.37634199999992" lon="-1.2747870000000001">
        <ele>484.673</ele>
        <time>2022-06-18T10:56:59Z</time>
      </trkpt>
      <trkpt lat="42.37634199999992" lon="-1.2747870000000001">
        <ele>485.037</ele>
        <time>2022-06-18T10:57:01Z</time>
      </trkpt>
      <trkpt lat="42.37630599999992" lon="-1.2747890000000002">
        <ele>488.815</ele>
        <time>2022-06-18T11:18:47Z</time>
      </trkpt>
      <trkpt lat="42.37633099999992" lon="-1.2747960000000003">
        <ele>488.850</ele>
        <time>2022-06-18T11:18:48Z</time>
      </trkpt>
      <trkpt lat="42.37637999999992" lon="-1.2748030000000004">
        <ele>488.810</ele>
        <time>2022-06-18T11:18:52Z</time>
      </trkpt>
      <trkpt lat="42.37652999999992" lon="-1.2748130000000004">
        <ele>488.436</ele>
        <time>2022-06-18T11:18:56Z</time>
      </trkpt>
      <trkpt lat="42.37680599999992" lon="-1.2748130000000004">
        <ele>488.217</ele>
        <time>2022-06-18T11:19:02Z</time>
      </trkpt>
      <trkpt lat="42.377095999999916" lon="-1.2747350000000004">
        <ele>488.018</ele>
        <time>2022-06-18T11:19:09Z</time>
      </trkpt>
      <trkpt lat="42.377135999999915" lon="-1.2747170000000003">
        <ele>488.009</ele>
        <time>2022-06-18T11:19:10Z</time>
      </trkpt>
      <trkpt lat="42.37728699999992" lon="-1.2746020000000002">
        <ele>487.884</ele>
        <time>2022-06-18T11:19:14Z</time>
      </trkpt>
      <trkpt lat="42.37731799999992" lon="-1.2745590000000002">
        <ele>487.883</ele>
        <time>2022-06-18T11:19:15Z</time>
      </trkpt>
      <trkpt lat="42.37733699999992" lon="-1.2745220000000002">
        <ele>487.858</ele>
        <time>2022-06-18T11:19:16Z</time>
      </trkpt>
      <trkpt lat="42.37736699999992" lon="-1.2744100000000003">
        <ele>488.050</ele>
        <time>2022-06-18T11:19:18Z</time>
      </trkpt>
      <trkpt lat="42.37737899999992" lon="-1.2743010000000004">
        <ele>488.042</ele>
        <time>2022-06-18T11:19:20Z</time>
      </trkpt>
      <trkpt lat="42.37738299999992" lon="-1.2740960000000003">
        <ele>488.226</ele>
        <time>2022-06-18T11:19:24Z</time>
      </trkpt>
      <trkpt lat="42.377383999999914" lon="-1.2737620000000003">
        <ele>489.424</ele>
        <time>2022-06-18T11:19:31Z</time>
      </trkpt>
      <trkpt lat="42.37737399999991" lon="-1.2736810000000003">
        <ele>489.849</ele>
        <time>2022-06-18T11:19:33Z</time>
      </trkpt>
      <trkpt lat="42.37734799999991" lon="-1.2734790000000002">
        <ele>490.439</ele>
        <time>2022-06-18T11:19:38Z</time>
      </trkpt>
      <trkpt lat="42.37731799999991" lon="-1.2733400000000004">
        <ele>490.836</ele>
        <time>2022-06-18T11:19:42Z</time>
      </trkpt>
      <trkpt lat="42.37727099999991" lon="-1.2732030000000003">
        <ele>491.417</ele>
        <time>2022-06-18T11:19:46Z</time>
      </trkpt>
      <trkpt lat="42.37725099999991" lon="-1.2731280000000003">
        <ele>492.018</ele>
        <time>2022-06-18T11:19:48Z</time>
      </trkpt>
      <trkpt lat="42.377175999999906" lon="-1.2729300000000003">
        <ele>493.009</ele>
        <time>2022-06-18T11:19:53Z</time>
      </trkpt>
      <trkpt lat="42.37716099999991" lon="-1.2728820000000003">
        <ele>493.264</ele>
        <time>2022-06-18T11:19:54Z</time>
      </trkpt>
      <trkpt lat="42.37709799999991" lon="-1.2727160000000002">
        <ele>494.283</ele>
        <time>2022-06-18T11:19:58Z</time>
      </trkpt>
      <trkpt lat="42.37702999999991" lon="-1.2725350000000002">
        <ele>494.648</ele>
        <time>2022-06-18T11:20:02Z</time>
      </trkpt>
      <trkpt lat="42.37691499999991" lon="-1.2722050000000003">
        <ele>495.030</ele>
        <time>2022-06-18T11:20:10Z</time>
      </trkpt>
      <trkpt lat="42.376882999999914" lon="-1.2721150000000003">
        <ele>495.292</ele>
        <time>2022-06-18T11:20:12Z</time>
      </trkpt>
      <trkpt lat="42.376831999999915" lon="-1.2719650000000002">
        <ele>495.696</ele>
        <time>2022-06-18T11:20:16Z</time>
      </trkpt>
      <trkpt lat="42.376752999999916" lon="-1.2717700000000003">
        <ele>496.444</ele>
        <time>2022-06-18T11:20:21Z</time>
      </trkpt>
      <trkpt lat="42.37673699999991" lon="-1.2717330000000002">
        <ele>496.499</ele>
        <time>2022-06-18T11:20:22Z</time>
      </trkpt>
      <trkpt lat="42.37666699999991" lon="-1.2714970000000003">
        <ele>497.029</ele>
        <time>2022-06-18T11:20:28Z</time>
      </trkpt>
      <trkpt lat="42.376665999999915" lon="-1.2714560000000004">
        <ele>497.493</ele>
        <time>2022-06-18T11:20:29Z</time>
      </trkpt>
      <trkpt lat="42.376685999999914" lon="-1.2713380000000003">
        <ele>497.665</ele>
        <time>2022-06-18T11:20:32Z</time>
      </trkpt>
      <trkpt lat="42.37675699999991" lon="-1.2711740000000002">
        <ele>498.421</ele>
        <time>2022-06-18T11:20:36Z</time>
      </trkpt>
      <trkpt lat="42.37681599999991" lon="-1.2710470000000003">
        <ele>499.609</ele>
        <time>2022-06-18T11:20:39Z</time>
      </trkpt>
      <trkpt lat="42.37685299999991" lon="-1.2709530000000002">
        <ele>500.020</ele>
        <time>2022-06-18T11:20:41Z</time>
      </trkpt>
      <trkpt lat="42.37687399999991" lon="-1.2709050000000002">
        <ele>500.089</ele>
        <time>2022-06-18T11:20:42Z</time>
      </trkpt>
      <trkpt lat="42.37701899999991" lon="-1.270574">
        <ele>500.494</ele>
        <time>2022-06-18T11:20:49Z</time>
      </trkpt>
      <trkpt lat="42.37720599999991" lon="-1.270162">
        <ele>500.846</ele>
        <time>2022-06-18T11:20:58Z</time>
      </trkpt>
      <trkpt lat="42.37743099999991" lon="-1.269802">
        <ele>501.888</ele>
        <time>2022-06-18T11:21:07Z</time>
      </trkpt>
      <trkpt lat="42.37745799999991" lon="-1.269768">
        <ele>502.282</ele>
        <time>2022-06-18T11:21:08Z</time>
      </trkpt>
      <trkpt lat="42.37756499999991" lon="-1.269637">
        <ele>502.880</ele>
        <time>2022-06-18T11:21:12Z</time>
      </trkpt>
      <trkpt lat="42.37770399999991" lon="-1.2694839999999998">
        <ele>503.285</ele>
        <time>2022-06-18T11:21:17Z</time>
      </trkpt>
      <trkpt lat="42.377845999999906" lon="-1.2693339999999997">
        <ele>503.625</ele>
        <time>2022-06-18T11:21:22Z</time>
      </trkpt>
      <trkpt lat="42.37793199999991" lon="-1.2692519999999998">
        <ele>504.055</ele>
        <time>2022-06-18T11:21:25Z</time>
      </trkpt>
      <trkpt lat="42.37796199999991" lon="-1.2692269999999999">
        <ele>504.207</ele>
        <time>2022-06-18T11:21:26Z</time>
      </trkpt>
      <trkpt lat="42.378098999999914" lon="-1.269088">
        <ele>505.017</ele>
        <time>2022-06-18T11:21:31Z</time>
      </trkpt>
      <trkpt lat="42.37825499999991" lon="-1.268909">
        <ele>506.209</ele>
        <time>2022-06-18T11:21:37Z</time>
      </trkpt>
      <trkpt lat="42.37838399999991" lon="-1.268767">
        <ele>507.236</ele>
        <time>2022-06-18T11:21:42Z</time>
      </trkpt>
      <trkpt lat="42.378486999999915" lon="-1.26864">
        <ele>507.845</ele>
        <time>2022-06-18T11:21:46Z</time>
      </trkpt>
      <trkpt lat="42.37860999999992" lon="-1.268516">
        <ele>508.450</ele>
        <time>2022-06-18T11:21:50Z</time>
      </trkpt>
      <trkpt lat="42.37876899999991" lon="-1.268334">
        <ele>508.642</ele>
        <time>2022-06-18T11:21:55Z</time>
      </trkpt>
      <trkpt lat="42.378798999999916" lon="-1.2682980000000001">
        <ele>508.874</ele>
        <time>2022-06-18T11:21:56Z</time>
      </trkpt>
      <trkpt lat="42.37891799999991" lon="-1.2681630000000002">
        <ele>509.488</ele>
        <time>2022-06-18T11:22:00Z</time>
      </trkpt>
      <trkpt lat="42.379029999999915" lon="-1.268034">
        <ele>509.836</ele>
        <time>2022-06-18T11:22:04Z</time>
      </trkpt>
      <trkpt lat="42.37920299999991" lon="-1.267837">
        <ele>510.481</ele>
        <time>2022-06-18T11:22:10Z</time>
      </trkpt>
      <trkpt lat="42.37927099999991" lon="-1.267765">
        <ele>510.661</ele>
        <time>2022-06-18T11:22:12Z</time>
      </trkpt>
      <trkpt lat="42.37952199999991" lon="-1.267551">
        <ele>510.632</ele>
        <time>2022-06-18T11:22:18Z</time>
      </trkpt>
      <trkpt lat="42.37981899999991" lon="-1.267397">
        <ele>510.692</ele>
        <time>2022-06-18T11:22:24Z</time>
      </trkpt>
      <trkpt lat="42.37992299999991" lon="-1.2673590000000001">
        <ele>510.611</ele>
        <time>2022-06-18T11:22:26Z</time>
      </trkpt>
      <trkpt lat="42.38039999999991" lon="-1.2672080000000001">
        <ele>509.609</ele>
        <time>2022-06-18T11:22:35Z</time>
      </trkpt>
      <trkpt lat="42.38085299999991" lon="-1.2670370000000002">
        <ele>509.654</ele>
        <time>2022-06-18T11:22:44Z</time>
      </trkpt>
      <trkpt lat="42.38099599999991" lon="-1.2669240000000002">
        <ele>509.683</ele>
        <time>2022-06-18T11:22:47Z</time>
      </trkpt>
      <trkpt lat="42.38107399999991" lon="-1.266817">
        <ele>509.648</ele>
        <time>2022-06-18T11:22:49Z</time>
      </trkpt>
      <trkpt lat="42.38113899999991" lon="-1.266677">
        <ele>509.630</ele>
        <time>2022-06-18T11:22:51Z</time>
      </trkpt>
      <trkpt lat="42.38117299999991" lon="-1.2665330000000001">
        <ele>509.862</ele>
        <time>2022-06-18T11:22:53Z</time>
      </trkpt>
      <trkpt lat="42.38117899999991" lon="-1.2660000000000002">
        <ele>509.656</ele>
        <time>2022-06-18T11:23:00Z</time>
      </trkpt>
      <trkpt lat="42.38116099999991" lon="-1.2655520000000002">
        <ele>509.474</ele>
        <time>2022-06-18T11:23:06Z</time>
      </trkpt>
      <trkpt lat="42.38115899999991" lon="-1.2652580000000002">
        <ele>509.069</ele>
        <time>2022-06-18T11:23:10Z</time>
      </trkpt>
      <trkpt lat="42.38116499999991" lon="-1.2650360000000003">
        <ele>508.679</ele>
        <time>2022-06-18T11:23:13Z</time>
      </trkpt>
      <trkpt lat="42.38117599999991" lon="-1.2648890000000004">
        <ele>508.431</ele>
        <time>2022-06-18T11:23:15Z</time>
      </trkpt>
      <trkpt lat="42.38120699999991" lon="-1.2646680000000003">
        <ele>508.061</ele>
        <time>2022-06-18T11:23:18Z</time>
      </trkpt>
      <trkpt lat="42.38135799999991" lon="-1.2643000000000004">
        <ele>507.407</ele>
        <time>2022-06-18T11:23:24Z</time>
      </trkpt>
      <trkpt lat="42.38142899999991" lon="-1.2641860000000005">
        <ele>507.409</ele>
        <time>2022-06-18T11:23:26Z</time>
      </trkpt>
      <trkpt lat="42.38147499999991" lon="-1.2641260000000005">
        <ele>507.434</ele>
        <time>2022-06-18T11:23:27Z</time>
      </trkpt>
      <trkpt lat="42.38159299999991" lon="-1.2640030000000004">
        <ele>507.463</ele>
        <time>2022-06-18T11:23:30Z</time>
      </trkpt>
      <trkpt lat="42.38188799999991" lon="-1.2638200000000004">
        <ele>507.838</ele>
        <time>2022-06-18T11:23:36Z</time>
      </trkpt>
      <trkpt lat="42.38193599999991" lon="-1.2638040000000004">
        <ele>507.830</ele>
        <time>2022-06-18T11:23:37Z</time>
      </trkpt>
      <trkpt lat="42.38213799999991" lon="-1.2637880000000004">
        <ele>508.222</ele>
        <time>2022-06-18T11:23:41Z</time>
      </trkpt>
      <trkpt lat="42.382187999999914" lon="-1.2637860000000003">
        <ele>508.496</ele>
        <time>2022-06-18T11:23:42Z</time>
      </trkpt>
      <trkpt lat="42.382519999999914" lon="-1.2638180000000003">
        <ele>509.274</ele>
        <time>2022-06-18T11:23:49Z</time>
      </trkpt>
      <trkpt lat="42.382769999999915" lon="-1.2638420000000004">
        <ele>509.479</ele>
        <time>2022-06-18T11:23:54Z</time>
      </trkpt>
      <trkpt lat="42.38305599999992" lon="-1.2638740000000004">
        <ele>509.679</ele>
        <time>2022-06-18T11:24:00Z</time>
      </trkpt>
      <trkpt lat="42.38359599999992" lon="-1.2639090000000004">
        <ele>510.644</ele>
        <time>2022-06-18T11:24:11Z</time>
      </trkpt>
      <trkpt lat="42.38374499999992" lon="-1.2638760000000004">
        <ele>511.005</ele>
        <time>2022-06-18T11:24:14Z</time>
      </trkpt>
      <trkpt lat="42.38383999999992" lon="-1.2638380000000005">
        <ele>511.215</ele>
        <time>2022-06-18T11:24:16Z</time>
      </trkpt>
      <trkpt lat="42.38391899999992" lon="-1.2637870000000004">
        <ele>511.209</ele>
        <time>2022-06-18T11:24:18Z</time>
      </trkpt>
      <trkpt lat="42.38428099999992" lon="-1.2635100000000004">
        <ele>511.285</ele>
        <time>2022-06-18T11:24:27Z</time>
      </trkpt>
      <trkpt lat="42.384609999999924" lon="-1.2634010000000004">
        <ele>511.424</ele>
        <time>2022-06-18T11:24:34Z</time>
      </trkpt>
      <trkpt lat="42.38476799999992" lon="-1.2633760000000005">
        <ele>511.829</ele>
        <time>2022-06-18T11:24:37Z</time>
      </trkpt>
      <trkpt lat="42.38507499999992" lon="-1.2633330000000005">
        <ele>512.011</ele>
        <time>2022-06-18T11:24:43Z</time>
      </trkpt>
      <trkpt lat="42.385568999999926" lon="-1.2632480000000006">
        <ele>512.053</ele>
        <time>2022-06-18T11:24:53Z</time>
      </trkpt>
      <trkpt lat="42.386002999999924" lon="-1.2631790000000005">
        <ele>512.037</ele>
        <time>2022-06-18T11:25:02Z</time>
      </trkpt>
      <trkpt lat="42.38646899999993" lon="-1.2630680000000005">
        <ele>512.055</ele>
        <time>2022-06-18T11:25:11Z</time>
      </trkpt>
      <trkpt lat="42.386581999999926" lon="-1.2630300000000005">
        <ele>512.030</ele>
        <time>2022-06-18T11:25:13Z</time>
      </trkpt>
      <trkpt lat="42.38663999999993" lon="-1.2630020000000006">
        <ele>512.060</ele>
        <time>2022-06-18T11:25:14Z</time>
      </trkpt>
      <trkpt lat="42.38674899999993" lon="-1.2629460000000006">
        <ele>512.086</ele>
        <time>2022-06-18T11:25:16Z</time>
      </trkpt>
      <trkpt lat="42.38705699999993" lon="-1.2627090000000005">
        <ele>512.060</ele>
        <time>2022-06-18T11:25:21Z</time>
      </trkpt>
      <trkpt lat="42.387113999999926" lon="-1.2626450000000005">
        <ele>512.026</ele>
        <time>2022-06-18T11:25:22Z</time>
      </trkpt>
      <trkpt lat="42.387257999999925" lon="-1.2624110000000004">
        <ele>511.809</ele>
        <time>2022-06-18T11:25:25Z</time>
      </trkpt>
      <trkpt lat="42.38751199999992" lon="-1.2618830000000003">
        <ele>510.659</ele>
        <time>2022-06-18T11:25:31Z</time>
      </trkpt>
      <trkpt lat="42.38763599999992" lon="-1.2616180000000004">
        <ele>510.258</ele>
        <time>2022-06-18T11:25:34Z</time>
      </trkpt>
      <trkpt lat="42.38775699999992" lon="-1.2613650000000003">
        <ele>509.473</ele>
        <time>2022-06-18T11:25:37Z</time>
      </trkpt>
      <trkpt lat="42.387887999999926" lon="-1.2610660000000002">
        <ele>509.255</ele>
        <time>2022-06-18T11:25:41Z</time>
      </trkpt>
      <trkpt lat="42.38809799999993" lon="-1.2606460000000002">
        <ele>509.457</ele>
        <time>2022-06-18T11:25:48Z</time>
      </trkpt>
      <trkpt lat="42.38831999999993" lon="-1.26032">
        <ele>510.041</ele>
        <time>2022-06-18T11:25:55Z</time>
      </trkpt>
      <trkpt lat="42.38840699999993" lon="-1.260221">
        <ele>510.819</ele>
        <time>2022-06-18T11:25:58Z</time>
      </trkpt>
      <trkpt lat="42.38857499999993" lon="-1.2600660000000001">
        <ele>511.674</ele>
        <time>2022-06-18T11:26:03Z</time>
      </trkpt>
      <trkpt lat="42.38879399999993" lon="-1.2599230000000001">
        <ele>512.894</ele>
        <time>2022-06-18T11:26:09Z</time>
      </trkpt>
      <trkpt lat="42.388908999999934" lon="-1.2598600000000002">
        <ele>513.423</ele>
        <time>2022-06-18T11:26:12Z</time>
      </trkpt>
      <trkpt lat="42.38940799999993" lon="-1.2595840000000003">
        <ele>513.683</ele>
        <time>2022-06-18T11:26:25Z</time>
      </trkpt>
      <trkpt lat="42.389713999999934" lon="-1.2594100000000004">
        <ele>513.011</ele>
        <time>2022-06-18T11:26:33Z</time>
      </trkpt>
      <trkpt lat="42.39002799999994" lon="-1.2592450000000004">
        <ele>513.409</ele>
        <time>2022-06-18T11:26:41Z</time>
      </trkpt>
      <trkpt lat="42.39019299999994" lon="-1.2591540000000003">
        <ele>514.063</ele>
        <time>2022-06-18T11:26:45Z</time>
      </trkpt>
      <trkpt lat="42.39036699999994" lon="-1.2590570000000003">
        <ele>514.432</ele>
        <time>2022-06-18T11:26:49Z</time>
      </trkpt>
      <trkpt lat="42.39067099999994" lon="-1.2588470000000003">
        <ele>515.087</ele>
        <time>2022-06-18T11:26:56Z</time>
      </trkpt>
      <trkpt lat="42.39080399999994" lon="-1.2587570000000003">
        <ele>515.259</ele>
        <time>2022-06-18T11:26:59Z</time>
      </trkpt>
      <trkpt lat="42.39117299999994" lon="-1.2585240000000004">
        <ele>515.651</ele>
        <time>2022-06-18T11:27:07Z</time>
      </trkpt>
      <trkpt lat="42.39156899999994" lon="-1.2583150000000005">
        <ele>515.855</ele>
        <time>2022-06-18T11:27:16Z</time>
      </trkpt>
      <trkpt lat="42.39186199999994" lon="-1.2581730000000004">
        <ele>516.083</ele>
        <time>2022-06-18T11:27:23Z</time>
      </trkpt>
      <trkpt lat="42.39194799999994" lon="-1.2581330000000004">
        <ele>516.218</ele>
        <time>2022-06-18T11:27:25Z</time>
      </trkpt>
      <trkpt lat="42.39197899999994" lon="-1.2581190000000004">
        <ele>516.298</ele>
        <time>2022-06-18T11:27:26Z</time>
      </trkpt>
      <trkpt lat="42.39216999999994" lon="-1.2580290000000005">
        <ele>517.244</ele>
        <time>2022-06-18T11:27:31Z</time>
      </trkpt>
      <trkpt lat="42.39220699999994" lon="-1.2580110000000004">
        <ele>517.405</ele>
        <time>2022-06-18T11:27:32Z</time>
      </trkpt>
      <trkpt lat="42.392318999999944" lon="-1.2579590000000005">
        <ele>518.215</ele>
        <time>2022-06-18T11:27:35Z</time>
      </trkpt>
      <trkpt lat="42.39254799999994" lon="-1.2578490000000004">
        <ele>519.409</ele>
        <time>2022-06-18T11:27:41Z</time>
      </trkpt>
      <trkpt lat="42.39279899999994" lon="-1.2577270000000005">
        <ele>520.475</ele>
        <time>2022-06-18T11:27:48Z</time>
      </trkpt>
      <trkpt lat="42.39286999999994" lon="-1.2576940000000005">
        <ele>520.634</ele>
        <time>2022-06-18T11:27:50Z</time>
      </trkpt>
      <trkpt lat="42.39304899999994" lon="-1.2576090000000006">
        <ele>521.619</ele>
        <time>2022-06-18T11:27:55Z</time>
      </trkpt>
      <trkpt lat="42.39337799999994" lon="-1.2574510000000005">
        <ele>522.651</ele>
        <time>2022-06-18T11:28:04Z</time>
      </trkpt>
      <trkpt lat="42.393480999999944" lon="-1.2573960000000006">
        <ele>523.823</ele>
        <time>2022-06-18T11:28:07Z</time>
      </trkpt>
      <trkpt lat="42.39364599999995" lon="-1.2573010000000007">
        <ele>525.097</ele>
        <time>2022-06-18T11:28:12Z</time>
      </trkpt>
      <trkpt lat="42.393677999999944" lon="-1.2572790000000007">
        <ele>525.085</ele>
        <time>2022-06-18T11:28:13Z</time>
      </trkpt>
      <trkpt lat="42.39384499999994" lon="-1.2571210000000006">
        <ele>525.430</ele>
        <time>2022-06-18T11:28:19Z</time>
      </trkpt>
      <trkpt lat="42.39396599999994" lon="-1.2568950000000005">
        <ele>525.640</ele>
        <time>2022-06-18T11:28:25Z</time>
      </trkpt>
      <trkpt lat="42.39398299999994" lon="-1.2568420000000005">
        <ele>525.634</ele>
        <time>2022-06-18T11:28:26Z</time>
      </trkpt>
      <trkpt lat="42.394074999999944" lon="-1.2564400000000004">
        <ele>525.855</ele>
        <time>2022-06-18T11:28:34Z</time>
      </trkpt>
      <trkpt lat="42.394203999999945" lon="-1.2560550000000004">
        <ele>525.410</ele>
        <time>2022-06-18T11:28:42Z</time>
      </trkpt>
      <trkpt lat="42.39429299999995" lon="-1.2559180000000003">
        <ele>525.209</ele>
        <time>2022-06-18T11:28:45Z</time>
      </trkpt>
      <trkpt lat="42.394428999999946" lon="-1.2557710000000004">
        <ele>525.424</ele>
        <time>2022-06-18T11:28:49Z</time>
      </trkpt>
      <trkpt lat="42.39450899999994" lon="-1.2557090000000004">
        <ele>526.063</ele>
        <time>2022-06-18T11:28:51Z</time>
      </trkpt>
      <trkpt lat="42.394752999999945" lon="-1.2555140000000005">
        <ele>526.848</ele>
        <time>2022-06-18T11:28:57Z</time>
      </trkpt>
      <trkpt lat="42.39484999999994" lon="-1.2554480000000006">
        <ele>527.240</ele>
        <time>2022-06-18T11:28:59Z</time>
      </trkpt>
      <trkpt lat="42.395194999999944" lon="-1.2551990000000006">
        <ele>527.032</ele>
        <time>2022-06-18T11:29:07Z</time>
      </trkpt>
      <trkpt lat="42.395520999999945" lon="-1.2549570000000005">
        <ele>527.476</ele>
        <time>2022-06-18T11:29:15Z</time>
      </trkpt>
      <trkpt lat="42.39588499999994" lon="-1.2546910000000004">
        <ele>528.074</ele>
        <time>2022-06-18T11:29:24Z</time>
      </trkpt>
      <trkpt lat="42.39597499999994" lon="-1.2546290000000004">
        <ele>528.239</ele>
        <time>2022-06-18T11:29:26Z</time>
      </trkpt>
      <trkpt lat="42.39634499999994" lon="-1.2543580000000005">
        <ele>528.889</ele>
        <time>2022-06-18T11:29:35Z</time>
      </trkpt>
      <trkpt lat="42.39665199999994" lon="-1.2541340000000005">
        <ele>529.283</ele>
        <time>2022-06-18T11:29:42Z</time>
      </trkpt>
      <trkpt lat="42.39679499999994" lon="-1.2540670000000005">
        <ele>529.225</ele>
        <time>2022-06-18T11:29:45Z</time>
      </trkpt>
      <trkpt lat="42.39690499999994" lon="-1.2540370000000005">
        <ele>529.217</ele>
        <time>2022-06-18T11:29:47Z</time>
      </trkpt>
      <trkpt lat="42.39714199999994" lon="-1.2540330000000006">
        <ele>529.009</ele>
        <time>2022-06-18T11:29:51Z</time>
      </trkpt>
      <trkpt lat="42.39762599999994" lon="-1.2540470000000006">
        <ele>529.039</ele>
        <time>2022-06-18T11:29:59Z</time>
      </trkpt>
      <trkpt lat="42.39789399999994" lon="-1.2539420000000006">
        <ele>529.038</ele>
        <time>2022-06-18T11:30:04Z</time>
      </trkpt>
      <trkpt lat="42.398195999999935" lon="-1.2536910000000006">
        <ele>530.273</ele>
        <time>2022-06-18T11:30:11Z</time>
      </trkpt>
      <trkpt lat="42.398237999999935" lon="-1.2536530000000006">
        <ele>530.255</ele>
        <time>2022-06-18T11:30:12Z</time>
      </trkpt>
      <trkpt lat="42.39851599999994" lon="-1.2533920000000005">
        <ele>531.457</ele>
        <time>2022-06-18T11:30:19Z</time>
      </trkpt>
      <trkpt lat="42.39862199999994" lon="-1.2532870000000005">
        <ele>532.011</ele>
        <time>2022-06-18T11:30:22Z</time>
      </trkpt>
      <trkpt lat="42.398718999999936" lon="-1.2531880000000004">
        <ele>532.479</ele>
        <time>2022-06-18T11:30:25Z</time>
      </trkpt>
      <trkpt lat="42.39889799999994" lon="-1.2530170000000005">
        <ele>533.044</ele>
        <time>2022-06-18T11:30:30Z</time>
      </trkpt>
      <trkpt lat="42.39897599999994" lon="-1.2529440000000005">
        <ele>533.044</ele>
        <time>2022-06-18T11:30:32Z</time>
      </trkpt>
      <trkpt lat="42.39919599999994" lon="-1.2527360000000005">
        <ele>533.416</ele>
        <time>2022-06-18T11:30:38Z</time>
      </trkpt>
      <trkpt lat="42.39936599999994" lon="-1.2525620000000006">
        <ele>534.676</ele>
        <time>2022-06-18T11:30:43Z</time>
      </trkpt>
      <trkpt lat="42.39964099999994" lon="-1.2522990000000007">
        <ele>535.613</ele>
        <time>2022-06-18T11:30:51Z</time>
      </trkpt>
      <trkpt lat="42.39967499999994" lon="-1.2522660000000008">
        <ele>535.809</ele>
        <time>2022-06-18T11:30:52Z</time>
      </trkpt>
      <trkpt lat="42.39988599999994" lon="-1.2520650000000009">
        <ele>537.092</ele>
        <time>2022-06-18T11:30:58Z</time>
      </trkpt>
      <trkpt lat="42.40002999999994" lon="-1.2519390000000008">
        <ele>537.681</ele>
        <time>2022-06-18T11:31:02Z</time>
      </trkpt>
      <trkpt lat="42.40016799999994" lon="-1.251811000000001">
        <ele>538.016</ele>
        <time>2022-06-18T11:31:06Z</time>
      </trkpt>
      <trkpt lat="42.400261999999934" lon="-1.2517230000000008">
        <ele>538.228</ele>
        <time>2022-06-18T11:31:09Z</time>
      </trkpt>
      <trkpt lat="42.40050799999993" lon="-1.2514890000000007">
        <ele>538.860</ele>
        <time>2022-06-18T11:31:16Z</time>
      </trkpt>
      <trkpt lat="42.40067899999993" lon="-1.2513210000000008">
        <ele>539.024</ele>
        <time>2022-06-18T11:31:21Z</time>
      </trkpt>
      <trkpt lat="42.40097999999993" lon="-1.2510350000000008">
        <ele>539.882</ele>
        <time>2022-06-18T11:31:30Z</time>
      </trkpt>
      <trkpt lat="42.40100799999993" lon="-1.2510110000000008">
        <ele>540.047</ele>
        <time>2022-06-18T11:31:31Z</time>
      </trkpt>
      <trkpt lat="42.40117399999993" lon="-1.2508530000000007">
        <ele>541.057</ele>
        <time>2022-06-18T11:31:36Z</time>
      </trkpt>
      <trkpt lat="42.401276999999936" lon="-1.2507490000000006">
        <ele>541.469</ele>
        <time>2022-06-18T11:31:39Z</time>
      </trkpt>
      <trkpt lat="42.40154699999994" lon="-1.2504920000000006">
        <ele>541.804</ele>
        <time>2022-06-18T11:31:47Z</time>
      </trkpt>
      <trkpt lat="42.40160599999994" lon="-1.2504370000000007">
        <ele>542.024</ele>
        <time>2022-06-18T11:31:49Z</time>
      </trkpt>
      <trkpt lat="42.401918999999936" lon="-1.2501360000000006">
        <ele>543.009</ele>
        <time>2022-06-18T11:31:58Z</time>
      </trkpt>
      <trkpt lat="42.40215099999993" lon="-1.2499130000000005">
        <ele>544.297</ele>
        <time>2022-06-18T11:32:05Z</time>
      </trkpt>
      <trkpt lat="42.40224999999993" lon="-1.2498270000000005">
        <ele>544.686</ele>
        <time>2022-06-18T11:32:08Z</time>
      </trkpt>
      <trkpt lat="42.402397999999934" lon="-1.2497070000000006">
        <ele>545.261</ele>
        <time>2022-06-18T11:32:12Z</time>
      </trkpt>
      <trkpt lat="42.40261499999993" lon="-1.2495640000000006">
        <ele>545.863</ele>
        <time>2022-06-18T11:32:18Z</time>
      </trkpt>
      <trkpt lat="42.402808999999934" lon="-1.2494500000000006">
        <ele>546.245</ele>
        <time>2022-06-18T11:32:23Z</time>
      </trkpt>
      <trkpt lat="42.402996999999935" lon="-1.2493500000000006">
        <ele>547.499</ele>
        <time>2022-06-18T11:32:28Z</time>
      </trkpt>
      <trkpt lat="42.403041999999935" lon="-1.2493260000000006">
        <ele>547.647</ele>
        <time>2022-06-18T11:32:29Z</time>
      </trkpt>
      <trkpt lat="42.40327399999993" lon="-1.2492020000000006">
        <ele>548.692</ele>
        <time>2022-06-18T11:32:35Z</time>
      </trkpt>
      <trkpt lat="42.403345999999935" lon="-1.2491650000000005">
        <ele>548.822</ele>
        <time>2022-06-18T11:32:37Z</time>
      </trkpt>
      <trkpt lat="42.40364299999994" lon="-1.2490150000000004">
        <ele>549.074</ele>
        <time>2022-06-18T11:32:44Z</time>
      </trkpt>
      <trkpt lat="42.40381399999994" lon="-1.2489210000000004">
        <ele>549.056</ele>
        <time>2022-06-18T11:32:48Z</time>
      </trkpt>
      <trkpt lat="42.40416299999994" lon="-1.2487350000000004">
        <ele>549.021</ele>
        <time>2022-06-18T11:32:56Z</time>
      </trkpt>
      <trkpt lat="42.40438499999994" lon="-1.2485970000000004">
        <ele>548.809</ele>
        <time>2022-06-18T11:33:01Z</time>
      </trkpt>
      <trkpt lat="42.40448399999994" lon="-1.2485390000000005">
        <ele>548.898</ele>
        <time>2022-06-18T11:33:03Z</time>
      </trkpt>
      <trkpt lat="42.40493499999994" lon="-1.2482940000000005">
        <ele>548.847</ele>
        <time>2022-06-18T11:33:13Z</time>
      </trkpt>
      <trkpt lat="42.40532799999994" lon="-1.2480800000000005">
        <ele>549.252</ele>
        <time>2022-06-18T11:33:23Z</time>
      </trkpt>
      <trkpt lat="42.40545099999994" lon="-1.2480210000000005">
        <ele>549.414</ele>
        <time>2022-06-18T11:33:26Z</time>
      </trkpt>
      <trkpt lat="42.40548499999994" lon="-1.2479980000000004">
        <ele>549.676</ele>
        <time>2022-06-18T11:33:27Z</time>
      </trkpt>
      <trkpt lat="42.405548999999944" lon="-1.2479550000000004">
        <ele>549.870</ele>
        <time>2022-06-18T11:33:29Z</time>
      </trkpt>
      <trkpt lat="42.405801999999944" lon="-1.2478110000000004">
        <ele>550.838</ele>
        <time>2022-06-18T11:33:36Z</time>
      </trkpt>
      <trkpt lat="42.405908999999944" lon="-1.2477460000000005">
        <ele>551.213</ele>
        <time>2022-06-18T11:33:39Z</time>
      </trkpt>
      <trkpt lat="42.40600599999994" lon="-1.2476930000000004">
        <ele>551.853</ele>
        <time>2022-06-18T11:33:42Z</time>
      </trkpt>
      <trkpt lat="42.40625299999994" lon="-1.2475610000000004">
        <ele>553.033</ele>
        <time>2022-06-18T11:33:49Z</time>
      </trkpt>
      <trkpt lat="42.406347999999944" lon="-1.2475060000000004">
        <ele>553.423</ele>
        <time>2022-06-18T11:33:52Z</time>
      </trkpt>
      <trkpt lat="42.406456999999946" lon="-1.2474480000000006">
        <ele>554.015</ele>
        <time>2022-06-18T11:33:55Z</time>
      </trkpt>
      <trkpt lat="42.406516999999944" lon="-1.2474170000000007">
        <ele>554.209</ele>
        <time>2022-06-18T11:33:57Z</time>
      </trkpt>
      <trkpt lat="42.406789999999944" lon="-1.2472690000000006">
        <ele>554.874</ele>
        <time>2022-06-18T11:34:05Z</time>
      </trkpt>
      <trkpt lat="42.40682399999994" lon="-1.2472530000000006">
        <ele>555.033</ele>
        <time>2022-06-18T11:34:06Z</time>
      </trkpt>
      <trkpt lat="42.40710599999994" lon="-1.2471120000000007">
        <ele>555.888</ele>
        <time>2022-06-18T11:34:14Z</time>
      </trkpt>
      <trkpt lat="42.40744399999994" lon="-1.2469280000000007">
        <ele>556.820</ele>
        <time>2022-06-18T11:34:24Z</time>
      </trkpt>
      <trkpt lat="42.40747599999994" lon="-1.2469080000000008">
        <ele>556.872</ele>
        <time>2022-06-18T11:34:25Z</time>
      </trkpt>
      <trkpt lat="42.40768599999994" lon="-1.2467970000000008">
        <ele>557.446</ele>
        <time>2022-06-18T11:34:31Z</time>
      </trkpt>
      <trkpt lat="42.407847999999944" lon="-1.2466930000000007">
        <ele>557.864</ele>
        <time>2022-06-18T11:34:36Z</time>
      </trkpt>
      <trkpt lat="42.407993999999945" lon="-1.2466180000000007">
        <ele>558.029</ele>
        <time>2022-06-18T11:34:40Z</time>
      </trkpt>
      <trkpt lat="42.40820999999995" lon="-1.2464970000000006">
        <ele>559.029</ele>
        <time>2022-06-18T11:34:46Z</time>
      </trkpt>
      <trkpt lat="42.408401999999946" lon="-1.2464030000000006">
        <ele>559.668</ele>
        <time>2022-06-18T11:34:51Z</time>
      </trkpt>
      <trkpt lat="42.408438999999944" lon="-1.2463860000000007">
        <ele>560.042</ele>
        <time>2022-06-18T11:34:52Z</time>
      </trkpt>
      <trkpt lat="42.40863999999994" lon="-1.2462660000000008">
        <ele>560.626</ele>
        <time>2022-06-18T11:34:58Z</time>
      </trkpt>
      <trkpt lat="42.40871299999994" lon="-1.2462280000000008">
        <ele>561.009</ele>
        <time>2022-06-18T11:35:00Z</time>
      </trkpt>
      <trkpt lat="42.40896699999994" lon="-1.2460920000000009">
        <ele>561.447</ele>
        <time>2022-06-18T11:35:07Z</time>
      </trkpt>
      <trkpt lat="42.40918199999994" lon="-1.2459770000000008">
        <ele>562.256</ele>
        <time>2022-06-18T11:35:13Z</time>
      </trkpt>
      <trkpt lat="42.40937299999994" lon="-1.2458670000000007">
        <ele>563.261</ele>
        <time>2022-06-18T11:35:18Z</time>
      </trkpt>
      <trkpt lat="42.40951399999994" lon="-1.2457930000000008">
        <ele>563.483</ele>
        <time>2022-06-18T11:35:22Z</time>
      </trkpt>
      <trkpt lat="42.409691999999936" lon="-1.2456980000000009">
        <ele>563.625</ele>
        <time>2022-06-18T11:35:27Z</time>
      </trkpt>
      <trkpt lat="42.40982799999993" lon="-1.2456290000000008">
        <ele>564.289</ele>
        <time>2022-06-18T11:35:31Z</time>
      </trkpt>
      <trkpt lat="42.40989299999993" lon="-1.2455890000000007">
        <ele>564.427</ele>
        <time>2022-06-18T11:35:33Z</time>
      </trkpt>
      <trkpt lat="42.40996099999993" lon="-1.2455510000000007">
        <ele>564.432</ele>
        <time>2022-06-18T11:35:35Z</time>
      </trkpt>
      <trkpt lat="42.41020599999993" lon="-1.2454160000000007">
        <ele>565.282</ele>
        <time>2022-06-18T11:35:42Z</time>
      </trkpt>
      <trkpt lat="42.410232999999934" lon="-1.2454000000000007">
        <ele>565.488</ele>
        <time>2022-06-18T11:35:43Z</time>
      </trkpt>
      <trkpt lat="42.41036899999993" lon="-1.2453310000000006">
        <ele>566.424</ele>
        <time>2022-06-18T11:35:47Z</time>
      </trkpt>
      <trkpt lat="42.41057099999993" lon="-1.2452230000000006">
        <ele>567.026</ele>
        <time>2022-06-18T11:35:53Z</time>
      </trkpt>
      <trkpt lat="42.41067899999993" lon="-1.2451700000000006">
        <ele>567.409</ele>
        <time>2022-06-18T11:35:56Z</time>
      </trkpt>
      <trkpt lat="42.41089899999993" lon="-1.2450440000000005">
        <ele>568.019</ele>
        <time>2022-06-18T11:36:02Z</time>
      </trkpt>
      <trkpt lat="42.41133799999993" lon="-1.2448000000000006">
        <ele>568.228</ele>
        <time>2022-06-18T11:36:13Z</time>
      </trkpt>
      <trkpt lat="42.41175399999993" lon="-1.2445820000000005">
        <ele>568.453</ele>
        <time>2022-06-18T11:36:23Z</time>
      </trkpt>
      <trkpt lat="42.41179399999993" lon="-1.2445600000000006">
        <ele>568.445</ele>
        <time>2022-06-18T11:36:24Z</time>
      </trkpt>
      <trkpt lat="42.41222399999993" lon="-1.2443300000000006">
        <ele>569.447</ele>
        <time>2022-06-18T11:36:34Z</time>
      </trkpt>
      <trkpt lat="42.41267699999993" lon="-1.2441820000000006">
        <ele>570.451</ele>
        <time>2022-06-18T11:36:44Z</time>
      </trkpt>
      <trkpt lat="42.41272199999993" lon="-1.2441700000000007">
        <ele>570.419</ele>
        <time>2022-06-18T11:36:45Z</time>
      </trkpt>
      <trkpt lat="42.413080999999934" lon="-1.2440900000000006">
        <ele>571.274</ele>
        <time>2022-06-18T11:36:54Z</time>
      </trkpt>
      <trkpt lat="42.41319499999994" lon="-1.2440660000000006">
        <ele>571.444</ele>
        <time>2022-06-18T11:36:57Z</time>
      </trkpt>
      <trkpt lat="42.41338099999994" lon="-1.2440110000000006">
        <ele>572.629</ele>
        <time>2022-06-18T11:37:02Z</time>
      </trkpt>
      <trkpt lat="42.413417999999936" lon="-1.2439990000000007">
        <ele>572.800</ele>
        <time>2022-06-18T11:37:03Z</time>
      </trkpt>
      <trkpt lat="42.41368499999994" lon="-1.2438920000000007">
        <ele>573.820</ele>
        <time>2022-06-18T11:37:11Z</time>
      </trkpt>
      <trkpt lat="42.41372399999994" lon="-1.2438790000000006">
        <ele>574.009</ele>
        <time>2022-06-18T11:37:12Z</time>
      </trkpt>
      <trkpt lat="42.413879999999935" lon="-1.2438250000000006">
        <ele>575.073</ele>
        <time>2022-06-18T11:37:17Z</time>
      </trkpt>
      <trkpt lat="42.41394299999993" lon="-1.2437980000000006">
        <ele>575.252</ele>
        <time>2022-06-18T11:37:19Z</time>
      </trkpt>
      <trkpt lat="42.41410899999993" lon="-1.2437350000000007">
        <ele>576.087</ele>
        <time>2022-06-18T11:37:24Z</time>
      </trkpt>
      <trkpt lat="42.41427799999993" lon="-1.2436660000000006">
        <ele>577.089</ele>
        <time>2022-06-18T11:37:29Z</time>
      </trkpt>
      <trkpt lat="42.41454799999993" lon="-1.2435770000000006">
        <ele>578.251</ele>
        <time>2022-06-18T11:37:37Z</time>
      </trkpt>
      <trkpt lat="42.41464899999993" lon="-1.2435450000000006">
        <ele>578.835</ele>
        <time>2022-06-18T11:37:40Z</time>
      </trkpt>
      <trkpt lat="42.414715999999935" lon="-1.2435220000000005">
        <ele>578.813</ele>
        <time>2022-06-18T11:37:42Z</time>
      </trkpt>
      <trkpt lat="42.41488399999994" lon="-1.2434620000000005">
        <ele>579.258</ele>
        <time>2022-06-18T11:37:47Z</time>
      </trkpt>
      <trkpt lat="42.41494999999993" lon="-1.2434410000000005">
        <ele>579.668</ele>
        <time>2022-06-18T11:37:49Z</time>
      </trkpt>
      <trkpt lat="42.415106999999935" lon="-1.2433810000000005">
        <ele>580.652</ele>
        <time>2022-06-18T11:37:54Z</time>
      </trkpt>
      <trkpt lat="42.41530199999993" lon="-1.2433120000000004">
        <ele>582.053</ele>
        <time>2022-06-18T11:38:00Z</time>
      </trkpt>
      <trkpt lat="42.415525999999936" lon="-1.2432260000000004">
        <ele>583.008</ele>
        <time>2022-06-18T11:38:07Z</time>
      </trkpt>
      <trkpt lat="42.41559199999993" lon="-1.2432030000000003">
        <ele>583.409</ele>
        <time>2022-06-18T11:38:09Z</time>
      </trkpt>
      <trkpt lat="42.415824999999934" lon="-1.2431200000000002">
        <ele>584.036</ele>
        <time>2022-06-18T11:38:16Z</time>
      </trkpt>
      <trkpt lat="42.41592199999993" lon="-1.2430750000000002">
        <ele>584.475</ele>
        <time>2022-06-18T11:38:19Z</time>
      </trkpt>
      <trkpt lat="42.41602699999993" lon="-1.2430400000000001">
        <ele>585.090</ele>
        <time>2022-06-18T11:38:22Z</time>
      </trkpt>
      <trkpt lat="42.41620499999993" lon="-1.242968">
        <ele>585.662</ele>
        <time>2022-06-18T11:38:27Z</time>
      </trkpt>
      <trkpt lat="42.41648599999993" lon="-1.242861">
        <ele>586.074</ele>
        <time>2022-06-18T11:38:34Z</time>
      </trkpt>
      <trkpt lat="42.41652399999993" lon="-1.242843">
        <ele>586.268</ele>
        <time>2022-06-18T11:38:35Z</time>
      </trkpt>
      <trkpt lat="42.416561999999935" lon="-1.242823">
        <ele>586.486</ele>
        <time>2022-06-18T11:38:36Z</time>
      </trkpt>
      <trkpt lat="42.41682799999994" lon="-1.242716">
        <ele>586.851</ele>
        <time>2022-06-18T11:38:43Z</time>
      </trkpt>
      <trkpt lat="42.41691199999994" lon="-1.2426819999999998">
        <ele>587.261</ele>
        <time>2022-06-18T11:38:45Z</time>
      </trkpt>
      <trkpt lat="42.41714099999994" lon="-1.2425849999999998">
        <ele>587.698</ele>
        <time>2022-06-18T11:38:51Z</time>
      </trkpt>
      <trkpt lat="42.41749499999994" lon="-1.2424389999999998">
        <ele>587.815</ele>
        <time>2022-06-18T11:39:00Z</time>
      </trkpt>
      <trkpt lat="42.41773399999994" lon="-1.2423369999999998">
        <ele>588.226</ele>
        <time>2022-06-18T11:39:06Z</time>
      </trkpt>
      <trkpt lat="42.41785499999994" lon="-1.2422879999999998">
        <ele>588.609</ele>
        <time>2022-06-18T11:39:09Z</time>
      </trkpt>
      <trkpt lat="42.41796899999994" lon="-1.242241">
        <ele>589.430</ele>
        <time>2022-06-18T11:39:12Z</time>
      </trkpt>
      <trkpt lat="42.41817199999994" lon="-1.242159">
        <ele>589.639</ele>
        <time>2022-06-18T11:39:17Z</time>
      </trkpt>
      <trkpt lat="42.41852899999994" lon="-1.242013">
        <ele>589.894</ele>
        <time>2022-06-18T11:39:26Z</time>
      </trkpt>
      <trkpt lat="42.41872399999994" lon="-1.241926">
        <ele>590.476</ele>
        <time>2022-06-18T11:39:31Z</time>
      </trkpt>
      <trkpt lat="42.41898599999994" lon="-1.241826">
        <ele>591.028</ele>
        <time>2022-06-18T11:39:38Z</time>
      </trkpt>
      <trkpt lat="42.41929099999994" lon="-1.241699">
        <ele>591.472</ele>
        <time>2022-06-18T11:39:46Z</time>
      </trkpt>
      <trkpt lat="42.41940099999994" lon="-1.2416500000000001">
        <ele>591.620</ele>
        <time>2022-06-18T11:39:49Z</time>
      </trkpt>
      <trkpt lat="42.41982499999994" lon="-1.2414710000000002">
        <ele>592.445</ele>
        <time>2022-06-18T11:40:00Z</time>
      </trkpt>
      <trkpt lat="42.41990099999994" lon="-1.2414410000000002">
        <ele>592.485</ele>
        <time>2022-06-18T11:40:02Z</time>
      </trkpt>
      <trkpt lat="42.42024199999994" lon="-1.2413010000000002">
        <ele>593.427</ele>
        <time>2022-06-18T11:40:11Z</time>
      </trkpt>
      <trkpt lat="42.42028099999994" lon="-1.2412870000000003">
        <ele>593.668</ele>
        <time>2022-06-18T11:40:12Z</time>
      </trkpt>
      <trkpt lat="42.42050199999994" lon="-1.2411930000000002">
        <ele>594.014</ele>
        <time>2022-06-18T11:40:18Z</time>
      </trkpt>
      <trkpt lat="42.420576999999945" lon="-1.2411690000000002">
        <ele>594.209</ele>
        <time>2022-06-18T11:40:20Z</time>
      </trkpt>
      <trkpt lat="42.42068299999995" lon="-1.2411250000000003">
        <ele>594.643</ele>
        <time>2022-06-18T11:40:23Z</time>
      </trkpt>
      <trkpt lat="42.42090499999995" lon="-1.2410290000000002">
        <ele>595.222</ele>
        <time>2022-06-18T11:40:29Z</time>
      </trkpt>
      <trkpt lat="42.42098299999995" lon="-1.2410020000000002">
        <ele>595.427</ele>
        <time>2022-06-18T11:40:31Z</time>
      </trkpt>
      <trkpt lat="42.42105999999995" lon="-1.2409740000000002">
        <ele>595.629</ele>
        <time>2022-06-18T11:40:33Z</time>
      </trkpt>
      <trkpt lat="42.42116699999995" lon="-1.2409290000000002">
        <ele>596.231</ele>
        <time>2022-06-18T11:40:36Z</time>
      </trkpt>
      <trkpt lat="42.421358999999946" lon="-1.2408470000000003">
        <ele>596.835</ele>
        <time>2022-06-18T11:40:41Z</time>
      </trkpt>
      <trkpt lat="42.42143099999995" lon="-1.2408100000000002">
        <ele>597.083</ele>
        <time>2022-06-18T11:40:43Z</time>
      </trkpt>
      <trkpt lat="42.42161399999995" lon="-1.2407240000000002">
        <ele>597.858</ele>
        <time>2022-06-18T11:40:48Z</time>
      </trkpt>
      <trkpt lat="42.42171499999995" lon="-1.2406620000000002">
        <ele>598.258</ele>
        <time>2022-06-18T11:40:51Z</time>
      </trkpt>
      <trkpt lat="42.42186699999995" lon="-1.2405320000000002">
        <ele>598.845</ele>
        <time>2022-06-18T11:40:56Z</time>
      </trkpt>
      <trkpt lat="42.42195799999995" lon="-1.2404570000000001">
        <ele>599.047</ele>
        <time>2022-06-18T11:40:59Z</time>
      </trkpt>
      <trkpt lat="42.42207199999995" lon="-1.2403510000000002">
        <ele>600.011</ele>
        <time>2022-06-18T11:41:03Z</time>
      </trkpt>
      <trkpt lat="42.42221199999995" lon="-1.2402130000000002">
        <ele>601.009</ele>
        <time>2022-06-18T11:41:08Z</time>
      </trkpt>
      <trkpt lat="42.42239599999995" lon="-1.2400150000000003">
        <ele>602.065</ele>
        <time>2022-06-18T11:41:15Z</time>
      </trkpt>
      <trkpt lat="42.42259599999995" lon="-1.2398180000000003">
        <ele>603.234</ele>
        <time>2022-06-18T11:41:22Z</time>
      </trkpt>
      <trkpt lat="42.42268299999995" lon="-1.2397360000000004">
        <ele>603.689</ele>
        <time>2022-06-18T11:41:25Z</time>
      </trkpt>
      <trkpt lat="42.422765999999946" lon="-1.2396570000000005">
        <ele>604.231</ele>
        <time>2022-06-18T11:41:28Z</time>
      </trkpt>
      <trkpt lat="42.42296399999994" lon="-1.2394720000000004">
        <ele>604.863</ele>
        <time>2022-06-18T11:41:35Z</time>
      </trkpt>
      <trkpt lat="42.42307999999994" lon="-1.2393730000000003">
        <ele>605.467</ele>
        <time>2022-06-18T11:41:39Z</time>
      </trkpt>
      <trkpt lat="42.42322599999994" lon="-1.2392370000000004">
        <ele>606.445</ele>
        <time>2022-06-18T11:41:44Z</time>
      </trkpt>
      <trkpt lat="42.42325399999994" lon="-1.2392110000000003">
        <ele>606.660</ele>
        <time>2022-06-18T11:41:45Z</time>
      </trkpt>
      <trkpt lat="42.42346499999994" lon="-1.2390680000000003">
        <ele>607.270</ele>
        <time>2022-06-18T11:41:52Z</time>
      </trkpt>
      <trkpt lat="42.42353299999994" lon="-1.2390470000000002">
        <ele>607.623</ele>
        <time>2022-06-18T11:41:54Z</time>
      </trkpt>
      <trkpt lat="42.42370299999994" lon="-1.2390130000000001">
        <ele>608.283</ele>
        <time>2022-06-18T11:41:59Z</time>
      </trkpt>
      <trkpt lat="42.42388299999994" lon="-1.2390180000000002">
        <ele>608.811</ele>
        <time>2022-06-18T11:42:04Z</time>
      </trkpt>
      <trkpt lat="42.42400799999994" lon="-1.239038">
        <ele>609.409</ele>
        <time>2022-06-18T11:42:07Z</time>
      </trkpt>
      <trkpt lat="42.42421299999994" lon="-1.239063">
        <ele>610.043</ele>
        <time>2022-06-18T11:42:12Z</time>
      </trkpt>
      <trkpt lat="42.42454799999994" lon="-1.239112">
        <ele>610.252</ele>
        <time>2022-06-18T11:42:20Z</time>
      </trkpt>
      <trkpt lat="42.42467199999994" lon="-1.239136">
        <ele>610.627</ele>
        <time>2022-06-18T11:42:23Z</time>
      </trkpt>
      <trkpt lat="42.424973999999935" lon="-1.2391780000000001">
        <ele>611.059</ele>
        <time>2022-06-18T11:42:30Z</time>
      </trkpt>
      <trkpt lat="42.425359999999934" lon="-1.239141">
        <ele>611.031</ele>
        <time>2022-06-18T11:42:39Z</time>
      </trkpt>
      <trkpt lat="42.42572099999993" lon="-1.239011">
        <ele>611.685</ele>
        <time>2022-06-18T11:42:48Z</time>
      </trkpt>
      <trkpt lat="42.42599099999993" lon="-1.238893">
        <ele>612.633</ele>
        <time>2022-06-18T11:42:56Z</time>
      </trkpt>
      <trkpt lat="42.42602499999993" lon="-1.238878">
        <ele>612.688</ele>
        <time>2022-06-18T11:42:57Z</time>
      </trkpt>
      <trkpt lat="42.42624499999993" lon="-1.238739">
        <ele>613.278</ele>
        <time>2022-06-18T11:43:04Z</time>
      </trkpt>
      <trkpt lat="42.42638499999993" lon="-1.238613">
        <ele>613.829</ele>
        <time>2022-06-18T11:43:09Z</time>
      </trkpt>
      <trkpt lat="42.42646399999993" lon="-1.23852">
        <ele>614.400</ele>
        <time>2022-06-18T11:43:12Z</time>
      </trkpt>
      <trkpt lat="42.42655699999993" lon="-1.238389">
        <ele>614.820</ele>
        <time>2022-06-18T11:43:16Z</time>
      </trkpt>
      <trkpt lat="42.426673999999934" lon="-1.2382229999999999">
        <ele>615.809</ele>
        <time>2022-06-18T11:43:21Z</time>
      </trkpt>
      <trkpt lat="42.42669799999994" lon="-1.2381909999999998">
        <ele>616.073</ele>
        <time>2022-06-18T11:43:22Z</time>
      </trkpt>
      <trkpt lat="42.42691099999994" lon="-1.2379589999999998">
        <ele>616.862</ele>
        <time>2022-06-18T11:43:30Z</time>
      </trkpt>
      <trkpt lat="42.42694099999994" lon="-1.2379329999999997">
        <ele>617.087</ele>
        <time>2022-06-18T11:43:31Z</time>
      </trkpt>
      <trkpt lat="42.427178999999946" lon="-1.2377989999999996">
        <ele>617.659</ele>
        <time>2022-06-18T11:43:38Z</time>
      </trkpt>
      <trkpt lat="42.42727399999995" lon="-1.2377679999999998">
        <ele>618.091</ele>
        <time>2022-06-18T11:43:41Z</time>
      </trkpt>
      <trkpt lat="42.42741099999995" lon="-1.2377259999999997">
        <ele>618.455</ele>
        <time>2022-06-18T11:43:45Z</time>
      </trkpt>
      <trkpt lat="42.42757299999995" lon="-1.2376719999999997">
        <ele>619.033</ele>
        <time>2022-06-18T11:43:50Z</time>
      </trkpt>
      <trkpt lat="42.42770799999995" lon="-1.2376389999999997">
        <ele>619.298</ele>
        <time>2022-06-18T11:43:54Z</time>
      </trkpt>
      <trkpt lat="42.42783199999995" lon="-1.2375989999999997">
        <ele>620.058</ele>
        <time>2022-06-18T11:43:58Z</time>
      </trkpt>
      <trkpt lat="42.42797399999995" lon="-1.2375569999999996">
        <ele>620.426</ele>
        <time>2022-06-18T11:44:02Z</time>
      </trkpt>
      <trkpt lat="42.42826599999995" lon="-1.2374889999999996">
        <ele>621.247</ele>
        <time>2022-06-18T11:44:11Z</time>
      </trkpt>
      <trkpt lat="42.42849899999995" lon="-1.2374339999999997">
        <ele>622.211</ele>
        <time>2022-06-18T11:44:18Z</time>
      </trkpt>
      <trkpt lat="42.42859799999995" lon="-1.2374069999999997">
        <ele>622.809</ele>
        <time>2022-06-18T11:44:21Z</time>
      </trkpt>
      <trkpt lat="42.42869399999995" lon="-1.2373859999999997">
        <ele>623.633</ele>
        <time>2022-06-18T11:44:24Z</time>
      </trkpt>
      <trkpt lat="42.42895599999995" lon="-1.2373279999999998">
        <ele>624.672</ele>
        <time>2022-06-18T11:44:32Z</time>
      </trkpt>
      <trkpt lat="42.42930899999995" lon="-1.2372439999999998">
        <ele>625.477</ele>
        <time>2022-06-18T11:44:43Z</time>
      </trkpt>
      <trkpt lat="42.42934199999995" lon="-1.2372319999999999">
        <ele>625.469</ele>
        <time>2022-06-18T11:44:44Z</time>
      </trkpt>
      <trkpt lat="42.42959399999995" lon="-1.2371359999999998">
        <ele>626.441</ele>
        <time>2022-06-18T11:44:52Z</time>
      </trkpt>
      <trkpt lat="42.42982499999995" lon="-1.2369829999999997">
        <ele>627.685</ele>
        <time>2022-06-18T11:45:00Z</time>
      </trkpt>
      <trkpt lat="42.429854999999954" lon="-1.2369649999999996">
        <ele>627.863</ele>
        <time>2022-06-18T11:45:01Z</time>
      </trkpt>
      <trkpt lat="42.429991999999956" lon="-1.2368449999999998">
        <ele>628.238</ele>
        <time>2022-06-18T11:45:06Z</time>
      </trkpt>
      <trkpt lat="42.43007799999996" lon="-1.2367739999999998">
        <ele>628.888</ele>
        <time>2022-06-18T11:45:09Z</time>
      </trkpt>
      <trkpt lat="42.43025399999996" lon="-1.2366319999999997">
        <ele>629.239</ele>
        <time>2022-06-18T11:45:15Z</time>
      </trkpt>
      <trkpt lat="42.43038999999996" lon="-1.2365149999999998">
        <ele>629.801</ele>
        <time>2022-06-18T11:45:20Z</time>
      </trkpt>
      <trkpt lat="42.43047699999996" lon="-1.2364559999999998">
        <ele>630.021</ele>
        <time>2022-06-18T11:45:23Z</time>
      </trkpt>
      <trkpt lat="42.43058899999996" lon="-1.2363569999999997">
        <ele>630.809</ele>
        <time>2022-06-18T11:45:27Z</time>
      </trkpt>
      <trkpt lat="42.430764999999965" lon="-1.2362219999999997">
        <ele>631.444</ele>
        <time>2022-06-18T11:45:33Z</time>
      </trkpt>
      <trkpt lat="42.43101999999997" lon="-1.2361139999999997">
        <ele>632.253</ele>
        <time>2022-06-18T11:45:41Z</time>
      </trkpt>
      <trkpt lat="42.43105399999997" lon="-1.2360989999999996">
        <ele>632.478</ele>
        <time>2022-06-18T11:45:42Z</time>
      </trkpt>
      <trkpt lat="42.43135999999997" lon="-1.2359899999999997">
        <ele>633.230</ele>
        <time>2022-06-18T11:45:51Z</time>
      </trkpt>
      <trkpt lat="42.43139399999997" lon="-1.2359809999999998">
        <ele>633.222</ele>
        <time>2022-06-18T11:45:52Z</time>
      </trkpt>
      <trkpt lat="42.43165299999997" lon="-1.2358539999999998">
        <ele>634.036</ele>
        <time>2022-06-18T11:46:00Z</time>
      </trkpt>
      <trkpt lat="42.43168599999997" lon="-1.2358369999999999">
        <ele>634.024</ele>
        <time>2022-06-18T11:46:01Z</time>
      </trkpt>
      <trkpt lat="42.43177799999997" lon="-1.2357839999999998">
        <ele>634.479</ele>
        <time>2022-06-18T11:46:04Z</time>
      </trkpt>
      <trkpt lat="42.43204799999997" lon="-1.2356109999999998">
        <ele>635.279</ele>
        <time>2022-06-18T11:46:13Z</time>
      </trkpt>
      <trkpt lat="42.432249999999975" lon="-1.2354709999999998">
        <ele>636.259</ele>
        <time>2022-06-18T11:46:20Z</time>
      </trkpt>
      <trkpt lat="42.43231099999998" lon="-1.2354239999999999">
        <ele>636.403</ele>
        <time>2022-06-18T11:46:22Z</time>
      </trkpt>
      <trkpt lat="42.43258099999998" lon="-1.2352509999999999">
        <ele>637.223</ele>
        <time>2022-06-18T11:46:31Z</time>
      </trkpt>
      <trkpt lat="42.43261899999998" lon="-1.235226">
        <ele>637.209</ele>
        <time>2022-06-18T11:46:32Z</time>
      </trkpt>
      <trkpt lat="42.43287299999998" lon="-1.235059">
        <ele>638.466</ele>
        <time>2022-06-18T11:46:40Z</time>
      </trkpt>
      <trkpt lat="42.43314399999998" lon="-1.2348949999999999">
        <ele>639.455</ele>
        <time>2022-06-18T11:46:48Z</time>
      </trkpt>
      <trkpt lat="42.43323099999998" lon="-1.23484">
        <ele>639.860</ele>
        <time>2022-06-18T11:46:51Z</time>
      </trkpt>
      <trkpt lat="42.43342399999998" lon="-1.234719">
        <ele>640.692</ele>
        <time>2022-06-18T11:46:57Z</time>
      </trkpt>
      <trkpt lat="42.43351499999998" lon="-1.2346599999999999">
        <ele>640.854</ele>
        <time>2022-06-18T11:47:00Z</time>
      </trkpt>
      <trkpt lat="42.43370699999998" lon="-1.234535">
        <ele>641.458</ele>
        <time>2022-06-18T11:47:06Z</time>
      </trkpt>
      <trkpt lat="42.433743999999976" lon="-1.23451">
        <ele>641.646</ele>
        <time>2022-06-18T11:47:07Z</time>
      </trkpt>
      <trkpt lat="42.433828999999974" lon="-1.234445">
        <ele>642.481</ele>
        <time>2022-06-18T11:47:10Z</time>
      </trkpt>
      <trkpt lat="42.433859999999974" lon="-1.234423">
        <ele>642.641</ele>
        <time>2022-06-18T11:47:11Z</time>
      </trkpt>
      <trkpt lat="42.43410299999997" lon="-1.234227">
        <ele>643.298</ele>
        <time>2022-06-18T11:47:19Z</time>
      </trkpt>
      <trkpt lat="42.43423599999997" lon="-1.23409">
        <ele>643.615</ele>
        <time>2022-06-18T11:47:24Z</time>
      </trkpt>
      <trkpt lat="42.43434499999997" lon="-1.233976">
        <ele>643.826</ele>
        <time>2022-06-18T11:47:28Z</time>
      </trkpt>
      <trkpt lat="42.43453299999997" lon="-1.2337559999999999">
        <ele>644.809</ele>
        <time>2022-06-18T11:47:35Z</time>
      </trkpt>
      <trkpt lat="42.43460699999997" lon="-1.233663">
        <ele>645.240</ele>
        <time>2022-06-18T11:47:38Z</time>
      </trkpt>
      <trkpt lat="42.43486899999997" lon="-1.2333669999999999">
        <ele>645.819</ele>
        <time>2022-06-18T11:47:48Z</time>
      </trkpt>
      <trkpt lat="42.43507799999997" lon="-1.2331349999999999">
        <ele>646.844</ele>
        <time>2022-06-18T11:47:56Z</time>
      </trkpt>
      <trkpt lat="42.43510199999997" lon="-1.233107">
        <ele>646.846</ele>
        <time>2022-06-18T11:47:57Z</time>
      </trkpt>
      <trkpt lat="42.43536899999997" lon="-1.232831">
        <ele>647.678</ele>
        <time>2022-06-18T11:48:07Z</time>
      </trkpt>
      <trkpt lat="42.435516999999976" lon="-1.232646">
        <ele>648.082</ele>
        <time>2022-06-18T11:48:13Z</time>
      </trkpt>
      <trkpt lat="42.435598999999975" lon="-1.232561">
        <ele>648.210</ele>
        <time>2022-06-18T11:48:16Z</time>
      </trkpt>
      <trkpt lat="42.43580899999998" lon="-1.232349">
        <ele>648.845</ele>
        <time>2022-06-18T11:48:24Z</time>
      </trkpt>
      <trkpt lat="42.43583599999998" lon="-1.232321">
        <ele>648.865</ele>
        <time>2022-06-18T11:48:25Z</time>
      </trkpt>
      <trkpt lat="42.43597899999998" lon="-1.232194">
        <ele>649.223</ele>
        <time>2022-06-18T11:48:30Z</time>
      </trkpt>
      <trkpt lat="42.43621099999998" lon="-1.232046">
        <ele>650.083</ele>
        <time>2022-06-18T11:48:37Z</time>
      </trkpt>
      <trkpt lat="42.43627499999998" lon="-1.232005">
        <ele>650.411</ele>
        <time>2022-06-18T11:48:39Z</time>
      </trkpt>
      <trkpt lat="42.43643099999998" lon="-1.231909">
        <ele>651.009</ele>
        <time>2022-06-18T11:48:44Z</time>
      </trkpt>
      <trkpt lat="42.43649499999998" lon="-1.2318719999999999">
        <ele>651.023</ele>
        <time>2022-06-18T11:48:46Z</time>
      </trkpt>
      <trkpt lat="42.43675099999998" lon="-1.231736">
        <ele>651.472</ele>
        <time>2022-06-18T11:48:54Z</time>
      </trkpt>
      <trkpt lat="42.43696399999998" lon="-1.231601">
        <ele>652.067</ele>
        <time>2022-06-18T11:49:01Z</time>
      </trkpt>
      <trkpt lat="42.43702399999998" lon="-1.231568">
        <ele>652.649</ele>
        <time>2022-06-18T11:49:03Z</time>
      </trkpt>
      <trkpt lat="42.43708399999998" lon="-1.231531">
        <ele>653.221</ele>
        <time>2022-06-18T11:49:05Z</time>
      </trkpt>
      <trkpt lat="42.43729199999998" lon="-1.231396">
        <ele>653.695</ele>
        <time>2022-06-18T11:49:12Z</time>
      </trkpt>
      <trkpt lat="42.43748299999998" lon="-1.231282">
        <ele>654.083</ele>
        <time>2022-06-18T11:49:18Z</time>
      </trkpt>
      <trkpt lat="42.43762599999998" lon="-1.231188">
        <ele>654.648</ele>
        <time>2022-06-18T11:49:23Z</time>
      </trkpt>
      <trkpt lat="42.43772799999998" lon="-1.231114">
        <ele>655.058</ele>
        <time>2022-06-18T11:49:27Z</time>
      </trkpt>
      <trkpt lat="42.43778899999998" lon="-1.231084">
        <ele>655.677</ele>
        <time>2022-06-18T11:49:29Z</time>
      </trkpt>
      <trkpt lat="42.43785299999998" lon="-1.2310480000000001">
        <ele>656.061</ele>
        <time>2022-06-18T11:49:31Z</time>
      </trkpt>
      <trkpt lat="42.437885999999985" lon="-1.2310280000000002">
        <ele>656.027</ele>
        <time>2022-06-18T11:49:32Z</time>
      </trkpt>
      <trkpt lat="42.43806999999998" lon="-1.2309190000000003">
        <ele>657.209</ele>
        <time>2022-06-18T11:49:38Z</time>
      </trkpt>
      <trkpt lat="42.438164999999984" lon="-1.2308610000000004">
        <ele>657.648</ele>
        <time>2022-06-18T11:49:41Z</time>
      </trkpt>
      <trkpt lat="42.43835799999999" lon="-1.2307610000000004">
        <ele>658.457</ele>
        <time>2022-06-18T11:49:47Z</time>
      </trkpt>
      <trkpt lat="42.438451999999984" lon="-1.2307120000000005">
        <ele>658.672</ele>
        <time>2022-06-18T11:49:50Z</time>
      </trkpt>
      <trkpt lat="42.43865199999998" lon="-1.2305920000000006">
        <ele>659.424</ele>
        <time>2022-06-18T11:49:57Z</time>
      </trkpt>
      <trkpt lat="42.438704999999985" lon="-1.2305580000000005">
        <ele>659.666</ele>
        <time>2022-06-18T11:49:59Z</time>
      </trkpt>
      <trkpt lat="42.43891199999999" lon="-1.2304340000000005">
        <ele>660.630</ele>
        <time>2022-06-18T11:50:06Z</time>
      </trkpt>
      <trkpt lat="42.43913599999999" lon="-1.2303020000000005">
        <ele>661.668</ele>
        <time>2022-06-18T11:50:14Z</time>
      </trkpt>
      <trkpt lat="42.43927199999999" lon="-1.2302220000000004">
        <ele>661.853</ele>
        <time>2022-06-18T11:50:19Z</time>
      </trkpt>
      <trkpt lat="42.43952499999999" lon="-1.2300720000000003">
        <ele>662.473</ele>
        <time>2022-06-18T11:50:28Z</time>
      </trkpt>
      <trkpt lat="42.43970699999999" lon="-1.2299640000000003">
        <ele>663.614</ele>
        <time>2022-06-18T11:50:35Z</time>
      </trkpt>
      <trkpt lat="42.43973499999999" lon="-1.2299520000000004">
        <ele>663.654</ele>
        <time>2022-06-18T11:50:36Z</time>
      </trkpt>
      <trkpt lat="42.43989599999999" lon="-1.2298480000000003">
        <ele>664.809</ele>
        <time>2022-06-18T11:50:42Z</time>
      </trkpt>
      <trkpt lat="42.44000799999999" lon="-1.2297920000000002">
        <ele>665.209</ele>
        <time>2022-06-18T11:50:46Z</time>
      </trkpt>
      <trkpt lat="42.44017399999999" lon="-1.2296970000000003">
        <ele>665.832</ele>
        <time>2022-06-18T11:50:52Z</time>
      </trkpt>
      <trkpt lat="42.44025499999999" lon="-1.2296460000000002">
        <ele>666.641</ele>
        <time>2022-06-18T11:50:55Z</time>
      </trkpt>
      <trkpt lat="42.44034599999999" lon="-1.2296020000000003">
        <ele>667.056</ele>
        <time>2022-06-18T11:50:58Z</time>
      </trkpt>
      <trkpt lat="42.44036699999999" lon="-1.2295900000000004">
        <ele>667.258</ele>
        <time>2022-06-18T11:50:59Z</time>
      </trkpt>
      <trkpt lat="42.44049799999999" lon="-1.2295040000000004">
        <ele>668.080</ele>
        <time>2022-06-18T11:51:04Z</time>
      </trkpt>
      <trkpt lat="42.44058199999999" lon="-1.2294540000000003">
        <ele>668.474</ele>
        <time>2022-06-18T11:51:07Z</time>
      </trkpt>
      <trkpt lat="42.44070599999999" lon="-1.2293720000000004">
        <ele>668.862</ele>
        <time>2022-06-18T11:51:12Z</time>
      </trkpt>
      <trkpt lat="42.44084499999999" lon="-1.2293030000000003">
        <ele>669.447</ele>
        <time>2022-06-18T11:51:17Z</time>
      </trkpt>
      <trkpt lat="42.44092999999999" lon="-1.2292490000000003">
        <ele>670.017</ele>
        <time>2022-06-18T11:51:20Z</time>
      </trkpt>
      <trkpt lat="42.44106199999999" lon="-1.2291650000000003">
        <ele>670.879</ele>
        <time>2022-06-18T11:51:25Z</time>
      </trkpt>
      <trkpt lat="42.44115699999999" lon="-1.2290870000000003">
        <ele>671.005</ele>
        <time>2022-06-18T11:51:29Z</time>
      </trkpt>
      <trkpt lat="42.44125799999999" lon="-1.2290080000000003">
        <ele>671.825</ele>
        <time>2022-06-18T11:51:33Z</time>
      </trkpt>
      <trkpt lat="42.44132899999999" lon="-1.2289420000000004">
        <ele>672.209</ele>
        <time>2022-06-18T11:51:36Z</time>
      </trkpt>
      <trkpt lat="42.44147199999999" lon="-1.2288000000000003">
        <ele>673.418</ele>
        <time>2022-06-18T11:51:42Z</time>
      </trkpt>
      <trkpt lat="42.44163299999999" lon="-1.2286010000000003">
        <ele>674.037</ele>
        <time>2022-06-18T11:51:49Z</time>
      </trkpt>
      <trkpt lat="42.44167699999999" lon="-1.2285510000000002">
        <ele>674.282</ele>
        <time>2022-06-18T11:51:51Z</time>
      </trkpt>
      <trkpt lat="42.441841999999994" lon="-1.2283600000000001">
        <ele>674.444</ele>
        <time>2022-06-18T11:51:58Z</time>
      </trkpt>
      <trkpt lat="42.442029999999995" lon="-1.2281510000000002">
        <ele>675.246</ele>
        <time>2022-06-18T11:52:06Z</time>
      </trkpt>
      <trkpt lat="42.442055999999994" lon="-1.2281290000000002">
        <ele>675.230</ele>
        <time>2022-06-18T11:52:07Z</time>
      </trkpt>
      <trkpt lat="42.442178999999996" lon="-1.2280040000000003">
        <ele>676.438</ele>
        <time>2022-06-18T11:52:12Z</time>
      </trkpt>
      <trkpt lat="42.442254" lon="-1.2279220000000004">
        <ele>677.033</ele>
        <time>2022-06-18T11:52:15Z</time>
      </trkpt>
      <trkpt lat="42.442581" lon="-1.2276530000000003">
        <ele>677.473</ele>
        <time>2022-06-18T11:52:27Z</time>
      </trkpt>
      <trkpt lat="42.442609999999995" lon="-1.2276340000000003">
        <ele>677.457</ele>
        <time>2022-06-18T11:52:28Z</time>
      </trkpt>
      <trkpt lat="42.442772" lon="-1.2275230000000004">
        <ele>677.800</ele>
        <time>2022-06-18T11:52:34Z</time>
      </trkpt>
      <trkpt lat="42.442979" lon="-1.2274420000000004">
        <ele>678.620</ele>
        <time>2022-06-18T11:52:41Z</time>
      </trkpt>
      <trkpt lat="42.443037000000004" lon="-1.2274140000000004">
        <ele>678.809</ele>
        <time>2022-06-18T11:52:43Z</time>
      </trkpt>
      <trkpt lat="42.443234000000004" lon="-1.2273780000000005">
        <ele>679.646</ele>
        <time>2022-06-18T11:52:50Z</time>
      </trkpt>
      <trkpt lat="42.443325" lon="-1.2273650000000005">
        <ele>679.875</ele>
        <time>2022-06-18T11:52:53Z</time>
      </trkpt>
      <trkpt lat="42.443546000000005" lon="-1.2273390000000004">
        <ele>680.650</ele>
        <time>2022-06-18T11:53:00Z</time>
      </trkpt>
      <trkpt lat="42.443566000000004" lon="-1.2273390000000004">
        <ele>680.622</ele>
        <time>2022-06-18T11:53:01Z</time>
      </trkpt>
      <trkpt lat="42.443783" lon="-1.2273490000000005">
        <ele>681.854</ele>
        <time>2022-06-18T11:53:08Z</time>
      </trkpt>
      <trkpt lat="42.443846" lon="-1.2273460000000005">
        <ele>682.048</ele>
        <time>2022-06-18T11:53:10Z</time>
      </trkpt>
      <trkpt lat="42.444097" lon="-1.2273450000000006">
        <ele>682.656</ele>
        <time>2022-06-18T11:53:18Z</time>
      </trkpt>
      <trkpt lat="42.444152" lon="-1.2273470000000006">
        <ele>682.841</ele>
        <time>2022-06-18T11:53:20Z</time>
      </trkpt>
      <trkpt lat="42.444354000000004" lon="-1.2273410000000007">
        <ele>683.631</ele>
        <time>2022-06-18T11:53:27Z</time>
      </trkpt>
      <trkpt lat="42.444417" lon="-1.2273380000000007">
        <ele>683.858</ele>
        <time>2022-06-18T11:53:29Z</time>
      </trkpt>
      <trkpt lat="42.444617" lon="-1.2273450000000008">
        <ele>684.652</ele>
        <time>2022-06-18T11:53:36Z</time>
      </trkpt>
      <trkpt lat="42.444676" lon="-1.227341000000001">
        <ele>685.017</ele>
        <time>2022-06-18T11:53:38Z</time>
      </trkpt>
      <trkpt lat="42.444914000000004" lon="-1.227337000000001">
        <ele>685.809</ele>
        <time>2022-06-18T11:53:46Z</time>
      </trkpt>
      <trkpt lat="42.445092" lon="-1.227319000000001">
        <ele>686.886</ele>
        <time>2022-06-18T11:53:52Z</time>
      </trkpt>
      <trkpt lat="42.445194" lon="-1.2273120000000008">
        <ele>687.235</ele>
        <time>2022-06-18T11:53:55Z</time>
      </trkpt>
      <trkpt lat="42.445379" lon="-1.2272630000000009">
        <ele>688.060</ele>
        <time>2022-06-18T11:54:01Z</time>
      </trkpt>
      <trkpt lat="42.445492" lon="-1.2272180000000008">
        <ele>688.222</ele>
        <time>2022-06-18T11:54:05Z</time>
      </trkpt>
      <trkpt lat="42.445762" lon="-1.2270590000000008">
        <ele>689.034</ele>
        <time>2022-06-18T11:54:14Z</time>
      </trkpt>
      <trkpt lat="42.445904" lon="-1.2269250000000007">
        <ele>689.448</ele>
        <time>2022-06-18T11:54:20Z</time>
      </trkpt>
      <trkpt lat="42.446045999999996" lon="-1.2267600000000007">
        <ele>689.846</ele>
        <time>2022-06-18T11:54:26Z</time>
      </trkpt>
      <trkpt lat="42.446101" lon="-1.2266960000000007">
        <ele>690.291</ele>
        <time>2022-06-18T11:54:29Z</time>
      </trkpt>
      <trkpt lat="42.446171" lon="-1.2266050000000006">
        <ele>690.861</ele>
        <time>2022-06-18T11:54:33Z</time>
      </trkpt>
      <trkpt lat="42.446191" lon="-1.2265820000000005">
        <ele>691.026</ele>
        <time>2022-06-18T11:54:34Z</time>
      </trkpt>
      <trkpt lat="42.44632" lon="-1.2264110000000006">
        <ele>692.047</ele>
        <time>2022-06-18T11:54:41Z</time>
      </trkpt>
      <trkpt lat="42.44636" lon="-1.2263640000000007">
        <ele>692.411</ele>
        <time>2022-06-18T11:54:43Z</time>
      </trkpt>
      <trkpt lat="42.446450999999996" lon="-1.2262450000000007">
        <ele>693.209</ele>
        <time>2022-06-18T11:54:48Z</time>
      </trkpt>
      <trkpt lat="42.446512999999996" lon="-1.2261690000000007">
        <ele>693.683</ele>
        <time>2022-06-18T11:54:51Z</time>
      </trkpt>
      <trkpt lat="42.446603999999994" lon="-1.2260500000000008">
        <ele>694.262</ele>
        <time>2022-06-18T11:54:56Z</time>
      </trkpt>
      <trkpt lat="42.446659999999994" lon="-1.2259810000000007">
        <ele>694.857</ele>
        <time>2022-06-18T11:54:59Z</time>
      </trkpt>
      <trkpt lat="42.446721" lon="-1.2259140000000006">
        <ele>695.429</ele>
        <time>2022-06-18T11:55:02Z</time>
      </trkpt>
      <trkpt lat="42.446861" lon="-1.2257830000000005">
        <ele>696.231</ele>
        <time>2022-06-18T11:55:09Z</time>
      </trkpt>
      <trkpt lat="42.446883" lon="-1.2257650000000004">
        <ele>696.245</ele>
        <time>2022-06-18T11:55:10Z</time>
      </trkpt>
      <trkpt lat="42.446989" lon="-1.2257060000000004">
        <ele>697.223</ele>
        <time>2022-06-18T11:55:15Z</time>
      </trkpt>
      <trkpt lat="42.447047000000005" lon="-1.2256920000000004">
        <ele>697.638</ele>
        <time>2022-06-18T11:55:17Z</time>
      </trkpt>
      <trkpt lat="42.44717300000001" lon="-1.2256810000000005">
        <ele>698.428</ele>
        <time>2022-06-18T11:55:22Z</time>
      </trkpt>
      <trkpt lat="42.447272000000005" lon="-1.2256980000000004">
        <ele>698.811</ele>
        <time>2022-06-18T11:55:26Z</time>
      </trkpt>
      <trkpt lat="42.44739800000001" lon="-1.2257270000000005">
        <ele>699.421</ele>
        <time>2022-06-18T11:55:31Z</time>
      </trkpt>
      <trkpt lat="42.447469000000005" lon="-1.2257460000000004">
        <ele>699.803</ele>
        <time>2022-06-18T11:55:34Z</time>
      </trkpt>
      <trkpt lat="42.447542000000006" lon="-1.2257790000000004">
        <ele>700.609</ele>
        <time>2022-06-18T11:55:37Z</time>
      </trkpt>
      <trkpt lat="42.447692" lon="-1.2258310000000003">
        <ele>701.622</ele>
        <time>2022-06-18T11:55:43Z</time>
      </trkpt>
      <trkpt lat="42.44774" lon="-1.2258450000000003">
        <ele>701.841</ele>
        <time>2022-06-18T11:55:45Z</time>
      </trkpt>
      <trkpt lat="42.44787" lon="-1.2258880000000003">
        <ele>702.826</ele>
        <time>2022-06-18T11:55:50Z</time>
      </trkpt>
      <trkpt lat="42.447942000000005" lon="-1.2259090000000004">
        <ele>703.478</ele>
        <time>2022-06-18T11:55:53Z</time>
      </trkpt>
      <trkpt lat="42.447990000000004" lon="-1.2259160000000004">
        <ele>703.890</ele>
        <time>2022-06-18T11:55:55Z</time>
      </trkpt>
      <trkpt lat="42.448016" lon="-1.2259220000000004">
        <ele>704.064</ele>
        <time>2022-06-18T11:55:56Z</time>
      </trkpt>
      <trkpt lat="42.448146" lon="-1.2259400000000005">
        <ele>704.482</ele>
        <time>2022-06-18T11:56:01Z</time>
      </trkpt>
      <trkpt lat="42.44822" lon="-1.2259330000000004">
        <ele>704.857</ele>
        <time>2022-06-18T11:56:04Z</time>
      </trkpt>
      <trkpt lat="42.448355" lon="-1.2258640000000003">
        <ele>706.027</ele>
        <time>2022-06-18T11:56:10Z</time>
      </trkpt>
      <trkpt lat="42.448451999999996" lon="-1.2257690000000003">
        <ele>707.289</ele>
        <time>2022-06-18T11:56:15Z</time>
      </trkpt>
      <trkpt lat="42.448530999999996" lon="-1.2256410000000004">
        <ele>708.206</ele>
        <time>2022-06-18T11:56:20Z</time>
      </trkpt>
      <trkpt lat="42.44857999999999" lon="-1.2255660000000004">
        <ele>708.826</ele>
        <time>2022-06-18T11:56:23Z</time>
      </trkpt>
      <trkpt lat="42.44863899999999" lon="-1.2254620000000003">
        <ele>709.409</ele>
        <time>2022-06-18T11:56:27Z</time>
      </trkpt>
      <trkpt lat="42.44869799999999" lon="-1.2253530000000004">
        <ele>710.249</ele>
        <time>2022-06-18T11:56:31Z</time>
      </trkpt>
      <trkpt lat="42.448724999999996" lon="-1.2253030000000003">
        <ele>710.678</ele>
        <time>2022-06-18T11:56:33Z</time>
      </trkpt>
      <trkpt lat="42.448786999999996" lon="-1.2251220000000003">
        <ele>711.423</ele>
        <time>2022-06-18T11:56:39Z</time>
      </trkpt>
      <trkpt lat="42.448795999999994" lon="-1.2250890000000003">
        <ele>711.665</ele>
        <time>2022-06-18T11:56:40Z</time>
      </trkpt>
      <trkpt lat="42.448859999999996" lon="-1.2248690000000002">
        <ele>712.637</ele>
        <time>2022-06-18T11:56:47Z</time>
      </trkpt>
      <trkpt lat="42.448865999999995" lon="-1.2248430000000001">
        <ele>712.841</ele>
        <time>2022-06-18T11:56:48Z</time>
      </trkpt>
      <trkpt lat="42.448947" lon="-1.2246420000000002">
        <ele>713.689</ele>
        <time>2022-06-18T11:56:55Z</time>
      </trkpt>
      <trkpt lat="42.448966" lon="-1.2246180000000002">
        <ele>713.874</ele>
        <time>2022-06-18T11:56:56Z</time>
      </trkpt>
      <trkpt lat="42.449089" lon="-1.2245510000000002">
        <ele>714.474</ele>
        <time>2022-06-18T11:57:01Z</time>
      </trkpt>
      <trkpt lat="42.449164" lon="-1.2245530000000002">
        <ele>714.874</ele>
        <time>2022-06-18T11:57:04Z</time>
      </trkpt>
      <trkpt lat="42.449277" lon="-1.2246040000000002">
        <ele>715.456</ele>
        <time>2022-06-18T11:57:09Z</time>
      </trkpt>
      <trkpt lat="42.449337" lon="-1.2246670000000002">
        <ele>716.021</ele>
        <time>2022-06-18T11:57:12Z</time>
      </trkpt>
      <trkpt lat="42.449378" lon="-1.2247510000000001">
        <ele>716.409</ele>
        <time>2022-06-18T11:57:15Z</time>
      </trkpt>
      <trkpt lat="42.449400000000004" lon="-1.224803">
        <ele>717.098</ele>
        <time>2022-06-18T11:57:17Z</time>
      </trkpt>
      <trkpt lat="42.449449" lon="-1.2250260000000002">
        <ele>717.877</ele>
        <time>2022-06-18T11:57:24Z</time>
      </trkpt>
      <trkpt lat="42.449458" lon="-1.2250940000000001">
        <ele>718.082</ele>
        <time>2022-06-18T11:57:26Z</time>
      </trkpt>
      <trkpt lat="42.449512" lon="-1.225462">
        <ele>718.834</ele>
        <time>2022-06-18T11:57:36Z</time>
      </trkpt>
      <trkpt lat="42.449540999999996" lon="-1.225726">
        <ele>719.666</ele>
        <time>2022-06-18T11:57:44Z</time>
      </trkpt>
      <trkpt lat="42.449552" lon="-1.2257930000000001">
        <ele>720.020</ele>
        <time>2022-06-18T11:57:46Z</time>
      </trkpt>
      <trkpt lat="42.449588" lon="-1.22595">
        <ele>720.698</ele>
        <time>2022-06-18T11:57:51Z</time>
      </trkpt>
      <trkpt lat="42.449619999999996" lon="-1.2260300000000002">
        <ele>721.063</ele>
        <time>2022-06-18T11:57:54Z</time>
      </trkpt>
      <trkpt lat="42.449709" lon="-1.2261240000000002">
        <ele>721.643</ele>
        <time>2022-06-18T11:57:59Z</time>
      </trkpt>
      <trkpt lat="42.449763" lon="-1.2261410000000001">
        <ele>721.868</ele>
        <time>2022-06-18T11:58:01Z</time>
      </trkpt>
      <trkpt lat="42.449915999999995" lon="-1.226185">
        <ele>723.042</ele>
        <time>2022-06-18T11:58:07Z</time>
      </trkpt>
      <trkpt lat="42.45004899999999" lon="-1.2261980000000001">
        <ele>724.026</ele>
        <time>2022-06-18T11:58:13Z</time>
      </trkpt>
      <trkpt lat="42.45006899999999" lon="-1.226199">
        <ele>724.209</ele>
        <time>2022-06-18T11:58:14Z</time>
      </trkpt>
      <trkpt lat="42.450208999999994" lon="-1.226185">
        <ele>725.077</ele>
        <time>2022-06-18T11:58:20Z</time>
      </trkpt>
      <trkpt lat="42.45025499999999" lon="-1.2261600000000001">
        <ele>725.656</ele>
        <time>2022-06-18T11:58:22Z</time>
      </trkpt>
      <trkpt lat="42.45031699999999" lon="-1.226123">
        <ele>726.221</ele>
        <time>2022-06-18T11:58:25Z</time>
      </trkpt>
      <trkpt lat="42.45043599999999" lon="-1.2260520000000001">
        <ele>727.283</ele>
        <time>2022-06-18T11:58:30Z</time>
      </trkpt>
      <trkpt lat="42.45045999999999" lon="-1.226031">
        <ele>727.295</ele>
        <time>2022-06-18T11:58:31Z</time>
      </trkpt>
      <trkpt lat="42.450585999999994" lon="-1.225926">
        <ele>728.259</ele>
        <time>2022-06-18T11:58:36Z</time>
      </trkpt>
      <trkpt lat="42.45061" lon="-1.225904">
        <ele>728.467</ele>
        <time>2022-06-18T11:58:37Z</time>
      </trkpt>
      <trkpt lat="42.450781" lon="-1.225762">
        <ele>729.262</ele>
        <time>2022-06-18T11:58:44Z</time>
      </trkpt>
      <trkpt lat="42.450806" lon="-1.22574">
        <ele>729.452</ele>
        <time>2022-06-18T11:58:45Z</time>
      </trkpt>
      <trkpt lat="42.450832" lon="-1.225719">
        <ele>729.614</ele>
        <time>2022-06-18T11:58:46Z</time>
      </trkpt>
      <trkpt lat="42.450922" lon="-1.225645">
        <ele>730.454</ele>
        <time>2022-06-18T11:58:50Z</time>
      </trkpt>
      <trkpt lat="42.45102" lon="-1.2255600000000002">
        <ele>731.209</ele>
        <time>2022-06-18T11:58:54Z</time>
      </trkpt>
      <trkpt lat="42.451062" lon="-1.2255220000000002">
        <ele>731.409</ele>
        <time>2022-06-18T11:58:56Z</time>
      </trkpt>
      <trkpt lat="42.451224" lon="-1.2253800000000001">
        <ele>732.242</ele>
        <time>2022-06-18T11:59:03Z</time>
      </trkpt>
      <trkpt lat="42.451269" lon="-1.225343">
        <ele>732.671</ele>
        <time>2022-06-18T11:59:05Z</time>
      </trkpt>
      <trkpt lat="42.451416" lon="-1.225186">
        <ele>733.456</ele>
        <time>2022-06-18T11:59:12Z</time>
      </trkpt>
      <trkpt lat="42.451440000000005" lon="-1.2251530000000002">
        <ele>733.498</ele>
        <time>2022-06-18T11:59:13Z</time>
      </trkpt>
      <trkpt lat="42.451525000000004" lon="-1.2250230000000002">
        <ele>734.460</ele>
        <time>2022-06-18T11:59:18Z</time>
      </trkpt>
      <trkpt lat="42.451541000000006" lon="-1.2249930000000002">
        <ele>734.624</ele>
        <time>2022-06-18T11:59:19Z</time>
      </trkpt>
      <trkpt lat="42.451603000000006" lon="-1.2248350000000001">
        <ele>735.432</ele>
        <time>2022-06-18T11:59:24Z</time>
      </trkpt>
      <trkpt lat="42.451638" lon="-1.224744">
        <ele>735.827</ele>
        <time>2022-06-18T11:59:27Z</time>
      </trkpt>
      <trkpt lat="42.451688000000004" lon="-1.224609">
        <ele>736.697</ele>
        <time>2022-06-18T11:59:31Z</time>
      </trkpt>
      <trkpt lat="42.451779" lon="-1.224369">
        <ele>737.256</ele>
        <time>2022-06-18T11:59:38Z</time>
      </trkpt>
      <trkpt lat="42.451817000000005" lon="-1.2242790000000001">
        <ele>737.659</ele>
        <time>2022-06-18T11:59:41Z</time>
      </trkpt>
      <trkpt lat="42.451877" lon="-1.224121">
        <ele>738.414</ele>
        <time>2022-06-18T11:59:46Z</time>
      </trkpt>
      <trkpt lat="42.451902000000004" lon="-1.224062">
        <ele>738.609</ele>
        <time>2022-06-18T11:59:48Z</time>
      </trkpt>
      <trkpt lat="42.451972000000005" lon="-1.223862">
        <ele>739.286</ele>
        <time>2022-06-18T11:59:54Z</time>
      </trkpt>
      <trkpt lat="42.452000000000005" lon="-1.223795">
        <ele>739.885</ele>
        <time>2022-06-18T11:59:56Z</time>
      </trkpt>
      <trkpt lat="42.45210300000001" lon="-1.223566">
        <ele>740.820</ele>
        <time>2022-06-18T12:00:03Z</time>
      </trkpt>
      <trkpt lat="42.45212200000001" lon="-1.22353">
        <ele>740.822</ele>
        <time>2022-06-18T12:00:04Z</time>
      </trkpt>
      <trkpt lat="42.45220300000001" lon="-1.223385">
        <ele>741.854</ele>
        <time>2022-06-18T12:00:09Z</time>
      </trkpt>
      <trkpt lat="42.45227100000001" lon="-1.223276">
        <ele>742.488</ele>
        <time>2022-06-18T12:00:13Z</time>
      </trkpt>
      <trkpt lat="42.45230400000001" lon="-1.223224">
        <ele>742.846</ele>
        <time>2022-06-18T12:00:15Z</time>
      </trkpt>
      <trkpt lat="42.45241100000001" lon="-1.223073">
        <ele>743.851</ele>
        <time>2022-06-18T12:00:21Z</time>
      </trkpt>
      <trkpt lat="42.45244800000001" lon="-1.223025">
        <ele>744.221</ele>
        <time>2022-06-18T12:00:23Z</time>
      </trkpt>
      <trkpt lat="42.45252200000001" lon="-1.222927">
        <ele>745.046</ele>
        <time>2022-06-18T12:00:27Z</time>
      </trkpt>
      <trkpt lat="42.45258000000001" lon="-1.222847">
        <ele>745.688</ele>
        <time>2022-06-18T12:00:30Z</time>
      </trkpt>
      <trkpt lat="42.452649000000015" lon="-1.222749">
        <ele>746.016</ele>
        <time>2022-06-18T12:00:34Z</time>
      </trkpt>
      <trkpt lat="42.45272700000002" lon="-1.222639">
        <ele>746.809</ele>
        <time>2022-06-18T12:00:39Z</time>
      </trkpt>
      <trkpt lat="42.452745000000014" lon="-1.222617">
        <ele>747.265</ele>
        <time>2022-06-18T12:00:40Z</time>
      </trkpt>
      <trkpt lat="42.45283700000002" lon="-1.222504">
        <ele>748.284</ele>
        <time>2022-06-18T12:00:44Z</time>
      </trkpt>
      <trkpt lat="42.452886000000014" lon="-1.222428">
        <ele>748.689</ele>
        <time>2022-06-18T12:00:47Z</time>
      </trkpt>
      <trkpt lat="42.452945000000014" lon="-1.2223680000000001">
        <ele>749.281</ele>
        <time>2022-06-18T12:00:50Z</time>
      </trkpt>
      <trkpt lat="42.453038000000014" lon="-1.22225">
        <ele>750.053</ele>
        <time>2022-06-18T12:00:56Z</time>
      </trkpt>
      <trkpt lat="42.453144000000016" lon="-1.222091">
        <ele>750.857</ele>
        <time>2022-06-18T12:01:02Z</time>
      </trkpt>
      <trkpt lat="42.453161000000016" lon="-1.222067">
        <ele>751.265</ele>
        <time>2022-06-18T12:01:03Z</time>
      </trkpt>
      <trkpt lat="42.453265000000016" lon="-1.221876">
        <ele>752.280</ele>
        <time>2022-06-18T12:01:10Z</time>
      </trkpt>
      <trkpt lat="42.453293000000016" lon="-1.221819">
        <ele>752.640</ele>
        <time>2022-06-18T12:01:12Z</time>
      </trkpt>
      <trkpt lat="42.45333700000002" lon="-1.221705">
        <ele>753.413</ele>
        <time>2022-06-18T12:01:16Z</time>
      </trkpt>
      <trkpt lat="42.45336100000002" lon="-1.221613">
        <ele>753.843</ele>
        <time>2022-06-18T12:01:19Z</time>
      </trkpt>
      <trkpt lat="42.453380000000024" lon="-1.221456">
        <ele>754.407</ele>
        <time>2022-06-18T12:01:24Z</time>
      </trkpt>
      <trkpt lat="42.45340300000002" lon="-1.2212740000000002">
        <ele>754.809</ele>
        <time>2022-06-18T12:01:30Z</time>
      </trkpt>
      <trkpt lat="42.45340700000002" lon="-1.2212140000000002">
        <ele>755.432</ele>
        <time>2022-06-18T12:01:33Z</time>
      </trkpt>
      <trkpt lat="42.45346700000002" lon="-1.2210120000000002">
        <ele>756.281</ele>
        <time>2022-06-18T12:01:39Z</time>
      </trkpt>
      <trkpt lat="42.45348400000002" lon="-1.2209870000000003">
        <ele>756.476</ele>
        <time>2022-06-18T12:01:40Z</time>
      </trkpt>
      <trkpt lat="42.45358800000002" lon="-1.2209000000000003">
        <ele>757.248</ele>
        <time>2022-06-18T12:01:45Z</time>
      </trkpt>
      <trkpt lat="42.453631000000016" lon="-1.2208750000000004">
        <ele>757.480</ele>
        <time>2022-06-18T12:01:47Z</time>
      </trkpt>
      <trkpt lat="42.45374800000002" lon="-1.2208750000000004">
        <ele>758.274</ele>
        <time>2022-06-18T12:01:52Z</time>
      </trkpt>
      <trkpt lat="42.45381300000002" lon="-1.2208830000000004">
        <ele>758.622</ele>
        <time>2022-06-18T12:01:55Z</time>
      </trkpt>
      <trkpt lat="42.45397000000002" lon="-1.2209480000000004">
        <ele>759.847</ele>
        <time>2022-06-18T12:02:02Z</time>
      </trkpt>
      <trkpt lat="42.45399300000002" lon="-1.2209610000000004">
        <ele>759.897</ele>
        <time>2022-06-18T12:02:03Z</time>
      </trkpt>
      <trkpt lat="42.45415300000002" lon="-1.2210160000000003">
        <ele>760.835</ele>
        <time>2022-06-18T12:02:10Z</time>
      </trkpt>
      <trkpt lat="42.45415300000002" lon="-1.2210160000000003">
        <ele>760.886</ele>
        <time>2022-06-18T12:02:11Z</time>
      </trkpt>
      <trkpt lat="42.45433700000002" lon="-1.2210640000000004">
        <ele>761.414</ele>
        <time>2022-06-18T12:02:18Z</time>
      </trkpt>
      <trkpt lat="42.45436100000002" lon="-1.2210650000000003">
        <ele>761.809</ele>
        <time>2022-06-18T12:02:20Z</time>
      </trkpt>
      <trkpt lat="42.45455000000002" lon="-1.2210780000000003">
        <ele>762.864</ele>
        <time>2022-06-18T12:02:27Z</time>
      </trkpt>
      <trkpt lat="42.45461800000002" lon="-1.2210640000000004">
        <ele>763.413</ele>
        <time>2022-06-18T12:02:30Z</time>
      </trkpt>
      <trkpt lat="42.454684000000015" lon="-1.2210480000000004">
        <ele>763.828</ele>
        <time>2022-06-18T12:02:33Z</time>
      </trkpt>
      <trkpt lat="42.45482600000001" lon="-1.2210050000000003">
        <ele>764.660</ele>
        <time>2022-06-18T12:02:39Z</time>
      </trkpt>
      <trkpt lat="42.454870000000014" lon="-1.2209810000000003">
        <ele>765.062</ele>
        <time>2022-06-18T12:02:41Z</time>
      </trkpt>
      <trkpt lat="42.45499700000001" lon="-1.2209210000000004">
        <ele>766.236</ele>
        <time>2022-06-18T12:02:47Z</time>
      </trkpt>
      <trkpt lat="42.45499700000001" lon="-1.2209210000000004">
        <ele>766.274</ele>
        <time>2022-06-18T12:02:48Z</time>
      </trkpt>
      <trkpt lat="42.45512200000001" lon="-1.2208250000000003">
        <ele>767.069</ele>
        <time>2022-06-18T12:02:54Z</time>
      </trkpt>
      <trkpt lat="42.45515300000001" lon="-1.2207900000000003">
        <ele>767.479</ele>
        <time>2022-06-18T12:02:56Z</time>
      </trkpt>
      <trkpt lat="42.45524300000001" lon="-1.2206880000000002">
        <ele>768.021</ele>
        <time>2022-06-18T12:03:02Z</time>
      </trkpt>
      <trkpt lat="42.45533600000001" lon="-1.2205470000000003">
        <ele>769.241</ele>
        <time>2022-06-18T12:03:09Z</time>
      </trkpt>
      <trkpt lat="42.45543100000001" lon="-1.2203630000000003">
        <ele>770.205</ele>
        <time>2022-06-18T12:03:17Z</time>
      </trkpt>
      <trkpt lat="42.45544000000001" lon="-1.2203440000000003">
        <ele>770.609</ele>
        <time>2022-06-18T12:03:19Z</time>
      </trkpt>
      <trkpt lat="42.45548000000001" lon="-1.2201890000000004">
        <ele>771.483</ele>
        <time>2022-06-18T12:03:24Z</time>
      </trkpt>
      <trkpt lat="42.455487000000005" lon="-1.2201620000000004">
        <ele>771.632</ele>
        <time>2022-06-18T12:03:25Z</time>
      </trkpt>
      <trkpt lat="42.45553700000001" lon="-1.2200010000000003">
        <ele>772.437</ele>
        <time>2022-06-18T12:03:31Z</time>
      </trkpt>
      <trkpt lat="42.45556100000001" lon="-1.2199240000000002">
        <ele>773.049</ele>
        <time>2022-06-18T12:03:35Z</time>
      </trkpt>
      <trkpt lat="42.45559100000001" lon="-1.2197940000000003">
        <ele>773.611</ele>
        <time>2022-06-18T12:03:39Z</time>
      </trkpt>
      <trkpt lat="42.45561100000001" lon="-1.2197400000000003">
        <ele>773.845</ele>
        <time>2022-06-18T12:03:41Z</time>
      </trkpt>
      <trkpt lat="42.45566100000001" lon="-1.2195830000000003">
        <ele>774.473</ele>
        <time>2022-06-18T12:03:47Z</time>
      </trkpt>
      <trkpt lat="42.45567900000001" lon="-1.2195300000000002">
        <ele>774.848</ele>
        <time>2022-06-18T12:03:49Z</time>
      </trkpt>
      <trkpt lat="42.45572200000001" lon="-1.2194300000000002">
        <ele>775.628</ele>
        <time>2022-06-18T12:03:54Z</time>
      </trkpt>
      <trkpt lat="42.45578000000001" lon="-1.2192840000000003">
        <ele>776.623</ele>
        <time>2022-06-18T12:04:00Z</time>
      </trkpt>
      <trkpt lat="42.45581500000001" lon="-1.2192490000000002">
        <ele>776.683</ele>
        <time>2022-06-18T12:04:01Z</time>
      </trkpt>
      <trkpt lat="42.45591300000001" lon="-1.2192130000000003">
        <ele>777.211</ele>
        <time>2022-06-18T12:04:05Z</time>
      </trkpt>
      <trkpt lat="42.45606700000001" lon="-1.2192640000000003">
        <ele>777.609</ele>
        <time>2022-06-18T12:04:11Z</time>
      </trkpt>
      <trkpt lat="42.45608500000001" lon="-1.2192850000000004">
        <ele>777.853</ele>
        <time>2022-06-18T12:04:12Z</time>
      </trkpt>
      <trkpt lat="42.456213000000005" lon="-1.2194690000000004">
        <ele>777.832</ele>
        <time>2022-06-18T12:04:19Z</time>
      </trkpt>
      <trkpt lat="42.456359000000006" lon="-1.2196430000000003">
        <ele>778.247</ele>
        <time>2022-06-18T12:04:27Z</time>
      </trkpt>
      <trkpt lat="42.456509000000004" lon="-1.2198140000000002">
        <ele>778.439</ele>
        <time>2022-06-18T12:04:35Z</time>
      </trkpt>
      <trkpt lat="42.456531000000005" lon="-1.2198400000000003">
        <ele>778.861</ele>
        <time>2022-06-18T12:04:36Z</time>
      </trkpt>
      <trkpt lat="42.456661000000004" lon="-1.2199780000000002">
        <ele>779.655</ele>
        <time>2022-06-18T12:04:43Z</time>
      </trkpt>
      <trkpt lat="42.45670200000001" lon="-1.2200070000000003">
        <ele>779.813</ele>
        <time>2022-06-18T12:04:45Z</time>
      </trkpt>
      <trkpt lat="42.45682300000001" lon="-1.2200870000000004">
        <ele>780.268</ele>
        <time>2022-06-18T12:04:51Z</time>
      </trkpt>
      <trkpt lat="42.456891000000006" lon="-1.2201110000000004">
        <ele>780.888</ele>
        <time>2022-06-18T12:04:55Z</time>
      </trkpt>
      <trkpt lat="42.457013" lon="-1.2201000000000004">
        <ele>781.464</ele>
        <time>2022-06-18T12:04:59Z</time>
      </trkpt>
      <trkpt lat="42.457061" lon="-1.2200900000000003">
        <ele>781.806</ele>
        <time>2022-06-18T12:05:01Z</time>
      </trkpt>
      <trkpt lat="42.457218000000005" lon="-1.2200250000000004">
        <ele>782.816</ele>
        <time>2022-06-18T12:05:08Z</time>
      </trkpt>
      <trkpt lat="42.457311000000004" lon="-1.2199560000000003">
        <ele>784.009</ele>
        <time>2022-06-18T12:05:13Z</time>
      </trkpt>
      <trkpt lat="42.457330000000006" lon="-1.2199420000000003">
        <ele>784.017</ele>
        <time>2022-06-18T12:05:14Z</time>
      </trkpt>
      <trkpt lat="42.457435000000004" lon="-1.2198780000000002">
        <ele>785.276</ele>
        <time>2022-06-18T12:05:19Z</time>
      </trkpt>
      <trkpt lat="42.457517" lon="-1.2198330000000002">
        <ele>785.811</ele>
        <time>2022-06-18T12:05:23Z</time>
      </trkpt>
      <trkpt lat="42.457556000000004" lon="-1.2198080000000002">
        <ele>786.283</ele>
        <time>2022-06-18T12:05:25Z</time>
      </trkpt>
      <trkpt lat="42.457665000000006" lon="-1.2197270000000002">
        <ele>787.265</ele>
        <time>2022-06-18T12:05:31Z</time>
      </trkpt>
      <trkpt lat="42.45770400000001" lon="-1.2197010000000001">
        <ele>787.249</ele>
        <time>2022-06-18T12:05:33Z</time>
      </trkpt>
      <trkpt lat="42.45782400000001" lon="-1.21961">
        <ele>788.257</ele>
        <time>2022-06-18T12:05:39Z</time>
      </trkpt>
      <trkpt lat="42.45784000000001" lon="-1.219599">
        <ele>788.252</ele>
        <time>2022-06-18T12:05:40Z</time>
      </trkpt>
      <trkpt lat="42.45786300000001" lon="-1.219583">
        <ele>788.422</ele>
        <time>2022-06-18T12:05:41Z</time>
      </trkpt>
      <trkpt lat="42.45796900000001" lon="-1.219491">
        <ele>789.293</ele>
        <time>2022-06-18T12:05:47Z</time>
      </trkpt>
      <trkpt lat="42.45798700000001" lon="-1.219478">
        <ele>789.465</ele>
        <time>2022-06-18T12:05:48Z</time>
      </trkpt>
      <trkpt lat="42.45808700000001" lon="-1.219355">
        <ele>790.421</ele>
        <time>2022-06-18T12:05:54Z</time>
      </trkpt>
      <trkpt lat="42.45810400000001" lon="-1.219335">
        <ele>790.609</ele>
        <time>2022-06-18T12:05:55Z</time>
      </trkpt>
      <trkpt lat="42.458227000000015" lon="-1.219205">
        <ele>791.410</ele>
        <time>2022-06-18T12:06:02Z</time>
      </trkpt>
      <trkpt lat="42.45824000000002" lon="-1.219192">
        <ele>791.699</ele>
        <time>2022-06-18T12:06:03Z</time>
      </trkpt>
      <trkpt lat="42.45832400000002" lon="-1.2190830000000001">
        <ele>792.674</ele>
        <time>2022-06-18T12:06:08Z</time>
      </trkpt>
      <trkpt lat="42.45833800000002" lon="-1.219068">
        <ele>792.856</ele>
        <time>2022-06-18T12:06:09Z</time>
      </trkpt>
      <trkpt lat="42.45842800000002" lon="-1.2189480000000001">
        <ele>793.668</ele>
        <time>2022-06-18T12:06:15Z</time>
      </trkpt>
      <trkpt lat="42.458446000000016" lon="-1.2189240000000001">
        <ele>793.812</ele>
        <time>2022-06-18T12:06:16Z</time>
      </trkpt>
      <trkpt lat="42.45851300000002" lon="-1.2188560000000002">
        <ele>794.670</ele>
        <time>2022-06-18T12:06:21Z</time>
      </trkpt>
      <trkpt lat="42.45864000000002" lon="-1.2187020000000002">
        <ele>795.865</ele>
        <time>2022-06-18T12:06:28Z</time>
      </trkpt>
      <trkpt lat="42.458663000000016" lon="-1.218652">
        <ele>796.235</ele>
        <time>2022-06-18T12:06:30Z</time>
      </trkpt>
      <trkpt lat="42.458742000000015" lon="-1.21855">
        <ele>797.072</ele>
        <time>2022-06-18T12:06:35Z</time>
      </trkpt>
      <trkpt lat="42.458796000000014" lon="-1.218494">
        <ele>797.413</ele>
        <time>2022-06-18T12:06:38Z</time>
      </trkpt>
      <trkpt lat="42.45887300000001" lon="-1.2184409999999999">
        <ele>797.814</ele>
        <time>2022-06-18T12:06:42Z</time>
      </trkpt>
      <trkpt lat="42.45893600000001" lon="-1.2184249999999999">
        <ele>798.009</ele>
        <time>2022-06-18T12:06:45Z</time>
      </trkpt>
      <trkpt lat="42.45904300000001" lon="-1.2184439999999999">
        <ele>799.088</ele>
        <time>2022-06-18T12:06:50Z</time>
      </trkpt>
      <trkpt lat="42.45908700000001" lon="-1.218459">
        <ele>799.647</ele>
        <time>2022-06-18T12:06:53Z</time>
      </trkpt>
      <trkpt lat="42.45926800000001" lon="-1.218539">
        <ele>800.242</ele>
        <time>2022-06-18T12:07:00Z</time>
      </trkpt>
      <trkpt lat="42.45932600000001" lon="-1.218564">
        <ele>800.664</ele>
        <time>2022-06-18T12:07:03Z</time>
      </trkpt>
      <trkpt lat="42.45949600000001" lon="-1.218626">
        <ele>801.066</ele>
        <time>2022-06-18T12:07:11Z</time>
      </trkpt>
      <trkpt lat="42.45953500000001" lon="-1.218633">
        <ele>801.460</ele>
        <time>2022-06-18T12:07:13Z</time>
      </trkpt>
      <trkpt lat="42.45962800000001" lon="-1.218641">
        <ele>802.048</ele>
        <time>2022-06-18T12:07:17Z</time>
      </trkpt>
      <trkpt lat="42.45962800000001" lon="-1.218641">
        <ele>802.033</ele>
        <time>2022-06-18T12:07:18Z</time>
      </trkpt>
      <trkpt lat="42.45967100000001" lon="-1.218644">
        <ele>802.273</ele>
        <time>2022-06-18T12:07:19Z</time>
      </trkpt>
      <trkpt lat="42.45975500000001" lon="-1.218641">
        <ele>803.231</ele>
        <time>2022-06-18T12:07:23Z</time>
      </trkpt>
      <trkpt lat="42.45977700000001" lon="-1.2186350000000001">
        <ele>803.661</ele>
        <time>2022-06-18T12:07:25Z</time>
      </trkpt>
      <trkpt lat="42.45990400000001" lon="-1.218587">
        <ele>804.407</ele>
        <time>2022-06-18T12:07:30Z</time>
      </trkpt>
      <trkpt lat="42.45994700000001" lon="-1.2185650000000001">
        <ele>804.809</ele>
        <time>2022-06-18T12:07:32Z</time>
      </trkpt>
      <trkpt lat="42.46001100000001" lon="-1.218539">
        <ele>805.444</ele>
        <time>2022-06-18T12:07:35Z</time>
      </trkpt>
      <trkpt lat="42.46008900000001" lon="-1.218497">
        <ele>805.693</ele>
        <time>2022-06-18T12:07:39Z</time>
      </trkpt>
      <trkpt lat="42.46025200000001" lon="-1.218432">
        <ele>806.448</ele>
        <time>2022-06-18T12:07:46Z</time>
      </trkpt>
      <trkpt lat="42.46043900000001" lon="-1.218368">
        <ele>807.270</ele>
        <time>2022-06-18T12:07:54Z</time>
      </trkpt>
      <trkpt lat="42.46046200000001" lon="-1.2183629999999999">
        <ele>807.472</ele>
        <time>2022-06-18T12:07:55Z</time>
      </trkpt>
      <trkpt lat="42.46059900000001" lon="-1.218373">
        <ele>808.056</ele>
        <time>2022-06-18T12:08:01Z</time>
      </trkpt>
      <trkpt lat="42.46070500000001" lon="-1.218407">
        <ele>808.444</ele>
        <time>2022-06-18T12:08:06Z</time>
      </trkpt>
      <trkpt lat="42.46078500000001" lon="-1.218431">
        <ele>809.059</ele>
        <time>2022-06-18T12:08:10Z</time>
      </trkpt>
      <trkpt lat="42.460859000000006" lon="-1.218456">
        <ele>809.479</ele>
        <time>2022-06-18T12:08:13Z</time>
      </trkpt>
      <trkpt lat="42.460997000000006" lon="-1.218474">
        <ele>809.845</ele>
        <time>2022-06-18T12:08:19Z</time>
      </trkpt>
      <trkpt lat="42.46117300000001" lon="-1.218453">
        <ele>810.247</ele>
        <time>2022-06-18T12:08:27Z</time>
      </trkpt>
      <trkpt lat="42.46132200000001" lon="-1.218431">
        <ele>811.211</ele>
        <time>2022-06-18T12:08:34Z</time>
      </trkpt>
      <trkpt lat="42.46136600000001" lon="-1.218435">
        <ele>811.409</ele>
        <time>2022-06-18T12:08:36Z</time>
      </trkpt>
      <trkpt lat="42.461523000000014" lon="-1.218457">
        <ele>812.475</ele>
        <time>2022-06-18T12:08:43Z</time>
      </trkpt>
      <trkpt lat="42.46156300000001" lon="-1.218472">
        <ele>812.664</ele>
        <time>2022-06-18T12:08:45Z</time>
      </trkpt>
      <trkpt lat="42.46165100000001" lon="-1.21855">
        <ele>813.269</ele>
        <time>2022-06-18T12:08:50Z</time>
      </trkpt>
      <trkpt lat="42.461706000000014" lon="-1.218606">
        <ele>813.491</ele>
        <time>2022-06-18T12:08:53Z</time>
      </trkpt>
      <trkpt lat="42.461720000000014" lon="-1.218626">
        <ele>813.633</ele>
        <time>2022-06-18T12:08:54Z</time>
      </trkpt>
      <trkpt lat="42.461748000000014" lon="-1.218669">
        <ele>813.897</ele>
        <time>2022-06-18T12:08:56Z</time>
      </trkpt>
      <trkpt lat="42.461858000000014" lon="-1.218847">
        <ele>814.825</ele>
        <time>2022-06-18T12:09:04Z</time>
      </trkpt>
      <trkpt lat="42.46187000000001" lon="-1.218872">
        <ele>814.660</ele>
        <time>2022-06-18T12:09:05Z</time>
      </trkpt>
      <trkpt lat="42.46195000000001" lon="-1.219071">
        <ele>815.470</ele>
        <time>2022-06-18T12:09:13Z</time>
      </trkpt>
      <trkpt lat="42.46195800000001" lon="-1.219099">
        <ele>815.856</ele>
        <time>2022-06-18T12:09:14Z</time>
      </trkpt>
      <trkpt lat="42.46202000000001" lon="-1.2192479999999999">
        <ele>816.859</ele>
        <time>2022-06-18T12:09:20Z</time>
      </trkpt>
      <trkpt lat="42.46205400000001" lon="-1.2193189999999998">
        <ele>817.414</ele>
        <time>2022-06-18T12:09:23Z</time>
      </trkpt>
      <trkpt lat="42.46206700000001" lon="-1.219342">
        <ele>818.009</ele>
        <time>2022-06-18T12:09:24Z</time>
      </trkpt>
      <trkpt lat="42.46215100000001" lon="-1.219441">
        <ele>819.046</ele>
        <time>2022-06-18T12:09:30Z</time>
      </trkpt>
      <trkpt lat="42.46226200000001" lon="-1.219456">
        <ele>820.235</ele>
        <time>2022-06-18T12:09:36Z</time>
      </trkpt>
      <trkpt lat="42.46230200000001" lon="-1.2194340000000001">
        <ele>820.420</ele>
        <time>2022-06-18T12:09:38Z</time>
      </trkpt>
      <trkpt lat="42.46233600000001" lon="-1.219402">
        <ele>820.652</ele>
        <time>2022-06-18T12:09:40Z</time>
      </trkpt>
      <trkpt lat="42.46236700000001" lon="-1.2193310000000002">
        <ele>820.894</ele>
        <time>2022-06-18T12:09:43Z</time>
      </trkpt>
      <trkpt lat="42.46236700000001" lon="-1.2193310000000002">
        <ele>821.098</ele>
        <time>2022-06-18T12:09:44Z</time>
      </trkpt>
      <trkpt lat="42.462368000000005" lon="-1.2191420000000002">
        <ele>822.026</ele>
        <time>2022-06-18T12:09:50Z</time>
      </trkpt>
      <trkpt lat="42.46236100000001" lon="-1.219116">
        <ele>822.271</ele>
        <time>2022-06-18T12:09:51Z</time>
      </trkpt>
      <trkpt lat="42.46231200000001" lon="-1.2189">
        <ele>823.211</ele>
        <time>2022-06-18T12:09:59Z</time>
      </trkpt>
      <trkpt lat="42.46228300000001" lon="-1.2187910000000002">
        <ele>824.415</ele>
        <time>2022-06-18T12:10:04Z</time>
      </trkpt>
      <trkpt lat="42.462266000000014" lon="-1.2186850000000002">
        <ele>824.865</ele>
        <time>2022-06-18T12:10:07Z</time>
      </trkpt>
      <trkpt lat="42.462274000000015" lon="-1.2185270000000001">
        <ele>825.411</ele>
        <time>2022-06-18T12:10:13Z</time>
      </trkpt>
      <trkpt lat="42.462285000000016" lon="-1.218447">
        <ele>825.609</ele>
        <time>2022-06-18T12:10:16Z</time>
      </trkpt>
      <trkpt lat="42.46230100000002" lon="-1.218312">
        <ele>826.432</ele>
        <time>2022-06-18T12:10:21Z</time>
      </trkpt>
      <trkpt lat="42.46231500000002" lon="-1.2182300000000001">
        <ele>827.421</ele>
        <time>2022-06-18T12:10:24Z</time>
      </trkpt>
      <trkpt lat="42.46232000000002" lon="-1.218204">
        <ele>827.856</ele>
        <time>2022-06-18T12:10:25Z</time>
      </trkpt>
      <trkpt lat="42.46231800000002" lon="-1.218039">
        <ele>828.458</ele>
        <time>2022-06-18T12:10:31Z</time>
      </trkpt>
      <trkpt lat="42.462296000000016" lon="-1.217989">
        <ele>828.830</ele>
        <time>2022-06-18T12:10:33Z</time>
      </trkpt>
      <trkpt lat="42.46225900000002" lon="-1.217904">
        <ele>829.484</ele>
        <time>2022-06-18T12:10:37Z</time>
      </trkpt>
      <trkpt lat="42.46224100000002" lon="-1.217891">
        <ele>829.412</ele>
        <time>2022-06-18T12:10:38Z</time>
      </trkpt>
      <trkpt lat="42.46218700000002" lon="-1.217845">
        <ele>830.057</ele>
        <time>2022-06-18T12:10:41Z</time>
      </trkpt>
      <trkpt lat="42.46209100000002" lon="-1.2177850000000001">
        <ele>831.067</ele>
        <time>2022-06-18T12:10:46Z</time>
      </trkpt>
      <trkpt lat="42.462073000000025" lon="-1.2177730000000002">
        <ele>831.013</ele>
        <time>2022-06-18T12:10:47Z</time>
      </trkpt>
      <trkpt lat="42.461910000000024" lon="-1.2177380000000002">
        <ele>831.843</ele>
        <time>2022-06-18T12:10:55Z</time>
      </trkpt>
      <trkpt lat="42.46187400000002" lon="-1.2177190000000002">
        <ele>832.007</ele>
        <time>2022-06-18T12:10:57Z</time>
      </trkpt>
      <trkpt lat="42.461814000000025" lon="-1.2176490000000002">
        <ele>832.409</ele>
        <time>2022-06-18T12:11:01Z</time>
      </trkpt>
      <trkpt lat="42.46174200000002" lon="-1.2175160000000003">
        <ele>833.072</ele>
        <time>2022-06-18T12:11:07Z</time>
      </trkpt>
      <trkpt lat="42.46173600000002" lon="-1.2174900000000002">
        <ele>833.261</ele>
        <time>2022-06-18T12:11:08Z</time>
      </trkpt>
      <trkpt lat="42.461735000000026" lon="-1.2173520000000002">
        <ele>834.426</ele>
        <time>2022-06-18T12:11:13Z</time>
      </trkpt>
      <trkpt lat="42.461746000000026" lon="-1.2173010000000002">
        <ele>835.068</ele>
        <time>2022-06-18T12:11:15Z</time>
      </trkpt>
      <trkpt lat="42.46180500000003" lon="-1.2171540000000003">
        <ele>835.460</ele>
        <time>2022-06-18T12:11:21Z</time>
      </trkpt>
      <trkpt lat="42.46183800000003" lon="-1.2171230000000004">
        <ele>835.674</ele>
        <time>2022-06-18T12:11:23Z</time>
      </trkpt>
      <trkpt lat="42.46195100000003" lon="-1.2170810000000003">
        <ele>836.472</ele>
        <time>2022-06-18T12:11:29Z</time>
      </trkpt>
      <trkpt lat="42.46199500000003" lon="-1.2170870000000003">
        <ele>836.667</ele>
        <time>2022-06-18T12:11:31Z</time>
      </trkpt>
      <trkpt lat="42.46215800000003" lon="-1.2171120000000002">
        <ele>837.637</ele>
        <time>2022-06-18T12:11:38Z</time>
      </trkpt>
      <trkpt lat="42.46217700000003" lon="-1.2171140000000003">
        <ele>837.473</ele>
        <time>2022-06-18T12:11:39Z</time>
      </trkpt>
      <trkpt lat="42.46232600000003" lon="-1.2170870000000003">
        <ele>838.285</ele>
        <time>2022-06-18T12:11:46Z</time>
      </trkpt>
      <trkpt lat="42.462345000000035" lon="-1.2170770000000002">
        <ele>838.413</ele>
        <time>2022-06-18T12:11:47Z</time>
      </trkpt>
      <trkpt lat="42.46249000000004" lon="-1.21697">
        <ele>839.609</ele>
        <time>2022-06-18T12:11:55Z</time>
      </trkpt>
      <trkpt lat="42.46250700000004" lon="-1.2169530000000002">
        <ele>839.628</ele>
        <time>2022-06-18T12:11:56Z</time>
      </trkpt>
      <trkpt lat="42.46255800000004" lon="-1.2168660000000002">
        <ele>840.677</ele>
        <time>2022-06-18T12:12:00Z</time>
      </trkpt>
      <trkpt lat="42.46261300000004" lon="-1.2168150000000002">
        <ele>841.232</ele>
        <time>2022-06-18T12:12:03Z</time>
      </trkpt>
      <trkpt lat="42.46264400000004" lon="-1.2167830000000002">
        <ele>841.814</ele>
        <time>2022-06-18T12:12:05Z</time>
      </trkpt>
      <trkpt lat="42.46272900000004" lon="-1.2166290000000002">
        <ele>842.636</ele>
        <time>2022-06-18T12:12:12Z</time>
      </trkpt>
      <trkpt lat="42.46278800000004" lon="-1.216433">
        <ele>843.650</ele>
        <time>2022-06-18T12:12:19Z</time>
      </trkpt>
      <trkpt lat="42.46280300000004" lon="-1.216374">
        <ele>844.088</ele>
        <time>2022-06-18T12:12:21Z</time>
      </trkpt>
      <trkpt lat="42.46288400000004" lon="-1.216258">
        <ele>844.213</ele>
        <time>2022-06-18T12:12:27Z</time>
      </trkpt>
      <trkpt lat="42.46290400000004" lon="-1.216248">
        <ele>844.463</ele>
        <time>2022-06-18T12:12:28Z</time>
      </trkpt>
      <trkpt lat="42.462936000000035" lon="-1.216244">
        <ele>844.461</ele>
        <time>2022-06-18T12:12:30Z</time>
      </trkpt>
      <trkpt lat="42.462978000000035" lon="-1.216253">
        <ele>844.421</ele>
        <time>2022-06-18T12:12:32Z</time>
      </trkpt>
      <trkpt lat="42.46305300000004" lon="-1.216334">
        <ele>844.613</ele>
        <time>2022-06-18T12:12:38Z</time>
      </trkpt>
      <trkpt lat="42.46305300000004" lon="-1.216334">
        <ele>844.609</ele>
        <time>2022-06-18T12:12:40Z</time>
      </trkpt>
      <trkpt lat="42.46296300000004" lon="-1.216401">
        <ele>848.087</ele>
        <time>2022-06-18T12:28:02Z</time>
      </trkpt>
      <trkpt lat="42.46297900000004" lon="-1.21641">
        <ele>848.066</ele>
        <time>2022-06-18T12:28:03Z</time>
      </trkpt>
      <trkpt lat="42.46300300000004" lon="-1.216428">
        <ele>848.051</ele>
        <time>2022-06-18T12:28:05Z</time>
      </trkpt>
      <trkpt lat="42.46306500000004" lon="-1.216496">
        <ele>848.083</ele>
        <time>2022-06-18T12:28:08Z</time>
      </trkpt>
      <trkpt lat="42.46322000000004" lon="-1.216701">
        <ele>847.885</ele>
        <time>2022-06-18T12:28:14Z</time>
      </trkpt>
      <trkpt lat="42.46336900000004" lon="-1.2170400000000001">
        <ele>847.459</ele>
        <time>2022-06-18T12:28:20Z</time>
      </trkpt>
      <trkpt lat="42.46338600000004" lon="-1.2170960000000002">
        <ele>847.027</ele>
        <time>2022-06-18T12:28:21Z</time>
      </trkpt>
      <trkpt lat="42.463461000000045" lon="-1.2173250000000002">
        <ele>845.622</ele>
        <time>2022-06-18T12:28:24Z</time>
      </trkpt>
      <trkpt lat="42.46352700000004" lon="-1.2175280000000002">
        <ele>845.082</ele>
        <time>2022-06-18T12:28:27Z</time>
      </trkpt>
      <trkpt lat="42.46359800000004" lon="-1.2177810000000002">
        <ele>844.286</ele>
        <time>2022-06-18T12:28:30Z</time>
      </trkpt>
      <trkpt lat="42.46366600000004" lon="-1.2179300000000002">
        <ele>844.060</ele>
        <time>2022-06-18T12:28:32Z</time>
      </trkpt>
      <trkpt lat="42.46376400000004" lon="-1.218042">
        <ele>843.626</ele>
        <time>2022-06-18T12:28:34Z</time>
      </trkpt>
      <trkpt lat="42.46388600000004" lon="-1.218118">
        <ele>843.409</ele>
        <time>2022-06-18T12:28:36Z</time>
      </trkpt>
      <trkpt lat="42.464081000000036" lon="-1.218192">
        <ele>842.849</ele>
        <time>2022-06-18T12:28:39Z</time>
      </trkpt>
      <trkpt lat="42.464149000000035" lon="-1.2182089999999999">
        <ele>842.458</ele>
        <time>2022-06-18T12:28:40Z</time>
      </trkpt>
      <trkpt lat="42.46428500000003" lon="-1.2182439999999999">
        <ele>841.853</ele>
        <time>2022-06-18T12:28:42Z</time>
      </trkpt>
      <trkpt lat="42.46435100000003" lon="-1.218276">
        <ele>841.825</ele>
        <time>2022-06-18T12:28:43Z</time>
      </trkpt>
      <trkpt lat="42.464414000000026" lon="-1.218327">
        <ele>841.667</ele>
        <time>2022-06-18T12:28:44Z</time>
      </trkpt>
      <trkpt lat="42.46451500000003" lon="-1.218476">
        <ele>841.431</ele>
        <time>2022-06-18T12:28:46Z</time>
      </trkpt>
      <trkpt lat="42.464536000000024" lon="-1.2186759999999999">
        <ele>841.079</ele>
        <time>2022-06-18T12:28:48Z</time>
      </trkpt>
      <trkpt lat="42.46452900000003" lon="-1.21878">
        <ele>840.664</ele>
        <time>2022-06-18T12:28:49Z</time>
      </trkpt>
      <trkpt lat="42.46452200000003" lon="-1.218887">
        <ele>840.654</ele>
        <time>2022-06-18T12:28:50Z</time>
      </trkpt>
      <trkpt lat="42.46454200000003" lon="-1.219103">
        <ele>840.235</ele>
        <time>2022-06-18T12:28:52Z</time>
      </trkpt>
      <trkpt lat="42.46460900000003" lon="-1.2192960000000002">
        <ele>839.886</ele>
        <time>2022-06-18T12:28:54Z</time>
      </trkpt>
      <trkpt lat="42.46465900000003" lon="-1.219378">
        <ele>839.414</ele>
        <time>2022-06-18T12:28:55Z</time>
      </trkpt>
      <trkpt lat="42.46483900000003" lon="-1.219597">
        <ele>838.409</ele>
        <time>2022-06-18T12:28:58Z</time>
      </trkpt>
      <trkpt lat="42.46497400000003" lon="-1.219716">
        <ele>837.624</ele>
        <time>2022-06-18T12:29:00Z</time>
      </trkpt>
      <trkpt lat="42.46504500000003" lon="-1.219764">
        <ele>837.273</ele>
        <time>2022-06-18T12:29:01Z</time>
      </trkpt>
      <trkpt lat="42.46519500000003" lon="-1.219843">
        <ele>836.888</ele>
        <time>2022-06-18T12:29:03Z</time>
      </trkpt>
      <trkpt lat="42.46525700000003" lon="-1.219859">
        <ele>836.630</ele>
        <time>2022-06-18T12:29:04Z</time>
      </trkpt>
      <trkpt lat="42.46535200000003" lon="-1.219871">
        <ele>836.652</ele>
        <time>2022-06-18T12:29:05Z</time>
      </trkpt>
      <trkpt lat="42.46559400000003" lon="-1.219851">
        <ele>836.056</ele>
        <time>2022-06-18T12:29:08Z</time>
      </trkpt>
      <trkpt lat="42.46567500000003" lon="-1.219831">
        <ele>835.874</ele>
        <time>2022-06-18T12:29:09Z</time>
      </trkpt>
      <trkpt lat="42.46591500000003" lon="-1.2197440000000002">
        <ele>835.679</ele>
        <time>2022-06-18T12:29:12Z</time>
      </trkpt>
      <trkpt lat="42.46599600000003" lon="-1.2197170000000002">
        <ele>835.629</ele>
        <time>2022-06-18T12:29:13Z</time>
      </trkpt>
      <trkpt lat="42.466158000000036" lon="-1.2196550000000002">
        <ele>834.872</ele>
        <time>2022-06-18T12:29:15Z</time>
      </trkpt>
      <trkpt lat="42.46639400000004" lon="-1.2195310000000001">
        <ele>834.213</ele>
        <time>2022-06-18T12:29:18Z</time>
      </trkpt>
      <trkpt lat="42.46646600000004" lon="-1.2194730000000003">
        <ele>833.814</ele>
        <time>2022-06-18T12:29:19Z</time>
      </trkpt>
      <trkpt lat="42.46660500000004" lon="-1.2193450000000003">
        <ele>832.809</ele>
        <time>2022-06-18T12:29:21Z</time>
      </trkpt>
      <trkpt lat="42.46668100000004" lon="-1.2192920000000003">
        <ele>832.698</ele>
        <time>2022-06-18T12:29:22Z</time>
      </trkpt>
      <trkpt lat="42.466848000000034" lon="-1.2192070000000004">
        <ele>832.477</ele>
        <time>2022-06-18T12:29:24Z</time>
      </trkpt>
      <trkpt lat="42.46723200000003" lon="-1.2191090000000004">
        <ele>832.252</ele>
        <time>2022-06-18T12:29:28Z</time>
      </trkpt>
      <trkpt lat="42.46756100000003" lon="-1.2190480000000004">
        <ele>831.424</ele>
        <time>2022-06-18T12:29:31Z</time>
      </trkpt>
      <trkpt lat="42.46776900000003" lon="-1.2189980000000002">
        <ele>831.276</ele>
        <time>2022-06-18T12:29:33Z</time>
      </trkpt>
      <trkpt lat="42.46814300000003" lon="-1.2188820000000002">
        <ele>830.030</ele>
        <time>2022-06-18T12:29:36Z</time>
      </trkpt>
      <trkpt lat="42.468382000000034" lon="-1.2187930000000002">
        <ele>828.658</ele>
        <time>2022-06-18T12:29:38Z</time>
      </trkpt>
      <trkpt lat="42.468502000000036" lon="-1.2187450000000002">
        <ele>827.893</ele>
        <time>2022-06-18T12:29:39Z</time>
      </trkpt>
      <trkpt lat="42.468621000000034" lon="-1.2186940000000002">
        <ele>826.643</ele>
        <time>2022-06-18T12:29:40Z</time>
      </trkpt>
      <trkpt lat="42.46885900000004" lon="-1.2185930000000003">
        <ele>824.227</ele>
        <time>2022-06-18T12:29:42Z</time>
      </trkpt>
      <trkpt lat="42.46897900000004" lon="-1.2185480000000002">
        <ele>822.668</ele>
        <time>2022-06-18T12:29:43Z</time>
      </trkpt>
      <trkpt lat="42.46910100000004" lon="-1.2185090000000003">
        <ele>820.814</ele>
        <time>2022-06-18T12:29:44Z</time>
      </trkpt>
      <trkpt lat="42.469350000000034" lon="-1.2184500000000003">
        <ele>818.809</ele>
        <time>2022-06-18T12:29:46Z</time>
      </trkpt>
      <trkpt lat="42.46959800000003" lon="-1.2184070000000002">
        <ele>817.863</ele>
        <time>2022-06-18T12:29:48Z</time>
      </trkpt>
      <trkpt lat="42.469851000000034" lon="-1.2183750000000002">
        <ele>816.222</ele>
        <time>2022-06-18T12:29:50Z</time>
      </trkpt>
      <trkpt lat="42.470104000000035" lon="-1.2183490000000001">
        <ele>815.067</ele>
        <time>2022-06-18T12:29:52Z</time>
      </trkpt>
      <trkpt lat="42.47022600000003" lon="-1.218336">
        <ele>814.439</ele>
        <time>2022-06-18T12:29:53Z</time>
      </trkpt>
      <trkpt lat="42.47035100000003" lon="-1.218323">
        <ele>813.631</ele>
        <time>2022-06-18T12:29:54Z</time>
      </trkpt>
      <trkpt lat="42.47072000000003" lon="-1.218282">
        <ele>812.635</ele>
        <time>2022-06-18T12:29:57Z</time>
      </trkpt>
      <trkpt lat="42.470842000000026" lon="-1.218258">
        <ele>812.243</ele>
        <time>2022-06-18T12:29:58Z</time>
      </trkpt>
      <trkpt lat="42.470955000000025" lon="-1.2182060000000001">
        <ele>811.858</ele>
        <time>2022-06-18T12:29:59Z</time>
      </trkpt>
      <trkpt lat="42.471053000000026" lon="-1.2181220000000001">
        <ele>811.888</ele>
        <time>2022-06-18T12:30:00Z</time>
      </trkpt>
      <trkpt lat="42.471143000000026" lon="-1.2180240000000002">
        <ele>811.426</ele>
        <time>2022-06-18T12:30:01Z</time>
      </trkpt>
      <trkpt lat="42.471228000000025" lon="-1.2179190000000002">
        <ele>811.047</ele>
        <time>2022-06-18T12:30:02Z</time>
      </trkpt>
      <trkpt lat="42.47139600000003" lon="-1.2177000000000002">
        <ele>810.211</ele>
        <time>2022-06-18T12:30:04Z</time>
      </trkpt>
      <trkpt lat="42.47168800000003" lon="-1.2174160000000003">
        <ele>808.409</ele>
        <time>2022-06-18T12:30:07Z</time>
      </trkpt>
      <trkpt lat="42.471796000000026" lon="-1.2173300000000002">
        <ele>807.883</ele>
        <time>2022-06-18T12:30:08Z</time>
      </trkpt>
      <trkpt lat="42.47201400000002" lon="-1.2171670000000003">
        <ele>807.282</ele>
        <time>2022-06-18T12:30:10Z</time>
      </trkpt>
      <trkpt lat="42.472230000000025" lon="-1.2170100000000004">
        <ele>806.887</ele>
        <time>2022-06-18T12:30:12Z</time>
      </trkpt>
      <trkpt lat="42.472452000000025" lon="-1.2168810000000003">
        <ele>805.879</ele>
        <time>2022-06-18T12:30:14Z</time>
      </trkpt>
      <trkpt lat="42.47266800000003" lon="-1.2168060000000003">
        <ele>804.281</ele>
        <time>2022-06-18T12:30:16Z</time>
      </trkpt>
      <trkpt lat="42.472773000000025" lon="-1.2167970000000004">
        <ele>803.085</ele>
        <time>2022-06-18T12:30:17Z</time>
      </trkpt>
      <trkpt lat="42.47287000000002" lon="-1.2168240000000003">
        <ele>800.883</ele>
        <time>2022-06-18T12:30:18Z</time>
      </trkpt>
      <trkpt lat="42.47295000000002" lon="-1.2168820000000002">
        <ele>798.678</ele>
        <time>2022-06-18T12:30:19Z</time>
      </trkpt>
      <trkpt lat="42.473013000000016" lon="-1.2169570000000003">
        <ele>797.638</ele>
        <time>2022-06-18T12:30:20Z</time>
      </trkpt>
      <trkpt lat="42.47302000000001" lon="-1.2170440000000002">
        <ele>797.048</ele>
        <time>2022-06-18T12:30:21Z</time>
      </trkpt>
      <trkpt lat="42.47294800000001" lon="-1.2172160000000003">
        <ele>796.461</ele>
        <time>2022-06-18T12:30:23Z</time>
      </trkpt>
      <trkpt lat="42.47287000000001" lon="-1.2172780000000003">
        <ele>796.417</ele>
        <time>2022-06-18T12:30:24Z</time>
      </trkpt>
      <trkpt lat="42.472685000000006" lon="-1.2173700000000003">
        <ele>795.809</ele>
        <time>2022-06-18T12:30:26Z</time>
      </trkpt>
      <trkpt lat="42.472502000000006" lon="-1.2174730000000002">
        <ele>795.475</ele>
        <time>2022-06-18T12:30:28Z</time>
      </trkpt>
      <trkpt lat="42.47233000000001" lon="-1.2176080000000002">
        <ele>794.814</ele>
        <time>2022-06-18T12:30:30Z</time>
      </trkpt>
      <trkpt lat="42.47224800000001" lon="-1.2176850000000004">
        <ele>794.469</ele>
        <time>2022-06-18T12:30:31Z</time>
      </trkpt>
      <trkpt lat="42.47217200000001" lon="-1.2177660000000003">
        <ele>794.051</ele>
        <time>2022-06-18T12:30:32Z</time>
      </trkpt>
      <trkpt lat="42.47203700000001" lon="-1.2179580000000003">
        <ele>793.643</ele>
        <time>2022-06-18T12:30:34Z</time>
      </trkpt>
      <trkpt lat="42.47192600000001" lon="-1.2181710000000003">
        <ele>792.847</ele>
        <time>2022-06-18T12:30:36Z</time>
      </trkpt>
      <trkpt lat="42.47184200000001" lon="-1.2183980000000003">
        <ele>791.655</ele>
        <time>2022-06-18T12:30:38Z</time>
      </trkpt>
      <trkpt lat="42.47180700000001" lon="-1.2185190000000004">
        <ele>790.460</ele>
        <time>2022-06-18T12:30:39Z</time>
      </trkpt>
      <trkpt lat="42.47178300000001" lon="-1.2186420000000004">
        <ele>789.430</ele>
        <time>2022-06-18T12:30:40Z</time>
      </trkpt>
      <trkpt lat="42.471759000000006" lon="-1.2188700000000003">
        <ele>788.296</ele>
        <time>2022-06-18T12:30:42Z</time>
      </trkpt>
      <trkpt lat="42.47175300000001" lon="-1.2190250000000002">
        <ele>787.831</ele>
        <time>2022-06-18T12:30:43Z</time>
      </trkpt>
      <trkpt lat="42.47177700000001" lon="-1.2192950000000002">
        <ele>787.424</ele>
        <time>2022-06-18T12:30:45Z</time>
      </trkpt>
      <trkpt lat="42.47183800000001" lon="-1.2195500000000001">
        <ele>787.009</ele>
        <time>2022-06-18T12:30:47Z</time>
      </trkpt>
      <trkpt lat="42.47193200000001" lon="-1.2197840000000002">
        <ele>786.050</ele>
        <time>2022-06-18T12:30:49Z</time>
      </trkpt>
      <trkpt lat="42.47198000000001" lon="-1.2199050000000002">
        <ele>785.449</ele>
        <time>2022-06-18T12:30:50Z</time>
      </trkpt>
      <trkpt lat="42.47205300000001" lon="-1.2201650000000002">
        <ele>784.064</ele>
        <time>2022-06-18T12:30:52Z</time>
      </trkpt>
      <trkpt lat="42.47205700000001" lon="-1.2203050000000002">
        <ele>783.446</ele>
        <time>2022-06-18T12:30:53Z</time>
      </trkpt>
      <trkpt lat="42.47203100000001" lon="-1.2204350000000002">
        <ele>782.468</ele>
        <time>2022-06-18T12:30:54Z</time>
      </trkpt>
      <trkpt lat="42.471984000000006" lon="-1.2205510000000002">
        <ele>782.442</ele>
        <time>2022-06-18T12:30:55Z</time>
      </trkpt>
      <trkpt lat="42.47192400000001" lon="-1.2206550000000003">
        <ele>781.420</ele>
        <time>2022-06-18T12:30:56Z</time>
      </trkpt>
      <trkpt lat="42.47186200000001" lon="-1.2207500000000002">
        <ele>780.825</ele>
        <time>2022-06-18T12:30:57Z</time>
      </trkpt>
      <trkpt lat="42.47179400000001" lon="-1.2208350000000001">
        <ele>780.265</ele>
        <time>2022-06-18T12:30:58Z</time>
      </trkpt>
      <trkpt lat="42.471725000000006" lon="-1.220906">
        <ele>779.618</ele>
        <time>2022-06-18T12:30:59Z</time>
      </trkpt>
      <trkpt lat="42.47164500000001" lon="-1.22096">
        <ele>779.298</ele>
        <time>2022-06-18T12:31:00Z</time>
      </trkpt>
      <trkpt lat="42.47147900000001" lon="-1.221026">
        <ele>777.217</ele>
        <time>2022-06-18T12:31:02Z</time>
      </trkpt>
      <trkpt lat="42.47138900000001" lon="-1.2210459999999999">
        <ele>775.809</ele>
        <time>2022-06-18T12:31:03Z</time>
      </trkpt>
      <trkpt lat="42.47121200000001" lon="-1.221067">
        <ele>774.632</ele>
        <time>2022-06-18T12:31:05Z</time>
      </trkpt>
      <trkpt lat="42.471036000000005" lon="-1.221063">
        <ele>773.811</ele>
        <time>2022-06-18T12:31:07Z</time>
      </trkpt>
      <trkpt lat="42.470868" lon="-1.221038">
        <ele>773.446</ele>
        <time>2022-06-18T12:31:09Z</time>
      </trkpt>
      <trkpt lat="42.470705" lon="-1.2210070000000002">
        <ele>772.048</ele>
        <time>2022-06-18T12:31:11Z</time>
      </trkpt>
      <trkpt lat="42.470615" lon="-1.221008">
        <ele>771.680</ele>
        <time>2022-06-18T12:31:12Z</time>
      </trkpt>
      <trkpt lat="42.470217000000005" lon="-1.2210940000000001">
        <ele>770.624</ele>
        <time>2022-06-18T12:31:17Z</time>
      </trkpt>
      <trkpt lat="42.470139" lon="-1.2211180000000001">
        <ele>770.492</ele>
        <time>2022-06-18T12:31:18Z</time>
      </trkpt>
      <trkpt lat="42.469819" lon="-1.2212020000000001">
        <ele>769.617</ele>
        <time>2022-06-18T12:31:22Z</time>
      </trkpt>
      <trkpt lat="42.469746" lon="-1.2212310000000002">
        <ele>769.617</ele>
        <time>2022-06-18T12:31:23Z</time>
      </trkpt>
      <trkpt lat="42.469688" lon="-1.2212850000000002">
        <ele>769.449</ele>
        <time>2022-06-18T12:31:24Z</time>
      </trkpt>
      <trkpt lat="42.46966" lon="-1.2213630000000002">
        <ele>769.202</ele>
        <time>2022-06-18T12:31:25Z</time>
      </trkpt>
      <trkpt lat="42.469653" lon="-1.2214530000000001">
        <ele>769.022</ele>
        <time>2022-06-18T12:31:26Z</time>
      </trkpt>
      <trkpt lat="42.469675" lon="-1.2215360000000002">
        <ele>769.009</ele>
        <time>2022-06-18T12:31:27Z</time>
      </trkpt>
      <trkpt lat="42.469711000000004" lon="-1.221602">
        <ele>769.075</ele>
        <time>2022-06-18T12:31:28Z</time>
      </trkpt>
      <trkpt lat="42.469773" lon="-1.2216440000000002">
        <ele>768.814</ele>
        <time>2022-06-18T12:31:29Z</time>
      </trkpt>
      <trkpt lat="42.469924000000006" lon="-1.221715">
        <ele>768.689</ele>
        <time>2022-06-18T12:31:31Z</time>
      </trkpt>
      <trkpt lat="42.470017000000006" lon="-1.221773">
        <ele>768.641</ele>
        <time>2022-06-18T12:31:32Z</time>
      </trkpt>
      <trkpt lat="42.470259000000006" lon="-1.221933">
        <ele>768.073</ele>
        <time>2022-06-18T12:31:35Z</time>
      </trkpt>
      <trkpt lat="42.47054500000001" lon="-1.2221309999999999">
        <ele>767.477</ele>
        <time>2022-06-18T12:31:38Z</time>
      </trkpt>
      <trkpt lat="42.47075100000001" lon="-1.2222639999999998">
        <ele>766.825</ele>
        <time>2022-06-18T12:31:40Z</time>
      </trkpt>
      <trkpt lat="42.470966000000004" lon="-1.222414">
        <ele>766.030</ele>
        <time>2022-06-18T12:31:42Z</time>
      </trkpt>
      <trkpt lat="42.471191000000005" lon="-1.222554">
        <ele>763.880</ele>
        <time>2022-06-18T12:31:44Z</time>
      </trkpt>
      <trkpt lat="42.471296" lon="-1.2226299999999999">
        <ele>763.022</ele>
        <time>2022-06-18T12:31:45Z</time>
      </trkpt>
      <trkpt lat="42.471387" lon="-1.222718">
        <ele>762.462</ele>
        <time>2022-06-18T12:31:46Z</time>
      </trkpt>
      <trkpt lat="42.471451" lon="-1.2228269999999999">
        <ele>761.608</ele>
        <time>2022-06-18T12:31:47Z</time>
      </trkpt>
      <trkpt lat="42.471483" lon="-1.2229539999999999">
        <ele>760.009</ele>
        <time>2022-06-18T12:31:48Z</time>
      </trkpt>
      <trkpt lat="42.471479" lon="-1.2230869999999998">
        <ele>758.223</ele>
        <time>2022-06-18T12:31:49Z</time>
      </trkpt>
      <trkpt lat="42.471465" lon="-1.2232119999999997">
        <ele>756.222</ele>
        <time>2022-06-18T12:31:50Z</time>
      </trkpt>
      <trkpt lat="42.471399000000005" lon="-1.2234629999999997">
        <ele>755.227</ele>
        <time>2022-06-18T12:31:52Z</time>
      </trkpt>
      <trkpt lat="42.471368000000005" lon="-1.2235759999999998">
        <ele>753.879</ele>
        <time>2022-06-18T12:31:53Z</time>
      </trkpt>
      <trkpt lat="42.471348000000006" lon="-1.2237809999999998">
        <ele>752.471</ele>
        <time>2022-06-18T12:31:55Z</time>
      </trkpt>
      <trkpt lat="42.471416000000005" lon="-1.2239069999999999">
        <ele>752.095</ele>
        <time>2022-06-18T12:31:57Z</time>
      </trkpt>
      <trkpt lat="42.471479" lon="-1.2239189999999998">
        <ele>751.233</ele>
        <time>2022-06-18T12:31:58Z</time>
      </trkpt>
      <trkpt lat="42.471551000000005" lon="-1.2238879999999999">
        <ele>750.628</ele>
        <time>2022-06-18T12:31:59Z</time>
      </trkpt>
      <trkpt lat="42.471676" lon="-1.2237429999999998">
        <ele>750.078</ele>
        <time>2022-06-18T12:32:01Z</time>
      </trkpt>
      <trkpt lat="42.471805" lon="-1.223445">
        <ele>748.824</ele>
        <time>2022-06-18T12:32:04Z</time>
      </trkpt>
      <trkpt lat="42.471958" lon="-1.223102">
        <ele>747.204</ele>
        <time>2022-06-18T12:32:07Z</time>
      </trkpt>
      <trkpt lat="42.472013000000004" lon="-1.22298">
        <ele>746.014</ele>
        <time>2022-06-18T12:32:08Z</time>
      </trkpt>
      <trkpt lat="42.472069000000005" lon="-1.222852">
        <ele>744.609</ele>
        <time>2022-06-18T12:32:09Z</time>
      </trkpt>
      <trkpt lat="42.472184000000006" lon="-1.222593">
        <ele>743.473</ele>
        <time>2022-06-18T12:32:11Z</time>
      </trkpt>
      <trkpt lat="42.472263000000005" lon="-1.2224730000000001">
        <ele>743.032</ele>
        <time>2022-06-18T12:32:12Z</time>
      </trkpt>
      <trkpt lat="42.472455000000004" lon="-1.2222600000000001">
        <ele>742.267</ele>
        <time>2022-06-18T12:32:14Z</time>
      </trkpt>
      <trkpt lat="42.472565" lon="-1.2221760000000002">
        <ele>741.469</ele>
        <time>2022-06-18T12:32:15Z</time>
      </trkpt>
      <trkpt lat="42.472687" lon="-1.2221110000000002">
        <ele>740.811</ele>
        <time>2022-06-18T12:32:16Z</time>
      </trkpt>
      <trkpt lat="42.472944" lon="-1.222034">
        <ele>739.465</ele>
        <time>2022-06-18T12:32:18Z</time>
      </trkpt>
      <trkpt lat="42.473348" lon="-1.221946">
        <ele>737.643</ele>
        <time>2022-06-18T12:32:21Z</time>
      </trkpt>
      <trkpt lat="42.473489" lon="-1.2219119999999999">
        <ele>736.468</ele>
        <time>2022-06-18T12:32:22Z</time>
      </trkpt>
      <trkpt lat="42.47363" lon="-1.221881">
        <ele>735.098</ele>
        <time>2022-06-18T12:32:23Z</time>
      </trkpt>
      <trkpt lat="42.473776" lon="-1.221851">
        <ele>734.247</ele>
        <time>2022-06-18T12:32:24Z</time>
      </trkpt>
      <trkpt lat="42.473915" lon="-1.2218040000000001">
        <ele>733.229</ele>
        <time>2022-06-18T12:32:25Z</time>
      </trkpt>
      <trkpt lat="42.47405" lon="-1.221743">
        <ele>732.221</ele>
        <time>2022-06-18T12:32:26Z</time>
      </trkpt>
      <trkpt lat="42.47418" lon="-1.22166">
        <ele>731.209</ele>
        <time>2022-06-18T12:32:27Z</time>
      </trkpt>
      <trkpt lat="42.474297" lon="-1.221554">
        <ele>730.095</ele>
        <time>2022-06-18T12:32:28Z</time>
      </trkpt>
      <trkpt lat="42.474394" lon="-1.22142">
        <ele>728.634</ele>
        <time>2022-06-18T12:32:29Z</time>
      </trkpt>
      <trkpt lat="42.474486999999996" lon="-1.221274">
        <ele>727.469</ele>
        <time>2022-06-18T12:32:30Z</time>
      </trkpt>
      <trkpt lat="42.474577999999994" lon="-1.221121">
        <ele>726.261</ele>
        <time>2022-06-18T12:32:31Z</time>
      </trkpt>
      <trkpt lat="42.474847" lon="-1.2206569999999999">
        <ele>725.033</ele>
        <time>2022-06-18T12:32:34Z</time>
      </trkpt>
      <trkpt lat="42.47503" lon="-1.2203499999999998">
        <ele>724.077</ele>
        <time>2022-06-18T12:32:36Z</time>
      </trkpt>
      <trkpt lat="42.4753" lon="-1.2199119999999999">
        <ele>722.445</ele>
        <time>2022-06-18T12:32:39Z</time>
      </trkpt>
      <trkpt lat="42.475403" lon="-1.21979">
        <ele>722.060</ele>
        <time>2022-06-18T12:32:40Z</time>
      </trkpt>
      <trkpt lat="42.475519" lon="-1.21969">
        <ele>721.410</ele>
        <time>2022-06-18T12:32:41Z</time>
      </trkpt>
      <trkpt lat="42.475645" lon="-1.2196069999999999">
        <ele>720.656</ele>
        <time>2022-06-18T12:32:42Z</time>
      </trkpt>
      <trkpt lat="42.47578" lon="-1.219541">
        <ele>720.259</ele>
        <time>2022-06-18T12:32:43Z</time>
      </trkpt>
      <trkpt lat="42.476212000000004" lon="-1.219403">
        <ele>718.814</ele>
        <time>2022-06-18T12:32:46Z</time>
      </trkpt>
      <trkpt lat="42.476359" lon="-1.219382">
        <ele>718.809</ele>
        <time>2022-06-18T12:32:47Z</time>
      </trkpt>
      <trkpt lat="42.476651000000004" lon="-1.219354">
        <ele>717.466</ele>
        <time>2022-06-18T12:32:49Z</time>
      </trkpt>
      <trkpt lat="42.47679600000001" lon="-1.219331">
        <ele>716.225</ele>
        <time>2022-06-18T12:32:50Z</time>
      </trkpt>
      <trkpt lat="42.476943000000006" lon="-1.2192969999999999">
        <ele>715.060</ele>
        <time>2022-06-18T12:32:51Z</time>
      </trkpt>
      <trkpt lat="42.477087000000004" lon="-1.21925">
        <ele>713.822</ele>
        <time>2022-06-18T12:32:52Z</time>
      </trkpt>
      <trkpt lat="42.477229" lon="-1.219192">
        <ele>712.244</ele>
        <time>2022-06-18T12:32:53Z</time>
      </trkpt>
      <trkpt lat="42.477362" lon="-1.219116">
        <ele>710.028</ele>
        <time>2022-06-18T12:32:54Z</time>
      </trkpt>
      <trkpt lat="42.477488" lon="-1.2190230000000002">
        <ele>707.056</ele>
        <time>2022-06-18T12:32:55Z</time>
      </trkpt>
      <trkpt lat="42.477608000000004" lon="-1.2189250000000003">
        <ele>705.281</ele>
        <time>2022-06-18T12:32:56Z</time>
      </trkpt>
      <trkpt lat="42.477729000000004" lon="-1.2188350000000003">
        <ele>703.221</ele>
        <time>2022-06-18T12:32:57Z</time>
      </trkpt>
      <trkpt lat="42.477855000000005" lon="-1.2187640000000004">
        <ele>702.022</ele>
        <time>2022-06-18T12:32:58Z</time>
      </trkpt>
      <trkpt lat="42.477983" lon="-1.2187220000000003">
        <ele>700.862</ele>
        <time>2022-06-18T12:32:59Z</time>
      </trkpt>
      <trkpt lat="42.478117000000005" lon="-1.2187180000000004">
        <ele>699.808</ele>
        <time>2022-06-18T12:33:00Z</time>
      </trkpt>
      <trkpt lat="42.478249000000005" lon="-1.2187450000000004">
        <ele>699.209</ele>
        <time>2022-06-18T12:33:01Z</time>
      </trkpt>
      <trkpt lat="42.478509" lon="-1.2188270000000003">
        <ele>698.673</ele>
        <time>2022-06-18T12:33:03Z</time>
      </trkpt>
      <trkpt lat="42.478642" lon="-1.2188510000000004">
        <ele>698.652</ele>
        <time>2022-06-18T12:33:04Z</time>
      </trkpt>
      <trkpt lat="42.478775" lon="-1.2188450000000004">
        <ele>698.477</ele>
        <time>2022-06-18T12:33:05Z</time>
      </trkpt>
      <trkpt lat="42.478902" lon="-1.2188080000000003">
        <ele>698.239</ele>
        <time>2022-06-18T12:33:06Z</time>
      </trkpt>
      <trkpt lat="42.479022" lon="-1.2187410000000003">
        <ele>697.851</ele>
        <time>2022-06-18T12:33:07Z</time>
      </trkpt>
      <trkpt lat="42.479131" lon="-1.2186550000000003">
        <ele>697.235</ele>
        <time>2022-06-18T12:33:08Z</time>
      </trkpt>
      <trkpt lat="42.479237000000005" lon="-1.2185590000000002">
        <ele>695.663</ele>
        <time>2022-06-18T12:33:09Z</time>
      </trkpt>
      <trkpt lat="42.479344000000005" lon="-1.2184640000000002">
        <ele>694.078</ele>
        <time>2022-06-18T12:33:10Z</time>
      </trkpt>
      <trkpt lat="42.479452" lon="-1.2183700000000002">
        <ele>692.438</ele>
        <time>2022-06-18T12:33:11Z</time>
      </trkpt>
      <trkpt lat="42.479561000000004" lon="-1.2182870000000001">
        <ele>691.466</ele>
        <time>2022-06-18T12:33:12Z</time>
      </trkpt>
      <trkpt lat="42.479676000000005" lon="-1.218231">
        <ele>690.829</ele>
        <time>2022-06-18T12:33:13Z</time>
      </trkpt>
      <trkpt lat="42.479800000000004" lon="-1.2182110000000002">
        <ele>690.221</ele>
        <time>2022-06-18T12:33:14Z</time>
      </trkpt>
      <trkpt lat="42.480049" lon="-1.2182750000000002">
        <ele>690.009</ele>
        <time>2022-06-18T12:33:16Z</time>
      </trkpt>
      <trkpt lat="42.480167" lon="-1.2183550000000003">
        <ele>689.637</ele>
        <time>2022-06-18T12:33:17Z</time>
      </trkpt>
      <trkpt lat="42.48064" lon="-1.2186420000000002">
        <ele>688.846</ele>
        <time>2022-06-18T12:33:21Z</time>
      </trkpt>
      <trkpt lat="42.480771000000004" lon="-1.2186630000000003">
        <ele>688.631</ele>
        <time>2022-06-18T12:33:22Z</time>
      </trkpt>
      <trkpt lat="42.480904" lon="-1.2186640000000002">
        <ele>688.253</ele>
        <time>2022-06-18T12:33:23Z</time>
      </trkpt>
      <trkpt lat="42.48116" lon="-1.2186620000000001">
        <ele>687.095</ele>
        <time>2022-06-18T12:33:25Z</time>
      </trkpt>
      <trkpt lat="42.481286000000004" lon="-1.2186830000000002">
        <ele>686.259</ele>
        <time>2022-06-18T12:33:26Z</time>
      </trkpt>
      <trkpt lat="42.481412000000006" lon="-1.2187200000000002">
        <ele>685.027</ele>
        <time>2022-06-18T12:33:27Z</time>
      </trkpt>
      <trkpt lat="42.481534" lon="-1.2187700000000004">
        <ele>683.872</ele>
        <time>2022-06-18T12:33:28Z</time>
      </trkpt>
      <trkpt lat="42.481659" lon="-1.2188210000000004">
        <ele>683.032</ele>
        <time>2022-06-18T12:33:29Z</time>
      </trkpt>
      <trkpt lat="42.481785" lon="-1.2188670000000004">
        <ele>681.893</ele>
        <time>2022-06-18T12:33:30Z</time>
      </trkpt>
      <trkpt lat="42.482040000000005" lon="-1.2189500000000004">
        <ele>680.865</ele>
        <time>2022-06-18T12:33:32Z</time>
      </trkpt>
      <trkpt lat="42.482656000000006" lon="-1.2191710000000004">
        <ele>679.621</ele>
        <time>2022-06-18T12:33:37Z</time>
      </trkpt>
      <trkpt lat="42.482778" lon="-1.2192120000000004">
        <ele>678.609</ele>
        <time>2022-06-18T12:33:38Z</time>
      </trkpt>
      <trkpt lat="42.482898000000006" lon="-1.2192530000000004">
        <ele>678.090</ele>
        <time>2022-06-18T12:33:39Z</time>
      </trkpt>
      <trkpt lat="42.483011000000005" lon="-1.2192900000000004">
        <ele>677.249</ele>
        <time>2022-06-18T12:33:40Z</time>
      </trkpt>
      <trkpt lat="42.48312000000001" lon="-1.2193100000000003">
        <ele>675.454</ele>
        <time>2022-06-18T12:33:41Z</time>
      </trkpt>
      <trkpt lat="42.48322600000001" lon="-1.2193060000000004">
        <ele>674.026</ele>
        <time>2022-06-18T12:33:42Z</time>
      </trkpt>
      <trkpt lat="42.48333200000001" lon="-1.2192610000000004">
        <ele>672.858</ele>
        <time>2022-06-18T12:33:43Z</time>
      </trkpt>
      <trkpt lat="42.48343100000001" lon="-1.2191820000000004">
        <ele>672.812</ele>
        <time>2022-06-18T12:33:44Z</time>
      </trkpt>
      <trkpt lat="42.48359600000001" lon="-1.2189680000000005">
        <ele>670.670</ele>
        <time>2022-06-18T12:33:46Z</time>
      </trkpt>
      <trkpt lat="42.48365200000001" lon="-1.2188300000000005">
        <ele>669.465</ele>
        <time>2022-06-18T12:33:47Z</time>
      </trkpt>
      <trkpt lat="42.48369000000002" lon="-1.2186780000000006">
        <ele>668.275</ele>
        <time>2022-06-18T12:33:48Z</time>
      </trkpt>
      <trkpt lat="42.48372800000002" lon="-1.2185240000000006">
        <ele>667.233</ele>
        <time>2022-06-18T12:33:49Z</time>
      </trkpt>
      <trkpt lat="42.48379200000002" lon="-1.2182120000000005">
        <ele>665.423</ele>
        <time>2022-06-18T12:33:51Z</time>
      </trkpt>
      <trkpt lat="42.48387600000002" lon="-1.2177370000000005">
        <ele>664.215</ele>
        <time>2022-06-18T12:33:54Z</time>
      </trkpt>
      <trkpt lat="42.48391700000003" lon="-1.2175940000000005">
        <ele>663.809</ele>
        <time>2022-06-18T12:33:55Z</time>
      </trkpt>
      <trkpt lat="42.48397800000003" lon="-1.2174780000000005">
        <ele>663.474</ele>
        <time>2022-06-18T12:33:56Z</time>
      </trkpt>
      <trkpt lat="42.48405000000003" lon="-1.2173910000000006">
        <ele>663.023</ele>
        <time>2022-06-18T12:33:57Z</time>
      </trkpt>
      <trkpt lat="42.48421600000003" lon="-1.2173130000000005">
        <ele>661.878</ele>
        <time>2022-06-18T12:33:59Z</time>
      </trkpt>
      <trkpt lat="42.484412000000034" lon="-1.2173770000000006">
        <ele>660.640</ele>
        <time>2022-06-18T12:34:01Z</time>
      </trkpt>
      <trkpt lat="42.48451800000004" lon="-1.2174110000000007">
        <ele>660.462</ele>
        <time>2022-06-18T12:34:02Z</time>
      </trkpt>
      <trkpt lat="42.484747000000034" lon="-1.2174370000000008">
        <ele>658.856</ele>
        <time>2022-06-18T12:34:04Z</time>
      </trkpt>
      <trkpt lat="42.48498100000003" lon="-1.2174020000000008">
        <ele>657.464</ele>
        <time>2022-06-18T12:34:06Z</time>
      </trkpt>
      <trkpt lat="42.48521800000003" lon="-1.2173530000000008">
        <ele>656.889</ele>
        <time>2022-06-18T12:34:08Z</time>
      </trkpt>
      <trkpt lat="42.48534300000003" lon="-1.2173330000000009">
        <ele>656.229</ele>
        <time>2022-06-18T12:34:09Z</time>
      </trkpt>
      <trkpt lat="42.485592000000025" lon="-1.217284000000001">
        <ele>655.058</ele>
        <time>2022-06-18T12:34:11Z</time>
      </trkpt>
      <trkpt lat="42.485848000000026" lon="-1.2172310000000008">
        <ele>653.652</ele>
        <time>2022-06-18T12:34:13Z</time>
      </trkpt>
      <trkpt lat="42.48597900000003" lon="-1.2172070000000008">
        <ele>652.017</ele>
        <time>2022-06-18T12:34:14Z</time>
      </trkpt>
      <trkpt lat="42.48623600000003" lon="-1.2171450000000008">
        <ele>650.409</ele>
        <time>2022-06-18T12:34:16Z</time>
      </trkpt>
      <trkpt lat="42.486484000000026" lon="-1.2170540000000007">
        <ele>649.216</ele>
        <time>2022-06-18T12:34:18Z</time>
      </trkpt>
      <trkpt lat="42.486600000000024" lon="-1.2169880000000008">
        <ele>648.675</ele>
        <time>2022-06-18T12:34:19Z</time>
      </trkpt>
      <trkpt lat="42.486704000000024" lon="-1.2169040000000009">
        <ele>646.810</ele>
        <time>2022-06-18T12:34:20Z</time>
      </trkpt>
      <trkpt lat="42.486800000000024" lon="-1.2168070000000009">
        <ele>645.812</ele>
        <time>2022-06-18T12:34:21Z</time>
      </trkpt>
      <trkpt lat="42.486887000000024" lon="-1.216701000000001">
        <ele>645.024</ele>
        <time>2022-06-18T12:34:22Z</time>
      </trkpt>
      <trkpt lat="42.48695900000003" lon="-1.2165830000000009">
        <ele>644.678</ele>
        <time>2022-06-18T12:34:23Z</time>
      </trkpt>
      <trkpt lat="42.48706900000003" lon="-1.216328000000001">
        <ele>644.086</ele>
        <time>2022-06-18T12:34:25Z</time>
      </trkpt>
      <trkpt lat="42.487168000000025" lon="-1.216091000000001">
        <ele>643.421</ele>
        <time>2022-06-18T12:34:27Z</time>
      </trkpt>
      <trkpt lat="42.48731100000003" lon="-1.215758000000001">
        <ele>643.261</ele>
        <time>2022-06-18T12:34:30Z</time>
      </trkpt>
      <trkpt lat="42.487362000000026" lon="-1.215666000000001">
        <ele>643.273</ele>
        <time>2022-06-18T12:34:31Z</time>
      </trkpt>
      <trkpt lat="42.48748200000003" lon="-1.215526000000001">
        <ele>643.085</ele>
        <time>2022-06-18T12:34:33Z</time>
      </trkpt>
      <trkpt lat="42.48774800000003" lon="-1.215366000000001">
        <ele>643.213</ele>
        <time>2022-06-18T12:34:37Z</time>
      </trkpt>
      <trkpt lat="42.48808300000003" lon="-1.215209000000001">
        <ele>644.009</ele>
        <time>2022-06-18T12:34:43Z</time>
      </trkpt>
      <trkpt lat="42.48816700000003" lon="-1.2151700000000012">
        <ele>644.658</ele>
        <time>2022-06-18T12:34:45Z</time>
      </trkpt>
      <trkpt lat="42.488386000000034" lon="-1.215120000000001">
        <ele>645.287</ele>
        <time>2022-06-18T12:34:50Z</time>
      </trkpt>
      <trkpt lat="42.488625000000035" lon="-1.2151270000000012">
        <ele>645.452</ele>
        <time>2022-06-18T12:34:56Z</time>
      </trkpt>
      <trkpt lat="42.48869700000004" lon="-1.2151340000000013">
        <ele>645.884</ele>
        <time>2022-06-18T12:34:58Z</time>
      </trkpt>
      <trkpt lat="42.488841000000036" lon="-1.2151500000000013">
        <ele>646.666</ele>
        <time>2022-06-18T12:35:02Z</time>
      </trkpt>
      <trkpt lat="42.48887900000004" lon="-1.2151530000000013">
        <ele>647.060</ele>
        <time>2022-06-18T12:35:03Z</time>
      </trkpt>
      <trkpt lat="42.48917000000004" lon="-1.2151660000000013">
        <ele>647.638</ele>
        <time>2022-06-18T12:35:10Z</time>
      </trkpt>
      <trkpt lat="42.48954100000004" lon="-1.2152010000000013">
        <ele>647.663</ele>
        <time>2022-06-18T12:35:18Z</time>
      </trkpt>
      <trkpt lat="42.48997600000004" lon="-1.2152400000000012">
        <ele>647.643</ele>
        <time>2022-06-18T12:35:27Z</time>
      </trkpt>
      <trkpt lat="42.490473000000044" lon="-1.2152780000000012">
        <ele>647.494</ele>
        <time>2022-06-18T12:35:36Z</time>
      </trkpt>
      <trkpt lat="42.49052700000004" lon="-1.2152840000000011">
        <ele>647.457</ele>
        <time>2022-06-18T12:35:37Z</time>
      </trkpt>
      <trkpt lat="42.49097200000004" lon="-1.2153160000000012">
        <ele>647.622</ele>
        <time>2022-06-18T12:35:46Z</time>
      </trkpt>
      <trkpt lat="42.491331000000045" lon="-1.215344000000001">
        <ele>647.809</ele>
        <time>2022-06-18T12:35:54Z</time>
      </trkpt>
      <trkpt lat="42.49146200000005" lon="-1.215360000000001">
        <ele>648.470</ele>
        <time>2022-06-18T12:35:57Z</time>
      </trkpt>
      <trkpt lat="42.49174500000005" lon="-1.215371000000001">
        <ele>649.029</ele>
        <time>2022-06-18T12:36:04Z</time>
      </trkpt>
      <trkpt lat="42.49207100000005" lon="-1.215391000000001">
        <ele>649.424</ele>
        <time>2022-06-18T12:36:12Z</time>
      </trkpt>
      <trkpt lat="42.492340000000056" lon="-1.215418000000001">
        <ele>649.636</ele>
        <time>2022-06-18T12:36:19Z</time>
      </trkpt>
      <trkpt lat="42.492430000000056" lon="-1.215427000000001">
        <ele>650.058</ele>
        <time>2022-06-18T12:36:21Z</time>
      </trkpt>
      <trkpt lat="42.49275300000006" lon="-1.215454000000001">
        <ele>650.252</ele>
        <time>2022-06-18T12:36:29Z</time>
      </trkpt>
      <trkpt lat="42.493038000000055" lon="-1.2155490000000009">
        <ele>650.250</ele>
        <time>2022-06-18T12:36:35Z</time>
      </trkpt>
      <trkpt lat="42.49338300000006" lon="-1.215726000000001">
        <ele>649.255</ele>
        <time>2022-06-18T12:36:42Z</time>
      </trkpt>
      <trkpt lat="42.49352300000006" lon="-1.215818000000001">
        <ele>648.425</ele>
        <time>2022-06-18T12:36:45Z</time>
      </trkpt>
      <trkpt lat="42.49368200000006" lon="-1.215926000000001">
        <ele>647.657</ele>
        <time>2022-06-18T12:36:49Z</time>
      </trkpt>
      <trkpt lat="42.49375500000006" lon="-1.215976000000001">
        <ele>646.400</ele>
        <time>2022-06-18T12:36:51Z</time>
      </trkpt>
      <trkpt lat="42.49383800000005" lon="-1.216028000000001">
        <ele>645.220</ele>
        <time>2022-06-18T12:36:54Z</time>
      </trkpt>
      <trkpt lat="42.493863000000054" lon="-1.216046000000001">
        <ele>644.809</ele>
        <time>2022-06-18T12:36:55Z</time>
      </trkpt>
      <trkpt lat="42.49393500000006" lon="-1.2161100000000011">
        <ele>644.256</ele>
        <time>2022-06-18T12:36:58Z</time>
      </trkpt>
      <trkpt lat="42.49403800000006" lon="-1.2162390000000012">
        <ele>643.855</ele>
        <time>2022-06-18T12:37:02Z</time>
      </trkpt>
      <trkpt lat="42.49422900000006" lon="-1.216356000000001">
        <ele>643.210</ele>
        <time>2022-06-18T12:37:08Z</time>
      </trkpt>
      <trkpt lat="42.49449400000006" lon="-1.216411000000001">
        <ele>643.642</ele>
        <time>2022-06-18T12:37:16Z</time>
      </trkpt>
      <trkpt lat="42.49462500000006" lon="-1.216464000000001">
        <ele>643.674</ele>
        <time>2022-06-18T12:37:21Z</time>
      </trkpt>
      <trkpt lat="42.49473600000006" lon="-1.216567000000001">
        <ele>644.468</ele>
        <time>2022-06-18T12:37:27Z</time>
      </trkpt>
      <trkpt lat="42.49476200000006" lon="-1.2165850000000011">
        <ele>644.626</ele>
        <time>2022-06-18T12:37:29Z</time>
      </trkpt>
      <trkpt lat="42.49477800000006" lon="-1.2166190000000012">
        <ele>645.411</ele>
        <time>2022-06-18T12:37:31Z</time>
      </trkpt>
      <trkpt lat="42.49478400000006" lon="-1.2166400000000013">
        <ele>645.641</ele>
        <time>2022-06-18T12:37:32Z</time>
      </trkpt>
      <trkpt lat="42.49480100000006" lon="-1.2166680000000012">
        <ele>645.694</ele>
        <time>2022-06-18T12:37:34Z</time>
      </trkpt>
      <trkpt lat="42.49480400000006" lon="-1.216669000000001">
        <ele>645.857</ele>
        <time>2022-06-18T12:37:35Z</time>
      </trkpt>
      <trkpt lat="42.49480400000006" lon="-1.216669000000001">
        <ele>645.822</ele>
        <time>2022-06-18T12:37:37Z</time>
      </trkpt>
      <trkpt lat="42.49483800000006" lon="-1.216726000000001">
        <ele>645.609</ele>
        <time>2022-06-18T12:37:44Z</time>
      </trkpt>
      <trkpt lat="42.494870000000056" lon="-1.216751000000001">
        <ele>645.850</ele>
        <time>2022-06-18T12:37:46Z</time>
      </trkpt>
      <trkpt lat="42.494887000000055" lon="-1.216772000000001">
        <ele>645.849</ele>
        <time>2022-06-18T12:37:47Z</time>
      </trkpt>
      <trkpt lat="42.494960000000056" lon="-1.2168550000000011">
        <ele>645.624</ele>
        <time>2022-06-18T12:37:51Z</time>
      </trkpt>
      <trkpt lat="42.49515600000006" lon="-1.2170170000000011">
        <ele>645.426</ele>
        <time>2022-06-18T12:37:57Z</time>
      </trkpt>
      <trkpt lat="42.49537600000006" lon="-1.2171250000000011">
        <ele>644.888</ele>
        <time>2022-06-18T12:38:03Z</time>
      </trkpt>
      <trkpt lat="42.49541700000006" lon="-1.217110000000001">
        <ele>644.682</ele>
        <time>2022-06-18T12:38:04Z</time>
      </trkpt>
      <trkpt lat="42.49566200000006" lon="-1.216995000000001">
        <ele>643.430</ele>
        <time>2022-06-18T12:38:10Z</time>
      </trkpt>
      <trkpt lat="42.49592100000006" lon="-1.216868000000001">
        <ele>642.815</ele>
        <time>2022-06-18T12:38:17Z</time>
      </trkpt>
      <trkpt lat="42.49602700000006" lon="-1.216833000000001">
        <ele>642.465</ele>
        <time>2022-06-18T12:38:21Z</time>
      </trkpt>
      <trkpt lat="42.496054000000065" lon="-1.216832000000001">
        <ele>642.234</ele>
        <time>2022-06-18T12:38:23Z</time>
      </trkpt>
      <trkpt lat="42.496054000000065" lon="-1.216832000000001">
        <ele>642.255</ele>
        <time>2022-06-18T12:38:26Z</time>
      </trkpt>
      <trkpt lat="42.49536600000007" lon="-1.2159860000000011">
        <ele>658.210</ele>
        <time>2022-06-18T12:44:44Z</time>
      </trkpt>
      <trkpt lat="42.49540200000007" lon="-1.2159470000000012">
        <ele>658.209</ele>
        <time>2022-06-18T12:44:46Z</time>
      </trkpt>
      <trkpt lat="42.49542700000007" lon="-1.2158960000000012">
        <ele>658.054</ele>
        <time>2022-06-18T12:44:48Z</time>
      </trkpt>
      <trkpt lat="42.49542700000007" lon="-1.2158860000000011">
        <ele>658.043</ele>
        <time>2022-06-18T12:44:49Z</time>
      </trkpt>
      <trkpt lat="42.49542800000007" lon="-1.2158800000000012">
        <ele>657.888</ele>
        <time>2022-06-18T12:44:51Z</time>
      </trkpt>
      <trkpt lat="42.495615000000065" lon="-1.2156010000000013">
        <ele>659.250</ele>
        <time>2022-06-18T12:46:39Z</time>
      </trkpt>
      <trkpt lat="42.49562400000006" lon="-1.2155990000000012">
        <ele>659.062</ele>
        <time>2022-06-18T12:46:41Z</time>
      </trkpt>
      <trkpt lat="42.49562400000006" lon="-1.2155990000000012">
        <ele>659.026</ele>
        <time>2022-06-18T12:46:42Z</time>
      </trkpt>
      <trkpt lat="42.496183000000066" lon="-1.2152690000000013">
        <ele>647.224</ele>
        <time>2022-06-18T12:50:43Z</time>
      </trkpt>
      <trkpt lat="42.49619600000007" lon="-1.2153170000000013">
        <ele>647.269</ele>
        <time>2022-06-18T12:50:45Z</time>
      </trkpt>
      <trkpt lat="42.49622300000007" lon="-1.2154200000000013">
        <ele>647.269</ele>
        <time>2022-06-18T12:50:48Z</time>
      </trkpt>
      <trkpt lat="42.49622300000007" lon="-1.2154200000000013">
        <ele>647.273</ele>
        <time>2022-06-18T12:50:50Z</time>
      </trkpt>
      <trkpt lat="42.49625400000007" lon="-1.2154580000000013">
        <ele>647.285</ele>
        <time>2022-06-18T12:50:51Z</time>
      </trkpt>
      <trkpt lat="42.496301000000074" lon="-1.2154660000000013">
        <ele>647.413</ele>
        <time>2022-06-18T12:50:54Z</time>
      </trkpt>
      <trkpt lat="42.496306000000075" lon="-1.2154180000000012">
        <ele>647.409</ele>
        <time>2022-06-18T12:50:55Z</time>
      </trkpt>
      <trkpt lat="42.496374000000074" lon="-1.2154060000000013">
        <ele>647.668</ele>
        <time>2022-06-18T12:50:58Z</time>
      </trkpt>
      <trkpt lat="42.49638000000007" lon="-1.2154080000000014">
        <ele>647.657</ele>
        <time>2022-06-18T12:50:59Z</time>
      </trkpt>
      <trkpt lat="42.496390000000076" lon="-1.2154170000000013">
        <ele>647.642</ele>
        <time>2022-06-18T12:51:00Z</time>
      </trkpt>
      <trkpt lat="42.496393000000076" lon="-1.2154180000000012">
        <ele>647.654</ele>
        <time>2022-06-18T12:51:05Z</time>
      </trkpt>
      <trkpt lat="42.496407000000076" lon="-1.2154440000000013">
        <ele>647.866</ele>
        <time>2022-06-18T12:51:39Z</time>
      </trkpt>
      <trkpt lat="42.49640900000008" lon="-1.2154510000000014">
        <ele>647.890</ele>
        <time>2022-06-18T12:51:40Z</time>
      </trkpt>
      <trkpt lat="42.49640900000008" lon="-1.2154510000000014">
        <ele>647.478</ele>
        <time>2022-06-18T12:51:42Z</time>
      </trkpt>
      <trkpt lat="42.49642200000008" lon="-1.2154290000000014">
        <ele>647.853</ele>
        <time>2022-06-18T12:55:18Z</time>
      </trkpt>
      <trkpt lat="42.49642200000008" lon="-1.2154290000000014">
        <ele>647.893</ele>
        <time>2022-06-18T12:55:20Z</time>
      </trkpt>
      <trkpt lat="42.49640000000008" lon="-1.2154080000000014">
        <ele>648.088</ele>
        <time>2022-06-18T12:55:22Z</time>
      </trkpt>
      <trkpt lat="42.49637400000008" lon="-1.2153980000000013">
        <ele>648.024</ele>
        <time>2022-06-18T12:55:23Z</time>
      </trkpt>
      <trkpt lat="42.496404000000084" lon="-1.2153720000000012">
        <ele>648.026</ele>
        <time>2022-06-18T12:55:27Z</time>
      </trkpt>
      <trkpt lat="42.49646100000008" lon="-1.2153420000000013">
        <ele>648.009</ele>
        <time>2022-06-18T12:55:28Z</time>
      </trkpt>
      <trkpt lat="42.496494000000084" lon="-1.2153170000000013">
        <ele>648.069</ele>
        <time>2022-06-18T12:55:29Z</time>
      </trkpt>
      <trkpt lat="42.496533000000085" lon="-1.2152750000000012">
        <ele>648.038</ele>
        <time>2022-06-18T12:55:32Z</time>
      </trkpt>
      <trkpt lat="42.49654200000008" lon="-1.2152670000000012">
        <ele>648.023</ele>
        <time>2022-06-18T12:55:33Z</time>
      </trkpt>
      <trkpt lat="42.49658500000008" lon="-1.2152260000000012">
        <ele>649.245</ele>
        <time>2022-06-18T12:55:42Z</time>
      </trkpt>
      <trkpt lat="42.49658900000008" lon="-1.2152220000000014">
        <ele>649.437</ele>
        <time>2022-06-18T12:55:46Z</time>
      </trkpt>
      <trkpt lat="42.49660800000008" lon="-1.2151750000000014">
        <ele>649.821</ele>
        <time>2022-06-18T12:55:51Z</time>
      </trkpt>
      <trkpt lat="42.49664700000008" lon="-1.2151270000000014">
        <ele>649.819</ele>
        <time>2022-06-18T12:55:52Z</time>
      </trkpt>
      <trkpt lat="42.49664400000008" lon="-1.2151910000000015">
        <ele>651.234</ele>
        <time>2022-06-18T12:56:33Z</time>
      </trkpt>
      <trkpt lat="42.496640000000085" lon="-1.2152220000000014">
        <ele>651.464</ele>
        <time>2022-06-18T12:56:34Z</time>
      </trkpt>
      <trkpt lat="42.49662100000008" lon="-1.2152670000000014">
        <ele>651.423</ele>
        <time>2022-06-18T12:56:35Z</time>
      </trkpt>
      <trkpt lat="42.496676000000086" lon="-1.2152810000000014">
        <ele>651.483</ele>
        <time>2022-06-18T12:56:37Z</time>
      </trkpt>
      <trkpt lat="42.49668400000009" lon="-1.2152810000000014">
        <ele>651.411</ele>
        <time>2022-06-18T12:56:38Z</time>
      </trkpt>
      <trkpt lat="42.49672800000009" lon="-1.2153100000000014">
        <ele>651.609</ele>
        <time>2022-06-18T12:56:40Z</time>
      </trkpt>
      <trkpt lat="42.49672600000009" lon="-1.2153380000000014">
        <ele>651.673</ele>
        <time>2022-06-18T12:56:41Z</time>
      </trkpt>
      <trkpt lat="42.49674300000009" lon="-1.2153550000000013">
        <ele>651.892</ele>
        <time>2022-06-18T12:56:45Z</time>
      </trkpt>
      <trkpt lat="42.49677400000009" lon="-1.2153740000000013">
        <ele>651.887</ele>
        <time>2022-06-18T12:56:47Z</time>
      </trkpt>
      <trkpt lat="42.496786000000085" lon="-1.2153840000000014">
        <ele>651.899</ele>
        <time>2022-06-18T12:56:48Z</time>
      </trkpt>
      <trkpt lat="42.496845000000086" lon="-1.2154240000000014">
        <ele>652.481</ele>
        <time>2022-06-18T12:56:53Z</time>
      </trkpt>
      <trkpt lat="42.49687400000008" lon="-1.2154730000000014">
        <ele>653.295</ele>
        <time>2022-06-18T12:56:57Z</time>
      </trkpt>
      <trkpt lat="42.496887000000086" lon="-1.2154730000000014">
        <ele>653.453</ele>
        <time>2022-06-18T12:57:00Z</time>
      </trkpt>
      <trkpt lat="42.49689100000008" lon="-1.2154750000000014">
        <ele>653.458</ele>
        <time>2022-06-18T12:57:02Z</time>
      </trkpt>
      <trkpt lat="42.496901000000086" lon="-1.2154960000000015">
        <ele>653.628</ele>
        <time>2022-06-18T12:57:05Z</time>
      </trkpt>
      <trkpt lat="42.49691100000009" lon="-1.2155060000000015">
        <ele>653.851</ele>
        <time>2022-06-18T12:57:07Z</time>
      </trkpt>
      <trkpt lat="42.49691200000009" lon="-1.2155100000000014">
        <ele>653.801</ele>
        <time>2022-06-18T12:57:08Z</time>
      </trkpt>
      <trkpt lat="42.496924000000085" lon="-1.2155180000000014">
        <ele>653.811</ele>
        <time>2022-06-18T12:57:12Z</time>
      </trkpt>
      <trkpt lat="42.496924000000085" lon="-1.2155180000000014">
        <ele>653.809</ele>
        <time>2022-06-18T12:57:13Z</time>
      </trkpt>
      <trkpt lat="42.496964000000084" lon="-1.2155670000000014">
        <ele>653.696</ele>
        <time>2022-06-18T12:57:19Z</time>
      </trkpt>
      <trkpt lat="42.49696700000008" lon="-1.2155720000000014">
        <ele>653.665</ele>
        <time>2022-06-18T12:57:22Z</time>
      </trkpt>
      <trkpt lat="42.497270000000086" lon="-1.2148290000000015">
        <ele>661.010</ele>
        <time>2022-06-18T13:24:30Z</time>
      </trkpt>
      <trkpt lat="42.49728500000008" lon="-1.2148350000000014">
        <ele>661.022</ele>
        <time>2022-06-18T13:24:31Z</time>
      </trkpt>
      <trkpt lat="42.497312000000086" lon="-1.2148970000000014">
        <ele>660.814</ele>
        <time>2022-06-18T13:24:34Z</time>
      </trkpt>
      <trkpt lat="42.49732300000009" lon="-1.2149250000000014">
        <ele>660.868</ele>
        <time>2022-06-18T13:24:35Z</time>
      </trkpt>
      <trkpt lat="42.49733700000009" lon="-1.2149550000000013">
        <ele>660.856</ele>
        <time>2022-06-18T13:24:36Z</time>
      </trkpt>
      <trkpt lat="42.497374000000086" lon="-1.2149810000000014">
        <ele>660.661</ele>
        <time>2022-06-18T13:24:38Z</time>
      </trkpt>
      <trkpt lat="42.49740900000008" lon="-1.2150110000000014">
        <ele>660.661</ele>
        <time>2022-06-18T13:24:41Z</time>
      </trkpt>
      <trkpt lat="42.497428000000085" lon="-1.2150370000000015">
        <ele>660.688</ele>
        <time>2022-06-18T13:24:43Z</time>
      </trkpt>
      <trkpt lat="42.497450000000086" lon="-1.2150610000000015">
        <ele>660.824</ele>
        <time>2022-06-18T13:24:45Z</time>
      </trkpt>
      <trkpt lat="42.49748600000009" lon="-1.2150850000000015">
        <ele>660.626</ele>
        <time>2022-06-18T13:24:48Z</time>
      </trkpt>
      <trkpt lat="42.497577000000085" lon="-1.2151630000000015">
        <ele>660.609</ele>
        <time>2022-06-18T13:24:53Z</time>
      </trkpt>
      <trkpt lat="42.49760700000009" lon="-1.2151980000000016">
        <ele>660.639</ele>
        <time>2022-06-18T13:24:55Z</time>
      </trkpt>
      <trkpt lat="42.497625000000085" lon="-1.2152830000000014">
        <ele>660.878</ele>
        <time>2022-06-18T13:25:00Z</time>
      </trkpt>
      <trkpt lat="42.49762100000009" lon="-1.2152920000000014">
        <ele>661.063</ele>
        <time>2022-06-18T13:25:01Z</time>
      </trkpt>
      <trkpt lat="42.497619000000086" lon="-1.2153020000000014">
        <ele>661.045</ele>
        <time>2022-06-18T13:25:02Z</time>
      </trkpt>
      <trkpt lat="42.49762100000009" lon="-1.2153390000000015">
        <ele>661.077</ele>
        <time>2022-06-18T13:25:04Z</time>
      </trkpt>
      <trkpt lat="42.49762900000009" lon="-1.2153690000000015">
        <ele>661.021</ele>
        <time>2022-06-18T13:25:05Z</time>
      </trkpt>
      <trkpt lat="42.49762400000009" lon="-1.2154910000000014">
        <ele>661.079</ele>
        <time>2022-06-18T13:25:08Z</time>
      </trkpt>
      <trkpt lat="42.49759200000009" lon="-1.2155690000000015">
        <ele>661.054</ele>
        <time>2022-06-18T13:25:10Z</time>
      </trkpt>
      <trkpt lat="42.49746300000009" lon="-1.2156980000000015">
        <ele>660.444</ele>
        <time>2022-06-18T13:25:16Z</time>
      </trkpt>
      <trkpt lat="42.497453000000085" lon="-1.2157150000000014">
        <ele>660.032</ele>
        <time>2022-06-18T13:25:17Z</time>
      </trkpt>
      <trkpt lat="42.49744600000009" lon="-1.2157280000000015">
        <ele>659.492</ele>
        <time>2022-06-18T13:25:18Z</time>
      </trkpt>
      <trkpt lat="42.49740600000009" lon="-1.2157590000000014">
        <ele>659.011</ele>
        <time>2022-06-18T13:25:20Z</time>
      </trkpt>
      <trkpt lat="42.49736900000009" lon="-1.2157870000000013">
        <ele>658.809</ele>
        <time>2022-06-18T13:25:22Z</time>
      </trkpt>
      <trkpt lat="42.497323000000094" lon="-1.2157850000000012">
        <ele>658.684</ele>
        <time>2022-06-18T13:25:24Z</time>
      </trkpt>
      <trkpt lat="42.49722300000009" lon="-1.2157750000000012">
        <ele>658.043</ele>
        <time>2022-06-18T13:25:28Z</time>
      </trkpt>
      <trkpt lat="42.49718400000009" lon="-1.2157770000000012">
        <ele>657.258</ele>
        <time>2022-06-18T13:25:30Z</time>
      </trkpt>
      <trkpt lat="42.49716600000009" lon="-1.2157730000000013">
        <ele>657.020</ele>
        <time>2022-06-18T13:25:32Z</time>
      </trkpt>
      <trkpt lat="42.497154000000094" lon="-1.2157550000000013">
        <ele>656.842</ele>
        <time>2022-06-18T13:25:33Z</time>
      </trkpt>
      <trkpt lat="42.497103000000095" lon="-1.2156680000000013">
        <ele>656.866</ele>
        <time>2022-06-18T13:25:36Z</time>
      </trkpt>
      <trkpt lat="42.4970770000001" lon="-1.2156510000000014">
        <ele>656.814</ele>
        <time>2022-06-18T13:25:37Z</time>
      </trkpt>
      <trkpt lat="42.4969470000001" lon="-1.2155570000000013">
        <ele>656.879</ele>
        <time>2022-06-18T13:25:42Z</time>
      </trkpt>
      <trkpt lat="42.496909000000095" lon="-1.2154280000000013">
        <ele>656.899</ele>
        <time>2022-06-18T13:25:46Z</time>
      </trkpt>
      <trkpt lat="42.496813000000095" lon="-1.2152660000000013">
        <ele>656.216</ele>
        <time>2022-06-18T13:25:52Z</time>
      </trkpt>
      <trkpt lat="42.4967840000001" lon="-1.2152440000000013">
        <ele>656.076</ele>
        <time>2022-06-18T13:25:53Z</time>
      </trkpt>
      <trkpt lat="42.4967180000001" lon="-1.2152290000000012">
        <ele>655.813</ele>
        <time>2022-06-18T13:25:55Z</time>
      </trkpt>
      <trkpt lat="42.4966910000001" lon="-1.2152190000000012">
        <ele>655.809</ele>
        <time>2022-06-18T13:25:56Z</time>
      </trkpt>
      <trkpt lat="42.496678000000095" lon="-1.2151970000000012">
        <ele>655.452</ele>
        <time>2022-06-18T13:25:58Z</time>
      </trkpt>
      <trkpt lat="42.496709000000095" lon="-1.215201000000001">
        <ele>654.871</ele>
        <time>2022-06-18T13:26:02Z</time>
      </trkpt>
      <trkpt lat="42.49669600000009" lon="-1.215221000000001">
        <ele>654.816</ele>
        <time>2022-06-18T13:26:03Z</time>
      </trkpt>
      <trkpt lat="42.496664000000095" lon="-1.2152520000000009">
        <ele>654.668</ele>
        <time>2022-06-18T13:26:05Z</time>
      </trkpt>
      <trkpt lat="42.49661700000009" lon="-1.215267000000001">
        <ele>654.470</ele>
        <time>2022-06-18T13:26:07Z</time>
      </trkpt>
      <trkpt lat="42.49651300000009" lon="-1.2152790000000009">
        <ele>653.624</ele>
        <time>2022-06-18T13:26:11Z</time>
      </trkpt>
      <trkpt lat="42.49649400000009" lon="-1.215278000000001">
        <ele>653.422</ele>
        <time>2022-06-18T13:26:12Z</time>
      </trkpt>
      <trkpt lat="42.49644100000009" lon="-1.215284000000001">
        <ele>652.487</ele>
        <time>2022-06-18T13:26:16Z</time>
      </trkpt>
      <trkpt lat="42.49639800000009" lon="-1.2153060000000009">
        <ele>651.647</ele>
        <time>2022-06-18T13:26:18Z</time>
      </trkpt>
      <trkpt lat="42.49634200000009" lon="-1.2153360000000009">
        <ele>651.422</ele>
        <time>2022-06-18T13:26:21Z</time>
      </trkpt>
      <trkpt lat="42.496321000000094" lon="-1.2153310000000008">
        <ele>651.462</ele>
        <time>2022-06-18T13:26:22Z</time>
      </trkpt>
      <trkpt lat="42.496270000000095" lon="-1.2153120000000008">
        <ele>651.208</ele>
        <time>2022-06-18T13:26:25Z</time>
      </trkpt>
      <trkpt lat="42.496247000000096" lon="-1.215311000000001">
        <ele>651.209</ele>
        <time>2022-06-18T13:26:26Z</time>
      </trkpt>
      <trkpt lat="42.496197000000095" lon="-1.215356000000001">
        <ele>651.423</ele>
        <time>2022-06-18T13:26:29Z</time>
      </trkpt>
      <trkpt lat="42.49618900000009" lon="-1.215355000000001">
        <ele>651.822</ele>
        <time>2022-06-18T13:26:32Z</time>
      </trkpt>
      <trkpt lat="42.49618900000009" lon="-1.215355000000001">
        <ele>652.237</ele>
        <time>2022-06-18T13:26:42Z</time>
      </trkpt>
      <trkpt lat="42.49618900000009" lon="-1.215355000000001">
        <ele>652.449</ele>
        <time>2022-06-18T13:26:45Z</time>
      </trkpt>
      <trkpt lat="42.49613300000009" lon="-1.215340000000001">
        <ele>653.851</ele>
        <time>2022-06-18T13:37:30Z</time>
      </trkpt>
      <trkpt lat="42.49613300000009" lon="-1.215340000000001">
        <ele>653.645</ele>
        <time>2022-06-18T13:37:31Z</time>
      </trkpt>
      <trkpt lat="42.49613000000009" lon="-1.215343000000001">
        <ele>653.653</ele>
        <time>2022-06-18T13:37:32Z</time>
      </trkpt>
      <trkpt lat="42.496126000000096" lon="-1.215346000000001">
        <ele>653.698</ele>
        <time>2022-06-18T13:37:34Z</time>
      </trkpt>
      <trkpt lat="42.496126000000096" lon="-1.215346000000001">
        <ele>653.638</ele>
        <time>2022-06-18T13:37:35Z</time>
      </trkpt>
      <trkpt lat="42.496155000000094" lon="-1.2153120000000008">
        <ele>653.422</ele>
        <time>2022-06-18T13:37:40Z</time>
      </trkpt>
      <trkpt lat="42.496155000000094" lon="-1.2153120000000008">
        <ele>653.462</ele>
        <time>2022-06-18T13:37:41Z</time>
      </trkpt>
      <trkpt lat="42.496155000000094" lon="-1.2153120000000008">
        <ele>653.408</ele>
        <time>2022-06-18T13:37:42Z</time>
      </trkpt>
      <trkpt lat="42.496132000000095" lon="-1.2152970000000007">
        <ele>654.009</ele>
        <time>2022-06-18T13:38:50Z</time>
      </trkpt>
      <trkpt lat="42.4961230000001" lon="-1.2152980000000007">
        <ele>654.023</ele>
        <time>2022-06-18T13:38:52Z</time>
      </trkpt>
      <trkpt lat="42.4960520000001" lon="-1.2152380000000007">
        <ele>654.012</ele>
        <time>2022-06-18T13:38:55Z</time>
      </trkpt>
      <trkpt lat="42.4960310000001" lon="-1.2152210000000008">
        <ele>654.087</ele>
        <time>2022-06-18T13:38:57Z</time>
      </trkpt>
      <trkpt lat="42.4960290000001" lon="-1.2152040000000008">
        <ele>654.039</ele>
        <time>2022-06-18T13:38:58Z</time>
      </trkpt>
      <trkpt lat="42.4959860000001" lon="-1.215200000000001">
        <ele>654.471</ele>
        <time>2022-06-18T13:39:01Z</time>
      </trkpt>
      <trkpt lat="42.4959660000001" lon="-1.215199000000001">
        <ele>654.635</ele>
        <time>2022-06-18T13:39:03Z</time>
      </trkpt>
      <trkpt lat="42.4959350000001" lon="-1.215161000000001">
        <ele>654.833</ele>
        <time>2022-06-18T13:39:05Z</time>
      </trkpt>
      <trkpt lat="42.4958820000001" lon="-1.215154000000001">
        <ele>655.818</ele>
        <time>2022-06-18T13:39:07Z</time>
      </trkpt>
      <trkpt lat="42.4958600000001" lon="-1.215161000000001">
        <ele>656.038</ele>
        <time>2022-06-18T13:39:08Z</time>
      </trkpt>
      <trkpt lat="42.4958290000001" lon="-1.2151680000000011">
        <ele>656.283</ele>
        <time>2022-06-18T13:39:09Z</time>
      </trkpt>
      <trkpt lat="42.4957920000001" lon="-1.2151950000000011">
        <ele>656.625</ele>
        <time>2022-06-18T13:39:12Z</time>
      </trkpt>
      <trkpt lat="42.4957700000001" lon="-1.2151910000000012">
        <ele>656.817</ele>
        <time>2022-06-18T13:39:15Z</time>
      </trkpt>
      <trkpt lat="42.495732000000096" lon="-1.2152050000000012">
        <ele>656.809</ele>
        <time>2022-06-18T13:39:16Z</time>
      </trkpt>
      <trkpt lat="42.49566000000009" lon="-1.2152370000000012">
        <ele>657.229</ele>
        <time>2022-06-18T13:39:18Z</time>
      </trkpt>
      <trkpt lat="42.495654000000094" lon="-1.2152360000000013">
        <ele>657.428</ele>
        <time>2022-06-18T13:39:21Z</time>
      </trkpt>
      <trkpt lat="42.495468000000095" lon="-1.2153110000000014">
        <ele>658.073</ele>
        <time>2022-06-18T13:39:25Z</time>
      </trkpt>
      <trkpt lat="42.4954530000001" lon="-1.2153390000000013">
        <ele>658.025</ele>
        <time>2022-06-18T13:39:26Z</time>
      </trkpt>
      <trkpt lat="42.4954240000001" lon="-1.2153660000000013">
        <ele>658.277</ele>
        <time>2022-06-18T13:39:28Z</time>
      </trkpt>
      <trkpt lat="42.495400000000096" lon="-1.2153700000000012">
        <ele>658.471</ele>
        <time>2022-06-18T13:39:30Z</time>
      </trkpt>
      <trkpt lat="42.4953090000001" lon="-1.2154700000000012">
        <ele>659.049</ele>
        <time>2022-06-18T13:39:37Z</time>
      </trkpt>
      <trkpt lat="42.4952140000001" lon="-1.2155210000000012">
        <ele>659.254</ele>
        <time>2022-06-18T13:39:43Z</time>
      </trkpt>
      <trkpt lat="42.495192000000095" lon="-1.2155310000000012">
        <ele>659.224</ele>
        <time>2022-06-18T13:39:45Z</time>
      </trkpt>
      <trkpt lat="42.4951800000001" lon="-1.2155420000000012">
        <ele>659.488</ele>
        <time>2022-06-18T13:39:46Z</time>
      </trkpt>
      <trkpt lat="42.4951380000001" lon="-1.2155450000000012">
        <ele>660.024</ele>
        <time>2022-06-18T13:39:51Z</time>
      </trkpt>
      <trkpt lat="42.495097000000094" lon="-1.2155620000000011">
        <ele>660.026</ele>
        <time>2022-06-18T13:39:53Z</time>
      </trkpt>
      <trkpt lat="42.49506100000009" lon="-1.215576000000001">
        <ele>660.009</ele>
        <time>2022-06-18T13:40:00Z</time>
      </trkpt>
      <trkpt lat="42.495040000000095" lon="-1.215615000000001">
        <ele>660.069</ele>
        <time>2022-06-18T13:40:01Z</time>
      </trkpt>
      <trkpt lat="42.494992000000096" lon="-1.215740000000001">
        <ele>659.898</ele>
        <time>2022-06-18T13:40:03Z</time>
      </trkpt>
      <trkpt lat="42.49496500000009" lon="-1.215794000000001">
        <ele>659.683</ele>
        <time>2022-06-18T13:40:05Z</time>
      </trkpt>
      <trkpt lat="42.494945000000094" lon="-1.215855000000001">
        <ele>659.695</ele>
        <time>2022-06-18T13:40:07Z</time>
      </trkpt>
      <trkpt lat="42.49495100000009" lon="-1.215923000000001">
        <ele>659.477</ele>
        <time>2022-06-18T13:40:09Z</time>
      </trkpt>
      <trkpt lat="42.49492900000009" lon="-1.216163000000001">
        <ele>659.061</ele>
        <time>2022-06-18T13:40:14Z</time>
      </trkpt>
      <trkpt lat="42.494908000000095" lon="-1.216343000000001">
        <ele>658.449</ele>
        <time>2022-06-18T13:40:18Z</time>
      </trkpt>
      <trkpt lat="42.494882000000096" lon="-1.2164340000000011">
        <ele>657.684</ele>
        <time>2022-06-18T13:40:20Z</time>
      </trkpt>
      <trkpt lat="42.4948590000001" lon="-1.2164740000000012">
        <ele>657.224</ele>
        <time>2022-06-18T13:40:21Z</time>
      </trkpt>
      <trkpt lat="42.494792000000096" lon="-1.2165920000000012">
        <ele>656.232</ele>
        <time>2022-06-18T13:40:25Z</time>
      </trkpt>
      <trkpt lat="42.4947750000001" lon="-1.2166030000000012">
        <ele>655.892</ele>
        <time>2022-06-18T13:40:26Z</time>
      </trkpt>
      <trkpt lat="42.4947230000001" lon="-1.2165900000000012">
        <ele>655.211</ele>
        <time>2022-06-18T13:40:28Z</time>
      </trkpt>
      <trkpt lat="42.4946980000001" lon="-1.2165710000000012">
        <ele>655.009</ele>
        <time>2022-06-18T13:40:29Z</time>
      </trkpt>
      <trkpt lat="42.4945540000001" lon="-1.216483000000001">
        <ele>653.874</ele>
        <time>2022-06-18T13:40:35Z</time>
      </trkpt>
      <trkpt lat="42.494547000000104" lon="-1.216478000000001">
        <ele>653.483</ele>
        <time>2022-06-18T13:40:36Z</time>
      </trkpt>
      <trkpt lat="42.494547000000104" lon="-1.216478000000001">
        <ele>652.878</ele>
        <time>2022-06-18T13:40:39Z</time>
      </trkpt>
      <trkpt lat="42.494490000000106" lon="-1.216454000000001">
        <ele>652.660</ele>
        <time>2022-06-18T13:44:02Z</time>
      </trkpt>
      <trkpt lat="42.49428700000011" lon="-1.216440000000001">
        <ele>652.472</ele>
        <time>2022-06-18T13:44:08Z</time>
      </trkpt>
      <trkpt lat="42.49412900000011" lon="-1.216390000000001">
        <ele>651.656</ele>
        <time>2022-06-18T13:44:14Z</time>
      </trkpt>
      <trkpt lat="42.49410300000011" lon="-1.216363000000001">
        <ele>651.484</ele>
        <time>2022-06-18T13:44:15Z</time>
      </trkpt>
      <trkpt lat="42.494076000000106" lon="-1.216298000000001">
        <ele>651.079</ele>
        <time>2022-06-18T13:44:17Z</time>
      </trkpt>
      <trkpt lat="42.4940940000001" lon="-1.216238000000001">
        <ele>650.849</ele>
        <time>2022-06-18T13:44:19Z</time>
      </trkpt>
      <trkpt lat="42.4941400000001" lon="-1.2161910000000011">
        <ele>650.648</ele>
        <time>2022-06-18T13:44:21Z</time>
      </trkpt>
      <trkpt lat="42.4942210000001" lon="-1.216181000000001">
        <ele>650.661</ele>
        <time>2022-06-18T13:44:23Z</time>
      </trkpt>
      <trkpt lat="42.4942690000001" lon="-1.216173000000001">
        <ele>650.617</ele>
        <time>2022-06-18T13:44:24Z</time>
      </trkpt>
      <trkpt lat="42.4943180000001" lon="-1.216159000000001">
        <ele>650.409</ele>
        <time>2022-06-18T13:44:25Z</time>
      </trkpt>
      <trkpt lat="42.4944070000001" lon="-1.216106000000001">
        <ele>650.445</ele>
        <time>2022-06-18T13:44:27Z</time>
      </trkpt>
      <trkpt lat="42.494457000000104" lon="-1.216060000000001">
        <ele>650.424</ele>
        <time>2022-06-18T13:44:28Z</time>
      </trkpt>
      <trkpt lat="42.494501000000106" lon="-1.216001000000001">
        <ele>650.429</ele>
        <time>2022-06-18T13:44:29Z</time>
      </trkpt>
      <trkpt lat="42.494566000000106" lon="-1.215840000000001">
        <ele>649.611</ele>
        <time>2022-06-18T13:44:31Z</time>
      </trkpt>
      <trkpt lat="42.49458500000011" lon="-1.215743000000001">
        <ele>649.083</ele>
        <time>2022-06-18T13:44:32Z</time>
      </trkpt>
      <trkpt lat="42.494617000000105" lon="-1.215449000000001">
        <ele>647.827</ele>
        <time>2022-06-18T13:44:35Z</time>
      </trkpt>
      <trkpt lat="42.494631000000105" lon="-1.2153530000000008">
        <ele>647.675</ele>
        <time>2022-06-18T13:44:36Z</time>
      </trkpt>
      <trkpt lat="42.4946520000001" lon="-1.2152580000000008">
        <ele>647.070</ele>
        <time>2022-06-18T13:44:37Z</time>
      </trkpt>
      <trkpt lat="42.4946850000001" lon="-1.215168000000001">
        <ele>646.470</ele>
        <time>2022-06-18T13:44:38Z</time>
      </trkpt>
      <trkpt lat="42.494730000000104" lon="-1.2150910000000008">
        <ele>645.254</ele>
        <time>2022-06-18T13:44:39Z</time>
      </trkpt>
      <trkpt lat="42.494788000000106" lon="-1.2150350000000008">
        <ele>644.256</ele>
        <time>2022-06-18T13:44:40Z</time>
      </trkpt>
      <trkpt lat="42.49485500000011" lon="-1.2149920000000007">
        <ele>644.211</ele>
        <time>2022-06-18T13:44:41Z</time>
      </trkpt>
      <trkpt lat="42.49492700000011" lon="-1.2149600000000007">
        <ele>643.409</ele>
        <time>2022-06-18T13:44:42Z</time>
      </trkpt>
      <trkpt lat="42.49499800000011" lon="-1.2149320000000008">
        <ele>643.076</ele>
        <time>2022-06-18T13:44:43Z</time>
      </trkpt>
      <trkpt lat="42.49543300000011" lon="-1.214785000000001">
        <ele>641.875</ele>
        <time>2022-06-18T13:44:49Z</time>
      </trkpt>
      <trkpt lat="42.49558200000011" lon="-1.2147340000000009">
        <ele>641.620</ele>
        <time>2022-06-18T13:44:51Z</time>
      </trkpt>
      <trkpt lat="42.495891000000114" lon="-1.214620000000001">
        <ele>641.432</ele>
        <time>2022-06-18T13:44:56Z</time>
      </trkpt>
      <trkpt lat="42.49594800000011" lon="-1.2146050000000008">
        <ele>641.214</ele>
        <time>2022-06-18T13:44:57Z</time>
      </trkpt>
      <trkpt lat="42.49601000000011" lon="-1.2145820000000007">
        <ele>641.258</ele>
        <time>2022-06-18T13:44:58Z</time>
      </trkpt>
      <trkpt lat="42.496209000000114" lon="-1.2144430000000008">
        <ele>641.246</ele>
        <time>2022-06-18T13:45:01Z</time>
      </trkpt>
      <trkpt lat="42.496290000000116" lon="-1.2143660000000007">
        <ele>641.261</ele>
        <time>2022-06-18T13:45:02Z</time>
      </trkpt>
      <trkpt lat="42.496406000000114" lon="-1.2142130000000007">
        <ele>641.271</ele>
        <time>2022-06-18T13:45:04Z</time>
      </trkpt>
      <trkpt lat="42.49655100000012" lon="-1.2140220000000006">
        <ele>640.661</ele>
        <time>2022-06-18T13:45:06Z</time>
      </trkpt>
      <trkpt lat="42.49666900000012" lon="-1.2138520000000006">
        <ele>639.221</ele>
        <time>2022-06-18T13:45:08Z</time>
      </trkpt>
      <trkpt lat="42.49685100000012" lon="-1.2136020000000005">
        <ele>637.613</ele>
        <time>2022-06-18T13:45:11Z</time>
      </trkpt>
      <trkpt lat="42.49690400000012" lon="-1.2135250000000004">
        <ele>636.609</ele>
        <time>2022-06-18T13:45:12Z</time>
      </trkpt>
      <trkpt lat="42.49696300000012" lon="-1.2134610000000003">
        <ele>636.087</ele>
        <time>2022-06-18T13:45:13Z</time>
      </trkpt>
      <trkpt lat="42.49703600000012" lon="-1.2134250000000004">
        <ele>635.866</ele>
        <time>2022-06-18T13:45:14Z</time>
      </trkpt>
      <trkpt lat="42.49711300000012" lon="-1.2134130000000005">
        <ele>635.481</ele>
        <time>2022-06-18T13:45:15Z</time>
      </trkpt>
      <trkpt lat="42.49724500000012" lon="-1.2134490000000004">
        <ele>634.853</ele>
        <time>2022-06-18T13:45:17Z</time>
      </trkpt>
      <trkpt lat="42.49735800000012" lon="-1.2136050000000005">
        <ele>634.675</ele>
        <time>2022-06-18T13:45:19Z</time>
      </trkpt>
      <trkpt lat="42.49738400000012" lon="-1.2136850000000006">
        <ele>634.419</ele>
        <time>2022-06-18T13:45:20Z</time>
      </trkpt>
      <trkpt lat="42.49752400000012" lon="-1.2139640000000005">
        <ele>634.267</ele>
        <time>2022-06-18T13:45:23Z</time>
      </trkpt>
      <trkpt lat="42.49759900000012" lon="-1.2140600000000006">
        <ele>634.052</ele>
        <time>2022-06-18T13:45:24Z</time>
      </trkpt>
      <trkpt lat="42.49789200000012" lon="-1.2143170000000005">
        <ele>633.662</ele>
        <time>2022-06-18T13:45:28Z</time>
      </trkpt>
      <trkpt lat="42.49795400000012" lon="-1.2143550000000005">
        <ele>633.464</ele>
        <time>2022-06-18T13:45:29Z</time>
      </trkpt>
      <trkpt lat="42.49805600000012" lon="-1.2144000000000006">
        <ele>632.406</ele>
        <time>2022-06-18T13:45:30Z</time>
      </trkpt>
      <trkpt lat="42.49814200000012" lon="-1.2144240000000006">
        <ele>631.416</ele>
        <time>2022-06-18T13:45:31Z</time>
      </trkpt>
      <trkpt lat="42.49822600000012" lon="-1.2144360000000005">
        <ele>630.609</ele>
        <time>2022-06-18T13:45:32Z</time>
      </trkpt>
      <trkpt lat="42.498397000000125" lon="-1.2144280000000005">
        <ele>629.227</ele>
        <time>2022-06-18T13:45:34Z</time>
      </trkpt>
      <trkpt lat="42.49847700000012" lon="-1.2144220000000006">
        <ele>628.076</ele>
        <time>2022-06-18T13:45:35Z</time>
      </trkpt>
      <trkpt lat="42.49871100000012" lon="-1.2143630000000005">
        <ele>627.241</ele>
        <time>2022-06-18T13:45:38Z</time>
      </trkpt>
      <trkpt lat="42.49878700000012" lon="-1.2143270000000006">
        <ele>626.833</ele>
        <time>2022-06-18T13:45:39Z</time>
      </trkpt>
      <trkpt lat="42.49886200000012" lon="-1.2142810000000006">
        <ele>626.065</ele>
        <time>2022-06-18T13:45:40Z</time>
      </trkpt>
      <trkpt lat="42.49893300000012" lon="-1.2142280000000005">
        <ele>625.229</ele>
        <time>2022-06-18T13:45:41Z</time>
      </trkpt>
      <trkpt lat="42.49907900000012" lon="-1.2141250000000006">
        <ele>623.647</ele>
        <time>2022-06-18T13:45:43Z</time>
      </trkpt>
      <trkpt lat="42.499224000000126" lon="-1.2140190000000006">
        <ele>622.682</ele>
        <time>2022-06-18T13:45:45Z</time>
      </trkpt>
      <trkpt lat="42.49942800000012" lon="-1.2138650000000006">
        <ele>621.682</ele>
        <time>2022-06-18T13:45:48Z</time>
      </trkpt>
      <trkpt lat="42.499554000000124" lon="-1.2137870000000006">
        <ele>621.499</ele>
        <time>2022-06-18T13:45:50Z</time>
      </trkpt>
      <trkpt lat="42.499604000000126" lon="-1.2137680000000006">
        <ele>621.407</ele>
        <time>2022-06-18T13:45:51Z</time>
      </trkpt>
      <trkpt lat="42.499815000000126" lon="-1.2137440000000006">
        <ele>621.227</ele>
        <time>2022-06-18T13:45:54Z</time>
      </trkpt>
      <trkpt lat="42.49993000000013" lon="-1.2137380000000006">
        <ele>621.209</ele>
        <time>2022-06-18T13:45:56Z</time>
      </trkpt>
      <trkpt lat="42.50004500000013" lon="-1.2137940000000007">
        <ele>621.880</ele>
        <time>2022-06-18T13:45:58Z</time>
      </trkpt>
      <trkpt lat="42.500153000000125" lon="-1.2138850000000008">
        <ele>622.849</ele>
        <time>2022-06-18T13:46:00Z</time>
      </trkpt>
      <trkpt lat="42.50023400000013" lon="-1.2139720000000007">
        <ele>623.264</ele>
        <time>2022-06-18T13:46:02Z</time>
      </trkpt>
      <trkpt lat="42.50028100000013" lon="-1.2140460000000006">
        <ele>623.286</ele>
        <time>2022-06-18T13:46:03Z</time>
      </trkpt>
      <trkpt lat="42.50031500000013" lon="-1.2141120000000005">
        <ele>623.228</ele>
        <time>2022-06-18T13:46:04Z</time>
      </trkpt>
      <trkpt lat="42.50036000000013" lon="-1.2142460000000006">
        <ele>623.212</ele>
        <time>2022-06-18T13:46:06Z</time>
      </trkpt>
      <trkpt lat="42.50038000000013" lon="-1.2143480000000006">
        <ele>623.210</ele>
        <time>2022-06-18T13:46:07Z</time>
      </trkpt>
      <trkpt lat="42.500392000000126" lon="-1.2144410000000005">
        <ele>623.455</ele>
        <time>2022-06-18T13:46:08Z</time>
      </trkpt>
      <trkpt lat="42.50038600000013" lon="-1.2147320000000006">
        <ele>623.235</ele>
        <time>2022-06-18T13:46:11Z</time>
      </trkpt>
      <trkpt lat="42.50032900000013" lon="-1.2154100000000005">
        <ele>623.083</ele>
        <time>2022-06-18T13:46:17Z</time>
      </trkpt>
      <trkpt lat="42.50028600000013" lon="-1.2157370000000005">
        <ele>620.825</ele>
        <time>2022-06-18T13:46:20Z</time>
      </trkpt>
      <trkpt lat="42.50026900000013" lon="-1.2158450000000005">
        <ele>619.417</ele>
        <time>2022-06-18T13:46:21Z</time>
      </trkpt>
      <trkpt lat="42.50022500000013" lon="-1.2160440000000006">
        <ele>618.009</ele>
        <time>2022-06-18T13:46:23Z</time>
      </trkpt>
      <trkpt lat="42.50018500000013" lon="-1.2161580000000005">
        <ele>617.459</ele>
        <time>2022-06-18T13:46:24Z</time>
      </trkpt>
      <trkpt lat="42.50014800000013" lon="-1.2162220000000006">
        <ele>616.848</ele>
        <time>2022-06-18T13:46:25Z</time>
      </trkpt>
      <trkpt lat="42.50008800000013" lon="-1.2162790000000006">
        <ele>616.233</ele>
        <time>2022-06-18T13:46:26Z</time>
      </trkpt>
      <trkpt lat="42.50001500000013" lon="-1.2162990000000005">
        <ele>615.845</ele>
        <time>2022-06-18T13:46:27Z</time>
      </trkpt>
      <trkpt lat="42.49992500000013" lon="-1.2162840000000004">
        <ele>615.267</ele>
        <time>2022-06-18T13:46:28Z</time>
      </trkpt>
      <trkpt lat="42.49979000000013" lon="-1.2162120000000003">
        <ele>614.211</ele>
        <time>2022-06-18T13:46:30Z</time>
      </trkpt>
      <trkpt lat="42.49961800000013" lon="-1.2161260000000003">
        <ele>613.849</ele>
        <time>2022-06-18T13:46:32Z</time>
      </trkpt>
      <trkpt lat="42.49954600000013" lon="-1.2161180000000003">
        <ele>613.814</ele>
        <time>2022-06-18T13:46:33Z</time>
      </trkpt>
      <trkpt lat="42.49945700000013" lon="-1.2161260000000003">
        <ele>613.234</ele>
        <time>2022-06-18T13:46:34Z</time>
      </trkpt>
      <trkpt lat="42.49929000000013" lon="-1.2162000000000002">
        <ele>611.257</ele>
        <time>2022-06-18T13:46:36Z</time>
      </trkpt>
      <trkpt lat="42.49920300000013" lon="-1.2162870000000001">
        <ele>610.000</ele>
        <time>2022-06-18T13:46:37Z</time>
      </trkpt>
      <trkpt lat="42.499148000000126" lon="-1.216385">
        <ele>609.420</ele>
        <time>2022-06-18T13:46:38Z</time>
      </trkpt>
      <trkpt lat="42.49910400000012" lon="-1.216498">
        <ele>609.009</ele>
        <time>2022-06-18T13:46:39Z</time>
      </trkpt>
      <trkpt lat="42.499033000000125" lon="-1.216715">
        <ele>608.016</ele>
        <time>2022-06-18T13:46:41Z</time>
      </trkpt>
      <trkpt lat="42.498980000000124" lon="-1.216853">
        <ele>607.285</ele>
        <time>2022-06-18T13:46:42Z</time>
      </trkpt>
      <trkpt lat="42.498929000000125" lon="-1.216963">
        <ele>606.610</ele>
        <time>2022-06-18T13:46:43Z</time>
      </trkpt>
      <trkpt lat="42.49886900000013" lon="-1.217061">
        <ele>605.652</ele>
        <time>2022-06-18T13:46:44Z</time>
      </trkpt>
      <trkpt lat="42.498813000000126" lon="-1.217128">
        <ele>605.064</ele>
        <time>2022-06-18T13:46:45Z</time>
      </trkpt>
      <trkpt lat="42.498737000000126" lon="-1.217203">
        <ele>604.478</ele>
        <time>2022-06-18T13:46:46Z</time>
      </trkpt>
      <trkpt lat="42.49864100000013" lon="-1.217284">
        <ele>603.426</ele>
        <time>2022-06-18T13:46:47Z</time>
      </trkpt>
      <trkpt lat="42.49848000000013" lon="-1.21742">
        <ele>601.651</ele>
        <time>2022-06-18T13:46:49Z</time>
      </trkpt>
      <trkpt lat="42.49841700000013" lon="-1.217476">
        <ele>600.621</ele>
        <time>2022-06-18T13:46:50Z</time>
      </trkpt>
      <trkpt lat="42.498236000000134" lon="-1.217632">
        <ele>598.634</ele>
        <time>2022-06-18T13:46:52Z</time>
      </trkpt>
      <trkpt lat="42.49806500000013" lon="-1.217776">
        <ele>597.655</ele>
        <time>2022-06-18T13:46:54Z</time>
      </trkpt>
      <trkpt lat="42.49789300000013" lon="-1.2179229999999999">
        <ele>596.210</ele>
        <time>2022-06-18T13:46:56Z</time>
      </trkpt>
      <trkpt lat="42.49772700000013" lon="-1.2180739999999999">
        <ele>595.809</ele>
        <time>2022-06-18T13:46:58Z</time>
      </trkpt>
      <trkpt lat="42.497487000000135" lon="-1.2183179999999998">
        <ele>595.034</ele>
        <time>2022-06-18T13:47:01Z</time>
      </trkpt>
      <trkpt lat="42.497340000000136" lon="-1.2185119999999998">
        <ele>594.443</ele>
        <time>2022-06-18T13:47:03Z</time>
      </trkpt>
      <trkpt lat="42.49727500000014" lon="-1.2186219999999999">
        <ele>593.868</ele>
        <time>2022-06-18T13:47:04Z</time>
      </trkpt>
      <trkpt lat="42.49716100000013" lon="-1.2188579999999998">
        <ele>592.620</ele>
        <time>2022-06-18T13:47:06Z</time>
      </trkpt>
      <trkpt lat="42.49710900000014" lon="-1.2189799999999997">
        <ele>591.672</ele>
        <time>2022-06-18T13:47:07Z</time>
      </trkpt>
      <trkpt lat="42.49700900000013" lon="-1.2191889999999996">
        <ele>590.286</ele>
        <time>2022-06-18T13:47:09Z</time>
      </trkpt>
      <trkpt lat="42.49688800000013" lon="-1.2194289999999997">
        <ele>589.074</ele>
        <time>2022-06-18T13:47:11Z</time>
      </trkpt>
      <trkpt lat="42.49677600000013" lon="-1.2196359999999997">
        <ele>588.079</ele>
        <time>2022-06-18T13:47:13Z</time>
      </trkpt>
      <trkpt lat="42.49659300000013" lon="-1.2199109999999997">
        <ele>586.659</ele>
        <time>2022-06-18T13:47:16Z</time>
      </trkpt>
      <trkpt lat="42.49648600000013" lon="-1.2200859999999998">
        <ele>586.074</ele>
        <time>2022-06-18T13:47:18Z</time>
      </trkpt>
      <trkpt lat="42.496429000000134" lon="-1.2202629999999999">
        <ele>585.856</ele>
        <time>2022-06-18T13:47:20Z</time>
      </trkpt>
      <trkpt lat="42.496431000000136" lon="-1.2203849999999998">
        <ele>585.621</ele>
        <time>2022-06-18T13:47:21Z</time>
      </trkpt>
      <trkpt lat="42.496465000000136" lon="-1.2204679999999999">
        <ele>585.609</ele>
        <time>2022-06-18T13:47:22Z</time>
      </trkpt>
      <trkpt lat="42.49651400000013" lon="-1.220532">
        <ele>585.668</ele>
        <time>2022-06-18T13:47:23Z</time>
      </trkpt>
      <trkpt lat="42.49656200000013" lon="-1.2205629999999998">
        <ele>585.637</ele>
        <time>2022-06-18T13:47:24Z</time>
      </trkpt>
      <trkpt lat="42.49662700000013" lon="-1.2205719999999998">
        <ele>585.622</ele>
        <time>2022-06-18T13:47:25Z</time>
      </trkpt>
      <trkpt lat="42.496702000000134" lon="-1.2205369999999998">
        <ele>585.814</ele>
        <time>2022-06-18T13:47:26Z</time>
      </trkpt>
      <trkpt lat="42.497076000000135" lon="-1.2202119999999999">
        <ele>585.666</ele>
        <time>2022-06-18T13:47:32Z</time>
      </trkpt>
      <trkpt lat="42.497301000000135" lon="-1.219949">
        <ele>585.650</ele>
        <time>2022-06-18T13:47:36Z</time>
      </trkpt>
      <trkpt lat="42.49741500000014" lon="-1.219839">
        <ele>585.678</ele>
        <time>2022-06-18T13:47:38Z</time>
      </trkpt>
      <trkpt lat="42.49754800000014" lon="-1.2197099999999998">
        <ele>584.663</ele>
        <time>2022-06-18T13:47:40Z</time>
      </trkpt>
      <trkpt lat="42.49777300000014" lon="-1.219485">
        <ele>584.053</ele>
        <time>2022-06-18T13:47:43Z</time>
      </trkpt>
      <trkpt lat="42.497931000000136" lon="-1.219353">
        <ele>583.644</ele>
        <time>2022-06-18T13:47:45Z</time>
      </trkpt>
      <trkpt lat="42.49801700000014" lon="-1.219301">
        <ele>583.605</ele>
        <time>2022-06-18T13:47:46Z</time>
      </trkpt>
      <trkpt lat="42.49810300000014" lon="-1.21925">
        <ele>583.415</ele>
        <time>2022-06-18T13:47:47Z</time>
      </trkpt>
      <trkpt lat="42.49848600000014" lon="-1.219077">
        <ele>581.809</ele>
        <time>2022-06-18T13:47:51Z</time>
      </trkpt>
      <trkpt lat="42.49859100000014" lon="-1.219032">
        <ele>581.075</ele>
        <time>2022-06-18T13:47:52Z</time>
      </trkpt>
      <trkpt lat="42.49869600000014" lon="-1.2189869999999998">
        <ele>580.264</ele>
        <time>2022-06-18T13:47:53Z</time>
      </trkpt>
      <trkpt lat="42.498908000000135" lon="-1.2189039999999998">
        <ele>578.839</ele>
        <time>2022-06-18T13:47:55Z</time>
      </trkpt>
      <trkpt lat="42.499223000000136" lon="-1.2187789999999998">
        <ele>577.251</ele>
        <time>2022-06-18T13:47:58Z</time>
      </trkpt>
      <trkpt lat="42.49932600000014" lon="-1.2187389999999998">
        <ele>576.863</ele>
        <time>2022-06-18T13:47:59Z</time>
      </trkpt>
      <trkpt lat="42.49942800000014" lon="-1.2186979999999998">
        <ele>576.257</ele>
        <time>2022-06-18T13:48:00Z</time>
      </trkpt>
      <trkpt lat="42.499631000000136" lon="-1.2186169999999998">
        <ele>574.695</ele>
        <time>2022-06-18T13:48:02Z</time>
      </trkpt>
      <trkpt lat="42.49973100000014" lon="-1.2185769999999998">
        <ele>572.850</ele>
        <time>2022-06-18T13:48:03Z</time>
      </trkpt>
      <trkpt lat="42.499811000000136" lon="-1.2185449999999998">
        <ele>571.660</ele>
        <time>2022-06-18T13:48:04Z</time>
      </trkpt>
      <trkpt lat="42.50002900000013" lon="-1.2184559999999998">
        <ele>570.638</ele>
        <time>2022-06-18T13:48:06Z</time>
      </trkpt>
      <trkpt lat="42.500127000000134" lon="-1.2184179999999998">
        <ele>570.470</ele>
        <time>2022-06-18T13:48:07Z</time>
      </trkpt>
      <trkpt lat="42.50074400000013" lon="-1.2181759999999997">
        <ele>569.217</ele>
        <time>2022-06-18T13:48:13Z</time>
      </trkpt>
      <trkpt lat="42.50094900000013" lon="-1.2180889999999998">
        <ele>567.809</ele>
        <time>2022-06-18T13:48:15Z</time>
      </trkpt>
      <trkpt lat="42.501238000000136" lon="-1.2179449999999998">
        <ele>566.674</ele>
        <time>2022-06-18T13:48:18Z</time>
      </trkpt>
      <trkpt lat="42.50132900000013" lon="-1.2178879999999999">
        <ele>566.423</ele>
        <time>2022-06-18T13:48:19Z</time>
      </trkpt>
      <trkpt lat="42.50151500000013" lon="-1.2177719999999999">
        <ele>564.898</ele>
        <time>2022-06-18T13:48:21Z</time>
      </trkpt>
      <trkpt lat="42.50161100000013" lon="-1.2177109999999998">
        <ele>563.870</ele>
        <time>2022-06-18T13:48:22Z</time>
      </trkpt>
      <trkpt lat="42.50198200000013" lon="-1.2174859999999998">
        <ele>562.442</ele>
        <time>2022-06-18T13:48:26Z</time>
      </trkpt>
      <trkpt lat="42.50207500000013" lon="-1.2174349999999998">
        <ele>562.076</ele>
        <time>2022-06-18T13:48:27Z</time>
      </trkpt>
      <trkpt lat="42.502417000000136" lon="-1.217218">
        <ele>560.674</ele>
        <time>2022-06-18T13:48:31Z</time>
      </trkpt>
      <trkpt lat="42.502558000000136" lon="-1.2171299999999998">
        <ele>559.239</ele>
        <time>2022-06-18T13:48:33Z</time>
      </trkpt>
      <trkpt lat="42.502648000000136" lon="-1.2170709999999998">
        <ele>558.889</ele>
        <time>2022-06-18T13:48:34Z</time>
      </trkpt>
      <trkpt lat="42.50279100000014" lon="-1.2169749999999997">
        <ele>557.636</ele>
        <time>2022-06-18T13:48:36Z</time>
      </trkpt>
      <trkpt lat="42.502969000000135" lon="-1.2168499999999998">
        <ele>556.417</ele>
        <time>2022-06-18T13:48:39Z</time>
      </trkpt>
      <trkpt lat="42.503099000000134" lon="-1.2167679999999998">
        <ele>555.218</ele>
        <time>2022-06-18T13:48:41Z</time>
      </trkpt>
      <trkpt lat="42.50314700000013" lon="-1.216729">
        <ele>555.009</ele>
        <time>2022-06-18T13:48:42Z</time>
      </trkpt>
      <trkpt lat="42.50318500000014" lon="-1.2166759999999999">
        <ele>554.424</ele>
        <time>2022-06-18T13:48:43Z</time>
      </trkpt>
      <trkpt lat="42.50320700000014" lon="-1.2166109999999999">
        <ele>553.633</ele>
        <time>2022-06-18T13:48:44Z</time>
      </trkpt>
      <trkpt lat="42.50320600000014" lon="-1.2164609999999998">
        <ele>552.648</ele>
        <time>2022-06-18T13:48:46Z</time>
      </trkpt>
      <trkpt lat="42.503188000000144" lon="-1.2164019999999998">
        <ele>552.440</ele>
        <time>2022-06-18T13:48:47Z</time>
      </trkpt>
      <trkpt lat="42.503159000000146" lon="-1.2163299999999997">
        <ele>552.022</ele>
        <time>2022-06-18T13:48:48Z</time>
      </trkpt>
      <trkpt lat="42.50308700000014" lon="-1.2161869999999997">
        <ele>551.636</ele>
        <time>2022-06-18T13:48:50Z</time>
      </trkpt>
      <trkpt lat="42.50301200000014" lon="-1.2160429999999998">
        <ele>551.234</ele>
        <time>2022-06-18T13:48:52Z</time>
      </trkpt>
      <trkpt lat="42.50292300000014" lon="-1.2158079999999998">
        <ele>550.059</ele>
        <time>2022-06-18T13:48:55Z</time>
      </trkpt>
      <trkpt lat="42.502873000000136" lon="-1.2154179999999999">
        <ele>549.079</ele>
        <time>2022-06-18T13:49:00Z</time>
      </trkpt>
      <trkpt lat="42.50287200000014" lon="-1.215347">
        <ele>549.082</ele>
        <time>2022-06-18T13:49:01Z</time>
      </trkpt>
      <trkpt lat="42.50287500000014" lon="-1.214866">
        <ele>549.043</ele>
        <time>2022-06-18T13:49:08Z</time>
      </trkpt>
      <trkpt lat="42.50294800000014" lon="-1.214389">
        <ele>549.217</ele>
        <time>2022-06-18T13:49:15Z</time>
      </trkpt>
      <trkpt lat="42.50298600000014" lon="-1.214099">
        <ele>549.209</ele>
        <time>2022-06-18T13:49:19Z</time>
      </trkpt>
      <trkpt lat="42.502985000000145" lon="-1.21388">
        <ele>549.249</ele>
        <time>2022-06-18T13:49:22Z</time>
      </trkpt>
      <trkpt lat="42.502915000000144" lon="-1.213473">
        <ele>549.098</ele>
        <time>2022-06-18T13:49:28Z</time>
      </trkpt>
      <trkpt lat="42.502895000000144" lon="-1.213406">
        <ele>549.033</ele>
        <time>2022-06-18T13:49:29Z</time>
      </trkpt>
      <trkpt lat="42.502731000000146" lon="-1.213065">
        <ele>549.485</ele>
        <time>2022-06-18T13:49:35Z</time>
      </trkpt>
      <trkpt lat="42.502461000000146" lon="-1.212647">
        <ele>550.237</ele>
        <time>2022-06-18T13:49:44Z</time>
      </trkpt>
      <trkpt lat="42.502405000000145" lon="-1.212564">
        <ele>550.251</ele>
        <time>2022-06-18T13:49:46Z</time>
      </trkpt>
      <trkpt lat="42.50230600000015" lon="-1.212378">
        <ele>550.699</ele>
        <time>2022-06-18T13:49:50Z</time>
      </trkpt>
      <trkpt lat="42.50223700000014" lon="-1.212237">
        <ele>551.634</ele>
        <time>2022-06-18T13:49:53Z</time>
      </trkpt>
      <trkpt lat="42.50217600000014" lon="-1.212093">
        <ele>552.834</ele>
        <time>2022-06-18T13:49:56Z</time>
      </trkpt>
      <trkpt lat="42.50212600000014" lon="-1.2119410000000002">
        <ele>553.468</ele>
        <time>2022-06-18T13:49:59Z</time>
      </trkpt>
      <trkpt lat="42.50208900000014" lon="-1.211783">
        <ele>553.442</ele>
        <time>2022-06-18T13:50:02Z</time>
      </trkpt>
      <trkpt lat="42.50205400000014" lon="-1.211498">
        <ele>553.626</ele>
        <time>2022-06-18T13:50:07Z</time>
      </trkpt>
      <trkpt lat="42.50207700000014" lon="-1.211246">
        <ele>553.609</ele>
        <time>2022-06-18T13:50:12Z</time>
      </trkpt>
      <trkpt lat="42.50208800000014" lon="-1.2111830000000001">
        <ele>553.857</ele>
        <time>2022-06-18T13:50:13Z</time>
      </trkpt>
      <trkpt lat="42.50209400000014" lon="-1.2111440000000002">
        <ele>553.866</ele>
        <time>2022-06-18T13:50:14Z</time>
      </trkpt>
      <trkpt lat="42.50214000000014" lon="-1.2109350000000003">
        <ele>554.081</ele>
        <time>2022-06-18T13:50:18Z</time>
      </trkpt>
      <trkpt lat="42.50217300000014" lon="-1.2107770000000002">
        <ele>554.283</ele>
        <time>2022-06-18T13:50:21Z</time>
      </trkpt>
      <trkpt lat="42.502276000000144" lon="-1.2103540000000002">
        <ele>554.865</ele>
        <time>2022-06-18T13:50:29Z</time>
      </trkpt>
      <trkpt lat="42.50228600000015" lon="-1.2103140000000001">
        <ele>555.059</ele>
        <time>2022-06-18T13:50:30Z</time>
      </trkpt>
      <trkpt lat="42.50237300000015" lon="-1.2100110000000002">
        <ele>556.287</ele>
        <time>2022-06-18T13:50:36Z</time>
      </trkpt>
      <trkpt lat="42.502388000000145" lon="-1.2099590000000002">
        <ele>556.472</ele>
        <time>2022-06-18T13:50:37Z</time>
      </trkpt>
      <trkpt lat="42.50253800000014" lon="-1.2095580000000001">
        <ele>556.652</ele>
        <time>2022-06-18T13:50:45Z</time>
      </trkpt>
      <trkpt lat="42.50263200000014" lon="-1.2094200000000002">
        <ele>556.638</ele>
        <time>2022-06-18T13:50:48Z</time>
      </trkpt>
      <trkpt lat="42.50271300000014" lon="-1.2093450000000001">
        <ele>556.670</ele>
        <time>2022-06-18T13:50:50Z</time>
      </trkpt>
      <trkpt lat="42.50303700000014" lon="-1.2091690000000002">
        <ele>556.017</ele>
        <time>2022-06-18T13:50:56Z</time>
      </trkpt>
      <trkpt lat="42.50333200000014" lon="-1.2090520000000002">
        <ele>555.209</ele>
        <time>2022-06-18T13:51:00Z</time>
      </trkpt>
      <trkpt lat="42.503472000000144" lon="-1.2089930000000002">
        <ele>554.884</ele>
        <time>2022-06-18T13:51:02Z</time>
      </trkpt>
      <trkpt lat="42.50365300000014" lon="-1.2089000000000003">
        <ele>554.053</ele>
        <time>2022-06-18T13:51:04Z</time>
      </trkpt>
      <trkpt lat="42.50380000000014" lon="-1.2087910000000004">
        <ele>553.618</ele>
        <time>2022-06-18T13:51:06Z</time>
      </trkpt>
      <trkpt lat="42.50396800000014" lon="-1.2086410000000003">
        <ele>553.040</ele>
        <time>2022-06-18T13:51:08Z</time>
      </trkpt>
      <trkpt lat="42.50411700000014" lon="-1.2085050000000004">
        <ele>552.092</ele>
        <time>2022-06-18T13:51:10Z</time>
      </trkpt>
      <trkpt lat="42.50426900000014" lon="-1.2083900000000003">
        <ele>551.496</ele>
        <time>2022-06-18T13:51:12Z</time>
      </trkpt>
      <trkpt lat="42.504347000000145" lon="-1.2083530000000002">
        <ele>550.814</ele>
        <time>2022-06-18T13:51:13Z</time>
      </trkpt>
      <trkpt lat="42.50442500000015" lon="-1.2083320000000002">
        <ele>550.439</ele>
        <time>2022-06-18T13:51:14Z</time>
      </trkpt>
      <trkpt lat="42.50450600000015" lon="-1.2083210000000002">
        <ele>549.849</ele>
        <time>2022-06-18T13:51:15Z</time>
      </trkpt>
      <trkpt lat="42.50457000000015" lon="-1.2083130000000002">
        <ele>549.625</ele>
        <time>2022-06-18T13:51:16Z</time>
      </trkpt>
      <trkpt lat="42.50488800000015" lon="-1.2082350000000002">
        <ele>549.626</ele>
        <time>2022-06-18T13:51:20Z</time>
      </trkpt>
      <trkpt lat="42.50494400000015" lon="-1.2082060000000001">
        <ele>549.608</ele>
        <time>2022-06-18T13:51:21Z</time>
      </trkpt>
      <trkpt lat="42.50500700000015" lon="-1.2081600000000001">
        <ele>549.609</ele>
        <time>2022-06-18T13:51:22Z</time>
      </trkpt>
      <trkpt lat="42.50510700000015" lon="-1.2080400000000002">
        <ele>549.223</ele>
        <time>2022-06-18T13:51:24Z</time>
      </trkpt>
      <trkpt lat="42.505345000000155" lon="-1.2076680000000002">
        <ele>549.832</ele>
        <time>2022-06-18T13:51:30Z</time>
      </trkpt>
      <trkpt lat="42.50557700000015" lon="-1.2074690000000001">
        <ele>550.257</ele>
        <time>2022-06-18T13:51:35Z</time>
      </trkpt>
      <trkpt lat="42.50571700000015" lon="-1.2073770000000001">
        <ele>551.019</ele>
        <time>2022-06-18T13:51:38Z</time>
      </trkpt>
      <trkpt lat="42.50588700000015" lon="-1.2072850000000002">
        <ele>551.871</ele>
        <time>2022-06-18T13:51:42Z</time>
      </trkpt>
      <trkpt lat="42.50601400000015" lon="-1.207229">
        <ele>552.425</ele>
        <time>2022-06-18T13:51:45Z</time>
      </trkpt>
      <trkpt lat="42.50624300000015" lon="-1.207132">
        <ele>553.083</ele>
        <time>2022-06-18T13:51:51Z</time>
      </trkpt>
      <trkpt lat="42.50639800000015" lon="-1.207068">
        <ele>553.688</ele>
        <time>2022-06-18T13:51:55Z</time>
      </trkpt>
      <trkpt lat="42.50650700000015" lon="-1.207019">
        <ele>554.078</ele>
        <time>2022-06-18T13:51:58Z</time>
      </trkpt>
      <trkpt lat="42.50660500000015" lon="-1.206963">
        <ele>554.887</ele>
        <time>2022-06-18T13:52:01Z</time>
      </trkpt>
      <trkpt lat="42.50678800000015" lon="-1.206883">
        <ele>555.642</ele>
        <time>2022-06-18T13:52:06Z</time>
      </trkpt>
      <trkpt lat="42.506899000000146" lon="-1.206823">
        <ele>555.826</ele>
        <time>2022-06-18T13:52:09Z</time>
      </trkpt>
      <trkpt lat="42.50711200000015" lon="-1.206729">
        <ele>556.209</ele>
        <time>2022-06-18T13:52:15Z</time>
      </trkpt>
      <trkpt lat="42.50735400000015" lon="-1.206602">
        <ele>556.859</ele>
        <time>2022-06-18T13:52:22Z</time>
      </trkpt>
      <trkpt lat="42.50739900000015" lon="-1.20658">
        <ele>556.858</ele>
        <time>2022-06-18T13:52:23Z</time>
      </trkpt>
      <trkpt lat="42.50782400000015" lon="-1.206359">
        <ele>557.673</ele>
        <time>2022-06-18T13:52:35Z</time>
      </trkpt>
      <trkpt lat="42.50793800000015" lon="-1.206311">
        <ele>557.875</ele>
        <time>2022-06-18T13:52:38Z</time>
      </trkpt>
      <trkpt lat="42.50815800000015" lon="-1.2062">
        <ele>557.827</ele>
        <time>2022-06-18T13:52:43Z</time>
      </trkpt>
      <trkpt lat="42.50851900000015" lon="-1.206027">
        <ele>557.661</ele>
        <time>2022-06-18T13:52:49Z</time>
      </trkpt>
      <trkpt lat="42.50873000000015" lon="-1.205945">
        <ele>557.069</ele>
        <time>2022-06-18T13:52:52Z</time>
      </trkpt>
      <trkpt lat="42.50888400000015" lon="-1.205928">
        <ele>556.054</ele>
        <time>2022-06-18T13:52:54Z</time>
      </trkpt>
      <trkpt lat="42.50912700000015" lon="-1.2059760000000002">
        <ele>554.694</ele>
        <time>2022-06-18T13:52:57Z</time>
      </trkpt>
      <trkpt lat="42.50929600000015" lon="-1.2060260000000003">
        <ele>553.899</ele>
        <time>2022-06-18T13:52:59Z</time>
      </trkpt>
      <trkpt lat="42.509384000000146" lon="-1.2060510000000002">
        <ele>553.007</ele>
        <time>2022-06-18T13:53:00Z</time>
      </trkpt>
      <trkpt lat="42.50973800000015" lon="-1.2061720000000002">
        <ele>551.627</ele>
        <time>2022-06-18T13:53:04Z</time>
      </trkpt>
      <trkpt lat="42.50982800000015" lon="-1.2062030000000001">
        <ele>551.409</ele>
        <time>2022-06-18T13:53:05Z</time>
      </trkpt>
      <trkpt lat="42.510096000000146" lon="-1.2062970000000002">
        <ele>550.040</ele>
        <time>2022-06-18T13:53:08Z</time>
      </trkpt>
      <trkpt lat="42.510432000000144" lon="-1.2064020000000002">
        <ele>549.029</ele>
        <time>2022-06-18T13:53:12Z</time>
      </trkpt>
      <trkpt lat="42.510586000000146" lon="-1.2064530000000002">
        <ele>549.044</ele>
        <time>2022-06-18T13:53:14Z</time>
      </trkpt>
      <trkpt lat="42.51079300000015" lon="-1.2064780000000002">
        <ele>549.026</ele>
        <time>2022-06-18T13:53:17Z</time>
      </trkpt>
      <trkpt lat="42.51107600000015" lon="-1.206433">
        <ele>550.268</ele>
        <time>2022-06-18T13:53:22Z</time>
      </trkpt>
      <trkpt lat="42.51120500000015" lon="-1.206404">
        <ele>551.422</ele>
        <time>2022-06-18T13:53:25Z</time>
      </trkpt>
      <trkpt lat="42.51131600000015" lon="-1.2063840000000001">
        <ele>552.620</ele>
        <time>2022-06-18T13:53:28Z</time>
      </trkpt>
      <trkpt lat="42.51145500000015" lon="-1.206358">
        <ele>553.655</ele>
        <time>2022-06-18T13:53:32Z</time>
      </trkpt>
      <trkpt lat="42.511594000000144" lon="-1.206329">
        <ele>554.465</ele>
        <time>2022-06-18T13:53:36Z</time>
      </trkpt>
      <trkpt lat="42.51167700000014" lon="-1.206288">
        <ele>554.872</ele>
        <time>2022-06-18T13:53:39Z</time>
      </trkpt>
      <trkpt lat="42.511794000000144" lon="-1.206229">
        <ele>555.813</ele>
        <time>2022-06-18T13:53:43Z</time>
      </trkpt>
      <trkpt lat="42.511875000000146" lon="-1.206174">
        <ele>556.214</ele>
        <time>2022-06-18T13:53:46Z</time>
      </trkpt>
      <trkpt lat="42.51200300000014" lon="-1.2061380000000002">
        <ele>557.009</ele>
        <time>2022-06-18T13:53:50Z</time>
      </trkpt>
      <trkpt lat="42.512039000000144" lon="-1.206147">
        <ele>557.648</ele>
        <time>2022-06-18T13:53:51Z</time>
      </trkpt>
      <trkpt lat="42.512213000000145" lon="-1.206255">
        <ele>558.027</ele>
        <time>2022-06-18T13:53:55Z</time>
      </trkpt>
      <trkpt lat="42.51245600000014" lon="-1.206447">
        <ele>558.242</ele>
        <time>2022-06-18T13:53:59Z</time>
      </trkpt>
      <trkpt lat="42.512528000000145" lon="-1.206505">
        <ele>558.274</ele>
        <time>2022-06-18T13:54:00Z</time>
      </trkpt>
      <trkpt lat="42.512826000000146" lon="-1.2068079999999999">
        <ele>557.856</ele>
        <time>2022-06-18T13:54:04Z</time>
      </trkpt>
      <trkpt lat="42.512947000000146" lon="-1.2069509999999999">
        <ele>557.250</ele>
        <time>2022-06-18T13:54:06Z</time>
      </trkpt>
      <trkpt lat="42.513007000000144" lon="-1.206988">
        <ele>556.618</ele>
        <time>2022-06-18T13:54:07Z</time>
      </trkpt>
      <trkpt lat="42.51308400000014" lon="-1.207013">
        <ele>556.013</ele>
        <time>2022-06-18T13:54:08Z</time>
      </trkpt>
      <trkpt lat="42.513229000000145" lon="-1.206959">
        <ele>554.643</ele>
        <time>2022-06-18T13:54:10Z</time>
      </trkpt>
      <trkpt lat="42.51330400000015" lon="-1.206788">
        <ele>553.625</ele>
        <time>2022-06-18T13:54:12Z</time>
      </trkpt>
      <trkpt lat="42.51333500000015" lon="-1.206527">
        <ele>552.226</ele>
        <time>2022-06-18T13:54:14Z</time>
      </trkpt>
      <trkpt lat="42.513350000000145" lon="-1.2063899999999999">
        <ele>551.008</ele>
        <time>2022-06-18T13:54:15Z</time>
      </trkpt>
      <trkpt lat="42.51336800000014" lon="-1.206254">
        <ele>549.609</ele>
        <time>2022-06-18T13:54:16Z</time>
      </trkpt>
      <trkpt lat="42.51338800000014" lon="-1.206113">
        <ele>548.273</ele>
        <time>2022-06-18T13:54:17Z</time>
      </trkpt>
      <trkpt lat="42.51340600000014" lon="-1.205965">
        <ele>546.852</ele>
        <time>2022-06-18T13:54:18Z</time>
      </trkpt>
      <trkpt lat="42.51343700000014" lon="-1.205787">
        <ele>545.077</ele>
        <time>2022-06-18T13:54:19Z</time>
      </trkpt>
      <trkpt lat="42.51346700000014" lon="-1.205671">
        <ele>543.299</ele>
        <time>2022-06-18T13:54:20Z</time>
      </trkpt>
      <trkpt lat="42.51351700000014" lon="-1.205531">
        <ele>541.831</ele>
        <time>2022-06-18T13:54:21Z</time>
      </trkpt>
      <trkpt lat="42.51358700000014" lon="-1.205409">
        <ele>540.465</ele>
        <time>2022-06-18T13:54:22Z</time>
      </trkpt>
      <trkpt lat="42.513673000000146" lon="-1.205304">
        <ele>539.013</ele>
        <time>2022-06-18T13:54:23Z</time>
      </trkpt>
      <trkpt lat="42.51385800000015" lon="-1.205129">
        <ele>537.488</ele>
        <time>2022-06-18T13:54:25Z</time>
      </trkpt>
      <trkpt lat="42.514045000000145" lon="-1.204961">
        <ele>536.658</ele>
        <time>2022-06-18T13:54:27Z</time>
      </trkpt>
      <trkpt lat="42.514135000000145" lon="-1.204866">
        <ele>535.645</ele>
        <time>2022-06-18T13:54:28Z</time>
      </trkpt>
      <trkpt lat="42.51430200000014" lon="-1.204648">
        <ele>534.247</ele>
        <time>2022-06-18T13:54:30Z</time>
      </trkpt>
      <trkpt lat="42.51437900000014" lon="-1.2045329999999999">
        <ele>533.611</ele>
        <time>2022-06-18T13:54:31Z</time>
      </trkpt>
      <trkpt lat="42.51445400000014" lon="-1.2044169999999998">
        <ele>532.809</ele>
        <time>2022-06-18T13:54:32Z</time>
      </trkpt>
      <trkpt lat="42.51452500000014" lon="-1.2042959999999998">
        <ele>531.885</ele>
        <time>2022-06-18T13:54:33Z</time>
      </trkpt>
      <trkpt lat="42.514746000000144" lon="-1.2039339999999998">
        <ele>530.694</ele>
        <time>2022-06-18T13:54:36Z</time>
      </trkpt>
      <trkpt lat="42.51489900000014" lon="-1.203685">
        <ele>529.239</ele>
        <time>2022-06-18T13:54:38Z</time>
      </trkpt>
      <trkpt lat="42.51505500000014" lon="-1.2034289999999999">
        <ele>527.051</ele>
        <time>2022-06-18T13:54:40Z</time>
      </trkpt>
      <trkpt lat="42.515135000000136" lon="-1.203299">
        <ele>525.673</ele>
        <time>2022-06-18T13:54:41Z</time>
      </trkpt>
      <trkpt lat="42.515293000000135" lon="-1.203039">
        <ele>523.847</ele>
        <time>2022-06-18T13:54:43Z</time>
      </trkpt>
      <trkpt lat="42.515445000000135" lon="-1.202783">
        <ele>522.855</ele>
        <time>2022-06-18T13:54:45Z</time>
      </trkpt>
      <trkpt lat="42.515594000000135" lon="-1.202542">
        <ele>521.050</ele>
        <time>2022-06-18T13:54:47Z</time>
      </trkpt>
      <trkpt lat="42.515670000000135" lon="-1.202431">
        <ele>520.070</ele>
        <time>2022-06-18T13:54:48Z</time>
      </trkpt>
      <trkpt lat="42.51584300000013" lon="-1.202216">
        <ele>519.246</ele>
        <time>2022-06-18T13:54:50Z</time>
      </trkpt>
      <trkpt lat="42.51613900000013" lon="-1.201892">
        <ele>519.088</ele>
        <time>2022-06-18T13:54:54Z</time>
      </trkpt>
      <trkpt lat="42.51628200000013" lon="-1.201743">
        <ele>519.016</ele>
        <time>2022-06-18T13:54:56Z</time>
      </trkpt>
      <trkpt lat="42.51675200000013" lon="-1.201289">
        <ele>519.409</ele>
        <time>2022-06-18T13:55:03Z</time>
      </trkpt>
      <trkpt lat="42.51686800000013" lon="-1.2012150000000001">
        <ele>519.645</ele>
        <time>2022-06-18T13:55:05Z</time>
      </trkpt>
      <trkpt lat="42.51698100000013" lon="-1.20117">
        <ele>519.864</ele>
        <time>2022-06-18T13:55:07Z</time>
      </trkpt>
      <trkpt lat="42.51703700000013" lon="-1.201155">
        <ele>520.069</ele>
        <time>2022-06-18T13:55:08Z</time>
      </trkpt>
      <trkpt lat="42.51714400000013" lon="-1.201137">
        <ele>521.271</ele>
        <time>2022-06-18T13:55:10Z</time>
      </trkpt>
      <trkpt lat="42.51724400000013" lon="-1.201134">
        <ele>522.833</ele>
        <time>2022-06-18T13:55:12Z</time>
      </trkpt>
      <trkpt lat="42.51733700000013" lon="-1.2011159999999999">
        <ele>524.487</ele>
        <time>2022-06-18T13:55:14Z</time>
      </trkpt>
      <trkpt lat="42.51746700000013" lon="-1.2011109999999998">
        <ele>525.625</ele>
        <time>2022-06-18T13:55:17Z</time>
      </trkpt>
      <trkpt lat="42.51762700000013" lon="-1.2010949999999998">
        <ele>526.810</ele>
        <time>2022-06-18T13:55:21Z</time>
      </trkpt>
      <trkpt lat="42.517736000000134" lon="-1.2010849999999997">
        <ele>527.630</ele>
        <time>2022-06-18T13:55:24Z</time>
      </trkpt>
      <trkpt lat="42.51781100000014" lon="-1.2010749999999997">
        <ele>528.088</ele>
        <time>2022-06-18T13:55:26Z</time>
      </trkpt>
      <trkpt lat="42.51798800000014" lon="-1.2010249999999996">
        <ele>529.024</ele>
        <time>2022-06-18T13:55:31Z</time>
      </trkpt>
      <trkpt lat="42.518059000000136" lon="-1.2009929999999995">
        <ele>529.426</ele>
        <time>2022-06-18T13:55:33Z</time>
      </trkpt>
      <trkpt lat="42.518200000000135" lon="-1.2008529999999995">
        <ele>530.209</ele>
        <time>2022-06-18T13:55:38Z</time>
      </trkpt>
      <trkpt lat="42.51822200000014" lon="-1.2008179999999995">
        <ele>530.439</ele>
        <time>2022-06-18T13:55:39Z</time>
      </trkpt>
      <trkpt lat="42.51830300000014" lon="-1.2005189999999994">
        <ele>530.858</ele>
        <time>2022-06-18T13:55:45Z</time>
      </trkpt>
      <trkpt lat="42.51830500000014" lon="-1.2001339999999994">
        <ele>530.853</ele>
        <time>2022-06-18T13:55:50Z</time>
      </trkpt>
      <trkpt lat="42.51830800000014" lon="-1.2000359999999994">
        <ele>530.865</ele>
        <time>2022-06-18T13:55:51Z</time>
      </trkpt>
      <trkpt lat="42.51834700000014" lon="-1.1998219999999995">
        <ele>530.837</ele>
        <time>2022-06-18T13:55:53Z</time>
      </trkpt>
      <trkpt lat="42.51843400000014" lon="-1.1996139999999995">
        <ele>530.441</ele>
        <time>2022-06-18T13:55:55Z</time>
      </trkpt>
      <trkpt lat="42.51849600000014" lon="-1.1995169999999995">
        <ele>530.259</ele>
        <time>2022-06-18T13:55:56Z</time>
      </trkpt>
      <trkpt lat="42.51856900000014" lon="-1.1994339999999994">
        <ele>529.884</ele>
        <time>2022-06-18T13:55:57Z</time>
      </trkpt>
      <trkpt lat="42.51864800000014" lon="-1.1993579999999995">
        <ele>529.254</ele>
        <time>2022-06-18T13:55:58Z</time>
      </trkpt>
      <trkpt lat="42.51873500000014" lon="-1.1992889999999994">
        <ele>528.027</ele>
        <time>2022-06-18T13:55:59Z</time>
      </trkpt>
      <trkpt lat="42.518827000000144" lon="-1.1992239999999994">
        <ele>526.868</ele>
        <time>2022-06-18T13:56:00Z</time>
      </trkpt>
      <trkpt lat="42.518925000000145" lon="-1.1991569999999994">
        <ele>524.814</ele>
        <time>2022-06-18T13:56:01Z</time>
      </trkpt>
      <trkpt lat="42.519024000000144" lon="-1.1990879999999993">
        <ele>522.609</ele>
        <time>2022-06-18T13:56:02Z</time>
      </trkpt>
      <trkpt lat="42.51912600000014" lon="-1.1990149999999993">
        <ele>520.683</ele>
        <time>2022-06-18T13:56:03Z</time>
      </trkpt>
      <trkpt lat="42.51923000000014" lon="-1.1989429999999992">
        <ele>519.642</ele>
        <time>2022-06-18T13:56:04Z</time>
      </trkpt>
      <trkpt lat="42.51944400000014" lon="-1.1987959999999993">
        <ele>518.657</ele>
        <time>2022-06-18T13:56:06Z</time>
      </trkpt>
      <trkpt lat="42.519553000000144" lon="-1.1987239999999992">
        <ele>518.419</ele>
        <time>2022-06-18T13:56:07Z</time>
      </trkpt>
      <trkpt lat="42.51977600000014" lon="-1.1985729999999992">
        <ele>516.871</ele>
        <time>2022-06-18T13:56:09Z</time>
      </trkpt>
      <trkpt lat="42.519992000000144" lon="-1.1984259999999993">
        <ele>515.655</ele>
        <time>2022-06-18T13:56:11Z</time>
      </trkpt>
      <trkpt lat="42.52020100000014" lon="-1.1982849999999994">
        <ele>513.633</ele>
        <time>2022-06-18T13:56:13Z</time>
      </trkpt>
      <trkpt lat="42.52030200000014" lon="-1.1982189999999995">
        <ele>512.668</ele>
        <time>2022-06-18T13:56:14Z</time>
      </trkpt>
      <trkpt lat="42.520493000000144" lon="-1.1980819999999994">
        <ele>511.478</ele>
        <time>2022-06-18T13:56:16Z</time>
      </trkpt>
      <trkpt lat="42.52058400000014" lon="-1.1980209999999993">
        <ele>511.243</ele>
        <time>2022-06-18T13:56:17Z</time>
      </trkpt>
      <trkpt lat="42.52085100000014" lon="-1.1978509999999993">
        <ele>511.064</ele>
        <time>2022-06-18T13:56:20Z</time>
      </trkpt>
      <trkpt lat="42.52111400000014" lon="-1.1977059999999993">
        <ele>511.010</ele>
        <time>2022-06-18T13:56:23Z</time>
      </trkpt>
      <trkpt lat="42.52154100000014" lon="-1.1974819999999993">
        <ele>512.009</ele>
        <time>2022-06-18T13:56:29Z</time>
      </trkpt>
      <trkpt lat="42.52167400000014" lon="-1.1974069999999992">
        <ele>513.065</ele>
        <time>2022-06-18T13:56:31Z</time>
      </trkpt>
      <trkpt lat="42.52179800000014" lon="-1.1973279999999993">
        <ele>514.044</ele>
        <time>2022-06-18T13:56:33Z</time>
      </trkpt>
      <trkpt lat="42.52196900000014" lon="-1.1972029999999994">
        <ele>515.239</ele>
        <time>2022-06-18T13:56:36Z</time>
      </trkpt>
      <trkpt lat="42.522024000000144" lon="-1.1971509999999994">
        <ele>515.851</ele>
        <time>2022-06-18T13:56:37Z</time>
      </trkpt>
      <trkpt lat="42.522271000000146" lon="-1.1968749999999995">
        <ele>516.263</ele>
        <time>2022-06-18T13:56:41Z</time>
      </trkpt>
      <trkpt lat="42.52235400000014" lon="-1.1967659999999996">
        <ele>516.227</ele>
        <time>2022-06-18T13:56:42Z</time>
      </trkpt>
      <trkpt lat="42.52255900000014" lon="-1.1964309999999996">
        <ele>516.265</ele>
        <time>2022-06-18T13:56:45Z</time>
      </trkpt>
      <trkpt lat="42.522789000000145" lon="-1.1958909999999996">
        <ele>515.640</ele>
        <time>2022-06-18T13:56:49Z</time>
      </trkpt>
      <trkpt lat="42.52284600000014" lon="-1.1957419999999996">
        <ele>514.280</ele>
        <time>2022-06-18T13:56:50Z</time>
      </trkpt>
      <trkpt lat="42.52290900000014" lon="-1.1955959999999997">
        <ele>512.288</ele>
        <time>2022-06-18T13:56:51Z</time>
      </trkpt>
      <trkpt lat="42.52298000000014" lon="-1.1954549999999997">
        <ele>510.624</ele>
        <time>2022-06-18T13:56:52Z</time>
      </trkpt>
      <trkpt lat="42.52306100000014" lon="-1.1953179999999997">
        <ele>508.826</ele>
        <time>2022-06-18T13:56:53Z</time>
      </trkpt>
      <trkpt lat="42.52315500000014" lon="-1.1951909999999997">
        <ele>507.009</ele>
        <time>2022-06-18T13:56:54Z</time>
      </trkpt>
      <trkpt lat="42.523257000000136" lon="-1.1950799999999997">
        <ele>504.869</ele>
        <time>2022-06-18T13:56:55Z</time>
      </trkpt>
      <trkpt lat="42.52336500000013" lon="-1.1949849999999997">
        <ele>503.038</ele>
        <time>2022-06-18T13:56:56Z</time>
      </trkpt>
      <trkpt lat="42.523587000000134" lon="-1.1948279999999998">
        <ele>501.053</ele>
        <time>2022-06-18T13:56:58Z</time>
      </trkpt>
      <trkpt lat="42.523699000000136" lon="-1.1947629999999998">
        <ele>500.295</ele>
        <time>2022-06-18T13:56:59Z</time>
      </trkpt>
      <trkpt lat="42.523809000000135" lon="-1.1947029999999998">
        <ele>498.417</ele>
        <time>2022-06-18T13:57:00Z</time>
      </trkpt>
      <trkpt lat="42.52391800000014" lon="-1.1946439999999998">
        <ele>496.871</ele>
        <time>2022-06-18T13:57:01Z</time>
      </trkpt>
      <trkpt lat="42.52402400000014" lon="-1.1945839999999999">
        <ele>494.699</ele>
        <time>2022-06-18T13:57:02Z</time>
      </trkpt>
      <trkpt lat="42.52412800000014" lon="-1.194526">
        <ele>493.024</ele>
        <time>2022-06-18T13:57:03Z</time>
      </trkpt>
      <trkpt lat="42.52433400000014" lon="-1.194411">
        <ele>491.864</ele>
        <time>2022-06-18T13:57:05Z</time>
      </trkpt>
      <trkpt lat="42.52453600000014" lon="-1.194291">
        <ele>491.453</ele>
        <time>2022-06-18T13:57:07Z</time>
      </trkpt>
      <trkpt lat="42.52502900000014" lon="-1.194021">
        <ele>490.804</ele>
        <time>2022-06-18T13:57:12Z</time>
      </trkpt>
      <trkpt lat="42.52522100000014" lon="-1.193912">
        <ele>490.814</ele>
        <time>2022-06-18T13:57:14Z</time>
      </trkpt>
      <trkpt lat="42.525604000000136" lon="-1.1936930000000001">
        <ele>489.809</ele>
        <time>2022-06-18T13:57:18Z</time>
      </trkpt>
      <trkpt lat="42.525863000000136" lon="-1.1935440000000002">
        <ele>488.836</ele>
        <time>2022-06-18T13:57:21Z</time>
      </trkpt>
      <trkpt lat="42.52602500000014" lon="-1.1934490000000002">
        <ele>488.625</ele>
        <time>2022-06-18T13:57:23Z</time>
      </trkpt>
      <trkpt lat="42.52640500000014" lon="-1.1932330000000002">
        <ele>488.840</ele>
        <time>2022-06-18T13:57:28Z</time>
      </trkpt>
      <trkpt lat="42.52664700000014" lon="-1.1930880000000001">
        <ele>488.652</ele>
        <time>2022-06-18T13:57:32Z</time>
      </trkpt>
      <trkpt lat="42.52688700000014" lon="-1.1929450000000001">
        <ele>489.834</ele>
        <time>2022-06-18T13:57:37Z</time>
      </trkpt>
      <trkpt lat="42.52692800000014" lon="-1.1929170000000002">
        <ele>490.018</ele>
        <time>2022-06-18T13:57:38Z</time>
      </trkpt>
      <trkpt lat="42.52700100000014" lon="-1.1928620000000003">
        <ele>491.096</ele>
        <time>2022-06-18T13:57:40Z</time>
      </trkpt>
      <trkpt lat="42.52704100000014" lon="-1.1928540000000003">
        <ele>491.421</ele>
        <time>2022-06-18T13:57:41Z</time>
      </trkpt>
      <trkpt lat="42.52713300000014" lon="-1.1928060000000003">
        <ele>491.641</ele>
        <time>2022-06-18T13:57:43Z</time>
      </trkpt>
      <trkpt lat="42.52716800000014" lon="-1.1927880000000002">
        <ele>492.211</ele>
        <time>2022-06-18T13:57:44Z</time>
      </trkpt>
      <trkpt lat="42.52730300000014" lon="-1.1927060000000003">
        <ele>493.421</ele>
        <time>2022-06-18T13:57:48Z</time>
      </trkpt>
      <trkpt lat="42.527394000000136" lon="-1.1926410000000003">
        <ele>494.403</ele>
        <time>2022-06-18T13:57:51Z</time>
      </trkpt>
      <trkpt lat="42.52748000000014" lon="-1.1925960000000002">
        <ele>494.809</ele>
        <time>2022-06-18T13:57:54Z</time>
      </trkpt>
      <trkpt lat="42.527712000000136" lon="-1.1924510000000001">
        <ele>495.462</ele>
        <time>2022-06-18T13:58:03Z</time>
      </trkpt>
      <trkpt lat="42.527738000000134" lon="-1.1924340000000002">
        <ele>495.851</ele>
        <time>2022-06-18T13:58:04Z</time>
      </trkpt>
      <trkpt lat="42.527839000000135" lon="-1.1923750000000002">
        <ele>496.846</ele>
        <time>2022-06-18T13:58:08Z</time>
      </trkpt>
      <trkpt lat="42.52791100000014" lon="-1.1923380000000001">
        <ele>497.488</ele>
        <time>2022-06-18T13:58:11Z</time>
      </trkpt>
      <trkpt lat="42.527988000000136" lon="-1.1923020000000002">
        <ele>498.030</ele>
        <time>2022-06-18T13:58:14Z</time>
      </trkpt>
      <trkpt lat="42.52808600000014" lon="-1.1922590000000002">
        <ele>498.614</ele>
        <time>2022-06-18T13:58:18Z</time>
      </trkpt>
      <trkpt lat="42.52812700000014" lon="-1.1922450000000002">
        <ele>499.232</ele>
        <time>2022-06-18T13:58:20Z</time>
      </trkpt>
      <trkpt lat="42.52822400000014" lon="-1.1922040000000003">
        <ele>500.477</ele>
        <time>2022-06-18T13:58:24Z</time>
      </trkpt>
      <trkpt lat="42.52824900000014" lon="-1.1921920000000004">
        <ele>500.667</ele>
        <time>2022-06-18T13:58:25Z</time>
      </trkpt>
      <trkpt lat="42.528323000000135" lon="-1.1921660000000003">
        <ele>501.677</ele>
        <time>2022-06-18T13:58:28Z</time>
      </trkpt>
      <trkpt lat="42.528447000000135" lon="-1.1921130000000002">
        <ele>502.661</ele>
        <time>2022-06-18T13:58:33Z</time>
      </trkpt>
      <trkpt lat="42.528624000000136" lon="-1.1920390000000003">
        <ele>503.627</ele>
        <time>2022-06-18T13:58:40Z</time>
      </trkpt>
      <trkpt lat="42.52864900000014" lon="-1.1920270000000004">
        <ele>503.809</ele>
        <time>2022-06-18T13:58:41Z</time>
      </trkpt>
      <trkpt lat="42.52888100000013" lon="-1.1919060000000004">
        <ele>504.618</ele>
        <time>2022-06-18T13:58:51Z</time>
      </trkpt>
      <trkpt lat="42.52890400000013" lon="-1.1918940000000005">
        <ele>504.827</ele>
        <time>2022-06-18T13:58:52Z</time>
      </trkpt>
      <trkpt lat="42.52901500000013" lon="-1.1918110000000004">
        <ele>506.242</ele>
        <time>2022-06-18T13:58:57Z</time>
      </trkpt>
      <trkpt lat="42.52905800000013" lon="-1.1917760000000004">
        <ele>506.874</ele>
        <time>2022-06-18T13:58:59Z</time>
      </trkpt>
      <trkpt lat="42.529123000000126" lon="-1.1917270000000004">
        <ele>507.646</ele>
        <time>2022-06-18T13:59:02Z</time>
      </trkpt>
      <trkpt lat="42.529228000000124" lon="-1.1916350000000004">
        <ele>508.660</ele>
        <time>2022-06-18T13:59:07Z</time>
      </trkpt>
      <trkpt lat="42.52925100000012" lon="-1.1916200000000003">
        <ele>508.828</ele>
        <time>2022-06-18T13:59:08Z</time>
      </trkpt>
      <trkpt lat="42.52940300000012" lon="-1.1914990000000003">
        <ele>509.623</ele>
        <time>2022-06-18T13:59:15Z</time>
      </trkpt>
      <trkpt lat="42.529503000000126" lon="-1.1914060000000004">
        <ele>510.633</ele>
        <time>2022-06-18T13:59:20Z</time>
      </trkpt>
      <trkpt lat="42.52954400000013" lon="-1.1913730000000005">
        <ele>511.262</ele>
        <time>2022-06-18T13:59:22Z</time>
      </trkpt>
      <trkpt lat="42.52966600000013" lon="-1.1912660000000004">
        <ele>512.083</ele>
        <time>2022-06-18T13:59:28Z</time>
      </trkpt>
      <trkpt lat="42.529686000000126" lon="-1.1912490000000004">
        <ele>512.211</ele>
        <time>2022-06-18T13:59:29Z</time>
      </trkpt>
      <trkpt lat="42.52983100000013" lon="-1.1911250000000004">
        <ele>513.009</ele>
        <time>2022-06-18T13:59:36Z</time>
      </trkpt>
      <trkpt lat="42.52986900000013" lon="-1.1911020000000003">
        <ele>513.457</ele>
        <time>2022-06-18T13:59:38Z</time>
      </trkpt>
      <trkpt lat="42.52994900000013" lon="-1.1910370000000003">
        <ele>514.066</ele>
        <time>2022-06-18T13:59:42Z</time>
      </trkpt>
      <trkpt lat="42.53001000000013" lon="-1.1909890000000003">
        <ele>514.441</ele>
        <time>2022-06-18T13:59:45Z</time>
      </trkpt>
      <trkpt lat="42.53012300000013" lon="-1.1909260000000004">
        <ele>515.493</ele>
        <time>2022-06-18T13:59:50Z</time>
      </trkpt>
      <trkpt lat="42.530147000000134" lon="-1.1909110000000003">
        <ele>515.625</ele>
        <time>2022-06-18T13:59:51Z</time>
      </trkpt>
      <trkpt lat="42.53024100000013" lon="-1.1908590000000003">
        <ele>516.449</ele>
        <time>2022-06-18T13:59:55Z</time>
      </trkpt>
      <trkpt lat="42.53028900000013" lon="-1.1908270000000003">
        <ele>516.887</ele>
        <time>2022-06-18T13:59:57Z</time>
      </trkpt>
      <trkpt lat="42.53041900000013" lon="-1.1907640000000004">
        <ele>517.612</ele>
        <time>2022-06-18T14:00:02Z</time>
      </trkpt>
      <trkpt lat="42.530502000000126" lon="-1.1907120000000004">
        <ele>518.452</ele>
        <time>2022-06-18T14:00:05Z</time>
      </trkpt>
      <trkpt lat="42.53055500000013" lon="-1.1906810000000005">
        <ele>518.853</ele>
        <time>2022-06-18T14:00:07Z</time>
      </trkpt>
      <trkpt lat="42.53073700000013" lon="-1.1905770000000004">
        <ele>520.004</ele>
        <time>2022-06-18T14:00:14Z</time>
      </trkpt>
      <trkpt lat="42.53076200000013" lon="-1.1905640000000004">
        <ele>520.214</ele>
        <time>2022-06-18T14:00:15Z</time>
      </trkpt>
      <trkpt lat="42.53090200000013" lon="-1.1904840000000003">
        <ele>521.209</ele>
        <time>2022-06-18T14:00:20Z</time>
      </trkpt>
      <trkpt lat="42.531062000000134" lon="-1.1903940000000004">
        <ele>522.266</ele>
        <time>2022-06-18T14:00:26Z</time>
      </trkpt>
      <trkpt lat="42.531118000000134" lon="-1.1903690000000005">
        <ele>522.855</ele>
        <time>2022-06-18T14:00:28Z</time>
      </trkpt>
      <trkpt lat="42.531312000000135" lon="-1.1902670000000004">
        <ele>524.020</ele>
        <time>2022-06-18T14:00:35Z</time>
      </trkpt>
      <trkpt lat="42.53139800000014" lon="-1.1902210000000004">
        <ele>524.652</ele>
        <time>2022-06-18T14:00:38Z</time>
      </trkpt>
      <trkpt lat="42.531481000000134" lon="-1.1901780000000004">
        <ele>525.054</ele>
        <time>2022-06-18T14:00:41Z</time>
      </trkpt>
      <trkpt lat="42.531621000000136" lon="-1.1900960000000005">
        <ele>525.868</ele>
        <time>2022-06-18T14:00:46Z</time>
      </trkpt>
      <trkpt lat="42.531675000000135" lon="-1.1900630000000005">
        <ele>526.236</ele>
        <time>2022-06-18T14:00:48Z</time>
      </trkpt>
      <trkpt lat="42.531864000000134" lon="-1.1899650000000006">
        <ele>526.661</ele>
        <time>2022-06-18T14:00:55Z</time>
      </trkpt>
      <trkpt lat="42.532061000000134" lon="-1.1899010000000005">
        <ele>527.021</ele>
        <time>2022-06-18T14:01:00Z</time>
      </trkpt>
      <trkpt lat="42.53237700000013" lon="-1.1898630000000006">
        <ele>527.032</ele>
        <time>2022-06-18T14:01:05Z</time>
      </trkpt>
      <trkpt lat="42.53277400000013" lon="-1.1898230000000005">
        <ele>526.692</ele>
        <time>2022-06-18T14:01:10Z</time>
      </trkpt>
      <trkpt lat="42.53312000000013" lon="-1.1897870000000006">
        <ele>524.811</ele>
        <time>2022-06-18T14:01:14Z</time>
      </trkpt>
      <trkpt lat="42.53328700000013" lon="-1.1897720000000005">
        <ele>523.409</ele>
        <time>2022-06-18T14:01:16Z</time>
      </trkpt>
      <trkpt lat="42.53336800000013" lon="-1.1897660000000005">
        <ele>522.624</ele>
        <time>2022-06-18T14:01:17Z</time>
      </trkpt>
      <trkpt lat="42.53344800000013" lon="-1.1897590000000005">
        <ele>522.083</ele>
        <time>2022-06-18T14:01:18Z</time>
      </trkpt>
      <trkpt lat="42.53360500000013" lon="-1.1897430000000004">
        <ele>520.848</ele>
        <time>2022-06-18T14:01:20Z</time>
      </trkpt>
      <trkpt lat="42.53368200000013" lon="-1.1897370000000005">
        <ele>520.640</ele>
        <time>2022-06-18T14:01:21Z</time>
      </trkpt>
      <trkpt lat="42.53397900000013" lon="-1.1897110000000004">
        <ele>520.432</ele>
        <time>2022-06-18T14:01:25Z</time>
      </trkpt>
      <trkpt lat="42.53428900000013" lon="-1.1896800000000005">
        <ele>520.426</ele>
        <time>2022-06-18T14:01:30Z</time>
      </trkpt>
      <trkpt lat="42.53465300000013" lon="-1.1896410000000006">
        <ele>522.094</ele>
        <time>2022-06-18T14:01:37Z</time>
      </trkpt>
      <trkpt lat="42.534746000000126" lon="-1.1896310000000005">
        <ele>522.889</ele>
        <time>2022-06-18T14:01:39Z</time>
      </trkpt>
      <trkpt lat="42.534791000000126" lon="-1.1896270000000007">
        <ele>523.289</ele>
        <time>2022-06-18T14:01:40Z</time>
      </trkpt>
      <trkpt lat="42.53496100000012" lon="-1.1896150000000008">
        <ele>524.686</ele>
        <time>2022-06-18T14:01:44Z</time>
      </trkpt>
      <trkpt lat="42.535042000000125" lon="-1.1896050000000007">
        <ele>525.060</ele>
        <time>2022-06-18T14:01:46Z</time>
      </trkpt>
      <trkpt lat="42.535121000000125" lon="-1.1895980000000006">
        <ele>525.626</ele>
        <time>2022-06-18T14:01:48Z</time>
      </trkpt>
      <trkpt lat="42.535239000000125" lon="-1.1895870000000006">
        <ele>526.809</ele>
        <time>2022-06-18T14:01:51Z</time>
      </trkpt>
      <trkpt lat="42.53535800000012" lon="-1.1895790000000006">
        <ele>527.229</ele>
        <time>2022-06-18T14:01:54Z</time>
      </trkpt>
      <trkpt lat="42.53546900000012" lon="-1.1895630000000006">
        <ele>527.828</ele>
        <time>2022-06-18T14:01:57Z</time>
      </trkpt>
      <trkpt lat="42.53565500000012" lon="-1.1895490000000006">
        <ele>529.083</ele>
        <time>2022-06-18T14:02:02Z</time>
      </trkpt>
      <trkpt lat="42.53579900000012" lon="-1.1895410000000006">
        <ele>529.265</ele>
        <time>2022-06-18T14:02:06Z</time>
      </trkpt>
      <trkpt lat="42.53594200000012" lon="-1.1895270000000007">
        <ele>530.487</ele>
        <time>2022-06-18T14:02:10Z</time>
      </trkpt>
      <trkpt lat="42.53597900000012" lon="-1.1895250000000006">
        <ele>530.671</ele>
        <time>2022-06-18T14:02:11Z</time>
      </trkpt>
      <trkpt lat="42.53615300000012" lon="-1.1895040000000006">
        <ele>531.659</ele>
        <time>2022-06-18T14:02:16Z</time>
      </trkpt>
      <trkpt lat="42.53621800000012" lon="-1.1894920000000007">
        <ele>531.844</ele>
        <time>2022-06-18T14:02:18Z</time>
      </trkpt>
      <trkpt lat="42.53644000000012" lon="-1.1893600000000006">
        <ele>532.634</ele>
        <time>2022-06-18T14:02:25Z</time>
      </trkpt>
      <trkpt lat="42.53653800000012" lon="-1.1892280000000006">
        <ele>532.633</ele>
        <time>2022-06-18T14:02:28Z</time>
      </trkpt>
      <trkpt lat="42.53656600000012" lon="-1.1891620000000007">
        <ele>532.623</ele>
        <time>2022-06-18T14:02:29Z</time>
      </trkpt>
      <trkpt lat="42.53658900000012" lon="-1.1890820000000006">
        <ele>532.615</ele>
        <time>2022-06-18T14:02:30Z</time>
      </trkpt>
      <trkpt lat="42.53662400000012" lon="-1.1887780000000006">
        <ele>532.609</ele>
        <time>2022-06-18T14:02:33Z</time>
      </trkpt>
      <trkpt lat="42.53662900000012" lon="-1.1886660000000007">
        <ele>532.684</ele>
        <time>2022-06-18T14:02:34Z</time>
      </trkpt>
      <trkpt lat="42.536636000000115" lon="-1.1883300000000008">
        <ele>531.443</ele>
        <time>2022-06-18T14:02:37Z</time>
      </trkpt>
      <trkpt lat="42.53664000000011" lon="-1.1882190000000008">
        <ele>530.488</ele>
        <time>2022-06-18T14:02:38Z</time>
      </trkpt>
      <trkpt lat="42.536642000000114" lon="-1.1881080000000008">
        <ele>529.480</ele>
        <time>2022-06-18T14:02:39Z</time>
      </trkpt>
      <trkpt lat="42.536647000000116" lon="-1.187996000000001">
        <ele>528.222</ele>
        <time>2022-06-18T14:02:40Z</time>
      </trkpt>
      <trkpt lat="42.53665100000011" lon="-1.187884000000001">
        <ele>526.696</ele>
        <time>2022-06-18T14:02:41Z</time>
      </trkpt>
      <trkpt lat="42.536653000000115" lon="-1.187773000000001">
        <ele>525.214</ele>
        <time>2022-06-18T14:02:42Z</time>
      </trkpt>
      <trkpt lat="42.536659000000114" lon="-1.1875510000000011">
        <ele>523.659</ele>
        <time>2022-06-18T14:02:44Z</time>
      </trkpt>
      <trkpt lat="42.536667000000115" lon="-1.1874400000000012">
        <ele>523.079</ele>
        <time>2022-06-18T14:02:45Z</time>
      </trkpt>
      <trkpt lat="42.53667900000011" lon="-1.187330000000001">
        <ele>522.432</ele>
        <time>2022-06-18T14:02:46Z</time>
      </trkpt>
      <trkpt lat="42.53669900000011" lon="-1.187220000000001">
        <ele>522.292</ele>
        <time>2022-06-18T14:02:47Z</time>
      </trkpt>
      <trkpt lat="42.536763000000114" lon="-1.187005000000001">
        <ele>521.611</ele>
        <time>2022-06-18T14:02:49Z</time>
      </trkpt>
      <trkpt lat="42.536805000000115" lon="-1.186900000000001">
        <ele>521.209</ele>
        <time>2022-06-18T14:02:50Z</time>
      </trkpt>
      <trkpt lat="42.53689400000012" lon="-1.186684000000001">
        <ele>519.674</ele>
        <time>2022-06-18T14:02:52Z</time>
      </trkpt>
      <trkpt lat="42.536991000000114" lon="-1.186465000000001">
        <ele>518.493</ele>
        <time>2022-06-18T14:02:54Z</time>
      </trkpt>
      <trkpt lat="42.53712500000012" lon="-1.186116000000001">
        <ele>517.688</ele>
        <time>2022-06-18T14:02:57Z</time>
      </trkpt>
      <trkpt lat="42.53714200000012" lon="-1.185987000000001">
        <ele>517.630</ele>
        <time>2022-06-18T14:02:58Z</time>
      </trkpt>
      <trkpt lat="42.537145000000116" lon="-1.185857000000001">
        <ele>517.422</ele>
        <time>2022-06-18T14:02:59Z</time>
      </trkpt>
      <trkpt lat="42.53712500000012" lon="-1.1855970000000011">
        <ele>516.256</ele>
        <time>2022-06-18T14:03:01Z</time>
      </trkpt>
      <trkpt lat="42.537115000000114" lon="-1.185468000000001">
        <ele>515.884</ele>
        <time>2022-06-18T14:03:02Z</time>
      </trkpt>
      <trkpt lat="42.53713000000011" lon="-1.1852050000000012">
        <ele>514.869</ele>
        <time>2022-06-18T14:03:04Z</time>
      </trkpt>
      <trkpt lat="42.53716300000011" lon="-1.185079000000001">
        <ele>513.069</ele>
        <time>2022-06-18T14:03:05Z</time>
      </trkpt>
      <trkpt lat="42.53721200000011" lon="-1.184963000000001">
        <ele>512.062</ele>
        <time>2022-06-18T14:03:06Z</time>
      </trkpt>
      <trkpt lat="42.53726800000011" lon="-1.184853000000001">
        <ele>511.283</ele>
        <time>2022-06-18T14:03:07Z</time>
      </trkpt>
      <trkpt lat="42.53739600000011" lon="-1.184637000000001">
        <ele>510.211</ele>
        <time>2022-06-18T14:03:09Z</time>
      </trkpt>
      <trkpt lat="42.53744600000011" lon="-1.184569000000001">
        <ele>509.609</ele>
        <time>2022-06-18T14:03:10Z</time>
      </trkpt>
      <trkpt lat="42.53751100000011" lon="-1.184494000000001">
        <ele>508.837</ele>
        <time>2022-06-18T14:03:11Z</time>
      </trkpt>
      <trkpt lat="42.53758000000011" lon="-1.184432000000001">
        <ele>508.686</ele>
        <time>2022-06-18T14:03:12Z</time>
      </trkpt>
      <trkpt lat="42.537649000000116" lon="-1.184379000000001">
        <ele>508.251</ele>
        <time>2022-06-18T14:03:13Z</time>
      </trkpt>
      <trkpt lat="42.53779700000012" lon="-1.184295000000001">
        <ele>507.833</ele>
        <time>2022-06-18T14:03:15Z</time>
      </trkpt>
      <trkpt lat="42.53787800000012" lon="-1.1842720000000009">
        <ele>507.885</ele>
        <time>2022-06-18T14:03:16Z</time>
      </trkpt>
      <trkpt lat="42.53811800000012" lon="-1.1842350000000008">
        <ele>507.869</ele>
        <time>2022-06-18T14:03:19Z</time>
      </trkpt>
      <trkpt lat="42.53819600000012" lon="-1.1842450000000009">
        <ele>507.847</ele>
        <time>2022-06-18T14:03:20Z</time>
      </trkpt>
      <trkpt lat="42.53858600000012" lon="-1.1843780000000008">
        <ele>507.852</ele>
        <time>2022-06-18T14:03:25Z</time>
      </trkpt>
      <trkpt lat="42.539041000000125" lon="-1.1845620000000008">
        <ele>508.822</ele>
        <time>2022-06-18T14:03:31Z</time>
      </trkpt>
      <trkpt lat="42.53958600000013" lon="-1.1848260000000008">
        <ele>509.094</ele>
        <time>2022-06-18T14:03:39Z</time>
      </trkpt>
      <trkpt lat="42.53964800000013" lon="-1.1848610000000008">
        <ele>509.257</ele>
        <time>2022-06-18T14:03:40Z</time>
      </trkpt>
      <trkpt lat="42.53988200000013" lon="-1.1850240000000007">
        <ele>509.422</ele>
        <time>2022-06-18T14:03:44Z</time>
      </trkpt>
      <trkpt lat="42.539990000000124" lon="-1.1851090000000006">
        <ele>509.809</ele>
        <time>2022-06-18T14:03:46Z</time>
      </trkpt>
      <trkpt lat="42.54026100000012" lon="-1.1853300000000007">
        <ele>510.430</ele>
        <time>2022-06-18T14:03:51Z</time>
      </trkpt>
      <trkpt lat="42.54046200000012" lon="-1.1854900000000006">
        <ele>511.039</ele>
        <time>2022-06-18T14:03:55Z</time>
      </trkpt>
      <trkpt lat="42.54051600000012" lon="-1.1855290000000005">
        <ele>511.024</ele>
        <time>2022-06-18T14:03:56Z</time>
      </trkpt>
      <trkpt lat="42.540739000000116" lon="-1.1856690000000005">
        <ele>511.026</ele>
        <time>2022-06-18T14:04:00Z</time>
      </trkpt>
      <trkpt lat="42.540798000000116" lon="-1.1856930000000006">
        <ele>511.058</ele>
        <time>2022-06-18T14:04:01Z</time>
      </trkpt>
      <trkpt lat="42.54110900000012" lon="-1.1857330000000006">
        <ele>511.092</ele>
        <time>2022-06-18T14:04:06Z</time>
      </trkpt>
      <trkpt lat="42.54117200000012" lon="-1.1857280000000006">
        <ele>511.060</ele>
        <time>2022-06-18T14:04:07Z</time>
      </trkpt>
      <trkpt lat="42.54147300000012" lon="-1.1857600000000006">
        <ele>510.655</ele>
        <time>2022-06-18T14:04:12Z</time>
      </trkpt>
      <trkpt lat="42.54153200000012" lon="-1.1857850000000005">
        <ele>510.665</ele>
        <time>2022-06-18T14:04:13Z</time>
      </trkpt>
      <trkpt lat="42.541645000000116" lon="-1.1858530000000005">
        <ele>510.447</ele>
        <time>2022-06-18T14:04:15Z</time>
      </trkpt>
      <trkpt lat="42.541795000000114" lon="-1.1859860000000004">
        <ele>510.429</ele>
        <time>2022-06-18T14:04:18Z</time>
      </trkpt>
      <trkpt lat="42.542062000000115" lon="-1.1862730000000004">
        <ele>510.421</ele>
        <time>2022-06-18T14:04:24Z</time>
      </trkpt>
      <trkpt lat="42.542326000000116" lon="-1.1865710000000003">
        <ele>511.209</ele>
        <time>2022-06-18T14:04:31Z</time>
      </trkpt>
      <trkpt lat="42.542464000000116" lon="-1.1867180000000002">
        <ele>511.875</ele>
        <time>2022-06-18T14:04:35Z</time>
      </trkpt>
      <trkpt lat="42.54255600000012" lon="-1.1868280000000002">
        <ele>512.474</ele>
        <time>2022-06-18T14:04:38Z</time>
      </trkpt>
      <trkpt lat="42.54265500000012" lon="-1.1869270000000003">
        <ele>513.279</ele>
        <time>2022-06-18T14:04:41Z</time>
      </trkpt>
      <trkpt lat="42.54276900000012" lon="-1.1870640000000003">
        <ele>514.441</ele>
        <time>2022-06-18T14:04:45Z</time>
      </trkpt>
      <trkpt lat="42.54285900000012" lon="-1.1871480000000003">
        <ele>515.213</ele>
        <time>2022-06-18T14:04:48Z</time>
      </trkpt>
      <trkpt lat="42.54289200000012" lon="-1.1871850000000004">
        <ele>515.437</ele>
        <time>2022-06-18T14:04:49Z</time>
      </trkpt>
      <trkpt lat="42.543038000000124" lon="-1.1873300000000004">
        <ele>516.695</ele>
        <time>2022-06-18T14:04:54Z</time>
      </trkpt>
      <trkpt lat="42.54317400000012" lon="-1.1874410000000004">
        <ele>517.470</ele>
        <time>2022-06-18T14:04:58Z</time>
      </trkpt>
      <trkpt lat="42.54321600000012" lon="-1.1874670000000005">
        <ele>517.820</ele>
        <time>2022-06-18T14:04:59Z</time>
      </trkpt>
      <trkpt lat="42.54325600000012" lon="-1.1874880000000005">
        <ele>518.036</ele>
        <time>2022-06-18T14:05:00Z</time>
      </trkpt>
      <trkpt lat="42.54339300000012" lon="-1.1875260000000005">
        <ele>518.217</ele>
        <time>2022-06-18T14:05:03Z</time>
      </trkpt>
      <trkpt lat="42.54344100000012" lon="-1.1875290000000005">
        <ele>518.218</ele>
        <time>2022-06-18T14:05:04Z</time>
      </trkpt>
      <trkpt lat="42.54360500000012" lon="-1.1875090000000006">
        <ele>518.209</ele>
        <time>2022-06-18T14:05:07Z</time>
      </trkpt>
      <trkpt lat="42.54366300000012" lon="-1.1874870000000006">
        <ele>518.234</ele>
        <time>2022-06-18T14:05:08Z</time>
      </trkpt>
      <trkpt lat="42.54397600000012" lon="-1.1873260000000005">
        <ele>518.263</ele>
        <time>2022-06-18T14:05:13Z</time>
      </trkpt>
      <trkpt lat="42.54422900000012" lon="-1.1871830000000005">
        <ele>517.038</ele>
        <time>2022-06-18T14:05:17Z</time>
      </trkpt>
      <trkpt lat="42.544293000000124" lon="-1.1871430000000005">
        <ele>516.490</ele>
        <time>2022-06-18T14:05:18Z</time>
      </trkpt>
      <trkpt lat="42.54441800000012" lon="-1.1870660000000004">
        <ele>515.072</ele>
        <time>2022-06-18T14:05:20Z</time>
      </trkpt>
      <trkpt lat="42.54467700000012" lon="-1.1869240000000003">
        <ele>514.046</ele>
        <time>2022-06-18T14:05:24Z</time>
      </trkpt>
      <trkpt lat="42.54480900000012" lon="-1.1868550000000002">
        <ele>513.884</ele>
        <time>2022-06-18T14:05:26Z</time>
      </trkpt>
      <trkpt lat="42.54487700000012" lon="-1.186832">
        <ele>513.699</ele>
        <time>2022-06-18T14:05:27Z</time>
      </trkpt>
      <trkpt lat="42.54495000000012" lon="-1.186816">
        <ele>513.679</ele>
        <time>2022-06-18T14:05:28Z</time>
      </trkpt>
      <trkpt lat="42.54518900000012" lon="-1.1868120000000002">
        <ele>513.676</ele>
        <time>2022-06-18T14:05:31Z</time>
      </trkpt>
      <trkpt lat="42.54564800000012" lon="-1.1868930000000002">
        <ele>513.090</ele>
        <time>2022-06-18T14:05:36Z</time>
      </trkpt>
      <trkpt lat="42.54615400000012" lon="-1.186897">
        <ele>511.419</ele>
        <time>2022-06-18T14:05:41Z</time>
      </trkpt>
      <trkpt lat="42.54635400000012" lon="-1.1868990000000001">
        <ele>509.609</ele>
        <time>2022-06-18T14:05:43Z</time>
      </trkpt>
      <trkpt lat="42.54645200000012" lon="-1.1868960000000002">
        <ele>508.658</ele>
        <time>2022-06-18T14:05:44Z</time>
      </trkpt>
      <trkpt lat="42.546640000000124" lon="-1.1868940000000001">
        <ele>507.637</ele>
        <time>2022-06-18T14:05:46Z</time>
      </trkpt>
      <trkpt lat="42.54690900000013" lon="-1.186906">
        <ele>506.842</ele>
        <time>2022-06-18T14:05:49Z</time>
      </trkpt>
      <trkpt lat="42.54715700000013" lon="-1.186895">
        <ele>506.454</ele>
        <time>2022-06-18T14:05:52Z</time>
      </trkpt>
      <trkpt lat="42.547383000000124" lon="-1.186897">
        <ele>506.486</ele>
        <time>2022-06-18T14:05:55Z</time>
      </trkpt>
      <trkpt lat="42.54777800000012" lon="-1.1868940000000001">
        <ele>507.080</ele>
        <time>2022-06-18T14:06:01Z</time>
      </trkpt>
      <trkpt lat="42.547954000000125" lon="-1.186889">
        <ele>507.468</ele>
        <time>2022-06-18T14:06:04Z</time>
      </trkpt>
      <trkpt lat="42.54812400000012" lon="-1.186893">
        <ele>509.083</ele>
        <time>2022-06-18T14:06:07Z</time>
      </trkpt>
      <trkpt lat="42.54817700000012" lon="-1.186891">
        <ele>509.243</ele>
        <time>2022-06-18T14:06:08Z</time>
      </trkpt>
      <trkpt lat="42.548328000000126" lon="-1.186887">
        <ele>510.078</ele>
        <time>2022-06-18T14:06:11Z</time>
      </trkpt>
      <trkpt lat="42.54842200000012" lon="-1.186882">
        <ele>510.433</ele>
        <time>2022-06-18T14:06:13Z</time>
      </trkpt>
      <trkpt lat="42.54851800000012" lon="-1.186887">
        <ele>511.026</ele>
        <time>2022-06-18T14:06:15Z</time>
      </trkpt>
      <trkpt lat="42.54856300000012" lon="-1.186888">
        <ele>511.209</ele>
        <time>2022-06-18T14:06:16Z</time>
      </trkpt>
      <trkpt lat="42.548827000000124" lon="-1.186869">
        <ele>512.258</ele>
        <time>2022-06-18T14:06:22Z</time>
      </trkpt>
      <trkpt lat="42.548869000000124" lon="-1.1868699999999999">
        <ele>512.447</ele>
        <time>2022-06-18T14:06:23Z</time>
      </trkpt>
      <trkpt lat="42.54903000000012" lon="-1.1868729999999998">
        <ele>513.482</ele>
        <time>2022-06-18T14:06:27Z</time>
      </trkpt>
      <trkpt lat="42.549068000000126" lon="-1.186867">
        <ele>513.644</ele>
        <time>2022-06-18T14:06:28Z</time>
      </trkpt>
      <trkpt lat="42.54914100000013" lon="-1.1868459999999998">
        <ele>513.696</ele>
        <time>2022-06-18T14:06:30Z</time>
      </trkpt>
      <trkpt lat="42.54927500000013" lon="-1.1867729999999999">
        <ele>514.650</ele>
        <time>2022-06-18T14:06:34Z</time>
      </trkpt>
      <trkpt lat="42.54930700000013" lon="-1.186753">
        <ele>514.898</ele>
        <time>2022-06-18T14:06:35Z</time>
      </trkpt>
      <trkpt lat="42.549367000000125" lon="-1.186706">
        <ele>515.053</ele>
        <time>2022-06-18T14:06:37Z</time>
      </trkpt>
      <trkpt lat="42.549553000000124" lon="-1.1864970000000001">
        <ele>515.633</ele>
        <time>2022-06-18T14:06:44Z</time>
      </trkpt>
      <trkpt lat="42.54958000000013" lon="-1.1864670000000002">
        <ele>515.859</ele>
        <time>2022-06-18T14:06:45Z</time>
      </trkpt>
      <trkpt lat="42.54968600000013" lon="-1.1863530000000002">
        <ele>517.003</ele>
        <time>2022-06-18T14:06:49Z</time>
      </trkpt>
      <trkpt lat="42.54983900000013" lon="-1.1861880000000002">
        <ele>518.023</ele>
        <time>2022-06-18T14:06:55Z</time>
      </trkpt>
      <trkpt lat="42.54986400000013" lon="-1.1861610000000002">
        <ele>518.009</ele>
        <time>2022-06-18T14:06:56Z</time>
      </trkpt>
      <trkpt lat="42.550008000000126" lon="-1.1860020000000002">
        <ele>519.226</ele>
        <time>2022-06-18T14:07:02Z</time>
      </trkpt>
      <trkpt lat="42.55008100000013" lon="-1.1859270000000002">
        <ele>520.025</ele>
        <time>2022-06-18T14:07:05Z</time>
      </trkpt>
      <trkpt lat="42.55010500000013" lon="-1.185904">
        <ele>520.630</ele>
        <time>2022-06-18T14:07:06Z</time>
      </trkpt>
      <trkpt lat="42.55018900000013" lon="-1.185807">
        <ele>521.832</ele>
        <time>2022-06-18T14:07:10Z</time>
      </trkpt>
      <trkpt lat="42.55031200000013" lon="-1.185653">
        <ele>522.834</ele>
        <time>2022-06-18T14:07:15Z</time>
      </trkpt>
      <trkpt lat="42.55034100000013" lon="-1.185607">
        <ele>523.228</ele>
        <time>2022-06-18T14:07:16Z</time>
      </trkpt>
      <trkpt lat="42.55043400000013" lon="-1.185438">
        <ele>523.276</ele>
        <time>2022-06-18T14:07:19Z</time>
      </trkpt>
      <trkpt lat="42.55047000000013" lon="-1.185357">
        <ele>523.291</ele>
        <time>2022-06-18T14:07:20Z</time>
      </trkpt>
      <trkpt lat="42.55054000000013" lon="-1.185131">
        <ele>523.251</ele>
        <time>2022-06-18T14:07:23Z</time>
      </trkpt>
      <trkpt lat="42.55055700000013" lon="-1.1850429999999998">
        <ele>523.268</ele>
        <time>2022-06-18T14:07:24Z</time>
      </trkpt>
      <trkpt lat="42.55059900000013" lon="-1.1845849999999998">
        <ele>522.642</ele>
        <time>2022-06-18T14:07:29Z</time>
      </trkpt>
      <trkpt lat="42.550607000000134" lon="-1.1844959999999998">
        <ele>522.026</ele>
        <time>2022-06-18T14:07:30Z</time>
      </trkpt>
      <trkpt lat="42.55061300000013" lon="-1.1844079999999997">
        <ele>521.009</ele>
        <time>2022-06-18T14:07:31Z</time>
      </trkpt>
      <trkpt lat="42.550621000000135" lon="-1.1843069999999998">
        <ele>520.047</ele>
        <time>2022-06-18T14:07:32Z</time>
      </trkpt>
      <trkpt lat="42.55062800000013" lon="-1.1842429999999997">
        <ele>518.676</ele>
        <time>2022-06-18T14:07:33Z</time>
      </trkpt>
      <trkpt lat="42.55065000000013" lon="-1.1840909999999998">
        <ele>517.481</ele>
        <time>2022-06-18T14:07:35Z</time>
      </trkpt>
      <trkpt lat="42.55066200000013" lon="-1.1840159999999997">
        <ele>517.263</ele>
        <time>2022-06-18T14:07:36Z</time>
      </trkpt>
      <trkpt lat="42.55069500000013" lon="-1.1838709999999997">
        <ele>517.075</ele>
        <time>2022-06-18T14:07:38Z</time>
      </trkpt>
      <trkpt lat="42.550748000000134" lon="-1.1837409999999997">
        <ele>517.069</ele>
        <time>2022-06-18T14:07:40Z</time>
      </trkpt>
      <trkpt lat="42.55096200000013" lon="-1.1833439999999997">
        <ele>518.287</ele>
        <time>2022-06-18T14:07:47Z</time>
      </trkpt>
      <trkpt lat="42.55100800000013" lon="-1.1832589999999998">
        <ele>518.442</ele>
        <time>2022-06-18T14:07:49Z</time>
      </trkpt>
      <trkpt lat="42.55106500000013" lon="-1.1831159999999998">
        <ele>519.262</ele>
        <time>2022-06-18T14:07:52Z</time>
      </trkpt>
      <trkpt lat="42.55110500000013" lon="-1.1829949999999998">
        <ele>519.827</ele>
        <time>2022-06-18T14:07:55Z</time>
      </trkpt>
      <trkpt lat="42.55112700000013" lon="-1.1828719999999997">
        <ele>520.468</ele>
        <time>2022-06-18T14:07:58Z</time>
      </trkpt>
      <trkpt lat="42.55113500000013" lon="-1.1827949999999996">
        <ele>521.014</ele>
        <time>2022-06-18T14:08:00Z</time>
      </trkpt>
      <trkpt lat="42.55112900000013" lon="-1.1826449999999995">
        <ele>522.009</ele>
        <time>2022-06-18T14:08:04Z</time>
      </trkpt>
      <trkpt lat="42.55111800000013" lon="-1.1824219999999994">
        <ele>523.083</ele>
        <time>2022-06-18T14:08:10Z</time>
      </trkpt>
      <trkpt lat="42.55111600000013" lon="-1.1823499999999993">
        <ele>523.492</ele>
        <time>2022-06-18T14:08:12Z</time>
      </trkpt>
      <trkpt lat="42.55111100000013" lon="-1.1822019999999993">
        <ele>524.087</ele>
        <time>2022-06-18T14:08:16Z</time>
      </trkpt>
      <trkpt lat="42.551117000000126" lon="-1.1820979999999992">
        <ele>524.849</ele>
        <time>2022-06-18T14:08:19Z</time>
      </trkpt>
      <trkpt lat="42.55115300000013" lon="-1.181931999999999">
        <ele>525.291</ele>
        <time>2022-06-18T14:08:24Z</time>
      </trkpt>
      <trkpt lat="42.551168000000125" lon="-1.1818739999999992">
        <ele>525.285</ele>
        <time>2022-06-18T14:08:26Z</time>
      </trkpt>
      <trkpt lat="42.55121400000012" lon="-1.181669999999999">
        <ele>526.023</ele>
        <time>2022-06-18T14:08:32Z</time>
      </trkpt>
      <trkpt lat="42.55123700000012" lon="-1.1815699999999991">
        <ele>526.868</ele>
        <time>2022-06-18T14:08:35Z</time>
      </trkpt>
      <trkpt lat="42.551275000000125" lon="-1.1814159999999991">
        <ele>527.878</ele>
        <time>2022-06-18T14:08:39Z</time>
      </trkpt>
      <trkpt lat="42.55128700000012" lon="-1.1813689999999992">
        <ele>528.063</ele>
        <time>2022-06-18T14:08:40Z</time>
      </trkpt>
      <trkpt lat="42.55130800000012" lon="-1.1812859999999992">
        <ele>528.044</ele>
        <time>2022-06-18T14:08:42Z</time>
      </trkpt>
      <trkpt lat="42.55133800000012" lon="-1.1810449999999992">
        <ele>528.018</ele>
        <time>2022-06-18T14:08:47Z</time>
      </trkpt>
      <trkpt lat="42.55129400000012" lon="-1.1808239999999992">
        <ele>528.009</ele>
        <time>2022-06-18T14:08:51Z</time>
      </trkpt>
      <trkpt lat="42.55127100000012" lon="-1.1807759999999992">
        <ele>528.097</ele>
        <time>2022-06-18T14:08:52Z</time>
      </trkpt>
      <trkpt lat="42.551039000000124" lon="-1.1802999999999992">
        <ele>526.876</ele>
        <time>2022-06-18T14:09:01Z</time>
      </trkpt>
      <trkpt lat="42.551013000000125" lon="-1.1802449999999993">
        <ele>526.831</ele>
        <time>2022-06-18T14:09:02Z</time>
      </trkpt>
      <trkpt lat="42.55094100000012" lon="-1.1800909999999993">
        <ele>526.073</ele>
        <time>2022-06-18T14:09:05Z</time>
      </trkpt>
      <trkpt lat="42.550889000000126" lon="-1.1799709999999994">
        <ele>525.845</ele>
        <time>2022-06-18T14:09:07Z</time>
      </trkpt>
      <trkpt lat="42.55087100000013" lon="-1.1798549999999994">
        <ele>525.489</ele>
        <time>2022-06-18T14:09:09Z</time>
      </trkpt>
      <trkpt lat="42.55087700000013" lon="-1.1797869999999995">
        <ele>525.447</ele>
        <time>2022-06-18T14:09:10Z</time>
      </trkpt>
      <trkpt lat="42.550898000000124" lon="-1.1797269999999995">
        <ele>525.482</ele>
        <time>2022-06-18T14:09:11Z</time>
      </trkpt>
      <trkpt lat="42.55093600000013" lon="-1.1796629999999995">
        <ele>525.262</ele>
        <time>2022-06-18T14:09:12Z</time>
      </trkpt>
      <trkpt lat="42.55097700000013" lon="-1.1796209999999994">
        <ele>525.266</ele>
        <time>2022-06-18T14:09:13Z</time>
      </trkpt>
      <trkpt lat="42.55116300000013" lon="-1.1794709999999993">
        <ele>525.029</ele>
        <time>2022-06-18T14:09:17Z</time>
      </trkpt>
      <trkpt lat="42.55120700000013" lon="-1.1794269999999993">
        <ele>525.021</ele>
        <time>2022-06-18T14:09:18Z</time>
      </trkpt>
      <trkpt lat="42.55126700000013" lon="-1.1793399999999994">
        <ele>524.609</ele>
        <time>2022-06-18T14:09:20Z</time>
      </trkpt>
      <trkpt lat="42.551291000000134" lon="-1.1792869999999993">
        <ele>524.627</ele>
        <time>2022-06-18T14:09:21Z</time>
      </trkpt>
      <trkpt lat="42.551333000000135" lon="-1.1791779999999994">
        <ele>524.456</ele>
        <time>2022-06-18T14:09:23Z</time>
      </trkpt>
      <trkpt lat="42.55134800000013" lon="-1.1790959999999995">
        <ele>524.481</ele>
        <time>2022-06-18T14:09:25Z</time>
      </trkpt>
      <trkpt lat="42.551392000000135" lon="-1.1787959999999995">
        <ele>525.423</ele>
        <time>2022-06-18T14:09:33Z</time>
      </trkpt>
      <trkpt lat="42.551429000000134" lon="-1.1786709999999996">
        <ele>526.275</ele>
        <time>2022-06-18T14:09:37Z</time>
      </trkpt>
      <trkpt lat="42.55144900000013" lon="-1.1786099999999995">
        <ele>526.639</ele>
        <time>2022-06-18T14:09:39Z</time>
      </trkpt>
      <trkpt lat="42.551459000000136" lon="-1.1785749999999995">
        <ele>527.237</ele>
        <time>2022-06-18T14:09:40Z</time>
      </trkpt>
      <trkpt lat="42.55152500000013" lon="-1.1784069999999995">
        <ele>528.652</ele>
        <time>2022-06-18T14:09:46Z</time>
      </trkpt>
      <trkpt lat="42.55154600000013" lon="-1.1783449999999995">
        <ele>529.232</ele>
        <time>2022-06-18T14:09:48Z</time>
      </trkpt>
      <trkpt lat="42.55159000000013" lon="-1.1782069999999996">
        <ele>529.891</ele>
        <time>2022-06-18T14:09:53Z</time>
      </trkpt>
      <trkpt lat="42.55161600000013" lon="-1.1781159999999995">
        <ele>531.081</ele>
        <time>2022-06-18T14:09:56Z</time>
      </trkpt>
      <trkpt lat="42.55162000000013" lon="-1.1780919999999995">
        <ele>531.019</ele>
        <time>2022-06-18T14:09:57Z</time>
      </trkpt>
      <trkpt lat="42.55163100000013" lon="-1.1780239999999995">
        <ele>531.209</ele>
        <time>2022-06-18T14:09:59Z</time>
      </trkpt>
      <trkpt lat="42.55165100000013" lon="-1.1778099999999996">
        <ele>532.060</ele>
        <time>2022-06-18T14:10:06Z</time>
      </trkpt>
      <trkpt lat="42.551672000000124" lon="-1.1776219999999995">
        <ele>533.079</ele>
        <time>2022-06-18T14:10:12Z</time>
      </trkpt>
      <trkpt lat="42.55167800000012" lon="-1.1775979999999995">
        <ele>533.244</ele>
        <time>2022-06-18T14:10:13Z</time>
      </trkpt>
      <trkpt lat="42.551725000000125" lon="-1.1774469999999995">
        <ele>534.046</ele>
        <time>2022-06-18T14:10:18Z</time>
      </trkpt>
      <trkpt lat="42.55174600000012" lon="-1.1774009999999995">
        <ele>534.618</ele>
        <time>2022-06-18T14:10:20Z</time>
      </trkpt>
      <trkpt lat="42.551801000000125" lon="-1.1773119999999995">
        <ele>535.222</ele>
        <time>2022-06-18T14:10:24Z</time>
      </trkpt>
      <trkpt lat="42.551886000000124" lon="-1.1772109999999996">
        <ele>536.460</ele>
        <time>2022-06-18T14:10:29Z</time>
      </trkpt>
      <trkpt lat="42.55190400000012" lon="-1.1771919999999996">
        <ele>536.625</ele>
        <time>2022-06-18T14:10:30Z</time>
      </trkpt>
      <trkpt lat="42.55200600000012" lon="-1.1771299999999996">
        <ele>537.435</ele>
        <time>2022-06-18T14:10:35Z</time>
      </trkpt>
      <trkpt lat="42.55204900000012" lon="-1.1771129999999996">
        <ele>537.856</ele>
        <time>2022-06-18T14:10:37Z</time>
      </trkpt>
      <trkpt lat="42.55217200000012" lon="-1.1770789999999995">
        <ele>538.659</ele>
        <time>2022-06-18T14:10:43Z</time>
      </trkpt>
      <trkpt lat="42.55221400000012" lon="-1.1770779999999996">
        <ele>538.814</ele>
        <time>2022-06-18T14:10:45Z</time>
      </trkpt>
      <trkpt lat="42.55230500000012" lon="-1.1770719999999997">
        <ele>539.809</ele>
        <time>2022-06-18T14:10:49Z</time>
      </trkpt>
      <trkpt lat="42.55239400000012" lon="-1.1770729999999996">
        <ele>540.686</ele>
        <time>2022-06-18T14:10:53Z</time>
      </trkpt>
      <trkpt lat="42.55241600000012" lon="-1.1770749999999996">
        <ele>540.875</ele>
        <time>2022-06-18T14:10:54Z</time>
      </trkpt>
      <trkpt lat="42.55256000000012" lon="-1.1770699999999996">
        <ele>541.880</ele>
        <time>2022-06-18T14:11:01Z</time>
      </trkpt>
      <trkpt lat="42.55260600000012" lon="-1.1770779999999996">
        <ele>542.232</ele>
        <time>2022-06-18T14:11:03Z</time>
      </trkpt>
      <trkpt lat="42.55275500000012" lon="-1.1771179999999997">
        <ele>543.224</ele>
        <time>2022-06-18T14:11:10Z</time>
      </trkpt>
      <trkpt lat="42.55288400000012" lon="-1.1771759999999996">
        <ele>544.468</ele>
        <time>2022-06-18T14:11:16Z</time>
      </trkpt>
      <trkpt lat="42.55295400000012" lon="-1.1772279999999995">
        <ele>545.076</ele>
        <time>2022-06-18T14:11:19Z</time>
      </trkpt>
      <trkpt lat="42.55301600000012" lon="-1.1772949999999995">
        <ele>545.651</ele>
        <time>2022-06-18T14:11:22Z</time>
      </trkpt>
      <trkpt lat="42.55308600000012" lon="-1.1773609999999994">
        <ele>546.041</ele>
        <time>2022-06-18T14:11:25Z</time>
      </trkpt>
      <trkpt lat="42.55317400000012" lon="-1.1774419999999994">
        <ele>546.648</ele>
        <time>2022-06-18T14:11:29Z</time>
      </trkpt>
      <trkpt lat="42.55335000000012" lon="-1.1776019999999994">
        <ele>547.861</ele>
        <time>2022-06-18T14:11:37Z</time>
      </trkpt>
      <trkpt lat="42.55352300000012" lon="-1.1777609999999994">
        <ele>548.817</ele>
        <time>2022-06-18T14:11:45Z</time>
      </trkpt>
      <trkpt lat="42.55354700000012" lon="-1.1777809999999993">
        <ele>549.009</ele>
        <time>2022-06-18T14:11:46Z</time>
      </trkpt>
      <trkpt lat="42.55370500000012" lon="-1.1779299999999993">
        <ele>550.225</ele>
        <time>2022-06-18T14:11:53Z</time>
      </trkpt>
      <trkpt lat="42.55377100000012" lon="-1.1779919999999993">
        <ele>551.034</ele>
        <time>2022-06-18T14:11:56Z</time>
      </trkpt>
      <trkpt lat="42.55381300000012" lon="-1.1780399999999993">
        <ele>551.239</ele>
        <time>2022-06-18T14:11:58Z</time>
      </trkpt>
      <trkpt lat="42.55383500000012" lon="-1.1780649999999993">
        <ele>551.481</ele>
        <time>2022-06-18T14:11:59Z</time>
      </trkpt>
      <trkpt lat="42.55394400000012" lon="-1.1781739999999992">
        <ele>551.883</ele>
        <time>2022-06-18T14:12:04Z</time>
      </trkpt>
      <trkpt lat="42.554081000000124" lon="-1.1782879999999991">
        <ele>552.477</ele>
        <time>2022-06-18T14:12:10Z</time>
      </trkpt>
      <trkpt lat="42.554182000000125" lon="-1.1783649999999992">
        <ele>553.065</ele>
        <time>2022-06-18T14:12:14Z</time>
      </trkpt>
      <trkpt lat="42.55423200000013" lon="-1.1784159999999992">
        <ele>553.490</ele>
        <time>2022-06-18T14:12:16Z</time>
      </trkpt>
      <trkpt lat="42.554340000000124" lon="-1.1785289999999993">
        <ele>554.230</ele>
        <time>2022-06-18T14:12:21Z</time>
      </trkpt>
      <trkpt lat="42.55441100000012" lon="-1.1785909999999993">
        <ele>554.467</ele>
        <time>2022-06-18T14:12:24Z</time>
      </trkpt>
      <trkpt lat="42.554573000000126" lon="-1.1787149999999993">
        <ele>555.481</ele>
        <time>2022-06-18T14:12:31Z</time>
      </trkpt>
      <trkpt lat="42.55459500000013" lon="-1.1787349999999992">
        <ele>555.619</ele>
        <time>2022-06-18T14:12:32Z</time>
      </trkpt>
      <trkpt lat="42.554737000000124" lon="-1.1788499999999993">
        <ele>556.609</ele>
        <time>2022-06-18T14:12:38Z</time>
      </trkpt>
      <trkpt lat="42.55476000000012" lon="-1.1788669999999992">
        <ele>556.627</ele>
        <time>2022-06-18T14:12:39Z</time>
      </trkpt>
      <trkpt lat="42.55478900000012" lon="-1.1788869999999991">
        <ele>556.826</ele>
        <time>2022-06-18T14:12:40Z</time>
      </trkpt>
      <trkpt lat="42.55490400000012" lon="-1.1789599999999991">
        <ele>557.651</ele>
        <time>2022-06-18T14:12:45Z</time>
      </trkpt>
      <trkpt lat="42.55500300000012" lon="-1.1790099999999992">
        <ele>558.823</ele>
        <time>2022-06-18T14:12:49Z</time>
      </trkpt>
      <trkpt lat="42.55514400000012" lon="-1.1791109999999991">
        <ele>560.275</ele>
        <time>2022-06-18T14:12:55Z</time>
      </trkpt>
      <trkpt lat="42.555193000000116" lon="-1.179135999999999">
        <ele>560.239</ele>
        <time>2022-06-18T14:12:57Z</time>
      </trkpt>
      <trkpt lat="42.55531600000012" lon="-1.1791809999999991">
        <ele>561.437</ele>
        <time>2022-06-18T14:13:02Z</time>
      </trkpt>
      <trkpt lat="42.55539800000012" lon="-1.1792109999999991">
        <ele>562.272</ele>
        <time>2022-06-18T14:13:05Z</time>
      </trkpt>
      <trkpt lat="42.555441000000116" lon="-1.1792319999999992">
        <ele>562.642</ele>
        <time>2022-06-18T14:13:07Z</time>
      </trkpt>
      <trkpt lat="42.55558900000012" lon="-1.1792729999999991">
        <ele>563.671</ele>
        <time>2022-06-18T14:13:13Z</time>
      </trkpt>
      <trkpt lat="42.55574400000012" lon="-1.179300999999999">
        <ele>564.841</ele>
        <time>2022-06-18T14:13:19Z</time>
      </trkpt>
      <trkpt lat="42.55579900000012" lon="-1.179304999999999">
        <ele>565.215</ele>
        <time>2022-06-18T14:13:21Z</time>
      </trkpt>
      <trkpt lat="42.55589600000012" lon="-1.1793029999999989">
        <ele>566.009</ele>
        <time>2022-06-18T14:13:25Z</time>
      </trkpt>
      <trkpt lat="42.55601900000012" lon="-1.1793059999999989">
        <ele>566.688</ele>
        <time>2022-06-18T14:13:30Z</time>
      </trkpt>
      <trkpt lat="42.55608300000012" lon="-1.179296999999999">
        <ele>567.297</ele>
        <time>2022-06-18T14:13:33Z</time>
      </trkpt>
      <trkpt lat="42.55624100000012" lon="-1.179280999999999">
        <ele>568.052</ele>
        <time>2022-06-18T14:13:39Z</time>
      </trkpt>
      <trkpt lat="42.556268000000124" lon="-1.179280999999999">
        <ele>568.214</ele>
        <time>2022-06-18T14:13:40Z</time>
      </trkpt>
      <trkpt lat="42.55643700000012" lon="-1.179264999999999">
        <ele>569.676</ele>
        <time>2022-06-18T14:13:47Z</time>
      </trkpt>
      <trkpt lat="42.55648800000012" lon="-1.179250999999999">
        <ele>569.840</ele>
        <time>2022-06-18T14:13:49Z</time>
      </trkpt>
      <trkpt lat="42.556617000000124" lon="-1.179222999999999">
        <ele>570.668</ele>
        <time>2022-06-18T14:13:54Z</time>
      </trkpt>
      <trkpt lat="42.556732000000125" lon="-1.179177999999999">
        <ele>571.233</ele>
        <time>2022-06-18T14:13:59Z</time>
      </trkpt>
      <trkpt lat="42.556816000000126" lon="-1.179128999999999">
        <ele>571.823</ele>
        <time>2022-06-18T14:14:03Z</time>
      </trkpt>
      <trkpt lat="42.55690500000013" lon="-1.179082999999999">
        <ele>572.872</ele>
        <time>2022-06-18T14:14:07Z</time>
      </trkpt>
      <trkpt lat="42.55694500000013" lon="-1.179054999999999">
        <ele>573.213</ele>
        <time>2022-06-18T14:14:09Z</time>
      </trkpt>
      <trkpt lat="42.55701400000013" lon="-1.179014999999999">
        <ele>574.014</ele>
        <time>2022-06-18T14:14:12Z</time>
      </trkpt>
      <trkpt lat="42.557128000000134" lon="-1.178943999999999">
        <ele>574.609</ele>
        <time>2022-06-18T14:14:17Z</time>
      </trkpt>
      <trkpt lat="42.55723800000013" lon="-1.1788709999999991">
        <ele>575.048</ele>
        <time>2022-06-18T14:14:22Z</time>
      </trkpt>
      <trkpt lat="42.557324000000136" lon="-1.1788159999999992">
        <ele>575.447</ele>
        <time>2022-06-18T14:14:26Z</time>
      </trkpt>
      <trkpt lat="42.55749400000013" lon="-1.1786979999999991">
        <ele>575.672</ele>
        <time>2022-06-18T14:14:33Z</time>
      </trkpt>
      <trkpt lat="42.55756000000013" lon="-1.178647999999999">
        <ele>575.834</ele>
        <time>2022-06-18T14:14:36Z</time>
      </trkpt>
      <trkpt lat="42.55763100000013" lon="-1.178594999999999">
        <ele>576.246</ele>
        <time>2022-06-18T14:14:39Z</time>
      </trkpt>
      <trkpt lat="42.55773800000013" lon="-1.1785149999999989">
        <ele>576.830</ele>
        <time>2022-06-18T14:14:44Z</time>
      </trkpt>
      <trkpt lat="42.55786900000013" lon="-1.1784129999999988">
        <ele>577.478</ele>
        <time>2022-06-18T14:14:50Z</time>
      </trkpt>
      <trkpt lat="42.55793700000013" lon="-1.1783679999999987">
        <ele>577.823</ele>
        <time>2022-06-18T14:14:53Z</time>
      </trkpt>
      <trkpt lat="42.55800100000013" lon="-1.1783179999999986">
        <ele>578.423</ele>
        <time>2022-06-18T14:14:56Z</time>
      </trkpt>
      <trkpt lat="42.558118000000135" lon="-1.1782269999999986">
        <ele>579.252</ele>
        <time>2022-06-18T14:15:01Z</time>
      </trkpt>
      <trkpt lat="42.55816800000014" lon="-1.1781939999999986">
        <ele>579.653</ele>
        <time>2022-06-18T14:15:03Z</time>
      </trkpt>
      <trkpt lat="42.55828000000014" lon="-1.1781089999999987">
        <ele>580.208</ele>
        <time>2022-06-18T14:15:08Z</time>
      </trkpt>
      <trkpt lat="42.55830000000014" lon="-1.1780919999999988">
        <ele>580.609</ele>
        <time>2022-06-18T14:15:09Z</time>
      </trkpt>
      <trkpt lat="42.55831900000014" lon="-1.1780749999999989">
        <ele>580.866</ele>
        <time>2022-06-18T14:15:10Z</time>
      </trkpt>
      <trkpt lat="42.55844400000014" lon="-1.177984999999999">
        <ele>581.665</ele>
        <time>2022-06-18T14:15:16Z</time>
      </trkpt>
      <trkpt lat="42.55846800000014" lon="-1.177968999999999">
        <ele>581.830</ele>
        <time>2022-06-18T14:15:17Z</time>
      </trkpt>
      <trkpt lat="42.55865400000014" lon="-1.1778269999999988">
        <ele>582.862</ele>
        <time>2022-06-18T14:15:26Z</time>
      </trkpt>
      <trkpt lat="42.558796000000136" lon="-1.177709999999999">
        <ele>584.244</ele>
        <time>2022-06-18T14:15:33Z</time>
      </trkpt>
      <trkpt lat="42.55881700000013" lon="-1.177692999999999">
        <ele>584.478</ele>
        <time>2022-06-18T14:15:34Z</time>
      </trkpt>
      <trkpt lat="42.55893800000013" lon="-1.177583999999999">
        <ele>585.226</ele>
        <time>2022-06-18T14:15:40Z</time>
      </trkpt>
      <trkpt lat="42.55900300000013" lon="-1.177538999999999">
        <ele>585.431</ele>
        <time>2022-06-18T14:15:43Z</time>
      </trkpt>
      <trkpt lat="42.55915600000013" lon="-1.177424999999999">
        <ele>586.441</ele>
        <time>2022-06-18T14:15:50Z</time>
      </trkpt>
      <trkpt lat="42.55920100000013" lon="-1.177392999999999">
        <ele>586.633</ele>
        <time>2022-06-18T14:15:52Z</time>
      </trkpt>
      <trkpt lat="42.55930100000013" lon="-1.177303999999999">
        <ele>587.423</ele>
        <time>2022-06-18T14:15:57Z</time>
      </trkpt>
      <trkpt lat="42.55936400000013" lon="-1.177256999999999">
        <ele>588.015</ele>
        <time>2022-06-18T14:16:00Z</time>
      </trkpt>
      <trkpt lat="42.55942200000013" lon="-1.177203999999999">
        <ele>588.409</ele>
        <time>2022-06-18T14:16:03Z</time>
      </trkpt>
      <trkpt lat="42.55950100000013" lon="-1.177144999999999">
        <ele>589.284</ele>
        <time>2022-06-18T14:16:07Z</time>
      </trkpt>
      <trkpt lat="42.55954100000013" lon="-1.177118999999999">
        <ele>589.653</ele>
        <time>2022-06-18T14:16:09Z</time>
      </trkpt>
      <trkpt lat="42.55958700000013" lon="-1.177080999999999">
        <ele>589.818</ele>
        <time>2022-06-18T14:16:11Z</time>
      </trkpt>
      <trkpt lat="42.55966800000013" lon="-1.1770169999999989">
        <ele>590.820</ele>
        <time>2022-06-18T14:16:15Z</time>
      </trkpt>
      <trkpt lat="42.55977400000013" lon="-1.1769359999999989">
        <ele>591.882</ele>
        <time>2022-06-18T14:16:21Z</time>
      </trkpt>
      <trkpt lat="42.559796000000134" lon="-1.1769209999999988">
        <ele>592.036</ele>
        <time>2022-06-18T14:16:22Z</time>
      </trkpt>
      <trkpt lat="42.559885000000136" lon="-1.1768479999999988">
        <ele>593.214</ele>
        <time>2022-06-18T14:16:27Z</time>
      </trkpt>
      <trkpt lat="42.559902000000136" lon="-1.1768349999999987">
        <ele>593.469</ele>
        <time>2022-06-18T14:16:28Z</time>
      </trkpt>
      <trkpt lat="42.559995000000136" lon="-1.1767459999999987">
        <ele>594.469</ele>
        <time>2022-06-18T14:16:33Z</time>
      </trkpt>
      <trkpt lat="42.56005800000013" lon="-1.1767029999999987">
        <ele>594.862</ele>
        <time>2022-06-18T14:16:36Z</time>
      </trkpt>
      <trkpt lat="42.560127000000136" lon="-1.1766599999999987">
        <ele>595.483</ele>
        <time>2022-06-18T14:16:39Z</time>
      </trkpt>
      <trkpt lat="42.56022800000014" lon="-1.1765859999999988">
        <ele>596.811</ele>
        <time>2022-06-18T14:16:44Z</time>
      </trkpt>
      <trkpt lat="42.56024500000014" lon="-1.1765679999999987">
        <ele>597.009</ele>
        <time>2022-06-18T14:16:45Z</time>
      </trkpt>
      <trkpt lat="42.56031400000014" lon="-1.1764989999999986">
        <ele>597.847</ele>
        <time>2022-06-18T14:16:49Z</time>
      </trkpt>
      <trkpt lat="42.56035900000014" lon="-1.1764809999999986">
        <ele>598.236</ele>
        <time>2022-06-18T14:16:51Z</time>
      </trkpt>
      <trkpt lat="42.56043300000014" lon="-1.1764299999999985">
        <ele>599.081</ele>
        <time>2022-06-18T14:16:55Z</time>
      </trkpt>
      <trkpt lat="42.56052800000014" lon="-1.1763529999999984">
        <ele>600.033</ele>
        <time>2022-06-18T14:17:00Z</time>
      </trkpt>
      <trkpt lat="42.56067300000014" lon="-1.1762439999999985">
        <ele>601.295</ele>
        <time>2022-06-18T14:17:08Z</time>
      </trkpt>
      <trkpt lat="42.560717000000146" lon="-1.1762129999999986">
        <ele>601.689</ele>
        <time>2022-06-18T14:17:10Z</time>
      </trkpt>
      <trkpt lat="42.56078700000015" lon="-1.1761259999999987">
        <ele>602.457</ele>
        <time>2022-06-18T14:17:14Z</time>
      </trkpt>
      <trkpt lat="42.56084900000015" lon="-1.1760449999999987">
        <ele>603.072</ele>
        <time>2022-06-18T14:17:18Z</time>
      </trkpt>
      <trkpt lat="42.560892000000145" lon="-1.1759799999999987">
        <ele>603.412</ele>
        <time>2022-06-18T14:17:21Z</time>
      </trkpt>
      <trkpt lat="42.56096300000014" lon="-1.1758449999999987">
        <ele>604.042</ele>
        <time>2022-06-18T14:17:26Z</time>
      </trkpt>
      <trkpt lat="42.560990000000146" lon="-1.1757839999999986">
        <ele>604.622</ele>
        <time>2022-06-18T14:17:28Z</time>
      </trkpt>
      <trkpt lat="42.56105600000014" lon="-1.1755899999999986">
        <ele>605.214</ele>
        <time>2022-06-18T14:17:34Z</time>
      </trkpt>
      <trkpt lat="42.56111500000014" lon="-1.1754229999999986">
        <ele>605.609</ele>
        <time>2022-06-18T14:17:39Z</time>
      </trkpt>
      <trkpt lat="42.56116300000014" lon="-1.1752859999999985">
        <ele>606.255</ele>
        <time>2022-06-18T14:17:43Z</time>
      </trkpt>
      <trkpt lat="42.56124800000014" lon="-1.1750329999999984">
        <ele>606.644</ele>
        <time>2022-06-18T14:17:50Z</time>
      </trkpt>
      <trkpt lat="42.56131000000014" lon="-1.1748259999999984">
        <ele>606.849</ele>
        <time>2022-06-18T14:17:56Z</time>
      </trkpt>
      <trkpt lat="42.56133100000014" lon="-1.1744629999999985">
        <ele>607.631</ele>
        <time>2022-06-18T14:18:05Z</time>
      </trkpt>
      <trkpt lat="42.56128000000014" lon="-1.1741939999999984">
        <ele>607.853</ele>
        <time>2022-06-18T14:18:12Z</time>
      </trkpt>
      <trkpt lat="42.56125900000014" lon="-1.1738899999999983">
        <ele>608.477</ele>
        <time>2022-06-18T14:18:20Z</time>
      </trkpt>
      <trkpt lat="42.56131500000014" lon="-1.1737979999999983">
        <ele>608.665</ele>
        <time>2022-06-18T14:18:23Z</time>
      </trkpt>
      <trkpt lat="42.561370000000146" lon="-1.1737659999999983">
        <ele>609.460</ele>
        <time>2022-06-18T14:18:25Z</time>
      </trkpt>
      <trkpt lat="42.56147900000015" lon="-1.1737849999999983">
        <ele>609.850</ele>
        <time>2022-06-18T14:18:29Z</time>
      </trkpt>
      <trkpt lat="42.56150700000015" lon="-1.1738099999999982">
        <ele>609.867</ele>
        <time>2022-06-18T14:18:30Z</time>
      </trkpt>
      <trkpt lat="42.56170900000015" lon="-1.1740539999999982">
        <ele>610.681</ele>
        <time>2022-06-18T14:18:39Z</time>
      </trkpt>
      <trkpt lat="42.56175000000015" lon="-1.1741109999999981">
        <ele>610.619</ele>
        <time>2022-06-18T14:18:41Z</time>
      </trkpt>
      <trkpt lat="42.561789000000154" lon="-1.174159999999998">
        <ele>610.809</ele>
        <time>2022-06-18T14:18:43Z</time>
      </trkpt>
      <trkpt lat="42.561893000000154" lon="-1.174324999999998">
        <ele>611.497</ele>
        <time>2022-06-18T14:18:48Z</time>
      </trkpt>
      <trkpt lat="42.562005000000156" lon="-1.1745509999999981">
        <ele>611.686</ele>
        <time>2022-06-18T14:18:55Z</time>
      </trkpt>
      <trkpt lat="42.56205100000015" lon="-1.174662999999998">
        <ele>612.031</ele>
        <time>2022-06-18T14:18:59Z</time>
      </trkpt>
      <trkpt lat="42.56208000000015" lon="-1.174745999999998">
        <ele>612.223</ele>
        <time>2022-06-18T14:19:02Z</time>
      </trkpt>
      <trkpt lat="42.56213600000015" lon="-1.175001999999998">
        <ele>613.075</ele>
        <time>2022-06-18T14:19:10Z</time>
      </trkpt>
      <trkpt lat="42.56216800000015" lon="-1.1752199999999982">
        <ele>614.469</ele>
        <time>2022-06-18T14:19:17Z</time>
      </trkpt>
      <trkpt lat="42.56218800000015" lon="-1.1753769999999981">
        <ele>615.837</ele>
        <time>2022-06-18T14:19:22Z</time>
      </trkpt>
      <trkpt lat="42.562209000000145" lon="-1.1754679999999982">
        <ele>616.482</ele>
        <time>2022-06-18T14:19:25Z</time>
      </trkpt>
      <trkpt lat="42.56221600000014" lon="-1.1755319999999982">
        <ele>616.892</ele>
        <time>2022-06-18T14:19:27Z</time>
      </trkpt>
      <trkpt lat="42.56225100000014" lon="-1.1757189999999982">
        <ele>618.022</ele>
        <time>2022-06-18T14:19:33Z</time>
      </trkpt>
      <trkpt lat="42.56227300000014" lon="-1.175776999999998">
        <ele>618.462</ele>
        <time>2022-06-18T14:19:35Z</time>
      </trkpt>
      <trkpt lat="42.56233300000014" lon="-1.1758759999999981">
        <ele>619.008</ele>
        <time>2022-06-18T14:19:39Z</time>
      </trkpt>
      <trkpt lat="42.562370000000136" lon="-1.1759259999999983">
        <ele>619.809</ele>
        <time>2022-06-18T14:19:41Z</time>
      </trkpt>
      <trkpt lat="42.56238900000014" lon="-1.1759489999999984">
        <ele>620.073</ele>
        <time>2022-06-18T14:19:42Z</time>
      </trkpt>
      <trkpt lat="42.56252000000014" lon="-1.1760829999999984">
        <ele>621.082</ele>
        <time>2022-06-18T14:19:49Z</time>
      </trkpt>
      <trkpt lat="42.56264500000014" lon="-1.1761839999999983">
        <ele>622.017</ele>
        <time>2022-06-18T14:19:55Z</time>
      </trkpt>
      <trkpt lat="42.56268700000014" lon="-1.1762269999999984">
        <ele>622.629</ele>
        <time>2022-06-18T14:19:57Z</time>
      </trkpt>
      <trkpt lat="42.56272100000014" lon="-1.1762759999999983">
        <ele>623.481</ele>
        <time>2022-06-18T14:19:59Z</time>
      </trkpt>
      <trkpt lat="42.562770000000135" lon="-1.1763899999999983">
        <ele>624.275</ele>
        <time>2022-06-18T14:20:03Z</time>
      </trkpt>
      <trkpt lat="42.56278900000014" lon="-1.1764499999999982">
        <ele>624.423</ele>
        <time>2022-06-18T14:20:05Z</time>
      </trkpt>
      <trkpt lat="42.56280300000014" lon="-1.1765869999999983">
        <ele>624.638</ele>
        <time>2022-06-18T14:20:09Z</time>
      </trkpt>
      <trkpt lat="42.562857000000136" lon="-1.1768799999999984">
        <ele>625.058</ele>
        <time>2022-06-18T14:20:18Z</time>
      </trkpt>
      <trkpt lat="42.562905000000136" lon="-1.1769919999999983">
        <ele>625.482</ele>
        <time>2022-06-18T14:20:22Z</time>
      </trkpt>
      <trkpt lat="42.562970000000135" lon="-1.1770879999999984">
        <ele>625.843</ele>
        <time>2022-06-18T14:20:26Z</time>
      </trkpt>
      <trkpt lat="42.56308600000013" lon="-1.1772839999999984">
        <ele>626.617</ele>
        <time>2022-06-18T14:20:34Z</time>
      </trkpt>
      <trkpt lat="42.56310100000013" lon="-1.1773059999999984">
        <ele>626.809</ele>
        <time>2022-06-18T14:20:35Z</time>
      </trkpt>
      <trkpt lat="42.56315800000013" lon="-1.1773949999999984">
        <ele>627.899</ele>
        <time>2022-06-18T14:20:39Z</time>
      </trkpt>
      <trkpt lat="42.56325400000013" lon="-1.1775149999999983">
        <ele>628.488</ele>
        <time>2022-06-18T14:20:45Z</time>
      </trkpt>
      <trkpt lat="42.56329500000013" lon="-1.1775799999999983">
        <ele>629.083</ele>
        <time>2022-06-18T14:20:48Z</time>
      </trkpt>
      <trkpt lat="42.56333200000013" lon="-1.1776579999999983">
        <ele>630.265</ele>
        <time>2022-06-18T14:20:51Z</time>
      </trkpt>
      <trkpt lat="42.56337900000013" lon="-1.1777609999999983">
        <ele>630.847</ele>
        <time>2022-06-18T14:20:55Z</time>
      </trkpt>
      <trkpt lat="42.56339600000013" lon="-1.1778159999999982">
        <ele>631.431</ele>
        <time>2022-06-18T14:20:57Z</time>
      </trkpt>
      <trkpt lat="42.56344100000013" lon="-1.1779839999999981">
        <ele>632.289</ele>
        <time>2022-06-18T14:21:03Z</time>
      </trkpt>
      <trkpt lat="42.56345800000013" lon="-1.1780399999999982">
        <ele>632.654</ele>
        <time>2022-06-18T14:21:05Z</time>
      </trkpt>
      <trkpt lat="42.56350700000013" lon="-1.1782059999999983">
        <ele>633.274</ele>
        <time>2022-06-18T14:21:11Z</time>
      </trkpt>
      <trkpt lat="42.56353900000013" lon="-1.1783159999999984">
        <ele>633.617</ele>
        <time>2022-06-18T14:21:15Z</time>
      </trkpt>
      <trkpt lat="42.56356400000013" lon="-1.1783989999999984">
        <ele>634.087</ele>
        <time>2022-06-18T14:21:18Z</time>
      </trkpt>
      <trkpt lat="42.56359800000013" lon="-1.1784719999999984">
        <ele>634.815</ele>
        <time>2022-06-18T14:21:21Z</time>
      </trkpt>
      <trkpt lat="42.56361900000012" lon="-1.1785149999999984">
        <ele>635.209</ele>
        <time>2022-06-18T14:21:23Z</time>
      </trkpt>
      <trkpt lat="42.563677000000126" lon="-1.1785609999999984">
        <ele>635.422</ele>
        <time>2022-06-18T14:21:26Z</time>
      </trkpt>
      <trkpt lat="42.56382600000013" lon="-1.1785619999999983">
        <ele>635.881</ele>
        <time>2022-06-18T14:21:33Z</time>
      </trkpt>
      <trkpt lat="42.56398500000012" lon="-1.1784709999999983">
        <ele>636.866</ele>
        <time>2022-06-18T14:21:41Z</time>
      </trkpt>
      <trkpt lat="42.56400000000012" lon="-1.1784499999999982">
        <ele>636.888</ele>
        <time>2022-06-18T14:21:42Z</time>
      </trkpt>
      <trkpt lat="42.56404500000012" lon="-1.1783199999999983">
        <ele>638.080</ele>
        <time>2022-06-18T14:21:47Z</time>
      </trkpt>
      <trkpt lat="42.56404900000012" lon="-1.1782899999999983">
        <ele>638.094</ele>
        <time>2022-06-18T14:21:48Z</time>
      </trkpt>
      <trkpt lat="42.56403800000012" lon="-1.1780929999999983">
        <ele>639.032</ele>
        <time>2022-06-18T14:21:54Z</time>
      </trkpt>
      <trkpt lat="42.56402700000012" lon="-1.1780269999999984">
        <ele>639.277</ele>
        <time>2022-06-18T14:21:56Z</time>
      </trkpt>
      <trkpt lat="42.56399200000012" lon="-1.1778919999999984">
        <ele>640.027</ele>
        <time>2022-06-18T14:22:00Z</time>
      </trkpt>
      <trkpt lat="42.56397500000012" lon="-1.1777829999999985">
        <ele>640.228</ele>
        <time>2022-06-18T14:22:03Z</time>
      </trkpt>
      <trkpt lat="42.56390300000012" lon="-1.1774769999999986">
        <ele>641.289</ele>
        <time>2022-06-18T14:22:12Z</time>
      </trkpt>
      <trkpt lat="42.56381800000012" lon="-1.1772119999999986">
        <ele>641.817</ele>
        <time>2022-06-18T14:22:20Z</time>
      </trkpt>
      <trkpt lat="42.56376500000012" lon="-1.1770909999999986">
        <ele>642.409</ele>
        <time>2022-06-18T14:22:24Z</time>
      </trkpt>
      <trkpt lat="42.56369400000012" lon="-1.1769469999999986">
        <ele>643.423</ele>
        <time>2022-06-18T14:22:29Z</time>
      </trkpt>
      <trkpt lat="42.56366600000012" lon="-1.1768859999999985">
        <ele>643.682</ele>
        <time>2022-06-18T14:22:31Z</time>
      </trkpt>
      <trkpt lat="42.56357200000012" lon="-1.1766819999999985">
        <ele>643.877</ele>
        <time>2022-06-18T14:22:38Z</time>
      </trkpt>
      <trkpt lat="42.56354100000012" lon="-1.1763769999999985">
        <ele>644.249</ele>
        <time>2022-06-18T14:22:47Z</time>
      </trkpt>
      <trkpt lat="42.56353600000012" lon="-1.1762419999999985">
        <ele>644.661</ele>
        <time>2022-06-18T14:22:51Z</time>
      </trkpt>
      <trkpt lat="42.56353400000012" lon="-1.1761379999999984">
        <ele>645.055</ele>
        <time>2022-06-18T14:22:54Z</time>
      </trkpt>
      <trkpt lat="42.563532000000116" lon="-1.1760449999999985">
        <ele>645.823</ele>
        <time>2022-06-18T14:22:57Z</time>
      </trkpt>
      <trkpt lat="42.563521000000115" lon="-1.1758059999999984">
        <ele>646.248</ele>
        <time>2022-06-18T14:23:04Z</time>
      </trkpt>
      <trkpt lat="42.56351900000011" lon="-1.1756119999999983">
        <ele>646.868</ele>
        <time>2022-06-18T14:23:10Z</time>
      </trkpt>
      <trkpt lat="42.56351700000011" lon="-1.1755399999999983">
        <ele>647.087</ele>
        <time>2022-06-18T14:23:12Z</time>
      </trkpt>
      <trkpt lat="42.56350800000011" lon="-1.1754509999999982">
        <ele>647.842</ele>
        <time>2022-06-18T14:23:15Z</time>
      </trkpt>
      <trkpt lat="42.56348000000011" lon="-1.1752989999999983">
        <ele>648.426</ele>
        <time>2022-06-18T14:23:20Z</time>
      </trkpt>
      <trkpt lat="42.56344400000011" lon="-1.1751449999999983">
        <ele>648.809</ele>
        <time>2022-06-18T14:23:25Z</time>
      </trkpt>
      <trkpt lat="42.56341200000011" lon="-1.1750209999999983">
        <ele>649.419</ele>
        <time>2022-06-18T14:23:29Z</time>
      </trkpt>
      <trkpt lat="42.56336700000011" lon="-1.1749109999999983">
        <ele>649.858</ele>
        <time>2022-06-18T14:23:33Z</time>
      </trkpt>
      <trkpt lat="42.56331500000012" lon="-1.1747679999999983">
        <ele>650.083</ele>
        <time>2022-06-18T14:23:38Z</time>
      </trkpt>
      <trkpt lat="42.563254000000114" lon="-1.1745299999999983">
        <ele>650.225</ele>
        <time>2022-06-18T14:23:46Z</time>
      </trkpt>
      <trkpt lat="42.563245000000116" lon="-1.1744179999999984">
        <ele>650.477</ele>
        <time>2022-06-18T14:23:50Z</time>
      </trkpt>
      <trkpt lat="42.563243000000114" lon="-1.1743489999999983">
        <ele>650.671</ele>
        <time>2022-06-18T14:23:52Z</time>
      </trkpt>
      <trkpt lat="42.563243000000114" lon="-1.1743219999999983">
        <ele>650.839</ele>
        <time>2022-06-18T14:23:53Z</time>
      </trkpt>
      <trkpt lat="42.56327800000011" lon="-1.1740559999999982">
        <ele>652.014</ele>
        <time>2022-06-18T14:24:01Z</time>
      </trkpt>
      <trkpt lat="42.56328900000011" lon="-1.1739659999999983">
        <ele>653.444</ele>
        <time>2022-06-18T14:24:04Z</time>
      </trkpt>
      <trkpt lat="42.56331100000011" lon="-1.1738439999999983">
        <ele>653.873</ele>
        <time>2022-06-18T14:24:08Z</time>
      </trkpt>
      <trkpt lat="42.56334600000011" lon="-1.1736669999999982">
        <ele>654.685</ele>
        <time>2022-06-18T14:24:14Z</time>
      </trkpt>
      <trkpt lat="42.56335700000011" lon="-1.1735339999999983">
        <ele>655.813</ele>
        <time>2022-06-18T14:24:18Z</time>
      </trkpt>
      <trkpt lat="42.56335700000011" lon="-1.1734399999999983">
        <ele>656.409</ele>
        <time>2022-06-18T14:24:21Z</time>
      </trkpt>
      <trkpt lat="42.56335900000011" lon="-1.1733419999999983">
        <ele>656.868</ele>
        <time>2022-06-18T14:24:24Z</time>
      </trkpt>
      <trkpt lat="42.56336700000011" lon="-1.1731919999999982">
        <ele>657.467</ele>
        <time>2022-06-18T14:24:29Z</time>
      </trkpt>
      <trkpt lat="42.56336500000011" lon="-1.1731329999999982">
        <ele>658.092</ele>
        <time>2022-06-18T14:24:31Z</time>
      </trkpt>
      <trkpt lat="42.56336800000011" lon="-1.1729779999999983">
        <ele>659.074</ele>
        <time>2022-06-18T14:24:36Z</time>
      </trkpt>
      <trkpt lat="42.56336700000011" lon="-1.1729419999999984">
        <ele>659.036</ele>
        <time>2022-06-18T14:24:37Z</time>
      </trkpt>
      <trkpt lat="42.563347000000114" lon="-1.1727429999999983">
        <ele>659.470</ele>
        <time>2022-06-18T14:24:44Z</time>
      </trkpt>
      <trkpt lat="42.56326700000012" lon="-1.1725589999999984">
        <ele>660.018</ele>
        <time>2022-06-18T14:24:51Z</time>
      </trkpt>
      <trkpt lat="42.56324100000012" lon="-1.1725079999999983">
        <ele>660.043</ele>
        <time>2022-06-18T14:24:53Z</time>
      </trkpt>
      <trkpt lat="42.56322200000012" lon="-1.1723829999999984">
        <ele>660.233</ele>
        <time>2022-06-18T14:24:57Z</time>
      </trkpt>
      <trkpt lat="42.56325800000012" lon="-1.1723029999999983">
        <ele>660.498</ele>
        <time>2022-06-18T14:25:00Z</time>
      </trkpt>
      <trkpt lat="42.563304000000116" lon="-1.1722749999999984">
        <ele>660.615</ele>
        <time>2022-06-18T14:25:02Z</time>
      </trkpt>
      <trkpt lat="42.56340700000012" lon="-1.1722009999999985">
        <ele>661.226</ele>
        <time>2022-06-18T14:25:06Z</time>
      </trkpt>
      <trkpt lat="42.56346200000012" lon="-1.1721459999999986">
        <ele>661.809</ele>
        <time>2022-06-18T14:25:08Z</time>
      </trkpt>
      <trkpt lat="42.56357800000012" lon="-1.1719389999999985">
        <ele>662.070</ele>
        <time>2022-06-18T14:25:14Z</time>
      </trkpt>
      <trkpt lat="42.56363200000012" lon="-1.1716789999999986">
        <ele>661.839</ele>
        <time>2022-06-18T14:25:20Z</time>
      </trkpt>
      <trkpt lat="42.56364400000012" lon="-1.1715719999999985">
        <ele>661.834</ele>
        <time>2022-06-18T14:25:22Z</time>
      </trkpt>
      <trkpt lat="42.563651000000114" lon="-1.1714779999999985">
        <ele>661.676</ele>
        <time>2022-06-18T14:25:24Z</time>
      </trkpt>
      <trkpt lat="42.563665000000114" lon="-1.1713669999999985">
        <ele>661.248</ele>
        <time>2022-06-18T14:25:28Z</time>
      </trkpt>
      <trkpt lat="42.563665000000114" lon="-1.1713669999999985">
        <ele>661.232</ele>
        <time>2022-06-18T14:25:30Z</time>
      </trkpt>
      <trkpt lat="42.56365800000012" lon="-1.1713049999999985">
        <ele>660.630</ele>
        <time>2022-06-18T14:26:28Z</time>
      </trkpt>
      <trkpt lat="42.563653000000116" lon="-1.1712619999999985">
        <ele>660.645</ele>
        <time>2022-06-18T14:26:29Z</time>
      </trkpt>
      <trkpt lat="42.563639000000116" lon="-1.1711739999999984">
        <ele>660.615</ele>
        <time>2022-06-18T14:26:31Z</time>
      </trkpt>
      <trkpt lat="42.563637000000114" lon="-1.1710639999999983">
        <ele>660.639</ele>
        <time>2022-06-18T14:26:33Z</time>
      </trkpt>
      <trkpt lat="42.563636000000116" lon="-1.1710009999999984">
        <ele>660.401</ele>
        <time>2022-06-18T14:26:34Z</time>
      </trkpt>
      <trkpt lat="42.563617000000114" lon="-1.1707709999999985">
        <ele>659.821</ele>
        <time>2022-06-18T14:26:37Z</time>
      </trkpt>
      <trkpt lat="42.563611000000115" lon="-1.1707039999999984">
        <ele>659.609</ele>
        <time>2022-06-18T14:26:38Z</time>
      </trkpt>
      <trkpt lat="42.563606000000114" lon="-1.1705999999999983">
        <ele>659.264</ele>
        <time>2022-06-18T14:26:39Z</time>
      </trkpt>
      <trkpt lat="42.563622000000116" lon="-1.1704109999999983">
        <ele>658.843</ele>
        <time>2022-06-18T14:26:41Z</time>
      </trkpt>
      <trkpt lat="42.56364700000012" lon="-1.1703169999999983">
        <ele>658.448</ele>
        <time>2022-06-18T14:26:42Z</time>
      </trkpt>
      <trkpt lat="42.56372500000012" lon="-1.1701469999999983">
        <ele>657.470</ele>
        <time>2022-06-18T14:26:44Z</time>
      </trkpt>
      <trkpt lat="42.56378600000012" lon="-1.1700769999999983">
        <ele>657.252</ele>
        <time>2022-06-18T14:26:45Z</time>
      </trkpt>
      <trkpt lat="42.56385200000012" lon="-1.1700209999999982">
        <ele>656.836</ele>
        <time>2022-06-18T14:26:46Z</time>
      </trkpt>
      <trkpt lat="42.563918000000115" lon="-1.1699719999999982">
        <ele>656.224</ele>
        <time>2022-06-18T14:26:47Z</time>
      </trkpt>
      <trkpt lat="42.564039000000115" lon="-1.1698889999999982">
        <ele>655.239</ele>
        <time>2022-06-18T14:26:49Z</time>
      </trkpt>
      <trkpt lat="42.56412200000011" lon="-1.1698349999999982">
        <ele>654.469</ele>
        <time>2022-06-18T14:26:50Z</time>
      </trkpt>
      <trkpt lat="42.564191000000115" lon="-1.1697939999999982">
        <ele>654.032</ele>
        <time>2022-06-18T14:26:51Z</time>
      </trkpt>
      <trkpt lat="42.56440000000011" lon="-1.1696949999999982">
        <ele>652.892</ele>
        <time>2022-06-18T14:26:54Z</time>
      </trkpt>
      <trkpt lat="42.564531000000116" lon="-1.169684999999998">
        <ele>652.611</ele>
        <time>2022-06-18T14:26:56Z</time>
      </trkpt>
      <trkpt lat="42.56460400000012" lon="-1.1696899999999981">
        <ele>652.409</ele>
        <time>2022-06-18T14:26:57Z</time>
      </trkpt>
      <trkpt lat="42.56496400000012" lon="-1.169757999999998">
        <ele>652.474</ele>
        <time>2022-06-18T14:27:02Z</time>
      </trkpt>
      <trkpt lat="42.56523000000012" lon="-1.169803999999998">
        <ele>652.423</ele>
        <time>2022-06-18T14:27:07Z</time>
      </trkpt>
      <trkpt lat="42.565316000000124" lon="-1.169827999999998">
        <ele>652.448</ele>
        <time>2022-06-18T14:27:09Z</time>
      </trkpt>
      <trkpt lat="42.565436000000126" lon="-1.169857999999998">
        <ele>652.470</ele>
        <time>2022-06-18T14:27:12Z</time>
      </trkpt>
      <trkpt lat="42.565532000000125" lon="-1.1698759999999981">
        <ele>652.672</ele>
        <time>2022-06-18T14:27:16Z</time>
      </trkpt>
      <trkpt lat="42.56553600000012" lon="-1.1698729999999982">
        <ele>652.896</ele>
        <time>2022-06-18T14:27:17Z</time>
      </trkpt>
      <trkpt lat="42.56553600000012" lon="-1.1698729999999982">
        <ele>652.824</ele>
        <time>2022-06-18T14:27:19Z</time>
      </trkpt>
      <trkpt lat="42.56557500000012" lon="-1.1698589999999982">
        <ele>652.489</ele>
        <time>2022-06-18T14:28:23Z</time>
      </trkpt>
      <trkpt lat="42.565622000000126" lon="-1.1698299999999981">
        <ele>652.449</ele>
        <time>2022-06-18T14:28:25Z</time>
      </trkpt>
      <trkpt lat="42.56572700000012" lon="-1.169762999999998">
        <ele>652.234</ele>
        <time>2022-06-18T14:28:30Z</time>
      </trkpt>
      <trkpt lat="42.56582400000012" lon="-1.1697219999999982">
        <ele>652.055</ele>
        <time>2022-06-18T14:28:35Z</time>
      </trkpt>
      <trkpt lat="42.56583300000012" lon="-1.1697089999999981">
        <ele>652.010</ele>
        <time>2022-06-18T14:28:36Z</time>
      </trkpt>
      <trkpt lat="42.56584100000012" lon="-1.169671999999998">
        <ele>652.009</ele>
        <time>2022-06-18T14:28:38Z</time>
      </trkpt>
      <trkpt lat="42.56580600000012" lon="-1.169612999999998">
        <ele>651.834</ele>
        <time>2022-06-18T14:28:41Z</time>
      </trkpt>
      <trkpt lat="42.56579500000012" lon="-1.169621999999998">
        <ele>651.813</ele>
        <time>2022-06-18T14:28:43Z</time>
      </trkpt>
      <trkpt lat="42.56574400000012" lon="-1.169588999999998">
        <ele>651.868</ele>
        <time>2022-06-18T14:28:46Z</time>
      </trkpt>
      <trkpt lat="42.565647000000126" lon="-1.169468999999998">
        <ele>653.210</ele>
        <time>2022-06-18T14:28:53Z</time>
      </trkpt>
      <trkpt lat="42.56560400000013" lon="-1.169415999999998">
        <ele>653.852</ele>
        <time>2022-06-18T14:28:56Z</time>
      </trkpt>
      <trkpt lat="42.56559300000013" lon="-1.169404999999998">
        <ele>653.886</ele>
        <time>2022-06-18T14:28:57Z</time>
      </trkpt>
      <trkpt lat="42.56556500000013" lon="-1.1694009999999981">
        <ele>654.014</ele>
        <time>2022-06-18T14:28:59Z</time>
      </trkpt>
      <trkpt lat="42.565487000000125" lon="-1.1694119999999981">
        <ele>655.059</ele>
        <time>2022-06-18T14:29:03Z</time>
      </trkpt>
      <trkpt lat="42.565465000000124" lon="-1.169414999999998">
        <ele>656.089</ele>
        <time>2022-06-18T14:29:06Z</time>
      </trkpt>
      <trkpt lat="42.565465000000124" lon="-1.169414999999998">
        <ele>656.476</ele>
        <time>2022-06-18T14:29:07Z</time>
      </trkpt>
      <trkpt lat="42.565496000000124" lon="-1.169417999999998">
        <ele>662.090</ele>
        <time>2022-06-18T14:59:45Z</time>
      </trkpt>
      <trkpt lat="42.56553000000012" lon="-1.169410999999998">
        <ele>662.019</ele>
        <time>2022-06-18T14:59:47Z</time>
      </trkpt>
      <trkpt lat="42.56553300000012" lon="-1.169411999999998">
        <ele>661.809</ele>
        <time>2022-06-18T14:59:49Z</time>
      </trkpt>
      <trkpt lat="42.56562400000012" lon="-1.169461999999998">
        <ele>661.688</ele>
        <time>2022-06-18T14:59:52Z</time>
      </trkpt>
      <trkpt lat="42.56565200000012" lon="-1.169485999999998">
        <ele>661.467</ele>
        <time>2022-06-18T14:59:53Z</time>
      </trkpt>
      <trkpt lat="42.56571900000012" lon="-1.169543999999998">
        <ele>661.092</ele>
        <time>2022-06-18T14:59:55Z</time>
      </trkpt>
      <trkpt lat="42.56577600000012" lon="-1.1696179999999978">
        <ele>659.874</ele>
        <time>2022-06-18T14:59:58Z</time>
      </trkpt>
      <trkpt lat="42.56578100000012" lon="-1.1696569999999977">
        <ele>659.646</ele>
        <time>2022-06-18T14:59:59Z</time>
      </trkpt>
      <trkpt lat="42.56577200000012" lon="-1.1697169999999977">
        <ele>659.420</ele>
        <time>2022-06-18T15:00:01Z</time>
      </trkpt>
      <trkpt lat="42.56574700000012" lon="-1.1697649999999977">
        <ele>658.628</ele>
        <time>2022-06-18T15:00:03Z</time>
      </trkpt>
      <trkpt lat="42.565701000000125" lon="-1.1697779999999978">
        <ele>657.833</ele>
        <time>2022-06-18T15:00:06Z</time>
      </trkpt>
      <trkpt lat="42.565681000000126" lon="-1.1697919999999977">
        <ele>657.233</ele>
        <time>2022-06-18T15:00:07Z</time>
      </trkpt>
      <trkpt lat="42.565597000000125" lon="-1.1698429999999977">
        <ele>656.057</ele>
        <time>2022-06-18T15:00:10Z</time>
      </trkpt>
      <trkpt lat="42.565529000000126" lon="-1.1698659999999979">
        <ele>655.600</ele>
        <time>2022-06-18T15:00:12Z</time>
      </trkpt>
      <trkpt lat="42.56542300000012" lon="-1.1699659999999978">
        <ele>655.620</ele>
        <time>2022-06-18T15:00:17Z</time>
      </trkpt>
      <trkpt lat="42.565327000000124" lon="-1.1701219999999979">
        <ele>655.609</ele>
        <time>2022-06-18T15:00:21Z</time>
      </trkpt>
      <trkpt lat="42.56529200000013" lon="-1.1701489999999979">
        <ele>655.676</ele>
        <time>2022-06-18T15:00:22Z</time>
      </trkpt>
      <trkpt lat="42.565251000000124" lon="-1.170164999999998">
        <ele>655.645</ele>
        <time>2022-06-18T15:00:23Z</time>
      </trkpt>
      <trkpt lat="42.56514000000013" lon="-1.170164999999998">
        <ele>655.630</ele>
        <time>2022-06-18T15:00:26Z</time>
      </trkpt>
      <trkpt lat="42.56493200000013" lon="-1.170101999999998">
        <ele>655.632</ele>
        <time>2022-06-18T15:00:32Z</time>
      </trkpt>
      <trkpt lat="42.56484700000013" lon="-1.170088999999998">
        <ele>655.644</ele>
        <time>2022-06-18T15:00:34Z</time>
      </trkpt>
      <trkpt lat="42.56473400000013" lon="-1.1700929999999978">
        <ele>655.648</ele>
        <time>2022-06-18T15:00:36Z</time>
      </trkpt>
      <trkpt lat="42.56467200000013" lon="-1.170107999999998">
        <ele>655.666</ele>
        <time>2022-06-18T15:00:37Z</time>
      </trkpt>
      <trkpt lat="42.56460800000013" lon="-1.170133999999998">
        <ele>655.211</ele>
        <time>2022-06-18T15:00:38Z</time>
      </trkpt>
      <trkpt lat="42.56448300000013" lon="-1.170232999999998">
        <ele>654.841</ele>
        <time>2022-06-18T15:00:40Z</time>
      </trkpt>
      <trkpt lat="42.56442800000013" lon="-1.170305999999998">
        <ele>654.671</ele>
        <time>2022-06-18T15:00:41Z</time>
      </trkpt>
      <trkpt lat="42.56437700000013" lon="-1.170394999999998">
        <ele>654.441</ele>
        <time>2022-06-18T15:00:42Z</time>
      </trkpt>
      <trkpt lat="42.564313000000126" lon="-1.1706259999999982">
        <ele>653.215</ele>
        <time>2022-06-18T15:00:44Z</time>
      </trkpt>
      <trkpt lat="42.56430400000013" lon="-1.1707569999999983">
        <ele>652.209</ele>
        <time>2022-06-18T15:00:45Z</time>
      </trkpt>
      <trkpt lat="42.56431200000013" lon="-1.1708879999999984">
        <ele>651.648</ele>
        <time>2022-06-18T15:00:46Z</time>
      </trkpt>
      <trkpt lat="42.56434300000013" lon="-1.1710159999999983">
        <ele>651.287</ele>
        <time>2022-06-18T15:00:47Z</time>
      </trkpt>
      <trkpt lat="42.56440200000013" lon="-1.1711359999999982">
        <ele>651.242</ele>
        <time>2022-06-18T15:00:48Z</time>
      </trkpt>
      <trkpt lat="42.56455900000013" lon="-1.1713459999999982">
        <ele>650.664</ele>
        <time>2022-06-18T15:00:50Z</time>
      </trkpt>
      <trkpt lat="42.56464600000013" lon="-1.1714499999999983">
        <ele>650.056</ele>
        <time>2022-06-18T15:00:51Z</time>
      </trkpt>
      <trkpt lat="42.564825000000134" lon="-1.1716629999999983">
        <ele>648.650</ele>
        <time>2022-06-18T15:00:53Z</time>
      </trkpt>
      <trkpt lat="42.564915000000134" lon="-1.1717789999999983">
        <ele>647.688</ele>
        <time>2022-06-18T15:00:54Z</time>
      </trkpt>
      <trkpt lat="42.56500000000013" lon="-1.1719059999999983">
        <ele>646.233</ele>
        <time>2022-06-18T15:00:55Z</time>
      </trkpt>
      <trkpt lat="42.565084000000134" lon="-1.1720469999999983">
        <ele>645.073</ele>
        <time>2022-06-18T15:00:56Z</time>
      </trkpt>
      <trkpt lat="42.565219000000134" lon="-1.1723599999999983">
        <ele>644.085</ele>
        <time>2022-06-18T15:00:58Z</time>
      </trkpt>
      <trkpt lat="42.56527300000013" lon="-1.1725269999999983">
        <ele>642.889</ele>
        <time>2022-06-18T15:00:59Z</time>
      </trkpt>
      <trkpt lat="42.56532200000013" lon="-1.1727029999999983">
        <ele>641.617</ele>
        <time>2022-06-18T15:01:00Z</time>
      </trkpt>
      <trkpt lat="42.56536900000013" lon="-1.1728839999999983">
        <ele>640.409</ele>
        <time>2022-06-18T15:01:01Z</time>
      </trkpt>
      <trkpt lat="42.565464000000134" lon="-1.1732519999999982">
        <ele>638.459</ele>
        <time>2022-06-18T15:01:03Z</time>
      </trkpt>
      <trkpt lat="42.56552100000013" lon="-1.1734349999999982">
        <ele>637.648</ele>
        <time>2022-06-18T15:01:04Z</time>
      </trkpt>
      <trkpt lat="42.56559500000013" lon="-1.1736069999999983">
        <ele>636.283</ele>
        <time>2022-06-18T15:01:05Z</time>
      </trkpt>
      <trkpt lat="42.56568400000013" lon="-1.1737669999999982">
        <ele>634.645</ele>
        <time>2022-06-18T15:01:06Z</time>
      </trkpt>
      <trkpt lat="42.56578500000013" lon="-1.1739139999999981">
        <ele>633.617</ele>
        <time>2022-06-18T15:01:07Z</time>
      </trkpt>
      <trkpt lat="42.56589800000013" lon="-1.174049999999998">
        <ele>632.251</ele>
        <time>2022-06-18T15:01:08Z</time>
      </trkpt>
      <trkpt lat="42.56602200000013" lon="-1.174168999999998">
        <ele>630.839</ele>
        <time>2022-06-18T15:01:09Z</time>
      </trkpt>
      <trkpt lat="42.566156000000134" lon="-1.174266999999998">
        <ele>629.674</ele>
        <time>2022-06-18T15:01:10Z</time>
      </trkpt>
      <trkpt lat="42.56629300000014" lon="-1.1743569999999979">
        <ele>628.464</ele>
        <time>2022-06-18T15:01:11Z</time>
      </trkpt>
      <trkpt lat="42.566432000000134" lon="-1.1744409999999978">
        <ele>626.881</ele>
        <time>2022-06-18T15:01:12Z</time>
      </trkpt>
      <trkpt lat="42.566570000000134" lon="-1.1745309999999978">
        <ele>625.461</ele>
        <time>2022-06-18T15:01:13Z</time>
      </trkpt>
      <trkpt lat="42.56670800000013" lon="-1.1746239999999977">
        <ele>624.217</ele>
        <time>2022-06-18T15:01:14Z</time>
      </trkpt>
      <trkpt lat="42.56699600000013" lon="-1.1748099999999977">
        <ele>623.409</ele>
        <time>2022-06-18T15:01:16Z</time>
      </trkpt>
      <trkpt lat="42.567141000000134" lon="-1.1749019999999977">
        <ele>621.819</ele>
        <time>2022-06-18T15:01:17Z</time>
      </trkpt>
      <trkpt lat="42.56728600000014" lon="-1.1749979999999978">
        <ele>620.018</ele>
        <time>2022-06-18T15:01:18Z</time>
      </trkpt>
      <trkpt lat="42.56757200000014" lon="-1.1752209999999979">
        <ele>618.613</ele>
        <time>2022-06-18T15:01:20Z</time>
      </trkpt>
      <trkpt lat="42.56784900000014" lon="-1.175484999999998">
        <ele>616.875</ele>
        <time>2022-06-18T15:01:22Z</time>
      </trkpt>
      <trkpt lat="42.567977000000134" lon="-1.175637999999998">
        <ele>615.437</ele>
        <time>2022-06-18T15:01:23Z</time>
      </trkpt>
      <trkpt lat="42.568084000000134" lon="-1.175809999999998">
        <ele>614.011</ele>
        <time>2022-06-18T15:01:24Z</time>
      </trkpt>
      <trkpt lat="42.568174000000134" lon="-1.175998999999998">
        <ele>612.269</ele>
        <time>2022-06-18T15:01:25Z</time>
      </trkpt>
      <trkpt lat="42.568253000000134" lon="-1.176193999999998">
        <ele>610.874</ele>
        <time>2022-06-18T15:01:26Z</time>
      </trkpt>
      <trkpt lat="42.568311000000136" lon="-1.176398999999998">
        <ele>609.224</ele>
        <time>2022-06-18T15:01:27Z</time>
      </trkpt>
      <trkpt lat="42.56835800000014" lon="-1.176606999999998">
        <ele>607.816</ele>
        <time>2022-06-18T15:01:28Z</time>
      </trkpt>
      <trkpt lat="42.568435000000136" lon="-1.1770289999999979">
        <ele>606.076</ele>
        <time>2022-06-18T15:01:30Z</time>
      </trkpt>
      <trkpt lat="42.568469000000135" lon="-1.177240999999998">
        <ele>604.213</ele>
        <time>2022-06-18T15:01:31Z</time>
      </trkpt>
      <trkpt lat="42.56850700000014" lon="-1.177450999999998">
        <ele>602.609</ele>
        <time>2022-06-18T15:01:32Z</time>
      </trkpt>
      <trkpt lat="42.568553000000136" lon="-1.177659999999998">
        <ele>601.482</ele>
        <time>2022-06-18T15:01:33Z</time>
      </trkpt>
      <trkpt lat="42.568613000000134" lon="-1.177863999999998">
        <ele>599.851</ele>
        <time>2022-06-18T15:01:34Z</time>
      </trkpt>
      <trkpt lat="42.56869000000013" lon="-1.178054999999998">
        <ele>598.476</ele>
        <time>2022-06-18T15:01:35Z</time>
      </trkpt>
      <trkpt lat="42.56887500000013" lon="-1.178397999999998">
        <ele>597.028</ele>
        <time>2022-06-18T15:01:37Z</time>
      </trkpt>
      <trkpt lat="42.568976000000134" lon="-1.178553999999998">
        <ele>596.640</ele>
        <time>2022-06-18T15:01:38Z</time>
      </trkpt>
      <trkpt lat="42.56925300000013" lon="-1.179013999999998">
        <ele>595.854</ele>
        <time>2022-06-18T15:01:41Z</time>
      </trkpt>
      <trkpt lat="42.56940800000013" lon="-1.179331999999998">
        <ele>595.292</ele>
        <time>2022-06-18T15:01:43Z</time>
      </trkpt>
      <trkpt lat="42.56947600000013" lon="-1.1794979999999982">
        <ele>594.667</ele>
        <time>2022-06-18T15:01:44Z</time>
      </trkpt>
      <trkpt lat="42.56959200000013" lon="-1.179838999999998">
        <ele>592.497</ele>
        <time>2022-06-18T15:01:46Z</time>
      </trkpt>
      <trkpt lat="42.56963900000013" lon="-1.180014999999998">
        <ele>591.642</ele>
        <time>2022-06-18T15:01:47Z</time>
      </trkpt>
      <trkpt lat="42.56968200000013" lon="-1.180193999999998">
        <ele>591.022</ele>
        <time>2022-06-18T15:01:48Z</time>
      </trkpt>
      <trkpt lat="42.569770000000126" lon="-1.180743999999998">
        <ele>590.014</ele>
        <time>2022-06-18T15:01:51Z</time>
      </trkpt>
      <trkpt lat="42.569796000000125" lon="-1.180927999999998">
        <ele>589.809</ele>
        <time>2022-06-18T15:01:52Z</time>
      </trkpt>
      <trkpt lat="42.56992700000013" lon="-1.181644999999998">
        <ele>588.835</ele>
        <time>2022-06-18T15:01:56Z</time>
      </trkpt>
      <trkpt lat="42.57000900000013" lon="-1.1819919999999982">
        <ele>588.064</ele>
        <time>2022-06-18T15:01:58Z</time>
      </trkpt>
      <trkpt lat="42.57005100000013" lon="-1.1821589999999982">
        <ele>587.449</ele>
        <time>2022-06-18T15:01:59Z</time>
      </trkpt>
      <trkpt lat="42.57009600000013" lon="-1.1823239999999982">
        <ele>586.061</ele>
        <time>2022-06-18T15:02:00Z</time>
      </trkpt>
      <trkpt lat="42.57014600000013" lon="-1.182486999999998">
        <ele>585.063</ele>
        <time>2022-06-18T15:02:01Z</time>
      </trkpt>
      <trkpt lat="42.57020000000013" lon="-1.182648999999998">
        <ele>584.037</ele>
        <time>2022-06-18T15:02:02Z</time>
      </trkpt>
      <trkpt lat="42.57031300000013" lon="-1.182965999999998">
        <ele>582.465</ele>
        <time>2022-06-18T15:02:04Z</time>
      </trkpt>
      <trkpt lat="42.570375000000126" lon="-1.1831209999999979">
        <ele>581.830</ele>
        <time>2022-06-18T15:02:05Z</time>
      </trkpt>
      <trkpt lat="42.57044200000013" lon="-1.183276999999998">
        <ele>581.470</ele>
        <time>2022-06-18T15:02:06Z</time>
      </trkpt>
      <trkpt lat="42.57073400000013" lon="-1.183891999999998">
        <ele>580.231</ele>
        <time>2022-06-18T15:02:10Z</time>
      </trkpt>
      <trkpt lat="42.570817000000126" lon="-1.184040999999998">
        <ele>579.261</ele>
        <time>2022-06-18T15:02:11Z</time>
      </trkpt>
      <trkpt lat="42.570905000000124" lon="-1.184182999999998">
        <ele>578.007</ele>
        <time>2022-06-18T15:02:12Z</time>
      </trkpt>
      <trkpt lat="42.57108600000012" lon="-1.184461999999998">
        <ele>577.009</ele>
        <time>2022-06-18T15:02:14Z</time>
      </trkpt>
      <trkpt lat="42.57117900000012" lon="-1.184595999999998">
        <ele>576.224</ele>
        <time>2022-06-18T15:02:15Z</time>
      </trkpt>
      <trkpt lat="42.57127800000012" lon="-1.184728999999998">
        <ele>575.033</ele>
        <time>2022-06-18T15:02:16Z</time>
      </trkpt>
      <trkpt lat="42.571378000000124" lon="-1.1848589999999979">
        <ele>573.618</ele>
        <time>2022-06-18T15:02:17Z</time>
      </trkpt>
      <trkpt lat="42.571580000000125" lon="-1.1851189999999978">
        <ele>571.460</ele>
        <time>2022-06-18T15:02:19Z</time>
      </trkpt>
      <trkpt lat="42.571684000000126" lon="-1.1852409999999978">
        <ele>570.242</ele>
        <time>2022-06-18T15:02:20Z</time>
      </trkpt>
      <trkpt lat="42.571788000000126" lon="-1.1853579999999977">
        <ele>569.236</ele>
        <time>2022-06-18T15:02:21Z</time>
      </trkpt>
      <trkpt lat="42.571893000000124" lon="-1.1854719999999976">
        <ele>568.244</ele>
        <time>2022-06-18T15:02:22Z</time>
      </trkpt>
      <trkpt lat="42.57219800000012" lon="-1.1858419999999976">
        <ele>567.039</ele>
        <time>2022-06-18T15:02:25Z</time>
      </trkpt>
      <trkpt lat="42.57229600000012" lon="-1.1859689999999976">
        <ele>566.459</ele>
        <time>2022-06-18T15:02:26Z</time>
      </trkpt>
      <trkpt lat="42.572391000000124" lon="-1.1860979999999977">
        <ele>564.824</ele>
        <time>2022-06-18T15:02:27Z</time>
      </trkpt>
      <trkpt lat="42.572486000000126" lon="-1.1862309999999976">
        <ele>563.804</ele>
        <time>2022-06-18T15:02:28Z</time>
      </trkpt>
      <trkpt lat="42.57267000000012" lon="-1.1865009999999976">
        <ele>562.414</ele>
        <time>2022-06-18T15:02:30Z</time>
      </trkpt>
      <trkpt lat="42.572908000000126" lon="-1.1869209999999977">
        <ele>561.209</ele>
        <time>2022-06-18T15:02:33Z</time>
      </trkpt>
      <trkpt lat="42.572979000000124" lon="-1.1870629999999978">
        <ele>560.433</ele>
        <time>2022-06-18T15:02:34Z</time>
      </trkpt>
      <trkpt lat="42.573046000000126" lon="-1.1872069999999977">
        <ele>559.632</ele>
        <time>2022-06-18T15:02:35Z</time>
      </trkpt>
      <trkpt lat="42.57327500000012" lon="-1.1877829999999976">
        <ele>558.447</ele>
        <time>2022-06-18T15:02:39Z</time>
      </trkpt>
      <trkpt lat="42.57340500000012" lon="-1.1882079999999975">
        <ele>557.239</ele>
        <time>2022-06-18T15:02:42Z</time>
      </trkpt>
      <trkpt lat="42.57347600000012" lon="-1.1884829999999975">
        <ele>557.081</ele>
        <time>2022-06-18T15:02:44Z</time>
      </trkpt>
      <trkpt lat="42.57350700000012" lon="-1.1886169999999976">
        <ele>557.065</ele>
        <time>2022-06-18T15:02:45Z</time>
      </trkpt>
      <trkpt lat="42.57367100000012" lon="-1.1894109999999976">
        <ele>556.673</ele>
        <time>2022-06-18T15:02:51Z</time>
      </trkpt>
      <trkpt lat="42.573821000000116" lon="-1.1901769999999976">
        <ele>556.298</ele>
        <time>2022-06-18T15:02:57Z</time>
      </trkpt>
      <trkpt lat="42.57384800000012" lon="-1.1903009999999976">
        <ele>556.038</ele>
        <time>2022-06-18T15:02:58Z</time>
      </trkpt>
      <trkpt lat="42.57400500000012" lon="-1.1911259999999977">
        <ele>555.434</ele>
        <time>2022-06-18T15:03:05Z</time>
      </trkpt>
      <trkpt lat="42.57402000000012" lon="-1.1912139999999978">
        <ele>555.255</ele>
        <time>2022-06-18T15:03:06Z</time>
      </trkpt>
      <trkpt lat="42.574131000000115" lon="-1.1917489999999977">
        <ele>555.010</ele>
        <time>2022-06-18T15:03:11Z</time>
      </trkpt>
      <trkpt lat="42.574275000000114" lon="-1.1924119999999978">
        <ele>555.409</ele>
        <time>2022-06-18T15:03:18Z</time>
      </trkpt>
      <trkpt lat="42.57444800000011" lon="-1.1931549999999977">
        <ele>555.854</ele>
        <time>2022-06-18T15:03:26Z</time>
      </trkpt>
      <trkpt lat="42.57456900000011" lon="-1.1936079999999978">
        <ele>555.633</ele>
        <time>2022-06-18T15:03:31Z</time>
      </trkpt>
      <trkpt lat="42.57469700000011" lon="-1.1941159999999977">
        <ele>555.268</ele>
        <time>2022-06-18T15:03:36Z</time>
      </trkpt>
      <trkpt lat="42.57477300000011" lon="-1.1944189999999977">
        <ele>554.840</ele>
        <time>2022-06-18T15:03:39Z</time>
      </trkpt>
      <trkpt lat="42.57484200000011" lon="-1.1947369999999977">
        <ele>554.432</ele>
        <time>2022-06-18T15:03:42Z</time>
      </trkpt>
      <trkpt lat="42.57495000000011" lon="-1.1951429999999976">
        <ele>554.256</ele>
        <time>2022-06-18T15:03:46Z</time>
      </trkpt>
      <trkpt lat="42.57507900000011" lon="-1.1956209999999976">
        <ele>553.874</ele>
        <time>2022-06-18T15:03:51Z</time>
      </trkpt>
      <trkpt lat="42.57519700000011" lon="-1.1960379999999975">
        <ele>553.469</ele>
        <time>2022-06-18T15:03:56Z</time>
      </trkpt>
      <trkpt lat="42.57534200000011" lon="-1.1965489999999974">
        <ele>553.479</ele>
        <time>2022-06-18T15:04:03Z</time>
      </trkpt>
      <trkpt lat="42.57549700000011" lon="-1.1970729999999974">
        <ele>554.082</ele>
        <time>2022-06-18T15:04:11Z</time>
      </trkpt>
      <trkpt lat="42.57555300000011" lon="-1.1972579999999975">
        <ele>554.843</ele>
        <time>2022-06-18T15:04:14Z</time>
      </trkpt>
      <trkpt lat="42.575662000000115" lon="-1.1976819999999975">
        <ele>555.617</ele>
        <time>2022-06-18T15:04:21Z</time>
      </trkpt>
      <trkpt lat="42.575676000000115" lon="-1.1977399999999974">
        <ele>555.809</ele>
        <time>2022-06-18T15:04:22Z</time>
      </trkpt>
      <trkpt lat="42.57577600000012" lon="-1.1981349999999973">
        <ele>556.459</ele>
        <time>2022-06-18T15:04:29Z</time>
      </trkpt>
      <trkpt lat="42.57585200000012" lon="-1.1984659999999974">
        <ele>557.058</ele>
        <time>2022-06-18T15:04:35Z</time>
      </trkpt>
      <trkpt lat="42.57588800000012" lon="-1.1986269999999974">
        <ele>557.463</ele>
        <time>2022-06-18T15:04:38Z</time>
      </trkpt>
      <trkpt lat="42.57596900000012" lon="-1.1990089999999975">
        <ele>558.085</ele>
        <time>2022-06-18T15:04:45Z</time>
      </trkpt>
      <trkpt lat="42.57603200000012" lon="-1.1992769999999975">
        <ele>558.637</ele>
        <time>2022-06-18T15:04:50Z</time>
      </trkpt>
      <trkpt lat="42.57615100000012" lon="-1.1998349999999975">
        <ele>559.411</ele>
        <time>2022-06-18T15:05:00Z</time>
      </trkpt>
      <trkpt lat="42.57616200000012" lon="-1.1998939999999976">
        <ele>559.659</ele>
        <time>2022-06-18T15:05:01Z</time>
      </trkpt>
      <trkpt lat="42.57627700000012" lon="-1.2003719999999976">
        <ele>560.214</ele>
        <time>2022-06-18T15:05:09Z</time>
      </trkpt>
      <trkpt lat="42.57644300000012" lon="-1.2008739999999976">
        <ele>560.244</ele>
        <time>2022-06-18T15:05:17Z</time>
      </trkpt>
      <trkpt lat="42.57667400000012" lon="-1.2013049999999976">
        <ele>560.256</ele>
        <time>2022-06-18T15:05:24Z</time>
      </trkpt>
      <trkpt lat="42.57694100000012" lon="-1.2016109999999975">
        <ele>559.859</ele>
        <time>2022-06-18T15:05:30Z</time>
      </trkpt>
      <trkpt lat="42.57704200000012" lon="-1.2016669999999976">
        <ele>559.414</ele>
        <time>2022-06-18T15:05:32Z</time>
      </trkpt>
      <trkpt lat="42.57714200000012" lon="-1.2016889999999976">
        <ele>559.409</ele>
        <time>2022-06-18T15:05:34Z</time>
      </trkpt>
      <trkpt lat="42.57738500000012" lon="-1.2017039999999977">
        <ele>558.876</ele>
        <time>2022-06-18T15:05:39Z</time>
      </trkpt>
      <trkpt lat="42.57749200000012" lon="-1.2017409999999977">
        <ele>558.675</ele>
        <time>2022-06-18T15:05:41Z</time>
      </trkpt>
      <trkpt lat="42.57759600000012" lon="-1.2018409999999977">
        <ele>558.050</ele>
        <time>2022-06-18T15:05:43Z</time>
      </trkpt>
      <trkpt lat="42.57764300000012" lon="-1.2019129999999978">
        <ele>557.632</ele>
        <time>2022-06-18T15:05:44Z</time>
      </trkpt>
      <trkpt lat="42.57773300000012" lon="-1.2020729999999977">
        <ele>556.284</ele>
        <time>2022-06-18T15:05:46Z</time>
      </trkpt>
      <trkpt lat="42.577780000000125" lon="-1.2021519999999977">
        <ele>555.648</ele>
        <time>2022-06-18T15:05:47Z</time>
      </trkpt>
      <trkpt lat="42.57783000000013" lon="-1.2022239999999977">
        <ele>555.276</ele>
        <time>2022-06-18T15:05:48Z</time>
      </trkpt>
      <trkpt lat="42.57792500000013" lon="-1.2023399999999977">
        <ele>554.051</ele>
        <time>2022-06-18T15:05:50Z</time>
      </trkpt>
      <trkpt lat="42.577968000000126" lon="-1.2023839999999977">
        <ele>553.231</ele>
        <time>2022-06-18T15:05:51Z</time>
      </trkpt>
      <trkpt lat="42.57800700000013" lon="-1.2024199999999976">
        <ele>552.668</ele>
        <time>2022-06-18T15:05:52Z</time>
      </trkpt>
      <trkpt lat="42.57810000000013" lon="-1.2025109999999977">
        <ele>552.442</ele>
        <time>2022-06-18T15:05:55Z</time>
      </trkpt>
      <trkpt lat="42.578272000000126" lon="-1.2026959999999978">
        <ele>552.626</ele>
        <time>2022-06-18T15:06:01Z</time>
      </trkpt>
      <trkpt lat="42.57844600000013" lon="-1.2029599999999978">
        <ele>553.209</ele>
        <time>2022-06-18T15:06:06Z</time>
      </trkpt>
      <trkpt lat="42.57861200000013" lon="-1.2033789999999978">
        <ele>553.077</ele>
        <time>2022-06-18T15:06:12Z</time>
      </trkpt>
      <trkpt lat="42.57882500000013" lon="-1.2038019999999978">
        <ele>551.836</ele>
        <time>2022-06-18T15:06:19Z</time>
      </trkpt>
      <trkpt lat="42.57886500000013" lon="-1.2038719999999978">
        <ele>551.631</ele>
        <time>2022-06-18T15:06:20Z</time>
      </trkpt>
      <trkpt lat="42.57902200000013" lon="-1.2042469999999978">
        <ele>551.043</ele>
        <time>2022-06-18T15:06:25Z</time>
      </trkpt>
      <trkpt lat="42.57904700000013" lon="-1.2043179999999978">
        <ele>550.615</ele>
        <time>2022-06-18T15:06:26Z</time>
      </trkpt>
      <trkpt lat="42.57911200000013" lon="-1.2044529999999978">
        <ele>550.299</ele>
        <time>2022-06-18T15:06:28Z</time>
      </trkpt>
      <trkpt lat="42.57915000000013" lon="-1.2045179999999978">
        <ele>549.847</ele>
        <time>2022-06-18T15:06:29Z</time>
      </trkpt>
      <trkpt lat="42.57919300000013" lon="-1.2045819999999978">
        <ele>549.232</ele>
        <time>2022-06-18T15:06:30Z</time>
      </trkpt>
      <trkpt lat="42.57924100000013" lon="-1.2046449999999977">
        <ele>549.072</ele>
        <time>2022-06-18T15:06:31Z</time>
      </trkpt>
      <trkpt lat="42.57934700000013" lon="-1.2047589999999977">
        <ele>548.682</ele>
        <time>2022-06-18T15:06:33Z</time>
      </trkpt>
      <trkpt lat="42.57945500000013" lon="-1.2048969999999977">
        <ele>547.843</ele>
        <time>2022-06-18T15:06:35Z</time>
      </trkpt>
      <trkpt lat="42.57950100000013" lon="-1.2049849999999978">
        <ele>547.617</ele>
        <time>2022-06-18T15:06:36Z</time>
      </trkpt>
      <trkpt lat="42.579533000000126" lon="-1.2050849999999977">
        <ele>546.409</ele>
        <time>2022-06-18T15:06:37Z</time>
      </trkpt>
      <trkpt lat="42.579550000000125" lon="-1.2051969999999976">
        <ele>545.899</ele>
        <time>2022-06-18T15:06:38Z</time>
      </trkpt>
      <trkpt lat="42.579559000000124" lon="-1.2053069999999977">
        <ele>545.288</ele>
        <time>2022-06-18T15:06:39Z</time>
      </trkpt>
      <trkpt lat="42.579570000000125" lon="-1.2055099999999976">
        <ele>543.633</ele>
        <time>2022-06-18T15:06:41Z</time>
      </trkpt>
      <trkpt lat="42.579581000000125" lon="-1.2055949999999975">
        <ele>542.285</ele>
        <time>2022-06-18T15:06:42Z</time>
      </trkpt>
      <trkpt lat="42.579615000000125" lon="-1.2057859999999976">
        <ele>541.237</ele>
        <time>2022-06-18T15:06:45Z</time>
      </trkpt>
      <trkpt lat="42.579626000000125" lon="-1.2058389999999977">
        <ele>541.021</ele>
        <time>2022-06-18T15:06:46Z</time>
      </trkpt>
      <trkpt lat="42.57966700000013" lon="-1.2060029999999977">
        <ele>540.849</ele>
        <time>2022-06-18T15:06:50Z</time>
      </trkpt>
      <trkpt lat="42.57973500000013" lon="-1.2062329999999977">
        <ele>541.884</ele>
        <time>2022-06-18T15:06:55Z</time>
      </trkpt>
      <trkpt lat="42.57976800000013" lon="-1.2063299999999977">
        <ele>542.654</ele>
        <time>2022-06-18T15:06:57Z</time>
      </trkpt>
      <trkpt lat="42.57984200000013" lon="-1.2065969999999977">
        <ele>543.684</ele>
        <time>2022-06-18T15:07:02Z</time>
      </trkpt>
      <trkpt lat="42.57997700000013" lon="-1.2070009999999978">
        <ele>543.607</ele>
        <time>2022-06-18T15:07:11Z</time>
      </trkpt>
      <trkpt lat="42.58016000000013" lon="-1.2074159999999978">
        <ele>543.817</ele>
        <time>2022-06-18T15:07:20Z</time>
      </trkpt>
      <trkpt lat="42.58024700000013" lon="-1.2076129999999978">
        <ele>544.009</ele>
        <time>2022-06-18T15:07:25Z</time>
      </trkpt>
      <trkpt lat="42.58026300000013" lon="-1.2076559999999978">
        <ele>544.049</ele>
        <time>2022-06-18T15:07:26Z</time>
      </trkpt>
      <trkpt lat="42.58032100000013" lon="-1.2079689999999979">
        <ele>544.258</ele>
        <time>2022-06-18T15:07:32Z</time>
      </trkpt>
      <trkpt lat="42.580343000000134" lon="-1.208504999999998">
        <ele>544.253</ele>
        <time>2022-06-18T15:07:42Z</time>
      </trkpt>
      <trkpt lat="42.580329000000134" lon="-1.209048999999998">
        <ele>543.855</ele>
        <time>2022-06-18T15:07:52Z</time>
      </trkpt>
      <trkpt lat="42.580362000000136" lon="-1.209200999999998">
        <ele>543.847</ele>
        <time>2022-06-18T15:07:55Z</time>
      </trkpt>
      <trkpt lat="42.580393000000136" lon="-1.209235999999998">
        <ele>543.891</ele>
        <time>2022-06-18T15:07:56Z</time>
      </trkpt>
      <trkpt lat="42.580430000000135" lon="-1.209254999999998">
        <ele>543.849</ele>
        <time>2022-06-18T15:07:57Z</time>
      </trkpt>
      <trkpt lat="42.58051500000013" lon="-1.2092479999999979">
        <ele>543.814</ele>
        <time>2022-06-18T15:07:59Z</time>
      </trkpt>
      <trkpt lat="42.58064800000013" lon="-1.209200999999998">
        <ele>543.884</ele>
        <time>2022-06-18T15:08:02Z</time>
      </trkpt>
      <trkpt lat="42.580813000000134" lon="-1.209145999999998">
        <ele>543.829</ele>
        <time>2022-06-18T15:08:06Z</time>
      </trkpt>
      <trkpt lat="42.58089600000013" lon="-1.209123999999998">
        <ele>543.400</ele>
        <time>2022-06-18T15:08:08Z</time>
      </trkpt>
      <trkpt lat="42.58127200000013" lon="-1.208980999999998">
        <ele>542.620</ele>
        <time>2022-06-18T15:08:17Z</time>
      </trkpt>
      <trkpt lat="42.581407000000134" lon="-1.208910999999998">
        <ele>542.609</ele>
        <time>2022-06-18T15:08:21Z</time>
      </trkpt>
      <trkpt lat="42.58146500000014" lon="-1.2088589999999981">
        <ele>542.693</ele>
        <time>2022-06-18T15:08:23Z</time>
      </trkpt>
      <trkpt lat="42.58164700000014" lon="-1.2085939999999982">
        <ele>542.812</ele>
        <time>2022-06-18T15:08:30Z</time>
      </trkpt>
      <trkpt lat="42.581806000000135" lon="-1.2082299999999981">
        <ele>543.067</ele>
        <time>2022-06-18T15:08:37Z</time>
      </trkpt>
      <trkpt lat="42.58183500000013" lon="-1.2081789999999981">
        <ele>543.069</ele>
        <time>2022-06-18T15:08:38Z</time>
      </trkpt>
      <trkpt lat="42.581910000000136" lon="-1.2080809999999982">
        <ele>543.061</ele>
        <time>2022-06-18T15:08:40Z</time>
      </trkpt>
      <trkpt lat="42.58203900000014" lon="-1.207984999999998">
        <ele>543.275</ele>
        <time>2022-06-18T15:08:43Z</time>
      </trkpt>
      <trkpt lat="42.582313000000134" lon="-1.2077979999999982">
        <ele>543.013</ele>
        <time>2022-06-18T15:08:48Z</time>
      </trkpt>
      <trkpt lat="42.582608000000135" lon="-1.2075999999999982">
        <ele>542.258</ele>
        <time>2022-06-18T15:08:53Z</time>
      </trkpt>
      <trkpt lat="42.58267200000014" lon="-1.2075419999999983">
        <ele>541.228</ele>
        <time>2022-06-18T15:08:54Z</time>
      </trkpt>
      <trkpt lat="42.582723000000136" lon="-1.2074859999999983">
        <ele>540.446</ele>
        <time>2022-06-18T15:08:55Z</time>
      </trkpt>
      <trkpt lat="42.582769000000134" lon="-1.2074239999999983">
        <ele>539.288</ele>
        <time>2022-06-18T15:08:56Z</time>
      </trkpt>
      <trkpt lat="42.58284300000013" lon="-1.2073109999999982">
        <ele>538.016</ele>
        <time>2022-06-18T15:08:58Z</time>
      </trkpt>
      <trkpt lat="42.58291300000013" lon="-1.2071579999999982">
        <ele>537.209</ele>
        <time>2022-06-18T15:09:00Z</time>
      </trkpt>
      <trkpt lat="42.582937000000136" lon="-1.2071039999999982">
        <ele>536.875</ele>
        <time>2022-06-18T15:09:01Z</time>
      </trkpt>
      <trkpt lat="42.58307600000013" lon="-1.2068589999999981">
        <ele>536.294</ele>
        <time>2022-06-18T15:09:05Z</time>
      </trkpt>
      <trkpt lat="42.58314200000013" lon="-1.206781999999998">
        <ele>536.069</ele>
        <time>2022-06-18T15:09:07Z</time>
      </trkpt>
      <trkpt lat="42.58317700000013" lon="-1.206743999999998">
        <ele>536.061</ele>
        <time>2022-06-18T15:09:08Z</time>
      </trkpt>
      <trkpt lat="42.58324600000013" lon="-1.206679999999998">
        <ele>535.863</ele>
        <time>2022-06-18T15:09:10Z</time>
      </trkpt>
      <trkpt lat="42.58340600000013" lon="-1.206533999999998">
        <ele>536.067</ele>
        <time>2022-06-18T15:09:16Z</time>
      </trkpt>
      <trkpt lat="42.58357700000013" lon="-1.206423999999998">
        <ele>536.455</ele>
        <time>2022-06-18T15:09:23Z</time>
      </trkpt>
      <trkpt lat="42.58380600000013" lon="-1.206207999999998">
        <ele>536.690</ele>
        <time>2022-06-18T15:09:31Z</time>
      </trkpt>
      <trkpt lat="42.58396300000013" lon="-1.2059929999999979">
        <ele>536.620</ele>
        <time>2022-06-18T15:09:36Z</time>
      </trkpt>
      <trkpt lat="42.58399200000013" lon="-1.205943999999998">
        <ele>536.675</ele>
        <time>2022-06-18T15:09:37Z</time>
      </trkpt>
      <trkpt lat="42.58409700000013" lon="-1.2057449999999978">
        <ele>536.628</ele>
        <time>2022-06-18T15:09:41Z</time>
      </trkpt>
      <trkpt lat="42.58413300000013" lon="-1.2056319999999978">
        <ele>536.620</ele>
        <time>2022-06-18T15:09:43Z</time>
      </trkpt>
      <trkpt lat="42.58428800000013" lon="-1.2050959999999977">
        <ele>535.409</ele>
        <time>2022-06-18T15:09:51Z</time>
      </trkpt>
      <trkpt lat="42.58431600000013" lon="-1.2050289999999977">
        <ele>534.858</ele>
        <time>2022-06-18T15:09:52Z</time>
      </trkpt>
      <trkpt lat="42.58440700000013" lon="-1.2049039999999978">
        <ele>534.287</ele>
        <time>2022-06-18T15:09:54Z</time>
      </trkpt>
      <trkpt lat="42.58446000000013" lon="-1.2048549999999978">
        <ele>533.472</ele>
        <time>2022-06-18T15:09:55Z</time>
      </trkpt>
      <trkpt lat="42.584520000000126" lon="-1.2048189999999979">
        <ele>532.414</ele>
        <time>2022-06-18T15:09:56Z</time>
      </trkpt>
      <trkpt lat="42.58469300000012" lon="-1.2047469999999978">
        <ele>531.226</ele>
        <time>2022-06-18T15:09:59Z</time>
      </trkpt>
      <trkpt lat="42.584782000000125" lon="-1.2046919999999979">
        <ele>529.660</ele>
        <time>2022-06-18T15:10:01Z</time>
      </trkpt>
      <trkpt lat="42.584830000000125" lon="-1.204671999999998">
        <ele>529.048</ele>
        <time>2022-06-18T15:10:02Z</time>
      </trkpt>
      <trkpt lat="42.58487700000013" lon="-1.204663999999998">
        <ele>528.663</ele>
        <time>2022-06-18T15:10:03Z</time>
      </trkpt>
      <trkpt lat="42.584923000000124" lon="-1.204661999999998">
        <ele>528.453</ele>
        <time>2022-06-18T15:10:04Z</time>
      </trkpt>
      <trkpt lat="42.58508800000013" lon="-1.204704999999998">
        <ele>527.822</ele>
        <time>2022-06-18T15:10:08Z</time>
      </trkpt>
      <trkpt lat="42.585198000000126" lon="-1.204779999999998">
        <ele>527.462</ele>
        <time>2022-06-18T15:10:12Z</time>
      </trkpt>
      <trkpt lat="42.58523100000013" lon="-1.204798999999998">
        <ele>527.208</ele>
        <time>2022-06-18T15:10:13Z</time>
      </trkpt>
      <trkpt lat="42.585449000000125" lon="-1.204885999999998">
        <ele>526.409</ele>
        <time>2022-06-18T15:10:18Z</time>
      </trkpt>
      <trkpt lat="42.58549800000012" lon="-1.2049059999999978">
        <ele>526.273</ele>
        <time>2022-06-18T15:10:19Z</time>
      </trkpt>
      <trkpt lat="42.58571800000012" lon="-1.2049779999999979">
        <ele>525.062</ele>
        <time>2022-06-18T15:10:23Z</time>
      </trkpt>
      <trkpt lat="42.58583000000012" lon="-1.205000999999998">
        <ele>524.827</ele>
        <time>2022-06-18T15:10:25Z</time>
      </trkpt>
      <trkpt lat="42.58593800000012" lon="-1.205007999999998">
        <ele>524.099</ele>
        <time>2022-06-18T15:10:27Z</time>
      </trkpt>
      <trkpt lat="42.58599500000012" lon="-1.2050019999999981">
        <ele>523.421</ele>
        <time>2022-06-18T15:10:28Z</time>
      </trkpt>
      <trkpt lat="42.586173000000116" lon="-1.204969999999998">
        <ele>522.225</ele>
        <time>2022-06-18T15:10:31Z</time>
      </trkpt>
      <trkpt lat="42.586466000000115" lon="-1.2049399999999981">
        <ele>521.433</ele>
        <time>2022-06-18T15:10:36Z</time>
      </trkpt>
      <trkpt lat="42.58652300000011" lon="-1.204945999999998">
        <ele>521.228</ele>
        <time>2022-06-18T15:10:37Z</time>
      </trkpt>
      <trkpt lat="42.58682700000011" lon="-1.2050019999999981">
        <ele>520.098</ele>
        <time>2022-06-18T15:10:42Z</time>
      </trkpt>
      <trkpt lat="42.58707500000011" lon="-1.2050309999999982">
        <ele>518.827</ele>
        <time>2022-06-18T15:10:46Z</time>
      </trkpt>
      <trkpt lat="42.58724200000011" lon="-1.2050649999999983">
        <ele>518.068</ele>
        <time>2022-06-18T15:10:49Z</time>
      </trkpt>
      <trkpt lat="42.58729600000011" lon="-1.2050799999999984">
        <ele>517.614</ele>
        <time>2022-06-18T15:10:50Z</time>
      </trkpt>
      <trkpt lat="42.587525000000106" lon="-1.2051449999999984">
        <ele>516.609</ele>
        <time>2022-06-18T15:10:55Z</time>
      </trkpt>
      <trkpt lat="42.587804000000105" lon="-1.2052449999999983">
        <ele>515.623</ele>
        <time>2022-06-18T15:11:01Z</time>
      </trkpt>
      <trkpt lat="42.58793000000011" lon="-1.2053049999999983">
        <ele>515.272</ele>
        <time>2022-06-18T15:11:04Z</time>
      </trkpt>
      <trkpt lat="42.58816800000011" lon="-1.2053699999999983">
        <ele>514.667</ele>
        <time>2022-06-18T15:11:10Z</time>
      </trkpt>
      <trkpt lat="42.58833100000011" lon="-1.2054129999999983">
        <ele>514.439</ele>
        <time>2022-06-18T15:11:14Z</time>
      </trkpt>
      <trkpt lat="42.58852600000011" lon="-1.2054529999999983">
        <ele>513.661</ele>
        <time>2022-06-18T15:11:18Z</time>
      </trkpt>
      <trkpt lat="42.58863500000011" lon="-1.2054949999999984">
        <ele>513.465</ele>
        <time>2022-06-18T15:11:20Z</time>
      </trkpt>
      <trkpt lat="42.58873500000011" lon="-1.2055549999999984">
        <ele>513.423</ele>
        <time>2022-06-18T15:11:22Z</time>
      </trkpt>
      <trkpt lat="42.588819000000115" lon="-1.2056329999999984">
        <ele>513.048</ele>
        <time>2022-06-18T15:11:24Z</time>
      </trkpt>
      <trkpt lat="42.58891100000012" lon="-1.2057189999999984">
        <ele>512.628</ele>
        <time>2022-06-18T15:11:26Z</time>
      </trkpt>
      <trkpt lat="42.58896600000012" lon="-1.2057589999999985">
        <ele>512.458</ele>
        <time>2022-06-18T15:11:27Z</time>
      </trkpt>
      <trkpt lat="42.58900400000012" lon="-1.2057809999999984">
        <ele>512.452</ele>
        <time>2022-06-18T15:11:28Z</time>
      </trkpt>
      <trkpt lat="42.589054000000125" lon="-1.2057969999999985">
        <ele>512.417</ele>
        <time>2022-06-18T15:11:29Z</time>
      </trkpt>
      <trkpt lat="42.58911400000012" lon="-1.2058019999999985">
        <ele>512.209</ele>
        <time>2022-06-18T15:11:30Z</time>
      </trkpt>
      <trkpt lat="42.58920500000012" lon="-1.2058079999999984">
        <ele>512.236</ele>
        <time>2022-06-18T15:11:32Z</time>
      </trkpt>
      <trkpt lat="42.58929300000012" lon="-1.2058599999999984">
        <ele>512.245</ele>
        <time>2022-06-18T15:11:34Z</time>
      </trkpt>
      <trkpt lat="42.58935500000012" lon="-1.2059609999999983">
        <ele>511.830</ele>
        <time>2022-06-18T15:11:36Z</time>
      </trkpt>
      <trkpt lat="42.58937800000012" lon="-1.2060379999999984">
        <ele>511.692</ele>
        <time>2022-06-18T15:11:37Z</time>
      </trkpt>
      <trkpt lat="42.58939500000012" lon="-1.2060899999999983">
        <ele>511.474</ele>
        <time>2022-06-18T15:11:38Z</time>
      </trkpt>
      <trkpt lat="42.589418000000116" lon="-1.2061569999999984">
        <ele>511.428</ele>
        <time>2022-06-18T15:11:39Z</time>
      </trkpt>
      <trkpt lat="42.58949600000012" lon="-1.2062919999999984">
        <ele>511.226</ele>
        <time>2022-06-18T15:11:41Z</time>
      </trkpt>
      <trkpt lat="42.58953000000012" lon="-1.2063399999999984">
        <ele>511.231</ele>
        <time>2022-06-18T15:11:42Z</time>
      </trkpt>
      <trkpt lat="42.58974300000012" lon="-1.2066699999999984">
        <ele>510.021</ele>
        <time>2022-06-18T15:11:47Z</time>
      </trkpt>
      <trkpt lat="42.58982400000012" lon="-1.2068199999999984">
        <ele>509.644</ele>
        <time>2022-06-18T15:11:49Z</time>
      </trkpt>
      <trkpt lat="42.58990100000012" lon="-1.2069749999999984">
        <ele>509.005</ele>
        <time>2022-06-18T15:11:51Z</time>
      </trkpt>
      <trkpt lat="42.59010600000012" lon="-1.2073729999999983">
        <ele>508.015</ele>
        <time>2022-06-18T15:11:56Z</time>
      </trkpt>
      <trkpt lat="42.59019000000012" lon="-1.2075399999999983">
        <ele>507.409</ele>
        <time>2022-06-18T15:11:58Z</time>
      </trkpt>
      <trkpt lat="42.59027000000012" lon="-1.2077019999999983">
        <ele>506.885</ele>
        <time>2022-06-18T15:12:00Z</time>
      </trkpt>
      <trkpt lat="42.59034200000012" lon="-1.2078519999999984">
        <ele>505.464</ele>
        <time>2022-06-18T15:12:02Z</time>
      </trkpt>
      <trkpt lat="42.59045400000012" lon="-1.2080699999999984">
        <ele>504.229</ele>
        <time>2022-06-18T15:12:05Z</time>
      </trkpt>
      <trkpt lat="42.590650000000124" lon="-1.2084599999999983">
        <ele>502.841</ele>
        <time>2022-06-18T15:12:10Z</time>
      </trkpt>
      <trkpt lat="42.59076900000012" lon="-1.2087039999999982">
        <ele>502.463</ele>
        <time>2022-06-18T15:12:13Z</time>
      </trkpt>
      <trkpt lat="42.59084900000012" lon="-1.2088699999999983">
        <ele>501.887</ele>
        <time>2022-06-18T15:12:15Z</time>
      </trkpt>
      <trkpt lat="42.59108500000012" lon="-1.2093329999999984">
        <ele>500.475</ele>
        <time>2022-06-18T15:12:21Z</time>
      </trkpt>
      <trkpt lat="42.59112900000012" lon="-1.2094179999999983">
        <ele>500.260</ele>
        <time>2022-06-18T15:12:22Z</time>
      </trkpt>
      <trkpt lat="42.59115700000012" lon="-1.2094719999999983">
        <ele>500.010</ele>
        <time>2022-06-18T15:12:23Z</time>
      </trkpt>
      <trkpt lat="42.591260000000126" lon="-1.2096679999999984">
        <ele>499.226</ele>
        <time>2022-06-18T15:12:26Z</time>
      </trkpt>
      <trkpt lat="42.59134300000012" lon="-1.2098309999999983">
        <ele>499.047</ele>
        <time>2022-06-18T15:12:29Z</time>
      </trkpt>
      <trkpt lat="42.59142300000012" lon="-1.2099849999999983">
        <ele>498.411</ele>
        <time>2022-06-18T15:12:33Z</time>
      </trkpt>
      <trkpt lat="42.59143200000012" lon="-1.2100159999999982">
        <ele>498.209</ele>
        <time>2022-06-18T15:12:34Z</time>
      </trkpt>
      <trkpt lat="42.59148200000012" lon="-1.2101689999999983">
        <ele>497.633</ele>
        <time>2022-06-18T15:12:40Z</time>
      </trkpt>
      <trkpt lat="42.59157100000012" lon="-1.2103589999999982">
        <ele>497.672</ele>
        <time>2022-06-18T15:12:45Z</time>
      </trkpt>
      <trkpt lat="42.59162000000012" lon="-1.2105109999999981">
        <ele>497.457</ele>
        <time>2022-06-18T15:12:48Z</time>
      </trkpt>
      <trkpt lat="42.59164400000012" lon="-1.210562999999998">
        <ele>497.689</ele>
        <time>2022-06-18T15:12:49Z</time>
      </trkpt>
      <trkpt lat="42.59167800000012" lon="-1.210624999999998">
        <ele>497.471</ele>
        <time>2022-06-18T15:12:50Z</time>
      </trkpt>
      <trkpt lat="42.591857000000125" lon="-1.210965999999998">
        <ele>496.875</ele>
        <time>2022-06-18T15:12:56Z</time>
      </trkpt>
      <trkpt lat="42.59188600000012" lon="-1.211018999999998">
        <ele>496.613</ele>
        <time>2022-06-18T15:12:57Z</time>
      </trkpt>
      <trkpt lat="42.591911000000124" lon="-1.211059999999998">
        <ele>496.478</ele>
        <time>2022-06-18T15:12:58Z</time>
      </trkpt>
      <trkpt lat="42.59194600000012" lon="-1.211119999999998">
        <ele>496.428</ele>
        <time>2022-06-18T15:12:59Z</time>
      </trkpt>
      <trkpt lat="42.59201400000012" lon="-1.211269999999998">
        <ele>496.239</ele>
        <time>2022-06-18T15:13:02Z</time>
      </trkpt>
      <trkpt lat="42.59218500000012" lon="-1.211623999999998">
        <ele>496.201</ele>
        <time>2022-06-18T15:13:09Z</time>
      </trkpt>
      <trkpt lat="42.59240700000012" lon="-1.212149999999998">
        <ele>497.021</ele>
        <time>2022-06-18T15:13:19Z</time>
      </trkpt>
      <trkpt lat="42.59260700000012" lon="-1.212533999999998">
        <ele>497.409</ele>
        <time>2022-06-18T15:13:27Z</time>
      </trkpt>
      <trkpt lat="42.59275100000012" lon="-1.212698999999998">
        <ele>498.044</ele>
        <time>2022-06-18T15:13:33Z</time>
      </trkpt>
      <trkpt lat="42.59284800000012" lon="-1.212794999999998">
        <ele>499.283</ele>
        <time>2022-06-18T15:13:37Z</time>
      </trkpt>
      <trkpt lat="42.59292300000012" lon="-1.212849999999998">
        <ele>499.848</ele>
        <time>2022-06-18T15:13:40Z</time>
      </trkpt>
      <trkpt lat="42.59297000000012" lon="-1.212889999999998">
        <ele>500.210</ele>
        <time>2022-06-18T15:13:42Z</time>
      </trkpt>
      <trkpt lat="42.59309200000012" lon="-1.212995999999998">
        <ele>501.032</ele>
        <time>2022-06-18T15:13:47Z</time>
      </trkpt>
      <trkpt lat="42.59315500000012" lon="-1.213052999999998">
        <ele>501.456</ele>
        <time>2022-06-18T15:13:50Z</time>
      </trkpt>
      <trkpt lat="42.59325500000012" lon="-1.2131509999999979">
        <ele>502.274</ele>
        <time>2022-06-18T15:13:55Z</time>
      </trkpt>
      <trkpt lat="42.59330700000012" lon="-1.213211999999998">
        <ele>502.869</ele>
        <time>2022-06-18T15:13:58Z</time>
      </trkpt>
      <trkpt lat="42.593431000000116" lon="-1.2133479999999979">
        <ele>503.839</ele>
        <time>2022-06-18T15:14:05Z</time>
      </trkpt>
      <trkpt lat="42.59345300000012" lon="-1.213360999999998">
        <ele>504.238</ele>
        <time>2022-06-18T15:14:06Z</time>
      </trkpt>
      <trkpt lat="42.593575000000115" lon="-1.213427999999998">
        <ele>505.270</ele>
        <time>2022-06-18T15:14:12Z</time>
      </trkpt>
      <trkpt lat="42.593595000000114" lon="-1.213442999999998">
        <ele>505.417</ele>
        <time>2022-06-18T15:14:13Z</time>
      </trkpt>
      <trkpt lat="42.59366100000011" lon="-1.213591999999998">
        <ele>506.209</ele>
        <time>2022-06-18T15:14:19Z</time>
      </trkpt>
      <trkpt lat="42.59369200000011" lon="-1.213819999999998">
        <ele>507.454</ele>
        <time>2022-06-18T15:14:27Z</time>
      </trkpt>
      <trkpt lat="42.59370800000011" lon="-1.2140119999999979">
        <ele>508.433</ele>
        <time>2022-06-18T15:14:34Z</time>
      </trkpt>
      <trkpt lat="42.593699000000115" lon="-1.2140719999999978">
        <ele>508.638</ele>
        <time>2022-06-18T15:14:36Z</time>
      </trkpt>
      <trkpt lat="42.59366100000011" lon="-1.214205999999998">
        <ele>509.650</ele>
        <time>2022-06-18T15:14:41Z</time>
      </trkpt>
      <trkpt lat="42.593640000000114" lon="-1.2142739999999979">
        <ele>510.222</ele>
        <time>2022-06-18T15:14:44Z</time>
      </trkpt>
      <trkpt lat="42.593598000000114" lon="-1.2143209999999978">
        <ele>511.046</ele>
        <time>2022-06-18T15:14:47Z</time>
      </trkpt>
      <trkpt lat="42.593538000000116" lon="-1.2143879999999978">
        <ele>512.444</ele>
        <time>2022-06-18T15:14:51Z</time>
      </trkpt>
      <trkpt lat="42.593420000000116" lon="-1.2144989999999978">
        <ele>513.469</ele>
        <time>2022-06-18T15:14:58Z</time>
      </trkpt>
      <trkpt lat="42.59339900000012" lon="-1.2145159999999977">
        <ele>513.429</ele>
        <time>2022-06-18T15:14:59Z</time>
      </trkpt>
      <trkpt lat="42.59334700000012" lon="-1.2145889999999977">
        <ele>514.037</ele>
        <time>2022-06-18T15:15:03Z</time>
      </trkpt>
      <trkpt lat="42.593332000000125" lon="-1.2146329999999976">
        <ele>514.449</ele>
        <time>2022-06-18T15:15:05Z</time>
      </trkpt>
      <trkpt lat="42.59332500000013" lon="-1.2146769999999976">
        <ele>514.813</ele>
        <time>2022-06-18T15:15:07Z</time>
      </trkpt>
      <trkpt lat="42.593309000000126" lon="-1.2147959999999975">
        <ele>515.609</ele>
        <time>2022-06-18T15:15:12Z</time>
      </trkpt>
      <trkpt lat="42.59331100000013" lon="-1.2148229999999975">
        <ele>516.044</ele>
        <time>2022-06-18T15:15:13Z</time>
      </trkpt>
      <trkpt lat="42.59336200000013" lon="-1.2149669999999975">
        <ele>517.043</ele>
        <time>2022-06-18T15:15:19Z</time>
      </trkpt>
      <trkpt lat="42.593388000000125" lon="-1.2150149999999975">
        <ele>517.228</ele>
        <time>2022-06-18T15:15:21Z</time>
      </trkpt>
      <trkpt lat="42.593425000000124" lon="-1.2152039999999975">
        <ele>517.850</ele>
        <time>2022-06-18T15:15:28Z</time>
      </trkpt>
      <trkpt lat="42.593413000000126" lon="-1.2152519999999976">
        <ele>517.882</ele>
        <time>2022-06-18T15:15:30Z</time>
      </trkpt>
      <trkpt lat="42.593388000000125" lon="-1.2153249999999975">
        <ele>518.246</ele>
        <time>2022-06-18T15:15:33Z</time>
      </trkpt>
      <trkpt lat="42.59337900000013" lon="-1.2153479999999977">
        <ele>518.234</ele>
        <time>2022-06-18T15:15:34Z</time>
      </trkpt>
      <trkpt lat="42.59331100000013" lon="-1.2154689999999977">
        <ele>518.879</ele>
        <time>2022-06-18T15:15:40Z</time>
      </trkpt>
      <trkpt lat="42.593278000000126" lon="-1.2154739999999977">
        <ele>519.099</ele>
        <time>2022-06-18T15:15:42Z</time>
      </trkpt>
      <trkpt lat="42.593259000000124" lon="-1.2154459999999978">
        <ele>519.276</ele>
        <time>2022-06-18T15:15:44Z</time>
      </trkpt>
      <trkpt lat="42.59325200000013" lon="-1.2154249999999978">
        <ele>519.490</ele>
        <time>2022-06-18T15:15:45Z</time>
      </trkpt>
      <trkpt lat="42.59321000000013" lon="-1.2152159999999979">
        <ele>520.019</ele>
        <time>2022-06-18T15:15:52Z</time>
      </trkpt>
      <trkpt lat="42.59318400000013" lon="-1.2150509999999979">
        <ele>520.209</ele>
        <time>2022-06-18T15:15:58Z</time>
      </trkpt>
      <trkpt lat="42.59317000000013" lon="-1.214982999999998">
        <ele>520.258</ele>
        <time>2022-06-18T15:16:05Z</time>
      </trkpt>
      <trkpt lat="42.59319700000013" lon="-1.2149809999999979">
        <ele>523.257</ele>
        <time>2022-06-18T15:36:58Z</time>
      </trkpt>
      <trkpt lat="42.593241000000134" lon="-1.215063999999998">
        <ele>523.262</ele>
        <time>2022-06-18T15:37:00Z</time>
      </trkpt>
      <trkpt lat="42.59329200000013" lon="-1.215267999999998">
        <ele>523.484</ele>
        <time>2022-06-18T15:37:05Z</time>
      </trkpt>
      <trkpt lat="42.59328700000013" lon="-1.215497999999998">
        <ele>523.446</ele>
        <time>2022-06-18T15:37:12Z</time>
      </trkpt>
      <trkpt lat="42.59324000000013" lon="-1.215742999999998">
        <ele>523.470</ele>
        <time>2022-06-18T15:37:19Z</time>
      </trkpt>
      <trkpt lat="42.59321500000013" lon="-1.215907999999998">
        <ele>523.858</ele>
        <time>2022-06-18T15:37:25Z</time>
      </trkpt>
      <trkpt lat="42.59326500000013" lon="-1.216042999999998">
        <ele>523.853</ele>
        <time>2022-06-18T15:37:30Z</time>
      </trkpt>
      <trkpt lat="42.59334800000013" lon="-1.216296999999998">
        <ele>523.213</ele>
        <time>2022-06-18T15:37:40Z</time>
      </trkpt>
      <trkpt lat="42.593363000000124" lon="-1.216303999999998">
        <ele>523.234</ele>
        <time>2022-06-18T15:37:41Z</time>
      </trkpt>
      <trkpt lat="42.59339800000012" lon="-1.216292999999998">
        <ele>523.055</ele>
        <time>2022-06-18T15:37:43Z</time>
      </trkpt>
      <trkpt lat="42.59341300000012" lon="-1.216284999999998">
        <ele>522.810</ele>
        <time>2022-06-18T15:37:44Z</time>
      </trkpt>
      <trkpt lat="42.59346400000012" lon="-1.216255999999998">
        <ele>522.209</ele>
        <time>2022-06-18T15:37:48Z</time>
      </trkpt>
      <trkpt lat="42.593468000000115" lon="-1.2162519999999981">
        <ele>522.244</ele>
        <time>2022-06-18T15:37:49Z</time>
      </trkpt>
      <trkpt lat="42.593468000000115" lon="-1.2162519999999981">
        <ele>522.083</ele>
        <time>2022-06-18T15:37:50Z</time>
      </trkpt>
      <trkpt lat="42.59351400000011" lon="-1.2162569999999981">
        <ele>522.698</ele>
        <time>2022-06-18T15:39:24Z</time>
      </trkpt>
      <trkpt lat="42.59356300000011" lon="-1.216260999999998">
        <ele>522.680</ele>
        <time>2022-06-18T15:39:26Z</time>
      </trkpt>
      <trkpt lat="42.59370400000011" lon="-1.216300999999998">
        <ele>522.622</ele>
        <time>2022-06-18T15:39:31Z</time>
      </trkpt>
      <trkpt lat="42.59374400000011" lon="-1.216306999999998">
        <ele>521.636</ele>
        <time>2022-06-18T15:39:36Z</time>
      </trkpt>
      <trkpt lat="42.593708000000106" lon="-1.216414999999998">
        <ele>522.864</ele>
        <time>2022-06-18T15:51:43Z</time>
      </trkpt>
      <trkpt lat="42.593790000000105" lon="-1.216403999999998">
        <ele>522.879</ele>
        <time>2022-06-18T15:51:46Z</time>
      </trkpt>
      <trkpt lat="42.593818000000105" lon="-1.216407999999998">
        <ele>522.879</ele>
        <time>2022-06-18T15:51:47Z</time>
      </trkpt>
      <trkpt lat="42.59390400000011" lon="-1.216420999999998">
        <ele>522.636</ele>
        <time>2022-06-18T15:51:50Z</time>
      </trkpt>
      <trkpt lat="42.59396500000011" lon="-1.2163599999999979">
        <ele>522.617</ele>
        <time>2022-06-18T15:51:54Z</time>
      </trkpt>
      <trkpt lat="42.59400400000011" lon="-1.216307999999998">
        <ele>522.418</ele>
        <time>2022-06-18T15:51:57Z</time>
      </trkpt>
      <trkpt lat="42.594034000000114" lon="-1.2163089999999979">
        <ele>522.409</ele>
        <time>2022-06-18T15:51:59Z</time>
      </trkpt>
      <trkpt lat="42.59413300000011" lon="-1.216280999999998">
        <ele>522.474</ele>
        <time>2022-06-18T15:52:05Z</time>
      </trkpt>
      <trkpt lat="42.59426000000011" lon="-1.216158999999998">
        <ele>523.883</ele>
        <time>2022-06-18T15:52:14Z</time>
      </trkpt>
      <trkpt lat="42.59427500000011" lon="-1.216125999999998">
        <ele>524.068</ele>
        <time>2022-06-18T15:52:16Z</time>
      </trkpt>
      <trkpt lat="42.59426000000011" lon="-1.216101999999998">
        <ele>524.290</ele>
        <time>2022-06-18T15:52:18Z</time>
      </trkpt>
      <trkpt lat="42.59426100000011" lon="-1.216094999999998">
        <ele>524.292</ele>
        <time>2022-06-18T15:52:19Z</time>
      </trkpt>
      <trkpt lat="42.59425300000011" lon="-1.216059999999998">
        <ele>524.476</ele>
        <time>2022-06-18T15:52:21Z</time>
      </trkpt>
      <trkpt lat="42.59425200000011" lon="-1.216032999999998">
        <ele>524.454</ele>
        <time>2022-06-18T15:52:25Z</time>
      </trkpt>
      <trkpt lat="42.59425300000011" lon="-1.2160309999999979">
        <ele>524.439</ele>
        <time>2022-06-18T15:52:26Z</time>
      </trkpt>
      <trkpt lat="42.59425600000011" lon="-1.216026999999998">
        <ele>524.689</ele>
        <time>2022-06-18T15:52:27Z</time>
      </trkpt>
      <trkpt lat="42.594285000000106" lon="-1.216042999999998">
        <ele>524.638</ele>
        <time>2022-06-18T15:52:30Z</time>
      </trkpt>
      <trkpt lat="42.594288000000105" lon="-1.216057999999998">
        <ele>524.870</ele>
        <time>2022-06-18T15:52:31Z</time>
      </trkpt>
      <trkpt lat="42.59427600000011" lon="-1.216130999999998">
        <ele>524.817</ele>
        <time>2022-06-18T15:52:35Z</time>
      </trkpt>
      <trkpt lat="42.59419100000011" lon="-1.216220999999998">
        <ele>524.609</ele>
        <time>2022-06-18T15:52:42Z</time>
      </trkpt>
      <trkpt lat="42.59407500000011" lon="-1.216289999999998">
        <ele>524.454</ele>
        <time>2022-06-18T15:52:49Z</time>
      </trkpt>
      <trkpt lat="42.59398200000011" lon="-1.2162539999999982">
        <ele>524.253</ele>
        <time>2022-06-18T15:52:53Z</time>
      </trkpt>
      <trkpt lat="42.59392200000011" lon="-1.2161839999999982">
        <ele>523.098</ele>
        <time>2022-06-18T15:52:57Z</time>
      </trkpt>
      <trkpt lat="42.593893000000115" lon="-1.2161539999999982">
        <ele>522.830</ele>
        <time>2022-06-18T15:52:59Z</time>
      </trkpt>
      <trkpt lat="42.59380400000011" lon="-1.2160409999999982">
        <ele>522.282</ele>
        <time>2022-06-18T15:53:06Z</time>
      </trkpt>
      <trkpt lat="42.59369400000011" lon="-1.2159289999999983">
        <ele>522.626</ele>
        <time>2022-06-18T15:53:14Z</time>
      </trkpt>
      <trkpt lat="42.59361800000011" lon="-1.2158219999999982">
        <ele>523.084</ele>
        <time>2022-06-18T15:53:21Z</time>
      </trkpt>
      <trkpt lat="42.593564000000114" lon="-1.2156579999999981">
        <ele>523.419</ele>
        <time>2022-06-18T15:53:29Z</time>
      </trkpt>
      <trkpt lat="42.59363500000011" lon="-1.2155439999999982">
        <ele>524.049</ele>
        <time>2022-06-18T15:53:37Z</time>
      </trkpt>
      <trkpt lat="42.59368400000011" lon="-1.2155139999999982">
        <ele>524.496</ele>
        <time>2022-06-18T15:53:42Z</time>
      </trkpt>
      <trkpt lat="42.59370700000011" lon="-1.2154949999999982">
        <ele>524.831</ele>
        <time>2022-06-18T15:53:44Z</time>
      </trkpt>
      <trkpt lat="42.59377900000011" lon="-1.2154319999999983">
        <ele>525.424</ele>
        <time>2022-06-18T15:53:50Z</time>
      </trkpt>
      <trkpt lat="42.59378700000011" lon="-1.2154159999999983">
        <ele>525.409</ele>
        <time>2022-06-18T15:53:51Z</time>
      </trkpt>
      <trkpt lat="42.593755000000115" lon="-1.2153599999999982">
        <ele>525.410</ele>
        <time>2022-06-18T15:53:55Z</time>
      </trkpt>
      <trkpt lat="42.593643000000114" lon="-1.2153019999999983">
        <ele>524.889</ele>
        <time>2022-06-18T15:54:02Z</time>
      </trkpt>
      <trkpt lat="42.59359100000012" lon="-1.2153079999999983">
        <ele>524.684</ele>
        <time>2022-06-18T15:54:05Z</time>
      </trkpt>
      <trkpt lat="42.593564000000114" lon="-1.2153279999999982">
        <ele>524.676</ele>
        <time>2022-06-18T15:54:07Z</time>
      </trkpt>
      <trkpt lat="42.59353500000012" lon="-1.215331999999998">
        <ele>524.698</ele>
        <time>2022-06-18T15:54:09Z</time>
      </trkpt>
      <trkpt lat="42.59348900000012" lon="-1.215294999999998">
        <ele>524.622</ele>
        <time>2022-06-18T15:54:12Z</time>
      </trkpt>
      <trkpt lat="42.59344900000012" lon="-1.2152639999999981">
        <ele>524.670</ele>
        <time>2022-06-18T15:54:15Z</time>
      </trkpt>
      <trkpt lat="42.59342200000012" lon="-1.2152739999999982">
        <ele>524.635</ele>
        <time>2022-06-18T15:54:17Z</time>
      </trkpt>
      <trkpt lat="42.593372000000116" lon="-1.2154039999999982">
        <ele>525.085</ele>
        <time>2022-06-18T15:54:23Z</time>
      </trkpt>
      <trkpt lat="42.59330700000012" lon="-1.2155699999999983">
        <ele>525.625</ele>
        <time>2022-06-18T15:54:30Z</time>
      </trkpt>
      <trkpt lat="42.59325600000012" lon="-1.2157219999999982">
        <ele>526.026</ele>
        <time>2022-06-18T15:54:37Z</time>
      </trkpt>
      <trkpt lat="42.59325300000012" lon="-1.215741999999998">
        <ele>526.208</ele>
        <time>2022-06-18T15:54:41Z</time>
      </trkpt>
      <trkpt lat="42.59320100000012" lon="-1.215660999999998">
        <ele>527.409</ele>
        <time>2022-06-18T15:56:18Z</time>
      </trkpt>
      <trkpt lat="42.593200000000124" lon="-1.215585999999998">
        <ele>527.413</ele>
        <time>2022-06-18T15:56:21Z</time>
      </trkpt>
      <trkpt lat="42.593208000000125" lon="-1.215388999999998">
        <ele>527.072</ele>
        <time>2022-06-18T15:56:26Z</time>
      </trkpt>
      <trkpt lat="42.59317200000012" lon="-1.2151019999999981">
        <ele>526.627</ele>
        <time>2022-06-18T15:56:33Z</time>
      </trkpt>
      <trkpt lat="42.59310200000012" lon="-1.2149609999999982">
        <ele>526.269</ele>
        <time>2022-06-18T15:56:37Z</time>
      </trkpt>
      <trkpt lat="42.593079000000124" lon="-1.2149219999999983">
        <ele>526.291</ele>
        <time>2022-06-18T15:56:38Z</time>
      </trkpt>
      <trkpt lat="42.59288800000012" lon="-1.2146689999999982">
        <ele>526.055</ele>
        <time>2022-06-18T15:56:46Z</time>
      </trkpt>
      <trkpt lat="42.59255100000012" lon="-1.2142959999999983">
        <ele>526.233</ele>
        <time>2022-06-18T15:56:58Z</time>
      </trkpt>
      <trkpt lat="42.59235800000012" lon="-1.2140609999999983">
        <ele>526.068</ele>
        <time>2022-06-18T15:57:05Z</time>
      </trkpt>
      <trkpt lat="42.59221400000012" lon="-1.2138099999999983">
        <ele>526.058</ele>
        <time>2022-06-18T15:57:12Z</time>
      </trkpt>
      <trkpt lat="42.59208800000012" lon="-1.2134869999999982">
        <ele>525.833</ele>
        <time>2022-06-18T15:57:20Z</time>
      </trkpt>
      <trkpt lat="42.59206200000012" lon="-1.2134809999999983">
        <ele>525.823</ele>
        <time>2022-06-18T15:57:21Z</time>
      </trkpt>
      <trkpt lat="42.59201700000012" lon="-1.2134919999999982">
        <ele>526.015</ele>
        <time>2022-06-18T15:57:23Z</time>
      </trkpt>
      <trkpt lat="42.59200600000012" lon="-1.2135039999999981">
        <ele>525.809</ele>
        <time>2022-06-18T15:57:24Z</time>
      </trkpt>
      <trkpt lat="42.59191200000012" lon="-1.2135759999999982">
        <ele>526.454</ele>
        <time>2022-06-18T15:57:30Z</time>
      </trkpt>
      <trkpt lat="42.59187000000012" lon="-1.2135719999999983">
        <ele>527.083</ele>
        <time>2022-06-18T15:57:32Z</time>
      </trkpt>
      <trkpt lat="42.59183800000012" lon="-1.2135279999999984">
        <ele>527.458</ele>
        <time>2022-06-18T15:57:34Z</time>
      </trkpt>
      <trkpt lat="42.591807000000124" lon="-1.2133289999999983">
        <ele>527.430</ele>
        <time>2022-06-18T15:57:41Z</time>
      </trkpt>
      <trkpt lat="42.59180500000012" lon="-1.2133029999999982">
        <ele>527.612</ele>
        <time>2022-06-18T15:57:42Z</time>
      </trkpt>
      <trkpt lat="42.591798000000125" lon="-1.2132859999999983">
        <ele>527.636</ele>
        <time>2022-06-18T15:57:43Z</time>
      </trkpt>
      <trkpt lat="42.59178300000013" lon="-1.2132539999999983">
        <ele>527.864</ele>
        <time>2022-06-18T15:57:46Z</time>
      </trkpt>
      <trkpt lat="42.59178300000013" lon="-1.2132539999999983">
        <ele>528.089</ele>
        <time>2022-06-18T15:57:48Z</time>
      </trkpt>
      <trkpt lat="42.59181400000013" lon="-1.2133449999999983">
        <ele>529.069</ele>
        <time>2022-06-18T16:07:22Z</time>
      </trkpt>
      <trkpt lat="42.591815000000125" lon="-1.2133729999999983">
        <ele>529.032</ele>
        <time>2022-06-18T16:07:23Z</time>
      </trkpt>
      <trkpt lat="42.59183600000012" lon="-1.2135259999999983">
        <ele>529.092</ele>
        <time>2022-06-18T16:07:28Z</time>
      </trkpt>
      <trkpt lat="42.59183900000012" lon="-1.2135819999999984">
        <ele>529.011</ele>
        <time>2022-06-18T16:07:30Z</time>
      </trkpt>
      <trkpt lat="42.59186900000012" lon="-1.2136019999999983">
        <ele>529.209</ele>
        <time>2022-06-18T16:07:32Z</time>
      </trkpt>
      <trkpt lat="42.591961000000126" lon="-1.2135359999999984">
        <ele>529.254</ele>
        <time>2022-06-18T16:07:37Z</time>
      </trkpt>
      <trkpt lat="42.591978000000125" lon="-1.2135219999999984">
        <ele>529.093</ele>
        <time>2022-06-18T16:07:38Z</time>
      </trkpt>
      <trkpt lat="42.592003000000126" lon="-1.2135009999999984">
        <ele>529.288</ele>
        <time>2022-06-18T16:07:40Z</time>
      </trkpt>
      <trkpt lat="42.592006000000126" lon="-1.2134979999999984">
        <ele>529.240</ele>
        <time>2022-06-18T16:07:42Z</time>
      </trkpt>
      <trkpt lat="42.59202500000013" lon="-1.2134809999999985">
        <ele>529.082</ele>
        <time>2022-06-18T16:08:00Z</time>
      </trkpt>
      <trkpt lat="42.59203900000013" lon="-1.2134479999999985">
        <ele>529.066</ele>
        <time>2022-06-18T16:08:01Z</time>
      </trkpt>
      <trkpt lat="42.59205000000013" lon="-1.2134119999999986">
        <ele>529.054</ele>
        <time>2022-06-18T16:08:02Z</time>
      </trkpt>
      <trkpt lat="42.592051000000126" lon="-1.2133809999999987">
        <ele>529.039</ele>
        <time>2022-06-18T16:08:03Z</time>
      </trkpt>
      <trkpt lat="42.59202800000013" lon="-1.2133079999999987">
        <ele>529.029</ele>
        <time>2022-06-18T16:08:05Z</time>
      </trkpt>
      <trkpt lat="42.591961000000126" lon="-1.2130929999999986">
        <ele>528.062</ele>
        <time>2022-06-18T16:08:10Z</time>
      </trkpt>
      <trkpt lat="42.59187900000013" lon="-1.2129439999999987">
        <ele>527.483</ele>
        <time>2022-06-18T16:08:14Z</time>
      </trkpt>
      <trkpt lat="42.591730000000126" lon="-1.2128389999999987">
        <ele>527.211</ele>
        <time>2022-06-18T16:08:19Z</time>
      </trkpt>
      <trkpt lat="42.591536000000126" lon="-1.2128089999999987">
        <ele>527.409</ele>
        <time>2022-06-18T16:08:26Z</time>
      </trkpt>
      <trkpt lat="42.59151200000012" lon="-1.2128059999999987">
        <ele>527.687</ele>
        <time>2022-06-18T16:08:27Z</time>
      </trkpt>
      <trkpt lat="42.59140000000012" lon="-1.2128289999999988">
        <ele>528.846</ele>
        <time>2022-06-18T16:08:32Z</time>
      </trkpt>
      <trkpt lat="42.59136100000012" lon="-1.2128579999999989">
        <ele>529.461</ele>
        <time>2022-06-18T16:08:34Z</time>
      </trkpt>
      <trkpt lat="42.59126700000012" lon="-1.2129369999999988">
        <ele>530.633</ele>
        <time>2022-06-18T16:08:38Z</time>
      </trkpt>
      <trkpt lat="42.59124000000012" lon="-1.212959999999999">
        <ele>531.045</ele>
        <time>2022-06-18T16:08:39Z</time>
      </trkpt>
      <trkpt lat="42.59118900000012" lon="-1.213012999999999">
        <ele>531.849</ele>
        <time>2022-06-18T16:08:41Z</time>
      </trkpt>
      <trkpt lat="42.59110300000012" lon="-1.213155999999999">
        <ele>532.057</ele>
        <time>2022-06-18T16:08:45Z</time>
      </trkpt>
      <trkpt lat="42.591143000000116" lon="-1.213301999999999">
        <ele>532.272</ele>
        <time>2022-06-18T16:08:49Z</time>
      </trkpt>
      <trkpt lat="42.59120400000012" lon="-1.213434999999999">
        <ele>532.882</ele>
        <time>2022-06-18T16:08:53Z</time>
      </trkpt>
      <trkpt lat="42.59125900000012" lon="-1.213544999999999">
        <ele>533.248</ele>
        <time>2022-06-18T16:08:56Z</time>
      </trkpt>
      <trkpt lat="42.591334000000124" lon="-1.213737999999999">
        <ele>534.061</ele>
        <time>2022-06-18T16:09:01Z</time>
      </trkpt>
      <trkpt lat="42.59142300000013" lon="-1.213919999999999">
        <ele>534.217</ele>
        <time>2022-06-18T16:09:05Z</time>
      </trkpt>
      <trkpt lat="42.59162000000013" lon="-1.214246999999999">
        <ele>534.209</ele>
        <time>2022-06-18T16:09:11Z</time>
      </trkpt>
      <trkpt lat="42.59179900000013" lon="-1.214473999999999">
        <ele>533.675</ele>
        <time>2022-06-18T16:09:15Z</time>
      </trkpt>
      <trkpt lat="42.59192400000013" lon="-1.214604999999999">
        <ele>533.274</ele>
        <time>2022-06-18T16:09:18Z</time>
      </trkpt>
      <trkpt lat="42.592139000000124" lon="-1.214802999999999">
        <ele>533.219</ele>
        <time>2022-06-18T16:09:24Z</time>
      </trkpt>
      <trkpt lat="42.59234900000013" lon="-1.214985999999999">
        <ele>533.671</ele>
        <time>2022-06-18T16:09:31Z</time>
      </trkpt>
      <trkpt lat="42.59247200000013" lon="-1.215140999999999">
        <ele>535.083</ele>
        <time>2022-06-18T16:09:36Z</time>
      </trkpt>
      <trkpt lat="42.592524000000125" lon="-1.2152229999999988">
        <ele>535.447</ele>
        <time>2022-06-18T16:09:38Z</time>
      </trkpt>
      <trkpt lat="42.59264600000012" lon="-1.2154519999999989">
        <ele>536.065</ele>
        <time>2022-06-18T16:09:44Z</time>
      </trkpt>
      <trkpt lat="42.59269500000012" lon="-1.2155769999999988">
        <ele>536.480</ele>
        <time>2022-06-18T16:09:47Z</time>
      </trkpt>
      <trkpt lat="42.59276300000012" lon="-1.2159549999999988">
        <ele>537.020</ele>
        <time>2022-06-18T16:09:55Z</time>
      </trkpt>
      <trkpt lat="42.59276500000012" lon="-1.2160659999999988">
        <ele>537.456</ele>
        <time>2022-06-18T16:09:57Z</time>
      </trkpt>
      <trkpt lat="42.59274800000012" lon="-1.2163159999999988">
        <ele>537.459</ele>
        <time>2022-06-18T16:10:01Z</time>
      </trkpt>
      <trkpt lat="42.59273500000012" lon="-1.216384999999999">
        <ele>537.414</ele>
        <time>2022-06-18T16:10:02Z</time>
      </trkpt>
      <trkpt lat="42.59266200000012" lon="-1.216600999999999">
        <ele>537.409</ele>
        <time>2022-06-18T16:10:05Z</time>
      </trkpt>
      <trkpt lat="42.59262500000012" lon="-1.216766999999999">
        <ele>537.446</ele>
        <time>2022-06-18T16:10:07Z</time>
      </trkpt>
      <trkpt lat="42.59261800000012" lon="-1.216955999999999">
        <ele>537.065</ele>
        <time>2022-06-18T16:10:09Z</time>
      </trkpt>
      <trkpt lat="42.59262700000012" lon="-1.217136999999999">
        <ele>536.440</ele>
        <time>2022-06-18T16:10:11Z</time>
      </trkpt>
      <trkpt lat="42.59261400000012" lon="-1.217217999999999">
        <ele>536.052</ele>
        <time>2022-06-18T16:10:12Z</time>
      </trkpt>
      <trkpt lat="42.59254900000012" lon="-1.217281999999999">
        <ele>535.424</ele>
        <time>2022-06-18T16:10:13Z</time>
      </trkpt>
      <trkpt lat="42.59247800000012" lon="-1.217322999999999">
        <ele>534.678</ele>
        <time>2022-06-18T16:10:14Z</time>
      </trkpt>
      <trkpt lat="42.59241500000012" lon="-1.217331999999999">
        <ele>533.676</ele>
        <time>2022-06-18T16:10:15Z</time>
      </trkpt>
      <trkpt lat="42.59235700000012" lon="-1.217321999999999">
        <ele>533.261</ele>
        <time>2022-06-18T16:10:16Z</time>
      </trkpt>
      <trkpt lat="42.59229900000012" lon="-1.217321999999999">
        <ele>532.831</ele>
        <time>2022-06-18T16:10:17Z</time>
      </trkpt>
      <trkpt lat="42.59218000000012" lon="-1.217361999999999">
        <ele>532.646</ele>
        <time>2022-06-18T16:10:19Z</time>
      </trkpt>
      <trkpt lat="42.59213000000012" lon="-1.217404999999999">
        <ele>532.688</ele>
        <time>2022-06-18T16:10:20Z</time>
      </trkpt>
      <trkpt lat="42.592092000000115" lon="-1.217455999999999">
        <ele>532.616</ele>
        <time>2022-06-18T16:10:21Z</time>
      </trkpt>
      <trkpt lat="42.59201400000011" lon="-1.217609999999999">
        <ele>532.609</ele>
        <time>2022-06-18T16:10:24Z</time>
      </trkpt>
      <trkpt lat="42.59200100000011" lon="-1.217704999999999">
        <ele>532.665</ele>
        <time>2022-06-18T16:10:26Z</time>
      </trkpt>
      <trkpt lat="42.59200800000011" lon="-1.217792999999999">
        <ele>533.064</ele>
        <time>2022-06-18T16:10:28Z</time>
      </trkpt>
      <trkpt lat="42.59207700000011" lon="-1.217932999999999">
        <ele>534.089</ele>
        <time>2022-06-18T16:10:32Z</time>
      </trkpt>
      <trkpt lat="42.59210100000011" lon="-1.217957999999999">
        <ele>534.411</ele>
        <time>2022-06-18T16:10:33Z</time>
      </trkpt>
      <trkpt lat="42.59217800000011" lon="-1.218028999999999">
        <ele>535.663</ele>
        <time>2022-06-18T16:10:36Z</time>
      </trkpt>
      <trkpt lat="42.59223700000011" lon="-1.218057999999999">
        <ele>536.287</ele>
        <time>2022-06-18T16:10:38Z</time>
      </trkpt>
      <trkpt lat="42.59230400000011" lon="-1.218103999999999">
        <ele>536.875</ele>
        <time>2022-06-18T16:10:41Z</time>
      </trkpt>
      <trkpt lat="42.59236300000011" lon="-1.218139999999999">
        <ele>537.210</ele>
        <time>2022-06-18T16:10:43Z</time>
      </trkpt>
      <trkpt lat="42.59241200000011" lon="-1.218168999999999">
        <ele>537.890</ele>
        <time>2022-06-18T16:10:45Z</time>
      </trkpt>
      <trkpt lat="42.59250700000011" lon="-1.218219999999999">
        <ele>538.491</ele>
        <time>2022-06-18T16:10:49Z</time>
      </trkpt>
      <trkpt lat="42.59263400000011" lon="-1.218308999999999">
        <ele>538.881</ele>
        <time>2022-06-18T16:10:54Z</time>
      </trkpt>
      <trkpt lat="42.59272900000011" lon="-1.218376999999999">
        <ele>540.219</ele>
        <time>2022-06-18T16:10:58Z</time>
      </trkpt>
      <trkpt lat="42.59278500000011" lon="-1.218414999999999">
        <ele>540.609</ele>
        <time>2022-06-18T16:11:00Z</time>
      </trkpt>
      <trkpt lat="42.592849000000115" lon="-1.2184729999999988">
        <ele>541.470</ele>
        <time>2022-06-18T16:11:03Z</time>
      </trkpt>
      <trkpt lat="42.59292400000012" lon="-1.2185319999999988">
        <ele>541.819</ele>
        <time>2022-06-18T16:11:06Z</time>
      </trkpt>
      <trkpt lat="42.59301700000012" lon="-1.218611999999999">
        <ele>542.494</ele>
        <time>2022-06-18T16:11:10Z</time>
      </trkpt>
      <trkpt lat="42.593091000000115" lon="-1.218672999999999">
        <ele>543.036</ele>
        <time>2022-06-18T16:11:13Z</time>
      </trkpt>
      <trkpt lat="42.593172000000116" lon="-1.218768999999999">
        <ele>543.418</ele>
        <time>2022-06-18T16:11:17Z</time>
      </trkpt>
      <trkpt lat="42.593234000000116" lon="-1.218906999999999">
        <ele>543.622</ele>
        <time>2022-06-18T16:11:21Z</time>
      </trkpt>
      <trkpt lat="42.59328900000012" lon="-1.219117999999999">
        <ele>544.440</ele>
        <time>2022-06-18T16:11:27Z</time>
      </trkpt>
      <trkpt lat="42.593293000000116" lon="-1.219155999999999">
        <ele>544.665</ele>
        <time>2022-06-18T16:11:28Z</time>
      </trkpt>
      <trkpt lat="42.593296000000116" lon="-1.219363999999999">
        <ele>545.455</ele>
        <time>2022-06-18T16:11:34Z</time>
      </trkpt>
      <trkpt lat="42.593293000000116" lon="-1.219397999999999">
        <ele>545.648</ele>
        <time>2022-06-18T16:11:35Z</time>
      </trkpt>
      <trkpt lat="42.59325800000012" lon="-1.219613999999999">
        <ele>546.661</ele>
        <time>2022-06-18T16:11:41Z</time>
      </trkpt>
      <trkpt lat="42.59325000000012" lon="-1.219649999999999">
        <ele>546.617</ele>
        <time>2022-06-18T16:11:42Z</time>
      </trkpt>
      <trkpt lat="42.593119000000115" lon="-1.219984999999999">
        <ele>547.609</ele>
        <time>2022-06-18T16:11:52Z</time>
      </trkpt>
      <trkpt lat="42.59310300000011" lon="-1.220018999999999">
        <ele>547.665</ele>
        <time>2022-06-18T16:11:53Z</time>
      </trkpt>
      <trkpt lat="42.593004000000114" lon="-1.220200999999999">
        <ele>548.654</ele>
        <time>2022-06-18T16:11:59Z</time>
      </trkpt>
      <trkpt lat="42.59298600000012" lon="-1.220233999999999">
        <ele>548.839</ele>
        <time>2022-06-18T16:12:00Z</time>
      </trkpt>
      <trkpt lat="42.59284200000012" lon="-1.220481999999999">
        <ele>549.411</ele>
        <time>2022-06-18T16:12:08Z</time>
      </trkpt>
      <trkpt lat="42.59278600000012" lon="-1.220578999999999">
        <ele>549.873</ele>
        <time>2022-06-18T16:12:11Z</time>
      </trkpt>
      <trkpt lat="42.59267100000012" lon="-1.220762999999999">
        <ele>550.687</ele>
        <time>2022-06-18T16:12:17Z</time>
      </trkpt>
      <trkpt lat="42.592613000000114" lon="-1.220839999999999">
        <ele>551.015</ele>
        <time>2022-06-18T16:12:20Z</time>
      </trkpt>
      <trkpt lat="42.59253000000012" lon="-1.2209469999999991">
        <ele>552.040</ele>
        <time>2022-06-18T16:12:24Z</time>
      </trkpt>
      <trkpt lat="42.59248500000012" lon="-1.220992999999999">
        <ele>552.680</ele>
        <time>2022-06-18T16:12:26Z</time>
      </trkpt>
      <trkpt lat="42.592387000000116" lon="-1.2210699999999992">
        <ele>553.239</ele>
        <time>2022-06-18T16:12:30Z</time>
      </trkpt>
      <trkpt lat="42.59228400000011" lon="-1.2211309999999993">
        <ele>553.601</ele>
        <time>2022-06-18T16:12:34Z</time>
      </trkpt>
      <trkpt lat="42.592188000000114" lon="-1.2211739999999993">
        <ele>553.821</ele>
        <time>2022-06-18T16:12:38Z</time>
      </trkpt>
      <trkpt lat="42.59213800000011" lon="-1.2211729999999994">
        <ele>554.209</ele>
        <time>2022-06-18T16:12:40Z</time>
      </trkpt>
      <trkpt lat="42.59197600000011" lon="-1.2210839999999994">
        <ele>554.854</ele>
        <time>2022-06-18T16:12:47Z</time>
      </trkpt>
      <trkpt lat="42.59189600000011" lon="-1.2210049999999995">
        <ele>555.283</ele>
        <time>2022-06-18T16:12:51Z</time>
      </trkpt>
      <trkpt lat="42.59182000000011" lon="-1.2209169999999994">
        <ele>555.828</ele>
        <time>2022-06-18T16:12:55Z</time>
      </trkpt>
      <trkpt lat="42.591785000000115" lon="-1.2208649999999994">
        <ele>556.270</ele>
        <time>2022-06-18T16:12:57Z</time>
      </trkpt>
      <trkpt lat="42.59168500000011" lon="-1.2207049999999995">
        <ele>557.042</ele>
        <time>2022-06-18T16:13:03Z</time>
      </trkpt>
      <trkpt lat="42.59165800000011" lon="-1.2206479999999995">
        <ele>557.266</ele>
        <time>2022-06-18T16:13:05Z</time>
      </trkpt>
      <trkpt lat="42.59160200000011" lon="-1.2204549999999994">
        <ele>558.254</ele>
        <time>2022-06-18T16:13:12Z</time>
      </trkpt>
      <trkpt lat="42.59159100000011" lon="-1.2204239999999995">
        <ele>558.439</ele>
        <time>2022-06-18T16:13:13Z</time>
      </trkpt>
      <trkpt lat="42.59151100000011" lon="-1.2201449999999996">
        <ele>559.059</ele>
        <time>2022-06-18T16:13:21Z</time>
      </trkpt>
      <trkpt lat="42.59145500000011" lon="-1.2199569999999995">
        <ele>559.448</ele>
        <time>2022-06-18T16:13:26Z</time>
      </trkpt>
      <trkpt lat="42.59138700000011" lon="-1.2197809999999996">
        <ele>559.661</ele>
        <time>2022-06-18T16:13:31Z</time>
      </trkpt>
      <trkpt lat="42.59123300000011" lon="-1.2195249999999995">
        <ele>560.617</ele>
        <time>2022-06-18T16:13:40Z</time>
      </trkpt>
      <trkpt lat="42.59121200000011" lon="-1.2194989999999994">
        <ele>560.809</ele>
        <time>2022-06-18T16:13:41Z</time>
      </trkpt>
      <trkpt lat="42.59109700000011" lon="-1.2193459999999994">
        <ele>561.835</ele>
        <time>2022-06-18T16:13:47Z</time>
      </trkpt>
      <trkpt lat="42.59099800000011" lon="-1.2192169999999993">
        <ele>562.484</ele>
        <time>2022-06-18T16:13:52Z</time>
      </trkpt>
      <trkpt lat="42.59094300000011" lon="-1.2191309999999993">
        <ele>562.859</ele>
        <time>2022-06-18T16:13:55Z</time>
      </trkpt>
      <trkpt lat="42.59080500000011" lon="-1.2189549999999993">
        <ele>563.881</ele>
        <time>2022-06-18T16:14:02Z</time>
      </trkpt>
      <trkpt lat="42.59068700000011" lon="-1.2188019999999993">
        <ele>564.813</ele>
        <time>2022-06-18T16:14:08Z</time>
      </trkpt>
      <trkpt lat="42.59064400000011" lon="-1.2187539999999992">
        <ele>565.247</ele>
        <time>2022-06-18T16:14:10Z</time>
      </trkpt>
      <trkpt lat="42.59052500000011" lon="-1.2186679999999992">
        <ele>566.025</ele>
        <time>2022-06-18T16:14:15Z</time>
      </trkpt>
      <trkpt lat="42.59049700000011" lon="-1.2186579999999991">
        <ele>566.260</ele>
        <time>2022-06-18T16:14:16Z</time>
      </trkpt>
      <trkpt lat="42.590412000000114" lon="-1.2186539999999992">
        <ele>567.040</ele>
        <time>2022-06-18T16:14:19Z</time>
      </trkpt>
      <trkpt lat="42.59032800000011" lon="-1.2186589999999993">
        <ele>567.253</ele>
        <time>2022-06-18T16:14:22Z</time>
      </trkpt>
      <trkpt lat="42.59010000000011" lon="-1.2186739999999994">
        <ele>567.604</ele>
        <time>2022-06-18T16:14:30Z</time>
      </trkpt>
      <trkpt lat="42.58983000000011" lon="-1.2187029999999994">
        <ele>568.014</ele>
        <time>2022-06-18T16:14:38Z</time>
      </trkpt>
      <trkpt lat="42.589793000000114" lon="-1.2187099999999995">
        <ele>568.609</ele>
        <time>2022-06-18T16:14:39Z</time>
      </trkpt>
      <trkpt lat="42.589686000000114" lon="-1.2187599999999996">
        <ele>569.826</ele>
        <time>2022-06-18T16:14:42Z</time>
      </trkpt>
      <trkpt lat="42.58960800000011" lon="-1.2188159999999997">
        <ele>570.055</ele>
        <time>2022-06-18T16:14:44Z</time>
      </trkpt>
      <trkpt lat="42.58944000000011" lon="-1.2190439999999996">
        <ele>570.640</ele>
        <time>2022-06-18T16:14:50Z</time>
      </trkpt>
      <trkpt lat="42.58942300000011" lon="-1.2190889999999996">
        <ele>570.872</ele>
        <time>2022-06-18T16:14:51Z</time>
      </trkpt>
      <trkpt lat="42.58936000000011" lon="-1.2193719999999997">
        <ele>571.864</ele>
        <time>2022-06-18T16:14:57Z</time>
      </trkpt>
      <trkpt lat="42.589353000000116" lon="-1.2194169999999998">
        <ele>572.078</ele>
        <time>2022-06-18T16:14:58Z</time>
      </trkpt>
      <trkpt lat="42.58933500000012" lon="-1.2195909999999996">
        <ele>572.286</ele>
        <time>2022-06-18T16:15:02Z</time>
      </trkpt>
      <trkpt lat="42.58930000000012" lon="-1.2198439999999997">
        <ele>573.041</ele>
        <time>2022-06-18T16:15:08Z</time>
      </trkpt>
      <trkpt lat="42.589265000000125" lon="-1.2200129999999998">
        <ele>574.261</ele>
        <time>2022-06-18T16:15:12Z</time>
      </trkpt>
      <trkpt lat="42.589228000000126" lon="-1.2201139999999997">
        <ele>575.061</ele>
        <time>2022-06-18T16:15:15Z</time>
      </trkpt>
      <trkpt lat="42.589133000000125" lon="-1.2202689999999996">
        <ele>575.421</ele>
        <time>2022-06-18T16:15:20Z</time>
      </trkpt>
      <trkpt lat="42.58908600000012" lon="-1.2203189999999997">
        <ele>575.613</ele>
        <time>2022-06-18T16:15:22Z</time>
      </trkpt>
      <trkpt lat="42.58888400000012" lon="-1.2204629999999996">
        <ele>576.609</ele>
        <time>2022-06-18T16:15:30Z</time>
      </trkpt>
      <trkpt lat="42.58868400000012" lon="-1.2204979999999996">
        <ele>577.487</ele>
        <time>2022-06-18T16:15:37Z</time>
      </trkpt>
      <trkpt lat="42.58865600000012" lon="-1.2204989999999996">
        <ele>577.826</ele>
        <time>2022-06-18T16:15:38Z</time>
      </trkpt>
      <trkpt lat="42.58850200000012" lon="-1.2204679999999997">
        <ele>578.871</ele>
        <time>2022-06-18T16:15:44Z</time>
      </trkpt>
      <trkpt lat="42.588475000000116" lon="-1.2204609999999996">
        <ele>578.883</ele>
        <time>2022-06-18T16:15:45Z</time>
      </trkpt>
      <trkpt lat="42.588349000000115" lon="-1.2203449999999996">
        <ele>579.285</ele>
        <time>2022-06-18T16:15:51Z</time>
      </trkpt>
      <trkpt lat="42.58822100000012" lon="-1.2202289999999996">
        <ele>579.889</ele>
        <time>2022-06-18T16:15:57Z</time>
      </trkpt>
      <trkpt lat="42.58813700000012" lon="-1.2201519999999995">
        <ele>581.017</ele>
        <time>2022-06-18T16:16:01Z</time>
      </trkpt>
      <trkpt lat="42.58807400000012" lon="-1.2200949999999995">
        <ele>582.012</ele>
        <time>2022-06-18T16:16:04Z</time>
      </trkpt>
      <trkpt lat="42.58796600000012" lon="-1.2199929999999994">
        <ele>582.632</ele>
        <time>2022-06-18T16:16:09Z</time>
      </trkpt>
      <trkpt lat="42.58785700000012" lon="-1.2199139999999995">
        <ele>583.258</ele>
        <time>2022-06-18T16:16:14Z</time>
      </trkpt>
      <trkpt lat="42.58776100000012" lon="-1.2199009999999995">
        <ele>583.852</ele>
        <time>2022-06-18T16:16:18Z</time>
      </trkpt>
      <trkpt lat="42.58764100000012" lon="-1.2199409999999995">
        <ele>584.217</ele>
        <time>2022-06-18T16:16:23Z</time>
      </trkpt>
      <trkpt lat="42.58759800000012" lon="-1.2199709999999995">
        <ele>585.209</ele>
        <time>2022-06-18T16:16:25Z</time>
      </trkpt>
      <trkpt lat="42.58757000000012" lon="-1.2199909999999994">
        <ele>585.656</ele>
        <time>2022-06-18T16:16:26Z</time>
      </trkpt>
      <trkpt lat="42.58748600000012" lon="-1.2200699999999993">
        <ele>586.835</ele>
        <time>2022-06-18T16:16:30Z</time>
      </trkpt>
      <trkpt lat="42.587417000000116" lon="-1.2201309999999994">
        <ele>587.470</ele>
        <time>2022-06-18T16:16:33Z</time>
      </trkpt>
      <trkpt lat="42.58737300000011" lon="-1.2201719999999994">
        <ele>588.062</ele>
        <time>2022-06-18T16:16:35Z</time>
      </trkpt>
      <trkpt lat="42.58727800000011" lon="-1.2202559999999993">
        <ele>588.824</ele>
        <time>2022-06-18T16:16:39Z</time>
      </trkpt>
      <trkpt lat="42.587232000000114" lon="-1.2202979999999994">
        <ele>589.098</ele>
        <time>2022-06-18T16:16:41Z</time>
      </trkpt>
      <trkpt lat="42.58707800000011" lon="-1.2204449999999993">
        <ele>589.636</ele>
        <time>2022-06-18T16:16:48Z</time>
      </trkpt>
      <trkpt lat="42.58700300000011" lon="-1.2205059999999994">
        <ele>590.251</ele>
        <time>2022-06-18T16:16:51Z</time>
      </trkpt>
      <trkpt lat="42.58686000000011" lon="-1.2206579999999994">
        <ele>591.081</ele>
        <time>2022-06-18T16:16:57Z</time>
      </trkpt>
      <trkpt lat="42.58683800000011" lon="-1.2206849999999994">
        <ele>591.255</ele>
        <time>2022-06-18T16:16:58Z</time>
      </trkpt>
      <trkpt lat="42.586752000000104" lon="-1.2208029999999994">
        <ele>592.207</ele>
        <time>2022-06-18T16:17:03Z</time>
      </trkpt>
      <trkpt lat="42.586735000000104" lon="-1.2208289999999995">
        <ele>592.417</ele>
        <time>2022-06-18T16:17:04Z</time>
      </trkpt>
      <trkpt lat="42.5866290000001" lon="-1.2209969999999994">
        <ele>593.009</ele>
        <time>2022-06-18T16:17:10Z</time>
      </trkpt>
      <trkpt lat="42.586555000000104" lon="-1.2211559999999995">
        <ele>593.676</ele>
        <time>2022-06-18T16:17:15Z</time>
      </trkpt>
      <trkpt lat="42.5865170000001" lon="-1.2212229999999995">
        <ele>593.865</ele>
        <time>2022-06-18T16:17:17Z</time>
      </trkpt>
      <trkpt lat="42.5864260000001" lon="-1.2214049999999994">
        <ele>594.690</ele>
        <time>2022-06-18T16:17:23Z</time>
      </trkpt>
      <trkpt lat="42.586386000000104" lon="-1.2214879999999995">
        <ele>595.462</ele>
        <time>2022-06-18T16:17:26Z</time>
      </trkpt>
      <trkpt lat="42.586369000000104" lon="-1.2215279999999995">
        <ele>595.834</ele>
        <time>2022-06-18T16:17:27Z</time>
      </trkpt>
      <trkpt lat="42.58626400000011" lon="-1.2217959999999994">
        <ele>596.878</ele>
        <time>2022-06-18T16:17:35Z</time>
      </trkpt>
      <trkpt lat="42.586253000000106" lon="-1.2218279999999995">
        <ele>597.086</ele>
        <time>2022-06-18T16:17:36Z</time>
      </trkpt>
      <trkpt lat="42.586158000000104" lon="-1.2220469999999994">
        <ele>598.071</ele>
        <time>2022-06-18T16:17:43Z</time>
      </trkpt>
      <trkpt lat="42.586132000000106" lon="-1.2221079999999995">
        <ele>598.411</ele>
        <time>2022-06-18T16:17:45Z</time>
      </trkpt>
      <trkpt lat="42.5860910000001" lon="-1.2222039999999996">
        <ele>599.098</ele>
        <time>2022-06-18T16:17:48Z</time>
      </trkpt>
      <trkpt lat="42.586059000000105" lon="-1.2222739999999996">
        <ele>599.215</ele>
        <time>2022-06-18T16:17:50Z</time>
      </trkpt>
      <trkpt lat="42.58598800000011" lon="-1.2224369999999996">
        <ele>599.826</ele>
        <time>2022-06-18T16:17:55Z</time>
      </trkpt>
      <trkpt lat="42.58595900000011" lon="-1.2225049999999995">
        <ele>600.009</ele>
        <time>2022-06-18T16:17:57Z</time>
      </trkpt>
      <trkpt lat="42.58590000000011" lon="-1.2226749999999995">
        <ele>601.050</ele>
        <time>2022-06-18T16:18:02Z</time>
      </trkpt>
      <trkpt lat="42.58586800000011" lon="-1.2227819999999996">
        <ele>601.669</ele>
        <time>2022-06-18T16:18:05Z</time>
      </trkpt>
      <trkpt lat="42.58583800000011" lon="-1.2228869999999996">
        <ele>602.074</ele>
        <time>2022-06-18T16:18:08Z</time>
      </trkpt>
      <trkpt lat="42.58580800000011" lon="-1.2230379999999996">
        <ele>603.256</ele>
        <time>2022-06-18T16:18:12Z</time>
      </trkpt>
      <trkpt lat="42.58580200000011" lon="-1.2230729999999996">
        <ele>603.458</ele>
        <time>2022-06-18T16:18:13Z</time>
      </trkpt>
      <trkpt lat="42.585769000000106" lon="-1.2233279999999995">
        <ele>604.052</ele>
        <time>2022-06-18T16:18:20Z</time>
      </trkpt>
      <trkpt lat="42.5857590000001" lon="-1.2234109999999996">
        <ele>604.260</ele>
        <time>2022-06-18T16:18:22Z</time>
      </trkpt>
      <trkpt lat="42.585750000000104" lon="-1.2235959999999997">
        <ele>605.085</ele>
        <time>2022-06-18T16:18:27Z</time>
      </trkpt>
      <trkpt lat="42.58574600000011" lon="-1.2236649999999998">
        <ele>605.245</ele>
        <time>2022-06-18T16:18:29Z</time>
      </trkpt>
      <trkpt lat="42.585735000000106" lon="-1.2238439999999997">
        <ele>605.882</ele>
        <time>2022-06-18T16:18:34Z</time>
      </trkpt>
      <trkpt lat="42.58572600000011" lon="-1.2240279999999997">
        <ele>606.443</ele>
        <time>2022-06-18T16:18:39Z</time>
      </trkpt>
      <trkpt lat="42.58572000000011" lon="-1.2241479999999996">
        <ele>606.617</ele>
        <time>2022-06-18T16:18:42Z</time>
      </trkpt>
      <trkpt lat="42.58573100000011" lon="-1.2242409999999995">
        <ele>607.409</ele>
        <time>2022-06-18T16:18:45Z</time>
      </trkpt>
      <trkpt lat="42.58574300000011" lon="-1.2243449999999996">
        <ele>608.279</ele>
        <time>2022-06-18T16:18:48Z</time>
      </trkpt>
      <trkpt lat="42.58574800000011" lon="-1.2243799999999996">
        <ele>608.668</ele>
        <time>2022-06-18T16:18:49Z</time>
      </trkpt>
      <trkpt lat="42.58579500000011" lon="-1.2247079999999997">
        <ele>609.853</ele>
        <time>2022-06-18T16:18:58Z</time>
      </trkpt>
      <trkpt lat="42.58579500000011" lon="-1.2250459999999996">
        <ele>610.665</ele>
        <time>2022-06-18T16:19:08Z</time>
      </trkpt>
      <trkpt lat="42.58578600000011" lon="-1.2250779999999997">
        <ele>610.857</ele>
        <time>2022-06-18T16:19:09Z</time>
      </trkpt>
      <trkpt lat="42.585732000000114" lon="-1.2252229999999997">
        <ele>611.891</ele>
        <time>2022-06-18T16:19:14Z</time>
      </trkpt>
      <trkpt lat="42.58571100000012" lon="-1.2252519999999998">
        <ele>612.279</ele>
        <time>2022-06-18T16:19:15Z</time>
      </trkpt>
      <trkpt lat="42.58560600000012" lon="-1.2254129999999999">
        <ele>613.234</ele>
        <time>2022-06-18T16:19:21Z</time>
      </trkpt>
      <trkpt lat="42.58559000000012" lon="-1.2254399999999999">
        <ele>613.274</ele>
        <time>2022-06-18T16:19:22Z</time>
      </trkpt>
      <trkpt lat="42.58547900000012" lon="-1.225585">
        <ele>614.025</ele>
        <time>2022-06-18T16:19:28Z</time>
      </trkpt>
      <trkpt lat="42.58544300000012" lon="-1.225635">
        <ele>614.226</ele>
        <time>2022-06-18T16:19:30Z</time>
      </trkpt>
      <trkpt lat="42.585419000000115" lon="-1.225659">
        <ele>614.408</ele>
        <time>2022-06-18T16:19:31Z</time>
      </trkpt>
      <trkpt lat="42.58534200000012" lon="-1.2257550000000001">
        <ele>614.809</ele>
        <time>2022-06-18T16:19:35Z</time>
      </trkpt>
      <trkpt lat="42.58524100000012" lon="-1.2258620000000002">
        <ele>615.423</ele>
        <time>2022-06-18T16:19:40Z</time>
      </trkpt>
      <trkpt lat="42.585129000000116" lon="-1.2259510000000002">
        <ele>616.222</ele>
        <time>2022-06-18T16:19:45Z</time>
      </trkpt>
      <trkpt lat="42.58511100000012" lon="-1.2259600000000002">
        <ele>616.427</ele>
        <time>2022-06-18T16:19:46Z</time>
      </trkpt>
      <trkpt lat="42.58495700000012" lon="-1.2260130000000002">
        <ele>617.219</ele>
        <time>2022-06-18T16:19:52Z</time>
      </trkpt>
      <trkpt lat="42.58490800000012" lon="-1.2260250000000001">
        <ele>617.641</ele>
        <time>2022-06-18T16:19:54Z</time>
      </trkpt>
      <trkpt lat="42.58476400000012" lon="-1.2260620000000002">
        <ele>618.255</ele>
        <time>2022-06-18T16:20:00Z</time>
      </trkpt>
      <trkpt lat="42.58461300000012" lon="-1.2260920000000002">
        <ele>618.693</ele>
        <time>2022-06-18T16:20:06Z</time>
      </trkpt>
      <trkpt lat="42.584580000000116" lon="-1.2260950000000002">
        <ele>618.858</ele>
        <time>2022-06-18T16:20:07Z</time>
      </trkpt>
      <trkpt lat="42.584406000000115" lon="-1.22615">
        <ele>619.888</ele>
        <time>2022-06-18T16:20:14Z</time>
      </trkpt>
      <trkpt lat="42.584209000000115" lon="-1.226282">
        <ele>620.626</ele>
        <time>2022-06-18T16:20:22Z</time>
      </trkpt>
      <trkpt lat="42.58416600000012" lon="-1.2263380000000002">
        <ele>620.847</ele>
        <time>2022-06-18T16:20:24Z</time>
      </trkpt>
      <trkpt lat="42.58410400000012" lon="-1.22645">
        <ele>620.811</ele>
        <time>2022-06-18T16:20:27Z</time>
      </trkpt>
      <trkpt lat="42.58402500000012" lon="-1.226672">
        <ele>621.009</ele>
        <time>2022-06-18T16:20:32Z</time>
      </trkpt>
      <trkpt lat="42.58399100000012" lon="-1.226779">
        <ele>621.053</ele>
        <time>2022-06-18T16:20:34Z</time>
      </trkpt>
      <trkpt lat="42.58393200000012" lon="-1.227019">
        <ele>621.072</ele>
        <time>2022-06-18T16:20:38Z</time>
      </trkpt>
      <trkpt lat="42.58381300000012" lon="-1.2274260000000001">
        <ele>620.477</ele>
        <time>2022-06-18T16:20:44Z</time>
      </trkpt>
      <trkpt lat="42.58367200000012" lon="-1.227967">
        <ele>620.039</ele>
        <time>2022-06-18T16:20:51Z</time>
      </trkpt>
      <trkpt lat="42.58361100000012" lon="-1.228216">
        <ele>619.431</ele>
        <time>2022-06-18T16:20:54Z</time>
      </trkpt>
      <trkpt lat="42.58356100000012" lon="-1.2284249999999999">
        <ele>618.465</ele>
        <time>2022-06-18T16:20:56Z</time>
      </trkpt>
      <trkpt lat="42.58353500000012" lon="-1.228524">
        <ele>618.083</ele>
        <time>2022-06-18T16:20:57Z</time>
      </trkpt>
      <trkpt lat="42.58343000000012" lon="-1.228977">
        <ele>617.468</ele>
        <time>2022-06-18T16:21:01Z</time>
      </trkpt>
      <trkpt lat="42.58339700000012" lon="-1.229105">
        <ele>617.088</ele>
        <time>2022-06-18T16:21:02Z</time>
      </trkpt>
      <trkpt lat="42.58322000000012" lon="-1.229738">
        <ele>616.489</ele>
        <time>2022-06-18T16:21:07Z</time>
      </trkpt>
      <trkpt lat="42.583156000000116" lon="-1.229825">
        <ele>616.206</ele>
        <time>2022-06-18T16:21:08Z</time>
      </trkpt>
      <trkpt lat="42.583094000000116" lon="-1.229878">
        <ele>615.826</ele>
        <time>2022-06-18T16:21:09Z</time>
      </trkpt>
      <trkpt lat="42.583010000000115" lon="-1.22991">
        <ele>614.809</ele>
        <time>2022-06-18T16:21:10Z</time>
      </trkpt>
      <trkpt lat="42.582898000000114" lon="-1.229916">
        <ele>613.429</ele>
        <time>2022-06-18T16:21:11Z</time>
      </trkpt>
      <trkpt lat="42.582821000000116" lon="-1.229843">
        <ele>612.288</ele>
        <time>2022-06-18T16:21:12Z</time>
      </trkpt>
      <trkpt lat="42.58276400000012" lon="-1.229775">
        <ele>611.273</ele>
        <time>2022-06-18T16:21:13Z</time>
      </trkpt>
      <trkpt lat="42.58248400000012" lon="-1.229411">
        <ele>609.885</ele>
        <time>2022-06-18T16:21:17Z</time>
      </trkpt>
      <trkpt lat="42.582424000000124" lon="-1.229311">
        <ele>609.477</ele>
        <time>2022-06-18T16:21:18Z</time>
      </trkpt>
      <trkpt lat="42.58231000000012" lon="-1.229098">
        <ele>608.081</ele>
        <time>2022-06-18T16:21:20Z</time>
      </trkpt>
      <trkpt lat="42.58220700000012" lon="-1.228886">
        <ele>606.419</ele>
        <time>2022-06-18T16:21:22Z</time>
      </trkpt>
      <trkpt lat="42.58209400000012" lon="-1.2286929999999998">
        <ele>605.284</ele>
        <time>2022-06-18T16:21:24Z</time>
      </trkpt>
      <trkpt lat="42.58202100000012" lon="-1.2286199999999998">
        <ele>604.844</ele>
        <time>2022-06-18T16:21:25Z</time>
      </trkpt>
      <trkpt lat="42.58193400000012" lon="-1.2285819999999998">
        <ele>603.838</ele>
        <time>2022-06-18T16:21:26Z</time>
      </trkpt>
      <trkpt lat="42.581853000000116" lon="-1.228584">
        <ele>602.670</ele>
        <time>2022-06-18T16:21:27Z</time>
      </trkpt>
      <trkpt lat="42.58177900000012" lon="-1.2286009999999998">
        <ele>601.617</ele>
        <time>2022-06-18T16:21:28Z</time>
      </trkpt>
      <trkpt lat="42.58163300000012" lon="-1.2286569999999999">
        <ele>599.609</ele>
        <time>2022-06-18T16:21:30Z</time>
      </trkpt>
      <trkpt lat="42.58154500000012" lon="-1.2287039999999998">
        <ele>598.624</ele>
        <time>2022-06-18T16:21:31Z</time>
      </trkpt>
      <trkpt lat="42.58141300000012" lon="-1.2288069999999998">
        <ele>597.483</ele>
        <time>2022-06-18T16:21:33Z</time>
      </trkpt>
      <trkpt lat="42.58117700000012" lon="-1.2290229999999998">
        <ele>597.058</ele>
        <time>2022-06-18T16:21:36Z</time>
      </trkpt>
      <trkpt lat="42.58108400000012" lon="-1.2291089999999998">
        <ele>596.880</ele>
        <time>2022-06-18T16:21:37Z</time>
      </trkpt>
      <trkpt lat="42.58100000000012" lon="-1.2291719999999997">
        <ele>596.882</ele>
        <time>2022-06-18T16:21:38Z</time>
      </trkpt>
      <trkpt lat="42.580838000000114" lon="-1.2292469999999998">
        <ele>596.686</ele>
        <time>2022-06-18T16:21:40Z</time>
      </trkpt>
      <trkpt lat="42.58072100000011" lon="-1.2292649999999998">
        <ele>596.254</ele>
        <time>2022-06-18T16:21:41Z</time>
      </trkpt>
      <trkpt lat="42.58052100000011" lon="-1.2292649999999998">
        <ele>595.229</ele>
        <time>2022-06-18T16:21:43Z</time>
      </trkpt>
      <trkpt lat="42.580030000000114" lon="-1.229264">
        <ele>594.079</ele>
        <time>2022-06-18T16:21:48Z</time>
      </trkpt>
      <trkpt lat="42.579830000000115" lon="-1.229261">
        <ele>592.298</ele>
        <time>2022-06-18T16:21:50Z</time>
      </trkpt>
      <trkpt lat="42.57971000000011" lon="-1.22926">
        <ele>590.615</ele>
        <time>2022-06-18T16:21:51Z</time>
      </trkpt>
      <trkpt lat="42.57960400000011" lon="-1.229259">
        <ele>589.626</ele>
        <time>2022-06-18T16:21:52Z</time>
      </trkpt>
      <trkpt lat="42.57941700000011" lon="-1.2292550000000002">
        <ele>587.609</ele>
        <time>2022-06-18T16:21:54Z</time>
      </trkpt>
      <trkpt lat="42.57919800000011" lon="-1.2292500000000002">
        <ele>586.010</ele>
        <time>2022-06-18T16:21:56Z</time>
      </trkpt>
      <trkpt lat="42.57902600000011" lon="-1.2292480000000001">
        <ele>584.879</ele>
        <time>2022-06-18T16:21:58Z</time>
      </trkpt>
      <trkpt lat="42.57872000000011" lon="-1.2292420000000002">
        <ele>584.024</ele>
        <time>2022-06-18T16:22:01Z</time>
      </trkpt>
      <trkpt lat="42.578533000000114" lon="-1.229235">
        <ele>582.836</ele>
        <time>2022-06-18T16:22:03Z</time>
      </trkpt>
      <trkpt lat="42.578459000000116" lon="-1.2292340000000002">
        <ele>581.468</ele>
        <time>2022-06-18T16:22:04Z</time>
      </trkpt>
      <trkpt lat="42.57825200000011" lon="-1.229238">
        <ele>580.282</ele>
        <time>2022-06-18T16:22:06Z</time>
      </trkpt>
      <trkpt lat="42.57808300000011" lon="-1.229232">
        <ele>578.820</ele>
        <time>2022-06-18T16:22:08Z</time>
      </trkpt>
      <trkpt lat="42.57798800000011" lon="-1.2292310000000002">
        <ele>578.215</ele>
        <time>2022-06-18T16:22:09Z</time>
      </trkpt>
      <trkpt lat="42.57787800000011" lon="-1.2292300000000003">
        <ele>577.855</ele>
        <time>2022-06-18T16:22:10Z</time>
      </trkpt>
      <trkpt lat="42.57740900000011" lon="-1.2292960000000002">
        <ele>576.649</ele>
        <time>2022-06-18T16:22:15Z</time>
      </trkpt>
      <trkpt lat="42.57705900000011" lon="-1.2294630000000002">
        <ele>575.202</ele>
        <time>2022-06-18T16:22:19Z</time>
      </trkpt>
      <trkpt lat="42.576971000000114" lon="-1.2295260000000001">
        <ele>574.622</ele>
        <time>2022-06-18T16:22:20Z</time>
      </trkpt>
      <trkpt lat="42.576804000000116" lon="-1.2296660000000001">
        <ele>573.809</ele>
        <time>2022-06-18T16:22:22Z</time>
      </trkpt>
      <trkpt lat="42.57672400000012" lon="-1.2297430000000003">
        <ele>573.225</ele>
        <time>2022-06-18T16:22:23Z</time>
      </trkpt>
      <trkpt lat="42.57657400000012" lon="-1.2299200000000003">
        <ele>572.644</ele>
        <time>2022-06-18T16:22:25Z</time>
      </trkpt>
      <trkpt lat="42.57631500000012" lon="-1.2303590000000004">
        <ele>571.859</ele>
        <time>2022-06-18T16:22:29Z</time>
      </trkpt>
      <trkpt lat="42.57626500000012" lon="-1.2304780000000004">
        <ele>571.831</ele>
        <time>2022-06-18T16:22:30Z</time>
      </trkpt>
      <trkpt lat="42.57621600000012" lon="-1.2306000000000004">
        <ele>571.453</ele>
        <time>2022-06-18T16:22:31Z</time>
      </trkpt>
      <trkpt lat="42.57608500000012" lon="-1.2309460000000003">
        <ele>569.827</ele>
        <time>2022-06-18T16:22:34Z</time>
      </trkpt>
      <trkpt lat="42.57598200000012" lon="-1.2312290000000004">
        <ele>568.255</ele>
        <time>2022-06-18T16:22:36Z</time>
      </trkpt>
      <trkpt lat="42.575831000000115" lon="-1.2316180000000003">
        <ele>567.220</ele>
        <time>2022-06-18T16:22:39Z</time>
      </trkpt>
      <trkpt lat="42.575645000000115" lon="-1.2321310000000003">
        <ele>565.860</ele>
        <time>2022-06-18T16:22:43Z</time>
      </trkpt>
      <trkpt lat="42.57558400000011" lon="-1.2322960000000003">
        <ele>565.653</ele>
        <time>2022-06-18T16:22:44Z</time>
      </trkpt>
      <trkpt lat="42.57549100000011" lon="-1.2325520000000003">
        <ele>564.404</ele>
        <time>2022-06-18T16:22:46Z</time>
      </trkpt>
      <trkpt lat="42.575389000000115" lon="-1.2328360000000003">
        <ele>562.614</ele>
        <time>2022-06-18T16:22:48Z</time>
      </trkpt>
      <trkpt lat="42.575285000000115" lon="-1.2331200000000002">
        <ele>561.409</ele>
        <time>2022-06-18T16:22:50Z</time>
      </trkpt>
      <trkpt lat="42.57523200000011" lon="-1.2332580000000002">
        <ele>560.866</ele>
        <time>2022-06-18T16:22:51Z</time>
      </trkpt>
      <trkpt lat="42.57517900000011" lon="-1.2333960000000002">
        <ele>560.235</ele>
        <time>2022-06-18T16:22:52Z</time>
      </trkpt>
      <trkpt lat="42.57507300000011" lon="-1.2336740000000002">
        <ele>558.840</ele>
        <time>2022-06-18T16:22:54Z</time>
      </trkpt>
      <trkpt lat="42.57497000000011" lon="-1.2339460000000002">
        <ele>557.482</ele>
        <time>2022-06-18T16:22:56Z</time>
      </trkpt>
      <trkpt lat="42.574822000000104" lon="-1.2343530000000003">
        <ele>556.024</ele>
        <time>2022-06-18T16:22:59Z</time>
      </trkpt>
      <trkpt lat="42.57473100000011" lon="-1.2346240000000002">
        <ele>555.078</ele>
        <time>2022-06-18T16:23:01Z</time>
      </trkpt>
      <trkpt lat="42.574642000000104" lon="-1.2348930000000002">
        <ele>553.426</ele>
        <time>2022-06-18T16:23:03Z</time>
      </trkpt>
      <trkpt lat="42.5745100000001" lon="-1.2353010000000002">
        <ele>552.281</ele>
        <time>2022-06-18T16:23:06Z</time>
      </trkpt>
      <trkpt lat="42.5744290000001" lon="-1.2355760000000002">
        <ele>551.081</ele>
        <time>2022-06-18T16:23:08Z</time>
      </trkpt>
      <trkpt lat="42.5743170000001" lon="-1.2359820000000001">
        <ele>549.619</ele>
        <time>2022-06-18T16:23:11Z</time>
      </trkpt>
      <trkpt lat="42.5741670000001" lon="-1.2365050000000002">
        <ele>548.609</ele>
        <time>2022-06-18T16:23:15Z</time>
      </trkpt>
      <trkpt lat="42.574093000000104" lon="-1.2367630000000003">
        <ele>547.219</ele>
        <time>2022-06-18T16:23:17Z</time>
      </trkpt>
      <trkpt lat="42.5740150000001" lon="-1.2370170000000003">
        <ele>546.009</ele>
        <time>2022-06-18T16:23:19Z</time>
      </trkpt>
      <trkpt lat="42.5738660000001" lon="-1.2375120000000002">
        <ele>545.052</ele>
        <time>2022-06-18T16:23:23Z</time>
      </trkpt>
      <trkpt lat="42.5738250000001" lon="-1.2376350000000003">
        <ele>544.841</ele>
        <time>2022-06-18T16:23:24Z</time>
      </trkpt>
      <trkpt lat="42.5736240000001" lon="-1.2382480000000002">
        <ele>543.696</ele>
        <time>2022-06-18T16:23:29Z</time>
      </trkpt>
      <trkpt lat="42.5734950000001" lon="-1.2386260000000002">
        <ele>543.058</ele>
        <time>2022-06-18T16:23:32Z</time>
      </trkpt>
      <trkpt lat="42.5734060000001" lon="-1.2388800000000002">
        <ele>542.450</ele>
        <time>2022-06-18T16:23:34Z</time>
      </trkpt>
      <trkpt lat="42.5732000000001" lon="-1.2394730000000003">
        <ele>541.494</ele>
        <time>2022-06-18T16:23:39Z</time>
      </trkpt>
      <trkpt lat="42.5731570000001" lon="-1.2395850000000002">
        <ele>541.052</ele>
        <time>2022-06-18T16:23:40Z</time>
      </trkpt>
      <trkpt lat="42.5730410000001" lon="-1.239934">
        <ele>539.847</ele>
        <time>2022-06-18T16:23:43Z</time>
      </trkpt>
      <trkpt lat="42.572958000000106" lon="-1.2401730000000002">
        <ele>538.837</ele>
        <time>2022-06-18T16:23:45Z</time>
      </trkpt>
      <trkpt lat="42.57287500000011" lon="-1.2404150000000003">
        <ele>537.032</ele>
        <time>2022-06-18T16:23:47Z</time>
      </trkpt>
      <trkpt lat="42.57279100000011" lon="-1.2406560000000002">
        <ele>535.892</ele>
        <time>2022-06-18T16:23:49Z</time>
      </trkpt>
      <trkpt lat="42.57270300000011" lon="-1.2408940000000002">
        <ele>534.211</ele>
        <time>2022-06-18T16:23:51Z</time>
      </trkpt>
      <trkpt lat="42.57261600000011" lon="-1.2411340000000002">
        <ele>533.209</ele>
        <time>2022-06-18T16:23:53Z</time>
      </trkpt>
      <trkpt lat="42.57241900000011" lon="-1.2417140000000002">
        <ele>531.834</ele>
        <time>2022-06-18T16:23:58Z</time>
      </trkpt>
      <trkpt lat="42.57223400000011" lon="-1.242255">
        <ele>531.423</ele>
        <time>2022-06-18T16:24:03Z</time>
      </trkpt>
      <trkpt lat="42.572024000000106" lon="-1.2428720000000002">
        <ele>531.028</ele>
        <time>2022-06-18T16:24:09Z</time>
      </trkpt>
      <trkpt lat="42.57195800000011" lon="-1.2430680000000003">
        <ele>530.810</ele>
        <time>2022-06-18T16:24:11Z</time>
      </trkpt>
      <trkpt lat="42.57179000000011" lon="-1.2435540000000003">
        <ele>531.072</ele>
        <time>2022-06-18T16:24:16Z</time>
      </trkpt>
      <trkpt lat="42.571534000000106" lon="-1.2442940000000002">
        <ele>530.686</ele>
        <time>2022-06-18T16:24:24Z</time>
      </trkpt>
      <trkpt lat="42.571467000000105" lon="-1.2444770000000003">
        <ele>530.654</ele>
        <time>2022-06-18T16:24:26Z</time>
      </trkpt>
      <trkpt lat="42.571217000000104" lon="-1.2452150000000002">
        <ele>530.469</ele>
        <time>2022-06-18T16:24:34Z</time>
      </trkpt>
      <trkpt lat="42.5711640000001" lon="-1.2453760000000003">
        <ele>530.249</ele>
        <time>2022-06-18T16:24:36Z</time>
      </trkpt>
      <trkpt lat="42.571065000000104" lon="-1.2458790000000002">
        <ele>530.033</ele>
        <time>2022-06-18T16:24:41Z</time>
      </trkpt>
      <trkpt lat="42.571053000000106" lon="-1.2459580000000001">
        <ele>529.823</ele>
        <time>2022-06-18T16:24:42Z</time>
      </trkpt>
      <trkpt lat="42.5709950000001" lon="-1.246596">
        <ele>529.015</ele>
        <time>2022-06-18T16:24:48Z</time>
      </trkpt>
      <trkpt lat="42.5709220000001" lon="-1.2472750000000001">
        <ele>528.809</ele>
        <time>2022-06-18T16:24:54Z</time>
      </trkpt>
      <trkpt lat="42.5708910000001" lon="-1.2476250000000002">
        <ele>528.254</ele>
        <time>2022-06-18T16:24:57Z</time>
      </trkpt>
      <trkpt lat="42.5708380000001" lon="-1.2480890000000002">
        <ele>527.863</ele>
        <time>2022-06-18T16:25:01Z</time>
      </trkpt>
      <trkpt lat="42.5708140000001" lon="-1.2483550000000003">
        <ele>526.838</ele>
        <time>2022-06-18T16:25:03Z</time>
      </trkpt>
      <trkpt lat="42.5707910000001" lon="-1.2485780000000004">
        <ele>525.830</ele>
        <time>2022-06-18T16:25:05Z</time>
      </trkpt>
      <trkpt lat="42.5707790000001" lon="-1.2486990000000004">
        <ele>525.652</ele>
        <time>2022-06-18T16:25:06Z</time>
      </trkpt>
      <trkpt lat="42.570702000000104" lon="-1.2494270000000005">
        <ele>524.236</ele>
        <time>2022-06-18T16:25:12Z</time>
      </trkpt>
      <trkpt lat="42.5706490000001" lon="-1.2499140000000004">
        <ele>523.424</ele>
        <time>2022-06-18T16:25:16Z</time>
      </trkpt>
      <trkpt lat="42.5706380000001" lon="-1.2500090000000004">
        <ele>523.059</ele>
        <time>2022-06-18T16:25:17Z</time>
      </trkpt>
      <trkpt lat="42.5705850000001" lon="-1.2505800000000005">
        <ele>521.869</ele>
        <time>2022-06-18T16:25:22Z</time>
      </trkpt>
      <trkpt lat="42.5705580000001" lon="-1.2508140000000005">
        <ele>521.819</ele>
        <time>2022-06-18T16:25:24Z</time>
      </trkpt>
      <trkpt lat="42.5704760000001" lon="-1.2516450000000006">
        <ele>521.409</ele>
        <time>2022-06-18T16:25:31Z</time>
      </trkpt>
      <trkpt lat="42.570449000000096" lon="-1.2518840000000007">
        <ele>521.419</ele>
        <time>2022-06-18T16:25:33Z</time>
      </trkpt>
      <trkpt lat="42.5703610000001" lon="-1.2526100000000007">
        <ele>520.809</ele>
        <time>2022-06-18T16:25:39Z</time>
      </trkpt>
      <trkpt lat="42.5702990000001" lon="-1.2532160000000008">
        <ele>519.652</ele>
        <time>2022-06-18T16:25:44Z</time>
      </trkpt>
      <trkpt lat="42.570286000000095" lon="-1.2533380000000007">
        <ele>519.681</ele>
        <time>2022-06-18T16:25:45Z</time>
      </trkpt>
      <trkpt lat="42.5701980000001" lon="-1.2541050000000007">
        <ele>518.426</ele>
        <time>2022-06-18T16:25:51Z</time>
      </trkpt>
      <trkpt lat="42.5701420000001" lon="-1.2545900000000008">
        <ele>517.268</ele>
        <time>2022-06-18T16:25:55Z</time>
      </trkpt>
      <trkpt lat="42.570098000000094" lon="-1.2550040000000007">
        <ele>515.890</ele>
        <time>2022-06-18T16:25:58Z</time>
      </trkpt>
      <trkpt lat="42.57007600000009" lon="-1.2552300000000007">
        <ele>514.874</ele>
        <time>2022-06-18T16:26:00Z</time>
      </trkpt>
      <trkpt lat="42.57003500000009" lon="-1.2556300000000007">
        <ele>513.442</ele>
        <time>2022-06-18T16:26:03Z</time>
      </trkpt>
      <trkpt lat="42.57001500000009" lon="-1.2558500000000008">
        <ele>512.617</ele>
        <time>2022-06-18T16:26:05Z</time>
      </trkpt>
      <trkpt lat="42.57000100000009" lon="-1.2559700000000007">
        <ele>512.247</ele>
        <time>2022-06-18T16:26:06Z</time>
      </trkpt>
      <trkpt lat="42.56996100000009" lon="-1.2565500000000007">
        <ele>511.858</ele>
        <time>2022-06-18T16:26:11Z</time>
      </trkpt>
      <trkpt lat="42.56998700000009" lon="-1.2572170000000007">
        <ele>511.452</ele>
        <time>2022-06-18T16:26:17Z</time>
      </trkpt>
      <trkpt lat="42.57007200000009" lon="-1.2579240000000007">
        <ele>512.017</ele>
        <time>2022-06-18T16:26:24Z</time>
      </trkpt>
      <trkpt lat="42.57015800000009" lon="-1.2586120000000007">
        <ele>512.409</ele>
        <time>2022-06-18T16:26:31Z</time>
      </trkpt>
      <trkpt lat="42.57025700000009" lon="-1.2593550000000007">
        <ele>512.286</ele>
        <time>2022-06-18T16:26:38Z</time>
      </trkpt>
      <trkpt lat="42.57029000000009" lon="-1.2595410000000007">
        <ele>512.025</ele>
        <time>2022-06-18T16:26:40Z</time>
      </trkpt>
      <trkpt lat="42.570430000000094" lon="-1.2600370000000007">
        <ele>511.460</ele>
        <time>2022-06-18T16:26:45Z</time>
      </trkpt>
      <trkpt lat="42.57053500000009" lon="-1.2603180000000007">
        <ele>510.862</ele>
        <time>2022-06-18T16:26:48Z</time>
      </trkpt>
      <trkpt lat="42.57066000000009" lon="-1.2606130000000006">
        <ele>510.224</ele>
        <time>2022-06-18T16:26:51Z</time>
      </trkpt>
      <trkpt lat="42.57084800000009" lon="-1.2610750000000006">
        <ele>510.038</ele>
        <time>2022-06-18T16:26:56Z</time>
      </trkpt>
      <trkpt lat="42.57114100000009" lon="-1.2617930000000006">
        <ele>510.076</ele>
        <time>2022-06-18T16:27:04Z</time>
      </trkpt>
      <trkpt lat="42.57125100000009" lon="-1.2620670000000007">
        <ele>510.261</ele>
        <time>2022-06-18T16:27:07Z</time>
      </trkpt>
      <trkpt lat="42.57152200000009" lon="-1.2627120000000007">
        <ele>510.071</ele>
        <time>2022-06-18T16:27:14Z</time>
      </trkpt>
      <trkpt lat="42.57167400000009" lon="-1.2630940000000008">
        <ele>509.845</ele>
        <time>2022-06-18T16:27:18Z</time>
      </trkpt>
      <trkpt lat="42.57182800000009" lon="-1.2634810000000007">
        <ele>509.447</ele>
        <time>2022-06-18T16:27:22Z</time>
      </trkpt>
      <trkpt lat="42.57195500000009" lon="-1.2638560000000008">
        <ele>508.811</ele>
        <time>2022-06-18T16:27:26Z</time>
      </trkpt>
      <trkpt lat="42.57211700000009" lon="-1.2646160000000009">
        <ele>508.409</ele>
        <time>2022-06-18T16:27:33Z</time>
      </trkpt>
      <trkpt lat="42.57215300000009" lon="-1.264801000000001">
        <ele>508.485</ele>
        <time>2022-06-18T16:27:35Z</time>
      </trkpt>
      <trkpt lat="42.57217600000009" lon="-1.2649020000000009">
        <ele>508.254</ele>
        <time>2022-06-18T16:27:36Z</time>
      </trkpt>
      <trkpt lat="42.57228500000009" lon="-1.2653240000000008">
        <ele>507.259</ele>
        <time>2022-06-18T16:27:40Z</time>
      </trkpt>
      <trkpt lat="42.57234400000009" lon="-1.2655130000000008">
        <ele>507.021</ele>
        <time>2022-06-18T16:27:42Z</time>
      </trkpt>
      <trkpt lat="42.572518000000095" lon="-1.2660710000000008">
        <ele>506.233</ele>
        <time>2022-06-18T16:27:48Z</time>
      </trkpt>
      <trkpt lat="42.57254400000009" lon="-1.2661420000000008">
        <ele>506.047</ele>
        <time>2022-06-18T16:27:49Z</time>
      </trkpt>
      <trkpt lat="42.57279500000009" lon="-1.2667780000000008">
        <ele>506.275</ele>
        <time>2022-06-18T16:27:56Z</time>
      </trkpt>
      <trkpt lat="42.57307200000009" lon="-1.2675130000000008">
        <ele>506.230</ele>
        <time>2022-06-18T16:28:04Z</time>
      </trkpt>
      <trkpt lat="42.57335800000009" lon="-1.2682190000000009">
        <ele>506.020</ele>
        <time>2022-06-18T16:28:12Z</time>
      </trkpt>
      <trkpt lat="42.57340000000009" lon="-1.2683280000000008">
        <ele>505.861</ele>
        <time>2022-06-18T16:28:13Z</time>
      </trkpt>
      <trkpt lat="42.57363300000009" lon="-1.2690520000000007">
        <ele>505.221</ele>
        <time>2022-06-18T16:28:21Z</time>
      </trkpt>
      <trkpt lat="42.57375500000009" lon="-1.2694550000000007">
        <ele>505.213</ele>
        <time>2022-06-18T16:28:26Z</time>
      </trkpt>
      <trkpt lat="42.57390700000009" lon="-1.2699740000000006">
        <ele>505.409</ele>
        <time>2022-06-18T16:28:33Z</time>
      </trkpt>
      <trkpt lat="42.57393200000009" lon="-1.2700440000000006">
        <ele>505.427</ele>
        <time>2022-06-18T16:28:34Z</time>
      </trkpt>
      <trkpt lat="42.57404400000009" lon="-1.2703980000000006">
        <ele>506.076</ele>
        <time>2022-06-18T16:28:39Z</time>
      </trkpt>
      <trkpt lat="42.57413500000009" lon="-1.2706760000000006">
        <ele>506.241</ele>
        <time>2022-06-18T16:28:43Z</time>
      </trkpt>
      <trkpt lat="42.57429500000009" lon="-1.2711720000000006">
        <ele>506.863</ele>
        <time>2022-06-18T16:28:50Z</time>
      </trkpt>
      <trkpt lat="42.57449700000009" lon="-1.2718050000000007">
        <ele>507.225</ele>
        <time>2022-06-18T16:28:59Z</time>
      </trkpt>
      <trkpt lat="42.57473700000009" lon="-1.2725410000000008">
        <ele>507.049</ele>
        <time>2022-06-18T16:29:09Z</time>
      </trkpt>
      <trkpt lat="42.574761000000095" lon="-1.2726110000000008">
        <ele>507.067</ele>
        <time>2022-06-18T16:29:10Z</time>
      </trkpt>
      <trkpt lat="42.57493600000009" lon="-1.2732070000000009">
        <ele>506.842</ele>
        <time>2022-06-18T16:29:17Z</time>
      </trkpt>
      <trkpt lat="42.57515900000009" lon="-1.2739340000000008">
        <ele>505.672</ele>
        <time>2022-06-18T16:29:24Z</time>
      </trkpt>
      <trkpt lat="42.57519100000009" lon="-1.2740400000000007">
        <ele>504.891</ele>
        <time>2022-06-18T16:29:25Z</time>
      </trkpt>
      <trkpt lat="42.575223000000086" lon="-1.2741430000000007">
        <ele>503.681</ele>
        <time>2022-06-18T16:29:26Z</time>
      </trkpt>
      <trkpt lat="42.575285000000086" lon="-1.2743480000000007">
        <ele>502.419</ele>
        <time>2022-06-18T16:29:28Z</time>
      </trkpt>
      <trkpt lat="42.575398000000085" lon="-1.2747350000000006">
        <ele>501.009</ele>
        <time>2022-06-18T16:29:32Z</time>
      </trkpt>
      <trkpt lat="42.575485000000086" lon="-1.2750110000000006">
        <ele>500.440</ele>
        <time>2022-06-18T16:29:35Z</time>
      </trkpt>
      <trkpt lat="42.57562700000008" lon="-1.2753900000000005">
        <ele>500.479</ele>
        <time>2022-06-18T16:29:40Z</time>
      </trkpt>
      <trkpt lat="42.575775000000085" lon="-1.2756340000000004">
        <ele>500.474</ele>
        <time>2022-06-18T16:29:44Z</time>
      </trkpt>
      <trkpt lat="42.57588100000009" lon="-1.2757830000000003">
        <ele>500.626</ele>
        <time>2022-06-18T16:29:48Z</time>
      </trkpt>
      <trkpt lat="42.57581600000009" lon="-1.2759550000000004">
        <ele>500.698</ele>
        <time>2022-06-18T16:29:52Z</time>
      </trkpt>
      <trkpt lat="42.57577000000009" lon="-1.2760580000000004">
        <ele>500.632</ele>
        <time>2022-06-18T16:29:54Z</time>
      </trkpt>
      <trkpt lat="42.575752000000094" lon="-1.2761830000000003">
        <ele>500.680</ele>
        <time>2022-06-18T16:29:56Z</time>
      </trkpt>
      <trkpt lat="42.57575500000009" lon="-1.2762450000000003">
        <ele>500.685</ele>
        <time>2022-06-18T16:29:57Z</time>
      </trkpt>
      <trkpt lat="42.575760000000095" lon="-1.2763070000000003">
        <ele>500.685</ele>
        <time>2022-06-18T16:29:58Z</time>
      </trkpt>
      <trkpt lat="42.575802000000095" lon="-1.2764140000000004">
        <ele>500.697</ele>
        <time>2022-06-18T16:30:00Z</time>
      </trkpt>
      <trkpt lat="42.575830000000096" lon="-1.2764570000000004">
        <ele>500.423</ele>
        <time>2022-06-18T16:30:01Z</time>
      </trkpt>
      <trkpt lat="42.5759250000001" lon="-1.2766680000000004">
        <ele>500.425</ele>
        <time>2022-06-18T16:30:06Z</time>
      </trkpt>
      <trkpt lat="42.5759080000001" lon="-1.2768190000000004">
        <ele>500.409</ele>
        <time>2022-06-18T16:30:09Z</time>
      </trkpt>
      <trkpt lat="42.575875000000096" lon="-1.2768650000000004">
        <ele>500.420</ele>
        <time>2022-06-18T16:30:10Z</time>
      </trkpt>
      <trkpt lat="42.57583400000009" lon="-1.2768970000000004">
        <ele>500.259</ele>
        <time>2022-06-18T16:30:11Z</time>
      </trkpt>
      <trkpt lat="42.575743000000095" lon="-1.2769190000000004">
        <ele>500.214</ele>
        <time>2022-06-18T16:30:13Z</time>
      </trkpt>
      <trkpt lat="42.575681000000095" lon="-1.2769130000000004">
        <ele>500.056</ele>
        <time>2022-06-18T16:30:14Z</time>
      </trkpt>
      <trkpt lat="42.57547100000009" lon="-1.2768650000000004">
        <ele>499.858</ele>
        <time>2022-06-18T16:30:18Z</time>
      </trkpt>
      <trkpt lat="42.57530600000009" lon="-1.2768650000000004">
        <ele>498.662</ele>
        <time>2022-06-18T16:30:21Z</time>
      </trkpt>
      <trkpt lat="42.57514000000009" lon="-1.2769110000000004">
        <ele>498.070</ele>
        <time>2022-06-18T16:30:24Z</time>
      </trkpt>
      <trkpt lat="42.57502700000009" lon="-1.2769360000000003">
        <ele>497.655</ele>
        <time>2022-06-18T16:30:26Z</time>
      </trkpt>
      <trkpt lat="42.57467600000009" lon="-1.2770220000000003">
        <ele>497.025</ele>
        <time>2022-06-18T16:30:32Z</time>
      </trkpt>
      <trkpt lat="42.57444600000009" lon="-1.2771070000000002">
        <ele>496.674</ele>
        <time>2022-06-18T16:30:36Z</time>
      </trkpt>
      <trkpt lat="42.57426000000009" lon="-1.2771910000000002">
        <ele>496.056</ele>
        <time>2022-06-18T16:30:39Z</time>
      </trkpt>
      <trkpt lat="42.57401100000009" lon="-1.277303">
        <ele>496.021</ele>
        <time>2022-06-18T16:30:43Z</time>
      </trkpt>
      <trkpt lat="42.57389000000009" lon="-1.277369">
        <ele>495.609</ele>
        <time>2022-06-18T16:30:45Z</time>
      </trkpt>
      <trkpt lat="42.57383000000009" lon="-1.277405">
        <ele>495.258</ele>
        <time>2022-06-18T16:30:46Z</time>
      </trkpt>
      <trkpt lat="42.573705000000096" lon="-1.2774759999999998">
        <ele>494.497</ele>
        <time>2022-06-18T16:30:48Z</time>
      </trkpt>
      <trkpt lat="42.573447000000094" lon="-1.2776119999999997">
        <ele>493.042</ele>
        <time>2022-06-18T16:30:52Z</time>
      </trkpt>
      <trkpt lat="42.573382000000095" lon="-1.2776469999999998">
        <ele>492.884</ele>
        <time>2022-06-18T16:30:53Z</time>
      </trkpt>
      <trkpt lat="42.573117000000096" lon="-1.2777859999999996">
        <ele>492.076</ele>
        <time>2022-06-18T16:30:57Z</time>
      </trkpt>
      <trkpt lat="42.5727790000001" lon="-1.2779569999999996">
        <ele>491.080</ele>
        <time>2022-06-18T16:31:02Z</time>
      </trkpt>
      <trkpt lat="42.572507000000094" lon="-1.2780959999999995">
        <ele>489.488</ele>
        <time>2022-06-18T16:31:06Z</time>
      </trkpt>
      <trkpt lat="42.572228000000095" lon="-1.2782229999999994">
        <ele>488.423</ele>
        <time>2022-06-18T16:31:10Z</time>
      </trkpt>
      <trkpt lat="42.57179600000009" lon="-1.2784079999999995">
        <ele>487.213</ele>
        <time>2022-06-18T16:31:16Z</time>
      </trkpt>
      <trkpt lat="42.57156100000009" lon="-1.2785069999999996">
        <ele>486.649</ele>
        <time>2022-06-18T16:31:19Z</time>
      </trkpt>
      <trkpt lat="42.57133000000009" lon="-1.2785959999999996">
        <ele>485.802</ele>
        <time>2022-06-18T16:31:22Z</time>
      </trkpt>
      <trkpt lat="42.57096300000009" lon="-1.2787359999999997">
        <ele>485.022</ele>
        <time>2022-06-18T16:31:26Z</time>
      </trkpt>
      <trkpt lat="42.57087500000009" lon="-1.2787699999999997">
        <ele>484.809</ele>
        <time>2022-06-18T16:31:27Z</time>
      </trkpt>
      <trkpt lat="42.570607000000095" lon="-1.2788639999999998">
        <ele>483.425</ele>
        <time>2022-06-18T16:31:30Z</time>
      </trkpt>
      <trkpt lat="42.5704260000001" lon="-1.2789349999999997">
        <ele>482.414</ele>
        <time>2022-06-18T16:31:32Z</time>
      </trkpt>
      <trkpt lat="42.5702530000001" lon="-1.2790169999999996">
        <ele>481.449</ele>
        <time>2022-06-18T16:31:34Z</time>
      </trkpt>
      <trkpt lat="42.570170000000104" lon="-1.2790609999999996">
        <ele>481.071</ele>
        <time>2022-06-18T16:31:35Z</time>
      </trkpt>
      <trkpt lat="42.570004000000104" lon="-1.2791529999999995">
        <ele>479.863</ele>
        <time>2022-06-18T16:31:37Z</time>
      </trkpt>
      <trkpt lat="42.569849000000104" lon="-1.2792549999999996">
        <ele>478.677</ele>
        <time>2022-06-18T16:31:39Z</time>
      </trkpt>
      <trkpt lat="42.569778000000106" lon="-1.2793089999999996">
        <ele>478.035</ele>
        <time>2022-06-18T16:31:40Z</time>
      </trkpt>
      <trkpt lat="42.569641000000104" lon="-1.2794189999999996">
        <ele>477.620</ele>
        <time>2022-06-18T16:31:42Z</time>
      </trkpt>
      <trkpt lat="42.5693860000001" lon="-1.2796499999999997">
        <ele>476.470</ele>
        <time>2022-06-18T16:31:46Z</time>
      </trkpt>
      <trkpt lat="42.5690430000001" lon="-1.2799839999999998">
        <ele>475.487</ele>
        <time>2022-06-18T16:31:52Z</time>
      </trkpt>
      <trkpt lat="42.5689890000001" lon="-1.2800419999999997">
        <ele>475.442</ele>
        <time>2022-06-18T16:31:53Z</time>
      </trkpt>
      <trkpt lat="42.5688770000001" lon="-1.2801459999999998">
        <ele>475.226</ele>
        <time>2022-06-18T16:31:55Z</time>
      </trkpt>
      <trkpt lat="42.5688190000001" lon="-1.2801899999999997">
        <ele>475.209</ele>
        <time>2022-06-18T16:31:56Z</time>
      </trkpt>
      <trkpt lat="42.5687630000001" lon="-1.2802389999999997">
        <ele>475.289</ele>
        <time>2022-06-18T16:31:57Z</time>
      </trkpt>
      <trkpt lat="42.5685650000001" lon="-1.2804229999999996">
        <ele>475.238</ele>
        <time>2022-06-18T16:32:01Z</time>
      </trkpt>
      <trkpt lat="42.568524000000096" lon="-1.2804789999999997">
        <ele>475.223</ele>
        <time>2022-06-18T16:32:02Z</time>
      </trkpt>
      <trkpt lat="42.56849700000009" lon="-1.2805469999999997">
        <ele>475.265</ele>
        <time>2022-06-18T16:32:03Z</time>
      </trkpt>
      <trkpt lat="42.568488000000094" lon="-1.2807009999999996">
        <ele>475.227</ele>
        <time>2022-06-18T16:32:05Z</time>
      </trkpt>
      <trkpt lat="42.56854500000009" lon="-1.2808259999999996">
        <ele>475.261</ele>
        <time>2022-06-18T16:32:07Z</time>
      </trkpt>
      <trkpt lat="42.568586000000096" lon="-1.2808529999999996">
        <ele>475.459</ele>
        <time>2022-06-18T16:32:08Z</time>
      </trkpt>
      <trkpt lat="42.5686500000001" lon="-1.2808749999999995">
        <ele>475.644</ele>
        <time>2022-06-18T16:32:09Z</time>
      </trkpt>
      <trkpt lat="42.5687630000001" lon="-1.2808789999999994">
        <ele>475.634</ele>
        <time>2022-06-18T16:32:11Z</time>
      </trkpt>
      <trkpt lat="42.56887400000009" lon="-1.2808799999999994">
        <ele>475.636</ele>
        <time>2022-06-18T16:32:13Z</time>
      </trkpt>
      <trkpt lat="42.56910200000009" lon="-1.2808399999999993">
        <ele>475.617</ele>
        <time>2022-06-18T16:32:17Z</time>
      </trkpt>
      <trkpt lat="42.56950200000009" lon="-1.2807869999999992">
        <ele>475.418</ele>
        <time>2022-06-18T16:32:24Z</time>
      </trkpt>
      <trkpt lat="42.569560000000095" lon="-1.2807819999999992">
        <ele>475.409</ele>
        <time>2022-06-18T16:32:25Z</time>
      </trkpt>
      <trkpt lat="42.569777000000094" lon="-1.2807679999999992">
        <ele>475.224</ele>
        <time>2022-06-18T16:32:29Z</time>
      </trkpt>
      <trkpt lat="42.56987600000009" lon="-1.2807429999999993">
        <ele>475.073</ele>
        <time>2022-06-18T16:32:31Z</time>
      </trkpt>
      <trkpt lat="42.57027100000009" lon="-1.2807169999999992">
        <ele>474.838</ele>
        <time>2022-06-18T16:32:38Z</time>
      </trkpt>
      <trkpt lat="42.57082500000009" lon="-1.2806449999999991">
        <ele>474.660</ele>
        <time>2022-06-18T16:32:48Z</time>
      </trkpt>
      <trkpt lat="42.570931000000094" lon="-1.280626999999999">
        <ele>474.622</ele>
        <time>2022-06-18T16:32:50Z</time>
      </trkpt>
      <trkpt lat="42.57124100000009" lon="-1.280561999999999">
        <ele>473.636</ele>
        <time>2022-06-18T16:32:56Z</time>
      </trkpt>
      <trkpt lat="42.571280000000094" lon="-1.280553999999999">
        <ele>473.464</ele>
        <time>2022-06-18T16:32:57Z</time>
      </trkpt>
      <trkpt lat="42.571358000000096" lon="-1.2805369999999991">
        <ele>472.489</ele>
        <time>2022-06-18T16:33:00Z</time>
      </trkpt>
      <trkpt lat="42.5713830000001" lon="-1.2805389999999992">
        <ele>472.259</ele>
        <time>2022-06-18T16:33:01Z</time>
      </trkpt>
      <trkpt lat="42.571423000000095" lon="-1.280569999999999">
        <ele>471.679</ele>
        <time>2022-06-18T16:33:03Z</time>
      </trkpt>
      <trkpt lat="42.57143500000009" lon="-1.280600999999999">
        <ele>471.405</ele>
        <time>2022-06-18T16:33:04Z</time>
      </trkpt>
      <trkpt lat="42.571449000000094" lon="-1.280659999999999">
        <ele>471.025</ele>
        <time>2022-06-18T16:33:05Z</time>
      </trkpt>
      <trkpt lat="42.57146900000009" lon="-1.2807099999999991">
        <ele>471.009</ele>
        <time>2022-06-18T16:33:06Z</time>
      </trkpt>
      <trkpt lat="42.571527000000096" lon="-1.2808089999999992">
        <ele>470.628</ele>
        <time>2022-06-18T16:33:08Z</time>
      </trkpt>
      <trkpt lat="42.571659000000096" lon="-1.2810419999999991">
        <ele>470.077</ele>
        <time>2022-06-18T16:33:13Z</time>
      </trkpt>
      <trkpt lat="42.571679000000096" lon="-1.2810819999999992">
        <ele>469.422</ele>
        <time>2022-06-18T16:33:14Z</time>
      </trkpt>
      <trkpt lat="42.571719000000094" lon="-1.2811709999999992">
        <ele>469.084</ele>
        <time>2022-06-18T16:33:16Z</time>
      </trkpt>
      <trkpt lat="42.57175600000009" lon="-1.2812839999999992">
        <ele>468.456</ele>
        <time>2022-06-18T16:33:19Z</time>
      </trkpt>
      <trkpt lat="42.571750000000094" lon="-1.2813329999999992">
        <ele>468.260</ele>
        <time>2022-06-18T16:33:20Z</time>
      </trkpt>
      <trkpt lat="42.571736000000094" lon="-1.281368999999999">
        <ele>468.028</ele>
        <time>2022-06-18T16:33:21Z</time>
      </trkpt>
      <trkpt lat="42.57172000000009" lon="-1.2814059999999992">
        <ele>467.893</ele>
        <time>2022-06-18T16:33:22Z</time>
      </trkpt>
      <trkpt lat="42.57166400000009" lon="-1.281549999999999">
        <ele>466.833</ele>
        <time>2022-06-18T16:33:27Z</time>
      </trkpt>
      <trkpt lat="42.57166300000009" lon="-1.2815569999999992">
        <ele>466.682</ele>
        <time>2022-06-18T16:33:28Z</time>
      </trkpt>
      <trkpt lat="42.57166300000009" lon="-1.2815569999999992">
        <ele>466.243</ele>
        <time>2022-06-18T16:33:29Z</time>
      </trkpt>
      <trkpt lat="42.571612000000094" lon="-1.2815969999999992">
        <ele>465.217</ele>
        <time>2022-06-18T16:33:33Z</time>
      </trkpt>
      <trkpt lat="42.571555000000096" lon="-1.2815999999999992">
        <ele>465.009</ele>
        <time>2022-06-18T16:33:35Z</time>
      </trkpt>
      <trkpt lat="42.571386000000096" lon="-1.2815899999999991">
        <ele>464.239</ele>
        <time>2022-06-18T16:33:40Z</time>
      </trkpt>
      <trkpt lat="42.571311000000094" lon="-1.281571999999999">
        <ele>464.078</ele>
        <time>2022-06-18T16:33:42Z</time>
      </trkpt>
      <trkpt lat="42.57115400000009" lon="-1.281542999999999">
        <ele>463.643</ele>
        <time>2022-06-18T16:33:46Z</time>
      </trkpt>
      <trkpt lat="42.570798000000096" lon="-1.281506999999999">
        <ele>463.245</ele>
        <time>2022-06-18T16:33:54Z</time>
      </trkpt>
      <trkpt lat="42.5706110000001" lon="-1.281496999999999">
        <ele>463.037</ele>
        <time>2022-06-18T16:33:58Z</time>
      </trkpt>
      <trkpt lat="42.5705190000001" lon="-1.281498999999999">
        <ele>462.831</ele>
        <time>2022-06-18T16:34:00Z</time>
      </trkpt>
      <trkpt lat="42.5704220000001" lon="-1.281510999999999">
        <ele>462.239</ele>
        <time>2022-06-18T16:34:02Z</time>
      </trkpt>
      <trkpt lat="42.5703220000001" lon="-1.281512999999999">
        <ele>461.854</ele>
        <time>2022-06-18T16:34:04Z</time>
      </trkpt>
      <trkpt lat="42.5701420000001" lon="-1.281516999999999">
        <ele>461.454</ele>
        <time>2022-06-18T16:34:08Z</time>
      </trkpt>
      <trkpt lat="42.569703000000096" lon="-1.281531999999999">
        <ele>461.252</ele>
        <time>2022-06-18T16:34:17Z</time>
      </trkpt>
      <trkpt lat="42.5696380000001" lon="-1.281550999999999">
        <ele>461.253</ele>
        <time>2022-06-18T16:34:19Z</time>
      </trkpt>
      <trkpt lat="42.5696150000001" lon="-1.281586999999999">
        <ele>461.208</ele>
        <time>2022-06-18T16:34:20Z</time>
      </trkpt>
      <trkpt lat="42.5695870000001" lon="-1.2817389999999989">
        <ele>461.209</ele>
        <time>2022-06-18T16:34:23Z</time>
      </trkpt>
      <trkpt lat="42.5695840000001" lon="-1.2817849999999988">
        <ele>461.246</ele>
        <time>2022-06-18T16:34:24Z</time>
      </trkpt>
      <trkpt lat="42.5695590000001" lon="-1.2822149999999988">
        <ele>461.625</ele>
        <time>2022-06-18T16:34:31Z</time>
      </trkpt>
      <trkpt lat="42.5695450000001" lon="-1.2822709999999988">
        <ele>461.620</ele>
        <time>2022-06-18T16:34:32Z</time>
      </trkpt>
      <trkpt lat="42.569537000000096" lon="-1.2823299999999989">
        <ele>461.622</ele>
        <time>2022-06-18T16:34:33Z</time>
      </trkpt>
      <trkpt lat="42.569509000000096" lon="-1.2826869999999988">
        <ele>461.664</ele>
        <time>2022-06-18T16:34:39Z</time>
      </trkpt>
      <trkpt lat="42.5694460000001" lon="-1.2831049999999988">
        <ele>461.468</ele>
        <time>2022-06-18T16:34:46Z</time>
      </trkpt>
      <trkpt lat="42.5694210000001" lon="-1.2831999999999988">
        <ele>461.266</ele>
        <time>2022-06-18T16:34:48Z</time>
      </trkpt>
      <trkpt lat="42.5693750000001" lon="-1.2833179999999988">
        <ele>461.081</ele>
        <time>2022-06-18T16:34:51Z</time>
      </trkpt>
      <trkpt lat="42.5693260000001" lon="-1.283365999999999">
        <ele>460.881</ele>
        <time>2022-06-18T16:34:53Z</time>
      </trkpt>
      <trkpt lat="42.569255000000105" lon="-1.283378999999999">
        <ele>461.068</ele>
        <time>2022-06-18T16:34:55Z</time>
      </trkpt>
      <trkpt lat="42.56909600000011" lon="-1.2833559999999988">
        <ele>460.842</ele>
        <time>2022-06-18T16:35:00Z</time>
      </trkpt>
      <trkpt lat="42.569072000000105" lon="-1.2833639999999988">
        <ele>460.826</ele>
        <time>2022-06-18T16:35:01Z</time>
      </trkpt>
      <trkpt lat="42.56896700000011" lon="-1.2834309999999989">
        <ele>460.609</ele>
        <time>2022-06-18T16:35:06Z</time>
      </trkpt>
      <trkpt lat="42.568903000000105" lon="-1.283481999999999">
        <ele>460.437</ele>
        <time>2022-06-18T16:35:12Z</time>
      </trkpt>
      <trkpt lat="42.568903000000105" lon="-1.283481999999999">
        <ele>460.436</ele>
        <time>2022-06-18T16:35:13Z</time>
      </trkpt>
      <trkpt lat="42.568830999999996" lon="-1.283467">
        <ele>393.087</ele>
        <time>2022-06-19T07:44:19Z</time>
      </trkpt>
      <trkpt lat="42.568836999999995" lon="-1.2834699999999999">
        <ele>395.042</ele>
        <time>2022-06-19T07:44:20Z</time>
      </trkpt>
      <trkpt lat="42.568929" lon="-1.283448">
        <ele>395.226</ele>
        <time>2022-06-19T07:44:28Z</time>
      </trkpt>
      <trkpt lat="42.568954" lon="-1.283439">
        <ele>395.209</ele>
        <time>2022-06-19T07:44:30Z</time>
      </trkpt>
      <trkpt lat="42.569053" lon="-1.283329">
        <ele>395.049</ele>
        <time>2022-06-19T07:44:36Z</time>
      </trkpt>
      <trkpt lat="42.569196" lon="-1.283294">
        <ele>395.248</ele>
        <time>2022-06-19T07:44:43Z</time>
      </trkpt>
      <trkpt lat="42.569294" lon="-1.283337">
        <ele>395.253</ele>
        <time>2022-06-19T07:44:48Z</time>
      </trkpt>
      <trkpt lat="42.569314" lon="-1.283332">
        <ele>395.267</ele>
        <time>2022-06-19T07:44:49Z</time>
      </trkpt>
      <trkpt lat="42.569331999999996" lon="-1.283316">
        <ele>395.239</ele>
        <time>2022-06-19T07:44:50Z</time>
      </trkpt>
      <trkpt lat="42.569374999999994" lon="-1.2832299999999999">
        <ele>395.275</ele>
        <time>2022-06-19T07:44:53Z</time>
      </trkpt>
      <trkpt lat="42.56944599999999" lon="-1.2829409999999999">
        <ele>395.499</ele>
        <time>2022-06-19T07:45:00Z</time>
      </trkpt>
      <trkpt lat="42.56949199999999" lon="-1.282622">
        <ele>395.892</ele>
        <time>2022-06-19T07:45:07Z</time>
      </trkpt>
      <trkpt lat="42.56950699999999" lon="-1.282524">
        <ele>396.041</ele>
        <time>2022-06-19T07:45:09Z</time>
      </trkpt>
      <trkpt lat="42.569555999999984" lon="-1.282238">
        <ele>396.425</ele>
        <time>2022-06-19T07:45:15Z</time>
      </trkpt>
      <trkpt lat="42.569583999999985" lon="-1.282174">
        <ele>396.626</ele>
        <time>2022-06-19T07:45:17Z</time>
      </trkpt>
      <trkpt lat="42.569639999999985" lon="-1.2821369999999999">
        <ele>396.608</ele>
        <time>2022-06-19T07:45:19Z</time>
      </trkpt>
      <trkpt lat="42.569842999999985" lon="-1.2821349999999998">
        <ele>396.809</ele>
        <time>2022-06-19T07:45:25Z</time>
      </trkpt>
      <trkpt lat="42.570135999999984" lon="-1.2821709999999997">
        <ele>397.023</ele>
        <time>2022-06-19T07:45:33Z</time>
      </trkpt>
      <trkpt lat="42.570171999999985" lon="-1.2821729999999998">
        <ele>397.222</ele>
        <time>2022-06-19T07:45:34Z</time>
      </trkpt>
      <trkpt lat="42.57047499999999" lon="-1.2822039999999997">
        <ele>397.417</ele>
        <time>2022-06-19T07:45:42Z</time>
      </trkpt>
      <trkpt lat="42.57085199999999" lon="-1.2822449999999996">
        <ele>397.481</ele>
        <time>2022-06-19T07:45:51Z</time>
      </trkpt>
      <trkpt lat="42.57118599999999" lon="-1.2823229999999997">
        <ele>397.233</ele>
        <time>2022-06-19T07:45:59Z</time>
      </trkpt>
      <trkpt lat="42.57151199999999" lon="-1.2824469999999997">
        <ele>396.879</ele>
        <time>2022-06-19T07:46:07Z</time>
      </trkpt>
      <trkpt lat="42.57186599999999" lon="-1.2826339999999996">
        <ele>396.683</ele>
        <time>2022-06-19T07:46:16Z</time>
      </trkpt>
      <trkpt lat="42.57214199999999" lon="-1.2827789999999997">
        <ele>396.846</ele>
        <time>2022-06-19T07:46:24Z</time>
      </trkpt>
      <trkpt lat="42.57241199999999" lon="-1.2829089999999996">
        <ele>397.025</ele>
        <time>2022-06-19T07:46:33Z</time>
      </trkpt>
      <trkpt lat="42.57245399999999" lon="-1.2829089999999996">
        <ele>397.273</ele>
        <time>2022-06-19T07:46:36Z</time>
      </trkpt>
      <trkpt lat="42.572464999999994" lon="-1.2829119999999996">
        <ele>397.285</ele>
        <time>2022-06-19T07:46:37Z</time>
      </trkpt>
      <trkpt lat="42.57247699999999" lon="-1.2829169999999996">
        <ele>397.213</ele>
        <time>2022-06-19T07:46:38Z</time>
      </trkpt>
      <trkpt lat="42.57252599999999" lon="-1.2829379999999997">
        <ele>397.209</ele>
        <time>2022-06-19T07:46:42Z</time>
      </trkpt>
      <trkpt lat="42.572605999999986" lon="-1.2829819999999996">
        <ele>397.468</ele>
        <time>2022-06-19T07:46:49Z</time>
      </trkpt>
      <trkpt lat="42.572617999999984" lon="-1.2829749999999995">
        <ele>397.487</ele>
        <time>2022-06-19T07:46:50Z</time>
      </trkpt>
      <trkpt lat="42.57262399999998" lon="-1.2829699999999995">
        <ele>397.432</ele>
        <time>2022-06-19T07:46:52Z</time>
      </trkpt>
      <trkpt lat="42.572656999999985" lon="-1.2829749999999995">
        <ele>398.466</ele>
        <time>2022-06-19T08:19:22Z</time>
      </trkpt>
      <trkpt lat="42.57277999999999" lon="-1.2829659999999996">
        <ele>399.428</ele>
        <time>2022-06-19T08:19:27Z</time>
      </trkpt>
      <trkpt lat="42.572887999999985" lon="-1.2829749999999995">
        <ele>399.284</ele>
        <time>2022-06-19T08:19:31Z</time>
      </trkpt>
      <trkpt lat="42.57298499999998" lon="-1.2831479999999995">
        <ele>399.288</ele>
        <time>2022-06-19T08:19:37Z</time>
      </trkpt>
      <trkpt lat="42.57315099999998" lon="-1.2832819999999996">
        <ele>399.231</ele>
        <time>2022-06-19T08:19:43Z</time>
      </trkpt>
      <trkpt lat="42.57324399999998" lon="-1.2833639999999995">
        <ele>399.080</ele>
        <time>2022-06-19T08:19:46Z</time>
      </trkpt>
      <trkpt lat="42.57331999999998" lon="-1.2834339999999995">
        <ele>398.826</ele>
        <time>2022-06-19T08:19:49Z</time>
      </trkpt>
      <trkpt lat="42.57337899999998" lon="-1.2835179999999995">
        <ele>398.647</ele>
        <time>2022-06-19T08:19:53Z</time>
      </trkpt>
      <trkpt lat="42.57338999999998" lon="-1.2835349999999994">
        <ele>398.611</ele>
        <time>2022-06-19T08:19:54Z</time>
      </trkpt>
      <trkpt lat="42.57339299999998" lon="-1.2835749999999995">
        <ele>398.609</ele>
        <time>2022-06-19T08:19:56Z</time>
      </trkpt>
      <trkpt lat="42.57338399999998" lon="-1.2835989999999995">
        <ele>398.683</ele>
        <time>2022-06-19T08:19:57Z</time>
      </trkpt>
      <trkpt lat="42.573298999999984" lon="-1.2838189999999996">
        <ele>398.432</ele>
        <time>2022-06-19T08:20:06Z</time>
      </trkpt>
      <trkpt lat="42.573287999999984" lon="-1.2838539999999996">
        <ele>398.677</ele>
        <time>2022-06-19T08:20:11Z</time>
      </trkpt>
      <trkpt lat="42.573303999999986" lon="-1.2838649999999996">
        <ele>398.611</ele>
        <time>2022-06-19T08:21:07Z</time>
      </trkpt>
      <trkpt lat="42.57329399999998" lon="-1.2839259999999997">
        <ele>398.643</ele>
        <time>2022-06-19T08:21:09Z</time>
      </trkpt>
      <trkpt lat="42.57329399999998" lon="-1.2839509999999996">
        <ele>398.649</ele>
        <time>2022-06-19T08:21:10Z</time>
      </trkpt>
      <trkpt lat="42.573278999999985" lon="-1.2839689999999997">
        <ele>398.673</ele>
        <time>2022-06-19T08:21:12Z</time>
      </trkpt>
      <trkpt lat="42.57324999999999" lon="-1.2839599999999998">
        <ele>398.646</ele>
        <time>2022-06-19T08:21:14Z</time>
      </trkpt>
      <trkpt lat="42.57324999999999" lon="-1.2839149999999997">
        <ele>398.645</ele>
        <time>2022-06-19T08:21:16Z</time>
      </trkpt>
      <trkpt lat="42.57326999999999" lon="-1.2838659999999997">
        <ele>398.622</ele>
        <time>2022-06-19T08:21:18Z</time>
      </trkpt>
      <trkpt lat="42.57330899999999" lon="-1.2837909999999997">
        <ele>398.662</ele>
        <time>2022-06-19T08:21:21Z</time>
      </trkpt>
      <trkpt lat="42.57337799999999" lon="-1.2835979999999996">
        <ele>398.608</ele>
        <time>2022-06-19T08:21:27Z</time>
      </trkpt>
      <trkpt lat="42.57342099999999" lon="-1.2835029999999996">
        <ele>398.609</ele>
        <time>2022-06-19T08:21:32Z</time>
      </trkpt>
      <trkpt lat="42.573424999999986" lon="-1.2834989999999997">
        <ele>398.663</ele>
        <time>2022-06-19T08:21:33Z</time>
      </trkpt>
      <trkpt lat="42.57342999999999" lon="-1.2835069999999997">
        <ele>398.652</ele>
        <time>2022-06-19T08:21:35Z</time>
      </trkpt>
      <trkpt lat="42.57350799999999" lon="-1.2835629999999998">
        <ele>398.637</ele>
        <time>2022-06-19T08:21:39Z</time>
      </trkpt>
      <trkpt lat="42.57353599999999" lon="-1.2835749999999997">
        <ele>398.631</ele>
        <time>2022-06-19T08:21:40Z</time>
      </trkpt>
      <trkpt lat="42.57355899999999" lon="-1.2835849999999998">
        <ele>398.673</ele>
        <time>2022-06-19T08:21:41Z</time>
      </trkpt>
      <trkpt lat="42.57362699999999" lon="-1.2836679999999998">
        <ele>398.449</ele>
        <time>2022-06-19T08:21:44Z</time>
      </trkpt>
      <trkpt lat="42.57371599999999" lon="-1.2836959999999997">
        <ele>398.413</ele>
        <time>2022-06-19T08:21:49Z</time>
      </trkpt>
      <trkpt lat="42.57384499999999" lon="-1.2837889999999996">
        <ele>398.056</ele>
        <time>2022-06-19T08:21:56Z</time>
      </trkpt>
      <trkpt lat="42.57397099999999" lon="-1.2838859999999996">
        <ele>397.865</ele>
        <time>2022-06-19T08:22:02Z</time>
      </trkpt>
      <trkpt lat="42.57412899999999" lon="-1.2839729999999996">
        <ele>398.065</ele>
        <time>2022-06-19T08:22:08Z</time>
      </trkpt>
      <trkpt lat="42.57428899999999" lon="-1.2840649999999996">
        <ele>398.068</ele>
        <time>2022-06-19T08:22:14Z</time>
      </trkpt>
      <trkpt lat="42.57444099999999" lon="-1.2842039999999995">
        <ele>398.014</ele>
        <time>2022-06-19T08:22:21Z</time>
      </trkpt>
      <trkpt lat="42.57459699999999" lon="-1.2843209999999994">
        <ele>398.009</ele>
        <time>2022-06-19T08:22:28Z</time>
      </trkpt>
      <trkpt lat="42.57472999999999" lon="-1.2844209999999994">
        <ele>398.417</ele>
        <time>2022-06-19T08:22:35Z</time>
      </trkpt>
      <trkpt lat="42.57475699999999" lon="-1.2844729999999993">
        <ele>398.686</ele>
        <time>2022-06-19T08:22:38Z</time>
      </trkpt>
      <trkpt lat="42.57475999999999" lon="-1.2845139999999993">
        <ele>398.681</ele>
        <time>2022-06-19T08:22:40Z</time>
      </trkpt>
      <trkpt lat="42.57476399999999" lon="-1.2845909999999994">
        <ele>398.655</ele>
        <time>2022-06-19T08:22:43Z</time>
      </trkpt>
      <trkpt lat="42.57478299999999" lon="-1.2846049999999993">
        <ele>398.837</ele>
        <time>2022-06-19T08:22:45Z</time>
      </trkpt>
      <trkpt lat="42.57480099999999" lon="-1.2845999999999993">
        <ele>398.863</ele>
        <time>2022-06-19T08:22:47Z</time>
      </trkpt>
      <trkpt lat="42.574798999999985" lon="-1.2845999999999993">
        <ele>398.857</ele>
        <time>2022-06-19T08:22:50Z</time>
      </trkpt>
      <trkpt lat="42.57485999999999" lon="-1.2843539999999993">
        <ele>399.050</ele>
        <time>2022-06-19T08:23:55Z</time>
      </trkpt>
      <trkpt lat="42.574862999999986" lon="-1.2842819999999993">
        <ele>399.029</ele>
        <time>2022-06-19T08:23:58Z</time>
      </trkpt>
      <trkpt lat="42.574879999999986" lon="-1.2841109999999993">
        <ele>398.869</ele>
        <time>2022-06-19T08:24:04Z</time>
      </trkpt>
      <trkpt lat="42.574894999999984" lon="-1.2840199999999993">
        <ele>398.604</ele>
        <time>2022-06-19T08:24:08Z</time>
      </trkpt>
      <trkpt lat="42.574922999999984" lon="-1.2839809999999994">
        <ele>398.624</ele>
        <time>2022-06-19T08:24:11Z</time>
      </trkpt>
      <trkpt lat="42.574947999999985" lon="-1.2839519999999993">
        <ele>398.409</ele>
        <time>2022-06-19T08:24:13Z</time>
      </trkpt>
      <trkpt lat="42.574938999999986" lon="-1.2839039999999993">
        <ele>398.447</ele>
        <time>2022-06-19T08:24:15Z</time>
      </trkpt>
      <trkpt lat="42.574896999999986" lon="-1.2837439999999993">
        <ele>398.266</ele>
        <time>2022-06-19T08:24:20Z</time>
      </trkpt>
      <trkpt lat="42.574848999999986" lon="-1.2835519999999994">
        <ele>397.811</ele>
        <time>2022-06-19T08:24:27Z</time>
      </trkpt>
      <trkpt lat="42.57481999999999" lon="-1.2833679999999994">
        <ele>397.835</ele>
        <time>2022-06-19T08:24:33Z</time>
      </trkpt>
      <trkpt lat="42.574806999999986" lon="-1.2832609999999993">
        <ele>397.867</ele>
        <time>2022-06-19T08:24:37Z</time>
      </trkpt>
      <trkpt lat="42.57486499999999" lon="-1.2830469999999994">
        <ele>397.883</ele>
        <time>2022-06-19T08:24:44Z</time>
      </trkpt>
      <trkpt lat="42.57495399999999" lon="-1.2829089999999994">
        <ele>398.237</ele>
        <time>2022-06-19T08:24:49Z</time>
      </trkpt>
      <trkpt lat="42.57503199999999" lon="-1.2827789999999994">
        <ele>399.230</ele>
        <time>2022-06-19T08:24:56Z</time>
      </trkpt>
      <trkpt lat="42.57506699999999" lon="-1.2827409999999995">
        <ele>399.469</ele>
        <time>2022-06-19T08:24:58Z</time>
      </trkpt>
      <trkpt lat="42.57512799999999" lon="-1.2826579999999994">
        <ele>399.863</ele>
        <time>2022-06-19T08:25:03Z</time>
      </trkpt>
      <trkpt lat="42.57513099999999" lon="-1.2826429999999993">
        <ele>399.844</ele>
        <time>2022-06-19T08:25:04Z</time>
      </trkpt>
      <trkpt lat="42.57513699999999" lon="-1.2826339999999994">
        <ele>400.018</ele>
        <time>2022-06-19T08:25:07Z</time>
      </trkpt>
      <trkpt lat="42.575177999999994" lon="-1.2825729999999993">
        <ele>400.209</ele>
        <time>2022-06-19T08:25:12Z</time>
      </trkpt>
      <trkpt lat="42.575194999999994" lon="-1.2825479999999994">
        <ele>400.277</ele>
        <time>2022-06-19T08:25:13Z</time>
      </trkpt>
      <trkpt lat="42.575207999999996" lon="-1.2825179999999994">
        <ele>400.276</ele>
        <time>2022-06-19T08:25:14Z</time>
      </trkpt>
      <trkpt lat="42.575241" lon="-1.2824659999999994">
        <ele>400.471</ele>
        <time>2022-06-19T08:25:16Z</time>
      </trkpt>
      <trkpt lat="42.575299" lon="-1.2823789999999995">
        <ele>400.435</ele>
        <time>2022-06-19T08:25:20Z</time>
      </trkpt>
      <trkpt lat="42.575313" lon="-1.2823719999999994">
        <ele>400.687</ele>
        <time>2022-06-19T08:25:21Z</time>
      </trkpt>
      <trkpt lat="42.575338" lon="-1.2823749999999994">
        <ele>400.893</ele>
        <time>2022-06-19T08:25:23Z</time>
      </trkpt>
      <trkpt lat="42.575359" lon="-1.2824149999999994">
        <ele>401.087</ele>
        <time>2022-06-19T08:25:26Z</time>
      </trkpt>
      <trkpt lat="42.575362" lon="-1.2824319999999994">
        <ele>401.260</ele>
        <time>2022-06-19T08:25:29Z</time>
      </trkpt>
      <trkpt lat="42.575379" lon="-1.2825169999999992">
        <ele>401.249</ele>
        <time>2022-06-19T08:25:34Z</time>
      </trkpt>
      <trkpt lat="42.575426" lon="-1.2826949999999993">
        <ele>401.054</ele>
        <time>2022-06-19T08:25:40Z</time>
      </trkpt>
      <trkpt lat="42.575448" lon="-1.2829559999999993">
        <ele>400.856</ele>
        <time>2022-06-19T08:25:47Z</time>
      </trkpt>
      <trkpt lat="42.575442" lon="-1.2829829999999993">
        <ele>400.811</ele>
        <time>2022-06-19T08:25:48Z</time>
      </trkpt>
      <trkpt lat="42.575417" lon="-1.2830409999999992">
        <ele>400.609</ele>
        <time>2022-06-19T08:25:51Z</time>
      </trkpt>
      <trkpt lat="42.575333" lon="-1.283079999999999">
        <ele>400.066</ele>
        <time>2022-06-19T08:25:56Z</time>
      </trkpt>
      <trkpt lat="42.575286" lon="-1.283131999999999">
        <ele>400.095</ele>
        <time>2022-06-19T08:26:01Z</time>
      </trkpt>
      <trkpt lat="42.575281" lon="-1.283148999999999">
        <ele>399.870</ele>
        <time>2022-06-19T08:26:02Z</time>
      </trkpt>
      <trkpt lat="42.575272" lon="-1.283171999999999">
        <ele>399.894</ele>
        <time>2022-06-19T08:26:05Z</time>
      </trkpt>
      <trkpt lat="42.575219" lon="-1.2830249999999992">
        <ele>400.056</ele>
        <time>2022-06-19T08:29:44Z</time>
      </trkpt>
      <trkpt lat="42.575140999999995" lon="-1.2829869999999992">
        <ele>400.092</ele>
        <time>2022-06-19T08:29:49Z</time>
      </trkpt>
      <trkpt lat="42.575058999999996" lon="-1.2829709999999992">
        <ele>399.886</ele>
        <time>2022-06-19T08:29:55Z</time>
      </trkpt>
      <trkpt lat="42.57504899999999" lon="-1.2829709999999992">
        <ele>399.899</ele>
        <time>2022-06-19T08:29:56Z</time>
      </trkpt>
      <trkpt lat="42.57503299999999" lon="-1.2829609999999991">
        <ele>399.668</ele>
        <time>2022-06-19T08:30:00Z</time>
      </trkpt>
      <trkpt lat="42.57505599999999" lon="-1.2828369999999991">
        <ele>399.633</ele>
        <time>2022-06-19T08:31:08Z</time>
      </trkpt>
      <trkpt lat="42.57508099999999" lon="-1.282877999999999">
        <ele>399.623</ele>
        <time>2022-06-19T08:31:10Z</time>
      </trkpt>
      <trkpt lat="42.57511299999999" lon="-1.282942999999999">
        <ele>399.615</ele>
        <time>2022-06-19T08:31:13Z</time>
      </trkpt>
      <trkpt lat="42.57512999999999" lon="-1.2829499999999991">
        <ele>399.609</ele>
        <time>2022-06-19T08:31:14Z</time>
      </trkpt>
      <trkpt lat="42.57517999999999" lon="-1.2829789999999992">
        <ele>399.664</ele>
        <time>2022-06-19T08:31:17Z</time>
      </trkpt>
      <trkpt lat="42.57521099999999" lon="-1.2830119999999992">
        <ele>399.663</ele>
        <time>2022-06-19T08:31:19Z</time>
      </trkpt>
      <trkpt lat="42.57522199999999" lon="-1.283036999999999">
        <ele>399.638</ele>
        <time>2022-06-19T08:31:20Z</time>
      </trkpt>
      <trkpt lat="42.575256999999986" lon="-1.2831139999999992">
        <ele>399.622</ele>
        <time>2022-06-19T08:31:23Z</time>
      </trkpt>
      <trkpt lat="42.57527799999998" lon="-1.2831999999999992">
        <ele>399.884</ele>
        <time>2022-06-19T08:31:27Z</time>
      </trkpt>
      <trkpt lat="42.575285999999984" lon="-1.2833559999999993">
        <ele>399.840</ele>
        <time>2022-06-19T08:31:33Z</time>
      </trkpt>
      <trkpt lat="42.575293999999985" lon="-1.2833799999999993">
        <ele>399.824</ele>
        <time>2022-06-19T08:31:35Z</time>
      </trkpt>
      <trkpt lat="42.57529899999999" lon="-1.2833789999999994">
        <ele>399.837</ele>
        <time>2022-06-19T08:31:37Z</time>
      </trkpt>
      <trkpt lat="42.57523699999999" lon="-1.2833429999999995">
        <ele>399.066</ele>
        <time>2022-06-19T08:37:44Z</time>
      </trkpt>
      <trkpt lat="42.575197999999986" lon="-1.2831589999999995">
        <ele>399.455</ele>
        <time>2022-06-19T08:37:50Z</time>
      </trkpt>
      <trkpt lat="42.57517999999999" lon="-1.2831229999999996">
        <ele>399.607</ele>
        <time>2022-06-19T08:37:53Z</time>
      </trkpt>
      <trkpt lat="42.57518499999999" lon="-1.2830939999999995">
        <ele>400.017</ele>
        <time>2022-06-19T08:37:55Z</time>
      </trkpt>
      <trkpt lat="42.57519999999999" lon="-1.2830889999999995">
        <ele>400.209</ele>
        <time>2022-06-19T08:37:56Z</time>
      </trkpt>
      <trkpt lat="42.57522599999999" lon="-1.2830859999999995">
        <ele>400.256</ele>
        <time>2022-06-19T08:37:57Z</time>
      </trkpt>
      <trkpt lat="42.575288999999984" lon="-1.2830969999999995">
        <ele>400.235</ele>
        <time>2022-06-19T08:37:59Z</time>
      </trkpt>
      <trkpt lat="42.57546399999998" lon="-1.2830679999999994">
        <ele>400.220</ele>
        <time>2022-06-19T08:38:05Z</time>
      </trkpt>
      <trkpt lat="42.57557399999998" lon="-1.2830909999999995">
        <ele>400.224</ele>
        <time>2022-06-19T08:38:09Z</time>
      </trkpt>
      <trkpt lat="42.57559999999998" lon="-1.2830879999999996">
        <ele>400.286</ele>
        <time>2022-06-19T08:38:10Z</time>
      </trkpt>
      <trkpt lat="42.57575199999998" lon="-1.2830719999999995">
        <ele>400.022</ele>
        <time>2022-06-19T08:38:15Z</time>
      </trkpt>
      <trkpt lat="42.57590799999998" lon="-1.2829999999999995">
        <ele>400.016</ele>
        <time>2022-06-19T08:38:21Z</time>
      </trkpt>
      <trkpt lat="42.57605299999998" lon="-1.2830279999999994">
        <ele>400.249</ele>
        <time>2022-06-19T08:38:26Z</time>
      </trkpt>
      <trkpt lat="42.57619399999998" lon="-1.2830309999999994">
        <ele>400.268</ele>
        <time>2022-06-19T08:38:31Z</time>
      </trkpt>
      <trkpt lat="42.57633399999998" lon="-1.2829329999999994">
        <ele>400.419</ele>
        <time>2022-06-19T08:38:38Z</time>
      </trkpt>
      <trkpt lat="42.576343999999985" lon="-1.2829499999999994">
        <ele>400.409</ele>
        <time>2022-06-19T08:38:39Z</time>
      </trkpt>
      <trkpt lat="42.57635699999999" lon="-1.2829019999999993">
        <ele>400.619</ele>
        <time>2022-06-19T08:39:05Z</time>
      </trkpt>
      <trkpt lat="42.576360999999984" lon="-1.2829569999999992">
        <ele>400.609</ele>
        <time>2022-06-19T08:39:07Z</time>
      </trkpt>
      <trkpt lat="42.576399999999985" lon="-1.2829859999999993">
        <ele>400.662</ele>
        <time>2022-06-19T08:39:09Z</time>
      </trkpt>
      <trkpt lat="42.576427999999986" lon="-1.2830389999999994">
        <ele>400.661</ele>
        <time>2022-06-19T08:39:11Z</time>
      </trkpt>
      <trkpt lat="42.576447999999985" lon="-1.2831609999999993">
        <ele>400.646</ele>
        <time>2022-06-19T08:39:15Z</time>
      </trkpt>
      <trkpt lat="42.57645199999998" lon="-1.2831829999999993">
        <ele>400.690</ele>
        <time>2022-06-19T08:39:16Z</time>
      </trkpt>
      <trkpt lat="42.576456999999984" lon="-1.2831899999999994">
        <ele>400.642</ele>
        <time>2022-06-19T08:39:18Z</time>
      </trkpt>
      <trkpt lat="42.576450999999985" lon="-1.2831839999999994">
        <ele>400.618</ele>
        <time>2022-06-19T08:39:19Z</time>
      </trkpt>
      <trkpt lat="42.57648799999998" lon="-1.2833139999999994">
        <ele>400.442</ele>
        <time>2022-06-19T08:40:26Z</time>
      </trkpt>
      <trkpt lat="42.57649999999998" lon="-1.2833919999999994">
        <ele>400.485</ele>
        <time>2022-06-19T08:40:28Z</time>
      </trkpt>
      <trkpt lat="42.57657299999998" lon="-1.2835949999999994">
        <ele>400.474</ele>
        <time>2022-06-19T08:40:33Z</time>
      </trkpt>
      <trkpt lat="42.576653999999984" lon="-1.2838649999999994">
        <ele>400.073</ele>
        <time>2022-06-19T08:40:40Z</time>
      </trkpt>
      <trkpt lat="42.57671699999998" lon="-1.2839929999999993">
        <ele>399.885</ele>
        <time>2022-06-19T08:40:44Z</time>
      </trkpt>
      <trkpt lat="42.57673499999998" lon="-1.2841789999999993">
        <ele>399.813</ele>
        <time>2022-06-19T08:40:49Z</time>
      </trkpt>
      <trkpt lat="42.576735999999975" lon="-1.2844049999999994">
        <ele>399.609</ele>
        <time>2022-06-19T08:40:55Z</time>
      </trkpt>
      <trkpt lat="42.57674399999998" lon="-1.2845059999999993">
        <ele>399.668</ele>
        <time>2022-06-19T08:40:58Z</time>
      </trkpt>
      <trkpt lat="42.57675399999998" lon="-1.2845539999999993">
        <ele>399.637</ele>
        <time>2022-06-19T08:41:00Z</time>
      </trkpt>
      <trkpt lat="42.57679999999998" lon="-1.2847009999999992">
        <ele>399.642</ele>
        <time>2022-06-19T08:41:05Z</time>
      </trkpt>
      <trkpt lat="42.57681099999998" lon="-1.2847379999999993">
        <ele>399.646</ele>
        <time>2022-06-19T08:41:06Z</time>
      </trkpt>
      <trkpt lat="42.57684999999998" lon="-1.2848659999999992">
        <ele>399.858</ele>
        <time>2022-06-19T08:41:11Z</time>
      </trkpt>
      <trkpt lat="42.57685999999998" lon="-1.2849029999999992">
        <ele>399.864</ele>
        <time>2022-06-19T08:41:14Z</time>
      </trkpt>
      <trkpt lat="42.57686299999998" lon="-1.2849119999999992">
        <ele>399.868</ele>
        <time>2022-06-19T08:41:16Z</time>
      </trkpt>
      <trkpt lat="42.57688599999998" lon="-1.2849089999999992">
        <ele>399.811</ele>
        <time>2022-06-19T08:41:19Z</time>
      </trkpt>
      <trkpt lat="42.576895999999984" lon="-1.2849149999999991">
        <ele>399.890</ele>
        <time>2022-06-19T08:41:21Z</time>
      </trkpt>
      <trkpt lat="42.576889999999985" lon="-1.2849449999999991">
        <ele>399.887</ele>
        <time>2022-06-19T08:41:26Z</time>
      </trkpt>
      <trkpt lat="42.576914999999985" lon="-1.2848199999999992">
        <ele>400.442</ele>
        <time>2022-06-19T08:46:48Z</time>
      </trkpt>
      <trkpt lat="42.57695299999999" lon="-1.2847899999999992">
        <ele>400.426</ele>
        <time>2022-06-19T08:46:50Z</time>
      </trkpt>
      <trkpt lat="42.57696999999999" lon="-1.2847849999999992">
        <ele>400.409</ele>
        <time>2022-06-19T08:46:54Z</time>
      </trkpt>
      <trkpt lat="42.57696399999999" lon="-1.284966999999999">
        <ele>401.069</ele>
        <time>2022-06-19T08:49:26Z</time>
      </trkpt>
      <trkpt lat="42.57699199999999" lon="-1.285172999999999">
        <ele>400.628</ele>
        <time>2022-06-19T08:49:31Z</time>
      </trkpt>
      <trkpt lat="42.57701899999999" lon="-1.285478999999999">
        <ele>400.483</ele>
        <time>2022-06-19T08:49:38Z</time>
      </trkpt>
      <trkpt lat="42.57708199999999" lon="-1.2857849999999988">
        <ele>401.637</ele>
        <time>2022-06-19T08:49:46Z</time>
      </trkpt>
      <trkpt lat="42.57710999999999" lon="-1.2859319999999987">
        <ele>402.689</ele>
        <time>2022-06-19T08:49:50Z</time>
      </trkpt>
      <trkpt lat="42.57714499999999" lon="-1.2860519999999986">
        <ele>403.075</ele>
        <time>2022-06-19T08:49:53Z</time>
      </trkpt>
      <trkpt lat="42.57723799999999" lon="-1.2863139999999986">
        <ele>403.229</ele>
        <time>2022-06-19T08:49:59Z</time>
      </trkpt>
      <trkpt lat="42.57726199999999" lon="-1.2864669999999987">
        <ele>403.422</ele>
        <time>2022-06-19T08:50:02Z</time>
      </trkpt>
      <trkpt lat="42.57728199999999" lon="-1.2866089999999988">
        <ele>403.481</ele>
        <time>2022-06-19T08:50:05Z</time>
      </trkpt>
      <trkpt lat="42.577378999999986" lon="-1.2869239999999988">
        <ele>403.657</ele>
        <time>2022-06-19T08:50:12Z</time>
      </trkpt>
      <trkpt lat="42.57738099999999" lon="-1.287014999999999">
        <ele>403.600</ele>
        <time>2022-06-19T08:50:14Z</time>
      </trkpt>
      <trkpt lat="42.57736299999999" lon="-1.287046999999999">
        <ele>403.820</ele>
        <time>2022-06-19T08:50:15Z</time>
      </trkpt>
      <trkpt lat="42.57733699999999" lon="-1.287061999999999">
        <ele>403.809</ele>
        <time>2022-06-19T08:50:16Z</time>
      </trkpt>
      <trkpt lat="42.57725899999999" lon="-1.287085999999999">
        <ele>404.026</ele>
        <time>2022-06-19T08:50:18Z</time>
      </trkpt>
      <trkpt lat="42.57708199999999" lon="-1.2871339999999991">
        <ele>403.885</ele>
        <time>2022-06-19T08:50:24Z</time>
      </trkpt>
      <trkpt lat="42.57691199999999" lon="-1.2871439999999992">
        <ele>403.830</ele>
        <time>2022-06-19T08:50:30Z</time>
      </trkpt>
      <trkpt lat="42.57688799999999" lon="-1.2871429999999993">
        <ele>403.884</ele>
        <time>2022-06-19T08:50:31Z</time>
      </trkpt>
      <trkpt lat="42.57675499999999" lon="-1.2871749999999993">
        <ele>403.826</ele>
        <time>2022-06-19T08:50:36Z</time>
      </trkpt>
      <trkpt lat="42.57657199999999" lon="-1.2872069999999993">
        <ele>404.862</ele>
        <time>2022-06-19T08:50:42Z</time>
      </trkpt>
      <trkpt lat="42.57653899999999" lon="-1.2872119999999994">
        <ele>405.076</ele>
        <time>2022-06-19T08:50:43Z</time>
      </trkpt>
      <trkpt lat="42.57638299999999" lon="-1.2872299999999994">
        <ele>406.049</ele>
        <time>2022-06-19T08:50:48Z</time>
      </trkpt>
      <trkpt lat="42.576347999999996" lon="-1.2872349999999995">
        <ele>406.038</ele>
        <time>2022-06-19T08:50:49Z</time>
      </trkpt>
      <trkpt lat="42.576083999999994" lon="-1.2872759999999994">
        <ele>406.896</ele>
        <time>2022-06-19T08:50:56Z</time>
      </trkpt>
      <trkpt lat="42.57600599999999" lon="-1.2873089999999994">
        <ele>407.231</ele>
        <time>2022-06-19T08:50:58Z</time>
      </trkpt>
      <trkpt lat="42.575861999999994" lon="-1.2874399999999995">
        <ele>407.424</ele>
        <time>2022-06-19T08:51:02Z</time>
      </trkpt>
      <trkpt lat="42.57572999999999" lon="-1.2876609999999995">
        <ele>407.809</ele>
        <time>2022-06-19T08:51:07Z</time>
      </trkpt>
      <trkpt lat="42.575709999999994" lon="-1.2877079999999994">
        <ele>408.020</ele>
        <time>2022-06-19T08:51:08Z</time>
      </trkpt>
      <trkpt lat="42.57563999999999" lon="-1.2879269999999994">
        <ele>409.269</ele>
        <time>2022-06-19T08:51:13Z</time>
      </trkpt>
      <trkpt lat="42.57561599999999" lon="-1.2880639999999994">
        <ele>409.634</ele>
        <time>2022-06-19T08:51:16Z</time>
      </trkpt>
      <trkpt lat="42.57560499999999" lon="-1.2881909999999994">
        <ele>410.678</ele>
        <time>2022-06-19T08:51:19Z</time>
      </trkpt>
      <trkpt lat="42.57558799999999" lon="-1.2883609999999994">
        <ele>411.420</ele>
        <time>2022-06-19T08:51:23Z</time>
      </trkpt>
      <trkpt lat="42.57558499999999" lon="-1.2884039999999994">
        <ele>411.666</ele>
        <time>2022-06-19T08:51:24Z</time>
      </trkpt>
      <trkpt lat="42.57556599999999" lon="-1.2887029999999995">
        <ele>412.270</ele>
        <time>2022-06-19T08:51:31Z</time>
      </trkpt>
      <trkpt lat="42.57555499999999" lon="-1.2888629999999994">
        <ele>412.873</ele>
        <time>2022-06-19T08:51:35Z</time>
      </trkpt>
      <trkpt lat="42.575541999999984" lon="-1.2890729999999995">
        <ele>413.862</ele>
        <time>2022-06-19T08:51:40Z</time>
      </trkpt>
      <trkpt lat="42.575541999999984" lon="-1.2891599999999994">
        <ele>414.087</ele>
        <time>2022-06-19T08:51:42Z</time>
      </trkpt>
      <trkpt lat="42.575549999999986" lon="-1.2893239999999995">
        <ele>415.042</ele>
        <time>2022-06-19T08:51:46Z</time>
      </trkpt>
      <trkpt lat="42.575552999999985" lon="-1.2893639999999995">
        <ele>415.226</ele>
        <time>2022-06-19T08:51:47Z</time>
      </trkpt>
      <trkpt lat="42.57557999999999" lon="-1.2895679999999996">
        <ele>416.209</ele>
        <time>2022-06-19T08:51:52Z</time>
      </trkpt>
      <trkpt lat="42.57558799999999" lon="-1.2896079999999996">
        <ele>416.469</ele>
        <time>2022-06-19T08:51:53Z</time>
      </trkpt>
      <trkpt lat="42.57563599999999" lon="-1.2897759999999996">
        <ele>417.448</ele>
        <time>2022-06-19T08:51:57Z</time>
      </trkpt>
      <trkpt lat="42.57566399999999" lon="-1.2898669999999997">
        <ele>417.643</ele>
        <time>2022-06-19T08:51:59Z</time>
      </trkpt>
      <trkpt lat="42.57574899999999" lon="-1.2900979999999997">
        <ele>418.447</ele>
        <time>2022-06-19T08:52:04Z</time>
      </trkpt>
      <trkpt lat="42.57583899999999" lon="-1.2903429999999998">
        <ele>418.859</ele>
        <time>2022-06-19T08:52:09Z</time>
      </trkpt>
      <trkpt lat="42.57589399999999" lon="-1.2904779999999998">
        <ele>419.285</ele>
        <time>2022-06-19T08:52:12Z</time>
      </trkpt>
      <trkpt lat="42.57594799999999" lon="-1.2906329999999997">
        <ele>419.469</ele>
        <time>2022-06-19T08:52:15Z</time>
      </trkpt>
      <trkpt lat="42.57602299999999" lon="-1.2908439999999997">
        <ele>419.672</ele>
        <time>2022-06-19T08:52:19Z</time>
      </trkpt>
      <trkpt lat="42.57612799999999" lon="-1.2912309999999996">
        <ele>420.681</ele>
        <time>2022-06-19T08:52:27Z</time>
      </trkpt>
      <trkpt lat="42.57615999999999" lon="-1.2915319999999997">
        <ele>421.687</ele>
        <time>2022-06-19T08:52:33Z</time>
      </trkpt>
      <trkpt lat="42.576168999999986" lon="-1.2918129999999997">
        <ele>422.242</ele>
        <time>2022-06-19T08:52:39Z</time>
      </trkpt>
      <trkpt lat="42.576168999999986" lon="-1.2919959999999997">
        <ele>422.826</ele>
        <time>2022-06-19T08:52:43Z</time>
      </trkpt>
      <trkpt lat="42.57616999999998" lon="-1.2920429999999996">
        <ele>422.809</ele>
        <time>2022-06-19T08:52:44Z</time>
      </trkpt>
      <trkpt lat="42.576180999999984" lon="-1.2923109999999995">
        <ele>423.839</ele>
        <time>2022-06-19T08:52:50Z</time>
      </trkpt>
      <trkpt lat="42.57618199999998" lon="-1.2923559999999996">
        <ele>424.288</ele>
        <time>2022-06-19T08:52:51Z</time>
      </trkpt>
      <trkpt lat="42.57618699999998" lon="-1.2925299999999995">
        <ele>424.853</ele>
        <time>2022-06-19T08:52:55Z</time>
      </trkpt>
      <trkpt lat="42.576183999999984" lon="-1.2926649999999995">
        <ele>425.237</ele>
        <time>2022-06-19T08:52:58Z</time>
      </trkpt>
      <trkpt lat="42.576188999999985" lon="-1.2928409999999995">
        <ele>426.039</ele>
        <time>2022-06-19T08:53:02Z</time>
      </trkpt>
      <trkpt lat="42.576188999999985" lon="-1.2930159999999995">
        <ele>426.895</ele>
        <time>2022-06-19T08:53:06Z</time>
      </trkpt>
      <trkpt lat="42.576191999999985" lon="-1.2930989999999996">
        <ele>427.229</ele>
        <time>2022-06-19T08:53:08Z</time>
      </trkpt>
      <trkpt lat="42.57618999999998" lon="-1.2933129999999995">
        <ele>428.462</ele>
        <time>2022-06-19T08:53:13Z</time>
      </trkpt>
      <trkpt lat="42.57619099999998" lon="-1.2933559999999995">
        <ele>428.451</ele>
        <time>2022-06-19T08:53:14Z</time>
      </trkpt>
      <trkpt lat="42.57619899999998" lon="-1.2934839999999994">
        <ele>428.881</ele>
        <time>2022-06-19T08:53:17Z</time>
      </trkpt>
      <trkpt lat="42.57619899999998" lon="-1.2935689999999993">
        <ele>429.661</ele>
        <time>2022-06-19T08:53:19Z</time>
      </trkpt>
      <trkpt lat="42.57620499999998" lon="-1.2936549999999993">
        <ele>430.017</ele>
        <time>2022-06-19T08:53:21Z</time>
      </trkpt>
      <trkpt lat="42.57621299999998" lon="-1.2938239999999994">
        <ele>430.609</ele>
        <time>2022-06-19T08:53:25Z</time>
      </trkpt>
      <trkpt lat="42.576228999999984" lon="-1.2939879999999995">
        <ele>431.679</ele>
        <time>2022-06-19T08:53:29Z</time>
      </trkpt>
      <trkpt lat="42.576230999999986" lon="-1.2940309999999995">
        <ele>431.878</ele>
        <time>2022-06-19T08:53:30Z</time>
      </trkpt>
      <trkpt lat="42.576250999999985" lon="-1.2941869999999995">
        <ele>432.813</ele>
        <time>2022-06-19T08:53:34Z</time>
      </trkpt>
      <trkpt lat="42.576253999999985" lon="-1.2942289999999996">
        <ele>433.087</ele>
        <time>2022-06-19T08:53:35Z</time>
      </trkpt>
      <trkpt lat="42.576273999999984" lon="-1.2943979999999997">
        <ele>434.069</ele>
        <time>2022-06-19T08:53:39Z</time>
      </trkpt>
      <trkpt lat="42.57628399999999" lon="-1.2945189999999998">
        <ele>434.275</ele>
        <time>2022-06-19T08:53:42Z</time>
      </trkpt>
      <trkpt lat="42.57629699999999" lon="-1.2946759999999997">
        <ele>435.259</ele>
        <time>2022-06-19T08:53:46Z</time>
      </trkpt>
      <trkpt lat="42.57631499999999" lon="-1.2947669999999998">
        <ele>435.662</ele>
        <time>2022-06-19T08:53:48Z</time>
      </trkpt>
      <trkpt lat="42.57633599999998" lon="-1.2949169999999999">
        <ele>436.461</ele>
        <time>2022-06-19T08:53:52Z</time>
      </trkpt>
      <trkpt lat="42.57635299999998" lon="-1.2950069999999998">
        <ele>436.867</ele>
        <time>2022-06-19T08:53:54Z</time>
      </trkpt>
      <trkpt lat="42.576382999999986" lon="-1.2951659999999998">
        <ele>437.481</ele>
        <time>2022-06-19T08:53:58Z</time>
      </trkpt>
      <trkpt lat="42.57640699999999" lon="-1.295246">
        <ele>437.819</ele>
        <time>2022-06-19T08:54:00Z</time>
      </trkpt>
      <trkpt lat="42.576427999999986" lon="-1.295327">
        <ele>438.009</ele>
        <time>2022-06-19T08:54:02Z</time>
      </trkpt>
      <trkpt lat="42.576456999999984" lon="-1.2954469999999998">
        <ele>438.437</ele>
        <time>2022-06-19T08:54:05Z</time>
      </trkpt>
      <trkpt lat="42.57651699999998" lon="-1.2956559999999997">
        <ele>438.896</ele>
        <time>2022-06-19T08:54:10Z</time>
      </trkpt>
      <trkpt lat="42.57658099999998" lon="-1.2958699999999996">
        <ele>439.451</ele>
        <time>2022-06-19T08:54:15Z</time>
      </trkpt>
      <trkpt lat="42.57662999999998" lon="-1.2960399999999996">
        <ele>440.065</ele>
        <time>2022-06-19T08:54:19Z</time>
      </trkpt>
      <trkpt lat="42.57666899999998" lon="-1.2961609999999997">
        <ele>440.637</ele>
        <time>2022-06-19T08:54:22Z</time>
      </trkpt>
      <trkpt lat="42.576743999999984" lon="-1.2963819999999997">
        <ele>441.233</ele>
        <time>2022-06-19T08:54:27Z</time>
      </trkpt>
      <trkpt lat="42.57678699999998" lon="-1.2965109999999997">
        <ele>441.637</ele>
        <time>2022-06-19T08:54:30Z</time>
      </trkpt>
      <trkpt lat="42.576824999999985" lon="-1.2966449999999998">
        <ele>442.030</ele>
        <time>2022-06-19T08:54:33Z</time>
      </trkpt>
      <trkpt lat="42.576897999999986" lon="-1.2968709999999999">
        <ele>442.829</ele>
        <time>2022-06-19T08:54:38Z</time>
      </trkpt>
      <trkpt lat="42.576923999999984" lon="-1.2969659999999998">
        <ele>443.023</ele>
        <time>2022-06-19T08:54:40Z</time>
      </trkpt>
      <trkpt lat="42.57698399999998" lon="-1.2971629999999998">
        <ele>443.883</ele>
        <time>2022-06-19T08:54:44Z</time>
      </trkpt>
      <trkpt lat="42.57704899999998" lon="-1.2973659999999998">
        <ele>444.411</ele>
        <time>2022-06-19T08:54:48Z</time>
      </trkpt>
      <trkpt lat="42.57709999999998" lon="-1.2975289999999997">
        <ele>444.809</ele>
        <time>2022-06-19T08:54:51Z</time>
      </trkpt>
      <trkpt lat="42.57714699999998" lon="-1.2977029999999996">
        <ele>445.283</ele>
        <time>2022-06-19T08:54:54Z</time>
      </trkpt>
      <trkpt lat="42.57720099999998" lon="-1.2979009999999995">
        <ele>445.622</ele>
        <time>2022-06-19T08:54:57Z</time>
      </trkpt>
      <trkpt lat="42.57730499999998" lon="-1.2983809999999996">
        <ele>445.677</ele>
        <time>2022-06-19T08:55:03Z</time>
      </trkpt>
      <trkpt lat="42.57745499999998" lon="-1.2991119999999996">
        <ele>444.611</ele>
        <time>2022-06-19T08:55:11Z</time>
      </trkpt>
      <trkpt lat="42.57753399999998" lon="-1.2995099999999995">
        <ele>443.873</ele>
        <time>2022-06-19T08:55:15Z</time>
      </trkpt>
      <trkpt lat="42.57760299999998" lon="-1.2998159999999994">
        <ele>443.419</ele>
        <time>2022-06-19T08:55:18Z</time>
      </trkpt>
      <trkpt lat="42.57770799999998" lon="-1.3002329999999993">
        <ele>442.823</ele>
        <time>2022-06-19T08:55:22Z</time>
      </trkpt>
      <trkpt lat="42.57781299999998" lon="-1.3006699999999993">
        <ele>442.466</ele>
        <time>2022-06-19T08:55:26Z</time>
      </trkpt>
      <trkpt lat="42.577883999999976" lon="-1.3010179999999993">
        <ele>441.675</ele>
        <time>2022-06-19T08:55:29Z</time>
      </trkpt>
      <trkpt lat="42.57800399999998" lon="-1.3016199999999993">
        <ele>441.497</ele>
        <time>2022-06-19T08:55:34Z</time>
      </trkpt>
      <trkpt lat="42.57812999999998" lon="-1.3023759999999993">
        <ele>440.823</ele>
        <time>2022-06-19T08:55:40Z</time>
      </trkpt>
      <trkpt lat="42.57815499999998" lon="-1.3026419999999994">
        <ele>440.625</ele>
        <time>2022-06-19T08:55:42Z</time>
      </trkpt>
      <trkpt lat="42.57816299999998" lon="-1.3027749999999994">
        <ele>440.609</ele>
        <time>2022-06-19T08:55:43Z</time>
      </trkpt>
      <trkpt lat="42.57817199999998" lon="-1.3029059999999995">
        <ele>440.470</ele>
        <time>2022-06-19T08:55:44Z</time>
      </trkpt>
      <trkpt lat="42.57819999999998" lon="-1.3035719999999995">
        <ele>439.249</ele>
        <time>2022-06-19T08:55:49Z</time>
      </trkpt>
      <trkpt lat="42.57821399999998" lon="-1.3039639999999995">
        <ele>438.094</ele>
        <time>2022-06-19T08:55:52Z</time>
      </trkpt>
      <trkpt lat="42.57821699999998" lon="-1.3044729999999995">
        <ele>437.458</ele>
        <time>2022-06-19T08:55:56Z</time>
      </trkpt>
      <trkpt lat="42.57821499999998" lon="-1.3052269999999995">
        <ele>437.020</ele>
        <time>2022-06-19T08:56:02Z</time>
      </trkpt>
      <trkpt lat="42.57821699999998" lon="-1.3053489999999994">
        <ele>436.826</ele>
        <time>2022-06-19T08:56:03Z</time>
      </trkpt>
      <trkpt lat="42.57823799999998" lon="-1.3058299999999994">
        <ele>436.450</ele>
        <time>2022-06-19T08:56:07Z</time>
      </trkpt>
      <trkpt lat="42.57825399999998" lon="-1.3064049999999994">
        <ele>435.853</ele>
        <time>2022-06-19T08:56:12Z</time>
      </trkpt>
      <trkpt lat="42.57826199999998" lon="-1.3067289999999994">
        <ele>435.882</ele>
        <time>2022-06-19T08:56:15Z</time>
      </trkpt>
      <trkpt lat="42.57826699999998" lon="-1.3068319999999993">
        <ele>435.646</ele>
        <time>2022-06-19T08:56:16Z</time>
      </trkpt>
      <trkpt lat="42.578285999999984" lon="-1.3074109999999994">
        <ele>435.888</ele>
        <time>2022-06-19T08:56:22Z</time>
      </trkpt>
      <trkpt lat="42.578304999999986" lon="-1.3081139999999993">
        <ele>436.416</ele>
        <time>2022-06-19T08:56:30Z</time>
      </trkpt>
      <trkpt lat="42.57834899999999" lon="-1.3086219999999993">
        <ele>436.809</ele>
        <time>2022-06-19T08:56:36Z</time>
      </trkpt>
      <trkpt lat="42.57837199999999" lon="-1.3087989999999994">
        <ele>437.085</ele>
        <time>2022-06-19T08:56:38Z</time>
      </trkpt>
      <trkpt lat="42.578479999999985" lon="-1.3095409999999994">
        <ele>437.094</ele>
        <time>2022-06-19T08:56:46Z</time>
      </trkpt>
      <trkpt lat="42.57849499999998" lon="-1.3096339999999993">
        <ele>436.869</ele>
        <time>2022-06-19T08:56:47Z</time>
      </trkpt>
      <trkpt lat="42.57861399999998" lon="-1.3103999999999993">
        <ele>436.073</ele>
        <time>2022-06-19T08:56:55Z</time>
      </trkpt>
      <trkpt lat="42.57864499999998" lon="-1.3105939999999994">
        <ele>435.815</ele>
        <time>2022-06-19T08:56:57Z</time>
      </trkpt>
      <trkpt lat="42.57865799999998" lon="-1.3106919999999993">
        <ele>435.861</ele>
        <time>2022-06-19T08:56:58Z</time>
      </trkpt>
      <trkpt lat="42.57876799999998" lon="-1.3114349999999992">
        <ele>435.875</ele>
        <time>2022-06-19T08:57:06Z</time>
      </trkpt>
      <trkpt lat="42.57879299999998" lon="-1.3116049999999992">
        <ele>435.828</ele>
        <time>2022-06-19T08:57:08Z</time>
      </trkpt>
      <trkpt lat="42.57887599999998" lon="-1.3121699999999992">
        <ele>436.257</ele>
        <time>2022-06-19T08:57:15Z</time>
      </trkpt>
      <trkpt lat="42.57892199999998" lon="-1.3124689999999992">
        <ele>437.024</ele>
        <time>2022-06-19T08:57:19Z</time>
      </trkpt>
      <trkpt lat="42.57897199999998" lon="-1.3127709999999992">
        <ele>437.204</ele>
        <time>2022-06-19T08:57:23Z</time>
      </trkpt>
      <trkpt lat="42.57905099999998" lon="-1.3133719999999993">
        <ele>437.614</ele>
        <time>2022-06-19T08:57:31Z</time>
      </trkpt>
      <trkpt lat="42.57909599999998" lon="-1.3136619999999992">
        <ele>437.809</ele>
        <time>2022-06-19T08:57:35Z</time>
      </trkpt>
      <trkpt lat="42.57916799999998" lon="-1.3141119999999993">
        <ele>438.293</ele>
        <time>2022-06-19T08:57:41Z</time>
      </trkpt>
      <trkpt lat="42.57919399999998" lon="-1.3142619999999994">
        <ele>438.282</ele>
        <time>2022-06-19T08:57:43Z</time>
      </trkpt>
      <trkpt lat="42.57934199999998" lon="-1.3150329999999995">
        <ele>438.487</ele>
        <time>2022-06-19T08:57:52Z</time>
      </trkpt>
      <trkpt lat="42.57950099999998" lon="-1.3157469999999996">
        <ele>438.081</ele>
        <time>2022-06-19T08:58:00Z</time>
      </trkpt>
      <trkpt lat="42.57951799999998" lon="-1.3158349999999996">
        <ele>438.073</ele>
        <time>2022-06-19T08:58:01Z</time>
      </trkpt>
      <trkpt lat="42.57964699999998" lon="-1.3164209999999996">
        <ele>437.849</ele>
        <time>2022-06-19T08:58:08Z</time>
      </trkpt>
      <trkpt lat="42.57977199999998" lon="-1.3169809999999995">
        <ele>438.093</ele>
        <time>2022-06-19T08:58:15Z</time>
      </trkpt>
      <trkpt lat="42.57978799999998" lon="-1.3170589999999995">
        <ele>438.086</ele>
        <time>2022-06-19T08:58:16Z</time>
      </trkpt>
      <trkpt lat="42.579957999999976" lon="-1.3178029999999996">
        <ele>438.415</ele>
        <time>2022-06-19T08:58:26Z</time>
      </trkpt>
      <trkpt lat="42.58008699999998" lon="-1.3183839999999996">
        <ele>438.858</ele>
        <time>2022-06-19T08:58:34Z</time>
      </trkpt>
      <trkpt lat="42.58018299999998" lon="-1.3188129999999996">
        <ele>439.252</ele>
        <time>2022-06-19T08:58:40Z</time>
      </trkpt>
      <trkpt lat="42.58032799999998" lon="-1.3193799999999996">
        <ele>439.617</ele>
        <time>2022-06-19T08:58:48Z</time>
      </trkpt>
      <trkpt lat="42.58044099999998" lon="-1.3197789999999996">
        <ele>440.409</ele>
        <time>2022-06-19T08:58:54Z</time>
      </trkpt>
      <trkpt lat="42.58046299999998" lon="-1.3198459999999996">
        <ele>440.466</ele>
        <time>2022-06-19T08:58:55Z</time>
      </trkpt>
      <trkpt lat="42.58057599999998" lon="-1.3202429999999996">
        <ele>441.445</ele>
        <time>2022-06-19T08:59:01Z</time>
      </trkpt>
      <trkpt lat="42.580658999999976" lon="-1.3205079999999996">
        <ele>441.870</ele>
        <time>2022-06-19T08:59:05Z</time>
      </trkpt>
      <trkpt lat="42.58079099999998" lon="-1.3209749999999996">
        <ele>442.494</ele>
        <time>2022-06-19T08:59:12Z</time>
      </trkpt>
      <trkpt lat="42.58084299999997" lon="-1.3211749999999995">
        <ele>442.616</ele>
        <time>2022-06-19T08:59:15Z</time>
      </trkpt>
      <trkpt lat="42.580971999999974" lon="-1.3217979999999996">
        <ele>443.482</ele>
        <time>2022-06-19T08:59:24Z</time>
      </trkpt>
      <trkpt lat="42.580993999999976" lon="-1.3219439999999996">
        <ele>443.836</ele>
        <time>2022-06-19T08:59:26Z</time>
      </trkpt>
      <trkpt lat="42.581033999999974" lon="-1.3222339999999995">
        <ele>444.059</ele>
        <time>2022-06-19T08:59:30Z</time>
      </trkpt>
      <trkpt lat="42.58109199999998" lon="-1.3226699999999996">
        <ele>444.028</ele>
        <time>2022-06-19T08:59:36Z</time>
      </trkpt>
      <trkpt lat="42.58120099999998" lon="-1.3233969999999995">
        <ele>444.487</ele>
        <time>2022-06-19T08:59:46Z</time>
      </trkpt>
      <trkpt lat="42.58122499999998" lon="-1.3235419999999996">
        <ele>444.642</ele>
        <time>2022-06-19T08:59:48Z</time>
      </trkpt>
      <trkpt lat="42.581288999999984" lon="-1.3240449999999995">
        <ele>445.026</ele>
        <time>2022-06-19T08:59:55Z</time>
      </trkpt>
      <trkpt lat="42.58134299999998" lon="-1.3244699999999994">
        <ele>445.409</ele>
        <time>2022-06-19T09:00:01Z</time>
      </trkpt>
      <trkpt lat="42.581361999999984" lon="-1.3246119999999995">
        <ele>445.479</ele>
        <time>2022-06-19T09:00:03Z</time>
      </trkpt>
      <trkpt lat="42.58137999999998" lon="-1.3247579999999994">
        <ele>445.698</ele>
        <time>2022-06-19T09:00:05Z</time>
      </trkpt>
      <trkpt lat="42.58147399999998" lon="-1.3254499999999994">
        <ele>446.263</ele>
        <time>2022-06-19T09:00:15Z</time>
      </trkpt>
      <trkpt lat="42.58150099999998" lon="-1.3256589999999993">
        <ele>446.647</ele>
        <time>2022-06-19T09:00:18Z</time>
      </trkpt>
      <trkpt lat="42.58154999999998" lon="-1.3261329999999993">
        <ele>447.259</ele>
        <time>2022-06-19T09:00:25Z</time>
      </trkpt>
      <trkpt lat="42.58158299999998" lon="-1.3266009999999993">
        <ele>447.685</ele>
        <time>2022-06-19T09:00:32Z</time>
      </trkpt>
      <trkpt lat="42.58159099999998" lon="-1.3268059999999993">
        <ele>448.249</ele>
        <time>2022-06-19T09:00:35Z</time>
      </trkpt>
      <trkpt lat="42.58161899999998" lon="-1.3272829999999993">
        <ele>448.832</ele>
        <time>2022-06-19T09:00:42Z</time>
      </trkpt>
      <trkpt lat="42.58164499999998" lon="-1.3277609999999993">
        <ele>449.861</ele>
        <time>2022-06-19T09:00:49Z</time>
      </trkpt>
      <trkpt lat="42.58164899999998" lon="-1.3278279999999993">
        <ele>449.877</ele>
        <time>2022-06-19T09:00:50Z</time>
      </trkpt>
      <trkpt lat="42.581688999999976" lon="-1.3284949999999993">
        <ele>450.861</ele>
        <time>2022-06-19T09:01:00Z</time>
      </trkpt>
      <trkpt lat="42.58172099999997" lon="-1.3289719999999994">
        <ele>452.027</ele>
        <time>2022-06-19T09:01:07Z</time>
      </trkpt>
      <trkpt lat="42.581750999999976" lon="-1.3292479999999993">
        <ele>452.409</ele>
        <time>2022-06-19T09:01:11Z</time>
      </trkpt>
      <trkpt lat="42.58175899999998" lon="-1.3293169999999994">
        <ele>452.438</ele>
        <time>2022-06-19T09:01:12Z</time>
      </trkpt>
      <trkpt lat="42.58181499999998" lon="-1.3297239999999995">
        <ele>453.057</ele>
        <time>2022-06-19T09:01:18Z</time>
      </trkpt>
      <trkpt lat="42.58184199999998" lon="-1.3299299999999994">
        <ele>453.452</ele>
        <time>2022-06-19T09:01:21Z</time>
      </trkpt>
      <trkpt lat="42.58191299999998" lon="-1.3303969999999994">
        <ele>454.286</ele>
        <time>2022-06-19T09:01:28Z</time>
      </trkpt>
      <trkpt lat="42.58194099999998" lon="-1.3306019999999994">
        <ele>454.468</ele>
        <time>2022-06-19T09:01:31Z</time>
      </trkpt>
      <trkpt lat="42.58202999999998" lon="-1.3312169999999994">
        <ele>455.084</ele>
        <time>2022-06-19T09:01:40Z</time>
      </trkpt>
      <trkpt lat="42.58205299999998" lon="-1.3314209999999995">
        <ele>455.058</ele>
        <time>2022-06-19T09:01:43Z</time>
      </trkpt>
      <trkpt lat="42.58209299999998" lon="-1.3319349999999994">
        <ele>455.481</ele>
        <time>2022-06-19T09:01:50Z</time>
      </trkpt>
      <trkpt lat="42.582127999999976" lon="-1.3325189999999993">
        <ele>455.050</ele>
        <time>2022-06-19T09:01:57Z</time>
      </trkpt>
      <trkpt lat="42.58221999999998" lon="-1.3331809999999993">
        <ele>454.071</ele>
        <time>2022-06-19T09:02:05Z</time>
      </trkpt>
      <trkpt lat="42.582234999999976" lon="-1.3332629999999992">
        <ele>454.041</ele>
        <time>2022-06-19T09:02:06Z</time>
      </trkpt>
      <trkpt lat="42.582381999999974" lon="-1.3339049999999992">
        <ele>453.215</ele>
        <time>2022-06-19T09:02:14Z</time>
      </trkpt>
      <trkpt lat="42.582412999999974" lon="-1.3340669999999992">
        <ele>453.009</ele>
        <time>2022-06-19T09:02:16Z</time>
      </trkpt>
      <trkpt lat="42.582566999999976" lon="-1.3347859999999991">
        <ele>452.898</ele>
        <time>2022-06-19T09:02:25Z</time>
      </trkpt>
      <trkpt lat="42.582710999999975" lon="-1.335501999999999">
        <ele>452.457</ele>
        <time>2022-06-19T09:02:34Z</time>
      </trkpt>
      <trkpt lat="42.582727999999975" lon="-1.335582999999999">
        <ele>452.472</ele>
        <time>2022-06-19T09:02:35Z</time>
      </trkpt>
      <trkpt lat="42.58287199999997" lon="-1.3362889999999992">
        <ele>452.466</ele>
        <time>2022-06-19T09:02:44Z</time>
      </trkpt>
      <trkpt lat="42.58297199999998" lon="-1.3370199999999992">
        <ele>452.478</ele>
        <time>2022-06-19T09:02:53Z</time>
      </trkpt>
      <trkpt lat="42.58297699999998" lon="-1.3370999999999993">
        <ele>452.424</ele>
        <time>2022-06-19T09:02:54Z</time>
      </trkpt>
      <trkpt lat="42.58301399999998" lon="-1.3378949999999994">
        <ele>452.268</ele>
        <time>2022-06-19T09:03:04Z</time>
      </trkpt>
      <trkpt lat="42.58302999999998" lon="-1.3386149999999994">
        <ele>452.221</ele>
        <time>2022-06-19T09:03:13Z</time>
      </trkpt>
      <trkpt lat="42.58305299999998" lon="-1.3394169999999994">
        <ele>452.450</ele>
        <time>2022-06-19T09:03:23Z</time>
      </trkpt>
      <trkpt lat="42.58305799999998" lon="-1.3399719999999995">
        <ele>453.088</ele>
        <time>2022-06-19T09:03:30Z</time>
      </trkpt>
      <trkpt lat="42.58306199999998" lon="-1.3401289999999995">
        <ele>453.024</ele>
        <time>2022-06-19T09:03:32Z</time>
      </trkpt>
      <trkpt lat="42.583076999999975" lon="-1.3408839999999995">
        <ele>453.626</ele>
        <time>2022-06-19T09:03:42Z</time>
      </trkpt>
      <trkpt lat="42.58310399999998" lon="-1.3416249999999996">
        <ele>454.009</ele>
        <time>2022-06-19T09:03:52Z</time>
      </trkpt>
      <trkpt lat="42.58310699999998" lon="-1.3416969999999997">
        <ele>454.069</ele>
        <time>2022-06-19T09:03:53Z</time>
      </trkpt>
      <trkpt lat="42.58311499999998" lon="-1.3422089999999998">
        <ele>454.228</ele>
        <time>2022-06-19T09:04:00Z</time>
      </trkpt>
      <trkpt lat="42.58311999999998" lon="-1.3424399999999999">
        <ele>454.453</ele>
        <time>2022-06-19T09:04:03Z</time>
      </trkpt>
      <trkpt lat="42.58313899999998" lon="-1.3431149999999998">
        <ele>454.887</ele>
        <time>2022-06-19T09:04:12Z</time>
      </trkpt>
      <trkpt lat="42.58317899999998" lon="-1.3435599999999999">
        <ele>455.059</ele>
        <time>2022-06-19T09:04:18Z</time>
      </trkpt>
      <trkpt lat="42.58321999999998" lon="-1.343851">
        <ele>455.685</ele>
        <time>2022-06-19T09:04:22Z</time>
      </trkpt>
      <trkpt lat="42.58331899999998" lon="-1.3443349999999998">
        <ele>456.239</ele>
        <time>2022-06-19T09:04:29Z</time>
      </trkpt>
      <trkpt lat="42.58334699999998" lon="-1.344469">
        <ele>456.432</ele>
        <time>2022-06-19T09:04:31Z</time>
      </trkpt>
      <trkpt lat="42.58347999999998" lon="-1.344984">
        <ele>457.091</ele>
        <time>2022-06-19T09:04:39Z</time>
      </trkpt>
      <trkpt lat="42.58349599999998" lon="-1.345048">
        <ele>457.425</ele>
        <time>2022-06-19T09:04:40Z</time>
      </trkpt>
      <trkpt lat="42.58363699999998" lon="-1.345605">
        <ele>458.426</ele>
        <time>2022-06-19T09:04:49Z</time>
      </trkpt>
      <trkpt lat="42.58366299999998" lon="-1.34571">
        <ele>459.008</ele>
        <time>2022-06-19T09:04:53Z</time>
      </trkpt>
      <trkpt lat="42.58366299999998" lon="-1.34571">
        <ele>459.209</ele>
        <time>2022-06-19T09:04:54Z</time>
      </trkpt>
      <trkpt lat="42.58368399999998" lon="-1.345793">
        <ele>460.043</ele>
        <time>2022-06-19T09:05:46Z</time>
      </trkpt>
      <trkpt lat="42.58369399999998" lon="-1.3458350000000001">
        <ele>460.032</ele>
        <time>2022-06-19T09:05:47Z</time>
      </trkpt>
      <trkpt lat="42.58373499999998" lon="-1.34609">
        <ele>460.077</ele>
        <time>2022-06-19T09:05:52Z</time>
      </trkpt>
      <trkpt lat="42.583829999999985" lon="-1.346508">
        <ele>460.231</ele>
        <time>2022-06-19T09:05:59Z</time>
      </trkpt>
      <trkpt lat="42.58384499999998" lon="-1.34657">
        <ele>460.243</ele>
        <time>2022-06-19T09:06:00Z</time>
      </trkpt>
      <trkpt lat="42.583885999999985" lon="-1.346752">
        <ele>460.679</ele>
        <time>2022-06-19T09:06:03Z</time>
      </trkpt>
      <trkpt lat="42.58391799999998" lon="-1.34687">
        <ele>460.863</ele>
        <time>2022-06-19T09:06:05Z</time>
      </trkpt>
      <trkpt lat="42.58393299999998" lon="-1.346932">
        <ele>460.826</ele>
        <time>2022-06-19T09:06:06Z</time>
      </trkpt>
      <trkpt lat="42.58405099999998" lon="-1.347402">
        <ele>462.055</ele>
        <time>2022-06-19T09:06:14Z</time>
      </trkpt>
      <trkpt lat="42.58406699999998" lon="-1.347459">
        <ele>462.057</ele>
        <time>2022-06-19T09:06:15Z</time>
      </trkpt>
      <trkpt lat="42.584214999999986" lon="-1.3479889999999999">
        <ele>462.800</ele>
        <time>2022-06-19T09:06:24Z</time>
      </trkpt>
      <trkpt lat="42.58422799999999" lon="-1.3480489999999998">
        <ele>463.220</ele>
        <time>2022-06-19T09:06:25Z</time>
      </trkpt>
      <trkpt lat="42.58432599999999" lon="-1.3484629999999997">
        <ele>464.209</ele>
        <time>2022-06-19T09:06:32Z</time>
      </trkpt>
      <trkpt lat="42.58434899999999" lon="-1.3485829999999996">
        <ele>464.216</ele>
        <time>2022-06-19T09:06:34Z</time>
      </trkpt>
      <trkpt lat="42.58445199999999" lon="-1.3490619999999995">
        <ele>465.285</ele>
        <time>2022-06-19T09:06:42Z</time>
      </trkpt>
      <trkpt lat="42.584489999999995" lon="-1.3492399999999996">
        <ele>465.440</ele>
        <time>2022-06-19T09:06:45Z</time>
      </trkpt>
      <trkpt lat="42.58461" lon="-1.3496429999999995">
        <ele>466.044</ele>
        <time>2022-06-19T09:06:52Z</time>
      </trkpt>
      <trkpt lat="42.58463" lon="-1.3497019999999995">
        <ele>466.016</ele>
        <time>2022-06-19T09:06:53Z</time>
      </trkpt>
      <trkpt lat="42.584779999999995" lon="-1.3500229999999995">
        <ele>467.062</ele>
        <time>2022-06-19T09:06:59Z</time>
      </trkpt>
      <trkpt lat="42.58483" lon="-1.3501169999999996">
        <ele>467.286</ele>
        <time>2022-06-19T09:07:01Z</time>
      </trkpt>
      <trkpt lat="42.585057" lon="-1.3504919999999996">
        <ele>468.489</ele>
        <time>2022-06-19T09:07:09Z</time>
      </trkpt>
      <trkpt lat="42.585206" lon="-1.3507279999999995">
        <ele>469.628</ele>
        <time>2022-06-19T09:07:14Z</time>
      </trkpt>
      <trkpt lat="42.585411" lon="-1.3510559999999996">
        <ele>470.075</ele>
        <time>2022-06-19T09:07:21Z</time>
      </trkpt>
      <trkpt lat="42.585577" lon="-1.3513369999999996">
        <ele>470.628</ele>
        <time>2022-06-19T09:07:27Z</time>
      </trkpt>
      <trkpt lat="42.585706" lon="-1.3515779999999995">
        <ele>471.220</ele>
        <time>2022-06-19T09:07:32Z</time>
      </trkpt>
      <trkpt lat="42.585812000000004" lon="-1.3518379999999994">
        <ele>471.809</ele>
        <time>2022-06-19T09:07:37Z</time>
      </trkpt>
      <trkpt lat="42.58588100000001" lon="-1.3519869999999994">
        <ele>472.288</ele>
        <time>2022-06-19T09:07:40Z</time>
      </trkpt>
      <trkpt lat="42.58599400000001" lon="-1.3522489999999994">
        <ele>472.847</ele>
        <time>2022-06-19T09:07:45Z</time>
      </trkpt>
      <trkpt lat="42.58607500000001" lon="-1.3524609999999995">
        <ele>473.252</ele>
        <time>2022-06-19T09:07:49Z</time>
      </trkpt>
      <trkpt lat="42.58615400000001" lon="-1.3526679999999995">
        <ele>473.836</ele>
        <time>2022-06-19T09:07:53Z</time>
      </trkpt>
      <trkpt lat="42.586282000000004" lon="-1.3529719999999996">
        <ele>474.458</ele>
        <time>2022-06-19T09:07:59Z</time>
      </trkpt>
      <trkpt lat="42.586423" lon="-1.3533319999999995">
        <ele>474.844</ele>
        <time>2022-06-19T09:08:06Z</time>
      </trkpt>
      <trkpt lat="42.586511" lon="-1.3535379999999995">
        <ele>475.048</ele>
        <time>2022-06-19T09:08:10Z</time>
      </trkpt>
      <trkpt lat="42.586701000000005" lon="-1.3539999999999994">
        <ele>476.031</ele>
        <time>2022-06-19T09:08:19Z</time>
      </trkpt>
      <trkpt lat="42.586721000000004" lon="-1.3540499999999995">
        <ele>476.220</ele>
        <time>2022-06-19T09:08:20Z</time>
      </trkpt>
      <trkpt lat="42.586863" lon="-1.3544099999999994">
        <ele>477.269</ele>
        <time>2022-06-19T09:08:27Z</time>
      </trkpt>
      <trkpt lat="42.586954" lon="-1.3546689999999995">
        <ele>477.804</ele>
        <time>2022-06-19T09:08:32Z</time>
      </trkpt>
      <trkpt lat="42.587024" lon="-1.3548649999999995">
        <ele>478.424</ele>
        <time>2022-06-19T09:08:36Z</time>
      </trkpt>
      <trkpt lat="42.587138" lon="-1.3551449999999996">
        <ele>479.409</ele>
        <time>2022-06-19T09:08:42Z</time>
      </trkpt>
      <trkpt lat="42.587155" lon="-1.3551939999999996">
        <ele>479.667</ele>
        <time>2022-06-19T09:08:43Z</time>
      </trkpt>
      <trkpt lat="42.587307" lon="-1.3556289999999995">
        <ele>480.436</ele>
        <time>2022-06-19T09:08:52Z</time>
      </trkpt>
      <trkpt lat="42.587344" lon="-1.3557199999999996">
        <ele>480.631</ele>
        <time>2022-06-19T09:08:54Z</time>
      </trkpt>
      <trkpt lat="42.587434" lon="-1.3559489999999996">
        <ele>481.615</ele>
        <time>2022-06-19T09:08:59Z</time>
      </trkpt>
      <trkpt lat="42.587471" lon="-1.3560399999999997">
        <ele>482.087</ele>
        <time>2022-06-19T09:09:01Z</time>
      </trkpt>
      <trkpt lat="42.587569" lon="-1.3563209999999997">
        <ele>482.833</ele>
        <time>2022-06-19T09:09:07Z</time>
      </trkpt>
      <trkpt lat="42.587635" lon="-1.3564979999999998">
        <ele>483.667</ele>
        <time>2022-06-19T09:09:11Z</time>
      </trkpt>
      <trkpt lat="42.587671" lon="-1.3565829999999997">
        <ele>484.040</ele>
        <time>2022-06-19T09:09:13Z</time>
      </trkpt>
      <trkpt lat="42.587807" lon="-1.3569549999999997">
        <ele>485.069</ele>
        <time>2022-06-19T09:09:21Z</time>
      </trkpt>
      <trkpt lat="42.587824" lon="-1.3570039999999997">
        <ele>485.264</ele>
        <time>2022-06-19T09:09:22Z</time>
      </trkpt>
      <trkpt lat="42.587968" lon="-1.3573879999999996">
        <ele>486.206</ele>
        <time>2022-06-19T09:09:30Z</time>
      </trkpt>
      <trkpt lat="42.587984" lon="-1.3574349999999995">
        <ele>486.416</ele>
        <time>2022-06-19T09:09:31Z</time>
      </trkpt>
      <trkpt lat="42.588087" lon="-1.3577279999999996">
        <ele>487.409</ele>
        <time>2022-06-19T09:09:37Z</time>
      </trkpt>
      <trkpt lat="42.588190000000004" lon="-1.3580169999999996">
        <ele>488.237</ele>
        <time>2022-06-19T09:09:43Z</time>
      </trkpt>
      <trkpt lat="42.588225" lon="-1.3581149999999995">
        <ele>488.496</ele>
        <time>2022-06-19T09:09:45Z</time>
      </trkpt>
      <trkpt lat="42.588363" lon="-1.3584489999999996">
        <ele>489.421</ele>
        <time>2022-06-19T09:09:52Z</time>
      </trkpt>
      <trkpt lat="42.588387000000004" lon="-1.3584949999999996">
        <ele>489.675</ele>
        <time>2022-06-19T09:09:53Z</time>
      </trkpt>
      <trkpt lat="42.588578000000005" lon="-1.3588269999999996">
        <ele>490.677</ele>
        <time>2022-06-19T09:10:01Z</time>
      </trkpt>
      <trkpt lat="42.588603000000006" lon="-1.3588669999999996">
        <ele>490.653</ele>
        <time>2022-06-19T09:10:02Z</time>
      </trkpt>
      <trkpt lat="42.588702000000005" lon="-1.3590189999999995">
        <ele>491.637</ele>
        <time>2022-06-19T09:10:06Z</time>
      </trkpt>
      <trkpt lat="42.588785" lon="-1.3591649999999995">
        <ele>492.040</ele>
        <time>2022-06-19T09:10:10Z</time>
      </trkpt>
      <trkpt lat="42.588913" lon="-1.3593699999999995">
        <ele>492.819</ele>
        <time>2022-06-19T09:10:16Z</time>
      </trkpt>
      <trkpt lat="42.588994" lon="-1.3595069999999996">
        <ele>493.841</ele>
        <time>2022-06-19T09:10:20Z</time>
      </trkpt>
      <trkpt lat="42.589014" lon="-1.3595429999999995">
        <ele>494.081</ele>
        <time>2022-06-19T09:10:21Z</time>
      </trkpt>
      <trkpt lat="42.589078" lon="-1.3596469999999996">
        <ele>495.009</ele>
        <time>2022-06-19T09:10:24Z</time>
      </trkpt>
      <trkpt lat="42.589174" lon="-1.3598359999999996">
        <ele>496.009</ele>
        <time>2022-06-19T09:10:29Z</time>
      </trkpt>
      <trkpt lat="42.589195" lon="-1.3598769999999996">
        <ele>496.235</ele>
        <time>2022-06-19T09:10:30Z</time>
      </trkpt>
      <trkpt lat="42.589318999999996" lon="-1.3600379999999996">
        <ele>496.864</ele>
        <time>2022-06-19T09:10:35Z</time>
      </trkpt>
      <trkpt lat="42.589437999999994" lon="-1.3600349999999997">
        <ele>497.079</ele>
        <time>2022-06-19T09:10:39Z</time>
      </trkpt>
      <trkpt lat="42.589510999999995" lon="-1.3599549999999996">
        <ele>497.263</ele>
        <time>2022-06-19T09:10:43Z</time>
      </trkpt>
      <trkpt lat="42.589541999999994" lon="-1.3599169999999996">
        <ele>497.665</ele>
        <time>2022-06-19T09:10:45Z</time>
      </trkpt>
      <trkpt lat="42.589597" lon="-1.3598709999999996">
        <ele>498.231</ele>
        <time>2022-06-19T09:10:48Z</time>
      </trkpt>
      <trkpt lat="42.589639999999996" lon="-1.3598489999999996">
        <ele>499.255</ele>
        <time>2022-06-19T09:10:50Z</time>
      </trkpt>
      <trkpt lat="42.58966099999999" lon="-1.3598419999999996">
        <ele>499.658</ele>
        <time>2022-06-19T09:10:51Z</time>
      </trkpt>
      <trkpt lat="42.58969799999999" lon="-1.3598209999999995">
        <ele>500.227</ele>
        <time>2022-06-19T09:10:53Z</time>
      </trkpt>
      <trkpt lat="42.58973299999999" lon="-1.3597949999999994">
        <ele>500.822</ele>
        <time>2022-06-19T09:10:55Z</time>
      </trkpt>
      <trkpt lat="42.58977999999999" lon="-1.3597709999999994">
        <ele>501.662</ele>
        <time>2022-06-19T09:10:58Z</time>
      </trkpt>
      <trkpt lat="42.58979399999999" lon="-1.3597599999999994">
        <ele>501.808</ele>
        <time>2022-06-19T09:10:59Z</time>
      </trkpt>
      <trkpt lat="42.58983599999999" lon="-1.3597179999999993">
        <ele>503.009</ele>
        <time>2022-06-19T09:11:02Z</time>
      </trkpt>
      <trkpt lat="42.589876999999994" lon="-1.3596849999999994">
        <ele>503.823</ele>
        <time>2022-06-19T09:11:05Z</time>
      </trkpt>
      <trkpt lat="42.58988899999999" lon="-1.3596699999999993">
        <ele>504.272</ele>
        <time>2022-06-19T09:11:06Z</time>
      </trkpt>
      <trkpt lat="42.58996299999999" lon="-1.3596279999999992">
        <ele>505.217</ele>
        <time>2022-06-19T09:11:11Z</time>
      </trkpt>
      <trkpt lat="42.58997899999999" lon="-1.3596199999999992">
        <ele>505.621</ele>
        <time>2022-06-19T09:11:12Z</time>
      </trkpt>
      <trkpt lat="42.59002099999999" lon="-1.359593999999999">
        <ele>506.283</ele>
        <time>2022-06-19T09:11:15Z</time>
      </trkpt>
      <trkpt lat="42.59005499999999" lon="-1.359561999999999">
        <ele>507.259</ele>
        <time>2022-06-19T09:11:18Z</time>
      </trkpt>
      <trkpt lat="42.59006899999999" lon="-1.359548999999999">
        <ele>507.453</ele>
        <time>2022-06-19T09:11:19Z</time>
      </trkpt>
      <trkpt lat="42.590123999999996" lon="-1.359497999999999">
        <ele>508.856</ele>
        <time>2022-06-19T09:11:23Z</time>
      </trkpt>
      <trkpt lat="42.590166999999994" lon="-1.359465999999999">
        <ele>509.875</ele>
        <time>2022-06-19T09:11:26Z</time>
      </trkpt>
      <trkpt lat="42.59018199999999" lon="-1.359456999999999">
        <ele>510.047</ele>
        <time>2022-06-19T09:11:27Z</time>
      </trkpt>
      <trkpt lat="42.59020799999999" lon="-1.359443999999999">
        <ele>510.629</ele>
        <time>2022-06-19T09:11:29Z</time>
      </trkpt>
      <trkpt lat="42.59023899999999" lon="-1.359448999999999">
        <ele>511.221</ele>
        <time>2022-06-19T09:11:31Z</time>
      </trkpt>
      <trkpt lat="42.59025299999999" lon="-1.359459999999999">
        <ele>511.409</ele>
        <time>2022-06-19T09:11:32Z</time>
      </trkpt>
      <trkpt lat="42.59028199999999" lon="-1.359489999999999">
        <ele>511.825</ele>
        <time>2022-06-19T09:11:34Z</time>
      </trkpt>
      <trkpt lat="42.59030999999999" lon="-1.359518999999999">
        <ele>512.264</ele>
        <time>2022-06-19T09:11:36Z</time>
      </trkpt>
      <trkpt lat="42.590335999999986" lon="-1.359539999999999">
        <ele>512.429</ele>
        <time>2022-06-19T09:11:38Z</time>
      </trkpt>
      <trkpt lat="42.59036399999999" lon="-1.359593999999999">
        <ele>513.083</ele>
        <time>2022-06-19T09:11:41Z</time>
      </trkpt>
      <trkpt lat="42.590372999999985" lon="-1.3596119999999992">
        <ele>513.275</ele>
        <time>2022-06-19T09:11:42Z</time>
      </trkpt>
      <trkpt lat="42.590398999999984" lon="-1.3596649999999992">
        <ele>513.821</ele>
        <time>2022-06-19T09:11:45Z</time>
      </trkpt>
      <trkpt lat="42.590423999999985" lon="-1.3596989999999993">
        <ele>514.255</ele>
        <time>2022-06-19T09:11:47Z</time>
      </trkpt>
      <trkpt lat="42.59048399999998" lon="-1.3597819999999994">
        <ele>515.478</ele>
        <time>2022-06-19T09:11:52Z</time>
      </trkpt>
      <trkpt lat="42.59053799999998" lon="-1.3598639999999993">
        <ele>516.677</ele>
        <time>2022-06-19T09:11:57Z</time>
      </trkpt>
      <trkpt lat="42.590550999999984" lon="-1.3598809999999992">
        <ele>516.865</ele>
        <time>2022-06-19T09:11:58Z</time>
      </trkpt>
      <trkpt lat="42.59058899999999" lon="-1.3599109999999992">
        <ele>517.668</ele>
        <time>2022-06-19T09:12:01Z</time>
      </trkpt>
      <trkpt lat="42.59061399999999" lon="-1.3599299999999992">
        <ele>518.014</ele>
        <time>2022-06-19T09:12:03Z</time>
      </trkpt>
      <trkpt lat="42.59062699999999" lon="-1.3599189999999992">
        <ele>518.009</ele>
        <time>2022-06-19T09:12:04Z</time>
      </trkpt>
      <trkpt lat="42.59066399999999" lon="-1.3598299999999992">
        <ele>518.867</ele>
        <time>2022-06-19T09:12:09Z</time>
      </trkpt>
      <trkpt lat="42.59066899999999" lon="-1.3597889999999992">
        <ele>519.446</ele>
        <time>2022-06-19T09:12:11Z</time>
      </trkpt>
      <trkpt lat="42.59068699999999" lon="-1.3597069999999993">
        <ele>520.081</ele>
        <time>2022-06-19T09:12:15Z</time>
      </trkpt>
      <trkpt lat="42.59071199999999" lon="-1.3596049999999993">
        <ele>520.875</ele>
        <time>2022-06-19T09:12:20Z</time>
      </trkpt>
      <trkpt lat="42.59071699999999" lon="-1.3595879999999994">
        <ele>521.077</ele>
        <time>2022-06-19T09:12:21Z</time>
      </trkpt>
      <trkpt lat="42.59073699999999" lon="-1.3594979999999994">
        <ele>522.233</ele>
        <time>2022-06-19T09:12:26Z</time>
      </trkpt>
      <trkpt lat="42.59074199999999" lon="-1.3594839999999995">
        <ele>522.287</ele>
        <time>2022-06-19T09:12:27Z</time>
      </trkpt>
      <trkpt lat="42.59074999999999" lon="-1.3594689999999994">
        <ele>522.290</ele>
        <time>2022-06-19T09:12:28Z</time>
      </trkpt>
      <trkpt lat="42.590807999999996" lon="-1.3594029999999995">
        <ele>523.489</ele>
        <time>2022-06-19T09:12:33Z</time>
      </trkpt>
      <trkpt lat="42.59083999999999" lon="-1.3593979999999994">
        <ele>524.485</ele>
        <time>2022-06-19T09:12:35Z</time>
      </trkpt>
      <trkpt lat="42.59085399999999" lon="-1.3593979999999994">
        <ele>524.689</ele>
        <time>2022-06-19T09:12:36Z</time>
      </trkpt>
      <trkpt lat="42.59093099999999" lon="-1.3594599999999994">
        <ele>525.217</ele>
        <time>2022-06-19T09:12:42Z</time>
      </trkpt>
      <trkpt lat="42.59093899999999" lon="-1.3594739999999994">
        <ele>525.609</ele>
        <time>2022-06-19T09:12:43Z</time>
      </trkpt>
      <trkpt lat="42.59094699999999" lon="-1.3594929999999994">
        <ele>525.849</ele>
        <time>2022-06-19T09:12:44Z</time>
      </trkpt>
      <trkpt lat="42.590979999999995" lon="-1.3596309999999994">
        <ele>527.018</ele>
        <time>2022-06-19T09:12:50Z</time>
      </trkpt>
      <trkpt lat="42.59100599999999" lon="-1.3597259999999993">
        <ele>527.633</ele>
        <time>2022-06-19T09:12:54Z</time>
      </trkpt>
      <trkpt lat="42.59103199999999" lon="-1.3597639999999993">
        <ele>527.827</ele>
        <time>2022-06-19T09:12:56Z</time>
      </trkpt>
      <trkpt lat="42.59105199999999" lon="-1.3597829999999993">
        <ele>527.819</ele>
        <time>2022-06-19T09:12:57Z</time>
      </trkpt>
      <trkpt lat="42.59111599999999" lon="-1.3598469999999994">
        <ele>528.085</ele>
        <time>2022-06-19T09:13:00Z</time>
      </trkpt>
      <trkpt lat="42.591190999999995" lon="-1.3599529999999993">
        <ele>528.259</ele>
        <time>2022-06-19T09:13:04Z</time>
      </trkpt>
      <trkpt lat="42.59130699999999" lon="-1.3600759999999994">
        <ele>528.242</ele>
        <time>2022-06-19T09:13:11Z</time>
      </trkpt>
      <trkpt lat="42.591311999999995" lon="-1.3600789999999994">
        <ele>528.231</ele>
        <time>2022-06-19T09:13:13Z</time>
      </trkpt>
      <trkpt lat="42.591334999999994" lon="-1.3600679999999994">
        <ele>527.457</ele>
        <time>2022-06-19T09:17:12Z</time>
      </trkpt>
      <trkpt lat="42.591401999999995" lon="-1.3602189999999994">
        <ele>527.400</ele>
        <time>2022-06-19T09:17:17Z</time>
      </trkpt>
      <trkpt lat="42.591477" lon="-1.3603369999999995">
        <ele>527.420</ele>
        <time>2022-06-19T09:17:23Z</time>
      </trkpt>
      <trkpt lat="42.591522999999995" lon="-1.3604949999999996">
        <ele>527.209</ele>
        <time>2022-06-19T09:17:29Z</time>
      </trkpt>
      <trkpt lat="42.59157" lon="-1.3606419999999995">
        <ele>526.866</ele>
        <time>2022-06-19T09:17:34Z</time>
      </trkpt>
      <trkpt lat="42.591583" lon="-1.3606799999999994">
        <ele>526.875</ele>
        <time>2022-06-19T09:17:35Z</time>
      </trkpt>
      <trkpt lat="42.591619" lon="-1.3608319999999994">
        <ele>525.810</ele>
        <time>2022-06-19T09:17:39Z</time>
      </trkpt>
      <trkpt lat="42.591627" lon="-1.3608649999999993">
        <ele>525.274</ele>
        <time>2022-06-19T09:17:40Z</time>
      </trkpt>
      <trkpt lat="42.591648" lon="-1.3609409999999993">
        <ele>524.666</ele>
        <time>2022-06-19T09:17:42Z</time>
      </trkpt>
      <trkpt lat="42.591707" lon="-1.3611029999999993">
        <ele>523.462</ele>
        <time>2022-06-19T09:17:46Z</time>
      </trkpt>
      <trkpt lat="42.591726" lon="-1.3611369999999994">
        <ele>522.886</ele>
        <time>2022-06-19T09:17:47Z</time>
      </trkpt>
      <trkpt lat="42.591736000000004" lon="-1.3612069999999994">
        <ele>522.279</ele>
        <time>2022-06-19T09:17:49Z</time>
      </trkpt>
      <trkpt lat="42.591748" lon="-1.3612829999999994">
        <ele>521.688</ele>
        <time>2022-06-19T09:17:51Z</time>
      </trkpt>
      <trkpt lat="42.591763" lon="-1.3613149999999994">
        <ele>521.476</ele>
        <time>2022-06-19T09:17:52Z</time>
      </trkpt>
      <trkpt lat="42.59179" lon="-1.3613729999999993">
        <ele>521.290</ele>
        <time>2022-06-19T09:17:54Z</time>
      </trkpt>
      <trkpt lat="42.591826000000005" lon="-1.3615339999999994">
        <ele>519.619</ele>
        <time>2022-06-19T09:17:57Z</time>
      </trkpt>
      <trkpt lat="42.591815000000004" lon="-1.3615909999999993">
        <ele>519.209</ele>
        <time>2022-06-19T09:17:58Z</time>
      </trkpt>
      <trkpt lat="42.591784000000004" lon="-1.3616669999999993">
        <ele>518.258</ele>
        <time>2022-06-19T09:18:00Z</time>
      </trkpt>
      <trkpt lat="42.59176" lon="-1.3617359999999994">
        <ele>517.897</ele>
        <time>2022-06-19T09:18:02Z</time>
      </trkpt>
      <trkpt lat="42.591743" lon="-1.3617739999999994">
        <ele>517.262</ele>
        <time>2022-06-19T09:18:03Z</time>
      </trkpt>
      <trkpt lat="42.591713" lon="-1.3619559999999993">
        <ele>515.826</ele>
        <time>2022-06-19T09:18:08Z</time>
      </trkpt>
      <trkpt lat="42.591733999999995" lon="-1.3620139999999992">
        <ele>514.878</ele>
        <time>2022-06-19T09:18:10Z</time>
      </trkpt>
      <trkpt lat="42.591747999999995" lon="-1.3620289999999993">
        <ele>514.024</ele>
        <time>2022-06-19T09:18:11Z</time>
      </trkpt>
      <trkpt lat="42.591764999999995" lon="-1.3620379999999992">
        <ele>513.068</ele>
        <time>2022-06-19T09:18:12Z</time>
      </trkpt>
      <trkpt lat="42.591781" lon="-1.3620509999999992">
        <ele>512.481</ele>
        <time>2022-06-19T09:18:13Z</time>
      </trkpt>
      <trkpt lat="42.591842" lon="-1.3621409999999992">
        <ele>511.070</ele>
        <time>2022-06-19T09:18:17Z</time>
      </trkpt>
      <trkpt lat="42.591854" lon="-1.3621869999999991">
        <ele>510.888</ele>
        <time>2022-06-19T09:18:18Z</time>
      </trkpt>
      <trkpt lat="42.591892" lon="-1.3623799999999993">
        <ele>510.224</ele>
        <time>2022-06-19T09:18:24Z</time>
      </trkpt>
      <trkpt lat="42.591888000000004" lon="-1.3623959999999993">
        <ele>510.026</ele>
        <time>2022-06-19T09:18:25Z</time>
      </trkpt>
      <trkpt lat="42.591878" lon="-1.3624099999999992">
        <ele>509.809</ele>
        <time>2022-06-19T09:18:26Z</time>
      </trkpt>
      <trkpt lat="42.591839" lon="-1.3624279999999993">
        <ele>508.439</ele>
        <time>2022-06-19T09:18:28Z</time>
      </trkpt>
      <trkpt lat="42.591817" lon="-1.3624369999999992">
        <ele>507.498</ele>
        <time>2022-06-19T09:18:29Z</time>
      </trkpt>
      <trkpt lat="42.591783" lon="-1.3624649999999991">
        <ele>506.883</ele>
        <time>2022-06-19T09:18:31Z</time>
      </trkpt>
      <trkpt lat="42.591695" lon="-1.3624679999999991">
        <ele>506.067</ele>
        <time>2022-06-19T09:18:36Z</time>
      </trkpt>
      <trkpt lat="42.591691000000004" lon="-1.3624649999999991">
        <ele>505.879</ele>
        <time>2022-06-19T09:18:37Z</time>
      </trkpt>
      <trkpt lat="42.591691000000004" lon="-1.3624649999999991">
        <ele>505.845</ele>
        <time>2022-06-19T09:18:38Z</time>
      </trkpt>
      <trkpt lat="42.591653" lon="-1.362557999999999">
        <ele>505.679</ele>
        <time>2022-06-19T09:18:55Z</time>
      </trkpt>
      <trkpt lat="42.591564" lon="-1.3626219999999991">
        <ele>505.662</ele>
        <time>2022-06-19T09:18:59Z</time>
      </trkpt>
      <trkpt lat="42.591515" lon="-1.362667999999999">
        <ele>505.051</ele>
        <time>2022-06-19T09:19:04Z</time>
      </trkpt>
      <trkpt lat="42.591456" lon="-1.362646999999999">
        <ele>504.073</ele>
        <time>2022-06-19T09:36:40Z</time>
      </trkpt>
      <trkpt lat="42.591425" lon="-1.3626729999999991">
        <ele>504.085</ele>
        <time>2022-06-19T09:36:42Z</time>
      </trkpt>
      <trkpt lat="42.591329" lon="-1.362778999999999">
        <ele>504.013</ele>
        <time>2022-06-19T09:36:46Z</time>
      </trkpt>
      <trkpt lat="42.591295" lon="-1.362817999999999">
        <ele>503.809</ele>
        <time>2022-06-19T09:36:47Z</time>
      </trkpt>
      <trkpt lat="42.59111" lon="-1.363033999999999">
        <ele>503.868</ele>
        <time>2022-06-19T09:36:52Z</time>
      </trkpt>
      <trkpt lat="42.590804" lon="-1.363406999999999">
        <ele>503.067</ele>
        <time>2022-06-19T09:37:00Z</time>
      </trkpt>
      <trkpt lat="42.590709" lon="-1.363525999999999">
        <ele>502.032</ele>
        <time>2022-06-19T09:37:03Z</time>
      </trkpt>
      <trkpt lat="42.59061" lon="-1.3636669999999989">
        <ele>501.476</ele>
        <time>2022-06-19T09:37:06Z</time>
      </trkpt>
      <trkpt lat="42.590581" lon="-1.363719999999999">
        <ele>501.488</ele>
        <time>2022-06-19T09:37:07Z</time>
      </trkpt>
      <trkpt lat="42.590456" lon="-1.3639289999999988">
        <ele>500.844</ele>
        <time>2022-06-19T09:37:11Z</time>
      </trkpt>
      <trkpt lat="42.590369" lon="-1.3640809999999988">
        <ele>500.228</ele>
        <time>2022-06-19T09:37:14Z</time>
      </trkpt>
      <trkpt lat="42.590341" lon="-1.3641309999999989">
        <ele>500.241</ele>
        <time>2022-06-19T09:37:15Z</time>
      </trkpt>
      <trkpt lat="42.590214" lon="-1.3643819999999989">
        <ele>501.020</ele>
        <time>2022-06-19T09:37:20Z</time>
      </trkpt>
      <trkpt lat="42.59019" lon="-1.3644289999999988">
        <ele>501.435</ele>
        <time>2022-06-19T09:37:21Z</time>
      </trkpt>
      <trkpt lat="42.590141" lon="-1.3645259999999988">
        <ele>502.086</ele>
        <time>2022-06-19T09:37:23Z</time>
      </trkpt>
      <trkpt lat="42.59004" lon="-1.3647279999999988">
        <ele>502.414</ele>
        <time>2022-06-19T09:37:27Z</time>
      </trkpt>
      <trkpt lat="42.589865" lon="-1.3651169999999988">
        <ele>502.809</ele>
        <time>2022-06-19T09:37:34Z</time>
      </trkpt>
      <trkpt lat="42.589683" lon="-1.3654949999999988">
        <ele>503.024</ele>
        <time>2022-06-19T09:37:41Z</time>
      </trkpt>
      <trkpt lat="42.589495" lon="-1.3658749999999988">
        <ele>502.823</ele>
        <time>2022-06-19T09:37:48Z</time>
      </trkpt>
      <trkpt lat="42.589225" lon="-1.3663909999999988">
        <ele>502.888</ele>
        <time>2022-06-19T09:37:57Z</time>
      </trkpt>
      <trkpt lat="42.588979" lon="-1.366818999999999">
        <ele>502.082</ele>
        <time>2022-06-19T09:38:03Z</time>
      </trkpt>
      <trkpt lat="42.588935" lon="-1.3669029999999989">
        <ele>501.664</ele>
        <time>2022-06-19T09:38:04Z</time>
      </trkpt>
      <trkpt lat="42.588848999999996" lon="-1.3670839999999989">
        <ele>500.480</ele>
        <time>2022-06-19T09:38:06Z</time>
      </trkpt>
      <trkpt lat="42.588809999999995" lon="-1.367182999999999">
        <ele>499.854</ele>
        <time>2022-06-19T09:38:07Z</time>
      </trkpt>
      <trkpt lat="42.58877699999999" lon="-1.367290999999999">
        <ele>499.237</ele>
        <time>2022-06-19T09:38:08Z</time>
      </trkpt>
      <trkpt lat="42.58872399999999" lon="-1.367516999999999">
        <ele>498.036</ele>
        <time>2022-06-19T09:38:10Z</time>
      </trkpt>
      <trkpt lat="42.58867399999999" lon="-1.367778999999999">
        <ele>496.443</ele>
        <time>2022-06-19T09:38:12Z</time>
      </trkpt>
      <trkpt lat="42.58865599999999" lon="-1.367880999999999">
        <ele>496.064</ele>
        <time>2022-06-19T09:38:13Z</time>
      </trkpt>
      <trkpt lat="42.58857199999999" lon="-1.368303999999999">
        <ele>495.010</ele>
        <time>2022-06-19T09:38:16Z</time>
      </trkpt>
      <trkpt lat="42.58852099999999" lon="-1.3685569999999991">
        <ele>493.609</ele>
        <time>2022-06-19T09:38:18Z</time>
      </trkpt>
      <trkpt lat="42.58849099999999" lon="-1.3687019999999992">
        <ele>493.265</ele>
        <time>2022-06-19T09:38:19Z</time>
      </trkpt>
      <trkpt lat="42.58840199999999" lon="-1.3691469999999992">
        <ele>492.244</ele>
        <time>2022-06-19T09:38:22Z</time>
      </trkpt>
      <trkpt lat="42.588343999999985" lon="-1.3694429999999993">
        <ele>490.629</ele>
        <time>2022-06-19T09:38:24Z</time>
      </trkpt>
      <trkpt lat="42.58828899999998" lon="-1.3697179999999993">
        <ele>489.453</ele>
        <time>2022-06-19T09:38:26Z</time>
      </trkpt>
      <trkpt lat="42.58823299999998" lon="-1.3699789999999994">
        <ele>488.235</ele>
        <time>2022-06-19T09:38:28Z</time>
      </trkpt>
      <trkpt lat="42.58820499999998" lon="-1.3700999999999994">
        <ele>487.261</ele>
        <time>2022-06-19T09:38:29Z</time>
      </trkpt>
      <trkpt lat="42.588169999999984" lon="-1.3702169999999994">
        <ele>486.475</ele>
        <time>2022-06-19T09:38:30Z</time>
      </trkpt>
      <trkpt lat="42.58812799999998" lon="-1.3703279999999993">
        <ele>485.678</ele>
        <time>2022-06-19T09:38:31Z</time>
      </trkpt>
      <trkpt lat="42.58807599999999" lon="-1.3704259999999993">
        <ele>485.237</ele>
        <time>2022-06-19T09:38:32Z</time>
      </trkpt>
      <trkpt lat="42.58795199999999" lon="-1.3705919999999994">
        <ele>484.671</ele>
        <time>2022-06-19T09:38:34Z</time>
      </trkpt>
      <trkpt lat="42.58773499999999" lon="-1.3707769999999995">
        <ele>483.441</ele>
        <time>2022-06-19T09:38:37Z</time>
      </trkpt>
      <trkpt lat="42.587653999999986" lon="-1.3708199999999995">
        <ele>483.015</ele>
        <time>2022-06-19T09:38:38Z</time>
      </trkpt>
      <trkpt lat="42.58749299999999" lon="-1.3708949999999995">
        <ele>482.209</ele>
        <time>2022-06-19T09:38:40Z</time>
      </trkpt>
      <trkpt lat="42.58717799999999" lon="-1.3710599999999995">
        <ele>481.478</ele>
        <time>2022-06-19T09:38:44Z</time>
      </trkpt>
      <trkpt lat="42.587023999999985" lon="-1.3711369999999996">
        <ele>481.077</ele>
        <time>2022-06-19T09:38:46Z</time>
      </trkpt>
      <trkpt lat="42.58672099999998" lon="-1.3712769999999996">
        <ele>479.672</ele>
        <time>2022-06-19T09:38:50Z</time>
      </trkpt>
      <trkpt lat="42.586570999999985" lon="-1.3713509999999995">
        <ele>478.016</ele>
        <time>2022-06-19T09:38:52Z</time>
      </trkpt>
      <trkpt lat="42.586494999999985" lon="-1.3713889999999995">
        <ele>477.428</ele>
        <time>2022-06-19T09:38:53Z</time>
      </trkpt>
      <trkpt lat="42.586418999999985" lon="-1.3714249999999995">
        <ele>476.824</ele>
        <time>2022-06-19T09:38:54Z</time>
      </trkpt>
      <trkpt lat="42.586198999999986" lon="-1.3715339999999994">
        <ele>475.468</ele>
        <time>2022-06-19T09:38:57Z</time>
      </trkpt>
      <trkpt lat="42.58605799999999" lon="-1.3716119999999994">
        <ele>474.871</ele>
        <time>2022-06-19T09:38:59Z</time>
      </trkpt>
      <trkpt lat="42.58593699999999" lon="-1.3717269999999995">
        <ele>474.450</ele>
        <time>2022-06-19T09:39:01Z</time>
      </trkpt>
      <trkpt lat="42.58582999999999" lon="-1.3718869999999994">
        <ele>473.694</ele>
        <time>2022-06-19T09:39:03Z</time>
      </trkpt>
      <trkpt lat="42.58578699999999" lon="-1.3719809999999995">
        <ele>473.257</ele>
        <time>2022-06-19T09:39:04Z</time>
      </trkpt>
      <trkpt lat="42.58575299999999" lon="-1.3720769999999995">
        <ele>473.022</ele>
        <time>2022-06-19T09:39:05Z</time>
      </trkpt>
      <trkpt lat="42.58570199999999" lon="-1.3722799999999995">
        <ele>472.809</ele>
        <time>2022-06-19T09:39:07Z</time>
      </trkpt>
      <trkpt lat="42.58568399999999" lon="-1.3724929999999995">
        <ele>472.490</ele>
        <time>2022-06-19T09:39:09Z</time>
      </trkpt>
      <trkpt lat="42.58568199999999" lon="-1.3726019999999994">
        <ele>472.229</ele>
        <time>2022-06-19T09:39:10Z</time>
      </trkpt>
      <trkpt lat="42.585674999999995" lon="-1.3733209999999993">
        <ele>472.054</ele>
        <time>2022-06-19T09:39:16Z</time>
      </trkpt>
      <trkpt lat="42.58567899999999" lon="-1.3739239999999993">
        <ele>471.248</ele>
        <time>2022-06-19T09:39:21Z</time>
      </trkpt>
      <trkpt lat="42.58567399999999" lon="-1.3741509999999992">
        <ele>470.430</ele>
        <time>2022-06-19T09:39:23Z</time>
      </trkpt>
      <trkpt lat="42.58567299999999" lon="-1.3742589999999992">
        <ele>470.236</ele>
        <time>2022-06-19T09:39:24Z</time>
      </trkpt>
      <trkpt lat="42.58562899999999" lon="-1.3747639999999992">
        <ele>469.850</ele>
        <time>2022-06-19T09:39:29Z</time>
      </trkpt>
      <trkpt lat="42.58562099999999" lon="-1.3748639999999992">
        <ele>469.813</ele>
        <time>2022-06-19T09:39:30Z</time>
      </trkpt>
      <trkpt lat="42.58562899999999" lon="-1.3752549999999992">
        <ele>470.012</ele>
        <time>2022-06-19T09:39:34Z</time>
      </trkpt>
      <trkpt lat="42.58563099999999" lon="-1.3753499999999992">
        <ele>470.072</ele>
        <time>2022-06-19T09:39:35Z</time>
      </trkpt>
      <trkpt lat="42.585646999999994" lon="-1.375801999999999">
        <ele>470.213</ele>
        <time>2022-06-19T09:39:40Z</time>
      </trkpt>
      <trkpt lat="42.585643" lon="-1.3763899999999991">
        <ele>470.814</ele>
        <time>2022-06-19T09:39:47Z</time>
      </trkpt>
      <trkpt lat="42.585642" lon="-1.3765479999999992">
        <ele>471.209</ele>
        <time>2022-06-19T09:39:49Z</time>
      </trkpt>
      <trkpt lat="42.585647" lon="-1.3769399999999992">
        <ele>471.468</ele>
        <time>2022-06-19T09:39:54Z</time>
      </trkpt>
      <trkpt lat="42.585656" lon="-1.3772439999999992">
        <ele>472.297</ele>
        <time>2022-06-19T09:39:58Z</time>
      </trkpt>
      <trkpt lat="42.585657" lon="-1.3775399999999993">
        <ele>472.632</ele>
        <time>2022-06-19T09:40:02Z</time>
      </trkpt>
      <trkpt lat="42.585674999999995" lon="-1.3782179999999993">
        <ele>473.026</ele>
        <time>2022-06-19T09:40:11Z</time>
      </trkpt>
      <trkpt lat="42.585719999999995" lon="-1.3789019999999992">
        <ele>473.058</ele>
        <time>2022-06-19T09:40:20Z</time>
      </trkpt>
      <trkpt lat="42.585770999999994" lon="-1.3795059999999992">
        <ele>473.234</ele>
        <time>2022-06-19T09:40:28Z</time>
      </trkpt>
      <trkpt lat="42.585834999999996" lon="-1.3802829999999993">
        <ele>473.468</ele>
        <time>2022-06-19T09:40:38Z</time>
      </trkpt>
      <trkpt lat="42.58589" lon="-1.3810189999999993">
        <ele>473.041</ele>
        <time>2022-06-19T09:40:48Z</time>
      </trkpt>
      <trkpt lat="42.585938" lon="-1.3815759999999992">
        <ele>473.010</ele>
        <time>2022-06-19T09:40:56Z</time>
      </trkpt>
      <trkpt lat="42.585952" lon="-1.3817789999999992">
        <ele>473.445</ele>
        <time>2022-06-19T09:40:59Z</time>
      </trkpt>
      <trkpt lat="42.585983999999996" lon="-1.3821029999999992">
        <ele>473.647</ele>
        <time>2022-06-19T09:41:04Z</time>
      </trkpt>
      <trkpt lat="42.58602" lon="-1.3825459999999992">
        <ele>474.411</ele>
        <time>2022-06-19T09:41:11Z</time>
      </trkpt>
      <trkpt lat="42.586023999999995" lon="-1.3826079999999992">
        <ele>474.609</ele>
        <time>2022-06-19T09:41:12Z</time>
      </trkpt>
      <trkpt lat="42.58605599999999" lon="-1.3830469999999992">
        <ele>474.865</ele>
        <time>2022-06-19T09:41:19Z</time>
      </trkpt>
      <trkpt lat="42.58610099999999" lon="-1.3835589999999993">
        <ele>475.694</ele>
        <time>2022-06-19T09:41:27Z</time>
      </trkpt>
      <trkpt lat="42.58610699999999" lon="-1.3836199999999994">
        <ele>475.619</ele>
        <time>2022-06-19T09:41:28Z</time>
      </trkpt>
      <trkpt lat="42.58612699999999" lon="-1.3840599999999994">
        <ele>475.833</ele>
        <time>2022-06-19T09:41:35Z</time>
      </trkpt>
      <trkpt lat="42.58612199999999" lon="-1.3844609999999995">
        <ele>476.275</ele>
        <time>2022-06-19T09:41:41Z</time>
      </trkpt>
      <trkpt lat="42.58610799999999" lon="-1.3847449999999994">
        <ele>476.631</ele>
        <time>2022-06-19T09:41:45Z</time>
      </trkpt>
      <trkpt lat="42.58607399999999" lon="-1.3850489999999995">
        <ele>476.495</ele>
        <time>2022-06-19T09:41:49Z</time>
      </trkpt>
      <trkpt lat="42.58597199999999" lon="-1.3856099999999996">
        <ele>476.288</ele>
        <time>2022-06-19T09:41:56Z</time>
      </trkpt>
      <trkpt lat="42.58583999999999" lon="-1.3860999999999997">
        <ele>475.427</ele>
        <time>2022-06-19T09:42:02Z</time>
      </trkpt>
      <trkpt lat="42.58581299999999" lon="-1.3861899999999996">
        <ele>475.276</ele>
        <time>2022-06-19T09:42:03Z</time>
      </trkpt>
      <trkpt lat="42.585675999999985" lon="-1.3865579999999995">
        <ele>474.290</ele>
        <time>2022-06-19T09:42:07Z</time>
      </trkpt>
      <trkpt lat="42.58559799999998" lon="-1.3867419999999995">
        <ele>474.019</ele>
        <time>2022-06-19T09:42:09Z</time>
      </trkpt>
      <trkpt lat="42.585377999999984" lon="-1.3871799999999994">
        <ele>472.409</ele>
        <time>2022-06-19T09:42:14Z</time>
      </trkpt>
      <trkpt lat="42.585278999999986" lon="-1.3873499999999994">
        <ele>471.298</ele>
        <time>2022-06-19T09:42:16Z</time>
      </trkpt>
      <trkpt lat="42.58516499999998" lon="-1.3875249999999995">
        <ele>470.267</ele>
        <time>2022-06-19T09:42:18Z</time>
      </trkpt>
      <trkpt lat="42.58498199999998" lon="-1.3877809999999995">
        <ele>469.432</ele>
        <time>2022-06-19T09:42:21Z</time>
      </trkpt>
      <trkpt lat="42.584783999999985" lon="-1.3880129999999995">
        <ele>469.056</ele>
        <time>2022-06-19T09:42:24Z</time>
      </trkpt>
      <trkpt lat="42.58458299999999" lon="-1.3882309999999995">
        <ele>468.458</ele>
        <time>2022-06-19T09:42:27Z</time>
      </trkpt>
      <trkpt lat="42.58451299999999" lon="-1.3882999999999996">
        <ele>467.824</ele>
        <time>2022-06-19T09:42:28Z</time>
      </trkpt>
      <trkpt lat="42.58437199999999" lon="-1.3884349999999996">
        <ele>466.438</ele>
        <time>2022-06-19T09:42:30Z</time>
      </trkpt>
      <trkpt lat="42.58410199999999" lon="-1.3886849999999997">
        <ele>465.451</ele>
        <time>2022-06-19T09:42:34Z</time>
      </trkpt>
      <trkpt lat="42.58390399999999" lon="-1.3888699999999998">
        <ele>464.440</ele>
        <time>2022-06-19T09:42:37Z</time>
      </trkpt>
      <trkpt lat="42.58383799999999" lon="-1.388934">
        <ele>463.027</ele>
        <time>2022-06-19T09:42:38Z</time>
      </trkpt>
      <trkpt lat="42.58370399999999" lon="-1.3890589999999998">
        <ele>461.268</ele>
        <time>2022-06-19T09:42:40Z</time>
      </trkpt>
      <trkpt lat="42.58357699999999" lon="-1.389185">
        <ele>460.014</ele>
        <time>2022-06-19T09:42:42Z</time>
      </trkpt>
      <trkpt lat="42.58338399999999" lon="-1.3893829999999998">
        <ele>458.609</ele>
        <time>2022-06-19T09:42:45Z</time>
      </trkpt>
      <trkpt lat="42.58325999999999" lon="-1.389525">
        <ele>458.063</ele>
        <time>2022-06-19T09:42:47Z</time>
      </trkpt>
      <trkpt lat="42.58302699999999" lon="-1.3898119999999998">
        <ele>457.422</ele>
        <time>2022-06-19T09:42:51Z</time>
      </trkpt>
      <trkpt lat="42.58286099999999" lon="-1.390032">
        <ele>456.047</ele>
        <time>2022-06-19T09:42:54Z</time>
      </trkpt>
      <trkpt lat="42.582655999999986" lon="-1.39031">
        <ele>454.841</ele>
        <time>2022-06-19T09:42:58Z</time>
      </trkpt>
      <trkpt lat="42.58236799999999" lon="-1.3907129999999999">
        <ele>453.693</ele>
        <time>2022-06-19T09:43:04Z</time>
      </trkpt>
      <trkpt lat="42.58231999999999" lon="-1.3907789999999998">
        <ele>453.669</ele>
        <time>2022-06-19T09:43:05Z</time>
      </trkpt>
      <trkpt lat="42.58215699999999" lon="-1.3909839999999998">
        <ele>452.683</ele>
        <time>2022-06-19T09:43:08Z</time>
      </trkpt>
      <trkpt lat="42.58193099999999" lon="-1.3912529999999999">
        <ele>451.486</ele>
        <time>2022-06-19T09:43:12Z</time>
      </trkpt>
      <trkpt lat="42.58183199999999" lon="-1.39136">
        <ele>450.865</ele>
        <time>2022-06-19T09:43:14Z</time>
      </trkpt>
      <trkpt lat="42.58160499999999" lon="-1.391579">
        <ele>450.225</ele>
        <time>2022-06-19T09:43:18Z</time>
      </trkpt>
      <trkpt lat="42.581363999999986" lon="-1.391786">
        <ele>449.226</ele>
        <time>2022-06-19T09:43:22Z</time>
      </trkpt>
      <trkpt lat="42.58124499999999" lon="-1.3918789999999999">
        <ele>448.608</ele>
        <time>2022-06-19T09:43:24Z</time>
      </trkpt>
      <trkpt lat="42.58105399999999" lon="-1.392016">
        <ele>448.009</ele>
        <time>2022-06-19T09:43:27Z</time>
      </trkpt>
      <trkpt lat="42.58072899999999" lon="-1.392205">
        <ele>447.263</ele>
        <time>2022-06-19T09:43:32Z</time>
      </trkpt>
      <trkpt lat="42.58066499999999" lon="-1.392239">
        <ele>446.682</ele>
        <time>2022-06-19T09:43:33Z</time>
      </trkpt>
      <trkpt lat="42.580409999999986" lon="-1.392355">
        <ele>445.427</ele>
        <time>2022-06-19T09:43:37Z</time>
      </trkpt>
      <trkpt lat="42.580283999999985" lon="-1.3924050000000001">
        <ele>444.871</ele>
        <time>2022-06-19T09:43:39Z</time>
      </trkpt>
      <trkpt lat="42.58016099999998" lon="-1.392443">
        <ele>444.423</ele>
        <time>2022-06-19T09:43:41Z</time>
      </trkpt>
      <trkpt lat="42.579768999999985" lon="-1.3925470000000002">
        <ele>444.059</ele>
        <time>2022-06-19T09:43:47Z</time>
      </trkpt>
      <trkpt lat="42.57943199999998" lon="-1.3925990000000001">
        <ele>443.463</ele>
        <time>2022-06-19T09:43:52Z</time>
      </trkpt>
      <trkpt lat="42.57915999999998" lon="-1.3926200000000002">
        <ele>443.236</ele>
        <time>2022-06-19T09:43:56Z</time>
      </trkpt>
      <trkpt lat="42.57890099999998" lon="-1.392632">
        <ele>441.865</ele>
        <time>2022-06-19T09:44:00Z</time>
      </trkpt>
      <trkpt lat="42.57870799999998" lon="-1.392638">
        <ele>440.632</ele>
        <time>2022-06-19T09:44:03Z</time>
      </trkpt>
      <trkpt lat="42.57845399999998" lon="-1.392636">
        <ele>439.692</ele>
        <time>2022-06-19T09:44:07Z</time>
      </trkpt>
      <trkpt lat="42.57786599999998" lon="-1.392639">
        <ele>439.211</ele>
        <time>2022-06-19T09:44:16Z</time>
      </trkpt>
      <trkpt lat="42.57774999999998" lon="-1.392639">
        <ele>439.209</ele>
        <time>2022-06-19T09:44:18Z</time>
      </trkpt>
      <trkpt lat="42.57749499999998" lon="-1.392642">
        <ele>438.684</ele>
        <time>2022-06-19T09:44:22Z</time>
      </trkpt>
      <trkpt lat="42.57724599999998" lon="-1.392639">
        <ele>438.213</ele>
        <time>2022-06-19T09:44:26Z</time>
      </trkpt>
      <trkpt lat="42.57706299999998" lon="-1.3926399999999999">
        <ele>437.488</ele>
        <time>2022-06-19T09:44:29Z</time>
      </trkpt>
      <trkpt lat="42.576819999999984" lon="-1.392639">
        <ele>436.492</ele>
        <time>2022-06-19T09:44:33Z</time>
      </trkpt>
      <trkpt lat="42.576759999999986" lon="-1.392637">
        <ele>436.284</ele>
        <time>2022-06-19T09:44:34Z</time>
      </trkpt>
      <trkpt lat="42.576270999999984" lon="-1.3926379999999998">
        <ele>435.660</ele>
        <time>2022-06-19T09:44:42Z</time>
      </trkpt>
      <trkpt lat="42.57620999999998" lon="-1.3926319999999999">
        <ele>435.454</ele>
        <time>2022-06-19T09:44:43Z</time>
      </trkpt>
      <trkpt lat="42.57569599999998" lon="-1.3926239999999999">
        <ele>434.237</ele>
        <time>2022-06-19T09:44:52Z</time>
      </trkpt>
      <trkpt lat="42.57541399999998" lon="-1.39261">
        <ele>433.236</ele>
        <time>2022-06-19T09:44:57Z</time>
      </trkpt>
      <trkpt lat="42.57505899999998" lon="-1.392544">
        <ele>432.613</ele>
        <time>2022-06-19T09:45:03Z</time>
      </trkpt>
      <trkpt lat="42.57494399999998" lon="-1.39252">
        <ele>432.243</ele>
        <time>2022-06-19T09:45:05Z</time>
      </trkpt>
      <trkpt lat="42.574545999999984" lon="-1.392408">
        <ele>431.207</ele>
        <time>2022-06-19T09:45:12Z</time>
      </trkpt>
      <trkpt lat="42.57424099999999" lon="-1.392322">
        <ele>431.009</ele>
        <time>2022-06-19T09:45:17Z</time>
      </trkpt>
      <trkpt lat="42.57399599999999" lon="-1.392247">
        <ele>430.832</ele>
        <time>2022-06-19T09:45:21Z</time>
      </trkpt>
      <trkpt lat="42.573759999999986" lon="-1.3921890000000001">
        <ele>430.041</ele>
        <time>2022-06-19T09:45:25Z</time>
      </trkpt>
      <trkpt lat="42.57358399999998" lon="-1.392157">
        <ele>429.036</ele>
        <time>2022-06-19T09:45:28Z</time>
      </trkpt>
      <trkpt lat="42.573467999999984" lon="-1.3921350000000001">
        <ele>428.670</ele>
        <time>2022-06-19T09:45:30Z</time>
      </trkpt>
      <trkpt lat="42.573354999999985" lon="-1.3921210000000002">
        <ele>427.842</ele>
        <time>2022-06-19T09:45:32Z</time>
      </trkpt>
      <trkpt lat="42.572957999999986" lon="-1.3921080000000001">
        <ele>427.228</ele>
        <time>2022-06-19T09:45:39Z</time>
      </trkpt>
      <trkpt lat="42.572561999999984" lon="-1.3921340000000002">
        <ele>426.812</ele>
        <time>2022-06-19T09:45:46Z</time>
      </trkpt>
      <trkpt lat="42.572330999999984" lon="-1.3921720000000002">
        <ele>426.675</ele>
        <time>2022-06-19T09:45:50Z</time>
      </trkpt>
      <trkpt lat="42.57181499999999" lon="-1.3922990000000002">
        <ele>426.834</ele>
        <time>2022-06-19T09:45:59Z</time>
      </trkpt>
      <trkpt lat="42.57129099999999" lon="-1.3924340000000002">
        <ele>427.042</ele>
        <time>2022-06-19T09:46:08Z</time>
      </trkpt>
      <trkpt lat="42.57073399999999" lon="-1.3925830000000001">
        <ele>426.022</ele>
        <time>2022-06-19T09:46:18Z</time>
      </trkpt>
      <trkpt lat="42.570438999999986" lon="-1.3926850000000002">
        <ele>425.814</ele>
        <time>2022-06-19T09:46:24Z</time>
      </trkpt>
      <trkpt lat="42.570298999999984" lon="-1.3927420000000001">
        <ele>426.009</ele>
        <time>2022-06-19T09:46:27Z</time>
      </trkpt>
      <trkpt lat="42.56983299999998" lon="-1.3929350000000003">
        <ele>426.685</ele>
        <time>2022-06-19T09:46:37Z</time>
      </trkpt>
      <trkpt lat="42.569741999999984" lon="-1.3929710000000002">
        <ele>426.874</ele>
        <time>2022-06-19T09:46:39Z</time>
      </trkpt>
      <trkpt lat="42.569335999999986" lon="-1.3931430000000002">
        <ele>426.479</ele>
        <time>2022-06-19T09:46:48Z</time>
      </trkpt>
      <trkpt lat="42.56925299999999" lon="-1.3931850000000003">
        <ele>426.413</ele>
        <time>2022-06-19T09:46:50Z</time>
      </trkpt>
      <trkpt lat="42.56900999999999" lon="-1.3932790000000004">
        <ele>426.275</ele>
        <time>2022-06-19T09:46:56Z</time>
      </trkpt>
      <trkpt lat="42.568783999999994" lon="-1.3933640000000003">
        <ele>426.271</ele>
        <time>2022-06-19T09:47:03Z</time>
      </trkpt>
      <trkpt lat="42.568555999999994" lon="-1.3934830000000002">
        <ele>427.825</ele>
        <time>2022-06-19T09:47:11Z</time>
      </trkpt>
      <trkpt lat="42.56849799999999" lon="-1.3935060000000004">
        <ele>428.048</ele>
        <time>2022-06-19T09:47:13Z</time>
      </trkpt>
      <trkpt lat="42.568341999999994" lon="-1.3935740000000003">
        <ele>429.257</ele>
        <time>2022-06-19T09:47:19Z</time>
      </trkpt>
      <trkpt lat="42.568287999999995" lon="-1.3935950000000004">
        <ele>429.837</ele>
        <time>2022-06-19T09:47:21Z</time>
      </trkpt>
      <trkpt lat="42.568138999999995" lon="-1.3936640000000005">
        <ele>430.449</ele>
        <time>2022-06-19T09:47:27Z</time>
      </trkpt>
      <trkpt lat="42.568115999999996" lon="-1.3936750000000004">
        <ele>430.413</ele>
        <time>2022-06-19T09:47:28Z</time>
      </trkpt>
      <trkpt lat="42.567966999999996" lon="-1.3937400000000004">
        <ele>431.409</ele>
        <time>2022-06-19T09:47:34Z</time>
      </trkpt>
      <trkpt lat="42.567947" lon="-1.3937480000000004">
        <ele>431.424</ele>
        <time>2022-06-19T09:47:35Z</time>
      </trkpt>
      <trkpt lat="42.567831999999996" lon="-1.3938020000000004">
        <ele>432.873</ele>
        <time>2022-06-19T09:47:40Z</time>
      </trkpt>
      <trkpt lat="42.567761" lon="-1.3938310000000005">
        <ele>433.218</ele>
        <time>2022-06-19T09:47:43Z</time>
      </trkpt>
      <trkpt lat="42.567674" lon="-1.3938680000000006">
        <ele>433.812</ele>
        <time>2022-06-19T09:47:47Z</time>
      </trkpt>
      <trkpt lat="42.567564" lon="-1.3939130000000006">
        <ele>434.644</ele>
        <time>2022-06-19T09:47:52Z</time>
      </trkpt>
      <trkpt lat="42.567521" lon="-1.3939340000000007">
        <ele>435.070</ele>
        <time>2022-06-19T09:47:54Z</time>
      </trkpt>
      <trkpt lat="42.567433" lon="-1.3939720000000007">
        <ele>436.214</ele>
        <time>2022-06-19T09:47:58Z</time>
      </trkpt>
      <trkpt lat="42.56739" lon="-1.3939940000000006">
        <ele>436.657</ele>
        <time>2022-06-19T09:48:00Z</time>
      </trkpt>
      <trkpt lat="42.567302000000005" lon="-1.3940320000000006">
        <ele>437.226</ele>
        <time>2022-06-19T09:48:04Z</time>
      </trkpt>
      <trkpt lat="42.567190000000004" lon="-1.3940830000000006">
        <ele>437.611</ele>
        <time>2022-06-19T09:48:09Z</time>
      </trkpt>
      <trkpt lat="42.567098" lon="-1.3941240000000006">
        <ele>438.221</ele>
        <time>2022-06-19T09:48:13Z</time>
      </trkpt>
      <trkpt lat="42.566999" lon="-1.3941710000000005">
        <ele>439.003</ele>
        <time>2022-06-19T09:48:17Z</time>
      </trkpt>
      <trkpt lat="42.566878" lon="-1.3942280000000005">
        <ele>439.009</ele>
        <time>2022-06-19T09:48:22Z</time>
      </trkpt>
      <trkpt lat="42.566784000000006" lon="-1.3942880000000004">
        <ele>440.032</ele>
        <time>2022-06-19T09:48:26Z</time>
      </trkpt>
      <trkpt lat="42.566736000000006" lon="-1.3943140000000005">
        <ele>440.451</ele>
        <time>2022-06-19T09:48:28Z</time>
      </trkpt>
      <trkpt lat="42.566598000000006" lon="-1.3944010000000004">
        <ele>441.286</ele>
        <time>2022-06-19T09:48:34Z</time>
      </trkpt>
      <trkpt lat="42.56655200000001" lon="-1.3944300000000005">
        <ele>441.280</ele>
        <time>2022-06-19T09:48:36Z</time>
      </trkpt>
      <trkpt lat="42.56643900000001" lon="-1.3945130000000006">
        <ele>441.872</ele>
        <time>2022-06-19T09:48:41Z</time>
      </trkpt>
      <trkpt lat="42.56632700000001" lon="-1.3946010000000006">
        <ele>442.468</ele>
        <time>2022-06-19T09:48:46Z</time>
      </trkpt>
      <trkpt lat="42.56628400000001" lon="-1.3946380000000007">
        <ele>442.662</ele>
        <time>2022-06-19T09:48:48Z</time>
      </trkpt>
      <trkpt lat="42.56618800000001" lon="-1.3947100000000008">
        <ele>443.645</ele>
        <time>2022-06-19T09:48:52Z</time>
      </trkpt>
      <trkpt lat="42.56614400000001" lon="-1.3947520000000009">
        <ele>444.294</ele>
        <time>2022-06-19T09:48:54Z</time>
      </trkpt>
      <trkpt lat="42.566055000000006" lon="-1.3948280000000008">
        <ele>444.663</ele>
        <time>2022-06-19T09:48:58Z</time>
      </trkpt>
      <trkpt lat="42.566014" lon="-1.394870000000001">
        <ele>444.844</ele>
        <time>2022-06-19T09:49:00Z</time>
      </trkpt>
      <trkpt lat="42.565861000000005" lon="-1.3950170000000008">
        <ele>445.218</ele>
        <time>2022-06-19T09:49:07Z</time>
      </trkpt>
      <trkpt lat="42.565797" lon="-1.3950870000000009">
        <ele>445.609</ele>
        <time>2022-06-19T09:49:10Z</time>
      </trkpt>
      <trkpt lat="42.565665" lon="-1.3952340000000008">
        <ele>446.627</ele>
        <time>2022-06-19T09:49:16Z</time>
      </trkpt>
      <trkpt lat="42.565645" lon="-1.3952610000000008">
        <ele>446.676</ele>
        <time>2022-06-19T09:49:17Z</time>
      </trkpt>
      <trkpt lat="42.565535000000004" lon="-1.3953870000000008">
        <ele>447.831</ele>
        <time>2022-06-19T09:49:23Z</time>
      </trkpt>
      <trkpt lat="42.565333" lon="-1.3956620000000008">
        <ele>448.635</ele>
        <time>2022-06-19T09:49:31Z</time>
      </trkpt>
      <trkpt lat="42.565310000000004" lon="-1.3957000000000008">
        <ele>449.037</ele>
        <time>2022-06-19T09:49:32Z</time>
      </trkpt>
      <trkpt lat="42.565144000000004" lon="-1.3959560000000009">
        <ele>450.293</ele>
        <time>2022-06-19T09:49:39Z</time>
      </trkpt>
      <trkpt lat="42.565099000000004" lon="-1.396039000000001">
        <ele>450.477</ele>
        <time>2022-06-19T09:49:41Z</time>
      </trkpt>
      <trkpt lat="42.56494000000001" lon="-1.396346000000001">
        <ele>451.260</ele>
        <time>2022-06-19T09:49:48Z</time>
      </trkpt>
      <trkpt lat="42.564918000000006" lon="-1.396394000000001">
        <ele>451.469</ele>
        <time>2022-06-19T09:49:49Z</time>
      </trkpt>
      <trkpt lat="42.564896000000005" lon="-1.396443000000001">
        <ele>451.646</ele>
        <time>2022-06-19T09:49:50Z</time>
      </trkpt>
      <trkpt lat="42.56481" lon="-1.396636000000001">
        <ele>452.088</ele>
        <time>2022-06-19T09:49:54Z</time>
      </trkpt>
      <trkpt lat="42.56477" lon="-1.396739000000001">
        <ele>452.216</ele>
        <time>2022-06-19T09:49:56Z</time>
      </trkpt>
      <trkpt lat="42.564749000000006" lon="-1.3967920000000011">
        <ele>452.409</ele>
        <time>2022-06-19T09:49:57Z</time>
      </trkpt>
      <trkpt lat="42.56456200000001" lon="-1.397338000000001">
        <ele>453.075</ele>
        <time>2022-06-19T09:50:07Z</time>
      </trkpt>
      <trkpt lat="42.56444700000001" lon="-1.3978010000000012">
        <ele>453.294</ele>
        <time>2022-06-19T09:50:15Z</time>
      </trkpt>
      <trkpt lat="42.56440500000001" lon="-1.3979760000000012">
        <ele>453.469</ele>
        <time>2022-06-19T09:50:18Z</time>
      </trkpt>
      <trkpt lat="42.56431700000001" lon="-1.3985100000000013">
        <ele>453.683</ele>
        <time>2022-06-19T09:50:27Z</time>
      </trkpt>
      <trkpt lat="42.56423100000001" lon="-1.3991560000000012">
        <ele>453.425</ele>
        <time>2022-06-19T09:50:37Z</time>
      </trkpt>
      <trkpt lat="42.564136000000005" lon="-1.3998450000000011">
        <ele>453.461</ele>
        <time>2022-06-19T09:50:47Z</time>
      </trkpt>
      <trkpt lat="42.564038000000004" lon="-1.400321000000001">
        <ele>453.645</ele>
        <time>2022-06-19T09:50:54Z</time>
      </trkpt>
      <trkpt lat="42.563983" lon="-1.400524000000001">
        <ele>453.688</ele>
        <time>2022-06-19T09:50:57Z</time>
      </trkpt>
      <trkpt lat="42.563777" lon="-1.401145000000001">
        <ele>453.627</ele>
        <time>2022-06-19T09:51:06Z</time>
      </trkpt>
      <trkpt lat="42.56351" lon="-1.401745000000001">
        <ele>453.056</ele>
        <time>2022-06-19T09:51:15Z</time>
      </trkpt>
      <trkpt lat="42.563225" lon="-1.402236000000001">
        <ele>452.459</ele>
        <time>2022-06-19T09:51:23Z</time>
      </trkpt>
      <trkpt lat="42.563151000000005" lon="-1.402346000000001">
        <ele>452.214</ele>
        <time>2022-06-19T09:51:25Z</time>
      </trkpt>
      <trkpt lat="42.562962000000006" lon="-1.402615000000001">
        <ele>452.009</ele>
        <time>2022-06-19T09:51:30Z</time>
      </trkpt>
      <trkpt lat="42.56264000000001" lon="-1.402994000000001">
        <ele>451.246</ele>
        <time>2022-06-19T09:51:38Z</time>
      </trkpt>
      <trkpt lat="42.562599000000006" lon="-1.4030410000000009">
        <ele>451.235</ele>
        <time>2022-06-19T09:51:39Z</time>
      </trkpt>
      <trkpt lat="42.56230800000001" lon="-1.403367000000001">
        <ele>450.060</ele>
        <time>2022-06-19T09:51:46Z</time>
      </trkpt>
      <trkpt lat="42.56194700000001" lon="-1.403768000000001">
        <ele>449.824</ele>
        <time>2022-06-19T09:51:55Z</time>
      </trkpt>
      <trkpt lat="42.56187300000001" lon="-1.403850000000001">
        <ele>449.876</ele>
        <time>2022-06-19T09:51:57Z</time>
      </trkpt>
      <trkpt lat="42.561436000000015" lon="-1.404352000000001">
        <ele>449.862</ele>
        <time>2022-06-19T09:52:08Z</time>
      </trkpt>
      <trkpt lat="42.561397000000014" lon="-1.4043990000000008">
        <ele>449.856</ele>
        <time>2022-06-19T09:52:09Z</time>
      </trkpt>
      <trkpt lat="42.56097500000001" lon="-1.4048690000000008">
        <ele>450.019</ele>
        <time>2022-06-19T09:52:19Z</time>
      </trkpt>
      <trkpt lat="42.560932000000015" lon="-1.4049150000000008">
        <ele>450.038</ele>
        <time>2022-06-19T09:52:20Z</time>
      </trkpt>
      <trkpt lat="42.56048400000002" lon="-1.4054170000000008">
        <ele>449.635</ele>
        <time>2022-06-19T09:52:31Z</time>
      </trkpt>
      <trkpt lat="42.56009000000002" lon="-1.4058670000000009">
        <ele>449.686</ele>
        <time>2022-06-19T09:52:41Z</time>
      </trkpt>
      <trkpt lat="42.55965800000001" lon="-1.406371000000001">
        <ele>449.214</ele>
        <time>2022-06-19T09:52:52Z</time>
      </trkpt>
      <trkpt lat="42.559609000000016" lon="-1.4064260000000008">
        <ele>449.209</ele>
        <time>2022-06-19T09:52:53Z</time>
      </trkpt>
      <trkpt lat="42.55923400000002" lon="-1.4069130000000007">
        <ele>448.664</ele>
        <time>2022-06-19T09:53:03Z</time>
      </trkpt>
      <trkpt lat="42.559010000000015" lon="-1.4072320000000007">
        <ele>448.243</ele>
        <time>2022-06-19T09:53:09Z</time>
      </trkpt>
      <trkpt lat="42.55887900000001" lon="-1.4074450000000007">
        <ele>448.228</ele>
        <time>2022-06-19T09:53:13Z</time>
      </trkpt>
      <trkpt lat="42.558574000000014" lon="-1.4079860000000006">
        <ele>448.032</ele>
        <time>2022-06-19T09:53:23Z</time>
      </trkpt>
      <trkpt lat="42.55845200000002" lon="-1.4082150000000007">
        <ele>448.044</ele>
        <time>2022-06-19T09:53:27Z</time>
      </trkpt>
      <trkpt lat="42.55831700000002" lon="-1.4084930000000007">
        <ele>448.060</ele>
        <time>2022-06-19T09:53:32Z</time>
      </trkpt>
      <trkpt lat="42.558216000000016" lon="-1.4087240000000008">
        <ele>447.294</ele>
        <time>2022-06-19T09:53:36Z</time>
      </trkpt>
      <trkpt lat="42.55811900000002" lon="-1.4089530000000008">
        <ele>446.867</ele>
        <time>2022-06-19T09:53:40Z</time>
      </trkpt>
      <trkpt lat="42.55794100000002" lon="-1.4093860000000007">
        <ele>446.446</ele>
        <time>2022-06-19T09:53:47Z</time>
      </trkpt>
      <trkpt lat="42.55774200000002" lon="-1.4099830000000007">
        <ele>447.046</ele>
        <time>2022-06-19T09:53:56Z</time>
      </trkpt>
      <trkpt lat="42.557549000000016" lon="-1.4106010000000007">
        <ele>447.288</ele>
        <time>2022-06-19T09:54:05Z</time>
      </trkpt>
      <trkpt lat="42.557482000000014" lon="-1.4108060000000007">
        <ele>447.216</ele>
        <time>2022-06-19T09:54:08Z</time>
      </trkpt>
      <trkpt lat="42.557352000000016" lon="-1.4112150000000008">
        <ele>447.409</ele>
        <time>2022-06-19T09:54:14Z</time>
      </trkpt>
      <trkpt lat="42.55713500000002" lon="-1.4119010000000007">
        <ele>447.665</ele>
        <time>2022-06-19T09:54:24Z</time>
      </trkpt>
      <trkpt lat="42.55691700000002" lon="-1.4125840000000007">
        <ele>447.444</ele>
        <time>2022-06-19T09:54:34Z</time>
      </trkpt>
      <trkpt lat="42.55687100000002" lon="-1.4127200000000006">
        <ele>447.479</ele>
        <time>2022-06-19T09:54:36Z</time>
      </trkpt>
      <trkpt lat="42.556704000000025" lon="-1.4132750000000007">
        <ele>447.473</ele>
        <time>2022-06-19T09:54:44Z</time>
      </trkpt>
      <trkpt lat="42.55655400000003" lon="-1.4138050000000006">
        <ele>446.695</ele>
        <time>2022-06-19T09:54:52Z</time>
      </trkpt>
      <trkpt lat="42.55646400000003" lon="-1.4140650000000006">
        <ele>446.421</ele>
        <time>2022-06-19T09:54:56Z</time>
      </trkpt>
      <trkpt lat="42.55638800000003" lon="-1.4142690000000007">
        <ele>446.255</ele>
        <time>2022-06-19T09:54:59Z</time>
      </trkpt>
      <trkpt lat="42.55617900000003" lon="-1.4148850000000006">
        <ele>446.868</ele>
        <time>2022-06-19T09:55:08Z</time>
      </trkpt>
      <trkpt lat="42.55609900000003" lon="-1.4151530000000005">
        <ele>447.267</ele>
        <time>2022-06-19T09:55:12Z</time>
      </trkpt>
      <trkpt lat="42.55605500000003" lon="-1.4153730000000007">
        <ele>447.485</ele>
        <time>2022-06-19T09:55:15Z</time>
      </trkpt>
      <trkpt lat="42.55589100000003" lon="-1.4158760000000006">
        <ele>447.689</ele>
        <time>2022-06-19T09:55:23Z</time>
      </trkpt>
      <trkpt lat="42.55573000000003" lon="-1.4163420000000007">
        <ele>447.417</ele>
        <time>2022-06-19T09:55:31Z</time>
      </trkpt>
      <trkpt lat="42.555569000000034" lon="-1.4168220000000007">
        <ele>448.009</ele>
        <time>2022-06-19T09:55:40Z</time>
      </trkpt>
      <trkpt lat="42.555521000000034" lon="-1.4169750000000008">
        <ele>448.269</ele>
        <time>2022-06-19T09:55:43Z</time>
      </trkpt>
      <trkpt lat="42.55545200000003" lon="-1.4171780000000007">
        <ele>448.828</ele>
        <time>2022-06-19T09:55:47Z</time>
      </trkpt>
      <trkpt lat="42.555417000000034" lon="-1.4172810000000007">
        <ele>449.463</ele>
        <time>2022-06-19T09:55:49Z</time>
      </trkpt>
      <trkpt lat="42.555402000000036" lon="-1.4173330000000006">
        <ele>449.677</ele>
        <time>2022-06-19T09:55:50Z</time>
      </trkpt>
      <trkpt lat="42.55532200000004" lon="-1.4175790000000006">
        <ele>450.439</ele>
        <time>2022-06-19T09:55:55Z</time>
      </trkpt>
      <trkpt lat="42.55527500000004" lon="-1.4177270000000006">
        <ele>450.435</ele>
        <time>2022-06-19T09:55:58Z</time>
      </trkpt>
      <trkpt lat="42.555189000000034" lon="-1.4179800000000007">
        <ele>451.069</ele>
        <time>2022-06-19T09:56:03Z</time>
      </trkpt>
      <trkpt lat="42.55512500000003" lon="-1.4181670000000006">
        <ele>451.892</ele>
        <time>2022-06-19T09:56:07Z</time>
      </trkpt>
      <trkpt lat="42.55504700000003" lon="-1.4184000000000005">
        <ele>452.231</ele>
        <time>2022-06-19T09:56:12Z</time>
      </trkpt>
      <trkpt lat="42.55500500000003" lon="-1.4185400000000006">
        <ele>453.071</ele>
        <time>2022-06-19T09:56:15Z</time>
      </trkpt>
      <trkpt lat="42.55488600000003" lon="-1.4189240000000005">
        <ele>454.041</ele>
        <time>2022-06-19T09:56:23Z</time>
      </trkpt>
      <trkpt lat="42.554753000000034" lon="-1.4193470000000006">
        <ele>455.015</ele>
        <time>2022-06-19T09:56:32Z</time>
      </trkpt>
      <trkpt lat="42.55470600000003" lon="-1.4194860000000005">
        <ele>455.209</ele>
        <time>2022-06-19T09:56:35Z</time>
      </trkpt>
      <trkpt lat="42.55468900000003" lon="-1.4195310000000005">
        <ele>455.278</ele>
        <time>2022-06-19T09:56:36Z</time>
      </trkpt>
      <trkpt lat="42.554581000000034" lon="-1.4199140000000006">
        <ele>455.847</ele>
        <time>2022-06-19T09:56:44Z</time>
      </trkpt>
      <trkpt lat="42.554460000000034" lon="-1.4203540000000006">
        <ele>456.252</ele>
        <time>2022-06-19T09:56:53Z</time>
      </trkpt>
      <trkpt lat="42.554448000000036" lon="-1.4204020000000006">
        <ele>456.236</ele>
        <time>2022-06-19T09:56:54Z</time>
      </trkpt>
      <trkpt lat="42.55433500000004" lon="-1.4209930000000006">
        <ele>457.078</ele>
        <time>2022-06-19T09:57:05Z</time>
      </trkpt>
      <trkpt lat="42.554330000000036" lon="-1.4210440000000006">
        <ele>457.284</ele>
        <time>2022-06-19T09:57:06Z</time>
      </trkpt>
      <trkpt lat="42.554274000000035" lon="-1.4214990000000007">
        <ele>457.868</ele>
        <time>2022-06-19T09:57:14Z</time>
      </trkpt>
      <trkpt lat="42.55425600000004" lon="-1.4217490000000008">
        <ele>458.251</ele>
        <time>2022-06-19T09:57:18Z</time>
      </trkpt>
      <trkpt lat="42.55424800000004" lon="-1.421999000000001">
        <ele>458.640</ele>
        <time>2022-06-19T09:57:22Z</time>
      </trkpt>
      <trkpt lat="42.554226000000035" lon="-1.422568000000001">
        <ele>459.024</ele>
        <time>2022-06-19T09:57:31Z</time>
      </trkpt>
      <trkpt lat="42.554226000000035" lon="-1.422819000000001">
        <ele>459.404</ele>
        <time>2022-06-19T09:57:35Z</time>
      </trkpt>
      <trkpt lat="42.55422800000004" lon="-1.422872000000001">
        <ele>459.614</ele>
        <time>2022-06-19T09:57:37Z</time>
      </trkpt>
      <trkpt lat="42.55422800000004" lon="-1.422872000000001">
        <ele>459.609</ele>
        <time>2022-06-19T09:57:38Z</time>
      </trkpt>
      <trkpt lat="42.55422800000004" lon="-1.422872000000001">
        <ele>459.863</ele>
        <time>2022-06-19T09:57:39Z</time>
      </trkpt>
      <trkpt lat="42.55422400000004" lon="-1.422915000000001">
        <ele>460.672</ele>
        <time>2022-06-19T09:58:45Z</time>
      </trkpt>
      <trkpt lat="42.554217000000044" lon="-1.423137000000001">
        <ele>460.257</ele>
        <time>2022-06-19T09:58:50Z</time>
      </trkpt>
      <trkpt lat="42.55421000000005" lon="-1.423590000000001">
        <ele>460.071</ele>
        <time>2022-06-19T09:58:57Z</time>
      </trkpt>
      <trkpt lat="42.55419300000005" lon="-1.424204000000001">
        <ele>460.063</ele>
        <time>2022-06-19T09:59:06Z</time>
      </trkpt>
      <trkpt lat="42.554180000000045" lon="-1.4249470000000009">
        <ele>459.839</ele>
        <time>2022-06-19T09:59:17Z</time>
      </trkpt>
      <trkpt lat="42.55416700000004" lon="-1.425605000000001">
        <ele>459.883</ele>
        <time>2022-06-19T09:59:27Z</time>
      </trkpt>
      <trkpt lat="42.554160000000046" lon="-1.426296000000001">
        <ele>460.276</ele>
        <time>2022-06-19T09:59:38Z</time>
      </trkpt>
      <trkpt lat="42.55414700000004" lon="-1.426784000000001">
        <ele>460.635</ele>
        <time>2022-06-19T09:59:46Z</time>
      </trkpt>
      <trkpt lat="42.55413600000004" lon="-1.427518000000001">
        <ele>461.261</ele>
        <time>2022-06-19T09:59:58Z</time>
      </trkpt>
      <trkpt lat="42.55413600000004" lon="-1.427579000000001">
        <ele>461.221</ele>
        <time>2022-06-19T09:59:59Z</time>
      </trkpt>
      <trkpt lat="42.55413000000004" lon="-1.427942000000001">
        <ele>461.613</ele>
        <time>2022-06-19T10:00:05Z</time>
      </trkpt>
      <trkpt lat="42.55412300000005" lon="-1.4282450000000009">
        <ele>462.009</ele>
        <time>2022-06-19T10:00:10Z</time>
      </trkpt>
      <trkpt lat="42.55411700000005" lon="-1.428479000000001">
        <ele>462.897</ele>
        <time>2022-06-19T10:00:14Z</time>
      </trkpt>
      <trkpt lat="42.55411100000005" lon="-1.428773000000001">
        <ele>463.086</ele>
        <time>2022-06-19T10:00:19Z</time>
      </trkpt>
      <trkpt lat="42.55411300000005" lon="-1.4291980000000009">
        <ele>463.851</ele>
        <time>2022-06-19T10:00:26Z</time>
      </trkpt>
      <trkpt lat="42.554109000000054" lon="-1.4294960000000008">
        <ele>464.215</ele>
        <time>2022-06-19T10:00:31Z</time>
      </trkpt>
      <trkpt lat="42.554097000000056" lon="-1.4301140000000008">
        <ele>465.037</ele>
        <time>2022-06-19T10:00:41Z</time>
      </trkpt>
      <trkpt lat="42.55409900000006" lon="-1.4301790000000008">
        <ele>465.063</ele>
        <time>2022-06-19T10:00:42Z</time>
      </trkpt>
      <trkpt lat="42.554103000000055" lon="-1.4308080000000007">
        <ele>465.287</ele>
        <time>2022-06-19T10:00:51Z</time>
      </trkpt>
      <trkpt lat="42.554154000000054" lon="-1.4314850000000008">
        <ele>465.030</ele>
        <time>2022-06-19T10:01:00Z</time>
      </trkpt>
      <trkpt lat="42.55425000000005" lon="-1.4321220000000008">
        <ele>464.269</ele>
        <time>2022-06-19T10:01:08Z</time>
      </trkpt>
      <trkpt lat="42.55436900000005" lon="-1.4328340000000008">
        <ele>463.829</ele>
        <time>2022-06-19T10:01:16Z</time>
      </trkpt>
      <trkpt lat="42.55439800000005" lon="-1.433019000000001">
        <ele>463.600</ele>
        <time>2022-06-19T10:01:18Z</time>
      </trkpt>
      <trkpt lat="42.554481000000045" lon="-1.4335060000000008">
        <ele>463.220</ele>
        <time>2022-06-19T10:01:23Z</time>
      </trkpt>
      <trkpt lat="42.55451600000004" lon="-1.4337140000000008">
        <ele>463.009</ele>
        <time>2022-06-19T10:01:25Z</time>
      </trkpt>
      <trkpt lat="42.55460100000004" lon="-1.434231000000001">
        <ele>462.483</ele>
        <time>2022-06-19T10:01:30Z</time>
      </trkpt>
      <trkpt lat="42.55461700000004" lon="-1.434333000000001">
        <ele>462.242</ele>
        <time>2022-06-19T10:01:31Z</time>
      </trkpt>
      <trkpt lat="42.55468500000004" lon="-1.434748000000001">
        <ele>461.467</ele>
        <time>2022-06-19T10:01:35Z</time>
      </trkpt>
      <trkpt lat="42.554780000000044" lon="-1.435350000000001">
        <ele>460.411</ele>
        <time>2022-06-19T10:01:41Z</time>
      </trkpt>
      <trkpt lat="42.55490400000004" lon="-1.436071000000001">
        <ele>460.233</ele>
        <time>2022-06-19T10:01:49Z</time>
      </trkpt>
      <trkpt lat="42.555013000000045" lon="-1.436803000000001">
        <ele>461.279</ele>
        <time>2022-06-19T10:01:58Z</time>
      </trkpt>
      <trkpt lat="42.55503400000004" lon="-1.436948000000001">
        <ele>461.453</ele>
        <time>2022-06-19T10:02:00Z</time>
      </trkpt>
      <trkpt lat="42.55507100000004" lon="-1.437161000000001">
        <ele>461.636</ele>
        <time>2022-06-19T10:02:03Z</time>
      </trkpt>
      <trkpt lat="42.55509400000004" lon="-1.437297000000001">
        <ele>461.615</ele>
        <time>2022-06-19T10:02:05Z</time>
      </trkpt>
      <trkpt lat="42.55515600000004" lon="-1.4376920000000009">
        <ele>462.649</ele>
        <time>2022-06-19T10:02:11Z</time>
      </trkpt>
      <trkpt lat="42.55519500000004" lon="-1.4379350000000009">
        <ele>463.002</ele>
        <time>2022-06-19T10:02:15Z</time>
      </trkpt>
      <trkpt lat="42.55523100000004" lon="-1.4381700000000008">
        <ele>463.622</ele>
        <time>2022-06-19T10:02:19Z</time>
      </trkpt>
      <trkpt lat="42.55527700000004" lon="-1.438455000000001">
        <ele>464.809</ele>
        <time>2022-06-19T10:02:24Z</time>
      </trkpt>
      <trkpt lat="42.55528700000004" lon="-1.4385100000000008">
        <ele>465.035</ele>
        <time>2022-06-19T10:02:25Z</time>
      </trkpt>
      <trkpt lat="42.55535200000004" lon="-1.4388990000000008">
        <ele>466.044</ele>
        <time>2022-06-19T10:02:32Z</time>
      </trkpt>
      <trkpt lat="42.55536100000004" lon="-1.438952000000001">
        <ele>466.239</ele>
        <time>2022-06-19T10:02:33Z</time>
      </trkpt>
      <trkpt lat="42.55538900000004" lon="-1.439113000000001">
        <ele>466.463</ele>
        <time>2022-06-19T10:02:37Z</time>
      </trkpt>
      <trkpt lat="42.55544800000004" lon="-1.439496000000001">
        <ele>467.075</ele>
        <time>2022-06-19T10:02:43Z</time>
      </trkpt>
      <trkpt lat="42.55550100000004" lon="-1.439831000000001">
        <ele>467.631</ele>
        <time>2022-06-19T10:02:49Z</time>
      </trkpt>
      <trkpt lat="42.55554300000004" lon="-1.440112000000001">
        <ele>468.235</ele>
        <time>2022-06-19T10:02:54Z</time>
      </trkpt>
      <trkpt lat="42.55560500000004" lon="-1.440514000000001">
        <ele>469.218</ele>
        <time>2022-06-19T10:03:01Z</time>
      </trkpt>
      <trkpt lat="42.555613000000044" lon="-1.440571000000001">
        <ele>469.437</ele>
        <time>2022-06-19T10:03:02Z</time>
      </trkpt>
      <trkpt lat="42.55566200000004" lon="-1.4408530000000008">
        <ele>470.227</ele>
        <time>2022-06-19T10:03:07Z</time>
      </trkpt>
      <trkpt lat="42.55570500000004" lon="-1.4410820000000009">
        <ele>471.468</ele>
        <time>2022-06-19T10:03:11Z</time>
      </trkpt>
      <trkpt lat="42.55572500000004" lon="-1.441195000000001">
        <ele>471.614</ele>
        <time>2022-06-19T10:03:13Z</time>
      </trkpt>
      <trkpt lat="42.555833000000035" lon="-1.441724000000001">
        <ele>472.009</ele>
        <time>2022-06-19T10:03:22Z</time>
      </trkpt>
      <trkpt lat="42.555923000000035" lon="-1.442058000000001">
        <ele>472.483</ele>
        <time>2022-06-19T10:03:28Z</time>
      </trkpt>
      <trkpt lat="42.55599700000003" lon="-1.4422910000000009">
        <ele>472.472</ele>
        <time>2022-06-19T10:03:32Z</time>
      </trkpt>
      <trkpt lat="42.55607600000003" lon="-1.4425370000000008">
        <ele>472.887</ele>
        <time>2022-06-19T10:03:36Z</time>
      </trkpt>
      <trkpt lat="42.55613900000003" lon="-1.4427230000000009">
        <ele>473.241</ele>
        <time>2022-06-19T10:03:39Z</time>
      </trkpt>
      <trkpt lat="42.55617800000003" lon="-1.4428480000000008">
        <ele>473.493</ele>
        <time>2022-06-19T10:03:41Z</time>
      </trkpt>
      <trkpt lat="42.55639300000003" lon="-1.4434970000000007">
        <ele>474.039</ele>
        <time>2022-06-19T10:03:51Z</time>
      </trkpt>
      <trkpt lat="42.556588000000026" lon="-1.4441240000000006">
        <ele>474.263</ele>
        <time>2022-06-19T10:04:00Z</time>
      </trkpt>
      <trkpt lat="42.556631000000024" lon="-1.4442670000000006">
        <ele>474.246</ele>
        <time>2022-06-19T10:04:02Z</time>
      </trkpt>
      <trkpt lat="42.556769000000024" lon="-1.4446880000000006">
        <ele>474.275</ele>
        <time>2022-06-19T10:04:08Z</time>
      </trkpt>
      <trkpt lat="42.55699600000003" lon="-1.4454030000000007">
        <ele>473.866</ele>
        <time>2022-06-19T10:04:18Z</time>
      </trkpt>
      <trkpt lat="42.55702000000003" lon="-1.4454730000000007">
        <ele>473.829</ele>
        <time>2022-06-19T10:04:19Z</time>
      </trkpt>
      <trkpt lat="42.55721500000003" lon="-1.4460800000000007">
        <ele>473.621</ele>
        <time>2022-06-19T10:04:28Z</time>
      </trkpt>
      <trkpt lat="42.557416000000025" lon="-1.4467090000000007">
        <ele>473.809</ele>
        <time>2022-06-19T10:04:38Z</time>
      </trkpt>
      <trkpt lat="42.557436000000024" lon="-1.4467710000000007">
        <ele>474.257</ele>
        <time>2022-06-19T10:04:39Z</time>
      </trkpt>
      <trkpt lat="42.557624000000025" lon="-1.4473590000000007">
        <ele>475.426</ele>
        <time>2022-06-19T10:04:49Z</time>
      </trkpt>
      <trkpt lat="42.55773200000002" lon="-1.4476970000000007">
        <ele>476.641</ele>
        <time>2022-06-19T10:04:55Z</time>
      </trkpt>
      <trkpt lat="42.557801000000026" lon="-1.4479140000000006">
        <ele>477.265</ele>
        <time>2022-06-19T10:04:59Z</time>
      </trkpt>
      <trkpt lat="42.557818000000026" lon="-1.4479680000000006">
        <ele>477.487</ele>
        <time>2022-06-19T10:05:00Z</time>
      </trkpt>
      <trkpt lat="42.55789800000002" lon="-1.4482280000000005">
        <ele>478.433</ele>
        <time>2022-06-19T10:05:05Z</time>
      </trkpt>
      <trkpt lat="42.557931000000025" lon="-1.4483280000000005">
        <ele>478.887</ele>
        <time>2022-06-19T10:05:07Z</time>
      </trkpt>
      <trkpt lat="42.55804700000002" lon="-1.4486780000000006">
        <ele>479.650</ele>
        <time>2022-06-19T10:05:14Z</time>
      </trkpt>
      <trkpt lat="42.55813200000002" lon="-1.4489220000000005">
        <ele>480.259</ele>
        <time>2022-06-19T10:05:19Z</time>
      </trkpt>
      <trkpt lat="42.558207000000024" lon="-1.4491150000000006">
        <ele>480.648</ele>
        <time>2022-06-19T10:05:23Z</time>
      </trkpt>
      <trkpt lat="42.558316000000026" lon="-1.4493970000000005">
        <ele>481.461</ele>
        <time>2022-06-19T10:05:29Z</time>
      </trkpt>
      <trkpt lat="42.55840300000003" lon="-1.4495780000000005">
        <ele>481.817</ele>
        <time>2022-06-19T10:05:33Z</time>
      </trkpt>
      <trkpt lat="42.55851000000003" lon="-1.4498010000000006">
        <ele>482.409</ele>
        <time>2022-06-19T10:05:38Z</time>
      </trkpt>
      <trkpt lat="42.558584000000025" lon="-1.4499210000000005">
        <ele>483.045</ele>
        <time>2022-06-19T10:05:41Z</time>
      </trkpt>
      <trkpt lat="42.55873400000002" lon="-1.4501570000000004">
        <ele>483.664</ele>
        <time>2022-06-19T10:05:47Z</time>
      </trkpt>
      <trkpt lat="42.55881100000002" lon="-1.4502620000000004">
        <ele>484.029</ele>
        <time>2022-06-19T10:05:50Z</time>
      </trkpt>
      <trkpt lat="42.55894200000002" lon="-1.4504330000000003">
        <ele>484.413</ele>
        <time>2022-06-19T10:05:55Z</time>
      </trkpt>
      <trkpt lat="42.559015000000024" lon="-1.4505510000000004">
        <ele>485.025</ele>
        <time>2022-06-19T10:05:58Z</time>
      </trkpt>
      <trkpt lat="42.559166000000026" lon="-1.4507720000000004">
        <ele>486.011</ele>
        <time>2022-06-19T10:06:04Z</time>
      </trkpt>
      <trkpt lat="42.559192000000024" lon="-1.4508150000000004">
        <ele>486.275</ele>
        <time>2022-06-19T10:06:05Z</time>
      </trkpt>
      <trkpt lat="42.55940100000002" lon="-1.4511940000000003">
        <ele>487.238</ele>
        <time>2022-06-19T10:06:13Z</time>
      </trkpt>
      <trkpt lat="42.55964100000002" lon="-1.4516200000000004">
        <ele>487.867</ele>
        <time>2022-06-19T10:06:22Z</time>
      </trkpt>
      <trkpt lat="42.55973700000002" lon="-1.4518040000000003">
        <ele>488.231</ele>
        <time>2022-06-19T10:06:26Z</time>
      </trkpt>
      <trkpt lat="42.55982100000002" lon="-1.4519860000000002">
        <ele>488.861</ele>
        <time>2022-06-19T10:06:30Z</time>
      </trkpt>
      <trkpt lat="42.55995300000002" lon="-1.4522680000000001">
        <ele>489.407</ele>
        <time>2022-06-19T10:06:36Z</time>
      </trkpt>
      <trkpt lat="42.56000700000002" lon="-1.4524130000000002">
        <ele>490.609</ele>
        <time>2022-06-19T10:06:39Z</time>
      </trkpt>
      <trkpt lat="42.56011400000002" lon="-1.452692">
        <ele>491.494</ele>
        <time>2022-06-19T10:06:45Z</time>
      </trkpt>
      <trkpt lat="42.56014800000002" lon="-1.452782">
        <ele>491.653</ele>
        <time>2022-06-19T10:06:47Z</time>
      </trkpt>
      <trkpt lat="42.56024700000002" lon="-1.452984">
        <ele>492.068</ele>
        <time>2022-06-19T10:06:52Z</time>
      </trkpt>
      <trkpt lat="42.56036300000002" lon="-1.453087">
        <ele>492.652</ele>
        <time>2022-06-19T10:06:56Z</time>
      </trkpt>
      <trkpt lat="42.560420000000015" lon="-1.4531290000000001">
        <ele>493.234</ele>
        <time>2022-06-19T10:06:58Z</time>
      </trkpt>
      <trkpt lat="42.560473000000016" lon="-1.453175">
        <ele>493.860</ele>
        <time>2022-06-19T10:07:00Z</time>
      </trkpt>
      <trkpt lat="42.560600000000015" lon="-1.4532640000000001">
        <ele>494.844</ele>
        <time>2022-06-19T10:07:05Z</time>
      </trkpt>
      <trkpt lat="42.56061600000002" lon="-1.4532710000000002">
        <ele>495.087</ele>
        <time>2022-06-19T10:07:06Z</time>
      </trkpt>
      <trkpt lat="42.560631000000015" lon="-1.4532700000000003">
        <ele>495.816</ele>
        <time>2022-06-19T10:07:10Z</time>
      </trkpt>
      <trkpt lat="42.560651000000014" lon="-1.4532490000000002">
        <ele>497.054</ele>
        <time>2022-06-19T10:08:56Z</time>
      </trkpt>
      <trkpt lat="42.560696000000014" lon="-1.4531940000000003">
        <ele>497.056</ele>
        <time>2022-06-19T10:08:58Z</time>
      </trkpt>
      <trkpt lat="42.56086000000001" lon="-1.4531430000000003">
        <ele>497.011</ele>
        <time>2022-06-19T10:09:02Z</time>
      </trkpt>
      <trkpt lat="42.56090600000001" lon="-1.4531460000000003">
        <ele>497.009</ele>
        <time>2022-06-19T10:09:03Z</time>
      </trkpt>
      <trkpt lat="42.56099100000001" lon="-1.4531730000000003">
        <ele>497.036</ele>
        <time>2022-06-19T10:09:05Z</time>
      </trkpt>
      <trkpt lat="42.561065000000006" lon="-1.4532200000000002">
        <ele>497.075</ele>
        <time>2022-06-19T10:09:07Z</time>
      </trkpt>
      <trkpt lat="42.56121100000001" lon="-1.4533420000000001">
        <ele>497.080</ele>
        <time>2022-06-19T10:09:11Z</time>
      </trkpt>
      <trkpt lat="42.561319000000005" lon="-1.4534280000000002">
        <ele>497.064</ele>
        <time>2022-06-19T10:09:14Z</time>
      </trkpt>
      <trkpt lat="42.561586000000005" lon="-1.4536130000000003">
        <ele>498.256</ele>
        <time>2022-06-19T10:09:22Z</time>
      </trkpt>
      <trkpt lat="42.561620000000005" lon="-1.4536320000000003">
        <ele>498.672</ele>
        <time>2022-06-19T10:09:23Z</time>
      </trkpt>
      <trkpt lat="42.56179600000001" lon="-1.4537250000000002">
        <ele>499.446</ele>
        <time>2022-06-19T10:09:28Z</time>
      </trkpt>
      <trkpt lat="42.56192500000001" lon="-1.45378">
        <ele>500.229</ele>
        <time>2022-06-19T10:09:32Z</time>
      </trkpt>
      <trkpt lat="42.56195700000001" lon="-1.4537950000000002">
        <ele>500.628</ele>
        <time>2022-06-19T10:09:33Z</time>
      </trkpt>
      <trkpt lat="42.561991000000006" lon="-1.4538030000000002">
        <ele>500.843</ele>
        <time>2022-06-19T10:09:34Z</time>
      </trkpt>
      <trkpt lat="42.56209500000001" lon="-1.4538270000000002">
        <ele>501.664</ele>
        <time>2022-06-19T10:09:37Z</time>
      </trkpt>
      <trkpt lat="42.562163000000005" lon="-1.4538560000000003">
        <ele>502.010</ele>
        <time>2022-06-19T10:09:39Z</time>
      </trkpt>
      <trkpt lat="42.562231000000004" lon="-1.4538800000000003">
        <ele>502.609</ele>
        <time>2022-06-19T10:09:41Z</time>
      </trkpt>
      <trkpt lat="42.562475000000006" lon="-1.4539420000000003">
        <ele>503.635</ele>
        <time>2022-06-19T10:09:48Z</time>
      </trkpt>
      <trkpt lat="42.562751000000006" lon="-1.4540280000000003">
        <ele>504.634</ele>
        <time>2022-06-19T10:09:56Z</time>
      </trkpt>
      <trkpt lat="42.562856000000004" lon="-1.4540550000000003">
        <ele>504.869</ele>
        <time>2022-06-19T10:09:59Z</time>
      </trkpt>
      <trkpt lat="42.562924" lon="-1.4540720000000003">
        <ele>505.063</ele>
        <time>2022-06-19T10:10:01Z</time>
      </trkpt>
      <trkpt lat="42.563036000000004" lon="-1.4541120000000003">
        <ele>505.245</ele>
        <time>2022-06-19T10:10:05Z</time>
      </trkpt>
      <trkpt lat="42.563177" lon="-1.4541290000000002">
        <ele>505.851</ele>
        <time>2022-06-19T10:10:10Z</time>
      </trkpt>
      <trkpt lat="42.563386" lon="-1.4541790000000003">
        <ele>506.645</ele>
        <time>2022-06-19T10:10:16Z</time>
      </trkpt>
      <trkpt lat="42.563494" lon="-1.4542100000000002">
        <ele>506.848</ele>
        <time>2022-06-19T10:10:19Z</time>
      </trkpt>
      <trkpt lat="42.563853" lon="-1.4543090000000003">
        <ele>507.817</ele>
        <time>2022-06-19T10:10:29Z</time>
      </trkpt>
      <trkpt lat="42.563888" lon="-1.4543160000000004">
        <ele>508.072</ele>
        <time>2022-06-19T10:10:30Z</time>
      </trkpt>
      <trkpt lat="42.563995999999996" lon="-1.4543360000000003">
        <ele>508.213</ele>
        <time>2022-06-19T10:10:33Z</time>
      </trkpt>
      <trkpt lat="42.564172" lon="-1.4543920000000004">
        <ele>508.814</ele>
        <time>2022-06-19T10:10:38Z</time>
      </trkpt>
      <trkpt lat="42.564208" lon="-1.4544030000000003">
        <ele>509.009</ele>
        <time>2022-06-19T10:10:39Z</time>
      </trkpt>
      <trkpt lat="42.564483" lon="-1.4544690000000002">
        <ele>509.898</ele>
        <time>2022-06-19T10:10:47Z</time>
      </trkpt>
      <trkpt lat="42.564589000000005" lon="-1.4545050000000002">
        <ele>510.227</ele>
        <time>2022-06-19T10:10:50Z</time>
      </trkpt>
      <trkpt lat="42.564783000000006" lon="-1.454625">
        <ele>510.612</ele>
        <time>2022-06-19T10:10:56Z</time>
      </trkpt>
      <trkpt lat="42.56489200000001" lon="-1.45475">
        <ele>511.426</ele>
        <time>2022-06-19T10:11:00Z</time>
      </trkpt>
      <trkpt lat="42.564963000000006" lon="-1.454863">
        <ele>511.848</ele>
        <time>2022-06-19T10:11:03Z</time>
      </trkpt>
      <trkpt lat="42.565054" lon="-1.4550130000000001">
        <ele>512.434</ele>
        <time>2022-06-19T10:11:07Z</time>
      </trkpt>
      <trkpt lat="42.565151" lon="-1.455162">
        <ele>513.278</ele>
        <time>2022-06-19T10:11:11Z</time>
      </trkpt>
      <trkpt lat="42.5652" lon="-1.45523">
        <ele>513.451</ele>
        <time>2022-06-19T10:11:13Z</time>
      </trkpt>
      <trkpt lat="42.565242" lon="-1.455308">
        <ele>513.610</ele>
        <time>2022-06-19T10:11:15Z</time>
      </trkpt>
      <trkpt lat="42.565382" lon="-1.455546">
        <ele>514.613</ele>
        <time>2022-06-19T10:11:21Z</time>
      </trkpt>
      <trkpt lat="42.565442" lon="-1.455669">
        <ele>515.043</ele>
        <time>2022-06-19T10:11:24Z</time>
      </trkpt>
      <trkpt lat="42.565535999999994" lon="-1.455913">
        <ele>515.407</ele>
        <time>2022-06-19T10:11:30Z</time>
      </trkpt>
      <trkpt lat="42.565552999999994" lon="-1.456008">
        <ele>515.609</ele>
        <time>2022-06-19T10:11:32Z</time>
      </trkpt>
      <trkpt lat="42.56555999999999" lon="-1.456243">
        <ele>516.632</ele>
        <time>2022-06-19T10:11:37Z</time>
      </trkpt>
      <trkpt lat="42.56546499999999" lon="-1.456597">
        <ele>517.631</ele>
        <time>2022-06-19T10:11:45Z</time>
      </trkpt>
      <trkpt lat="42.56539799999999" lon="-1.456701">
        <ele>517.836</ele>
        <time>2022-06-19T10:11:48Z</time>
      </trkpt>
      <trkpt lat="42.56530499999999" lon="-1.456802">
        <ele>518.080</ele>
        <time>2022-06-19T10:11:52Z</time>
      </trkpt>
      <trkpt lat="42.565201999999985" lon="-1.4568919999999999">
        <ele>519.042</ele>
        <time>2022-06-19T10:11:56Z</time>
      </trkpt>
      <trkpt lat="42.56507999999999" lon="-1.4569919999999998">
        <ele>520.018</ele>
        <time>2022-06-19T10:12:01Z</time>
      </trkpt>
      <trkpt lat="42.565057999999986" lon="-1.4570089999999998">
        <ele>520.282</ele>
        <time>2022-06-19T10:12:02Z</time>
      </trkpt>
      <trkpt lat="42.564936999999986" lon="-1.4570829999999997">
        <ele>520.865</ele>
        <time>2022-06-19T10:12:08Z</time>
      </trkpt>
      <trkpt lat="42.564911999999985" lon="-1.4570969999999996">
        <ele>521.424</ele>
        <time>2022-06-19T10:12:10Z</time>
      </trkpt>
      <trkpt lat="42.564911999999985" lon="-1.4570969999999996">
        <ele>521.871</ele>
        <time>2022-06-19T10:12:12Z</time>
      </trkpt>
      <trkpt lat="42.56486299999999" lon="-1.4571459999999996">
        <ele>523.241</ele>
        <time>2022-06-19T10:12:58Z</time>
      </trkpt>
      <trkpt lat="42.564815999999986" lon="-1.4571929999999995">
        <ele>523.215</ele>
        <time>2022-06-19T10:13:00Z</time>
      </trkpt>
      <trkpt lat="42.564703999999985" lon="-1.4573009999999995">
        <ele>523.009</ele>
        <time>2022-06-19T10:13:05Z</time>
      </trkpt>
      <trkpt lat="42.56459199999998" lon="-1.4574459999999996">
        <ele>523.278</ele>
        <time>2022-06-19T10:13:11Z</time>
      </trkpt>
      <trkpt lat="42.56451599999998" lon="-1.4576339999999997">
        <ele>524.627</ele>
        <time>2022-06-19T10:13:17Z</time>
      </trkpt>
      <trkpt lat="42.564509999999984" lon="-1.4576669999999996">
        <ele>525.022</ele>
        <time>2022-06-19T10:13:18Z</time>
      </trkpt>
      <trkpt lat="42.56448799999998" lon="-1.4577679999999995">
        <ele>525.686</ele>
        <time>2022-06-19T10:13:21Z</time>
      </trkpt>
      <trkpt lat="42.564464999999984" lon="-1.4578569999999995">
        <ele>526.678</ele>
        <time>2022-06-19T10:13:24Z</time>
      </trkpt>
      <trkpt lat="42.56440899999998" lon="-1.4580349999999995">
        <ele>527.234</ele>
        <time>2022-06-19T10:13:29Z</time>
      </trkpt>
      <trkpt lat="42.56435899999998" lon="-1.4582049999999995">
        <ele>527.878</ele>
        <time>2022-06-19T10:13:34Z</time>
      </trkpt>
      <trkpt lat="42.56434999999998" lon="-1.4582369999999996">
        <ele>528.041</ele>
        <time>2022-06-19T10:13:35Z</time>
      </trkpt>
      <trkpt lat="42.564298999999984" lon="-1.4584639999999995">
        <ele>529.050</ele>
        <time>2022-06-19T10:13:41Z</time>
      </trkpt>
      <trkpt lat="42.56427699999998" lon="-1.4585549999999996">
        <ele>529.225</ele>
        <time>2022-06-19T10:13:43Z</time>
      </trkpt>
      <trkpt lat="42.564222999999984" lon="-1.4588019999999997">
        <ele>530.226</ele>
        <time>2022-06-19T10:13:48Z</time>
      </trkpt>
      <trkpt lat="42.56421299999998" lon="-1.4588499999999998">
        <ele>530.208</ele>
        <time>2022-06-19T10:13:49Z</time>
      </trkpt>
      <trkpt lat="42.56420399999998" lon="-1.4591289999999997">
        <ele>530.809</ele>
        <time>2022-06-19T10:13:54Z</time>
      </trkpt>
      <trkpt lat="42.56422899999998" lon="-1.4593699999999996">
        <ele>531.073</ele>
        <time>2022-06-19T10:13:58Z</time>
      </trkpt>
      <trkpt lat="42.564255999999986" lon="-1.4595519999999995">
        <ele>531.072</ele>
        <time>2022-06-19T10:14:01Z</time>
      </trkpt>
      <trkpt lat="42.564267999999984" lon="-1.4596109999999995">
        <ele>531.087</ele>
        <time>2022-06-19T10:14:02Z</time>
      </trkpt>
      <trkpt lat="42.56430799999998" lon="-1.4597149999999997">
        <ele>531.041</ele>
        <time>2022-06-19T10:14:04Z</time>
      </trkpt>
      <trkpt lat="42.564362999999986" lon="-1.4598089999999997">
        <ele>531.023</ele>
        <time>2022-06-19T10:14:06Z</time>
      </trkpt>
      <trkpt lat="42.56442899999998" lon="-1.4598839999999997">
        <ele>531.229</ele>
        <time>2022-06-19T10:14:08Z</time>
      </trkpt>
      <trkpt lat="42.56452199999998" lon="-1.4599759999999997">
        <ele>531.493</ele>
        <time>2022-06-19T10:14:11Z</time>
      </trkpt>
      <trkpt lat="42.56467999999998" lon="-1.4601119999999996">
        <ele>532.256</ele>
        <time>2022-06-19T10:14:16Z</time>
      </trkpt>
      <trkpt lat="42.56486699999998" lon="-1.4602789999999997">
        <ele>533.075</ele>
        <time>2022-06-19T10:14:22Z</time>
      </trkpt>
      <trkpt lat="42.56496999999998" lon="-1.4603359999999996">
        <ele>533.281</ele>
        <time>2022-06-19T10:14:25Z</time>
      </trkpt>
      <trkpt lat="42.56512199999998" lon="-1.4604299999999997">
        <ele>534.461</ele>
        <time>2022-06-19T10:14:30Z</time>
      </trkpt>
      <trkpt lat="42.56529899999998" lon="-1.4605479999999997">
        <ele>535.417</ele>
        <time>2022-06-19T10:14:37Z</time>
      </trkpt>
      <trkpt lat="42.56530199999998" lon="-1.4605489999999997">
        <ele>535.409</ele>
        <time>2022-06-19T10:14:39Z</time>
      </trkpt>
      <trkpt lat="42.56532399999998" lon="-1.4605659999999996">
        <ele>536.829</ele>
        <time>2022-06-19T10:15:26Z</time>
      </trkpt>
      <trkpt lat="42.56534199999998" lon="-1.4605839999999997">
        <ele>536.848</ele>
        <time>2022-06-19T10:15:27Z</time>
      </trkpt>
      <trkpt lat="42.56544899999998" lon="-1.4607019999999997">
        <ele>536.853</ele>
        <time>2022-06-19T10:15:32Z</time>
      </trkpt>
      <trkpt lat="42.56552599999998" lon="-1.4609129999999997">
        <ele>536.877</ele>
        <time>2022-06-19T10:15:37Z</time>
      </trkpt>
      <trkpt lat="42.565532999999974" lon="-1.4611289999999997">
        <ele>536.419</ele>
        <time>2022-06-19T10:15:42Z</time>
      </trkpt>
      <trkpt lat="42.56546899999997" lon="-1.4614189999999996">
        <ele>536.665</ele>
        <time>2022-06-19T10:15:49Z</time>
      </trkpt>
      <trkpt lat="42.56537899999997" lon="-1.4617039999999997">
        <ele>538.079</ele>
        <time>2022-06-19T10:15:56Z</time>
      </trkpt>
      <trkpt lat="42.56535999999997" lon="-1.4617479999999996">
        <ele>538.282</ele>
        <time>2022-06-19T10:15:57Z</time>
      </trkpt>
      <trkpt lat="42.56526599999997" lon="-1.4620359999999997">
        <ele>539.041</ele>
        <time>2022-06-19T10:16:04Z</time>
      </trkpt>
      <trkpt lat="42.56524899999997" lon="-1.4620769999999996">
        <ele>539.275</ele>
        <time>2022-06-19T10:16:05Z</time>
      </trkpt>
      <trkpt lat="42.56520799999997" lon="-1.4621969999999995">
        <ele>540.228</ele>
        <time>2022-06-19T10:16:08Z</time>
      </trkpt>
      <trkpt lat="42.56519699999997" lon="-1.4622359999999994">
        <ele>540.420</ele>
        <time>2022-06-19T10:16:09Z</time>
      </trkpt>
      <trkpt lat="42.565141999999966" lon="-1.4623989999999993">
        <ele>540.609</ele>
        <time>2022-06-19T10:16:13Z</time>
      </trkpt>
      <trkpt lat="42.565102999999965" lon="-1.4625109999999992">
        <ele>541.228</ele>
        <time>2022-06-19T10:16:16Z</time>
      </trkpt>
      <trkpt lat="42.565015999999964" lon="-1.4627309999999993">
        <ele>542.067</ele>
        <time>2022-06-19T10:16:21Z</time>
      </trkpt>
      <trkpt lat="42.56497799999996" lon="-1.4628239999999992">
        <ele>542.422</ele>
        <time>2022-06-19T10:16:23Z</time>
      </trkpt>
      <trkpt lat="42.56488699999996" lon="-1.4630979999999993">
        <ele>542.486</ele>
        <time>2022-06-19T10:16:29Z</time>
      </trkpt>
      <trkpt lat="42.56475499999996" lon="-1.4634639999999994">
        <ele>543.258</ele>
        <time>2022-06-19T10:16:37Z</time>
      </trkpt>
      <trkpt lat="42.564736999999965" lon="-1.4635069999999994">
        <ele>543.424</ele>
        <time>2022-06-19T10:16:38Z</time>
      </trkpt>
      <trkpt lat="42.56464799999996" lon="-1.4636519999999995">
        <ele>544.658</ele>
        <time>2022-06-19T10:16:42Z</time>
      </trkpt>
      <trkpt lat="42.564626999999966" lon="-1.4636769999999995">
        <ele>544.841</ele>
        <time>2022-06-19T10:16:43Z</time>
      </trkpt>
      <trkpt lat="42.56444599999997" lon="-1.4638209999999994">
        <ele>545.270</ele>
        <time>2022-06-19T10:16:50Z</time>
      </trkpt>
      <trkpt lat="42.564300999999965" lon="-1.4638539999999993">
        <ele>545.468</ele>
        <time>2022-06-19T10:16:55Z</time>
      </trkpt>
      <trkpt lat="42.56418899999996" lon="-1.4638769999999994">
        <ele>545.642</ele>
        <time>2022-06-19T10:16:59Z</time>
      </trkpt>
      <trkpt lat="42.56410599999997" lon="-1.4638999999999995">
        <ele>546.226</ele>
        <time>2022-06-19T10:17:02Z</time>
      </trkpt>
      <trkpt lat="42.56399499999997" lon="-1.4639289999999996">
        <ele>546.809</ele>
        <time>2022-06-19T10:17:06Z</time>
      </trkpt>
      <trkpt lat="42.56391499999997" lon="-1.4639589999999996">
        <ele>547.657</ele>
        <time>2022-06-19T10:17:09Z</time>
      </trkpt>
      <trkpt lat="42.56388999999997" lon="-1.4639689999999996">
        <ele>547.846</ele>
        <time>2022-06-19T10:17:10Z</time>
      </trkpt>
      <trkpt lat="42.56376599999997" lon="-1.4640869999999997">
        <ele>548.821</ele>
        <time>2022-06-19T10:17:16Z</time>
      </trkpt>
      <trkpt lat="42.56374999999997" lon="-1.4641179999999996">
        <ele>548.845</ele>
        <time>2022-06-19T10:17:17Z</time>
      </trkpt>
      <trkpt lat="42.56373399999997" lon="-1.4641469999999996">
        <ele>549.077</ele>
        <time>2022-06-19T10:17:18Z</time>
      </trkpt>
      <trkpt lat="42.563692999999965" lon="-1.4643129999999998">
        <ele>550.263</ele>
        <time>2022-06-19T10:17:23Z</time>
      </trkpt>
      <trkpt lat="42.56368799999996" lon="-1.4643529999999998">
        <ele>550.427</ele>
        <time>2022-06-19T10:17:24Z</time>
      </trkpt>
      <trkpt lat="42.56367999999996" lon="-1.4644369999999998">
        <ele>551.240</ele>
        <time>2022-06-19T10:17:26Z</time>
      </trkpt>
      <trkpt lat="42.563675999999965" lon="-1.4646809999999997">
        <ele>552.449</ele>
        <time>2022-06-19T10:17:31Z</time>
      </trkpt>
      <trkpt lat="42.56365299999997" lon="-1.4648599999999996">
        <ele>553.244</ele>
        <time>2022-06-19T10:17:35Z</time>
      </trkpt>
      <trkpt lat="42.56364899999997" lon="-1.4648969999999997">
        <ele>553.405</ele>
        <time>2022-06-19T10:17:37Z</time>
      </trkpt>
      <trkpt lat="42.56364899999997" lon="-1.4648969999999997">
        <ele>553.615</ele>
        <time>2022-06-19T10:17:39Z</time>
      </trkpt>
      <trkpt lat="42.56367099999997" lon="-1.4649499999999998">
        <ele>555.009</ele>
        <time>2022-06-19T10:18:12Z</time>
      </trkpt>
      <trkpt lat="42.56370499999997" lon="-1.4650399999999997">
        <ele>555.075</ele>
        <time>2022-06-19T10:18:14Z</time>
      </trkpt>
      <trkpt lat="42.56374999999997" lon="-1.4651559999999997">
        <ele>555.074</ele>
        <time>2022-06-19T10:18:16Z</time>
      </trkpt>
      <trkpt lat="42.56383399999997" lon="-1.4653469999999997">
        <ele>554.689</ele>
        <time>2022-06-19T10:18:19Z</time>
      </trkpt>
      <trkpt lat="42.56392499999997" lon="-1.4655409999999998">
        <ele>553.823</ele>
        <time>2022-06-19T10:18:22Z</time>
      </trkpt>
      <trkpt lat="42.56405699999997" lon="-1.4658059999999997">
        <ele>553.495</ele>
        <time>2022-06-19T10:18:26Z</time>
      </trkpt>
      <trkpt lat="42.56434299999997" lon="-1.4664079999999997">
        <ele>553.071</ele>
        <time>2022-06-19T10:18:34Z</time>
      </trkpt>
      <trkpt lat="42.56442799999997" lon="-1.4665629999999996">
        <ele>552.855</ele>
        <time>2022-06-19T10:18:36Z</time>
      </trkpt>
      <trkpt lat="42.56458099999997" lon="-1.4667809999999997">
        <ele>552.658</ele>
        <time>2022-06-19T10:18:39Z</time>
      </trkpt>
      <trkpt lat="42.564646999999965" lon="-1.4668419999999998">
        <ele>552.457</ele>
        <time>2022-06-19T10:18:40Z</time>
      </trkpt>
      <trkpt lat="42.564961999999966" lon="-1.4670339999999997">
        <ele>551.856</ele>
        <time>2022-06-19T10:18:44Z</time>
      </trkpt>
      <trkpt lat="42.565065999999966" lon="-1.4670949999999998">
        <ele>551.659</ele>
        <time>2022-06-19T10:18:45Z</time>
      </trkpt>
      <trkpt lat="42.565429999999964" lon="-1.467307">
        <ele>550.614</ele>
        <time>2022-06-19T10:18:49Z</time>
      </trkpt>
      <trkpt lat="42.565527999999965" lon="-1.4673749999999999">
        <ele>550.209</ele>
        <time>2022-06-19T10:18:50Z</time>
      </trkpt>
      <trkpt lat="42.565620999999965" lon="-1.4674569999999998">
        <ele>549.476</ele>
        <time>2022-06-19T10:18:51Z</time>
      </trkpt>
      <trkpt lat="42.565775999999964" lon="-1.4676779999999998">
        <ele>548.865</ele>
        <time>2022-06-19T10:18:53Z</time>
      </trkpt>
      <trkpt lat="42.56582499999996" lon="-1.4678179999999998">
        <ele>548.250</ele>
        <time>2022-06-19T10:18:54Z</time>
      </trkpt>
      <trkpt lat="42.56585299999996" lon="-1.4679699999999998">
        <ele>547.244</ele>
        <time>2022-06-19T10:18:55Z</time>
      </trkpt>
      <trkpt lat="42.56588099999996" lon="-1.4682829999999998">
        <ele>546.056</ele>
        <time>2022-06-19T10:18:57Z</time>
      </trkpt>
      <trkpt lat="42.56591599999996" lon="-1.4687639999999997">
        <ele>544.432</ele>
        <time>2022-06-19T10:19:00Z</time>
      </trkpt>
      <trkpt lat="42.565916999999956" lon="-1.4689259999999997">
        <ele>543.236</ele>
        <time>2022-06-19T10:19:01Z</time>
      </trkpt>
      <trkpt lat="42.565905999999956" lon="-1.4692579999999997">
        <ele>542.069</ele>
        <time>2022-06-19T10:19:03Z</time>
      </trkpt>
      <trkpt lat="42.565886999999954" lon="-1.4694219999999998">
        <ele>541.488</ele>
        <time>2022-06-19T10:19:04Z</time>
      </trkpt>
      <trkpt lat="42.56580699999996" lon="-1.4697259999999999">
        <ele>540.626</ele>
        <time>2022-06-19T10:19:06Z</time>
      </trkpt>
      <trkpt lat="42.565762999999954" lon="-1.469868">
        <ele>539.447</ele>
        <time>2022-06-19T10:19:07Z</time>
      </trkpt>
      <trkpt lat="42.565733999999956" lon="-1.4700149999999998">
        <ele>538.811</ele>
        <time>2022-06-19T10:19:08Z</time>
      </trkpt>
      <trkpt lat="42.56572499999996" lon="-1.4701639999999998">
        <ele>537.609</ele>
        <time>2022-06-19T10:19:09Z</time>
      </trkpt>
      <trkpt lat="42.56573799999996" lon="-1.4703099999999998">
        <ele>536.073</ele>
        <time>2022-06-19T10:19:10Z</time>
      </trkpt>
      <trkpt lat="42.56578899999996" lon="-1.470584">
        <ele>534.612</ele>
        <time>2022-06-19T10:19:12Z</time>
      </trkpt>
      <trkpt lat="42.56583699999996" lon="-1.470835">
        <ele>533.087</ele>
        <time>2022-06-19T10:19:14Z</time>
      </trkpt>
      <trkpt lat="42.56592299999996" lon="-1.47152">
        <ele>532.051</ele>
        <time>2022-06-19T10:19:20Z</time>
      </trkpt>
      <trkpt lat="42.565980999999965" lon="-1.47209">
        <ele>532.893</ele>
        <time>2022-06-19T10:19:26Z</time>
      </trkpt>
      <trkpt lat="42.56600299999997" lon="-1.472694">
        <ele>533.869</ele>
        <time>2022-06-19T10:19:33Z</time>
      </trkpt>
      <trkpt lat="42.566003999999964" lon="-1.472774">
        <ele>533.873</ele>
        <time>2022-06-19T10:19:34Z</time>
      </trkpt>
      <trkpt lat="42.56602199999996" lon="-1.473154">
        <ele>534.686</ele>
        <time>2022-06-19T10:19:39Z</time>
      </trkpt>
      <trkpt lat="42.56603299999996" lon="-1.473294">
        <ele>535.045</ele>
        <time>2022-06-19T10:19:41Z</time>
      </trkpt>
      <trkpt lat="42.566042999999965" lon="-1.473502">
        <ele>535.481</ele>
        <time>2022-06-19T10:19:44Z</time>
      </trkpt>
      <trkpt lat="42.56605499999996" lon="-1.473638">
        <ele>535.861</ele>
        <time>2022-06-19T10:19:46Z</time>
      </trkpt>
      <trkpt lat="42.56606699999996" lon="-1.473836">
        <ele>536.017</ele>
        <time>2022-06-19T10:19:49Z</time>
      </trkpt>
      <trkpt lat="42.56608999999996" lon="-1.474157">
        <ele>536.409</ele>
        <time>2022-06-19T10:19:54Z</time>
      </trkpt>
      <trkpt lat="42.56610899999996" lon="-1.4745489999999999">
        <ele>537.069</ele>
        <time>2022-06-19T10:20:00Z</time>
      </trkpt>
      <trkpt lat="42.56611999999996" lon="-1.474692">
        <ele>537.298</ele>
        <time>2022-06-19T10:20:02Z</time>
      </trkpt>
      <trkpt lat="42.56615699999996" lon="-1.475188">
        <ele>537.653</ele>
        <time>2022-06-19T10:20:09Z</time>
      </trkpt>
      <trkpt lat="42.56618799999996" lon="-1.475724">
        <ele>537.897</ele>
        <time>2022-06-19T10:20:17Z</time>
      </trkpt>
      <trkpt lat="42.56620899999996" lon="-1.475961">
        <ele>538.279</ele>
        <time>2022-06-19T10:20:21Z</time>
      </trkpt>
      <trkpt lat="42.56621799999996" lon="-1.4761300000000002">
        <ele>538.835</ele>
        <time>2022-06-19T10:20:24Z</time>
      </trkpt>
      <trkpt lat="42.56622499999995" lon="-1.476242">
        <ele>539.229</ele>
        <time>2022-06-19T10:20:26Z</time>
      </trkpt>
      <trkpt lat="42.56624899999996" lon="-1.47656">
        <ele>540.272</ele>
        <time>2022-06-19T10:20:32Z</time>
      </trkpt>
      <trkpt lat="42.56625299999995" lon="-1.476612">
        <ele>540.441</ele>
        <time>2022-06-19T10:20:33Z</time>
      </trkpt>
      <trkpt lat="42.56627099999995" lon="-1.476922">
        <ele>541.477</ele>
        <time>2022-06-19T10:20:39Z</time>
      </trkpt>
      <trkpt lat="42.56628299999995" lon="-1.477022">
        <ele>541.861</ele>
        <time>2022-06-19T10:20:41Z</time>
      </trkpt>
      <trkpt lat="42.56629999999995" lon="-1.477216">
        <ele>542.627</ele>
        <time>2022-06-19T10:20:45Z</time>
      </trkpt>
      <trkpt lat="42.56631699999995" lon="-1.4774660000000002">
        <ele>543.209</ele>
        <time>2022-06-19T10:20:50Z</time>
      </trkpt>
      <trkpt lat="42.56632499999995" lon="-1.477605">
        <ele>543.648</ele>
        <time>2022-06-19T10:20:53Z</time>
      </trkpt>
      <trkpt lat="42.56633799999995" lon="-1.477957">
        <ele>544.427</ele>
        <time>2022-06-19T10:21:00Z</time>
      </trkpt>
      <trkpt lat="42.56634099999995" lon="-1.4781199999999999">
        <ele>544.692</ele>
        <time>2022-06-19T10:21:03Z</time>
      </trkpt>
      <trkpt lat="42.56634399999995" lon="-1.478422">
        <ele>545.676</ele>
        <time>2022-06-19T10:21:09Z</time>
      </trkpt>
      <trkpt lat="42.566342999999954" lon="-1.478475">
        <ele>545.858</ele>
        <time>2022-06-19T10:21:10Z</time>
      </trkpt>
      <trkpt lat="42.566330999999956" lon="-1.478678">
        <ele>546.824</ele>
        <time>2022-06-19T10:21:14Z</time>
      </trkpt>
      <trkpt lat="42.56633499999995" lon="-1.478858">
        <ele>547.428</ele>
        <time>2022-06-19T10:21:18Z</time>
      </trkpt>
      <trkpt lat="42.566327999999956" lon="-1.479048">
        <ele>547.871</ele>
        <time>2022-06-19T10:21:22Z</time>
      </trkpt>
      <trkpt lat="42.56632199999996" lon="-1.479337">
        <ele>548.630</ele>
        <time>2022-06-19T10:21:28Z</time>
      </trkpt>
      <trkpt lat="42.56630399999996" lon="-1.479536">
        <ele>549.036</ele>
        <time>2022-06-19T10:21:32Z</time>
      </trkpt>
      <trkpt lat="42.56629499999996" lon="-1.479682">
        <ele>549.617</ele>
        <time>2022-06-19T10:21:35Z</time>
      </trkpt>
      <trkpt lat="42.56628899999996" lon="-1.4797719999999999">
        <ele>550.018</ele>
        <time>2022-06-19T10:21:37Z</time>
      </trkpt>
      <trkpt lat="42.566284999999965" lon="-1.4798189999999998">
        <ele>550.209</ele>
        <time>2022-06-19T10:21:38Z</time>
      </trkpt>
      <trkpt lat="42.566259999999964" lon="-1.4801419999999998">
        <ele>551.274</ele>
        <time>2022-06-19T10:21:45Z</time>
      </trkpt>
      <trkpt lat="42.566253999999965" lon="-1.480195">
        <ele>551.473</ele>
        <time>2022-06-19T10:21:46Z</time>
      </trkpt>
      <trkpt lat="42.56622999999996" lon="-1.480456">
        <ele>552.678</ele>
        <time>2022-06-19T10:21:52Z</time>
      </trkpt>
      <trkpt lat="42.566225999999965" lon="-1.480502">
        <ele>553.082</ele>
        <time>2022-06-19T10:21:53Z</time>
      </trkpt>
      <trkpt lat="42.56620399999996" lon="-1.480683">
        <ele>553.644</ele>
        <time>2022-06-19T10:21:57Z</time>
      </trkpt>
      <trkpt lat="42.566191999999965" lon="-1.480861">
        <ele>554.480</ele>
        <time>2022-06-19T10:22:01Z</time>
      </trkpt>
      <trkpt lat="42.566183999999964" lon="-1.481052">
        <ele>554.434</ele>
        <time>2022-06-19T10:22:05Z</time>
      </trkpt>
      <trkpt lat="42.56618499999996" lon="-1.481273">
        <ele>555.287</ele>
        <time>2022-06-19T10:22:10Z</time>
      </trkpt>
      <trkpt lat="42.56618799999996" lon="-1.481359">
        <ele>555.626</ele>
        <time>2022-06-19T10:22:12Z</time>
      </trkpt>
      <trkpt lat="42.56618799999996" lon="-1.481524">
        <ele>556.864</ele>
        <time>2022-06-19T10:22:16Z</time>
      </trkpt>
      <trkpt lat="42.56619399999996" lon="-1.481746">
        <ele>557.606</ele>
        <time>2022-06-19T10:22:21Z</time>
      </trkpt>
      <trkpt lat="42.56619299999996" lon="-1.481825">
        <ele>557.816</ele>
        <time>2022-06-19T10:22:23Z</time>
      </trkpt>
      <trkpt lat="42.56619699999996" lon="-1.4819989999999998">
        <ele>558.809</ele>
        <time>2022-06-19T10:22:27Z</time>
      </trkpt>
      <trkpt lat="42.56619399999996" lon="-1.4821289999999998">
        <ele>560.067</ele>
        <time>2022-06-19T10:22:30Z</time>
      </trkpt>
      <trkpt lat="42.56618999999996" lon="-1.482252">
        <ele>560.446</ele>
        <time>2022-06-19T10:22:33Z</time>
      </trkpt>
      <trkpt lat="42.56618299999997" lon="-1.482338">
        <ele>561.081</ele>
        <time>2022-06-19T10:22:35Z</time>
      </trkpt>
      <trkpt lat="42.56615699999997" lon="-1.482599">
        <ele>562.245</ele>
        <time>2022-06-19T10:22:41Z</time>
      </trkpt>
      <trkpt lat="42.56614999999997" lon="-1.482645">
        <ele>562.487</ele>
        <time>2022-06-19T10:22:42Z</time>
      </trkpt>
      <trkpt lat="42.566100999999975" lon="-1.482904">
        <ele>563.283</ele>
        <time>2022-06-19T10:22:48Z</time>
      </trkpt>
      <trkpt lat="42.566049999999976" lon="-1.483116">
        <ele>564.297</ele>
        <time>2022-06-19T10:22:53Z</time>
      </trkpt>
      <trkpt lat="42.56603799999998" lon="-1.4831580000000002">
        <ele>564.230</ele>
        <time>2022-06-19T10:22:54Z</time>
      </trkpt>
      <trkpt lat="42.56593599999998" lon="-1.4834600000000002">
        <ele>564.619</ele>
        <time>2022-06-19T10:23:01Z</time>
      </trkpt>
      <trkpt lat="42.56586099999998" lon="-1.4836790000000002">
        <ele>565.434</ele>
        <time>2022-06-19T10:23:06Z</time>
      </trkpt>
      <trkpt lat="42.56579299999998" lon="-1.4839020000000003">
        <ele>565.655</ele>
        <time>2022-06-19T10:23:11Z</time>
      </trkpt>
      <trkpt lat="42.565644999999975" lon="-1.4844280000000003">
        <ele>566.010</ele>
        <time>2022-06-19T10:23:21Z</time>
      </trkpt>
      <trkpt lat="42.56556799999998" lon="-1.4849290000000004">
        <ele>566.409</ele>
        <time>2022-06-19T10:23:29Z</time>
      </trkpt>
      <trkpt lat="42.565562999999976" lon="-1.4854210000000003">
        <ele>566.894</ele>
        <time>2022-06-19T10:23:36Z</time>
      </trkpt>
      <trkpt lat="42.56561499999997" lon="-1.4858650000000004">
        <ele>567.223</ele>
        <time>2022-06-19T10:23:42Z</time>
      </trkpt>
      <trkpt lat="42.56565999999997" lon="-1.4860830000000005">
        <ele>567.428</ele>
        <time>2022-06-19T10:23:45Z</time>
      </trkpt>
      <trkpt lat="42.56572299999997" lon="-1.4863710000000006">
        <ele>567.482</ele>
        <time>2022-06-19T10:23:49Z</time>
      </trkpt>
      <trkpt lat="42.56586899999997" lon="-1.4869930000000005">
        <ele>567.864</ele>
        <time>2022-06-19T10:23:58Z</time>
      </trkpt>
      <trkpt lat="42.56592099999997" lon="-1.4871830000000004">
        <ele>568.470</ele>
        <time>2022-06-19T10:24:01Z</time>
      </trkpt>
      <trkpt lat="42.566017999999964" lon="-1.4875570000000005">
        <ele>568.674</ele>
        <time>2022-06-19T10:24:07Z</time>
      </trkpt>
      <trkpt lat="42.56613799999997" lon="-1.4880130000000005">
        <ele>569.677</ele>
        <time>2022-06-19T10:24:15Z</time>
      </trkpt>
      <trkpt lat="42.56622399999997" lon="-1.4883840000000004">
        <ele>570.436</ele>
        <time>2022-06-19T10:24:22Z</time>
      </trkpt>
      <trkpt lat="42.56625199999997" lon="-1.4884780000000004">
        <ele>570.625</ele>
        <time>2022-06-19T10:24:24Z</time>
      </trkpt>
      <trkpt lat="42.56632299999997" lon="-1.4887590000000004">
        <ele>571.626</ele>
        <time>2022-06-19T10:24:30Z</time>
      </trkpt>
      <trkpt lat="42.56633199999997" lon="-1.4888050000000004">
        <ele>571.808</ele>
        <time>2022-06-19T10:24:31Z</time>
      </trkpt>
      <trkpt lat="42.566394999999964" lon="-1.4890670000000004">
        <ele>572.409</ele>
        <time>2022-06-19T10:24:37Z</time>
      </trkpt>
      <trkpt lat="42.566414999999964" lon="-1.4891520000000003">
        <ele>572.863</ele>
        <time>2022-06-19T10:24:39Z</time>
      </trkpt>
      <trkpt lat="42.566464999999965" lon="-1.4893630000000002">
        <ele>573.852</ele>
        <time>2022-06-19T10:24:44Z</time>
      </trkpt>
      <trkpt lat="42.566475999999966" lon="-1.4894040000000002">
        <ele>574.277</ele>
        <time>2022-06-19T10:24:45Z</time>
      </trkpt>
      <trkpt lat="42.56652299999997" lon="-1.4896060000000002">
        <ele>575.031</ele>
        <time>2022-06-19T10:24:50Z</time>
      </trkpt>
      <trkpt lat="42.56654199999997" lon="-1.4896880000000001">
        <ele>575.443</ele>
        <time>2022-06-19T10:24:52Z</time>
      </trkpt>
      <trkpt lat="42.56656399999997" lon="-1.4897660000000001">
        <ele>575.869</ele>
        <time>2022-06-19T10:24:54Z</time>
      </trkpt>
      <trkpt lat="42.56657199999997" lon="-1.4898060000000002">
        <ele>576.073</ele>
        <time>2022-06-19T10:24:55Z</time>
      </trkpt>
      <trkpt lat="42.566618999999974" lon="-1.4899930000000001">
        <ele>576.876</ele>
        <time>2022-06-19T10:25:00Z</time>
      </trkpt>
      <trkpt lat="42.56662799999997" lon="-1.490029">
        <ele>577.045</ele>
        <time>2022-06-19T10:25:01Z</time>
      </trkpt>
      <trkpt lat="42.56667899999997" lon="-1.490246">
        <ele>578.266</ele>
        <time>2022-06-19T10:25:07Z</time>
      </trkpt>
      <trkpt lat="42.56672799999997" lon="-1.490466">
        <ele>579.429</ele>
        <time>2022-06-19T10:25:13Z</time>
      </trkpt>
      <trkpt lat="42.56676999999997" lon="-1.4906430000000002">
        <ele>580.221</ele>
        <time>2022-06-19T10:25:18Z</time>
      </trkpt>
      <trkpt lat="42.56678499999997" lon="-1.4907150000000002">
        <ele>580.609</ele>
        <time>2022-06-19T10:25:20Z</time>
      </trkpt>
      <trkpt lat="42.566821999999966" lon="-1.4908950000000003">
        <ele>581.677</ele>
        <time>2022-06-19T10:25:25Z</time>
      </trkpt>
      <trkpt lat="42.56683799999997" lon="-1.4909680000000003">
        <ele>582.016</ele>
        <time>2022-06-19T10:25:27Z</time>
      </trkpt>
      <trkpt lat="42.56686899999997" lon="-1.4911870000000003">
        <ele>582.881</ele>
        <time>2022-06-19T10:25:33Z</time>
      </trkpt>
      <trkpt lat="42.56688899999997" lon="-1.4913290000000003">
        <ele>583.435</ele>
        <time>2022-06-19T10:25:37Z</time>
      </trkpt>
      <trkpt lat="42.56688899999997" lon="-1.4914060000000005">
        <ele>583.837</ele>
        <time>2022-06-19T10:25:39Z</time>
      </trkpt>
      <trkpt lat="42.56689099999997" lon="-1.4915560000000005">
        <ele>584.833</ele>
        <time>2022-06-19T10:25:43Z</time>
      </trkpt>
      <trkpt lat="42.56689299999997" lon="-1.4915930000000006">
        <ele>585.027</ele>
        <time>2022-06-19T10:25:44Z</time>
      </trkpt>
      <trkpt lat="42.56688999999997" lon="-1.4917780000000007">
        <ele>586.050</ele>
        <time>2022-06-19T10:25:49Z</time>
      </trkpt>
      <trkpt lat="42.566877999999974" lon="-1.4918970000000007">
        <ele>586.489</ele>
        <time>2022-06-19T10:25:52Z</time>
      </trkpt>
      <trkpt lat="42.56687599999997" lon="-1.4919360000000006">
        <ele>586.459</ele>
        <time>2022-06-19T10:25:53Z</time>
      </trkpt>
      <trkpt lat="42.566868999999976" lon="-1.4921190000000006">
        <ele>587.003</ele>
        <time>2022-06-19T10:25:58Z</time>
      </trkpt>
      <trkpt lat="42.566857999999975" lon="-1.4922680000000006">
        <ele>588.023</ele>
        <time>2022-06-19T10:26:02Z</time>
      </trkpt>
      <trkpt lat="42.56685399999998" lon="-1.4923060000000006">
        <ele>588.809</ele>
        <time>2022-06-19T10:26:03Z</time>
      </trkpt>
      <trkpt lat="42.56684199999998" lon="-1.4923830000000007">
        <ele>590.486</ele>
        <time>2022-06-19T10:26:05Z</time>
      </trkpt>
      <trkpt lat="42.56682799999998" lon="-1.4925420000000007">
        <ele>591.475</ele>
        <time>2022-06-19T10:26:09Z</time>
      </trkpt>
      <trkpt lat="42.56682399999998" lon="-1.4926200000000007">
        <ele>591.490</ele>
        <time>2022-06-19T10:26:11Z</time>
      </trkpt>
      <trkpt lat="42.566811999999985" lon="-1.4928890000000008">
        <ele>591.684</ele>
        <time>2022-06-19T10:26:18Z</time>
      </trkpt>
      <trkpt lat="42.56680799999999" lon="-1.493209000000001">
        <ele>592.256</ele>
        <time>2022-06-19T10:26:26Z</time>
      </trkpt>
      <trkpt lat="42.566808999999985" lon="-1.493497000000001">
        <ele>592.442</ele>
        <time>2022-06-19T10:26:33Z</time>
      </trkpt>
      <trkpt lat="42.566825999999985" lon="-1.4938220000000009">
        <ele>592.446</ele>
        <time>2022-06-19T10:26:41Z</time>
      </trkpt>
      <trkpt lat="42.56686099999998" lon="-1.494167000000001">
        <ele>592.229</ele>
        <time>2022-06-19T10:26:49Z</time>
      </trkpt>
      <trkpt lat="42.56690599999998" lon="-1.4945030000000008">
        <ele>592.418</ele>
        <time>2022-06-19T10:26:57Z</time>
      </trkpt>
      <trkpt lat="42.56697399999998" lon="-1.4949720000000009">
        <ele>593.071</ele>
        <time>2022-06-19T10:27:08Z</time>
      </trkpt>
      <trkpt lat="42.56697799999998" lon="-1.495017000000001">
        <ele>593.241</ele>
        <time>2022-06-19T10:27:09Z</time>
      </trkpt>
      <trkpt lat="42.56699799999998" lon="-1.495194000000001">
        <ele>594.615</ele>
        <time>2022-06-19T10:27:13Z</time>
      </trkpt>
      <trkpt lat="42.56703999999998" lon="-1.495457000000001">
        <ele>595.809</ele>
        <time>2022-06-19T10:27:19Z</time>
      </trkpt>
      <trkpt lat="42.56709499999998" lon="-1.4958680000000009">
        <ele>596.238</ele>
        <time>2022-06-19T10:27:28Z</time>
      </trkpt>
      <trkpt lat="42.567118999999984" lon="-1.4960760000000008">
        <ele>596.817</ele>
        <time>2022-06-19T10:27:32Z</time>
      </trkpt>
      <trkpt lat="42.56712499999998" lon="-1.4961250000000008">
        <ele>597.032</ele>
        <time>2022-06-19T10:27:33Z</time>
      </trkpt>
      <trkpt lat="42.567157999999985" lon="-1.4963140000000008">
        <ele>597.616</ele>
        <time>2022-06-19T10:27:37Z</time>
      </trkpt>
      <trkpt lat="42.56718399999998" lon="-1.496507000000001">
        <ele>597.668</ele>
        <time>2022-06-19T10:27:41Z</time>
      </trkpt>
      <trkpt lat="42.567208999999984" lon="-1.496696000000001">
        <ele>597.814</ele>
        <time>2022-06-19T10:27:45Z</time>
      </trkpt>
      <trkpt lat="42.56725999999998" lon="-1.497167000000001">
        <ele>598.648</ele>
        <time>2022-06-19T10:27:55Z</time>
      </trkpt>
      <trkpt lat="42.56729799999999" lon="-1.497544000000001">
        <ele>599.681</ele>
        <time>2022-06-19T10:28:03Z</time>
      </trkpt>
      <trkpt lat="42.56730299999999" lon="-1.4975950000000011">
        <ele>599.880</ele>
        <time>2022-06-19T10:28:04Z</time>
      </trkpt>
      <trkpt lat="42.567334999999986" lon="-1.4979700000000011">
        <ele>600.875</ele>
        <time>2022-06-19T10:28:12Z</time>
      </trkpt>
      <trkpt lat="42.56737899999999" lon="-1.498346000000001">
        <ele>601.828</ele>
        <time>2022-06-19T10:28:20Z</time>
      </trkpt>
      <trkpt lat="42.56738499999999" lon="-1.498393000000001">
        <ele>602.020</ele>
        <time>2022-06-19T10:28:21Z</time>
      </trkpt>
      <trkpt lat="42.56741199999999" lon="-1.498622000000001">
        <ele>602.809</ele>
        <time>2022-06-19T10:28:26Z</time>
      </trkpt>
      <trkpt lat="42.56742199999999" lon="-1.498666000000001">
        <ele>603.078</ele>
        <time>2022-06-19T10:28:27Z</time>
      </trkpt>
      <trkpt lat="42.56746199999999" lon="-1.498854000000001">
        <ele>603.647</ele>
        <time>2022-06-19T10:28:31Z</time>
      </trkpt>
      <trkpt lat="42.56748199999999" lon="-1.498946000000001">
        <ele>604.072</ele>
        <time>2022-06-19T10:28:33Z</time>
      </trkpt>
      <trkpt lat="42.56757499999999" lon="-1.499365000000001">
        <ele>605.096</ele>
        <time>2022-06-19T10:28:42Z</time>
      </trkpt>
      <trkpt lat="42.56759599999999" lon="-1.499407000000001">
        <ele>605.238</ele>
        <time>2022-06-19T10:28:43Z</time>
      </trkpt>
      <trkpt lat="42.567728999999986" lon="-1.499688000000001">
        <ele>605.864</ele>
        <time>2022-06-19T10:28:50Z</time>
      </trkpt>
      <trkpt lat="42.56777499999998" lon="-1.499809000000001">
        <ele>606.298</ele>
        <time>2022-06-19T10:28:53Z</time>
      </trkpt>
      <trkpt lat="42.56780899999998" lon="-1.5000430000000011">
        <ele>606.851</ele>
        <time>2022-06-19T10:28:58Z</time>
      </trkpt>
      <trkpt lat="42.567776999999985" lon="-1.5002880000000012">
        <ele>607.020</ele>
        <time>2022-06-19T10:29:03Z</time>
      </trkpt>
      <trkpt lat="42.567757999999984" lon="-1.5003850000000012">
        <ele>607.492</ele>
        <time>2022-06-19T10:29:05Z</time>
      </trkpt>
      <trkpt lat="42.567697999999986" lon="-1.5007520000000012">
        <ele>608.073</ele>
        <time>2022-06-19T10:29:14Z</time>
      </trkpt>
      <trkpt lat="42.567669999999985" lon="-1.5009440000000012">
        <ele>608.220</ele>
        <time>2022-06-19T10:29:19Z</time>
      </trkpt>
      <trkpt lat="42.567655999999985" lon="-1.5010160000000012">
        <ele>608.609</ele>
        <time>2022-06-19T10:29:21Z</time>
      </trkpt>
      <trkpt lat="42.56760899999998" lon="-1.5012510000000012">
        <ele>609.480</ele>
        <time>2022-06-19T10:29:27Z</time>
      </trkpt>
      <trkpt lat="42.56753399999998" lon="-1.5015270000000012">
        <ele>609.629</ele>
        <time>2022-06-19T10:29:35Z</time>
      </trkpt>
      <trkpt lat="42.56745599999998" lon="-1.5018130000000012">
        <ele>609.894</ele>
        <time>2022-06-19T10:29:42Z</time>
      </trkpt>
      <trkpt lat="42.56732099999998" lon="-1.502316000000001">
        <ele>609.848</ele>
        <time>2022-06-19T10:29:53Z</time>
      </trkpt>
      <trkpt lat="42.56725299999998" lon="-1.502552000000001">
        <ele>610.460</ele>
        <time>2022-06-19T10:29:58Z</time>
      </trkpt>
      <trkpt lat="42.56722399999998" lon="-1.502695000000001">
        <ele>610.456</ele>
        <time>2022-06-19T10:30:01Z</time>
      </trkpt>
      <trkpt lat="42.567171999999985" lon="-1.502883000000001">
        <ele>610.840</ele>
        <time>2022-06-19T10:30:05Z</time>
      </trkpt>
      <trkpt lat="42.56713399999998" lon="-1.5030200000000011">
        <ele>611.443</ele>
        <time>2022-06-19T10:30:08Z</time>
      </trkpt>
      <trkpt lat="42.56711099999998" lon="-1.503113000000001">
        <ele>611.482</ele>
        <time>2022-06-19T10:30:10Z</time>
      </trkpt>
      <trkpt lat="42.56697999999998" lon="-1.503632000000001">
        <ele>611.864</ele>
        <time>2022-06-19T10:30:20Z</time>
      </trkpt>
      <trkpt lat="42.56684999999998" lon="-1.504213000000001">
        <ele>611.606</ele>
        <time>2022-06-19T10:30:29Z</time>
      </trkpt>
      <trkpt lat="42.56676299999998" lon="-1.504688000000001">
        <ele>611.216</ele>
        <time>2022-06-19T10:30:35Z</time>
      </trkpt>
      <trkpt lat="42.56666999999998" lon="-1.505246000000001">
        <ele>610.609</ele>
        <time>2022-06-19T10:30:41Z</time>
      </trkpt>
      <trkpt lat="42.56657599999998" lon="-1.5059680000000009">
        <ele>610.047</ele>
        <time>2022-06-19T10:30:48Z</time>
      </trkpt>
      <trkpt lat="42.566552999999985" lon="-1.506170000000001">
        <ele>608.896</ele>
        <time>2022-06-19T10:30:50Z</time>
      </trkpt>
      <trkpt lat="42.56653699999998" lon="-1.506367000000001">
        <ele>607.461</ele>
        <time>2022-06-19T10:30:52Z</time>
      </trkpt>
      <trkpt lat="42.56652299999998" lon="-1.506563000000001">
        <ele>606.455</ele>
        <time>2022-06-19T10:30:54Z</time>
      </trkpt>
      <trkpt lat="42.566501999999986" lon="-1.506848000000001">
        <ele>605.667</ele>
        <time>2022-06-19T10:30:57Z</time>
      </trkpt>
      <trkpt lat="42.56648399999999" lon="-1.5076240000000012">
        <ele>605.633</ele>
        <time>2022-06-19T10:31:06Z</time>
      </trkpt>
      <trkpt lat="42.56648399999999" lon="-1.5077010000000013">
        <ele>605.687</ele>
        <time>2022-06-19T10:31:07Z</time>
      </trkpt>
      <trkpt lat="42.56650299999999" lon="-1.5082730000000013">
        <ele>606.250</ele>
        <time>2022-06-19T10:31:15Z</time>
      </trkpt>
      <trkpt lat="42.56650899999999" lon="-1.5083380000000013">
        <ele>606.229</ele>
        <time>2022-06-19T10:31:16Z</time>
      </trkpt>
      <trkpt lat="42.56656999999999" lon="-1.5086690000000014">
        <ele>606.498</ele>
        <time>2022-06-19T10:31:21Z</time>
      </trkpt>
      <trkpt lat="42.56664399999999" lon="-1.5089680000000014">
        <ele>607.415</ele>
        <time>2022-06-19T10:31:26Z</time>
      </trkpt>
      <trkpt lat="42.56669199999999" lon="-1.5091310000000013">
        <ele>608.626</ele>
        <time>2022-06-19T10:31:29Z</time>
      </trkpt>
      <trkpt lat="42.56677599999999" lon="-1.5093930000000013">
        <ele>609.609</ele>
        <time>2022-06-19T10:31:34Z</time>
      </trkpt>
      <trkpt lat="42.56682899999999" lon="-1.5095450000000012">
        <ele>610.450</ele>
        <time>2022-06-19T10:31:37Z</time>
      </trkpt>
      <trkpt lat="42.56686099999999" lon="-1.5096510000000012">
        <ele>610.849</ele>
        <time>2022-06-19T10:31:39Z</time>
      </trkpt>
      <trkpt lat="42.56699499999999" lon="-1.5100590000000012">
        <ele>611.864</ele>
        <time>2022-06-19T10:31:47Z</time>
      </trkpt>
      <trkpt lat="42.56712399999999" lon="-1.5104630000000012">
        <ele>612.618</ele>
        <time>2022-06-19T10:31:55Z</time>
      </trkpt>
      <trkpt lat="42.56715599999999" lon="-1.5105650000000013">
        <ele>612.880</ele>
        <time>2022-06-19T10:31:57Z</time>
      </trkpt>
      <trkpt lat="42.56721999999999" lon="-1.5108650000000012">
        <ele>613.656</ele>
        <time>2022-06-19T10:32:03Z</time>
      </trkpt>
      <trkpt lat="42.56723099999999" lon="-1.5109670000000013">
        <ele>613.850</ele>
        <time>2022-06-19T10:32:05Z</time>
      </trkpt>
      <trkpt lat="42.56725899999999" lon="-1.5112790000000014">
        <ele>614.863</ele>
        <time>2022-06-19T10:32:11Z</time>
      </trkpt>
      <trkpt lat="42.56726599999999" lon="-1.5114770000000013">
        <ele>616.292</ele>
        <time>2022-06-19T10:32:15Z</time>
      </trkpt>
      <trkpt lat="42.56725499999999" lon="-1.5116890000000014">
        <ele>616.838</ele>
        <time>2022-06-19T10:32:19Z</time>
      </trkpt>
      <trkpt lat="42.56718799999999" lon="-1.5120530000000014">
        <ele>616.870</ele>
        <time>2022-06-19T10:32:27Z</time>
      </trkpt>
      <trkpt lat="42.567095999999985" lon="-1.5123650000000015">
        <ele>617.017</ele>
        <time>2022-06-19T10:32:34Z</time>
      </trkpt>
      <trkpt lat="42.56700999999998" lon="-1.5126610000000016">
        <ele>616.809</ele>
        <time>2022-06-19T10:32:41Z</time>
      </trkpt>
      <trkpt lat="42.56689799999998" lon="-1.5130120000000016">
        <ele>616.864</ele>
        <time>2022-06-19T10:32:50Z</time>
      </trkpt>
      <trkpt lat="42.56684199999998" lon="-1.5132070000000015">
        <ele>617.253</ele>
        <time>2022-06-19T10:32:55Z</time>
      </trkpt>
      <trkpt lat="42.56679799999998" lon="-1.5133290000000015">
        <ele>617.438</ele>
        <time>2022-06-19T10:32:58Z</time>
      </trkpt>
      <trkpt lat="42.56673899999998" lon="-1.5135410000000016">
        <ele>618.432</ele>
        <time>2022-06-19T10:33:03Z</time>
      </trkpt>
      <trkpt lat="42.566705999999975" lon="-1.5136710000000015">
        <ele>618.844</ele>
        <time>2022-06-19T10:33:06Z</time>
      </trkpt>
      <trkpt lat="42.566654999999976" lon="-1.5138870000000015">
        <ele>619.260</ele>
        <time>2022-06-19T10:33:11Z</time>
      </trkpt>
      <trkpt lat="42.566635999999974" lon="-1.5140210000000016">
        <ele>620.464</ele>
        <time>2022-06-19T10:33:14Z</time>
      </trkpt>
      <trkpt lat="42.56662299999997" lon="-1.5141060000000015">
        <ele>620.817</ele>
        <time>2022-06-19T10:33:16Z</time>
      </trkpt>
      <trkpt lat="42.56659599999997" lon="-1.5144560000000016">
        <ele>621.456</ele>
        <time>2022-06-19T10:33:24Z</time>
      </trkpt>
      <trkpt lat="42.56658899999997" lon="-1.5145410000000015">
        <ele>621.893</ele>
        <time>2022-06-19T10:33:26Z</time>
      </trkpt>
      <trkpt lat="42.56657799999997" lon="-1.5146690000000014">
        <ele>622.665</ele>
        <time>2022-06-19T10:33:29Z</time>
      </trkpt>
      <trkpt lat="42.56656599999997" lon="-1.5148330000000014">
        <ele>623.421</ele>
        <time>2022-06-19T10:33:33Z</time>
      </trkpt>
      <trkpt lat="42.56656099999997" lon="-1.5148760000000014">
        <ele>624.009</ele>
        <time>2022-06-19T10:33:34Z</time>
      </trkpt>
      <trkpt lat="42.56653899999997" lon="-1.5150060000000014">
        <ele>625.050</ele>
        <time>2022-06-19T10:33:37Z</time>
      </trkpt>
      <trkpt lat="42.56650799999997" lon="-1.5151780000000015">
        <ele>625.219</ele>
        <time>2022-06-19T10:33:41Z</time>
      </trkpt>
      <trkpt lat="42.566410999999974" lon="-1.5155640000000015">
        <ele>625.884</ele>
        <time>2022-06-19T10:33:50Z</time>
      </trkpt>
      <trkpt lat="42.566311999999975" lon="-1.5159060000000015">
        <ele>626.848</ele>
        <time>2022-06-19T10:33:58Z</time>
      </trkpt>
      <trkpt lat="42.56626299999998" lon="-1.5160840000000015">
        <ele>627.860</ele>
        <time>2022-06-19T10:34:02Z</time>
      </trkpt>
      <trkpt lat="42.56620599999998" lon="-1.5163110000000015">
        <ele>628.866</ele>
        <time>2022-06-19T10:34:07Z</time>
      </trkpt>
      <trkpt lat="42.56619599999998" lon="-1.5163550000000015">
        <ele>629.080</ele>
        <time>2022-06-19T10:34:08Z</time>
      </trkpt>
      <trkpt lat="42.566145999999975" lon="-1.5166110000000015">
        <ele>630.063</ele>
        <time>2022-06-19T10:34:14Z</time>
      </trkpt>
      <trkpt lat="42.566131999999975" lon="-1.5166940000000015">
        <ele>630.282</ele>
        <time>2022-06-19T10:34:16Z</time>
      </trkpt>
      <trkpt lat="42.56607499999998" lon="-1.5169830000000015">
        <ele>631.026</ele>
        <time>2022-06-19T10:34:23Z</time>
      </trkpt>
      <trkpt lat="42.56602399999998" lon="-1.5172970000000015">
        <ele>631.847</ele>
        <time>2022-06-19T10:34:30Z</time>
      </trkpt>
      <trkpt lat="42.566010999999975" lon="-1.5173810000000014">
        <ele>632.011</ele>
        <time>2022-06-19T10:34:32Z</time>
      </trkpt>
      <trkpt lat="42.56598699999997" lon="-1.5175550000000013">
        <ele>632.409</ele>
        <time>2022-06-19T10:34:36Z</time>
      </trkpt>
      <trkpt lat="42.56591999999997" lon="-1.5179330000000013">
        <ele>633.083</ele>
        <time>2022-06-19T10:34:45Z</time>
      </trkpt>
      <trkpt lat="42.56590199999997" lon="-1.5180120000000012">
        <ele>633.222</ele>
        <time>2022-06-19T10:34:47Z</time>
      </trkpt>
      <trkpt lat="42.56586799999997" lon="-1.5182370000000012">
        <ele>634.477</ele>
        <time>2022-06-19T10:34:53Z</time>
      </trkpt>
      <trkpt lat="42.56583299999998" lon="-1.518346000000001">
        <ele>635.441</ele>
        <time>2022-06-19T10:34:56Z</time>
      </trkpt>
      <trkpt lat="42.56578099999998" lon="-1.518527000000001">
        <ele>636.683</ele>
        <time>2022-06-19T10:35:01Z</time>
      </trkpt>
      <trkpt lat="42.56571099999998" lon="-1.518721000000001">
        <ele>637.219</ele>
        <time>2022-06-19T10:35:07Z</time>
      </trkpt>
      <trkpt lat="42.56566399999998" lon="-1.5188520000000012">
        <ele>637.663</ele>
        <time>2022-06-19T10:35:11Z</time>
      </trkpt>
      <trkpt lat="42.565605999999974" lon="-1.5189760000000012">
        <ele>638.076</ele>
        <time>2022-06-19T10:35:15Z</time>
      </trkpt>
      <trkpt lat="42.56554799999997" lon="-1.5190920000000012">
        <ele>638.625</ele>
        <time>2022-06-19T10:35:19Z</time>
      </trkpt>
      <trkpt lat="42.56551999999997" lon="-1.519150000000001">
        <ele>638.872</ele>
        <time>2022-06-19T10:35:21Z</time>
      </trkpt>
      <trkpt lat="42.56550299999997" lon="-1.5191760000000012">
        <ele>638.813</ele>
        <time>2022-06-19T10:35:22Z</time>
      </trkpt>
      <trkpt lat="42.56542499999997" lon="-1.5193060000000012">
        <ele>639.814</ele>
        <time>2022-06-19T10:35:27Z</time>
      </trkpt>
      <trkpt lat="42.56538799999997" lon="-1.519358000000001">
        <ele>640.209</ele>
        <time>2022-06-19T10:35:29Z</time>
      </trkpt>
      <trkpt lat="42.56533399999997" lon="-1.5194360000000011">
        <ele>641.058</ele>
        <time>2022-06-19T10:35:32Z</time>
      </trkpt>
      <trkpt lat="42.56522399999997" lon="-1.5195810000000012">
        <ele>642.077</ele>
        <time>2022-06-19T10:35:38Z</time>
      </trkpt>
      <trkpt lat="42.565205999999975" lon="-1.5195990000000013">
        <ele>642.092</ele>
        <time>2022-06-19T10:35:39Z</time>
      </trkpt>
      <trkpt lat="42.56512099999998" lon="-1.5197060000000013">
        <ele>642.416</ele>
        <time>2022-06-19T10:35:44Z</time>
      </trkpt>
      <trkpt lat="42.565104999999974" lon="-1.5197260000000012">
        <ele>642.638</ele>
        <time>2022-06-19T10:35:45Z</time>
      </trkpt>
      <trkpt lat="42.56506599999997" lon="-1.5197650000000011">
        <ele>643.064</ele>
        <time>2022-06-19T10:35:47Z</time>
      </trkpt>
      <trkpt lat="42.56497899999997" lon="-1.519868000000001">
        <ele>643.898</ele>
        <time>2022-06-19T10:35:52Z</time>
      </trkpt>
      <trkpt lat="42.564929999999976" lon="-1.519934000000001">
        <ele>644.281</ele>
        <time>2022-06-19T10:35:55Z</time>
      </trkpt>
      <trkpt lat="42.56485499999997" lon="-1.520017000000001">
        <ele>644.280</ele>
        <time>2022-06-19T10:35:59Z</time>
      </trkpt>
      <trkpt lat="42.56474899999997" lon="-1.520137000000001">
        <ele>644.652</ele>
        <time>2022-06-19T10:36:05Z</time>
      </trkpt>
      <trkpt lat="42.56465699999997" lon="-1.520242000000001">
        <ele>645.253</ele>
        <time>2022-06-19T10:36:10Z</time>
      </trkpt>
      <trkpt lat="42.56460599999997" lon="-1.520303000000001">
        <ele>645.608</ele>
        <time>2022-06-19T10:36:13Z</time>
      </trkpt>
      <trkpt lat="42.56457099999997" lon="-1.520342000000001">
        <ele>646.209</ele>
        <time>2022-06-19T10:36:15Z</time>
      </trkpt>
      <trkpt lat="42.56448499999997" lon="-1.520448000000001">
        <ele>647.086</ele>
        <time>2022-06-19T10:36:20Z</time>
      </trkpt>
      <trkpt lat="42.56446699999997" lon="-1.520467000000001">
        <ele>647.225</ele>
        <time>2022-06-19T10:36:21Z</time>
      </trkpt>
      <trkpt lat="42.56441699999997" lon="-1.5205320000000009">
        <ele>648.210</ele>
        <time>2022-06-19T10:36:24Z</time>
      </trkpt>
      <trkpt lat="42.56437799999997" lon="-1.520566000000001">
        <ele>648.634</ele>
        <time>2022-06-19T10:36:26Z</time>
      </trkpt>
      <trkpt lat="42.56430799999997" lon="-1.520643000000001">
        <ele>649.016</ele>
        <time>2022-06-19T10:36:30Z</time>
      </trkpt>
      <trkpt lat="42.56427199999997" lon="-1.5206770000000012">
        <ele>649.042</ele>
        <time>2022-06-19T10:36:32Z</time>
      </trkpt>
      <trkpt lat="42.56425699999997" lon="-1.520697000000001">
        <ele>649.286</ele>
        <time>2022-06-19T10:36:33Z</time>
      </trkpt>
      <trkpt lat="42.56416899999997" lon="-1.520813000000001">
        <ele>650.059</ele>
        <time>2022-06-19T10:36:38Z</time>
      </trkpt>
      <trkpt lat="42.56413899999997" lon="-1.5208550000000012">
        <ele>650.458</ele>
        <time>2022-06-19T10:36:40Z</time>
      </trkpt>
      <trkpt lat="42.56403299999997" lon="-1.5210030000000012">
        <ele>651.428</ele>
        <time>2022-06-19T10:36:47Z</time>
      </trkpt>
      <trkpt lat="42.563943999999964" lon="-1.5211330000000012">
        <ele>652.689</ele>
        <time>2022-06-19T10:36:53Z</time>
      </trkpt>
      <trkpt lat="42.56389399999996" lon="-1.5211970000000012">
        <ele>653.017</ele>
        <time>2022-06-19T10:36:56Z</time>
      </trkpt>
      <trkpt lat="42.56377999999996" lon="-1.5213470000000013">
        <ele>653.409</ele>
        <time>2022-06-19T10:37:03Z</time>
      </trkpt>
      <trkpt lat="42.56374799999996" lon="-1.5213920000000014">
        <ele>653.673</ele>
        <time>2022-06-19T10:37:05Z</time>
      </trkpt>
      <trkpt lat="42.56367699999996" lon="-1.5214740000000013">
        <ele>654.262</ele>
        <time>2022-06-19T10:37:09Z</time>
      </trkpt>
      <trkpt lat="42.56362199999996" lon="-1.5215300000000014">
        <ele>654.827</ele>
        <time>2022-06-19T10:37:12Z</time>
      </trkpt>
      <trkpt lat="42.56353299999996" lon="-1.5216190000000014">
        <ele>655.881</ele>
        <time>2022-06-19T10:37:17Z</time>
      </trkpt>
      <trkpt lat="42.56351199999996" lon="-1.5216360000000013">
        <ele>656.233</ele>
        <time>2022-06-19T10:37:18Z</time>
      </trkpt>
      <trkpt lat="42.56349099999996" lon="-1.5216550000000013">
        <ele>656.459</ele>
        <time>2022-06-19T10:37:19Z</time>
      </trkpt>
      <trkpt lat="42.563430999999966" lon="-1.5217050000000014">
        <ele>657.453</ele>
        <time>2022-06-19T10:37:22Z</time>
      </trkpt>
      <trkpt lat="42.56339099999997" lon="-1.5217300000000014">
        <ele>658.076</ele>
        <time>2022-06-19T10:37:24Z</time>
      </trkpt>
      <trkpt lat="42.56328599999997" lon="-1.5217930000000013">
        <ele>658.455</ele>
        <time>2022-06-19T10:37:30Z</time>
      </trkpt>
      <trkpt lat="42.563247999999966" lon="-1.5218220000000013">
        <ele>658.634</ele>
        <time>2022-06-19T10:37:32Z</time>
      </trkpt>
      <trkpt lat="42.563109999999966" lon="-1.5219140000000013">
        <ele>659.455</ele>
        <time>2022-06-19T10:37:39Z</time>
      </trkpt>
      <trkpt lat="42.563070999999965" lon="-1.5219400000000014">
        <ele>660.010</ele>
        <time>2022-06-19T10:37:41Z</time>
      </trkpt>
      <trkpt lat="42.56301099999997" lon="-1.5219730000000014">
        <ele>660.609</ele>
        <time>2022-06-19T10:37:44Z</time>
      </trkpt>
      <trkpt lat="42.56293399999997" lon="-1.5220240000000014">
        <ele>661.284</ele>
        <time>2022-06-19T10:37:48Z</time>
      </trkpt>
      <trkpt lat="42.56287099999997" lon="-1.5220640000000014">
        <ele>661.643</ele>
        <time>2022-06-19T10:37:51Z</time>
      </trkpt>
      <trkpt lat="42.562790999999976" lon="-1.5221200000000015">
        <ele>662.088</ele>
        <time>2022-06-19T10:37:55Z</time>
      </trkpt>
      <trkpt lat="42.56268099999998" lon="-1.5222140000000015">
        <ele>662.822</ele>
        <time>2022-06-19T10:38:01Z</time>
      </trkpt>
      <trkpt lat="42.56266399999998" lon="-1.5222290000000016">
        <ele>663.264</ele>
        <time>2022-06-19T10:38:02Z</time>
      </trkpt>
      <trkpt lat="42.56258499999998" lon="-1.5222980000000017">
        <ele>664.080</ele>
        <time>2022-06-19T10:38:06Z</time>
      </trkpt>
      <trkpt lat="42.56252899999998" lon="-1.5223420000000016">
        <ele>665.034</ele>
        <time>2022-06-19T10:38:09Z</time>
      </trkpt>
      <trkpt lat="42.56251099999998" lon="-1.5223600000000017">
        <ele>665.247</ele>
        <time>2022-06-19T10:38:10Z</time>
      </trkpt>
      <trkpt lat="42.56238699999998" lon="-1.5224890000000018">
        <ele>666.226</ele>
        <time>2022-06-19T10:38:17Z</time>
      </trkpt>
      <trkpt lat="42.56237099999998" lon="-1.5225000000000017">
        <ele>666.435</ele>
        <time>2022-06-19T10:38:18Z</time>
      </trkpt>
      <trkpt lat="42.56228099999998" lon="-1.5225760000000017">
        <ele>667.686</ele>
        <time>2022-06-19T10:38:23Z</time>
      </trkpt>
      <trkpt lat="42.562264999999975" lon="-1.5225940000000018">
        <ele>667.614</ele>
        <time>2022-06-19T10:38:24Z</time>
      </trkpt>
      <trkpt lat="42.56224899999997" lon="-1.5226110000000017">
        <ele>667.809</ele>
        <time>2022-06-19T10:38:25Z</time>
      </trkpt>
      <trkpt lat="42.56214899999997" lon="-1.5227050000000018">
        <ele>668.894</ele>
        <time>2022-06-19T10:38:31Z</time>
      </trkpt>
      <trkpt lat="42.56213199999997" lon="-1.5227230000000018">
        <ele>669.043</ele>
        <time>2022-06-19T10:38:32Z</time>
      </trkpt>
      <trkpt lat="42.56207799999997" lon="-1.5227690000000018">
        <ele>670.048</ele>
        <time>2022-06-19T10:38:35Z</time>
      </trkpt>
      <trkpt lat="42.56200999999997" lon="-1.5228340000000018">
        <ele>670.452</ele>
        <time>2022-06-19T10:38:39Z</time>
      </trkpt>
      <trkpt lat="42.56190699999997" lon="-1.5229520000000019">
        <ele>670.824</ele>
        <time>2022-06-19T10:38:45Z</time>
      </trkpt>
      <trkpt lat="42.56184999999997" lon="-1.522997000000002">
        <ele>671.050</ele>
        <time>2022-06-19T10:38:48Z</time>
      </trkpt>
      <trkpt lat="42.56174899999997" lon="-1.523083000000002">
        <ele>671.824</ele>
        <time>2022-06-19T10:38:53Z</time>
      </trkpt>
      <trkpt lat="42.561713999999974" lon="-1.523116000000002">
        <ele>672.027</ele>
        <time>2022-06-19T10:38:55Z</time>
      </trkpt>
      <trkpt lat="42.56164799999998" lon="-1.523180000000002">
        <ele>672.646</ele>
        <time>2022-06-19T10:38:59Z</time>
      </trkpt>
      <trkpt lat="42.561631999999975" lon="-1.523197000000002">
        <ele>673.243</ele>
        <time>2022-06-19T10:39:00Z</time>
      </trkpt>
      <trkpt lat="42.561558999999974" lon="-1.523266000000002">
        <ele>674.264</ele>
        <time>2022-06-19T10:39:04Z</time>
      </trkpt>
      <trkpt lat="42.561417999999975" lon="-1.523406000000002">
        <ele>675.210</ele>
        <time>2022-06-19T10:39:12Z</time>
      </trkpt>
      <trkpt lat="42.56131299999998" lon="-1.523500000000002">
        <ele>676.009</ele>
        <time>2022-06-19T10:39:18Z</time>
      </trkpt>
      <trkpt lat="42.561276999999976" lon="-1.523531000000002">
        <ele>676.275</ele>
        <time>2022-06-19T10:39:20Z</time>
      </trkpt>
      <trkpt lat="42.561259999999976" lon="-1.523550000000002">
        <ele>676.224</ele>
        <time>2022-06-19T10:39:21Z</time>
      </trkpt>
      <trkpt lat="42.561166999999976" lon="-1.523621000000002">
        <ele>676.859</ele>
        <time>2022-06-19T10:39:26Z</time>
      </trkpt>
      <trkpt lat="42.561116999999975" lon="-1.523661000000002">
        <ele>677.233</ele>
        <time>2022-06-19T10:39:29Z</time>
      </trkpt>
      <trkpt lat="42.56099999999997" lon="-1.523739000000002">
        <ele>678.485</ele>
        <time>2022-06-19T10:39:35Z</time>
      </trkpt>
      <trkpt lat="42.560857999999975" lon="-1.523804000000002">
        <ele>679.271</ele>
        <time>2022-06-19T10:39:42Z</time>
      </trkpt>
      <trkpt lat="42.56069599999997" lon="-1.5238350000000018">
        <ele>680.445</ele>
        <time>2022-06-19T10:39:49Z</time>
      </trkpt>
      <trkpt lat="42.56066999999997" lon="-1.5238360000000017">
        <ele>680.488</ele>
        <time>2022-06-19T10:39:50Z</time>
      </trkpt>
      <trkpt lat="42.56050999999997" lon="-1.5238330000000018">
        <ele>681.447</ele>
        <time>2022-06-19T10:39:57Z</time>
      </trkpt>
      <trkpt lat="42.56046499999997" lon="-1.5238340000000017">
        <ele>681.686</ele>
        <time>2022-06-19T10:39:59Z</time>
      </trkpt>
      <trkpt lat="42.56034799999997" lon="-1.5238380000000016">
        <ele>682.460</ele>
        <time>2022-06-19T10:40:04Z</time>
      </trkpt>
      <trkpt lat="42.56025099999997" lon="-1.5238420000000015">
        <ele>683.226</ele>
        <time>2022-06-19T10:40:08Z</time>
      </trkpt>
      <trkpt lat="42.56019999999997" lon="-1.5238410000000016">
        <ele>683.609</ele>
        <time>2022-06-19T10:40:10Z</time>
      </trkpt>
      <trkpt lat="42.560066999999975" lon="-1.5238370000000017">
        <ele>684.229</ele>
        <time>2022-06-19T10:40:15Z</time>
      </trkpt>
      <trkpt lat="42.559940999999974" lon="-1.5238260000000017">
        <ele>684.888</ele>
        <time>2022-06-19T10:40:20Z</time>
      </trkpt>
      <trkpt lat="42.55988899999998" lon="-1.5238270000000016">
        <ele>685.233</ele>
        <time>2022-06-19T10:40:22Z</time>
      </trkpt>
      <trkpt lat="42.559863999999976" lon="-1.5238310000000015">
        <ele>685.477</ele>
        <time>2022-06-19T10:40:23Z</time>
      </trkpt>
      <trkpt lat="42.55981599999998" lon="-1.5238320000000014">
        <ele>685.839</ele>
        <time>2022-06-19T10:40:25Z</time>
      </trkpt>
      <trkpt lat="42.55964399999998" lon="-1.5238430000000014">
        <ele>686.425</ele>
        <time>2022-06-19T10:40:32Z</time>
      </trkpt>
      <trkpt lat="42.559596999999975" lon="-1.5238420000000015">
        <ele>686.839</ele>
        <time>2022-06-19T10:40:34Z</time>
      </trkpt>
      <trkpt lat="42.55950199999997" lon="-1.5238480000000014">
        <ele>687.672</ele>
        <time>2022-06-19T10:40:38Z</time>
      </trkpt>
      <trkpt lat="42.55947799999997" lon="-1.5238500000000015">
        <ele>687.851</ele>
        <time>2022-06-19T10:40:39Z</time>
      </trkpt>
      <trkpt lat="42.55933599999997" lon="-1.5238630000000015">
        <ele>688.828</ele>
        <time>2022-06-19T10:40:45Z</time>
      </trkpt>
      <trkpt lat="42.559289999999976" lon="-1.5238600000000015">
        <ele>689.489</ele>
        <time>2022-06-19T10:40:47Z</time>
      </trkpt>
      <trkpt lat="42.559219999999975" lon="-1.5238730000000016">
        <ele>690.017</ele>
        <time>2022-06-19T10:40:50Z</time>
      </trkpt>
      <trkpt lat="42.559129999999975" lon="-1.5238720000000017">
        <ele>690.409</ele>
        <time>2022-06-19T10:40:54Z</time>
      </trkpt>
      <trkpt lat="42.55901299999997" lon="-1.5238690000000017">
        <ele>691.053</ele>
        <time>2022-06-19T10:40:59Z</time>
      </trkpt>
      <trkpt lat="42.55893999999997" lon="-1.5238590000000016">
        <ele>691.422</ele>
        <time>2022-06-19T10:41:02Z</time>
      </trkpt>
      <trkpt lat="42.55886999999997" lon="-1.5238480000000016">
        <ele>692.097</ele>
        <time>2022-06-19T10:41:05Z</time>
      </trkpt>
      <trkpt lat="42.55878099999997" lon="-1.5238270000000016">
        <ele>692.661</ele>
        <time>2022-06-19T10:41:09Z</time>
      </trkpt>
      <trkpt lat="42.55873199999997" lon="-1.5238140000000016">
        <ele>693.253</ele>
        <time>2022-06-19T10:41:11Z</time>
      </trkpt>
      <trkpt lat="42.55860899999997" lon="-1.5237720000000015">
        <ele>693.859</ele>
        <time>2022-06-19T10:41:16Z</time>
      </trkpt>
      <trkpt lat="42.55855899999997" lon="-1.5237450000000015">
        <ele>694.243</ele>
        <time>2022-06-19T10:41:18Z</time>
      </trkpt>
      <trkpt lat="42.558418999999965" lon="-1.5236640000000015">
        <ele>695.416</ele>
        <time>2022-06-19T10:41:24Z</time>
      </trkpt>
      <trkpt lat="42.55828599999997" lon="-1.5235730000000014">
        <ele>696.445</ele>
        <time>2022-06-19T10:41:30Z</time>
      </trkpt>
      <trkpt lat="42.558263999999966" lon="-1.5235540000000014">
        <ele>696.661</ele>
        <time>2022-06-19T10:41:31Z</time>
      </trkpt>
      <trkpt lat="42.558139999999966" lon="-1.5234500000000013">
        <ele>697.621</ele>
        <time>2022-06-19T10:41:37Z</time>
      </trkpt>
      <trkpt lat="42.55811999999997" lon="-1.5234320000000012">
        <ele>697.613</ele>
        <time>2022-06-19T10:41:38Z</time>
      </trkpt>
      <trkpt lat="42.55798099999997" lon="-1.5233230000000013">
        <ele>698.209</ele>
        <time>2022-06-19T10:41:45Z</time>
      </trkpt>
      <trkpt lat="42.55790499999997" lon="-1.5232570000000014">
        <ele>698.657</ele>
        <time>2022-06-19T10:41:49Z</time>
      </trkpt>
      <trkpt lat="42.55782499999997" lon="-1.5231820000000014">
        <ele>699.246</ele>
        <time>2022-06-19T10:41:53Z</time>
      </trkpt>
      <trkpt lat="42.557764999999975" lon="-1.5231260000000013">
        <ele>699.871</ele>
        <time>2022-06-19T10:41:56Z</time>
      </trkpt>
      <trkpt lat="42.557668999999976" lon="-1.5230310000000014">
        <ele>700.225</ele>
        <time>2022-06-19T10:42:01Z</time>
      </trkpt>
      <trkpt lat="42.55754099999998" lon="-1.5228780000000013">
        <ele>700.827</ele>
        <time>2022-06-19T10:42:08Z</time>
      </trkpt>
      <trkpt lat="42.55746299999998" lon="-1.5227890000000013">
        <ele>701.473</ele>
        <time>2022-06-19T10:42:12Z</time>
      </trkpt>
      <trkpt lat="42.557381999999976" lon="-1.5226970000000013">
        <ele>701.667</ele>
        <time>2022-06-19T10:42:16Z</time>
      </trkpt>
      <trkpt lat="42.557291999999975" lon="-1.5225790000000012">
        <ele>702.660</ele>
        <time>2022-06-19T10:42:21Z</time>
      </trkpt>
      <trkpt lat="42.55727599999997" lon="-1.5225530000000012">
        <ele>703.089</ele>
        <time>2022-06-19T10:42:22Z</time>
      </trkpt>
      <trkpt lat="42.55720299999997" lon="-1.522462000000001">
        <ele>703.825</ele>
        <time>2022-06-19T10:42:26Z</time>
      </trkpt>
      <trkpt lat="42.55714499999997" lon="-1.5223940000000011">
        <ele>704.226</ele>
        <time>2022-06-19T10:42:29Z</time>
      </trkpt>
      <trkpt lat="42.55700699999997" lon="-1.522227000000001">
        <ele>704.608</ele>
        <time>2022-06-19T10:42:36Z</time>
      </trkpt>
      <trkpt lat="42.55693099999997" lon="-1.522131000000001">
        <ele>704.809</ele>
        <time>2022-06-19T10:42:40Z</time>
      </trkpt>
      <trkpt lat="42.55681499999997" lon="-1.522000000000001">
        <ele>705.423</ele>
        <time>2022-06-19T10:42:46Z</time>
      </trkpt>
      <trkpt lat="42.556757999999974" lon="-1.521951000000001">
        <ele>706.062</ele>
        <time>2022-06-19T10:42:49Z</time>
      </trkpt>
      <trkpt lat="42.556618999999976" lon="-1.521865000000001">
        <ele>706.467</ele>
        <time>2022-06-19T10:42:55Z</time>
      </trkpt>
      <trkpt lat="42.55647399999997" lon="-1.521818000000001">
        <ele>707.241</ele>
        <time>2022-06-19T10:43:01Z</time>
      </trkpt>
      <trkpt lat="42.55638099999997" lon="-1.521806000000001">
        <ele>708.013</ele>
        <time>2022-06-19T10:43:05Z</time>
      </trkpt>
      <trkpt lat="42.556357999999975" lon="-1.521809000000001">
        <ele>708.239</ele>
        <time>2022-06-19T10:43:06Z</time>
      </trkpt>
      <trkpt lat="42.55619599999997" lon="-1.5218430000000012">
        <ele>709.233</ele>
        <time>2022-06-19T10:43:14Z</time>
      </trkpt>
      <trkpt lat="42.55617599999997" lon="-1.521852000000001">
        <ele>709.436</ele>
        <time>2022-06-19T10:43:15Z</time>
      </trkpt>
      <trkpt lat="42.55607299999997" lon="-1.5219050000000012">
        <ele>710.485</ele>
        <time>2022-06-19T10:43:20Z</time>
      </trkpt>
      <trkpt lat="42.55599899999997" lon="-1.5219700000000012">
        <ele>711.669</ele>
        <time>2022-06-19T10:43:24Z</time>
      </trkpt>
      <trkpt lat="42.555963999999975" lon="-1.522006000000001">
        <ele>712.204</ele>
        <time>2022-06-19T10:43:26Z</time>
      </trkpt>
      <trkpt lat="42.55588399999998" lon="-1.522104000000001">
        <ele>712.824</ele>
        <time>2022-06-19T10:43:31Z</time>
      </trkpt>
      <trkpt lat="42.55581599999998" lon="-1.522225000000001">
        <ele>713.009</ele>
        <time>2022-06-19T10:43:36Z</time>
      </trkpt>
      <trkpt lat="42.55576999999998" lon="-1.522326000000001">
        <ele>713.857</ele>
        <time>2022-06-19T10:43:40Z</time>
      </trkpt>
      <trkpt lat="42.555737999999984" lon="-1.522436000000001">
        <ele>714.436</ele>
        <time>2022-06-19T10:43:44Z</time>
      </trkpt>
      <trkpt lat="42.555731999999985" lon="-1.522467000000001">
        <ele>714.841</ele>
        <time>2022-06-19T10:43:45Z</time>
      </trkpt>
      <trkpt lat="42.55571699999999" lon="-1.5225790000000008">
        <ele>716.065</ele>
        <time>2022-06-19T10:43:49Z</time>
      </trkpt>
      <trkpt lat="42.55571099999999" lon="-1.5226890000000008">
        <ele>716.827</ele>
        <time>2022-06-19T10:43:53Z</time>
      </trkpt>
      <trkpt lat="42.55570699999999" lon="-1.522745000000001">
        <ele>717.233</ele>
        <time>2022-06-19T10:43:55Z</time>
      </trkpt>
      <trkpt lat="42.555705999999994" lon="-1.5228270000000008">
        <ele>718.287</ele>
        <time>2022-06-19T10:43:58Z</time>
      </trkpt>
      <trkpt lat="42.55571199999999" lon="-1.5229110000000008">
        <ele>718.830</ele>
        <time>2022-06-19T10:44:01Z</time>
      </trkpt>
      <trkpt lat="42.555719999999994" lon="-1.5229960000000007">
        <ele>719.229</ele>
        <time>2022-06-19T10:44:04Z</time>
      </trkpt>
      <trkpt lat="42.555741999999995" lon="-1.5231580000000007">
        <ele>720.028</ele>
        <time>2022-06-19T10:44:10Z</time>
      </trkpt>
      <trkpt lat="42.55575399999999" lon="-1.5233020000000006">
        <ele>720.489</ele>
        <time>2022-06-19T10:44:15Z</time>
      </trkpt>
      <trkpt lat="42.55576099999999" lon="-1.5233930000000007">
        <ele>720.817</ele>
        <time>2022-06-19T10:44:18Z</time>
      </trkpt>
      <trkpt lat="42.55576699999999" lon="-1.5234820000000007">
        <ele>721.409</ele>
        <time>2022-06-19T10:44:21Z</time>
      </trkpt>
      <trkpt lat="42.55577499999999" lon="-1.5236620000000007">
        <ele>722.263</ele>
        <time>2022-06-19T10:44:27Z</time>
      </trkpt>
      <trkpt lat="42.55577699999999" lon="-1.5236910000000008">
        <ele>722.472</ele>
        <time>2022-06-19T10:44:28Z</time>
      </trkpt>
      <trkpt lat="42.555781999999994" lon="-1.5237470000000009">
        <ele>722.477</ele>
        <time>2022-06-19T10:44:30Z</time>
      </trkpt>
      <trkpt lat="42.55578899999999" lon="-1.523892000000001">
        <ele>722.821</ele>
        <time>2022-06-19T10:44:35Z</time>
      </trkpt>
      <trkpt lat="42.55578499999999" lon="-1.524038000000001">
        <ele>723.483</ele>
        <time>2022-06-19T10:44:40Z</time>
      </trkpt>
      <trkpt lat="42.555780999999996" lon="-1.524127000000001">
        <ele>723.889</ele>
        <time>2022-06-19T10:44:43Z</time>
      </trkpt>
      <trkpt lat="42.555769" lon="-1.5242760000000009">
        <ele>724.623</ele>
        <time>2022-06-19T10:44:48Z</time>
      </trkpt>
      <trkpt lat="42.555766" lon="-1.5243060000000008">
        <ele>724.656</ele>
        <time>2022-06-19T10:44:49Z</time>
      </trkpt>
      <trkpt lat="42.555735" lon="-1.5244810000000009">
        <ele>725.475</ele>
        <time>2022-06-19T10:44:55Z</time>
      </trkpt>
      <trkpt lat="42.555716" lon="-1.524569000000001">
        <ele>725.827</ele>
        <time>2022-06-19T10:44:58Z</time>
      </trkpt>
      <trkpt lat="42.555679" lon="-1.524742000000001">
        <ele>726.868</ele>
        <time>2022-06-19T10:45:04Z</time>
      </trkpt>
      <trkpt lat="42.555673" lon="-1.524772000000001">
        <ele>727.014</ele>
        <time>2022-06-19T10:45:05Z</time>
      </trkpt>
      <trkpt lat="42.555644" lon="-1.5249110000000008">
        <ele>727.809</ele>
        <time>2022-06-19T10:45:10Z</time>
      </trkpt>
      <trkpt lat="42.555587" lon="-1.5251100000000009">
        <ele>728.673</ele>
        <time>2022-06-19T10:45:17Z</time>
      </trkpt>
      <trkpt lat="42.555562" lon="-1.525198000000001">
        <ele>729.052</ele>
        <time>2022-06-19T10:45:20Z</time>
      </trkpt>
      <trkpt lat="42.5555" lon="-1.525403000000001">
        <ele>729.837</ele>
        <time>2022-06-19T10:45:27Z</time>
      </trkpt>
      <trkpt lat="42.555484" lon="-1.525460000000001">
        <ele>730.081</ele>
        <time>2022-06-19T10:45:29Z</time>
      </trkpt>
      <trkpt lat="42.555401" lon="-1.525721000000001">
        <ele>731.063</ele>
        <time>2022-06-19T10:45:38Z</time>
      </trkpt>
      <trkpt lat="42.555392000000005" lon="-1.525756000000001">
        <ele>731.259</ele>
        <time>2022-06-19T10:45:39Z</time>
      </trkpt>
      <trkpt lat="42.555348" lon="-1.525907000000001">
        <ele>732.223</ele>
        <time>2022-06-19T10:45:44Z</time>
      </trkpt>
      <trkpt lat="42.555313000000005" lon="-1.526051000000001">
        <ele>732.876</ele>
        <time>2022-06-19T10:45:49Z</time>
      </trkpt>
      <trkpt lat="42.55528700000001" lon="-1.526146000000001">
        <ele>733.295</ele>
        <time>2022-06-19T10:45:52Z</time>
      </trkpt>
      <trkpt lat="42.555254000000005" lon="-1.526270000000001">
        <ele>733.416</ele>
        <time>2022-06-19T10:45:56Z</time>
      </trkpt>
      <trkpt lat="42.555218" lon="-1.526567000000001">
        <ele>733.876</ele>
        <time>2022-06-19T10:46:05Z</time>
      </trkpt>
      <trkpt lat="42.555224" lon="-1.526707000000001">
        <ele>734.413</ele>
        <time>2022-06-19T10:46:09Z</time>
      </trkpt>
      <trkpt lat="42.555246000000004" lon="-1.526825000000001">
        <ele>734.809</ele>
        <time>2022-06-19T10:46:13Z</time>
      </trkpt>
      <trkpt lat="42.55530400000001" lon="-1.527006000000001">
        <ele>735.482</ele>
        <time>2022-06-19T10:46:19Z</time>
      </trkpt>
      <trkpt lat="42.55536200000001" lon="-1.527121000000001">
        <ele>736.091</ele>
        <time>2022-06-19T10:46:23Z</time>
      </trkpt>
      <trkpt lat="42.55543600000001" lon="-1.527262000000001">
        <ele>736.466</ele>
        <time>2022-06-19T10:46:28Z</time>
      </trkpt>
      <trkpt lat="42.555502000000004" lon="-1.527355000000001">
        <ele>737.280</ele>
        <time>2022-06-19T10:46:32Z</time>
      </trkpt>
      <trkpt lat="42.55556300000001" lon="-1.527432000000001">
        <ele>737.652</ele>
        <time>2022-06-19T10:46:35Z</time>
      </trkpt>
      <trkpt lat="42.55569800000001" lon="-1.527614000000001">
        <ele>738.028</ele>
        <time>2022-06-19T10:46:42Z</time>
      </trkpt>
      <trkpt lat="42.55576000000001" lon="-1.5277040000000008">
        <ele>738.472</ele>
        <time>2022-06-19T10:46:45Z</time>
      </trkpt>
      <trkpt lat="42.55583800000001" lon="-1.5278370000000008">
        <ele>739.045</ele>
        <time>2022-06-19T10:46:49Z</time>
      </trkpt>
      <trkpt lat="42.55592300000001" lon="-1.5281310000000008">
        <ele>739.244</ele>
        <time>2022-06-19T10:46:56Z</time>
      </trkpt>
      <trkpt lat="42.55594800000001" lon="-1.5283940000000007">
        <ele>739.277</ele>
        <time>2022-06-19T10:47:03Z</time>
      </trkpt>
      <trkpt lat="42.55599600000001" lon="-1.5283830000000007">
        <ele>739.261</ele>
        <time>2022-06-19T10:47:06Z</time>
      </trkpt>
      <trkpt lat="42.55604900000001" lon="-1.5283290000000007">
        <ele>739.627</ele>
        <time>2022-06-19T10:47:11Z</time>
      </trkpt>
      <trkpt lat="42.55604900000001" lon="-1.5283290000000007">
        <ele>740.209</ele>
        <time>2022-06-19T10:47:12Z</time>
      </trkpt>
      <trkpt lat="42.55608600000001" lon="-1.5282700000000007">
        <ele>741.638</ele>
        <time>2022-06-19T10:48:03Z</time>
      </trkpt>
      <trkpt lat="42.55612800000001" lon="-1.5282400000000007">
        <ele>741.667</ele>
        <time>2022-06-19T10:48:05Z</time>
      </trkpt>
      <trkpt lat="42.556298000000005" lon="-1.5282040000000008">
        <ele>741.612</ele>
        <time>2022-06-19T10:48:10Z</time>
      </trkpt>
      <trkpt lat="42.556513" lon="-1.5282490000000009">
        <ele>741.896</ele>
        <time>2022-06-19T10:48:16Z</time>
      </trkpt>
      <trkpt lat="42.556536" lon="-1.5282550000000008">
        <ele>741.838</ele>
        <time>2022-06-19T10:48:17Z</time>
      </trkpt>
      <trkpt lat="42.556711" lon="-1.5283110000000009">
        <ele>741.884</ele>
        <time>2022-06-19T10:48:23Z</time>
      </trkpt>
      <trkpt lat="42.55688" lon="-1.528340000000001">
        <ele>742.638</ele>
        <time>2022-06-19T10:48:29Z</time>
      </trkpt>
      <trkpt lat="42.556908" lon="-1.528348000000001">
        <ele>742.821</ele>
        <time>2022-06-19T10:48:30Z</time>
      </trkpt>
      <trkpt lat="42.557009" lon="-1.5283840000000009">
        <ele>743.680</ele>
        <time>2022-06-19T10:48:34Z</time>
      </trkpt>
      <trkpt lat="42.557163" lon="-1.528440000000001">
        <ele>744.671</ele>
        <time>2022-06-19T10:48:40Z</time>
      </trkpt>
      <trkpt lat="42.557315" lon="-1.528482000000001">
        <ele>745.841</ele>
        <time>2022-06-19T10:48:46Z</time>
      </trkpt>
      <trkpt lat="42.557363" lon="-1.528507000000001">
        <ele>746.415</ele>
        <time>2022-06-19T10:48:48Z</time>
      </trkpt>
      <trkpt lat="42.55749" lon="-1.5285430000000009">
        <ele>747.209</ele>
        <time>2022-06-19T10:48:53Z</time>
      </trkpt>
      <trkpt lat="42.557582000000004" lon="-1.5285630000000008">
        <ele>748.258</ele>
        <time>2022-06-19T10:48:57Z</time>
      </trkpt>
      <trkpt lat="42.557652000000004" lon="-1.5285900000000008">
        <ele>748.467</ele>
        <time>2022-06-19T10:49:00Z</time>
      </trkpt>
      <trkpt lat="42.55774400000001" lon="-1.5286220000000008">
        <ele>749.232</ele>
        <time>2022-06-19T10:49:04Z</time>
      </trkpt>
      <trkpt lat="42.557787000000005" lon="-1.5286540000000008">
        <ele>749.656</ele>
        <time>2022-06-19T10:49:06Z</time>
      </trkpt>
      <trkpt lat="42.557869000000004" lon="-1.5287250000000008">
        <ele>750.828</ele>
        <time>2022-06-19T10:49:10Z</time>
      </trkpt>
      <trkpt lat="42.557888000000005" lon="-1.5287420000000007">
        <ele>751.264</ele>
        <time>2022-06-19T10:49:11Z</time>
      </trkpt>
      <trkpt lat="42.55793500000001" lon="-1.5288240000000006">
        <ele>752.088</ele>
        <time>2022-06-19T10:49:14Z</time>
      </trkpt>
      <trkpt lat="42.55799000000001" lon="-1.5289150000000007">
        <ele>752.681</ele>
        <time>2022-06-19T10:49:18Z</time>
      </trkpt>
      <trkpt lat="42.55800200000001" lon="-1.5289420000000007">
        <ele>752.850</ele>
        <time>2022-06-19T10:49:19Z</time>
      </trkpt>
      <trkpt lat="42.55807300000001" lon="-1.5290720000000007">
        <ele>754.057</ele>
        <time>2022-06-19T10:49:24Z</time>
      </trkpt>
      <trkpt lat="42.55811400000001" lon="-1.5291500000000007">
        <ele>754.600</ele>
        <time>2022-06-19T10:49:27Z</time>
      </trkpt>
      <trkpt lat="42.55814200000001" lon="-1.5292010000000007">
        <ele>755.020</ele>
        <time>2022-06-19T10:49:29Z</time>
      </trkpt>
      <trkpt lat="42.55824600000001" lon="-1.5293730000000008">
        <ele>756.209</ele>
        <time>2022-06-19T10:49:36Z</time>
      </trkpt>
      <trkpt lat="42.55826300000001" lon="-1.5293950000000007">
        <ele>756.486</ele>
        <time>2022-06-19T10:49:37Z</time>
      </trkpt>
      <trkpt lat="42.55832200000001" lon="-1.5294910000000008">
        <ele>757.495</ele>
        <time>2022-06-19T10:49:41Z</time>
      </trkpt>
      <trkpt lat="42.55838300000001" lon="-1.5295840000000007">
        <ele>758.260</ele>
        <time>2022-06-19T10:49:45Z</time>
      </trkpt>
      <trkpt lat="42.55841400000001" lon="-1.5296280000000007">
        <ele>758.654</ele>
        <time>2022-06-19T10:49:47Z</time>
      </trkpt>
      <trkpt lat="42.558492000000015" lon="-1.5297400000000005">
        <ele>759.866</ele>
        <time>2022-06-19T10:49:52Z</time>
      </trkpt>
      <trkpt lat="42.55850500000002" lon="-1.5297670000000005">
        <ele>760.052</ele>
        <time>2022-06-19T10:49:53Z</time>
      </trkpt>
      <trkpt lat="42.55859200000002" lon="-1.5299060000000004">
        <ele>760.886</ele>
        <time>2022-06-19T10:49:59Z</time>
      </trkpt>
      <trkpt lat="42.55862100000002" lon="-1.5299500000000004">
        <ele>761.099</ele>
        <time>2022-06-19T10:50:01Z</time>
      </trkpt>
      <trkpt lat="42.55869600000002" lon="-1.5300540000000005">
        <ele>762.088</ele>
        <time>2022-06-19T10:50:06Z</time>
      </trkpt>
      <trkpt lat="42.55872000000002" lon="-1.5300990000000005">
        <ele>762.255</ele>
        <time>2022-06-19T10:50:08Z</time>
      </trkpt>
      <trkpt lat="42.55878000000002" lon="-1.5301900000000006">
        <ele>763.007</ele>
        <time>2022-06-19T10:50:12Z</time>
      </trkpt>
      <trkpt lat="42.55882800000002" lon="-1.5302530000000005">
        <ele>764.017</ele>
        <time>2022-06-19T10:50:15Z</time>
      </trkpt>
      <trkpt lat="42.55884400000002" lon="-1.5302740000000006">
        <ele>764.209</ele>
        <time>2022-06-19T10:50:16Z</time>
      </trkpt>
      <trkpt lat="42.55896200000002" lon="-1.5304320000000007">
        <ele>765.266</ele>
        <time>2022-06-19T10:50:23Z</time>
      </trkpt>
      <trkpt lat="42.558998000000024" lon="-1.5304720000000007">
        <ele>765.675</ele>
        <time>2022-06-19T10:50:25Z</time>
      </trkpt>
      <trkpt lat="42.55912500000002" lon="-1.5305940000000007">
        <ele>766.020</ele>
        <time>2022-06-19T10:50:32Z</time>
      </trkpt>
      <trkpt lat="42.55917400000002" lon="-1.5306420000000007">
        <ele>766.214</ele>
        <time>2022-06-19T10:50:35Z</time>
      </trkpt>
      <trkpt lat="42.55924300000002" lon="-1.5307120000000007">
        <ele>766.476</ele>
        <time>2022-06-19T10:50:39Z</time>
      </trkpt>
      <trkpt lat="42.55928800000002" lon="-1.5307530000000007">
        <ele>767.272</ele>
        <time>2022-06-19T10:50:42Z</time>
      </trkpt>
      <trkpt lat="42.55935000000002" lon="-1.5308230000000007">
        <ele>768.246</ele>
        <time>2022-06-19T10:50:46Z</time>
      </trkpt>
      <trkpt lat="42.55936500000002" lon="-1.5308410000000008">
        <ele>768.679</ele>
        <time>2022-06-19T10:50:47Z</time>
      </trkpt>
      <trkpt lat="42.559409000000024" lon="-1.5309240000000008">
        <ele>769.268</ele>
        <time>2022-06-19T10:50:51Z</time>
      </trkpt>
      <trkpt lat="42.559422000000026" lon="-1.530931000000001">
        <ele>769.416</ele>
        <time>2022-06-19T10:50:52Z</time>
      </trkpt>
      <trkpt lat="42.55943300000003" lon="-1.530936000000001">
        <ele>769.676</ele>
        <time>2022-06-19T10:50:53Z</time>
      </trkpt>
      <trkpt lat="42.55943800000003" lon="-1.530936000000001">
        <ele>769.813</ele>
        <time>2022-06-19T10:50:55Z</time>
      </trkpt>
      <trkpt lat="42.55946600000003" lon="-1.530906000000001">
        <ele>772.009</ele>
        <time>2022-06-19T10:54:30Z</time>
      </trkpt>
      <trkpt lat="42.559487000000026" lon="-1.530904000000001">
        <ele>772.082</ele>
        <time>2022-06-19T10:54:31Z</time>
      </trkpt>
      <trkpt lat="42.559510000000024" lon="-1.5309100000000009">
        <ele>772.051</ele>
        <time>2022-06-19T10:54:32Z</time>
      </trkpt>
      <trkpt lat="42.559709000000026" lon="-1.5309670000000009">
        <ele>771.486</ele>
        <time>2022-06-19T10:54:38Z</time>
      </trkpt>
      <trkpt lat="42.559982000000026" lon="-1.5310680000000008">
        <ele>771.260</ele>
        <time>2022-06-19T10:54:44Z</time>
      </trkpt>
      <trkpt lat="42.560179000000026" lon="-1.5311290000000009">
        <ele>770.812</ele>
        <time>2022-06-19T10:54:48Z</time>
      </trkpt>
      <trkpt lat="42.56033600000003" lon="-1.5311350000000008">
        <ele>770.458</ele>
        <time>2022-06-19T10:54:51Z</time>
      </trkpt>
      <trkpt lat="42.56066800000003" lon="-1.5310570000000008">
        <ele>770.062</ele>
        <time>2022-06-19T10:54:57Z</time>
      </trkpt>
      <trkpt lat="42.560962000000025" lon="-1.5309660000000007">
        <ele>769.875</ele>
        <time>2022-06-19T10:55:02Z</time>
      </trkpt>
      <trkpt lat="42.56107800000002" lon="-1.5309680000000008">
        <ele>769.864</ele>
        <time>2022-06-19T10:55:04Z</time>
      </trkpt>
      <trkpt lat="42.56113700000002" lon="-1.5309750000000009">
        <ele>769.879</ele>
        <time>2022-06-19T10:55:05Z</time>
      </trkpt>
      <trkpt lat="42.56148600000002" lon="-1.5310720000000009">
        <ele>769.205</ele>
        <time>2022-06-19T10:55:11Z</time>
      </trkpt>
      <trkpt lat="42.562003000000026" lon="-1.531252000000001">
        <ele>769.425</ele>
        <time>2022-06-19T10:55:21Z</time>
      </trkpt>
      <trkpt lat="42.562091000000024" lon="-1.5312800000000009">
        <ele>769.409</ele>
        <time>2022-06-19T10:55:23Z</time>
      </trkpt>
      <trkpt lat="42.56222200000003" lon="-1.5312830000000008">
        <ele>769.818</ele>
        <time>2022-06-19T10:55:26Z</time>
      </trkpt>
      <trkpt lat="42.56231100000003" lon="-1.5312680000000007">
        <ele>770.057</ele>
        <time>2022-06-19T10:55:28Z</time>
      </trkpt>
      <trkpt lat="42.56244400000003" lon="-1.5312270000000008">
        <ele>770.872</ele>
        <time>2022-06-19T10:55:31Z</time>
      </trkpt>
      <trkpt lat="42.56254000000003" lon="-1.531196000000001">
        <ele>771.216</ele>
        <time>2022-06-19T10:55:33Z</time>
      </trkpt>
      <trkpt lat="42.562890000000024" lon="-1.531068000000001">
        <ele>771.818</ele>
        <time>2022-06-19T10:55:39Z</time>
      </trkpt>
      <trkpt lat="42.56327400000002" lon="-1.530934000000001">
        <ele>771.824</ele>
        <time>2022-06-19T10:55:46Z</time>
      </trkpt>
      <trkpt lat="42.56355600000002" lon="-1.530849000000001">
        <ele>772.048</ele>
        <time>2022-06-19T10:55:53Z</time>
      </trkpt>
      <trkpt lat="42.56366500000002" lon="-1.5308100000000011">
        <ele>772.861</ele>
        <time>2022-06-19T10:55:56Z</time>
      </trkpt>
      <trkpt lat="42.563799000000024" lon="-1.530773000000001">
        <ele>773.860</ele>
        <time>2022-06-19T10:56:00Z</time>
      </trkpt>
      <trkpt lat="42.56383100000002" lon="-1.5307640000000011">
        <ele>774.237</ele>
        <time>2022-06-19T10:56:01Z</time>
      </trkpt>
      <trkpt lat="42.56395300000002" lon="-1.5307230000000012">
        <ele>775.249</ele>
        <time>2022-06-19T10:56:05Z</time>
      </trkpt>
      <trkpt lat="42.56401200000002" lon="-1.5307100000000011">
        <ele>775.613</ele>
        <time>2022-06-19T10:56:07Z</time>
      </trkpt>
      <trkpt lat="42.56410600000002" lon="-1.530670000000001">
        <ele>776.209</ele>
        <time>2022-06-19T10:56:10Z</time>
      </trkpt>
      <trkpt lat="42.56422100000002" lon="-1.5306310000000012">
        <ele>776.834</ele>
        <time>2022-06-19T10:56:14Z</time>
      </trkpt>
      <trkpt lat="42.56429900000002" lon="-1.530608000000001">
        <ele>777.223</ele>
        <time>2022-06-19T10:56:17Z</time>
      </trkpt>
      <trkpt lat="42.56444500000002" lon="-1.5305480000000011">
        <ele>777.848</ele>
        <time>2022-06-19T10:56:22Z</time>
      </trkpt>
      <trkpt lat="42.56449500000002" lon="-1.530530000000001">
        <ele>778.272</ele>
        <time>2022-06-19T10:56:24Z</time>
      </trkpt>
      <trkpt lat="42.564629000000025" lon="-1.530458000000001">
        <ele>778.834</ele>
        <time>2022-06-19T10:56:29Z</time>
      </trkpt>
      <trkpt lat="42.56467000000003" lon="-1.530424000000001">
        <ele>779.240</ele>
        <time>2022-06-19T10:56:31Z</time>
      </trkpt>
      <trkpt lat="42.56478800000003" lon="-1.5303030000000009">
        <ele>780.274</ele>
        <time>2022-06-19T10:56:37Z</time>
      </trkpt>
      <trkpt lat="42.56482700000003" lon="-1.5302530000000008">
        <ele>780.437</ele>
        <time>2022-06-19T10:56:39Z</time>
      </trkpt>
      <trkpt lat="42.56493000000003" lon="-1.5301530000000008">
        <ele>781.486</ele>
        <time>2022-06-19T10:56:44Z</time>
      </trkpt>
      <trkpt lat="42.56498900000003" lon="-1.5300960000000008">
        <ele>781.839</ele>
        <time>2022-06-19T10:56:47Z</time>
      </trkpt>
      <trkpt lat="42.56510800000003" lon="-1.5300330000000009">
        <ele>782.601</ele>
        <time>2022-06-19T10:56:52Z</time>
      </trkpt>
      <trkpt lat="42.56527100000003" lon="-1.5299910000000008">
        <ele>783.621</ele>
        <time>2022-06-19T10:56:57Z</time>
      </trkpt>
      <trkpt lat="42.56531100000003" lon="-1.5299830000000008">
        <ele>783.809</ele>
        <time>2022-06-19T10:56:58Z</time>
      </trkpt>
      <trkpt lat="42.565439000000026" lon="-1.5299480000000008">
        <ele>783.854</ele>
        <time>2022-06-19T10:57:01Z</time>
      </trkpt>
      <trkpt lat="42.56561800000003" lon="-1.5299050000000007">
        <ele>783.823</ele>
        <time>2022-06-19T10:57:05Z</time>
      </trkpt>
      <trkpt lat="42.56614600000003" lon="-1.5297470000000006">
        <ele>783.418</ele>
        <time>2022-06-19T10:57:16Z</time>
      </trkpt>
      <trkpt lat="42.56640600000003" lon="-1.5296470000000006">
        <ele>783.072</ele>
        <time>2022-06-19T10:57:21Z</time>
      </trkpt>
      <trkpt lat="42.56646300000003" lon="-1.5296120000000006">
        <ele>782.694</ele>
        <time>2022-06-19T10:57:22Z</time>
      </trkpt>
      <trkpt lat="42.566841000000025" lon="-1.5293530000000006">
        <ele>782.640</ele>
        <time>2022-06-19T10:57:31Z</time>
      </trkpt>
      <trkpt lat="42.56721100000002" lon="-1.5290790000000005">
        <ele>783.254</ele>
        <time>2022-06-19T10:57:40Z</time>
      </trkpt>
      <trkpt lat="42.56746400000002" lon="-1.5288080000000006">
        <ele>783.227</ele>
        <time>2022-06-19T10:57:47Z</time>
      </trkpt>
      <trkpt lat="42.56758000000002" lon="-1.5286350000000006">
        <ele>783.426</ele>
        <time>2022-06-19T10:57:51Z</time>
      </trkpt>
      <trkpt lat="42.56770400000002" lon="-1.5284060000000006">
        <ele>783.664</ele>
        <time>2022-06-19T10:57:56Z</time>
      </trkpt>
      <trkpt lat="42.56779500000002" lon="-1.5281720000000005">
        <ele>784.406</ele>
        <time>2022-06-19T10:58:01Z</time>
      </trkpt>
      <trkpt lat="42.567841000000016" lon="-1.5280050000000005">
        <ele>784.616</ele>
        <time>2022-06-19T10:58:04Z</time>
      </trkpt>
      <trkpt lat="42.56792700000002" lon="-1.5277190000000005">
        <ele>785.409</ele>
        <time>2022-06-19T10:58:10Z</time>
      </trkpt>
      <trkpt lat="42.56798000000002" lon="-1.5275820000000004">
        <ele>785.647</ele>
        <time>2022-06-19T10:58:13Z</time>
      </trkpt>
      <trkpt lat="42.56808400000002" lon="-1.5274120000000004">
        <ele>786.456</ele>
        <time>2022-06-19T10:58:18Z</time>
      </trkpt>
      <trkpt lat="42.56812600000002" lon="-1.5273600000000005">
        <ele>787.041</ele>
        <time>2022-06-19T10:58:20Z</time>
      </trkpt>
      <trkpt lat="42.56820400000002" lon="-1.5272680000000005">
        <ele>787.495</ele>
        <time>2022-06-19T10:58:23Z</time>
      </trkpt>
      <trkpt lat="42.56835100000002" lon="-1.5271370000000004">
        <ele>788.627</ele>
        <time>2022-06-19T10:58:28Z</time>
      </trkpt>
      <trkpt lat="42.56837400000002" lon="-1.5271200000000005">
        <ele>789.043</ele>
        <time>2022-06-19T10:58:29Z</time>
      </trkpt>
      <trkpt lat="42.56854200000002" lon="-1.5270370000000004">
        <ele>789.637</ele>
        <time>2022-06-19T10:58:34Z</time>
      </trkpt>
      <trkpt lat="42.56862200000002" lon="-1.5270280000000005">
        <ele>790.060</ele>
        <time>2022-06-19T10:58:36Z</time>
      </trkpt>
      <trkpt lat="42.56892400000002" lon="-1.5270780000000006">
        <ele>790.449</ele>
        <time>2022-06-19T10:58:43Z</time>
      </trkpt>
      <trkpt lat="42.569234000000016" lon="-1.5271640000000006">
        <ele>790.481</ele>
        <time>2022-06-19T10:58:50Z</time>
      </trkpt>
      <trkpt lat="42.569445000000016" lon="-1.5272910000000006">
        <ele>790.461</ele>
        <time>2022-06-19T10:58:55Z</time>
      </trkpt>
      <trkpt lat="42.569479000000015" lon="-1.5273260000000006">
        <ele>790.417</ele>
        <time>2022-06-19T10:58:56Z</time>
      </trkpt>
      <trkpt lat="42.56967800000002" lon="-1.5276230000000006">
        <ele>790.609</ele>
        <time>2022-06-19T10:59:03Z</time>
      </trkpt>
      <trkpt lat="42.56970600000002" lon="-1.5276710000000007">
        <ele>790.819</ele>
        <time>2022-06-19T10:59:04Z</time>
      </trkpt>
      <trkpt lat="42.56981200000002" lon="-1.5278770000000006">
        <ele>791.428</ele>
        <time>2022-06-19T10:59:08Z</time>
      </trkpt>
      <trkpt lat="42.56990400000002" lon="-1.5280230000000006">
        <ele>791.643</ele>
        <time>2022-06-19T10:59:11Z</time>
      </trkpt>
      <trkpt lat="42.569934000000025" lon="-1.5280670000000005">
        <ele>791.817</ele>
        <time>2022-06-19T10:59:12Z</time>
      </trkpt>
      <trkpt lat="42.569965000000025" lon="-1.5281060000000004">
        <ele>791.829</ele>
        <time>2022-06-19T10:59:13Z</time>
      </trkpt>
      <trkpt lat="42.57002900000003" lon="-1.5281830000000005">
        <ele>791.885</ele>
        <time>2022-06-19T10:59:15Z</time>
      </trkpt>
      <trkpt lat="42.57010100000003" lon="-1.5282490000000004">
        <ele>792.059</ele>
        <time>2022-06-19T10:59:17Z</time>
      </trkpt>
      <trkpt lat="42.57014000000003" lon="-1.5282820000000004">
        <ele>791.892</ele>
        <time>2022-06-19T10:59:18Z</time>
      </trkpt>
      <trkpt lat="42.57033100000003" lon="-1.5283840000000004">
        <ele>791.821</ele>
        <time>2022-06-19T10:59:23Z</time>
      </trkpt>
      <trkpt lat="42.570369000000035" lon="-1.5283900000000004">
        <ele>791.825</ele>
        <time>2022-06-19T10:59:24Z</time>
      </trkpt>
      <trkpt lat="42.570513000000034" lon="-1.5284130000000005">
        <ele>792.026</ele>
        <time>2022-06-19T10:59:28Z</time>
      </trkpt>
      <trkpt lat="42.57073900000003" lon="-1.5283770000000005">
        <ele>792.008</ele>
        <time>2022-06-19T10:59:34Z</time>
      </trkpt>
      <trkpt lat="42.57109400000003" lon="-1.5283050000000005">
        <ele>792.409</ele>
        <time>2022-06-19T10:59:44Z</time>
      </trkpt>
      <trkpt lat="42.57120900000003" lon="-1.5283070000000005">
        <ele>792.633</ele>
        <time>2022-06-19T10:59:47Z</time>
      </trkpt>
      <trkpt lat="42.57131800000003" lon="-1.5283560000000005">
        <ele>793.272</ele>
        <time>2022-06-19T10:59:50Z</time>
      </trkpt>
      <trkpt lat="42.57147100000003" lon="-1.5284870000000006">
        <ele>793.847</ele>
        <time>2022-06-19T10:59:55Z</time>
      </trkpt>
      <trkpt lat="42.571495000000034" lon="-1.5285200000000005">
        <ele>793.851</ele>
        <time>2022-06-19T10:59:56Z</time>
      </trkpt>
      <trkpt lat="42.571655000000035" lon="-1.5286640000000005">
        <ele>794.853</ele>
        <time>2022-06-19T11:00:02Z</time>
      </trkpt>
      <trkpt lat="42.57174600000003" lon="-1.5287260000000005">
        <ele>795.059</ele>
        <time>2022-06-19T11:00:05Z</time>
      </trkpt>
      <trkpt lat="42.57186700000003" lon="-1.5287860000000004">
        <ele>795.683</ele>
        <time>2022-06-19T11:00:08Z</time>
      </trkpt>
      <trkpt lat="42.57191600000003" lon="-1.5288000000000004">
        <ele>795.886</ele>
        <time>2022-06-19T11:00:09Z</time>
      </trkpt>
      <trkpt lat="42.57197100000003" lon="-1.5288100000000004">
        <ele>795.825</ele>
        <time>2022-06-19T11:00:10Z</time>
      </trkpt>
      <trkpt lat="42.57234900000003" lon="-1.5288580000000005">
        <ele>796.037</ele>
        <time>2022-06-19T11:00:16Z</time>
      </trkpt>
      <trkpt lat="42.57252900000003" lon="-1.5288640000000004">
        <ele>796.049</ele>
        <time>2022-06-19T11:00:19Z</time>
      </trkpt>
      <trkpt lat="42.572722000000034" lon="-1.5289210000000004">
        <ele>795.813</ele>
        <time>2022-06-19T11:00:22Z</time>
      </trkpt>
      <trkpt lat="42.572789000000036" lon="-1.5289560000000004">
        <ele>795.609</ele>
        <time>2022-06-19T11:00:23Z</time>
      </trkpt>
      <trkpt lat="42.572989000000035" lon="-1.5290850000000005">
        <ele>795.034</ele>
        <time>2022-06-19T11:00:26Z</time>
      </trkpt>
      <trkpt lat="42.573060000000034" lon="-1.5291320000000004">
        <ele>794.643</ele>
        <time>2022-06-19T11:00:27Z</time>
      </trkpt>
      <trkpt lat="42.57327700000003" lon="-1.5292880000000004">
        <ele>793.078</ele>
        <time>2022-06-19T11:00:30Z</time>
      </trkpt>
      <trkpt lat="42.573425000000036" lon="-1.5293950000000005">
        <ele>792.432</ele>
        <time>2022-06-19T11:00:32Z</time>
      </trkpt>
      <trkpt lat="42.573504000000035" lon="-1.5294320000000006">
        <ele>791.214</ele>
        <time>2022-06-19T11:00:33Z</time>
      </trkpt>
      <trkpt lat="42.57358500000004" lon="-1.5294520000000005">
        <ele>790.230</ele>
        <time>2022-06-19T11:00:34Z</time>
      </trkpt>
      <trkpt lat="42.573667000000036" lon="-1.5294480000000006">
        <ele>789.664</ele>
        <time>2022-06-19T11:00:35Z</time>
      </trkpt>
      <trkpt lat="42.573752000000034" lon="-1.5294180000000006">
        <ele>789.267</ele>
        <time>2022-06-19T11:00:36Z</time>
      </trkpt>
      <trkpt lat="42.574025000000034" lon="-1.5293200000000007">
        <ele>788.046</ele>
        <time>2022-06-19T11:00:39Z</time>
      </trkpt>
      <trkpt lat="42.574287000000034" lon="-1.5293010000000007">
        <ele>786.656</ele>
        <time>2022-06-19T11:00:42Z</time>
      </trkpt>
      <trkpt lat="42.574362000000036" lon="-1.5293330000000007">
        <ele>786.059</ele>
        <time>2022-06-19T11:00:43Z</time>
      </trkpt>
      <trkpt lat="42.57441100000003" lon="-1.5294100000000008">
        <ele>785.014</ele>
        <time>2022-06-19T11:00:44Z</time>
      </trkpt>
      <trkpt lat="42.574444000000035" lon="-1.529509000000001">
        <ele>784.209</ele>
        <time>2022-06-19T11:00:45Z</time>
      </trkpt>
      <trkpt lat="42.57446800000004" lon="-1.5296150000000008">
        <ele>782.816</ele>
        <time>2022-06-19T11:00:46Z</time>
      </trkpt>
      <trkpt lat="42.57453300000004" lon="-1.5298320000000007">
        <ele>781.235</ele>
        <time>2022-06-19T11:00:48Z</time>
      </trkpt>
      <trkpt lat="42.57461700000004" lon="-1.5300580000000008">
        <ele>780.260</ele>
        <time>2022-06-19T11:00:50Z</time>
      </trkpt>
      <trkpt lat="42.574728000000036" lon="-1.5302870000000008">
        <ele>779.034</ele>
        <time>2022-06-19T11:00:52Z</time>
      </trkpt>
      <trkpt lat="42.57485900000004" lon="-1.530507000000001">
        <ele>778.086</ele>
        <time>2022-06-19T11:00:54Z</time>
      </trkpt>
      <trkpt lat="42.57492100000004" lon="-1.530623000000001">
        <ele>777.872</ele>
        <time>2022-06-19T11:00:55Z</time>
      </trkpt>
      <trkpt lat="42.57499500000004" lon="-1.530895000000001">
        <ele>777.266</ele>
        <time>2022-06-19T11:00:57Z</time>
      </trkpt>
      <trkpt lat="42.57498100000004" lon="-1.531187000000001">
        <ele>776.839</ele>
        <time>2022-06-19T11:00:59Z</time>
      </trkpt>
      <trkpt lat="42.57496100000004" lon="-1.531335000000001">
        <ele>776.848</ele>
        <time>2022-06-19T11:01:00Z</time>
      </trkpt>
      <trkpt lat="42.57493300000004" lon="-1.531627000000001">
        <ele>775.817</ele>
        <time>2022-06-19T11:01:02Z</time>
      </trkpt>
      <trkpt lat="42.57493600000004" lon="-1.531762000000001">
        <ele>775.487</ele>
        <time>2022-06-19T11:01:03Z</time>
      </trkpt>
      <trkpt lat="42.57495800000004" lon="-1.531877000000001">
        <ele>774.615</ele>
        <time>2022-06-19T11:01:04Z</time>
      </trkpt>
      <trkpt lat="42.574998000000036" lon="-1.531980000000001">
        <ele>773.609</ele>
        <time>2022-06-19T11:01:05Z</time>
      </trkpt>
      <trkpt lat="42.57504800000004" lon="-1.532075000000001">
        <ele>772.662</ele>
        <time>2022-06-19T11:01:06Z</time>
      </trkpt>
      <trkpt lat="42.575105000000036" lon="-1.532163000000001">
        <ele>772.041</ele>
        <time>2022-06-19T11:01:07Z</time>
      </trkpt>
      <trkpt lat="42.575238000000034" lon="-1.532328000000001">
        <ele>771.246</ele>
        <time>2022-06-19T11:01:09Z</time>
      </trkpt>
      <trkpt lat="42.57531300000004" lon="-1.532400000000001">
        <ele>771.080</ele>
        <time>2022-06-19T11:01:10Z</time>
      </trkpt>
      <trkpt lat="42.575392000000036" lon="-1.532468000000001">
        <ele>770.642</ele>
        <time>2022-06-19T11:01:11Z</time>
      </trkpt>
      <trkpt lat="42.57554600000004" lon="-1.532623000000001">
        <ele>769.858</ele>
        <time>2022-06-19T11:01:13Z</time>
      </trkpt>
      <trkpt lat="42.575606000000036" lon="-1.532730000000001">
        <ele>769.222</ele>
        <time>2022-06-19T11:01:14Z</time>
      </trkpt>
      <trkpt lat="42.57565800000003" lon="-1.532849000000001">
        <ele>768.045</ele>
        <time>2022-06-19T11:01:15Z</time>
      </trkpt>
      <trkpt lat="42.57577100000003" lon="-1.533098000000001">
        <ele>766.884</ele>
        <time>2022-06-19T11:01:17Z</time>
      </trkpt>
      <trkpt lat="42.575894000000034" lon="-1.533344000000001">
        <ele>765.699</ele>
        <time>2022-06-19T11:01:19Z</time>
      </trkpt>
      <trkpt lat="42.576014000000036" lon="-1.5335690000000008">
        <ele>764.407</ele>
        <time>2022-06-19T11:01:21Z</time>
      </trkpt>
      <trkpt lat="42.576127000000035" lon="-1.533760000000001">
        <ele>763.227</ele>
        <time>2022-06-19T11:01:23Z</time>
      </trkpt>
      <trkpt lat="42.57619400000004" lon="-1.533832000000001">
        <ele>762.209</ele>
        <time>2022-06-19T11:01:24Z</time>
      </trkpt>
      <trkpt lat="42.57627200000004" lon="-1.533882000000001">
        <ele>761.060</ele>
        <time>2022-06-19T11:01:25Z</time>
      </trkpt>
      <trkpt lat="42.576442000000036" lon="-1.533945000000001">
        <ele>759.829</ele>
        <time>2022-06-19T11:01:27Z</time>
      </trkpt>
      <trkpt lat="42.57689600000003" lon="-1.534071000000001">
        <ele>758.684</ele>
        <time>2022-06-19T11:01:32Z</time>
      </trkpt>
      <trkpt lat="42.57698900000003" lon="-1.5341050000000012">
        <ele>758.458</ele>
        <time>2022-06-19T11:01:33Z</time>
      </trkpt>
      <trkpt lat="42.57709600000003" lon="-1.5341610000000012">
        <ele>757.840</ele>
        <time>2022-06-19T11:01:34Z</time>
      </trkpt>
      <trkpt lat="42.577154000000036" lon="-1.5342220000000013">
        <ele>756.856</ele>
        <time>2022-06-19T11:01:35Z</time>
      </trkpt>
      <trkpt lat="42.57721200000004" lon="-1.5343130000000014">
        <ele>756.290</ele>
        <time>2022-06-19T11:01:36Z</time>
      </trkpt>
      <trkpt lat="42.57725500000004" lon="-1.5344170000000015">
        <ele>755.863</ele>
        <time>2022-06-19T11:01:37Z</time>
      </trkpt>
      <trkpt lat="42.577284000000034" lon="-1.5345280000000014">
        <ele>755.482</ele>
        <time>2022-06-19T11:01:38Z</time>
      </trkpt>
      <trkpt lat="42.577306000000036" lon="-1.5346420000000014">
        <ele>755.066</ele>
        <time>2022-06-19T11:01:39Z</time>
      </trkpt>
      <trkpt lat="42.577326000000035" lon="-1.5347560000000013">
        <ele>754.429</ele>
        <time>2022-06-19T11:01:40Z</time>
      </trkpt>
      <trkpt lat="42.577340000000035" lon="-1.5348740000000014">
        <ele>753.421</ele>
        <time>2022-06-19T11:01:41Z</time>
      </trkpt>
      <trkpt lat="42.57735000000004" lon="-1.5349910000000013">
        <ele>753.009</ele>
        <time>2022-06-19T11:01:42Z</time>
      </trkpt>
      <trkpt lat="42.57736900000004" lon="-1.5350980000000014">
        <ele>752.677</ele>
        <time>2022-06-19T11:01:43Z</time>
      </trkpt>
      <trkpt lat="42.57746200000004" lon="-1.5352720000000013">
        <ele>751.696</ele>
        <time>2022-06-19T11:01:45Z</time>
      </trkpt>
      <trkpt lat="42.57753000000004" lon="-1.5353300000000012">
        <ele>751.251</ele>
        <time>2022-06-19T11:01:46Z</time>
      </trkpt>
      <trkpt lat="42.57784500000004" lon="-1.5355050000000012">
        <ele>750.465</ele>
        <time>2022-06-19T11:01:50Z</time>
      </trkpt>
      <trkpt lat="42.57809700000004" lon="-1.5356340000000013">
        <ele>750.037</ele>
        <time>2022-06-19T11:01:53Z</time>
      </trkpt>
      <trkpt lat="42.57817600000004" lon="-1.5356920000000012">
        <ele>749.873</ele>
        <time>2022-06-19T11:01:54Z</time>
      </trkpt>
      <trkpt lat="42.578313000000044" lon="-1.5358610000000013">
        <ele>749.617</ele>
        <time>2022-06-19T11:01:56Z</time>
      </trkpt>
      <trkpt lat="42.578451000000044" lon="-1.5360540000000014">
        <ele>749.230</ele>
        <time>2022-06-19T11:01:58Z</time>
      </trkpt>
      <trkpt lat="42.57860400000004" lon="-1.5362430000000014">
        <ele>747.469</ele>
        <time>2022-06-19T11:02:00Z</time>
      </trkpt>
      <trkpt lat="42.57878500000004" lon="-1.5366090000000014">
        <ele>746.266</ele>
        <time>2022-06-19T11:02:03Z</time>
      </trkpt>
      <trkpt lat="42.57896500000004" lon="-1.5369890000000015">
        <ele>744.829</ele>
        <time>2022-06-19T11:02:06Z</time>
      </trkpt>
      <trkpt lat="42.57908300000004" lon="-1.5372470000000016">
        <ele>743.621</ele>
        <time>2022-06-19T11:02:08Z</time>
      </trkpt>
      <trkpt lat="42.57914000000004" lon="-1.5373820000000016">
        <ele>743.409</ele>
        <time>2022-06-19T11:02:09Z</time>
      </trkpt>
      <trkpt lat="42.579259000000036" lon="-1.5376470000000015">
        <ele>742.097</ele>
        <time>2022-06-19T11:02:11Z</time>
      </trkpt>
      <trkpt lat="42.579318000000036" lon="-1.5377770000000015">
        <ele>740.666</ele>
        <time>2022-06-19T11:02:12Z</time>
      </trkpt>
      <trkpt lat="42.57937300000004" lon="-1.5379060000000015">
        <ele>739.451</ele>
        <time>2022-06-19T11:02:13Z</time>
      </trkpt>
      <trkpt lat="42.57942400000004" lon="-1.5380320000000016">
        <ele>738.075</ele>
        <time>2022-06-19T11:02:14Z</time>
      </trkpt>
      <trkpt lat="42.57946800000004" lon="-1.5381560000000016">
        <ele>736.657</ele>
        <time>2022-06-19T11:02:15Z</time>
      </trkpt>
      <trkpt lat="42.57950500000004" lon="-1.5382690000000017">
        <ele>736.023</ele>
        <time>2022-06-19T11:02:16Z</time>
      </trkpt>
      <trkpt lat="42.57953900000004" lon="-1.5383620000000016">
        <ele>735.657</ele>
        <time>2022-06-19T11:02:17Z</time>
      </trkpt>
      <trkpt lat="42.57957400000004" lon="-1.5384250000000015">
        <ele>735.020</ele>
        <time>2022-06-19T11:02:18Z</time>
      </trkpt>
      <trkpt lat="42.57962100000004" lon="-1.5384530000000014">
        <ele>734.829</ele>
        <time>2022-06-19T11:02:19Z</time>
      </trkpt>
      <trkpt lat="42.57967100000004" lon="-1.5384550000000015">
        <ele>734.426</ele>
        <time>2022-06-19T11:02:20Z</time>
      </trkpt>
      <trkpt lat="42.57975800000004" lon="-1.5383140000000015">
        <ele>734.247</ele>
        <time>2022-06-19T11:02:22Z</time>
      </trkpt>
      <trkpt lat="42.57978800000004" lon="-1.5382220000000015">
        <ele>734.211</ele>
        <time>2022-06-19T11:02:23Z</time>
      </trkpt>
      <trkpt lat="42.57982600000005" lon="-1.5380170000000015">
        <ele>733.809</ele>
        <time>2022-06-19T11:02:25Z</time>
      </trkpt>
      <trkpt lat="42.57983400000005" lon="-1.5379080000000016">
        <ele>733.873</ele>
        <time>2022-06-19T11:02:26Z</time>
      </trkpt>
      <trkpt lat="42.579866000000045" lon="-1.5375740000000016">
        <ele>733.262</ele>
        <time>2022-06-19T11:02:29Z</time>
      </trkpt>
      <trkpt lat="42.57987300000004" lon="-1.5374670000000015">
        <ele>733.077</ele>
        <time>2022-06-19T11:02:30Z</time>
      </trkpt>
      <trkpt lat="42.57987000000004" lon="-1.5373590000000015">
        <ele>733.021</ele>
        <time>2022-06-19T11:02:31Z</time>
      </trkpt>
      <trkpt lat="42.57985300000004" lon="-1.5372580000000016">
        <ele>732.863</ele>
        <time>2022-06-19T11:02:32Z</time>
      </trkpt>
      <trkpt lat="42.579821000000045" lon="-1.5371630000000016">
        <ele>732.089</ele>
        <time>2022-06-19T11:02:33Z</time>
      </trkpt>
      <trkpt lat="42.57977700000004" lon="-1.5370740000000016">
        <ele>731.433</ele>
        <time>2022-06-19T11:02:34Z</time>
      </trkpt>
      <trkpt lat="42.57972600000004" lon="-1.5369950000000017">
        <ele>731.046</ele>
        <time>2022-06-19T11:02:35Z</time>
      </trkpt>
      <trkpt lat="42.57966700000004" lon="-1.5369270000000017">
        <ele>730.475</ele>
        <time>2022-06-19T11:02:36Z</time>
      </trkpt>
      <trkpt lat="42.57960300000004" lon="-1.5368620000000017">
        <ele>729.637</ele>
        <time>2022-06-19T11:02:37Z</time>
      </trkpt>
      <trkpt lat="42.57953800000004" lon="-1.5367900000000017">
        <ele>728.649</ele>
        <time>2022-06-19T11:02:38Z</time>
      </trkpt>
      <trkpt lat="42.579371000000044" lon="-1.5365190000000017">
        <ele>727.413</ele>
        <time>2022-06-19T11:02:41Z</time>
      </trkpt>
      <trkpt lat="42.57925200000005" lon="-1.5361910000000016">
        <ele>726.409</ele>
        <time>2022-06-19T11:02:44Z</time>
      </trkpt>
      <trkpt lat="42.579233000000045" lon="-1.5360750000000016">
        <ele>726.234</ele>
        <time>2022-06-19T11:02:45Z</time>
      </trkpt>
      <trkpt lat="42.57923400000004" lon="-1.5359620000000016">
        <ele>726.023</ele>
        <time>2022-06-19T11:02:46Z</time>
      </trkpt>
      <trkpt lat="42.57926800000004" lon="-1.5357570000000016">
        <ele>724.878</ele>
        <time>2022-06-19T11:02:48Z</time>
      </trkpt>
      <trkpt lat="42.57935500000004" lon="-1.5356140000000016">
        <ele>723.482</ele>
        <time>2022-06-19T11:02:50Z</time>
      </trkpt>
      <trkpt lat="42.57948700000004" lon="-1.5356330000000016">
        <ele>722.644</ele>
        <time>2022-06-19T11:02:52Z</time>
      </trkpt>
      <trkpt lat="42.57953900000004" lon="-1.5356980000000016">
        <ele>721.850</ele>
        <time>2022-06-19T11:02:53Z</time>
      </trkpt>
      <trkpt lat="42.57964100000004" lon="-1.5358670000000016">
        <ele>721.044</ele>
        <time>2022-06-19T11:02:55Z</time>
      </trkpt>
      <trkpt lat="42.57970200000004" lon="-1.5359460000000016">
        <ele>720.827</ele>
        <time>2022-06-19T11:02:56Z</time>
      </trkpt>
      <trkpt lat="42.57986400000004" lon="-1.5360440000000015">
        <ele>720.426</ele>
        <time>2022-06-19T11:02:58Z</time>
      </trkpt>
      <trkpt lat="42.58015500000004" lon="-1.5361570000000015">
        <ele>719.626</ele>
        <time>2022-06-19T11:03:01Z</time>
      </trkpt>
      <trkpt lat="42.58036000000004" lon="-1.5362430000000016">
        <ele>718.447</ele>
        <time>2022-06-19T11:03:03Z</time>
      </trkpt>
      <trkpt lat="42.58057500000004" lon="-1.5363220000000015">
        <ele>716.811</ele>
        <time>2022-06-19T11:03:05Z</time>
      </trkpt>
      <trkpt lat="42.58067400000004" lon="-1.5363780000000016">
        <ele>716.009</ele>
        <time>2022-06-19T11:03:06Z</time>
      </trkpt>
      <trkpt lat="42.58075600000004" lon="-1.5364640000000016">
        <ele>715.073</ele>
        <time>2022-06-19T11:03:07Z</time>
      </trkpt>
      <trkpt lat="42.580819000000034" lon="-1.5365760000000015">
        <ele>713.862</ele>
        <time>2022-06-19T11:03:08Z</time>
      </trkpt>
      <trkpt lat="42.580872000000035" lon="-1.5367050000000015">
        <ele>712.637</ele>
        <time>2022-06-19T11:03:09Z</time>
      </trkpt>
      <trkpt lat="42.580925000000036" lon="-1.5368410000000015">
        <ele>712.031</ele>
        <time>2022-06-19T11:03:10Z</time>
      </trkpt>
      <trkpt lat="42.580979000000035" lon="-1.5369810000000015">
        <ele>710.613</ele>
        <time>2022-06-19T11:03:11Z</time>
      </trkpt>
      <trkpt lat="42.581032000000036" lon="-1.5371250000000014">
        <ele>709.439</ele>
        <time>2022-06-19T11:03:12Z</time>
      </trkpt>
      <trkpt lat="42.581145000000035" lon="-1.5374100000000015">
        <ele>707.673</ele>
        <time>2022-06-19T11:03:14Z</time>
      </trkpt>
      <trkpt lat="42.581207000000035" lon="-1.5375530000000015">
        <ele>707.256</ele>
        <time>2022-06-19T11:03:15Z</time>
      </trkpt>
      <trkpt lat="42.58127100000004" lon="-1.5377000000000014">
        <ele>706.225</ele>
        <time>2022-06-19T11:03:16Z</time>
      </trkpt>
      <trkpt lat="42.58139200000004" lon="-1.5380080000000014">
        <ele>705.256</ele>
        <time>2022-06-19T11:03:18Z</time>
      </trkpt>
      <trkpt lat="42.581517000000034" lon="-1.5383290000000014">
        <ele>704.859</ele>
        <time>2022-06-19T11:03:20Z</time>
      </trkpt>
      <trkpt lat="42.58157900000003" lon="-1.5384910000000014">
        <ele>703.614</ele>
        <time>2022-06-19T11:03:21Z</time>
      </trkpt>
      <trkpt lat="42.58164100000003" lon="-1.5386510000000013">
        <ele>702.009</ele>
        <time>2022-06-19T11:03:22Z</time>
      </trkpt>
      <trkpt lat="42.581759000000034" lon="-1.5389650000000012">
        <ele>700.236</ele>
        <time>2022-06-19T11:03:24Z</time>
      </trkpt>
      <trkpt lat="42.581868000000036" lon="-1.5392550000000012">
        <ele>698.825</ele>
        <time>2022-06-19T11:03:26Z</time>
      </trkpt>
      <trkpt lat="42.58191200000004" lon="-1.5393950000000012">
        <ele>698.280</ele>
        <time>2022-06-19T11:03:27Z</time>
      </trkpt>
      <trkpt lat="42.58194800000004" lon="-1.5395330000000012">
        <ele>696.644</ele>
        <time>2022-06-19T11:03:28Z</time>
      </trkpt>
      <trkpt lat="42.58198300000004" lon="-1.5396590000000012">
        <ele>694.866</ele>
        <time>2022-06-19T11:03:29Z</time>
      </trkpt>
      <trkpt lat="42.58202400000004" lon="-1.5397690000000013">
        <ele>693.272</ele>
        <time>2022-06-19T11:03:30Z</time>
      </trkpt>
      <trkpt lat="42.58207400000004" lon="-1.5398710000000013">
        <ele>692.076</ele>
        <time>2022-06-19T11:03:31Z</time>
      </trkpt>
      <trkpt lat="42.58213600000004" lon="-1.5399620000000014">
        <ele>691.259</ele>
        <time>2022-06-19T11:03:32Z</time>
      </trkpt>
      <trkpt lat="42.58221000000004" lon="-1.5400290000000014">
        <ele>690.878</ele>
        <time>2022-06-19T11:03:33Z</time>
      </trkpt>
      <trkpt lat="42.58228300000004" lon="-1.5400860000000014">
        <ele>690.293</ele>
        <time>2022-06-19T11:03:34Z</time>
      </trkpt>
      <trkpt lat="42.58234400000004" lon="-1.5401570000000013">
        <ele>689.465</ele>
        <time>2022-06-19T11:03:35Z</time>
      </trkpt>
      <trkpt lat="42.58239400000004" lon="-1.5402420000000012">
        <ele>689.021</ele>
        <time>2022-06-19T11:03:36Z</time>
      </trkpt>
      <trkpt lat="42.582436000000044" lon="-1.5403320000000011">
        <ele>688.609</ele>
        <time>2022-06-19T11:03:37Z</time>
      </trkpt>
      <trkpt lat="42.58247000000004" lon="-1.5404290000000012">
        <ele>688.280</ele>
        <time>2022-06-19T11:03:38Z</time>
      </trkpt>
      <trkpt lat="42.58261700000004" lon="-1.5409370000000011">
        <ele>687.089</ele>
        <time>2022-06-19T11:03:43Z</time>
      </trkpt>
      <trkpt lat="42.58266700000004" lon="-1.5411390000000011">
        <ele>686.674</ele>
        <time>2022-06-19T11:03:45Z</time>
      </trkpt>
      <trkpt lat="42.582675000000044" lon="-1.5413460000000012">
        <ele>686.238</ele>
        <time>2022-06-19T11:03:47Z</time>
      </trkpt>
      <trkpt lat="42.582658000000045" lon="-1.5414450000000013">
        <ele>685.860</ele>
        <time>2022-06-19T11:03:48Z</time>
      </trkpt>
      <trkpt lat="42.58262000000004" lon="-1.5416290000000012">
        <ele>684.676</ele>
        <time>2022-06-19T11:03:50Z</time>
      </trkpt>
      <trkpt lat="42.58260600000004" lon="-1.5417170000000013">
        <ele>684.230</ele>
        <time>2022-06-19T11:03:51Z</time>
      </trkpt>
      <trkpt lat="42.58258600000004" lon="-1.5419820000000013">
        <ele>683.473</ele>
        <time>2022-06-19T11:03:54Z</time>
      </trkpt>
      <trkpt lat="42.58259400000004" lon="-1.5420720000000012">
        <ele>682.422</ele>
        <time>2022-06-19T11:03:55Z</time>
      </trkpt>
      <trkpt lat="42.582641000000045" lon="-1.5423390000000012">
        <ele>681.422</ele>
        <time>2022-06-19T11:03:58Z</time>
      </trkpt>
      <trkpt lat="42.582686000000045" lon="-1.5426190000000013">
        <ele>680.862</ele>
        <time>2022-06-19T11:04:01Z</time>
      </trkpt>
      <trkpt lat="42.582723000000044" lon="-1.5429100000000013">
        <ele>680.208</ele>
        <time>2022-06-19T11:04:04Z</time>
      </trkpt>
      <trkpt lat="42.58271300000004" lon="-1.5432310000000014">
        <ele>679.609</ele>
        <time>2022-06-19T11:04:07Z</time>
      </trkpt>
      <trkpt lat="42.58267700000004" lon="-1.5435540000000014">
        <ele>679.473</ele>
        <time>2022-06-19T11:04:10Z</time>
      </trkpt>
      <trkpt lat="42.58268800000004" lon="-1.5436410000000014">
        <ele>679.262</ele>
        <time>2022-06-19T11:04:11Z</time>
      </trkpt>
      <trkpt lat="42.58271800000004" lon="-1.5437100000000015">
        <ele>678.827</ele>
        <time>2022-06-19T11:04:12Z</time>
      </trkpt>
      <trkpt lat="42.582762000000045" lon="-1.5437580000000015">
        <ele>678.671</ele>
        <time>2022-06-19T11:04:13Z</time>
      </trkpt>
      <trkpt lat="42.582815000000046" lon="-1.5437720000000015">
        <ele>678.623</ele>
        <time>2022-06-19T11:04:14Z</time>
      </trkpt>
      <trkpt lat="42.582920000000044" lon="-1.5437030000000014">
        <ele>678.279</ele>
        <time>2022-06-19T11:04:16Z</time>
      </trkpt>
      <trkpt lat="42.583015000000046" lon="-1.5435530000000013">
        <ele>678.083</ele>
        <time>2022-06-19T11:04:18Z</time>
      </trkpt>
      <trkpt lat="42.583066000000045" lon="-1.5434690000000013">
        <ele>678.076</ele>
        <time>2022-06-19T11:04:19Z</time>
      </trkpt>
      <trkpt lat="42.583122000000046" lon="-1.5433840000000014">
        <ele>677.845</ele>
        <time>2022-06-19T11:04:20Z</time>
      </trkpt>
      <trkpt lat="42.583302000000046" lon="-1.5430910000000013">
        <ele>677.266</ele>
        <time>2022-06-19T11:04:23Z</time>
      </trkpt>
      <trkpt lat="42.583370000000045" lon="-1.5430000000000013">
        <ele>676.829</ele>
        <time>2022-06-19T11:04:24Z</time>
      </trkpt>
      <trkpt lat="42.58357600000004" lon="-1.5427210000000013">
        <ele>675.221</ele>
        <time>2022-06-19T11:04:27Z</time>
      </trkpt>
      <trkpt lat="42.58369200000004" lon="-1.5425230000000014">
        <ele>674.009</ele>
        <time>2022-06-19T11:04:29Z</time>
      </trkpt>
      <trkpt lat="42.58374200000004" lon="-1.5424090000000015">
        <ele>673.287</ele>
        <time>2022-06-19T11:04:30Z</time>
      </trkpt>
      <trkpt lat="42.58379000000004" lon="-1.5422910000000014">
        <ele>672.676</ele>
        <time>2022-06-19T11:04:31Z</time>
      </trkpt>
      <trkpt lat="42.58383300000004" lon="-1.5421780000000014">
        <ele>671.631</ele>
        <time>2022-06-19T11:04:32Z</time>
      </trkpt>
      <trkpt lat="42.58387800000004" lon="-1.5420680000000013">
        <ele>670.255</ele>
        <time>2022-06-19T11:04:33Z</time>
      </trkpt>
      <trkpt lat="42.58392800000004" lon="-1.5419650000000014">
        <ele>669.227</ele>
        <time>2022-06-19T11:04:34Z</time>
      </trkpt>
      <trkpt lat="42.58402500000004" lon="-1.5417580000000013">
        <ele>667.833</ele>
        <time>2022-06-19T11:04:36Z</time>
      </trkpt>
      <trkpt lat="42.58406800000004" lon="-1.5416570000000014">
        <ele>667.057</ele>
        <time>2022-06-19T11:04:37Z</time>
      </trkpt>
      <trkpt lat="42.584151000000034" lon="-1.5414610000000013">
        <ele>665.440</ele>
        <time>2022-06-19T11:04:39Z</time>
      </trkpt>
      <trkpt lat="42.584227000000034" lon="-1.5412690000000013">
        <ele>663.659</ele>
        <time>2022-06-19T11:04:41Z</time>
      </trkpt>
      <trkpt lat="42.584334000000034" lon="-1.5409910000000013">
        <ele>662.438</ele>
        <time>2022-06-19T11:04:44Z</time>
      </trkpt>
      <trkpt lat="42.58440200000003" lon="-1.5408060000000012">
        <ele>661.070</ele>
        <time>2022-06-19T11:04:46Z</time>
      </trkpt>
      <trkpt lat="42.58447300000003" lon="-1.5406330000000013">
        <ele>659.817</ele>
        <time>2022-06-19T11:04:48Z</time>
      </trkpt>
      <trkpt lat="42.58456300000003" lon="-1.5404000000000013">
        <ele>658.609</ele>
        <time>2022-06-19T11:04:51Z</time>
      </trkpt>
      <trkpt lat="42.58461400000003" lon="-1.5402700000000014">
        <ele>657.424</ele>
        <time>2022-06-19T11:04:53Z</time>
      </trkpt>
      <trkpt lat="42.58466100000003" lon="-1.5401680000000013">
        <ele>655.863</ele>
        <time>2022-06-19T11:04:55Z</time>
      </trkpt>
      <trkpt lat="42.58468700000003" lon="-1.5401330000000013">
        <ele>655.218</ele>
        <time>2022-06-19T11:04:56Z</time>
      </trkpt>
      <trkpt lat="42.58471300000003" lon="-1.5401150000000012">
        <ele>654.672</ele>
        <time>2022-06-19T11:04:57Z</time>
      </trkpt>
      <trkpt lat="42.58474000000003" lon="-1.5401020000000012">
        <ele>653.414</ele>
        <time>2022-06-19T11:04:59Z</time>
      </trkpt>
      <trkpt lat="42.58474000000003" lon="-1.5401020000000012">
        <ele>652.280</ele>
        <time>2022-06-19T11:05:01Z</time>
      </trkpt>
      <trkpt lat="42.584773000000034" lon="-1.5400970000000012">
        <ele>651.474</ele>
        <time>2022-06-19T11:06:51Z</time>
      </trkpt>
      <trkpt lat="42.584795000000035" lon="-1.540098000000001">
        <ele>651.437</ele>
        <time>2022-06-19T11:06:52Z</time>
      </trkpt>
      <trkpt lat="42.584868000000036" lon="-1.540101000000001">
        <ele>651.466</ele>
        <time>2022-06-19T11:06:55Z</time>
      </trkpt>
      <trkpt lat="42.584905000000035" lon="-1.540150000000001">
        <ele>651.275</ele>
        <time>2022-06-19T11:06:57Z</time>
      </trkpt>
      <trkpt lat="42.584908000000034" lon="-1.540357000000001">
        <ele>650.628</ele>
        <time>2022-06-19T11:07:02Z</time>
      </trkpt>
      <trkpt lat="42.58490000000003" lon="-1.540509000000001">
        <ele>650.220</ele>
        <time>2022-06-19T11:07:05Z</time>
      </trkpt>
      <trkpt lat="42.58490600000003" lon="-1.5407210000000011">
        <ele>649.409</ele>
        <time>2022-06-19T11:07:08Z</time>
      </trkpt>
      <trkpt lat="42.584911000000034" lon="-1.5407850000000012">
        <ele>649.298</ele>
        <time>2022-06-19T11:07:09Z</time>
      </trkpt>
      <trkpt lat="42.58495100000003" lon="-1.5410970000000013">
        <ele>648.427</ele>
        <time>2022-06-19T11:07:14Z</time>
      </trkpt>
      <trkpt lat="42.58499000000003" lon="-1.5413800000000013">
        <ele>648.082</ele>
        <time>2022-06-19T11:07:18Z</time>
      </trkpt>
      <trkpt lat="42.585020000000036" lon="-1.5416470000000013">
        <ele>647.826</ele>
        <time>2022-06-19T11:07:22Z</time>
      </trkpt>
      <trkpt lat="42.58502500000004" lon="-1.5417150000000013">
        <ele>647.888</ele>
        <time>2022-06-19T11:07:23Z</time>
      </trkpt>
      <trkpt lat="42.58503300000004" lon="-1.5419200000000013">
        <ele>647.884</ele>
        <time>2022-06-19T11:07:26Z</time>
      </trkpt>
      <trkpt lat="42.585023000000035" lon="-1.5421200000000013">
        <ele>647.868</ele>
        <time>2022-06-19T11:07:29Z</time>
      </trkpt>
      <trkpt lat="42.584978000000035" lon="-1.5428450000000014">
        <ele>647.861</ele>
        <time>2022-06-19T11:07:39Z</time>
      </trkpt>
      <trkpt lat="42.58491200000004" lon="-1.5433890000000015">
        <ele>647.670</ele>
        <time>2022-06-19T11:07:46Z</time>
      </trkpt>
      <trkpt lat="42.58487300000004" lon="-1.5437320000000014">
        <ele>647.092</ele>
        <time>2022-06-19T11:07:50Z</time>
      </trkpt>
      <trkpt lat="42.58483900000004" lon="-1.5439980000000015">
        <ele>646.073</ele>
        <time>2022-06-19T11:07:53Z</time>
      </trkpt>
      <trkpt lat="42.584829000000035" lon="-1.5440860000000016">
        <ele>646.020</ele>
        <time>2022-06-19T11:07:54Z</time>
      </trkpt>
      <trkpt lat="42.584733000000035" lon="-1.5447460000000017">
        <ele>644.809</ele>
        <time>2022-06-19T11:08:02Z</time>
      </trkpt>
      <trkpt lat="42.584714000000034" lon="-1.5448180000000018">
        <ele>644.870</ele>
        <time>2022-06-19T11:08:03Z</time>
      </trkpt>
      <trkpt lat="42.584590000000034" lon="-1.545157000000002">
        <ele>644.679</ele>
        <time>2022-06-19T11:08:08Z</time>
      </trkpt>
      <trkpt lat="42.584342000000035" lon="-1.5457060000000018">
        <ele>644.264</ele>
        <time>2022-06-19T11:08:16Z</time>
      </trkpt>
      <trkpt lat="42.58418000000003" lon="-1.546018000000002">
        <ele>643.688</ele>
        <time>2022-06-19T11:08:20Z</time>
      </trkpt>
      <trkpt lat="42.584086000000035" lon="-1.5461720000000019">
        <ele>643.260</ele>
        <time>2022-06-19T11:08:22Z</time>
      </trkpt>
      <trkpt lat="42.583850000000034" lon="-1.5464430000000018">
        <ele>642.476</ele>
        <time>2022-06-19T11:08:26Z</time>
      </trkpt>
      <trkpt lat="42.58371100000004" lon="-1.5465500000000019">
        <ele>641.270</ele>
        <time>2022-06-19T11:08:28Z</time>
      </trkpt>
      <trkpt lat="42.583571000000035" lon="-1.546646000000002">
        <ele>640.253</ele>
        <time>2022-06-19T11:08:30Z</time>
      </trkpt>
      <trkpt lat="42.58342800000003" lon="-1.546722000000002">
        <ele>639.652</ele>
        <time>2022-06-19T11:08:32Z</time>
      </trkpt>
      <trkpt lat="42.58335500000003" lon="-1.546743000000002">
        <ele>639.097</ele>
        <time>2022-06-19T11:08:33Z</time>
      </trkpt>
      <trkpt lat="42.58321200000003" lon="-1.546759000000002">
        <ele>637.823</ele>
        <time>2022-06-19T11:08:35Z</time>
      </trkpt>
      <trkpt lat="42.58314400000003" lon="-1.546756000000002">
        <ele>637.625</ele>
        <time>2022-06-19T11:08:36Z</time>
      </trkpt>
      <trkpt lat="42.582763000000035" lon="-1.546731000000002">
        <ele>637.009</ele>
        <time>2022-06-19T11:08:42Z</time>
      </trkpt>
      <trkpt lat="42.58270300000004" lon="-1.546743000000002">
        <ele>637.040</ele>
        <time>2022-06-19T11:08:43Z</time>
      </trkpt>
      <trkpt lat="42.582642000000035" lon="-1.546766000000002">
        <ele>637.039</ele>
        <time>2022-06-19T11:08:44Z</time>
      </trkpt>
      <trkpt lat="42.58240200000004" lon="-1.5468760000000021">
        <ele>636.894</ele>
        <time>2022-06-19T11:08:48Z</time>
      </trkpt>
      <trkpt lat="42.582341000000035" lon="-1.5469060000000021">
        <ele>636.688</ele>
        <time>2022-06-19T11:08:49Z</time>
      </trkpt>
      <trkpt lat="42.58198500000004" lon="-1.5470840000000021">
        <ele>635.460</ele>
        <time>2022-06-19T11:08:55Z</time>
      </trkpt>
      <trkpt lat="42.581930000000035" lon="-1.5471190000000021">
        <ele>634.816</ele>
        <time>2022-06-19T11:08:56Z</time>
      </trkpt>
      <trkpt lat="42.58187800000004" lon="-1.5471610000000022">
        <ele>634.460</ele>
        <time>2022-06-19T11:08:57Z</time>
      </trkpt>
      <trkpt lat="42.581668000000036" lon="-1.5473610000000022">
        <ele>633.223</ele>
        <time>2022-06-19T11:09:01Z</time>
      </trkpt>
      <trkpt lat="42.58161300000003" lon="-1.5474090000000023">
        <ele>633.282</ele>
        <time>2022-06-19T11:09:02Z</time>
      </trkpt>
      <trkpt lat="42.58126700000003" lon="-1.5478010000000022">
        <ele>632.858</ele>
        <time>2022-06-19T11:09:09Z</time>
      </trkpt>
      <trkpt lat="42.58101500000003" lon="-1.5480920000000022">
        <ele>632.852</ele>
        <time>2022-06-19T11:09:14Z</time>
      </trkpt>
      <trkpt lat="42.58090500000003" lon="-1.5481880000000023">
        <ele>632.817</ele>
        <time>2022-06-19T11:09:16Z</time>
      </trkpt>
      <trkpt lat="42.58042600000003" lon="-1.5485820000000023">
        <ele>632.209</ele>
        <time>2022-06-19T11:09:25Z</time>
      </trkpt>
      <trkpt lat="42.58037100000003" lon="-1.5486290000000023">
        <ele>632.026</ele>
        <time>2022-06-19T11:09:26Z</time>
      </trkpt>
      <trkpt lat="42.58009000000003" lon="-1.5488580000000023">
        <ele>631.085</ele>
        <time>2022-06-19T11:09:31Z</time>
      </trkpt>
      <trkpt lat="42.579970000000024" lon="-1.5489600000000023">
        <ele>630.620</ele>
        <time>2022-06-19T11:09:33Z</time>
      </trkpt>
      <trkpt lat="42.579837000000026" lon="-1.5490650000000024">
        <ele>629.874</ele>
        <time>2022-06-19T11:09:35Z</time>
      </trkpt>
      <trkpt lat="42.57967900000003" lon="-1.5491910000000024">
        <ele>628.626</ele>
        <time>2022-06-19T11:09:38Z</time>
      </trkpt>
      <trkpt lat="42.579612000000026" lon="-1.5492490000000023">
        <ele>628.282</ele>
        <time>2022-06-19T11:09:39Z</time>
      </trkpt>
      <trkpt lat="42.57949300000003" lon="-1.5493420000000022">
        <ele>627.266</ele>
        <time>2022-06-19T11:09:41Z</time>
      </trkpt>
      <trkpt lat="42.579443000000026" lon="-1.5493800000000022">
        <ele>626.299</ele>
        <time>2022-06-19T11:09:42Z</time>
      </trkpt>
      <trkpt lat="42.579367000000026" lon="-1.5494360000000023">
        <ele>625.628</ele>
        <time>2022-06-19T11:09:43Z</time>
      </trkpt>
      <trkpt lat="42.57913300000003" lon="-1.5496070000000022">
        <ele>624.612</ele>
        <time>2022-06-19T11:09:47Z</time>
      </trkpt>
      <trkpt lat="42.578822000000024" lon="-1.5498300000000023">
        <ele>624.032</ele>
        <time>2022-06-19T11:09:52Z</time>
      </trkpt>
      <trkpt lat="42.57850800000002" lon="-1.5500590000000023">
        <ele>623.605</ele>
        <time>2022-06-19T11:09:57Z</time>
      </trkpt>
      <trkpt lat="42.57813100000002" lon="-1.5503270000000022">
        <ele>622.809</ele>
        <time>2022-06-19T11:10:03Z</time>
      </trkpt>
      <trkpt lat="42.57799900000002" lon="-1.5504180000000023">
        <ele>622.472</ele>
        <time>2022-06-19T11:10:05Z</time>
      </trkpt>
      <trkpt lat="42.57762400000002" lon="-1.5506890000000022">
        <ele>621.481</ele>
        <time>2022-06-19T11:10:12Z</time>
      </trkpt>
      <trkpt lat="42.57751500000002" lon="-1.5507630000000021">
        <ele>621.226</ele>
        <time>2022-06-19T11:10:14Z</time>
      </trkpt>
      <trkpt lat="42.57721900000002" lon="-1.5509270000000022">
        <ele>621.220</ele>
        <time>2022-06-19T11:10:19Z</time>
      </trkpt>
      <trkpt lat="42.57665300000002" lon="-1.5511470000000023">
        <ele>620.272</ele>
        <time>2022-06-19T11:10:28Z</time>
      </trkpt>
      <trkpt lat="42.57648400000002" lon="-1.5512030000000023">
        <ele>618.648</ele>
        <time>2022-06-19T11:10:31Z</time>
      </trkpt>
      <trkpt lat="42.57634900000002" lon="-1.5512500000000022">
        <ele>617.282</ele>
        <time>2022-06-19T11:10:33Z</time>
      </trkpt>
      <trkpt lat="42.57618300000002" lon="-1.5513010000000023">
        <ele>616.695</ele>
        <time>2022-06-19T11:10:36Z</time>
      </trkpt>
      <trkpt lat="42.57601400000002" lon="-1.5513530000000022">
        <ele>616.274</ele>
        <time>2022-06-19T11:10:39Z</time>
      </trkpt>
      <trkpt lat="42.57581200000002" lon="-1.5514200000000022">
        <ele>615.837</ele>
        <time>2022-06-19T11:10:43Z</time>
      </trkpt>
      <trkpt lat="42.57546300000002" lon="-1.5515490000000023">
        <ele>615.649</ele>
        <time>2022-06-19T11:10:50Z</time>
      </trkpt>
      <trkpt lat="42.57526500000002" lon="-1.5516930000000022">
        <ele>615.213</ele>
        <time>2022-06-19T11:10:54Z</time>
      </trkpt>
      <trkpt lat="42.575185000000026" lon="-1.5517760000000023">
        <ele>614.809</ele>
        <time>2022-06-19T11:10:56Z</time>
      </trkpt>
      <trkpt lat="42.574915000000026" lon="-1.5521540000000023">
        <ele>614.854</ele>
        <time>2022-06-19T11:11:03Z</time>
      </trkpt>
      <trkpt lat="42.57472300000003" lon="-1.5524540000000022">
        <ele>614.023</ele>
        <time>2022-06-19T11:11:08Z</time>
      </trkpt>
      <trkpt lat="42.57455600000003" lon="-1.5527020000000022">
        <ele>613.418</ele>
        <time>2022-06-19T11:11:12Z</time>
      </trkpt>
      <trkpt lat="42.57447900000003" lon="-1.5528250000000023">
        <ele>612.882</ele>
        <time>2022-06-19T11:11:14Z</time>
      </trkpt>
      <trkpt lat="42.57428600000003" lon="-1.5531290000000024">
        <ele>611.664</ele>
        <time>2022-06-19T11:11:18Z</time>
      </trkpt>
      <trkpt lat="42.57404000000003" lon="-1.5535000000000023">
        <ele>610.660</ele>
        <time>2022-06-19T11:11:23Z</time>
      </trkpt>
      <trkpt lat="42.57390200000003" lon="-1.5537080000000023">
        <ele>610.234</ele>
        <time>2022-06-19T11:11:26Z</time>
      </trkpt>
      <trkpt lat="42.573715000000036" lon="-1.5539930000000024">
        <ele>609.437</ele>
        <time>2022-06-19T11:11:30Z</time>
      </trkpt>
      <trkpt lat="42.573580000000035" lon="-1.5542080000000025">
        <ele>608.236</ele>
        <time>2022-06-19T11:11:33Z</time>
      </trkpt>
      <trkpt lat="42.57354500000004" lon="-1.5542610000000026">
        <ele>608.087</ele>
        <time>2022-06-19T11:11:34Z</time>
      </trkpt>
      <trkpt lat="42.57341300000004" lon="-1.5544790000000026">
        <ele>608.042</ele>
        <time>2022-06-19T11:11:37Z</time>
      </trkpt>
      <trkpt lat="42.57338800000004" lon="-1.5545590000000027">
        <ele>608.026</ele>
        <time>2022-06-19T11:11:38Z</time>
      </trkpt>
      <trkpt lat="42.573378000000034" lon="-1.5546320000000027">
        <ele>608.009</ele>
        <time>2022-06-19T11:11:39Z</time>
      </trkpt>
      <trkpt lat="42.573392000000034" lon="-1.5548160000000026">
        <ele>607.869</ele>
        <time>2022-06-19T11:11:41Z</time>
      </trkpt>
      <trkpt lat="42.57350300000003" lon="-1.5551890000000026">
        <ele>607.858</ele>
        <time>2022-06-19T11:11:45Z</time>
      </trkpt>
      <trkpt lat="42.57373900000003" lon="-1.5558590000000025">
        <ele>607.833</ele>
        <time>2022-06-19T11:11:52Z</time>
      </trkpt>
      <trkpt lat="42.57377600000003" lon="-1.5559720000000026">
        <ele>607.097</ele>
        <time>2022-06-19T11:11:53Z</time>
      </trkpt>
      <trkpt lat="42.57385500000003" lon="-1.5562320000000025">
        <ele>606.049</ele>
        <time>2022-06-19T11:11:56Z</time>
      </trkpt>
      <trkpt lat="42.57394200000003" lon="-1.5566000000000024">
        <ele>605.445</ele>
        <time>2022-06-19T11:12:00Z</time>
      </trkpt>
      <trkpt lat="42.57396100000003" lon="-1.5568140000000024">
        <ele>605.259</ele>
        <time>2022-06-19T11:12:02Z</time>
      </trkpt>
      <trkpt lat="42.57395800000003" lon="-1.5569160000000024">
        <ele>605.042</ele>
        <time>2022-06-19T11:12:03Z</time>
      </trkpt>
      <trkpt lat="42.573952000000034" lon="-1.5569980000000023">
        <ele>604.821</ele>
        <time>2022-06-19T11:12:04Z</time>
      </trkpt>
      <trkpt lat="42.573890000000034" lon="-1.5576450000000024">
        <ele>604.022</ele>
        <time>2022-06-19T11:12:10Z</time>
      </trkpt>
      <trkpt lat="42.573879000000034" lon="-1.5577570000000023">
        <ele>603.662</ele>
        <time>2022-06-19T11:12:11Z</time>
      </trkpt>
      <trkpt lat="42.57383500000003" lon="-1.5582130000000023">
        <ele>602.408</ele>
        <time>2022-06-19T11:12:15Z</time>
      </trkpt>
      <trkpt lat="42.57379000000003" lon="-1.5586930000000023">
        <ele>601.009</ele>
        <time>2022-06-19T11:12:19Z</time>
      </trkpt>
      <trkpt lat="42.57375100000003" lon="-1.5590320000000024">
        <ele>599.883</ele>
        <time>2022-06-19T11:12:22Z</time>
      </trkpt>
      <trkpt lat="42.57368200000003" lon="-1.5594840000000023">
        <ele>599.262</ele>
        <time>2022-06-19T11:12:26Z</time>
      </trkpt>
      <trkpt lat="42.57365000000003" lon="-1.5595900000000023">
        <ele>599.087</ele>
        <time>2022-06-19T11:12:27Z</time>
      </trkpt>
      <trkpt lat="42.57352600000003" lon="-1.5598700000000023">
        <ele>599.011</ele>
        <time>2022-06-19T11:12:30Z</time>
      </trkpt>
      <trkpt lat="42.57347000000003" lon="-1.5599610000000024">
        <ele>598.883</ele>
        <time>2022-06-19T11:12:31Z</time>
      </trkpt>
      <trkpt lat="42.57321000000003" lon="-1.5602740000000024">
        <ele>598.819</ele>
        <time>2022-06-19T11:12:35Z</time>
      </trkpt>
      <trkpt lat="42.57313800000003" lon="-1.5603510000000025">
        <ele>598.633</ele>
        <time>2022-06-19T11:12:36Z</time>
      </trkpt>
      <trkpt lat="42.57293300000003" lon="-1.5605980000000026">
        <ele>597.446</ele>
        <time>2022-06-19T11:12:39Z</time>
      </trkpt>
      <trkpt lat="42.57281400000003" lon="-1.5607840000000026">
        <ele>596.235</ele>
        <time>2022-06-19T11:12:41Z</time>
      </trkpt>
      <trkpt lat="42.572759000000026" lon="-1.5608790000000026">
        <ele>595.228</ele>
        <time>2022-06-19T11:12:42Z</time>
      </trkpt>
      <trkpt lat="42.57270400000002" lon="-1.5609780000000026">
        <ele>594.289</ele>
        <time>2022-06-19T11:12:43Z</time>
      </trkpt>
      <trkpt lat="42.57259800000002" lon="-1.5611620000000026">
        <ele>592.417</ele>
        <time>2022-06-19T11:12:45Z</time>
      </trkpt>
      <trkpt lat="42.572439000000024" lon="-1.5614450000000026">
        <ele>591.209</ele>
        <time>2022-06-19T11:12:48Z</time>
      </trkpt>
      <trkpt lat="42.57240400000003" lon="-1.5615480000000026">
        <ele>590.873</ele>
        <time>2022-06-19T11:12:49Z</time>
      </trkpt>
      <trkpt lat="42.57238700000003" lon="-1.5616550000000027">
        <ele>590.642</ele>
        <time>2022-06-19T11:12:50Z</time>
      </trkpt>
      <trkpt lat="42.57238700000003" lon="-1.5617660000000027">
        <ele>590.427</ele>
        <time>2022-06-19T11:12:51Z</time>
      </trkpt>
      <trkpt lat="42.572396000000026" lon="-1.5618760000000027">
        <ele>590.241</ele>
        <time>2022-06-19T11:12:52Z</time>
      </trkpt>
      <trkpt lat="42.57241200000003" lon="-1.5619850000000026">
        <ele>590.053</ele>
        <time>2022-06-19T11:12:53Z</time>
      </trkpt>
      <trkpt lat="42.57246200000003" lon="-1.5621940000000025">
        <ele>590.069</ele>
        <time>2022-06-19T11:12:55Z</time>
      </trkpt>
      <trkpt lat="42.57249500000003" lon="-1.5622950000000024">
        <ele>590.013</ele>
        <time>2022-06-19T11:12:56Z</time>
      </trkpt>
      <trkpt lat="42.57274300000003" lon="-1.5629970000000024">
        <ele>590.086</ele>
        <time>2022-06-19T11:13:03Z</time>
      </trkpt>
      <trkpt lat="42.572812000000035" lon="-1.5631950000000023">
        <ele>589.825</ele>
        <time>2022-06-19T11:13:05Z</time>
      </trkpt>
      <trkpt lat="42.57290900000003" lon="-1.5636040000000024">
        <ele>589.813</ele>
        <time>2022-06-19T11:13:09Z</time>
      </trkpt>
      <trkpt lat="42.57292100000003" lon="-1.5637090000000025">
        <ele>589.843</ele>
        <time>2022-06-19T11:13:10Z</time>
      </trkpt>
      <trkpt lat="42.57290900000003" lon="-1.5642990000000025">
        <ele>589.407</ele>
        <time>2022-06-19T11:13:15Z</time>
      </trkpt>
      <trkpt lat="42.57289000000003" lon="-1.5646460000000026">
        <ele>588.609</ele>
        <time>2022-06-19T11:13:18Z</time>
      </trkpt>
      <trkpt lat="42.57288400000003" lon="-1.5647600000000026">
        <ele>587.622</ele>
        <time>2022-06-19T11:13:19Z</time>
      </trkpt>
      <trkpt lat="42.57287400000003" lon="-1.5649650000000026">
        <ele>585.871</ele>
        <time>2022-06-19T11:13:21Z</time>
      </trkpt>
      <trkpt lat="42.572850000000024" lon="-1.5653340000000027">
        <ele>584.246</ele>
        <time>2022-06-19T11:13:24Z</time>
      </trkpt>
      <trkpt lat="42.572838000000026" lon="-1.5655560000000026">
        <ele>583.410</ele>
        <time>2022-06-19T11:13:26Z</time>
      </trkpt>
      <trkpt lat="42.572833000000024" lon="-1.5656430000000026">
        <ele>583.262</ele>
        <time>2022-06-19T11:13:27Z</time>
      </trkpt>
      <trkpt lat="42.57278900000002" lon="-1.5663310000000026">
        <ele>581.058</ele>
        <time>2022-06-19T11:13:33Z</time>
      </trkpt>
      <trkpt lat="42.57277700000002" lon="-1.5665460000000027">
        <ele>580.042</ele>
        <time>2022-06-19T11:13:35Z</time>
      </trkpt>
      <trkpt lat="42.572774000000024" lon="-1.5666320000000027">
        <ele>579.885</ele>
        <time>2022-06-19T11:13:36Z</time>
      </trkpt>
      <trkpt lat="42.57275200000002" lon="-1.5670350000000026">
        <ele>578.814</ele>
        <time>2022-06-19T11:13:40Z</time>
      </trkpt>
      <trkpt lat="42.57273000000002" lon="-1.5672220000000026">
        <ele>578.449</ele>
        <time>2022-06-19T11:13:42Z</time>
      </trkpt>
      <trkpt lat="42.57260300000002" lon="-1.5676050000000026">
        <ele>578.202</ele>
        <time>2022-06-19T11:13:47Z</time>
      </trkpt>
      <trkpt lat="42.57241700000002" lon="-1.5680440000000027">
        <ele>578.222</ele>
        <time>2022-06-19T11:13:54Z</time>
      </trkpt>
      <trkpt lat="42.572213000000026" lon="-1.5685140000000026">
        <ele>579.209</ele>
        <time>2022-06-19T11:14:02Z</time>
      </trkpt>
      <trkpt lat="42.572188000000025" lon="-1.5685710000000026">
        <ele>579.275</ele>
        <time>2022-06-19T11:14:03Z</time>
      </trkpt>
      <trkpt lat="42.57196200000003" lon="-1.5690980000000025">
        <ele>579.454</ele>
        <time>2022-06-19T11:14:12Z</time>
      </trkpt>
      <trkpt lat="42.571817000000024" lon="-1.5695520000000025">
        <ele>579.239</ele>
        <time>2022-06-19T11:14:19Z</time>
      </trkpt>
      <trkpt lat="42.571730000000024" lon="-1.5700930000000024">
        <ele>578.063</ele>
        <time>2022-06-19T11:14:26Z</time>
      </trkpt>
      <trkpt lat="42.571721000000025" lon="-1.5701780000000023">
        <ele>578.055</ele>
        <time>2022-06-19T11:14:27Z</time>
      </trkpt>
      <trkpt lat="42.571690000000025" lon="-1.5704530000000023">
        <ele>577.281</ele>
        <time>2022-06-19T11:14:30Z</time>
      </trkpt>
      <trkpt lat="42.571684000000026" lon="-1.5705230000000023">
        <ele>577.045</ele>
        <time>2022-06-19T11:14:31Z</time>
      </trkpt>
      <trkpt lat="42.57165800000003" lon="-1.5707870000000024">
        <ele>576.218</ele>
        <time>2022-06-19T11:14:34Z</time>
      </trkpt>
      <trkpt lat="42.57165200000003" lon="-1.5708810000000024">
        <ele>575.867</ele>
        <time>2022-06-19T11:14:35Z</time>
      </trkpt>
      <trkpt lat="42.57165200000003" lon="-1.5709730000000024">
        <ele>575.414</ele>
        <time>2022-06-19T11:14:36Z</time>
      </trkpt>
      <trkpt lat="42.57167500000003" lon="-1.5711610000000025">
        <ele>575.054</ele>
        <time>2022-06-19T11:14:38Z</time>
      </trkpt>
      <trkpt lat="42.57169700000003" lon="-1.5712530000000025">
        <ele>574.809</ele>
        <time>2022-06-19T11:14:39Z</time>
      </trkpt>
      <trkpt lat="42.57172600000003" lon="-1.5713410000000025">
        <ele>574.609</ele>
        <time>2022-06-19T11:14:40Z</time>
      </trkpt>
      <trkpt lat="42.571842000000025" lon="-1.5715770000000024">
        <ele>574.242</ele>
        <time>2022-06-19T11:14:43Z</time>
      </trkpt>
      <trkpt lat="42.57196400000002" lon="-1.5718010000000024">
        <ele>574.011</ele>
        <time>2022-06-19T11:14:46Z</time>
      </trkpt>
      <trkpt lat="42.572003000000024" lon="-1.5719750000000023">
        <ele>573.856</ele>
        <time>2022-06-19T11:14:48Z</time>
      </trkpt>
      <trkpt lat="42.57199300000002" lon="-1.5721580000000024">
        <ele>573.640</ele>
        <time>2022-06-19T11:14:50Z</time>
      </trkpt>
      <trkpt lat="42.57197600000002" lon="-1.5722450000000023">
        <ele>573.672</ele>
        <time>2022-06-19T11:14:51Z</time>
      </trkpt>
      <trkpt lat="42.57194900000002" lon="-1.5723230000000024">
        <ele>573.668</ele>
        <time>2022-06-19T11:14:52Z</time>
      </trkpt>
      <trkpt lat="42.57183100000002" lon="-1.5725230000000023">
        <ele>573.062</ele>
        <time>2022-06-19T11:14:55Z</time>
      </trkpt>
      <trkpt lat="42.571691000000015" lon="-1.5727100000000023">
        <ele>572.635</ele>
        <time>2022-06-19T11:14:58Z</time>
      </trkpt>
      <trkpt lat="42.57143400000002" lon="-1.5730190000000022">
        <ele>571.854</ele>
        <time>2022-06-19T11:15:03Z</time>
      </trkpt>
      <trkpt lat="42.571331000000015" lon="-1.5731450000000022">
        <ele>571.486</ele>
        <time>2022-06-19T11:15:05Z</time>
      </trkpt>
      <trkpt lat="42.571030000000015" lon="-1.5735110000000023">
        <ele>570.460</ele>
        <time>2022-06-19T11:15:11Z</time>
      </trkpt>
      <trkpt lat="42.57093600000002" lon="-1.5736240000000024">
        <ele>570.426</ele>
        <time>2022-06-19T11:15:13Z</time>
      </trkpt>
      <trkpt lat="42.57079700000002" lon="-1.5737830000000024">
        <ele>570.209</ele>
        <time>2022-06-19T11:15:16Z</time>
      </trkpt>
      <trkpt lat="42.57072000000002" lon="-1.5738870000000025">
        <ele>570.049</ele>
        <time>2022-06-19T11:15:18Z</time>
      </trkpt>
      <trkpt lat="42.570578000000026" lon="-1.5740930000000024">
        <ele>569.658</ele>
        <time>2022-06-19T11:15:22Z</time>
      </trkpt>
      <trkpt lat="42.570522000000025" lon="-1.5742090000000024">
        <ele>569.443</ele>
        <time>2022-06-19T11:15:24Z</time>
      </trkpt>
      <trkpt lat="42.570432000000025" lon="-1.5746300000000024">
        <ele>569.437</ele>
        <time>2022-06-19T11:15:30Z</time>
      </trkpt>
      <trkpt lat="42.570463000000025" lon="-1.5750050000000024">
        <ele>569.259</ele>
        <time>2022-06-19T11:15:34Z</time>
      </trkpt>
      <trkpt lat="42.570598000000025" lon="-1.5756440000000025">
        <ele>569.215</ele>
        <time>2022-06-19T11:15:40Z</time>
      </trkpt>
      <trkpt lat="42.57066400000002" lon="-1.5759710000000025">
        <ele>568.429</ele>
        <time>2022-06-19T11:15:43Z</time>
      </trkpt>
      <trkpt lat="42.57074300000002" lon="-1.5763690000000024">
        <ele>567.622</ele>
        <time>2022-06-19T11:15:47Z</time>
      </trkpt>
      <trkpt lat="42.57076300000002" lon="-1.5764590000000023">
        <ele>567.411</ele>
        <time>2022-06-19T11:15:48Z</time>
      </trkpt>
      <trkpt lat="42.57083300000002" lon="-1.5769120000000023">
        <ele>566.452</ele>
        <time>2022-06-19T11:15:53Z</time>
      </trkpt>
      <trkpt lat="42.57085100000002" lon="-1.5770120000000023">
        <ele>566.253</ele>
        <time>2022-06-19T11:15:54Z</time>
      </trkpt>
      <trkpt lat="42.57097200000002" lon="-1.5775280000000023">
        <ele>565.808</ele>
        <time>2022-06-19T11:15:59Z</time>
      </trkpt>
      <trkpt lat="42.57106300000002" lon="-1.5778450000000022">
        <ele>565.209</ele>
        <time>2022-06-19T11:16:02Z</time>
      </trkpt>
      <trkpt lat="42.571207000000015" lon="-1.578432000000002">
        <ele>564.066</ele>
        <time>2022-06-19T11:16:07Z</time>
      </trkpt>
      <trkpt lat="42.571221000000016" lon="-1.5787010000000021">
        <ele>563.475</ele>
        <time>2022-06-19T11:16:09Z</time>
      </trkpt>
      <trkpt lat="42.57120000000002" lon="-1.5788630000000021">
        <ele>562.650</ele>
        <time>2022-06-19T11:16:10Z</time>
      </trkpt>
      <trkpt lat="42.57116000000002" lon="-1.5789940000000022">
        <ele>562.054</ele>
        <time>2022-06-19T11:16:11Z</time>
      </trkpt>
      <trkpt lat="42.57111300000002" lon="-1.5791200000000023">
        <ele>561.256</ele>
        <time>2022-06-19T11:16:12Z</time>
      </trkpt>
      <trkpt lat="42.57102600000002" lon="-1.5793740000000023">
        <ele>560.232</ele>
        <time>2022-06-19T11:16:14Z</time>
      </trkpt>
      <trkpt lat="42.57095600000002" lon="-1.5795980000000023">
        <ele>558.846</ele>
        <time>2022-06-19T11:16:16Z</time>
      </trkpt>
      <trkpt lat="42.57087700000002" lon="-1.5798570000000023">
        <ele>557.439</ele>
        <time>2022-06-19T11:16:18Z</time>
      </trkpt>
      <trkpt lat="42.57081500000002" lon="-1.5800610000000024">
        <ele>556.048</ele>
        <time>2022-06-19T11:16:20Z</time>
      </trkpt>
      <trkpt lat="42.57077500000002" lon="-1.5801960000000024">
        <ele>555.689</ele>
        <time>2022-06-19T11:16:21Z</time>
      </trkpt>
      <trkpt lat="42.57058300000002" lon="-1.5808370000000023">
        <ele>554.806</ele>
        <time>2022-06-19T11:16:27Z</time>
      </trkpt>
      <trkpt lat="42.57054300000002" lon="-1.5809360000000023">
        <ele>554.626</ele>
        <time>2022-06-19T11:16:28Z</time>
      </trkpt>
      <trkpt lat="42.57031000000002" lon="-1.5814570000000023">
        <ele>554.009</ele>
        <time>2022-06-19T11:16:34Z</time>
      </trkpt>
      <trkpt lat="42.57020500000002" lon="-1.5816670000000024">
        <ele>553.669</ele>
        <time>2022-06-19T11:16:37Z</time>
      </trkpt>
      <trkpt lat="42.57013300000002" lon="-1.5817900000000025">
        <ele>553.238</ele>
        <time>2022-06-19T11:16:39Z</time>
      </trkpt>
      <trkpt lat="42.57009400000002" lon="-1.5818440000000025">
        <ele>553.063</ele>
        <time>2022-06-19T11:16:40Z</time>
      </trkpt>
      <trkpt lat="42.570050000000016" lon="-1.5818930000000024">
        <ele>553.077</ele>
        <time>2022-06-19T11:16:41Z</time>
      </trkpt>
      <trkpt lat="42.56984700000002" lon="-1.5820620000000025">
        <ele>552.669</ele>
        <time>2022-06-19T11:16:45Z</time>
      </trkpt>
      <trkpt lat="42.56951500000002" lon="-1.5823020000000025">
        <ele>552.465</ele>
        <time>2022-06-19T11:16:51Z</time>
      </trkpt>
      <trkpt lat="42.56941300000002" lon="-1.5824040000000026">
        <ele>552.269</ele>
        <time>2022-06-19T11:16:53Z</time>
      </trkpt>
      <trkpt lat="42.569234000000016" lon="-1.5826310000000026">
        <ele>551.822</ele>
        <time>2022-06-19T11:16:57Z</time>
      </trkpt>
      <trkpt lat="42.56912900000002" lon="-1.5828130000000025">
        <ele>551.681</ele>
        <time>2022-06-19T11:17:00Z</time>
      </trkpt>
      <trkpt lat="42.56901400000002" lon="-1.5831210000000024">
        <ele>550.682</ele>
        <time>2022-06-19T11:17:05Z</time>
      </trkpt>
      <trkpt lat="42.56886100000002" lon="-1.5837580000000024">
        <ele>549.643</ele>
        <time>2022-06-19T11:17:14Z</time>
      </trkpt>
      <trkpt lat="42.56882100000002" lon="-1.5839780000000026">
        <ele>549.217</ele>
        <time>2022-06-19T11:17:17Z</time>
      </trkpt>
      <trkpt lat="42.56878500000002" lon="-1.5842540000000025">
        <ele>548.409</ele>
        <time>2022-06-19T11:17:21Z</time>
      </trkpt>
      <trkpt lat="42.56877100000002" lon="-1.5844510000000025">
        <ele>547.069</ele>
        <time>2022-06-19T11:17:24Z</time>
      </trkpt>
      <trkpt lat="42.56876300000002" lon="-1.5845850000000026">
        <ele>546.448</ele>
        <time>2022-06-19T11:17:26Z</time>
      </trkpt>
      <trkpt lat="42.56877700000002" lon="-1.5848730000000026">
        <ele>546.453</ele>
        <time>2022-06-19T11:17:30Z</time>
      </trkpt>
      <trkpt lat="42.56879600000002" lon="-1.5850190000000026">
        <ele>546.417</ele>
        <time>2022-06-19T11:17:32Z</time>
      </trkpt>
      <trkpt lat="42.56891900000002" lon="-1.5854570000000026">
        <ele>546.859</ele>
        <time>2022-06-19T11:17:38Z</time>
      </trkpt>
      <trkpt lat="42.56907100000002" lon="-1.5859960000000026">
        <ele>547.255</ele>
        <time>2022-06-19T11:17:45Z</time>
      </trkpt>
      <trkpt lat="42.56919500000002" lon="-1.5866330000000026">
        <ele>547.249</ele>
        <time>2022-06-19T11:17:53Z</time>
      </trkpt>
      <trkpt lat="42.56930800000002" lon="-1.5873760000000026">
        <ele>547.282</ele>
        <time>2022-06-19T11:18:02Z</time>
      </trkpt>
      <trkpt lat="42.56932100000002" lon="-1.5874620000000026">
        <ele>547.271</ele>
        <time>2022-06-19T11:18:03Z</time>
      </trkpt>
      <trkpt lat="42.569385000000025" lon="-1.5881900000000027">
        <ele>546.258</ele>
        <time>2022-06-19T11:18:11Z</time>
      </trkpt>
      <trkpt lat="42.569385000000025" lon="-1.5882880000000026">
        <ele>546.052</ele>
        <time>2022-06-19T11:18:12Z</time>
      </trkpt>
      <trkpt lat="42.56940000000002" lon="-1.5890120000000025">
        <ele>545.017</ele>
        <time>2022-06-19T11:18:20Z</time>
      </trkpt>
      <trkpt lat="42.569413000000026" lon="-1.5893410000000026">
        <ele>544.009</ele>
        <time>2022-06-19T11:18:24Z</time>
      </trkpt>
      <trkpt lat="42.56941800000003" lon="-1.5896470000000025">
        <ele>543.446</ele>
        <time>2022-06-19T11:18:28Z</time>
      </trkpt>
      <trkpt lat="42.56942600000003" lon="-1.5898180000000024">
        <ele>542.885</ele>
        <time>2022-06-19T11:18:30Z</time>
      </trkpt>
      <trkpt lat="42.56944600000003" lon="-1.5900320000000023">
        <ele>542.450</ele>
        <time>2022-06-19T11:18:33Z</time>
      </trkpt>
      <trkpt lat="42.56949100000003" lon="-1.5901940000000023">
        <ele>542.044</ele>
        <time>2022-06-19T11:18:35Z</time>
      </trkpt>
      <trkpt lat="42.56973200000003" lon="-1.5907140000000024">
        <ele>542.076</ele>
        <time>2022-06-19T11:18:43Z</time>
      </trkpt>
      <trkpt lat="42.56997200000003" lon="-1.5912150000000025">
        <ele>542.242</ele>
        <time>2022-06-19T11:18:50Z</time>
      </trkpt>
      <trkpt lat="42.57007100000003" lon="-1.5913680000000026">
        <ele>542.466</ele>
        <time>2022-06-19T11:18:52Z</time>
      </trkpt>
      <trkpt lat="42.57040000000003" lon="-1.5918080000000026">
        <ele>542.249</ele>
        <time>2022-06-19T11:18:59Z</time>
      </trkpt>
      <trkpt lat="42.570522000000025" lon="-1.5920410000000025">
        <ele>541.818</ele>
        <time>2022-06-19T11:19:02Z</time>
      </trkpt>
      <trkpt lat="42.57061400000003" lon="-1.5922820000000024">
        <ele>540.835</ele>
        <time>2022-06-19T11:19:05Z</time>
      </trkpt>
      <trkpt lat="42.57063900000003" lon="-1.5923680000000024">
        <ele>540.486</ele>
        <time>2022-06-19T11:19:06Z</time>
      </trkpt>
      <trkpt lat="42.57070800000003" lon="-1.5927480000000025">
        <ele>539.814</ele>
        <time>2022-06-19T11:19:10Z</time>
      </trkpt>
      <trkpt lat="42.570738000000034" lon="-1.5930350000000024">
        <ele>539.409</ele>
        <time>2022-06-19T11:19:13Z</time>
      </trkpt>
      <trkpt lat="42.57076700000003" lon="-1.5934960000000025">
        <ele>538.864</ele>
        <time>2022-06-19T11:19:17Z</time>
      </trkpt>
      <trkpt lat="42.57077000000003" lon="-1.5936130000000024">
        <ele>538.233</ele>
        <time>2022-06-19T11:19:18Z</time>
      </trkpt>
      <trkpt lat="42.57076500000003" lon="-1.5940830000000024">
        <ele>537.068</ele>
        <time>2022-06-19T11:19:22Z</time>
      </trkpt>
      <trkpt lat="42.57075100000003" lon="-1.5944370000000023">
        <ele>536.892</ele>
        <time>2022-06-19T11:19:25Z</time>
      </trkpt>
      <trkpt lat="42.57071500000003" lon="-1.5949450000000023">
        <ele>536.234</ele>
        <time>2022-06-19T11:19:29Z</time>
      </trkpt>
      <trkpt lat="42.57072400000003" lon="-1.5950770000000023">
        <ele>535.870</ele>
        <time>2022-06-19T11:19:30Z</time>
      </trkpt>
      <trkpt lat="42.570792000000026" lon="-1.5954720000000022">
        <ele>535.474</ele>
        <time>2022-06-19T11:19:33Z</time>
      </trkpt>
      <trkpt lat="42.570801000000024" lon="-1.5956090000000023">
        <ele>535.257</ele>
        <time>2022-06-19T11:19:34Z</time>
      </trkpt>
      <trkpt lat="42.57080700000002" lon="-1.5960100000000024">
        <ele>534.616</ele>
        <time>2022-06-19T11:19:37Z</time>
      </trkpt>
      <trkpt lat="42.570843000000025" lon="-1.5963900000000024">
        <ele>533.636</ele>
        <time>2022-06-19T11:19:40Z</time>
      </trkpt>
      <trkpt lat="42.57085600000003" lon="-1.5965170000000024">
        <ele>533.417</ele>
        <time>2022-06-19T11:19:41Z</time>
      </trkpt>
      <trkpt lat="42.57088000000003" lon="-1.5967720000000023">
        <ele>532.418</ele>
        <time>2022-06-19T11:19:43Z</time>
      </trkpt>
      <trkpt lat="42.570890000000034" lon="-1.5970160000000022">
        <ele>531.209</ele>
        <time>2022-06-19T11:19:45Z</time>
      </trkpt>
      <trkpt lat="42.57088900000004" lon="-1.5972580000000023">
        <ele>530.854</ele>
        <time>2022-06-19T11:19:47Z</time>
      </trkpt>
      <trkpt lat="42.570873000000034" lon="-1.5980140000000023">
        <ele>530.693</ele>
        <time>2022-06-19T11:19:53Z</time>
      </trkpt>
      <trkpt lat="42.570867000000035" lon="-1.5982520000000022">
        <ele>530.248</ele>
        <time>2022-06-19T11:19:55Z</time>
      </trkpt>
      <trkpt lat="42.57085800000004" lon="-1.5983850000000022">
        <ele>530.222</ele>
        <time>2022-06-19T11:19:56Z</time>
      </trkpt>
      <trkpt lat="42.570797000000034" lon="-1.5989190000000022">
        <ele>529.064</ele>
        <time>2022-06-19T11:20:00Z</time>
      </trkpt>
      <trkpt lat="42.570741000000034" lon="-1.5993560000000022">
        <ele>528.060</ele>
        <time>2022-06-19T11:20:03Z</time>
      </trkpt>
      <trkpt lat="42.57071300000003" lon="-1.5996240000000022">
        <ele>526.814</ele>
        <time>2022-06-19T11:20:05Z</time>
      </trkpt>
      <trkpt lat="42.57072200000003" lon="-1.5998830000000022">
        <ele>525.637</ele>
        <time>2022-06-19T11:20:07Z</time>
      </trkpt>
      <trkpt lat="42.570724000000034" lon="-1.6001360000000022">
        <ele>523.666</ele>
        <time>2022-06-19T11:20:09Z</time>
      </trkpt>
      <trkpt lat="42.57070200000003" lon="-1.6003570000000022">
        <ele>523.084</ele>
        <time>2022-06-19T11:20:11Z</time>
      </trkpt>
      <trkpt lat="42.570684000000035" lon="-1.6004740000000022">
        <ele>522.807</ele>
        <time>2022-06-19T11:20:12Z</time>
      </trkpt>
      <trkpt lat="42.570569000000035" lon="-1.6009360000000021">
        <ele>521.617</ele>
        <time>2022-06-19T11:20:16Z</time>
      </trkpt>
      <trkpt lat="42.570532000000036" lon="-1.6010350000000022">
        <ele>521.409</ele>
        <time>2022-06-19T11:20:17Z</time>
      </trkpt>
      <trkpt lat="42.57040400000004" lon="-1.6012800000000023">
        <ele>520.829</ele>
        <time>2022-06-19T11:20:20Z</time>
      </trkpt>
      <trkpt lat="42.57031200000004" lon="-1.6014740000000023">
        <ele>520.828</ele>
        <time>2022-06-19T11:20:22Z</time>
      </trkpt>
      <trkpt lat="42.57028300000004" lon="-1.6015700000000024">
        <ele>520.433</ele>
        <time>2022-06-19T11:20:23Z</time>
      </trkpt>
      <trkpt lat="42.57026400000004" lon="-1.6016490000000023">
        <ele>520.277</ele>
        <time>2022-06-19T11:20:24Z</time>
      </trkpt>
      <trkpt lat="42.570197000000036" lon="-1.6019510000000023">
        <ele>519.479</ele>
        <time>2022-06-19T11:20:27Z</time>
      </trkpt>
      <trkpt lat="42.57005500000004" lon="-1.6026570000000024">
        <ele>519.065</ele>
        <time>2022-06-19T11:20:34Z</time>
      </trkpt>
      <trkpt lat="42.56997700000004" lon="-1.6030450000000025">
        <ele>518.449</ele>
        <time>2022-06-19T11:20:38Z</time>
      </trkpt>
      <trkpt lat="42.56988300000004" lon="-1.6035330000000025">
        <ele>517.832</ele>
        <time>2022-06-19T11:20:43Z</time>
      </trkpt>
      <trkpt lat="42.56982600000004" lon="-1.6038280000000025">
        <ele>517.231</ele>
        <time>2022-06-19T11:20:46Z</time>
      </trkpt>
      <trkpt lat="42.56974400000004" lon="-1.6043990000000026">
        <ele>516.647</ele>
        <time>2022-06-19T11:20:52Z</time>
      </trkpt>
      <trkpt lat="42.569746000000045" lon="-1.6050490000000026">
        <ele>516.229</ele>
        <time>2022-06-19T11:20:59Z</time>
      </trkpt>
      <trkpt lat="42.56974500000005" lon="-1.6051330000000026">
        <ele>516.421</ele>
        <time>2022-06-19T11:21:00Z</time>
      </trkpt>
      <trkpt lat="42.56976700000005" lon="-1.6054600000000026">
        <ele>516.209</ele>
        <time>2022-06-19T11:21:04Z</time>
      </trkpt>
      <trkpt lat="42.56983800000005" lon="-1.6062640000000026">
        <ele>516.065</ele>
        <time>2022-06-19T11:21:13Z</time>
      </trkpt>
      <trkpt lat="42.56985200000005" lon="-1.6063740000000026">
        <ele>516.094</ele>
        <time>2022-06-19T11:21:14Z</time>
      </trkpt>
      <trkpt lat="42.569974000000045" lon="-1.6068780000000027">
        <ele>515.269</ele>
        <time>2022-06-19T11:21:20Z</time>
      </trkpt>
      <trkpt lat="42.56999700000004" lon="-1.6069630000000026">
        <ele>514.873</ele>
        <time>2022-06-19T11:21:21Z</time>
      </trkpt>
      <trkpt lat="42.570022000000044" lon="-1.6070470000000026">
        <ele>514.025</ele>
        <time>2022-06-19T11:21:22Z</time>
      </trkpt>
      <trkpt lat="42.570117000000046" lon="-1.6074070000000025">
        <ele>513.031</ele>
        <time>2022-06-19T11:21:26Z</time>
      </trkpt>
      <trkpt lat="42.570191000000044" lon="-1.6076550000000025">
        <ele>512.835</ele>
        <time>2022-06-19T11:21:29Z</time>
      </trkpt>
      <trkpt lat="42.570379000000045" lon="-1.6082910000000026">
        <ele>512.448</ele>
        <time>2022-06-19T11:21:37Z</time>
      </trkpt>
      <trkpt lat="42.57043700000005" lon="-1.6087830000000025">
        <ele>512.487</ele>
        <time>2022-06-19T11:21:43Z</time>
      </trkpt>
      <trkpt lat="42.57043700000005" lon="-1.6094030000000026">
        <ele>512.419</ele>
        <time>2022-06-19T11:21:50Z</time>
      </trkpt>
      <trkpt lat="42.57037700000005" lon="-1.6097430000000026">
        <ele>512.009</ele>
        <time>2022-06-19T11:21:54Z</time>
      </trkpt>
      <trkpt lat="42.57029700000005" lon="-1.6101970000000025">
        <ele>511.619</ele>
        <time>2022-06-19T11:21:59Z</time>
      </trkpt>
      <trkpt lat="42.57024400000005" lon="-1.6104540000000025">
        <ele>510.809</ele>
        <time>2022-06-19T11:22:02Z</time>
      </trkpt>
      <trkpt lat="42.570218000000054" lon="-1.6105350000000025">
        <ele>510.632</ele>
        <time>2022-06-19T11:22:03Z</time>
      </trkpt>
      <trkpt lat="42.57013200000005" lon="-1.6106830000000025">
        <ele>510.451</ele>
        <time>2022-06-19T11:22:05Z</time>
      </trkpt>
      <trkpt lat="42.56993200000005" lon="-1.6108420000000025">
        <ele>510.446</ele>
        <time>2022-06-19T11:22:09Z</time>
      </trkpt>
      <trkpt lat="42.56960800000005" lon="-1.6110690000000025">
        <ele>510.440</ele>
        <time>2022-06-19T11:22:15Z</time>
      </trkpt>
      <trkpt lat="42.56920800000005" lon="-1.6112530000000025">
        <ele>510.852</ele>
        <time>2022-06-19T11:22:22Z</time>
      </trkpt>
      <trkpt lat="42.56904600000005" lon="-1.6112620000000024">
        <ele>510.838</ele>
        <time>2022-06-19T11:22:25Z</time>
      </trkpt>
      <trkpt lat="42.56902100000005" lon="-1.6112660000000023">
        <ele>511.082</ele>
        <time>2022-06-19T11:22:26Z</time>
      </trkpt>
      <trkpt lat="42.56901300000005" lon="-1.6112670000000022">
        <ele>511.255</ele>
        <time>2022-06-19T11:22:29Z</time>
      </trkpt>
      <trkpt lat="42.56897100000005" lon="-1.6112620000000022">
        <ele>511.244</ele>
        <time>2022-06-19T11:25:44Z</time>
      </trkpt>
      <trkpt lat="42.56892200000005" lon="-1.611255000000002">
        <ele>511.254</ele>
        <time>2022-06-19T11:25:46Z</time>
      </trkpt>
      <trkpt lat="42.56879500000005" lon="-1.6112300000000022">
        <ele>511.056</ele>
        <time>2022-06-19T11:25:50Z</time>
      </trkpt>
      <trkpt lat="42.56875900000005" lon="-1.611220000000002">
        <ele>510.811</ele>
        <time>2022-06-19T11:25:51Z</time>
      </trkpt>
      <trkpt lat="42.56854300000005" lon="-1.611196000000002">
        <ele>510.409</ele>
        <time>2022-06-19T11:25:56Z</time>
      </trkpt>
      <trkpt lat="42.56844900000005" lon="-1.611181000000002">
        <ele>510.236</ele>
        <time>2022-06-19T11:25:58Z</time>
      </trkpt>
      <trkpt lat="42.56840700000005" lon="-1.611183000000002">
        <ele>510.025</ele>
        <time>2022-06-19T11:25:59Z</time>
      </trkpt>
      <trkpt lat="42.56832500000005" lon="-1.611201000000002">
        <ele>510.010</ele>
        <time>2022-06-19T11:26:01Z</time>
      </trkpt>
      <trkpt lat="42.56828500000005" lon="-1.611223000000002">
        <ele>510.064</ele>
        <time>2022-06-19T11:26:02Z</time>
      </trkpt>
      <trkpt lat="42.56824600000005" lon="-1.6112520000000021">
        <ele>510.036</ele>
        <time>2022-06-19T11:26:03Z</time>
      </trkpt>
      <trkpt lat="42.56805400000005" lon="-1.6114570000000021">
        <ele>509.822</ele>
        <time>2022-06-19T11:26:08Z</time>
      </trkpt>
      <trkpt lat="42.567806000000054" lon="-1.611838000000002">
        <ele>509.216</ele>
        <time>2022-06-19T11:26:15Z</time>
      </trkpt>
      <trkpt lat="42.56750800000005" lon="-1.612373000000002">
        <ele>508.879</ele>
        <time>2022-06-19T11:26:23Z</time>
      </trkpt>
      <trkpt lat="42.56744100000005" lon="-1.612535000000002">
        <ele>508.658</ele>
        <time>2022-06-19T11:26:25Z</time>
      </trkpt>
      <trkpt lat="42.56738600000005" lon="-1.612735000000002">
        <ele>508.062</ele>
        <time>2022-06-19T11:26:27Z</time>
      </trkpt>
      <trkpt lat="42.56729900000005" lon="-1.613094000000002">
        <ele>506.883</ele>
        <time>2022-06-19T11:26:31Z</time>
      </trkpt>
      <trkpt lat="42.56722200000005" lon="-1.613454000000002">
        <ele>506.211</ele>
        <time>2022-06-19T11:26:35Z</time>
      </trkpt>
      <trkpt lat="42.56717900000005" lon="-1.613642000000002">
        <ele>505.209</ele>
        <time>2022-06-19T11:26:37Z</time>
      </trkpt>
      <trkpt lat="42.56713500000005" lon="-1.613836000000002">
        <ele>503.837</ele>
        <time>2022-06-19T11:26:39Z</time>
      </trkpt>
      <trkpt lat="42.56706300000005" lon="-1.614115000000002">
        <ele>502.856</ele>
        <time>2022-06-19T11:26:42Z</time>
      </trkpt>
      <trkpt lat="42.56704000000005" lon="-1.614210000000002">
        <ele>502.441</ele>
        <time>2022-06-19T11:26:43Z</time>
      </trkpt>
      <trkpt lat="42.56692900000005" lon="-1.614654000000002">
        <ele>501.455</ele>
        <time>2022-06-19T11:26:48Z</time>
      </trkpt>
      <trkpt lat="42.56682000000005" lon="-1.615081000000002">
        <ele>500.877</ele>
        <time>2022-06-19T11:26:53Z</time>
      </trkpt>
      <trkpt lat="42.56665000000005" lon="-1.615748000000002">
        <ele>501.013</ele>
        <time>2022-06-19T11:27:01Z</time>
      </trkpt>
      <trkpt lat="42.566463000000056" lon="-1.616450000000002">
        <ele>501.227</ele>
        <time>2022-06-19T11:27:10Z</time>
      </trkpt>
      <trkpt lat="42.56640800000005" lon="-1.616600000000002">
        <ele>501.280</ele>
        <time>2022-06-19T11:27:12Z</time>
      </trkpt>
      <trkpt lat="42.566309000000054" lon="-1.616709000000002">
        <ele>501.269</ele>
        <time>2022-06-19T11:27:14Z</time>
      </trkpt>
      <trkpt lat="42.566185000000054" lon="-1.616763000000002">
        <ele>501.282</ele>
        <time>2022-06-19T11:27:16Z</time>
      </trkpt>
      <trkpt lat="42.56599500000005" lon="-1.616820000000002">
        <ele>500.843</ele>
        <time>2022-06-19T11:27:19Z</time>
      </trkpt>
      <trkpt lat="42.56586400000005" lon="-1.616904000000002">
        <ele>500.417</ele>
        <time>2022-06-19T11:27:21Z</time>
      </trkpt>
      <trkpt lat="42.565752000000046" lon="-1.617001000000002">
        <ele>500.409</ele>
        <time>2022-06-19T11:27:23Z</time>
      </trkpt>
      <trkpt lat="42.56541300000005" lon="-1.6173230000000018">
        <ele>500.259</ele>
        <time>2022-06-19T11:27:30Z</time>
      </trkpt>
      <trkpt lat="42.56521600000005" lon="-1.6176100000000018">
        <ele>500.248</ele>
        <time>2022-06-19T11:27:35Z</time>
      </trkpt>
      <trkpt lat="42.565189000000046" lon="-1.6176710000000019">
        <ele>500.463</ele>
        <time>2022-06-19T11:27:36Z</time>
      </trkpt>
      <trkpt lat="42.56514000000005" lon="-1.617851000000002">
        <ele>500.467</ele>
        <time>2022-06-19T11:27:39Z</time>
      </trkpt>
      <trkpt lat="42.56501500000005" lon="-1.6185350000000018">
        <ele>500.689</ele>
        <time>2022-06-19T11:27:49Z</time>
      </trkpt>
      <trkpt lat="42.56498700000005" lon="-1.618685000000002">
        <ele>500.695</ele>
        <time>2022-06-19T11:27:51Z</time>
      </trkpt>
      <trkpt lat="42.564896000000054" lon="-1.619181000000002">
        <ele>499.489</ele>
        <time>2022-06-19T11:27:58Z</time>
      </trkpt>
      <trkpt lat="42.564803000000055" lon="-1.619619000000002">
        <ele>498.872</ele>
        <time>2022-06-19T11:28:04Z</time>
      </trkpt>
      <trkpt lat="42.564775000000054" lon="-1.6197010000000018">
        <ele>498.831</ele>
        <time>2022-06-19T11:28:05Z</time>
      </trkpt>
      <trkpt lat="42.564724000000055" lon="-1.619835000000002">
        <ele>498.473</ele>
        <time>2022-06-19T11:28:07Z</time>
      </trkpt>
      <trkpt lat="42.564704000000056" lon="-1.6198920000000019">
        <ele>497.085</ele>
        <time>2022-06-19T11:28:08Z</time>
      </trkpt>
      <trkpt lat="42.56467800000006" lon="-1.6199660000000018">
        <ele>496.413</ele>
        <time>2022-06-19T11:28:09Z</time>
      </trkpt>
      <trkpt lat="42.56458700000006" lon="-1.6202140000000018">
        <ele>495.809</ele>
        <time>2022-06-19T11:28:12Z</time>
      </trkpt>
      <trkpt lat="42.56449500000006" lon="-1.6204650000000018">
        <ele>495.648</ele>
        <time>2022-06-19T11:28:15Z</time>
      </trkpt>
      <trkpt lat="42.56433400000006" lon="-1.6210350000000018">
        <ele>495.477</ele>
        <time>2022-06-19T11:28:21Z</time>
      </trkpt>
      <trkpt lat="42.56423700000006" lon="-1.6215460000000017">
        <ele>495.072</ele>
        <time>2022-06-19T11:28:26Z</time>
      </trkpt>
      <trkpt lat="42.56419900000006" lon="-1.6217430000000017">
        <ele>493.676</ele>
        <time>2022-06-19T11:28:28Z</time>
      </trkpt>
      <trkpt lat="42.56416200000006" lon="-1.6219370000000017">
        <ele>492.828</ele>
        <time>2022-06-19T11:28:30Z</time>
      </trkpt>
      <trkpt lat="42.56413300000006" lon="-1.6221920000000016">
        <ele>492.494</ele>
        <time>2022-06-19T11:28:33Z</time>
      </trkpt>
      <trkpt lat="42.564076000000064" lon="-1.6225400000000016">
        <ele>492.478</ele>
        <time>2022-06-19T11:28:37Z</time>
      </trkpt>
      <trkpt lat="42.56397500000006" lon="-1.6229320000000016">
        <ele>492.411</ele>
        <time>2022-06-19T11:28:42Z</time>
      </trkpt>
      <trkpt lat="42.56386600000006" lon="-1.6234280000000016">
        <ele>492.230</ele>
        <time>2022-06-19T11:28:49Z</time>
      </trkpt>
      <trkpt lat="42.563758000000064" lon="-1.6238820000000016">
        <ele>492.453</ele>
        <time>2022-06-19T11:28:55Z</time>
      </trkpt>
      <trkpt lat="42.563712000000066" lon="-1.6240210000000015">
        <ele>492.404</ele>
        <time>2022-06-19T11:28:57Z</time>
      </trkpt>
      <trkpt lat="42.563575000000064" lon="-1.6244950000000016">
        <ele>492.414</ele>
        <time>2022-06-19T11:29:03Z</time>
      </trkpt>
      <trkpt lat="42.56344700000007" lon="-1.6250570000000015">
        <ele>491.609</ele>
        <time>2022-06-19T11:29:10Z</time>
      </trkpt>
      <trkpt lat="42.563392000000064" lon="-1.6252740000000014">
        <ele>491.296</ele>
        <time>2022-06-19T11:29:13Z</time>
      </trkpt>
      <trkpt lat="42.56328300000006" lon="-1.6257070000000013">
        <ele>490.485</ele>
        <time>2022-06-19T11:29:18Z</time>
      </trkpt>
      <trkpt lat="42.563237000000065" lon="-1.6258860000000013">
        <ele>490.060</ele>
        <time>2022-06-19T11:29:20Z</time>
      </trkpt>
      <trkpt lat="42.563164000000064" lon="-1.6261640000000013">
        <ele>489.014</ele>
        <time>2022-06-19T11:29:23Z</time>
      </trkpt>
      <trkpt lat="42.56311800000007" lon="-1.6263360000000013">
        <ele>488.076</ele>
        <time>2022-06-19T11:29:25Z</time>
      </trkpt>
      <trkpt lat="42.563062000000066" lon="-1.6265350000000014">
        <ele>487.422</ele>
        <time>2022-06-19T11:29:27Z</time>
      </trkpt>
      <trkpt lat="42.562967000000064" lon="-1.6268630000000015">
        <ele>486.866</ele>
        <time>2022-06-19T11:29:30Z</time>
      </trkpt>
      <trkpt lat="42.56289700000006" lon="-1.6271950000000015">
        <ele>486.439</ele>
        <time>2022-06-19T11:29:33Z</time>
      </trkpt>
      <trkpt lat="42.56289800000006" lon="-1.6274320000000015">
        <ele>486.448</ele>
        <time>2022-06-19T11:29:35Z</time>
      </trkpt>
      <trkpt lat="42.56290700000006" lon="-1.6275230000000016">
        <ele>486.283</ele>
        <time>2022-06-19T11:29:36Z</time>
      </trkpt>
      <trkpt lat="42.56294600000006" lon="-1.6277650000000017">
        <ele>485.825</ele>
        <time>2022-06-19T11:29:38Z</time>
      </trkpt>
      <trkpt lat="42.56301900000006" lon="-1.6281470000000018">
        <ele>484.417</ele>
        <time>2022-06-19T11:29:42Z</time>
      </trkpt>
      <trkpt lat="42.56306700000006" lon="-1.628529000000002">
        <ele>483.009</ele>
        <time>2022-06-19T11:29:46Z</time>
      </trkpt>
      <trkpt lat="42.56309300000006" lon="-1.6287180000000019">
        <ele>481.869</ele>
        <time>2022-06-19T11:29:48Z</time>
      </trkpt>
      <trkpt lat="42.56328700000006" lon="-1.629438000000002">
        <ele>481.248</ele>
        <time>2022-06-19T11:29:56Z</time>
      </trkpt>
      <trkpt lat="42.56343700000006" lon="-1.629886000000002">
        <ele>480.823</ele>
        <time>2022-06-19T11:30:02Z</time>
      </trkpt>
      <trkpt lat="42.56352700000006" lon="-1.630093000000002">
        <ele>480.867</ele>
        <time>2022-06-19T11:30:05Z</time>
      </trkpt>
      <trkpt lat="42.563612000000056" lon="-1.630219000000002">
        <ele>480.439</ele>
        <time>2022-06-19T11:30:07Z</time>
      </trkpt>
      <trkpt lat="42.56370700000006" lon="-1.630338000000002">
        <ele>480.055</ele>
        <time>2022-06-19T11:30:09Z</time>
      </trkpt>
      <trkpt lat="42.56392300000006" lon="-1.6305580000000022">
        <ele>479.649</ele>
        <time>2022-06-19T11:30:13Z</time>
      </trkpt>
      <trkpt lat="42.564279000000056" lon="-1.6309390000000021">
        <ele>479.272</ele>
        <time>2022-06-19T11:30:19Z</time>
      </trkpt>
      <trkpt lat="42.56434200000005" lon="-1.6310060000000022">
        <ele>479.021</ele>
        <time>2022-06-19T11:30:20Z</time>
      </trkpt>
      <trkpt lat="42.56459900000005" lon="-1.6312800000000023">
        <ele>478.084</ele>
        <time>2022-06-19T11:30:24Z</time>
      </trkpt>
      <trkpt lat="42.564713000000054" lon="-1.6314060000000024">
        <ele>477.407</ele>
        <time>2022-06-19T11:30:26Z</time>
      </trkpt>
      <trkpt lat="42.56495400000006" lon="-1.6316730000000024">
        <ele>477.017</ele>
        <time>2022-06-19T11:30:30Z</time>
      </trkpt>
      <trkpt lat="42.56506900000006" lon="-1.6318270000000024">
        <ele>476.609</ele>
        <time>2022-06-19T11:30:32Z</time>
      </trkpt>
      <trkpt lat="42.56511100000006" lon="-1.6319000000000023">
        <ele>476.049</ele>
        <time>2022-06-19T11:30:33Z</time>
      </trkpt>
      <trkpt lat="42.565146000000055" lon="-1.6319780000000024">
        <ele>475.698</ele>
        <time>2022-06-19T11:30:34Z</time>
      </trkpt>
      <trkpt lat="42.56523700000005" lon="-1.6323130000000023">
        <ele>475.033</ele>
        <time>2022-06-19T11:30:38Z</time>
      </trkpt>
      <trkpt lat="42.565335000000054" lon="-1.6330410000000024">
        <ele>475.077</ele>
        <time>2022-06-19T11:30:46Z</time>
      </trkpt>
      <trkpt lat="42.56533900000005" lon="-1.6331350000000024">
        <ele>475.079</ele>
        <time>2022-06-19T11:30:47Z</time>
      </trkpt>
      <trkpt lat="42.56536200000005" lon="-1.6338730000000024">
        <ele>474.845</ele>
        <time>2022-06-19T11:30:55Z</time>
      </trkpt>
      <trkpt lat="42.56536200000005" lon="-1.6339660000000022">
        <ele>474.849</ele>
        <time>2022-06-19T11:30:56Z</time>
      </trkpt>
      <trkpt lat="42.56536300000005" lon="-1.6340560000000022">
        <ele>474.832</ele>
        <time>2022-06-19T11:30:57Z</time>
      </trkpt>
      <trkpt lat="42.56530900000005" lon="-1.634686000000002">
        <ele>474.441</ele>
        <time>2022-06-19T11:31:04Z</time>
      </trkpt>
      <trkpt lat="42.565251000000046" lon="-1.6350280000000021">
        <ele>473.648</ele>
        <time>2022-06-19T11:31:08Z</time>
      </trkpt>
      <trkpt lat="42.56520800000005" lon="-1.635269000000002">
        <ele>473.661</ele>
        <time>2022-06-19T11:31:11Z</time>
      </trkpt>
      <trkpt lat="42.56511400000005" lon="-1.6358940000000022">
        <ele>473.217</ele>
        <time>2022-06-19T11:31:19Z</time>
      </trkpt>
      <trkpt lat="42.56499600000005" lon="-1.6365900000000022">
        <ele>473.209</ele>
        <time>2022-06-19T11:31:27Z</time>
      </trkpt>
      <trkpt lat="42.56485800000005" lon="-1.6371910000000023">
        <ele>473.445</ele>
        <time>2022-06-19T11:31:34Z</time>
      </trkpt>
      <trkpt lat="42.56475200000005" lon="-1.6375120000000023">
        <ele>472.674</ele>
        <time>2022-06-19T11:31:38Z</time>
      </trkpt>
      <trkpt lat="42.56464100000005" lon="-1.6378060000000023">
        <ele>472.299</ele>
        <time>2022-06-19T11:31:42Z</time>
      </trkpt>
      <trkpt lat="42.56451400000005" lon="-1.6381220000000023">
        <ele>471.853</ele>
        <time>2022-06-19T11:31:47Z</time>
      </trkpt>
      <trkpt lat="42.56449000000005" lon="-1.6381760000000023">
        <ele>471.655</ele>
        <time>2022-06-19T11:31:48Z</time>
      </trkpt>
      <trkpt lat="42.56430100000005" lon="-1.6385680000000022">
        <ele>471.471</ele>
        <time>2022-06-19T11:31:55Z</time>
      </trkpt>
      <trkpt lat="42.56413400000005" lon="-1.6389000000000022">
        <ele>470.695</ele>
        <time>2022-06-19T11:32:01Z</time>
      </trkpt>
      <trkpt lat="42.563874000000055" lon="-1.6395350000000022">
        <ele>471.088</ele>
        <time>2022-06-19T11:32:11Z</time>
      </trkpt>
      <trkpt lat="42.56375100000005" lon="-1.6397810000000022">
        <ele>470.837</ele>
        <time>2022-06-19T11:32:15Z</time>
      </trkpt>
      <trkpt lat="42.56359100000005" lon="-1.6400700000000021">
        <ele>470.632</ele>
        <time>2022-06-19T11:32:20Z</time>
      </trkpt>
      <trkpt lat="42.56332200000005" lon="-1.6406260000000021">
        <ele>470.292</ele>
        <time>2022-06-19T11:32:29Z</time>
      </trkpt>
      <trkpt lat="42.56321800000005" lon="-1.640967000000002">
        <ele>469.611</ele>
        <time>2022-06-19T11:32:34Z</time>
      </trkpt>
      <trkpt lat="42.563163000000046" lon="-1.641168000000002">
        <ele>469.409</ele>
        <time>2022-06-19T11:32:37Z</time>
      </trkpt>
      <trkpt lat="42.56310300000005" lon="-1.641372000000002">
        <ele>468.614</ele>
        <time>2022-06-19T11:32:40Z</time>
      </trkpt>
      <trkpt lat="42.56306400000005" lon="-1.641605000000002">
        <ele>468.453</ele>
        <time>2022-06-19T11:32:43Z</time>
      </trkpt>
      <trkpt lat="42.56306400000005" lon="-1.641686000000002">
        <ele>468.488</ele>
        <time>2022-06-19T11:32:44Z</time>
      </trkpt>
      <trkpt lat="42.56312500000005" lon="-1.642204000000002">
        <ele>468.422</ele>
        <time>2022-06-19T11:32:50Z</time>
      </trkpt>
      <trkpt lat="42.563174000000046" lon="-1.642538000000002">
        <ele>468.414</ele>
        <time>2022-06-19T11:32:54Z</time>
      </trkpt>
      <trkpt lat="42.56319900000005" lon="-1.642601000000002">
        <ele>468.470</ele>
        <time>2022-06-19T11:32:55Z</time>
      </trkpt>
      <trkpt lat="42.56322600000005" lon="-1.642656000000002">
        <ele>468.274</ele>
        <time>2022-06-19T11:32:56Z</time>
      </trkpt>
      <trkpt lat="42.56328400000005" lon="-1.6427460000000018">
        <ele>468.297</ele>
        <time>2022-06-19T11:32:58Z</time>
      </trkpt>
      <trkpt lat="42.56332100000005" lon="-1.6428130000000019">
        <ele>468.086</ele>
        <time>2022-06-19T11:33:00Z</time>
      </trkpt>
      <trkpt lat="42.56334400000005" lon="-1.642853000000002">
        <ele>467.897</ele>
        <time>2022-06-19T11:33:02Z</time>
      </trkpt>
      <trkpt lat="42.56335600000005" lon="-1.642876000000002">
        <ele>467.223</ele>
        <time>2022-06-19T11:33:04Z</time>
      </trkpt>
      <trkpt lat="42.56335600000005" lon="-1.642876000000002">
        <ele>466.625</ele>
        <time>2022-06-19T11:33:06Z</time>
      </trkpt>
      <trkpt lat="42.56335800000005" lon="-1.642937000000002">
        <ele>465.009</ele>
        <time>2022-06-19T11:34:27Z</time>
      </trkpt>
      <trkpt lat="42.56336100000005" lon="-1.6429740000000022">
        <ele>465.070</ele>
        <time>2022-06-19T11:34:28Z</time>
      </trkpt>
      <trkpt lat="42.56333600000005" lon="-1.643059000000002">
        <ele>465.089</ele>
        <time>2022-06-19T11:34:30Z</time>
      </trkpt>
      <trkpt lat="42.56330600000005" lon="-1.643106000000002">
        <ele>465.064</ele>
        <time>2022-06-19T11:34:31Z</time>
      </trkpt>
      <trkpt lat="42.56327100000005" lon="-1.643148000000002">
        <ele>465.018</ele>
        <time>2022-06-19T11:34:32Z</time>
      </trkpt>
      <trkpt lat="42.56320000000005" lon="-1.643203000000002">
        <ele>465.050</ele>
        <time>2022-06-19T11:34:34Z</time>
      </trkpt>
      <trkpt lat="42.563157000000054" lon="-1.643230000000002">
        <ele>464.866</ele>
        <time>2022-06-19T11:34:35Z</time>
      </trkpt>
      <trkpt lat="42.56302600000005" lon="-1.6433230000000019">
        <ele>463.880</ele>
        <time>2022-06-19T11:34:38Z</time>
      </trkpt>
      <trkpt lat="42.56293700000005" lon="-1.6433850000000019">
        <ele>462.623</ele>
        <time>2022-06-19T11:34:40Z</time>
      </trkpt>
      <trkpt lat="42.562862000000045" lon="-1.6434420000000018">
        <ele>462.072</ele>
        <time>2022-06-19T11:34:42Z</time>
      </trkpt>
      <trkpt lat="42.562730000000045" lon="-1.6435620000000017">
        <ele>461.651</ele>
        <time>2022-06-19T11:34:45Z</time>
      </trkpt>
      <trkpt lat="42.56265300000005" lon="-1.6436410000000017">
        <ele>461.201</ele>
        <time>2022-06-19T11:34:47Z</time>
      </trkpt>
      <trkpt lat="42.562507000000046" lon="-1.6438210000000018">
        <ele>461.211</ele>
        <time>2022-06-19T11:34:51Z</time>
      </trkpt>
      <trkpt lat="42.56223300000005" lon="-1.6441980000000018">
        <ele>462.009</ele>
        <time>2022-06-19T11:34:59Z</time>
      </trkpt>
      <trkpt lat="42.56184700000005" lon="-1.6447210000000019">
        <ele>462.856</ele>
        <time>2022-06-19T11:35:10Z</time>
      </trkpt>
      <trkpt lat="42.56153900000005" lon="-1.645158000000002">
        <ele>462.285</ele>
        <time>2022-06-19T11:35:19Z</time>
      </trkpt>
      <trkpt lat="42.56120500000005" lon="-1.645638000000002">
        <ele>462.250</ele>
        <time>2022-06-19T11:35:29Z</time>
      </trkpt>
      <trkpt lat="42.56094600000005" lon="-1.646002000000002">
        <ele>462.624</ele>
        <time>2022-06-19T11:35:37Z</time>
      </trkpt>
      <trkpt lat="42.56067800000005" lon="-1.646420000000002">
        <ele>462.656</ele>
        <time>2022-06-19T11:35:46Z</time>
      </trkpt>
      <trkpt lat="42.56043300000005" lon="-1.646856000000002">
        <ele>462.662</ele>
        <time>2022-06-19T11:35:55Z</time>
      </trkpt>
      <trkpt lat="42.560323000000054" lon="-1.647038000000002">
        <ele>463.096</ele>
        <time>2022-06-19T11:35:59Z</time>
      </trkpt>
      <trkpt lat="42.560162000000055" lon="-1.647266000000002">
        <ele>462.859</ele>
        <time>2022-06-19T11:36:04Z</time>
      </trkpt>
      <trkpt lat="42.560089000000055" lon="-1.6473590000000018">
        <ele>462.698</ele>
        <time>2022-06-19T11:36:06Z</time>
      </trkpt>
      <trkpt lat="42.55982800000005" lon="-1.6476500000000018">
        <ele>462.251</ele>
        <time>2022-06-19T11:36:12Z</time>
      </trkpt>
      <trkpt lat="42.559731000000056" lon="-1.647749000000002">
        <ele>462.201</ele>
        <time>2022-06-19T11:36:14Z</time>
      </trkpt>
      <trkpt lat="42.559580000000054" lon="-1.647897000000002">
        <ele>461.411</ele>
        <time>2022-06-19T11:36:17Z</time>
      </trkpt>
      <trkpt lat="42.55952500000005" lon="-1.647945000000002">
        <ele>461.009</ele>
        <time>2022-06-19T11:36:18Z</time>
      </trkpt>
      <trkpt lat="42.55916300000005" lon="-1.648232000000002">
        <ele>460.026</ele>
        <time>2022-06-19T11:36:24Z</time>
      </trkpt>
      <trkpt lat="42.55910300000005" lon="-1.6482810000000019">
        <ele>459.445</ele>
        <time>2022-06-19T11:36:25Z</time>
      </trkpt>
      <trkpt lat="42.55904400000005" lon="-1.648331000000002">
        <ele>458.860</ele>
        <time>2022-06-19T11:36:26Z</time>
      </trkpt>
      <trkpt lat="42.55892300000005" lon="-1.648426000000002">
        <ele>457.474</ele>
        <time>2022-06-19T11:36:28Z</time>
      </trkpt>
      <trkpt lat="42.55879900000005" lon="-1.648520000000002">
        <ele>456.486</ele>
        <time>2022-06-19T11:36:30Z</time>
      </trkpt>
      <trkpt lat="42.55861900000005" lon="-1.648662000000002">
        <ele>455.212</ele>
        <time>2022-06-19T11:36:33Z</time>
      </trkpt>
      <trkpt lat="42.55811900000005" lon="-1.649056000000002">
        <ele>454.616</ele>
        <time>2022-06-19T11:36:42Z</time>
      </trkpt>
      <trkpt lat="42.55796600000005" lon="-1.6491770000000021">
        <ele>454.439</ele>
        <time>2022-06-19T11:36:45Z</time>
      </trkpt>
      <trkpt lat="42.55758100000005" lon="-1.6494710000000021">
        <ele>453.828</ele>
        <time>2022-06-19T11:36:53Z</time>
      </trkpt>
      <trkpt lat="42.55718000000005" lon="-1.649790000000002">
        <ele>453.862</ele>
        <time>2022-06-19T11:37:02Z</time>
      </trkpt>
      <trkpt lat="42.55699100000005" lon="-1.649934000000002">
        <ele>453.483</ele>
        <time>2022-06-19T11:37:06Z</time>
      </trkpt>
      <trkpt lat="42.55667700000005" lon="-1.650187000000002">
        <ele>453.611</ele>
        <time>2022-06-19T11:37:13Z</time>
      </trkpt>
      <trkpt lat="42.55620600000005" lon="-1.650552000000002">
        <ele>453.209</ele>
        <time>2022-06-19T11:37:23Z</time>
      </trkpt>
      <trkpt lat="42.556112000000056" lon="-1.650626000000002">
        <ele>453.267</ele>
        <time>2022-06-19T11:37:25Z</time>
      </trkpt>
      <trkpt lat="42.555648000000055" lon="-1.650998000000002">
        <ele>453.256</ele>
        <time>2022-06-19T11:37:35Z</time>
      </trkpt>
      <trkpt lat="42.555347000000054" lon="-1.651232000000002">
        <ele>452.611</ele>
        <time>2022-06-19T11:37:42Z</time>
      </trkpt>
      <trkpt lat="42.55526100000005" lon="-1.651299000000002">
        <ele>452.635</ele>
        <time>2022-06-19T11:37:44Z</time>
      </trkpt>
      <trkpt lat="42.55479800000005" lon="-1.651661000000002">
        <ele>451.627</ele>
        <time>2022-06-19T11:37:55Z</time>
      </trkpt>
      <trkpt lat="42.55471100000005" lon="-1.651728000000002">
        <ele>451.823</ele>
        <time>2022-06-19T11:37:57Z</time>
      </trkpt>
      <trkpt lat="42.55423200000005" lon="-1.652107000000002">
        <ele>451.457</ele>
        <time>2022-06-19T11:38:08Z</time>
      </trkpt>
      <trkpt lat="42.55383100000005" lon="-1.652420000000002">
        <ele>450.840</ele>
        <time>2022-06-19T11:38:17Z</time>
      </trkpt>
      <trkpt lat="42.55360700000005" lon="-1.652597000000002">
        <ele>450.679</ele>
        <time>2022-06-19T11:38:22Z</time>
      </trkpt>
      <trkpt lat="42.553203000000046" lon="-1.652910000000002">
        <ele>450.456</ele>
        <time>2022-06-19T11:38:31Z</time>
      </trkpt>
      <trkpt lat="42.55274100000005" lon="-1.653267000000002">
        <ele>450.659</ele>
        <time>2022-06-19T11:38:41Z</time>
      </trkpt>
      <trkpt lat="42.552362000000045" lon="-1.653573000000002">
        <ele>451.014</ele>
        <time>2022-06-19T11:38:50Z</time>
      </trkpt>
      <trkpt lat="42.551971000000044" lon="-1.653885000000002">
        <ele>451.409</ele>
        <time>2022-06-19T11:38:59Z</time>
      </trkpt>
      <trkpt lat="42.55150000000005" lon="-1.654284000000002">
        <ele>451.686</ele>
        <time>2022-06-19T11:39:10Z</time>
      </trkpt>
      <trkpt lat="42.551202000000046" lon="-1.654654000000002">
        <ele>451.285</ele>
        <time>2022-06-19T11:39:18Z</time>
      </trkpt>
      <trkpt lat="42.55093600000004" lon="-1.655149000000002">
        <ele>451.410</ele>
        <time>2022-06-19T11:39:27Z</time>
      </trkpt>
      <trkpt lat="42.55084400000004" lon="-1.655447000000002">
        <ele>452.294</ele>
        <time>2022-06-19T11:39:32Z</time>
      </trkpt>
      <trkpt lat="42.55081700000004" lon="-1.655563000000002">
        <ele>452.686</ele>
        <time>2022-06-19T11:39:34Z</time>
      </trkpt>
      <trkpt lat="42.550773000000035" lon="-1.655835000000002">
        <ele>453.242</ele>
        <time>2022-06-19T11:39:39Z</time>
      </trkpt>
      <trkpt lat="42.55076300000003" lon="-1.655934000000002">
        <ele>453.696</ele>
        <time>2022-06-19T11:39:41Z</time>
      </trkpt>
      <trkpt lat="42.55073900000003" lon="-1.6560920000000021">
        <ele>454.439</ele>
        <time>2022-06-19T11:39:44Z</time>
      </trkpt>
      <trkpt lat="42.55072400000003" lon="-1.6562000000000021">
        <ele>455.458</ele>
        <time>2022-06-19T11:39:46Z</time>
      </trkpt>
      <trkpt lat="42.55069900000003" lon="-1.6564070000000022">
        <ele>456.476</ele>
        <time>2022-06-19T11:39:50Z</time>
      </trkpt>
      <trkpt lat="42.55068700000003" lon="-1.6565100000000021">
        <ele>456.690</ele>
        <time>2022-06-19T11:39:52Z</time>
      </trkpt>
      <trkpt lat="42.550661000000034" lon="-1.6566610000000022">
        <ele>458.019</ele>
        <time>2022-06-19T11:39:55Z</time>
      </trkpt>
      <trkpt lat="42.55065300000003" lon="-1.6567110000000023">
        <ele>458.009</ele>
        <time>2022-06-19T11:39:56Z</time>
      </trkpt>
      <trkpt lat="42.55060500000003" lon="-1.6570460000000022">
        <ele>458.458</ele>
        <time>2022-06-19T11:40:03Z</time>
      </trkpt>
      <trkpt lat="42.55058300000003" lon="-1.6573140000000022">
        <ele>458.617</ele>
        <time>2022-06-19T11:40:08Z</time>
      </trkpt>
      <trkpt lat="42.55045200000003" lon="-1.6576920000000022">
        <ele>458.612</ele>
        <time>2022-06-19T11:40:15Z</time>
      </trkpt>
      <trkpt lat="42.55027800000003" lon="-1.6579920000000021">
        <ele>458.486</ele>
        <time>2022-06-19T11:40:20Z</time>
      </trkpt>
      <trkpt lat="42.549989000000025" lon="-1.6584670000000021">
        <ele>457.238</ele>
        <time>2022-06-19T11:40:26Z</time>
      </trkpt>
      <trkpt lat="42.54993400000002" lon="-1.6585530000000022">
        <ele>456.864</ele>
        <time>2022-06-19T11:40:27Z</time>
      </trkpt>
      <trkpt lat="42.549708000000024" lon="-1.658924000000002">
        <ele>455.258</ele>
        <time>2022-06-19T11:40:31Z</time>
      </trkpt>
      <trkpt lat="42.549612000000025" lon="-1.659091000000002">
        <ele>453.861</ele>
        <time>2022-06-19T11:40:33Z</time>
      </trkpt>
      <trkpt lat="42.54945300000003" lon="-1.659359000000002">
        <ele>452.690</ele>
        <time>2022-06-19T11:40:36Z</time>
      </trkpt>
      <trkpt lat="42.54934800000003" lon="-1.659530000000002">
        <ele>450.621</ele>
        <time>2022-06-19T11:40:38Z</time>
      </trkpt>
      <trkpt lat="42.54924700000003" lon="-1.659694000000002">
        <ele>448.841</ele>
        <time>2022-06-19T11:40:40Z</time>
      </trkpt>
      <trkpt lat="42.54910100000003" lon="-1.659938000000002">
        <ele>447.805</ele>
        <time>2022-06-19T11:40:43Z</time>
      </trkpt>
      <trkpt lat="42.54905400000003" lon="-1.6600140000000019">
        <ele>447.809</ele>
        <time>2022-06-19T11:40:44Z</time>
      </trkpt>
      <trkpt lat="42.54871500000003" lon="-1.6605890000000019">
        <ele>447.643</ele>
        <time>2022-06-19T11:40:52Z</time>
      </trkpt>
      <trkpt lat="42.54838300000003" lon="-1.661109000000002">
        <ele>447.842</ele>
        <time>2022-06-19T11:41:00Z</time>
      </trkpt>
      <trkpt lat="42.54802000000003" lon="-1.661710000000002">
        <ele>447.867</ele>
        <time>2022-06-19T11:41:10Z</time>
      </trkpt>
      <trkpt lat="42.54783500000003" lon="-1.662009000000002">
        <ele>447.841</ele>
        <time>2022-06-19T11:41:15Z</time>
      </trkpt>
      <trkpt lat="42.547774000000025" lon="-1.6621110000000021">
        <ele>447.873</ele>
        <time>2022-06-19T11:41:17Z</time>
      </trkpt>
      <trkpt lat="42.54743800000003" lon="-1.662657000000002">
        <ele>447.899</ele>
        <time>2022-06-19T11:41:27Z</time>
      </trkpt>
      <trkpt lat="42.54707800000003" lon="-1.663260000000002">
        <ele>447.843</ele>
        <time>2022-06-19T11:41:38Z</time>
      </trkpt>
      <trkpt lat="42.54704300000003" lon="-1.663314000000002">
        <ele>447.886</ele>
        <time>2022-06-19T11:41:39Z</time>
      </trkpt>
      <trkpt lat="42.54675500000003" lon="-1.663780000000002">
        <ele>447.265</ele>
        <time>2022-06-19T11:41:47Z</time>
      </trkpt>
      <trkpt lat="42.54664900000003" lon="-1.663960000000002">
        <ele>446.444</ele>
        <time>2022-06-19T11:41:50Z</time>
      </trkpt>
      <trkpt lat="42.546614000000034" lon="-1.6640190000000021">
        <ele>446.005</ele>
        <time>2022-06-19T11:41:51Z</time>
      </trkpt>
      <trkpt lat="42.54627100000003" lon="-1.6645690000000022">
        <ele>445.015</ele>
        <time>2022-06-19T11:42:01Z</time>
      </trkpt>
      <trkpt lat="42.546239000000035" lon="-1.6646200000000022">
        <ele>445.009</ele>
        <time>2022-06-19T11:42:02Z</time>
      </trkpt>
      <trkpt lat="42.545924000000035" lon="-1.6650800000000021">
        <ele>444.845</ele>
        <time>2022-06-19T11:42:11Z</time>
      </trkpt>
      <trkpt lat="42.54558000000004" lon="-1.665445000000002">
        <ele>445.484</ele>
        <time>2022-06-19T11:42:20Z</time>
      </trkpt>
      <trkpt lat="42.54513800000004" lon="-1.6657410000000021">
        <ele>445.859</ele>
        <time>2022-06-19T11:42:29Z</time>
      </trkpt>
      <trkpt lat="42.54463000000003" lon="-1.666009000000002">
        <ele>445.283</ele>
        <time>2022-06-19T11:42:38Z</time>
      </trkpt>
      <trkpt lat="42.544570000000036" lon="-1.6660380000000021">
        <ele>445.035</ele>
        <time>2022-06-19T11:42:39Z</time>
      </trkpt>
      <trkpt lat="42.544390000000035" lon="-1.666125000000002">
        <ele>444.221</ele>
        <time>2022-06-19T11:42:42Z</time>
      </trkpt>
      <trkpt lat="42.54408700000003" lon="-1.6662730000000021">
        <ele>443.415</ele>
        <time>2022-06-19T11:42:47Z</time>
      </trkpt>
      <trkpt lat="42.54396700000003" lon="-1.6663320000000021">
        <ele>443.088</ele>
        <time>2022-06-19T11:42:49Z</time>
      </trkpt>
      <trkpt lat="42.543614000000034" lon="-1.6665100000000022">
        <ele>442.427</ele>
        <time>2022-06-19T11:42:55Z</time>
      </trkpt>
      <trkpt lat="42.54333600000003" lon="-1.666651000000002">
        <ele>441.819</ele>
        <time>2022-06-19T11:43:00Z</time>
      </trkpt>
      <trkpt lat="42.543118000000035" lon="-1.666765000000002">
        <ele>441.809</ele>
        <time>2022-06-19T11:43:04Z</time>
      </trkpt>
      <trkpt lat="42.542682000000035" lon="-1.6669720000000021">
        <ele>441.619</ele>
        <time>2022-06-19T11:43:12Z</time>
      </trkpt>
      <trkpt lat="42.54236300000004" lon="-1.6671360000000022">
        <ele>441.009</ele>
        <time>2022-06-19T11:43:18Z</time>
      </trkpt>
      <trkpt lat="42.542212000000035" lon="-1.6672170000000022">
        <ele>440.652</ele>
        <time>2022-06-19T11:43:21Z</time>
      </trkpt>
      <trkpt lat="42.541900000000034" lon="-1.6673700000000022">
        <ele>439.851</ele>
        <time>2022-06-19T11:43:27Z</time>
      </trkpt>
      <trkpt lat="42.541613000000034" lon="-1.6675100000000023">
        <ele>439.476</ele>
        <time>2022-06-19T11:43:33Z</time>
      </trkpt>
      <trkpt lat="42.54156300000003" lon="-1.6675350000000022">
        <ele>439.280</ele>
        <time>2022-06-19T11:43:34Z</time>
      </trkpt>
      <trkpt lat="42.541413000000034" lon="-1.6676140000000022">
        <ele>438.862</ele>
        <time>2022-06-19T11:43:37Z</time>
      </trkpt>
      <trkpt lat="42.54122300000003" lon="-1.667712000000002">
        <ele>438.648</ele>
        <time>2022-06-19T11:43:41Z</time>
      </trkpt>
      <trkpt lat="42.54083500000003" lon="-1.667909000000002">
        <ele>438.462</ele>
        <time>2022-06-19T11:43:49Z</time>
      </trkpt>
      <trkpt lat="42.54036800000003" lon="-1.668136000000002">
        <ele>438.415</ele>
        <time>2022-06-19T11:43:58Z</time>
      </trkpt>
      <trkpt lat="42.539902000000026" lon="-1.668363000000002">
        <ele>438.084</ele>
        <time>2022-06-19T11:44:07Z</time>
      </trkpt>
      <trkpt lat="42.53985100000003" lon="-1.668388000000002">
        <ele>437.836</ele>
        <time>2022-06-19T11:44:08Z</time>
      </trkpt>
      <trkpt lat="42.539441000000025" lon="-1.668593000000002">
        <ele>437.617</ele>
        <time>2022-06-19T11:44:16Z</time>
      </trkpt>
      <trkpt lat="42.53901500000003" lon="-1.668773000000002">
        <ele>437.018</ele>
        <time>2022-06-19T11:44:24Z</time>
      </trkpt>
      <trkpt lat="42.53876200000003" lon="-1.668924000000002">
        <ele>436.609</ele>
        <time>2022-06-19T11:44:29Z</time>
      </trkpt>
      <trkpt lat="42.53871100000003" lon="-1.668954000000002">
        <ele>436.624</ele>
        <time>2022-06-19T11:44:30Z</time>
      </trkpt>
      <trkpt lat="42.53837900000003" lon="-1.669101000000002">
        <ele>435.843</ele>
        <time>2022-06-19T11:44:36Z</time>
      </trkpt>
      <trkpt lat="42.53832300000003" lon="-1.669119000000002">
        <ele>435.888</ele>
        <time>2022-06-19T11:44:37Z</time>
      </trkpt>
      <trkpt lat="42.53820700000003" lon="-1.669156000000002">
        <ele>435.632</ele>
        <time>2022-06-19T11:44:39Z</time>
      </trkpt>
      <trkpt lat="42.53804400000003" lon="-1.669241000000002">
        <ele>435.464</ele>
        <time>2022-06-19T11:44:42Z</time>
      </trkpt>
      <trkpt lat="42.537932000000026" lon="-1.669295000000002">
        <ele>435.240</ele>
        <time>2022-06-19T11:44:44Z</time>
      </trkpt>
      <trkpt lat="42.53777100000003" lon="-1.669405000000002">
        <ele>435.064</ele>
        <time>2022-06-19T11:44:47Z</time>
      </trkpt>
      <trkpt lat="42.537555000000026" lon="-1.669530000000002">
        <ele>434.667</ele>
        <time>2022-06-19T11:44:51Z</time>
      </trkpt>
      <trkpt lat="42.537291000000025" lon="-1.669657000000002">
        <ele>434.046</ele>
        <time>2022-06-19T11:44:56Z</time>
      </trkpt>
      <trkpt lat="42.537097000000024" lon="-1.669753000000002">
        <ele>433.619</ele>
        <time>2022-06-19T11:45:00Z</time>
      </trkpt>
      <trkpt lat="42.53691000000003" lon="-1.669847000000002">
        <ele>432.609</ele>
        <time>2022-06-19T11:45:04Z</time>
      </trkpt>
      <trkpt lat="42.53681600000003" lon="-1.669896000000002">
        <ele>432.219</ele>
        <time>2022-06-19T11:45:06Z</time>
      </trkpt>
      <trkpt lat="42.536491000000034" lon="-1.670063000000002">
        <ele>431.209</ele>
        <time>2022-06-19T11:45:13Z</time>
      </trkpt>
      <trkpt lat="42.53644200000004" lon="-1.6700840000000021">
        <ele>431.022</ele>
        <time>2022-06-19T11:45:14Z</time>
      </trkpt>
      <trkpt lat="42.535981000000035" lon="-1.6703000000000021">
        <ele>431.241</ele>
        <time>2022-06-19T11:45:24Z</time>
      </trkpt>
      <trkpt lat="42.535936000000035" lon="-1.670322000000002">
        <ele>431.246</ele>
        <time>2022-06-19T11:45:25Z</time>
      </trkpt>
      <trkpt lat="42.53584800000004" lon="-1.670374000000002">
        <ele>431.280</ele>
        <time>2022-06-19T11:45:27Z</time>
      </trkpt>
      <trkpt lat="42.53570900000004" lon="-1.670436000000002">
        <ele>431.412</ele>
        <time>2022-06-19T11:45:30Z</time>
      </trkpt>
      <trkpt lat="42.53545300000004" lon="-1.670499000000002">
        <ele>431.638</ele>
        <time>2022-06-19T11:45:35Z</time>
      </trkpt>
      <trkpt lat="42.53536900000004" lon="-1.6705430000000019">
        <ele>431.822</ele>
        <time>2022-06-19T11:45:37Z</time>
      </trkpt>
      <trkpt lat="42.53504600000004" lon="-1.6707080000000019">
        <ele>432.275</ele>
        <time>2022-06-19T11:45:44Z</time>
      </trkpt>
      <trkpt lat="42.534909000000034" lon="-1.6707680000000018">
        <ele>432.434</ele>
        <time>2022-06-19T11:45:47Z</time>
      </trkpt>
      <trkpt lat="42.53482900000004" lon="-1.6708250000000018">
        <ele>432.677</ele>
        <time>2022-06-19T11:45:49Z</time>
      </trkpt>
      <trkpt lat="42.53478900000004" lon="-1.6708480000000019">
        <ele>432.861</ele>
        <time>2022-06-19T11:45:50Z</time>
      </trkpt>
      <trkpt lat="42.53466100000004" lon="-1.6709270000000018">
        <ele>433.027</ele>
        <time>2022-06-19T11:45:54Z</time>
      </trkpt>
      <trkpt lat="42.53464200000004" lon="-1.6709550000000017">
        <ele>433.209</ele>
        <time>2022-06-19T11:45:55Z</time>
      </trkpt>
      <trkpt lat="42.534621000000044" lon="-1.6710600000000018">
        <ele>434.288</ele>
        <time>2022-06-19T11:45:58Z</time>
      </trkpt>
      <trkpt lat="42.53463300000004" lon="-1.6711580000000017">
        <ele>434.637</ele>
        <time>2022-06-19T11:46:00Z</time>
      </trkpt>
      <trkpt lat="42.53464000000004" lon="-1.6712720000000016">
        <ele>435.242</ele>
        <time>2022-06-19T11:46:02Z</time>
      </trkpt>
      <trkpt lat="42.53463200000004" lon="-1.6713960000000017">
        <ele>435.626</ele>
        <time>2022-06-19T11:46:04Z</time>
      </trkpt>
      <trkpt lat="42.53459300000004" lon="-1.6715110000000017">
        <ele>436.058</ele>
        <time>2022-06-19T11:46:06Z</time>
      </trkpt>
      <trkpt lat="42.534501000000034" lon="-1.6715940000000018">
        <ele>436.044</ele>
        <time>2022-06-19T11:46:08Z</time>
      </trkpt>
      <trkpt lat="42.534450000000035" lon="-1.6716220000000017">
        <ele>436.078</ele>
        <time>2022-06-19T11:46:09Z</time>
      </trkpt>
      <trkpt lat="42.53439600000004" lon="-1.6716420000000016">
        <ele>436.051</ele>
        <time>2022-06-19T11:46:10Z</time>
      </trkpt>
      <trkpt lat="42.53423200000004" lon="-1.6716850000000016">
        <ele>436.040</ele>
        <time>2022-06-19T11:46:13Z</time>
      </trkpt>
      <trkpt lat="42.53399500000004" lon="-1.6717380000000017">
        <ele>434.425</ele>
        <time>2022-06-19T11:46:17Z</time>
      </trkpt>
      <trkpt lat="42.53382500000004" lon="-1.6717870000000017">
        <ele>433.626</ele>
        <time>2022-06-19T11:46:20Z</time>
      </trkpt>
      <trkpt lat="42.53371100000004" lon="-1.6718190000000017">
        <ele>433.608</ele>
        <time>2022-06-19T11:46:22Z</time>
      </trkpt>
      <trkpt lat="42.53332900000004" lon="-1.6719220000000017">
        <ele>433.209</ele>
        <time>2022-06-19T11:46:29Z</time>
      </trkpt>
      <trkpt lat="42.53300200000004" lon="-1.6720090000000016">
        <ele>433.033</ele>
        <time>2022-06-19T11:46:36Z</time>
      </trkpt>
      <trkpt lat="42.53275800000004" lon="-1.6721060000000016">
        <ele>433.262</ele>
        <time>2022-06-19T11:46:42Z</time>
      </trkpt>
      <trkpt lat="42.53251800000004" lon="-1.6721770000000016">
        <ele>433.287</ele>
        <time>2022-06-19T11:46:48Z</time>
      </trkpt>
      <trkpt lat="42.53224400000004" lon="-1.6722760000000017">
        <ele>433.271</ele>
        <time>2022-06-19T11:46:54Z</time>
      </trkpt>
      <trkpt lat="42.53191200000004" lon="-1.6723790000000016">
        <ele>433.043</ele>
        <time>2022-06-19T11:47:01Z</time>
      </trkpt>
      <trkpt lat="42.53177100000004" lon="-1.6724360000000016">
        <ele>433.279</ele>
        <time>2022-06-19T11:47:04Z</time>
      </trkpt>
      <trkpt lat="42.531722000000045" lon="-1.6724510000000017">
        <ele>433.233</ele>
        <time>2022-06-19T11:47:05Z</time>
      </trkpt>
      <trkpt lat="42.531618000000044" lon="-1.6724760000000016">
        <ele>433.286</ele>
        <time>2022-06-19T11:47:07Z</time>
      </trkpt>
      <trkpt lat="42.53108100000004" lon="-1.6726690000000017">
        <ele>433.255</ele>
        <time>2022-06-19T11:47:17Z</time>
      </trkpt>
      <trkpt lat="42.53071500000004" lon="-1.6727950000000018">
        <ele>433.059</ele>
        <time>2022-06-19T11:47:24Z</time>
      </trkpt>
      <trkpt lat="42.53061100000004" lon="-1.6728250000000018">
        <ele>432.603</ele>
        <time>2022-06-19T11:47:26Z</time>
      </trkpt>
      <trkpt lat="42.53032200000004" lon="-1.6729250000000018">
        <ele>432.023</ele>
        <time>2022-06-19T11:47:32Z</time>
      </trkpt>
      <trkpt lat="42.52996400000004" lon="-1.6730710000000018">
        <ele>432.009</ele>
        <time>2022-06-19T11:47:39Z</time>
      </trkpt>
      <trkpt lat="42.52959300000004" lon="-1.6731970000000018">
        <ele>431.876</ele>
        <time>2022-06-19T11:47:47Z</time>
      </trkpt>
      <trkpt lat="42.52951200000004" lon="-1.6732460000000018">
        <ele>431.865</ele>
        <time>2022-06-19T11:47:51Z</time>
      </trkpt>
      <trkpt lat="42.529502000000036" lon="-1.6732610000000019">
        <ele>432.060</ele>
        <time>2022-06-19T11:47:52Z</time>
      </trkpt>
      <trkpt lat="42.529502000000036" lon="-1.673333000000002">
        <ele>432.074</ele>
        <time>2022-06-19T11:47:55Z</time>
      </trkpt>
      <trkpt lat="42.529565000000034" lon="-1.673524000000002">
        <ele>432.036</ele>
        <time>2022-06-19T11:48:00Z</time>
      </trkpt>
      <trkpt lat="42.52965300000003" lon="-1.673930000000002">
        <ele>432.422</ele>
        <time>2022-06-19T11:48:08Z</time>
      </trkpt>
      <trkpt lat="42.52967100000003" lon="-1.6741040000000018">
        <ele>432.656</ele>
        <time>2022-06-19T11:48:12Z</time>
      </trkpt>
      <trkpt lat="42.529689000000026" lon="-1.6742930000000018">
        <ele>433.249</ele>
        <time>2022-06-19T11:48:17Z</time>
      </trkpt>
      <trkpt lat="42.52965100000002" lon="-1.6745100000000017">
        <ele>433.858</ele>
        <time>2022-06-19T11:48:23Z</time>
      </trkpt>
      <trkpt lat="42.529633000000025" lon="-1.6745280000000018">
        <ele>433.861</ele>
        <time>2022-06-19T11:48:24Z</time>
      </trkpt>
      <trkpt lat="42.529613000000026" lon="-1.6745500000000018">
        <ele>434.021</ele>
        <time>2022-06-19T11:48:26Z</time>
      </trkpt>
      <trkpt lat="42.52960300000002" lon="-1.6745700000000017">
        <ele>434.013</ele>
        <time>2022-06-19T11:48:27Z</time>
      </trkpt>
      <trkpt lat="42.52958100000002" lon="-1.6746340000000017">
        <ele>434.009</ele>
        <time>2022-06-19T11:48:29Z</time>
      </trkpt>
      <trkpt lat="42.52957100000002" lon="-1.6746630000000018">
        <ele>434.237</ele>
        <time>2022-06-19T11:48:30Z</time>
      </trkpt>
      <trkpt lat="42.529561000000015" lon="-1.6746850000000018">
        <ele>434.246</ele>
        <time>2022-06-19T11:48:31Z</time>
      </trkpt>
      <trkpt lat="42.529550000000015" lon="-1.6747660000000018">
        <ele>434.681</ele>
        <time>2022-06-19T11:48:34Z</time>
      </trkpt>
      <trkpt lat="42.52954500000001" lon="-1.6747750000000017">
        <ele>434.835</ele>
        <time>2022-06-19T11:48:35Z</time>
      </trkpt>
      <trkpt lat="42.52954000000001" lon="-1.6748010000000018">
        <ele>435.427</ele>
        <time>2022-06-19T11:48:37Z</time>
      </trkpt>
      <trkpt lat="42.52943400000001" lon="-1.6748100000000017">
        <ele>435.823</ele>
        <time>2022-06-19T11:48:42Z</time>
      </trkpt>
      <trkpt lat="42.52940100000001" lon="-1.6747980000000018">
        <ele>435.857</ele>
        <time>2022-06-19T11:48:44Z</time>
      </trkpt>
      <trkpt lat="42.529354000000005" lon="-1.6747950000000018">
        <ele>436.060</ele>
        <time>2022-06-19T11:48:46Z</time>
      </trkpt>
      <trkpt lat="42.529343000000004" lon="-1.6747820000000018">
        <ele>436.269</ele>
        <time>2022-06-19T11:48:47Z</time>
      </trkpt>
      <trkpt lat="42.529282" lon="-1.6747250000000018">
        <ele>436.441</ele>
        <time>2022-06-19T11:48:50Z</time>
      </trkpt>
      <trkpt lat="42.529211000000004" lon="-1.674713000000002">
        <ele>436.481</ele>
        <time>2022-06-19T11:48:52Z</time>
      </trkpt>
      <trkpt lat="42.529021" lon="-1.674720000000002">
        <ele>435.809</ele>
        <time>2022-06-19T11:48:57Z</time>
      </trkpt>
      <trkpt lat="42.528954" lon="-1.674742000000002">
        <ele>435.609</ele>
        <time>2022-06-19T11:49:00Z</time>
      </trkpt>
      <trkpt lat="42.528928" lon="-1.6747620000000019">
        <ele>435.475</ele>
        <time>2022-06-19T11:49:02Z</time>
      </trkpt>
      <trkpt lat="42.528917" lon="-1.6747710000000018">
        <ele>435.264</ele>
        <time>2022-06-19T11:49:03Z</time>
      </trkpt>
      <trkpt lat="42.528826" lon="-1.6748000000000018">
        <ele>435.059</ele>
        <time>2022-06-19T11:49:05Z</time>
      </trkpt>
      <trkpt lat="42.528767" lon="-1.6748140000000018">
        <ele>435.063</ele>
        <time>2022-06-19T11:49:06Z</time>
      </trkpt>
      <trkpt lat="42.528618" lon="-1.6748860000000019">
        <ele>434.695</ele>
        <time>2022-06-19T11:49:11Z</time>
      </trkpt>
      <trkpt lat="42.528568" lon="-1.6748920000000018">
        <ele>434.261</ele>
        <time>2022-06-19T11:49:13Z</time>
      </trkpt>
      <trkpt lat="42.528539" lon="-1.674902000000002">
        <ele>433.625</ele>
        <time>2022-06-19T11:49:15Z</time>
      </trkpt>
      <trkpt lat="42.528403000000004" lon="-1.6750780000000018">
        <ele>433.288</ele>
        <time>2022-06-19T11:49:21Z</time>
      </trkpt>
      <trkpt lat="42.528380000000006" lon="-1.6750910000000019">
        <ele>433.077</ele>
        <time>2022-06-19T11:49:22Z</time>
      </trkpt>
      <trkpt lat="42.528217000000005" lon="-1.6751400000000018">
        <ele>433.078</ele>
        <time>2022-06-19T11:49:28Z</time>
      </trkpt>
      <trkpt lat="42.528176" lon="-1.6751540000000018">
        <ele>433.233</ele>
        <time>2022-06-19T11:49:30Z</time>
      </trkpt>
      <trkpt lat="42.528128" lon="-1.675180000000002">
        <ele>433.426</ele>
        <time>2022-06-19T11:49:32Z</time>
      </trkpt>
      <trkpt lat="42.528078" lon="-1.6752160000000018">
        <ele>433.609</ele>
        <time>2022-06-19T11:49:34Z</time>
      </trkpt>
      <trkpt lat="42.528015" lon="-1.6753170000000017">
        <ele>434.068</ele>
        <time>2022-06-19T11:49:37Z</time>
      </trkpt>
      <trkpt lat="42.527992000000005" lon="-1.6753380000000018">
        <ele>434.217</ele>
        <time>2022-06-19T11:49:38Z</time>
      </trkpt>
      <trkpt lat="42.527921000000006" lon="-1.6754270000000018">
        <ele>434.462</ele>
        <time>2022-06-19T11:49:42Z</time>
      </trkpt>
      <trkpt lat="42.527817000000006" lon="-1.6755190000000018">
        <ele>434.636</ele>
        <time>2022-06-19T11:49:46Z</time>
      </trkpt>
      <trkpt lat="42.52775700000001" lon="-1.6755210000000018">
        <ele>434.618</ele>
        <time>2022-06-19T11:49:48Z</time>
      </trkpt>
      <trkpt lat="42.52770800000001" lon="-1.6755240000000018">
        <ele>434.674</ele>
        <time>2022-06-19T11:49:51Z</time>
      </trkpt>
      <trkpt lat="42.527583000000014" lon="-1.6756230000000019">
        <ele>434.878</ele>
        <time>2022-06-19T11:49:58Z</time>
      </trkpt>
      <trkpt lat="42.52748800000001" lon="-1.675711000000002">
        <ele>434.661</ele>
        <time>2022-06-19T11:50:03Z</time>
      </trkpt>
      <trkpt lat="42.52747500000001" lon="-1.675716000000002">
        <ele>434.670</ele>
        <time>2022-06-19T11:50:04Z</time>
      </trkpt>
      <trkpt lat="42.52742300000001" lon="-1.675676000000002">
        <ele>434.645</ele>
        <time>2022-06-19T11:50:06Z</time>
      </trkpt>
      <trkpt lat="42.52739200000001" lon="-1.6756610000000018">
        <ele>434.647</ele>
        <time>2022-06-19T11:50:07Z</time>
      </trkpt>
      <trkpt lat="42.52733100000001" lon="-1.675641000000002">
        <ele>434.411</ele>
        <time>2022-06-19T11:50:09Z</time>
      </trkpt>
      <trkpt lat="42.52720700000001" lon="-1.6757610000000018">
        <ele>433.809</ele>
        <time>2022-06-19T11:50:15Z</time>
      </trkpt>
      <trkpt lat="42.52719600000001" lon="-1.675784000000002">
        <ele>433.645</ele>
        <time>2022-06-19T11:50:16Z</time>
      </trkpt>
      <trkpt lat="42.52718400000001" lon="-1.675784000000002">
        <ele>433.014</ele>
        <time>2022-06-19T11:50:17Z</time>
      </trkpt>
      <trkpt lat="42.52718100000001" lon="-1.675780000000002">
        <ele>432.669</ele>
        <time>2022-06-19T11:50:18Z</time>
      </trkpt>
      <trkpt lat="42.52717800000001" lon="-1.6757790000000021">
        <ele>432.223</ele>
        <time>2022-06-19T11:50:19Z</time>
      </trkpt>
      <trkpt lat="42.52717600000001" lon="-1.675774000000002">
        <ele>431.835</ele>
        <time>2022-06-19T11:50:20Z</time>
      </trkpt>
      <trkpt lat="42.52717100000001" lon="-1.675785000000002">
        <ele>431.641</ele>
        <time>2022-06-19T11:50:21Z</time>
      </trkpt>
      <trkpt lat="42.52716700000001" lon="-1.675782000000002">
        <ele>431.435</ele>
        <time>2022-06-19T11:50:23Z</time>
      </trkpt>
      <trkpt lat="42.52716700000001" lon="-1.675782000000002">
        <ele>431.428</ele>
        <time>2022-06-19T11:50:25Z</time>
      </trkpt>
      <trkpt lat="42.52713100000001" lon="-1.6757980000000021">
        <ele>431.087</ele>
        <time>2022-06-19T11:50:29Z</time>
      </trkpt>
      <trkpt lat="42.52713100000001" lon="-1.6758030000000022">
        <ele>431.033</ele>
        <time>2022-06-19T11:50:30Z</time>
      </trkpt>
      <trkpt lat="42.52712900000001" lon="-1.675796000000002">
        <ele>431.023</ele>
        <time>2022-06-19T11:50:31Z</time>
      </trkpt>
      <trkpt lat="42.52713200000001" lon="-1.675796000000002">
        <ele>430.815</ele>
        <time>2022-06-19T11:50:33Z</time>
      </trkpt>
      <trkpt lat="42.52713200000001" lon="-1.675796000000002">
        <ele>430.809</ele>
        <time>2022-06-19T11:50:34Z</time>
      </trkpt>
      <trkpt lat="42.527133000000006" lon="-1.675648000000002">
        <ele>431.684</ele>
        <time>2022-06-19T11:52:07Z</time>
      </trkpt>
      <trkpt lat="42.527148000000004" lon="-1.675621000000002">
        <ele>431.653</ele>
        <time>2022-06-19T11:52:08Z</time>
      </trkpt>
      <trkpt lat="42.527155" lon="-1.675489000000002">
        <ele>431.628</ele>
        <time>2022-06-19T11:52:12Z</time>
      </trkpt>
      <trkpt lat="42.527172" lon="-1.675463000000002">
        <ele>431.682</ele>
        <time>2022-06-19T11:52:13Z</time>
      </trkpt>
      <trkpt lat="42.527211" lon="-1.6754210000000018">
        <ele>431.614</ele>
        <time>2022-06-19T11:52:15Z</time>
      </trkpt>
      <trkpt lat="42.527298" lon="-1.6753110000000018">
        <ele>431.470</ele>
        <time>2022-06-19T11:52:20Z</time>
      </trkpt>
      <trkpt lat="42.527318" lon="-1.6753030000000018">
        <ele>431.494</ele>
        <time>2022-06-19T11:52:21Z</time>
      </trkpt>
      <trkpt lat="42.527390000000004" lon="-1.6752580000000017">
        <ele>431.437</ele>
        <time>2022-06-19T11:52:24Z</time>
      </trkpt>
      <trkpt lat="42.527442" lon="-1.6752020000000016">
        <ele>431.656</ele>
        <time>2022-06-19T11:52:27Z</time>
      </trkpt>
      <trkpt lat="42.527449" lon="-1.6751890000000016">
        <ele>431.643</ele>
        <time>2022-06-19T11:52:28Z</time>
      </trkpt>
      <trkpt lat="42.527451" lon="-1.6751560000000016">
        <ele>431.664</ele>
        <time>2022-06-19T11:52:31Z</time>
      </trkpt>
      <trkpt lat="42.527464" lon="-1.6751100000000017">
        <ele>432.410</ele>
        <time>2022-06-19T11:52:38Z</time>
      </trkpt>
      <trkpt lat="42.52747" lon="-1.6751010000000017">
        <ele>432.409</ele>
        <time>2022-06-19T11:52:39Z</time>
      </trkpt>
      <trkpt lat="42.527504" lon="-1.6750060000000018">
        <ele>432.645</ele>
        <time>2022-06-19T11:52:44Z</time>
      </trkpt>
      <trkpt lat="42.527499" lon="-1.6750020000000019">
        <ele>432.694</ele>
        <time>2022-06-19T11:52:46Z</time>
      </trkpt>
      <trkpt lat="42.527468" lon="-1.6748810000000018">
        <ele>432.689</ele>
        <time>2022-06-19T11:52:51Z</time>
      </trkpt>
      <trkpt lat="42.527436" lon="-1.6748300000000018">
        <ele>432.613</ele>
        <time>2022-06-19T11:52:52Z</time>
      </trkpt>
      <trkpt lat="42.527438000000004" lon="-1.6748430000000019">
        <ele>432.625</ele>
        <time>2022-06-19T11:52:54Z</time>
      </trkpt>
      <trkpt lat="42.527460000000005" lon="-1.674839000000002">
        <ele>432.481</ele>
        <time>2022-06-19T11:52:56Z</time>
      </trkpt>
      <trkpt lat="42.527471000000006" lon="-1.674806000000002">
        <ele>432.465</ele>
        <time>2022-06-19T11:53:02Z</time>
      </trkpt>
      <trkpt lat="42.527466000000004" lon="-1.674800000000002">
        <ele>432.468</ele>
        <time>2022-06-19T11:53:04Z</time>
      </trkpt>
      <trkpt lat="42.52744500000001" lon="-1.674776000000002">
        <ele>432.247</ele>
        <time>2022-06-19T11:53:07Z</time>
      </trkpt>
      <trkpt lat="42.52747600000001" lon="-1.674823000000002">
        <ele>432.292</ele>
        <time>2022-06-19T11:53:11Z</time>
      </trkpt>
      <trkpt lat="42.52746700000001" lon="-1.6748590000000019">
        <ele>432.273</ele>
        <time>2022-06-19T11:53:12Z</time>
      </trkpt>
      <trkpt lat="42.52746700000001" lon="-1.6748650000000018">
        <ele>432.220</ele>
        <time>2022-06-19T11:53:13Z</time>
      </trkpt>
      <trkpt lat="42.527471000000006" lon="-1.674864000000002">
        <ele>432.209</ele>
        <time>2022-06-19T11:53:17Z</time>
      </trkpt>
      <trkpt lat="42.52755200000001" lon="-1.674836000000002">
        <ele>432.420</ele>
        <time>2022-06-19T11:53:28Z</time>
      </trkpt>
      <trkpt lat="42.527561000000006" lon="-1.674821000000002">
        <ele>432.269</ele>
        <time>2022-06-19T11:53:29Z</time>
      </trkpt>
      <trkpt lat="42.52758600000001" lon="-1.674802000000002">
        <ele>432.234</ele>
        <time>2022-06-19T11:53:31Z</time>
      </trkpt>
      <trkpt lat="42.52766400000001" lon="-1.6747600000000018">
        <ele>432.038</ele>
        <time>2022-06-19T11:53:34Z</time>
      </trkpt>
      <trkpt lat="42.527741000000006" lon="-1.6744820000000018">
        <ele>431.860</ele>
        <time>2022-06-19T11:53:38Z</time>
      </trkpt>
      <trkpt lat="42.527781000000004" lon="-1.6744690000000018">
        <ele>431.866</ele>
        <time>2022-06-19T11:53:40Z</time>
      </trkpt>
      <trkpt lat="42.527869" lon="-1.6740480000000018">
        <ele>431.870</ele>
        <time>2022-06-19T11:53:43Z</time>
      </trkpt>
      <trkpt lat="42.528055" lon="-1.6743580000000018">
        <ele>431.873</ele>
        <time>2022-06-19T11:53:48Z</time>
      </trkpt>
      <trkpt lat="42.528095" lon="-1.6745530000000017">
        <ele>431.872</ele>
        <time>2022-06-19T11:53:49Z</time>
      </trkpt>
      <trkpt lat="42.528086" lon="-1.6746040000000018">
        <ele>431.853</ele>
        <time>2022-06-19T11:53:52Z</time>
      </trkpt>
      <trkpt lat="42.528073" lon="-1.6745920000000019">
        <ele>431.804</ele>
        <time>2022-06-19T11:53:56Z</time>
      </trkpt>
      <trkpt lat="42.528058" lon="-1.674586000000002">
        <ele>431.814</ele>
        <time>2022-06-19T11:53:57Z</time>
      </trkpt>
      <trkpt lat="42.52798" lon="-1.674569000000002">
        <ele>432.009</ele>
        <time>2022-06-19T11:54:00Z</time>
      </trkpt>
      <trkpt lat="42.527963" lon="-1.674545000000002">
        <ele>432.086</ele>
        <time>2022-06-19T11:54:02Z</time>
      </trkpt>
      <trkpt lat="42.527917" lon="-1.674312000000002">
        <ele>432.025</ele>
        <time>2022-06-19T11:54:05Z</time>
      </trkpt>
      <trkpt lat="42.527927000000005" lon="-1.6741730000000021">
        <ele>432.080</ele>
        <time>2022-06-19T11:54:07Z</time>
      </trkpt>
      <trkpt lat="42.52802200000001" lon="-1.674112000000002">
        <ele>432.024</ele>
        <time>2022-06-19T11:54:11Z</time>
      </trkpt>
      <trkpt lat="42.528040000000004" lon="-1.6740650000000021">
        <ele>432.066</ele>
        <time>2022-06-19T11:54:13Z</time>
      </trkpt>
      <trkpt lat="42.528125" lon="-1.673982000000002">
        <ele>432.072</ele>
        <time>2022-06-19T11:54:17Z</time>
      </trkpt>
      <trkpt lat="42.528174" lon="-1.673944000000002">
        <ele>432.036</ele>
        <time>2022-06-19T11:54:19Z</time>
      </trkpt>
      <trkpt lat="42.528209" lon="-1.6739320000000022">
        <ele>432.049</ele>
        <time>2022-06-19T11:54:21Z</time>
      </trkpt>
      <trkpt lat="42.528296" lon="-1.6739700000000022">
        <ele>431.888</ele>
        <time>2022-06-19T11:54:26Z</time>
      </trkpt>
      <trkpt lat="42.52831" lon="-1.673998000000002">
        <ele>431.854</ele>
        <time>2022-06-19T11:54:27Z</time>
      </trkpt>
      <trkpt lat="42.528352" lon="-1.674145000000002">
        <ele>431.656</ele>
        <time>2022-06-19T11:54:32Z</time>
      </trkpt>
      <trkpt lat="42.528363999999996" lon="-1.674320000000002">
        <ele>431.811</ele>
        <time>2022-06-19T11:54:37Z</time>
      </trkpt>
      <trkpt lat="42.528389" lon="-1.674515000000002">
        <ele>431.609</ele>
        <time>2022-06-19T11:54:43Z</time>
      </trkpt>
      <trkpt lat="42.528453" lon="-1.674652000000002">
        <ele>431.866</ele>
        <time>2022-06-19T11:54:48Z</time>
      </trkpt>
      <trkpt lat="42.528525" lon="-1.674843000000002">
        <ele>432.295</ele>
        <time>2022-06-19T11:54:54Z</time>
      </trkpt>
      <trkpt lat="42.528569000000005" lon="-1.674976000000002">
        <ele>432.860</ele>
        <time>2022-06-19T11:54:59Z</time>
      </trkpt>
      <trkpt lat="42.528561" lon="-1.674997000000002">
        <ele>433.054</ele>
        <time>2022-06-19T11:55:00Z</time>
      </trkpt>
      <trkpt lat="42.528559" lon="-1.675013000000002">
        <ele>433.296</ele>
        <time>2022-06-19T11:55:01Z</time>
      </trkpt>
      <trkpt lat="42.528509" lon="-1.675052000000002">
        <ele>433.452</ele>
        <time>2022-06-19T11:55:04Z</time>
      </trkpt>
      <trkpt lat="42.528375" lon="-1.675128000000002">
        <ele>434.436</ele>
        <time>2022-06-19T11:55:11Z</time>
      </trkpt>
      <trkpt lat="42.528247" lon="-1.675135000000002">
        <ele>434.679</ele>
        <time>2022-06-19T11:55:18Z</time>
      </trkpt>
      <trkpt lat="42.528213" lon="-1.6751580000000021">
        <ele>434.848</ele>
        <time>2022-06-19T11:55:21Z</time>
      </trkpt>
      <trkpt lat="42.528159" lon="-1.675202000000002">
        <ele>434.837</ele>
        <time>2022-06-19T11:55:24Z</time>
      </trkpt>
      <trkpt lat="42.528135" lon="-1.675211000000002">
        <ele>434.849</ele>
        <time>2022-06-19T11:55:25Z</time>
      </trkpt>
      <trkpt lat="42.528086" lon="-1.675278000000002">
        <ele>434.813</ele>
        <time>2022-06-19T11:55:27Z</time>
      </trkpt>
      <trkpt lat="42.528049" lon="-1.675342000000002">
        <ele>434.809</ele>
        <time>2022-06-19T11:55:30Z</time>
      </trkpt>
      <trkpt lat="42.528011" lon="-1.6753770000000021">
        <ele>435.064</ele>
        <time>2022-06-19T11:55:35Z</time>
      </trkpt>
      <trkpt lat="42.52799" lon="-1.675415000000002">
        <ele>435.233</ele>
        <time>2022-06-19T11:55:37Z</time>
      </trkpt>
      <trkpt lat="42.527975000000005" lon="-1.6754390000000021">
        <ele>435.228</ele>
        <time>2022-06-19T11:55:38Z</time>
      </trkpt>
      <trkpt lat="42.527913000000005" lon="-1.6755060000000022">
        <ele>435.242</ele>
        <time>2022-06-19T11:55:42Z</time>
      </trkpt>
      <trkpt lat="42.527817000000006" lon="-1.6755020000000023">
        <ele>435.484</ele>
        <time>2022-06-19T11:55:46Z</time>
      </trkpt>
      <trkpt lat="42.52773400000001" lon="-1.6755040000000023">
        <ele>435.860</ele>
        <time>2022-06-19T11:55:48Z</time>
      </trkpt>
      <trkpt lat="42.52765400000001" lon="-1.6755540000000024">
        <ele>436.024</ele>
        <time>2022-06-19T11:55:51Z</time>
      </trkpt>
      <trkpt lat="42.527583000000014" lon="-1.6756370000000025">
        <ele>436.447</ele>
        <time>2022-06-19T11:55:56Z</time>
      </trkpt>
      <trkpt lat="42.52755300000001" lon="-1.6757420000000025">
        <ele>436.446</ele>
        <time>2022-06-19T11:56:02Z</time>
      </trkpt>
      <trkpt lat="42.52753700000001" lon="-1.6757090000000026">
        <ele>439.243</ele>
        <time>2022-06-19T12:39:27Z</time>
      </trkpt>
      <trkpt lat="42.52751600000001" lon="-1.6757080000000026">
        <ele>439.264</ele>
        <time>2022-06-19T12:39:29Z</time>
      </trkpt>
      <trkpt lat="42.52748300000001" lon="-1.6757160000000026">
        <ele>439.210</ele>
        <time>2022-06-19T12:39:31Z</time>
      </trkpt>
      <trkpt lat="42.527479000000014" lon="-1.6757160000000026">
        <ele>439.209</ele>
        <time>2022-06-19T12:39:32Z</time>
      </trkpt>
      <trkpt lat="42.527490000000014" lon="-1.6757450000000027">
        <ele>439.085</ele>
        <time>2022-06-19T12:39:36Z</time>
      </trkpt>
      <trkpt lat="42.527515000000015" lon="-1.6757460000000026">
        <ele>437.824</ele>
        <time>2022-06-19T12:42:22Z</time>
      </trkpt>
      <trkpt lat="42.527484000000015" lon="-1.6757520000000026">
        <ele>437.889</ele>
        <time>2022-06-19T12:42:25Z</time>
      </trkpt>
      <trkpt lat="42.527479000000014" lon="-1.6757640000000025">
        <ele>437.833</ele>
        <time>2022-06-19T12:42:28Z</time>
      </trkpt>
      <trkpt lat="42.527479000000014" lon="-1.6757640000000025">
        <ele>437.855</ele>
        <time>2022-06-19T12:42:30Z</time>
      </trkpt>
      <trkpt lat="42.52745700000001" lon="-1.6757840000000024">
        <ele>437.271</ele>
        <time>2022-06-19T12:42:32Z</time>
      </trkpt>
      <trkpt lat="42.52734000000001" lon="-1.6757680000000024">
        <ele>437.285</ele>
        <time>2022-06-19T12:42:33Z</time>
      </trkpt>
      <trkpt lat="42.52728700000001" lon="-1.6757500000000023">
        <ele>436.828</ele>
        <time>2022-06-19T12:42:34Z</time>
      </trkpt>
      <trkpt lat="42.52722800000001" lon="-1.6757410000000024">
        <ele>436.627</ele>
        <time>2022-06-19T12:42:35Z</time>
      </trkpt>
      <trkpt lat="42.527201000000005" lon="-1.6757290000000025">
        <ele>436.265</ele>
        <time>2022-06-19T12:42:36Z</time>
      </trkpt>
      <trkpt lat="42.527129" lon="-1.6756660000000025">
        <ele>435.868</ele>
        <time>2022-06-19T12:42:38Z</time>
      </trkpt>
      <trkpt lat="42.527096" lon="-1.6756410000000026">
        <ele>435.614</ele>
        <time>2022-06-19T12:42:39Z</time>
      </trkpt>
      <trkpt lat="42.527073" lon="-1.6756240000000027">
        <ele>435.409</ele>
        <time>2022-06-19T12:42:40Z</time>
      </trkpt>
      <trkpt lat="42.527008" lon="-1.6754810000000027">
        <ele>434.447</ele>
        <time>2022-06-19T12:42:45Z</time>
      </trkpt>
      <trkpt lat="42.526979000000004" lon="-1.6754620000000027">
        <ele>434.026</ele>
        <time>2022-06-19T12:42:47Z</time>
      </trkpt>
      <trkpt lat="42.526834" lon="-1.6754030000000026">
        <ele>433.681</ele>
        <time>2022-06-19T12:42:52Z</time>
      </trkpt>
      <trkpt lat="42.526722" lon="-1.6753530000000025">
        <ele>433.475</ele>
        <time>2022-06-19T12:42:56Z</time>
      </trkpt>
      <trkpt lat="42.526669" lon="-1.6753400000000025">
        <ele>433.467</ele>
        <time>2022-06-19T12:42:58Z</time>
      </trkpt>
      <trkpt lat="42.52664" lon="-1.6753190000000024">
        <ele>433.443</ele>
        <time>2022-06-19T12:43:00Z</time>
      </trkpt>
      <trkpt lat="42.526561" lon="-1.6752950000000024">
        <ele>433.447</ele>
        <time>2022-06-19T12:43:03Z</time>
      </trkpt>
      <trkpt lat="42.526546" lon="-1.6752840000000024">
        <ele>433.410</ele>
        <time>2022-06-19T12:43:05Z</time>
      </trkpt>
      <trkpt lat="42.526546" lon="-1.6752840000000024">
        <ele>433.499</ele>
        <time>2022-06-19T12:43:07Z</time>
      </trkpt>
      <trkpt lat="42.526535" lon="-1.6752800000000025">
        <ele>433.084</ele>
        <time>2022-06-19T12:43:34Z</time>
      </trkpt>
      <trkpt lat="42.526520000000005" lon="-1.6752830000000025">
        <ele>433.007</ele>
        <time>2022-06-19T12:43:35Z</time>
      </trkpt>
      <trkpt lat="42.526501" lon="-1.6752900000000026">
        <ele>433.017</ele>
        <time>2022-06-19T12:43:36Z</time>
      </trkpt>
      <trkpt lat="42.526484" lon="-1.6752990000000025">
        <ele>433.009</ele>
        <time>2022-06-19T12:43:38Z</time>
      </trkpt>
      <trkpt lat="42.526461000000005" lon="-1.6752930000000026">
        <ele>433.039</ele>
        <time>2022-06-19T12:43:39Z</time>
      </trkpt>
      <trkpt lat="42.52644600000001" lon="-1.6752740000000026">
        <ele>432.898</ele>
        <time>2022-06-19T12:43:40Z</time>
      </trkpt>
      <trkpt lat="42.526422000000004" lon="-1.6751950000000027">
        <ele>432.863</ele>
        <time>2022-06-19T12:43:42Z</time>
      </trkpt>
      <trkpt lat="42.52642" lon="-1.6750540000000027">
        <ele>432.647</ele>
        <time>2022-06-19T12:43:45Z</time>
      </trkpt>
      <trkpt lat="42.526407" lon="-1.6749150000000028">
        <ele>432.429</ele>
        <time>2022-06-19T12:43:48Z</time>
      </trkpt>
      <trkpt lat="42.526351999999996" lon="-1.674579000000003">
        <ele>432.245</ele>
        <time>2022-06-19T12:43:54Z</time>
      </trkpt>
      <trkpt lat="42.526272" lon="-1.674279000000003">
        <ele>432.019</ele>
        <time>2022-06-19T12:44:01Z</time>
      </trkpt>
      <trkpt lat="42.526265" lon="-1.6742530000000029">
        <ele>432.082</ele>
        <time>2022-06-19T12:44:05Z</time>
      </trkpt>
      <trkpt lat="42.526254" lon="-1.674233000000003">
        <ele>432.891</ele>
        <time>2022-06-19T12:44:44Z</time>
      </trkpt>
      <trkpt lat="42.526237" lon="-1.674166000000003">
        <ele>432.878</ele>
        <time>2022-06-19T12:44:46Z</time>
      </trkpt>
      <trkpt lat="42.526201" lon="-1.674009000000003">
        <ele>432.833</ele>
        <time>2022-06-19T12:44:50Z</time>
      </trkpt>
      <trkpt lat="42.526153" lon="-1.673741000000003">
        <ele>432.826</ele>
        <time>2022-06-19T12:44:57Z</time>
      </trkpt>
      <trkpt lat="42.526157" lon="-1.673687000000003">
        <ele>432.809</ele>
        <time>2022-06-19T12:45:01Z</time>
      </trkpt>
      <trkpt lat="42.526140999999996" lon="-1.673501000000003">
        <ele>432.888</ele>
        <time>2022-06-19T12:45:05Z</time>
      </trkpt>
      <trkpt lat="42.526064999999996" lon="-1.673171000000003">
        <ele>432.687</ele>
        <time>2022-06-19T12:45:11Z</time>
      </trkpt>
      <trkpt lat="42.525923999999996" lon="-1.672589000000003">
        <ele>432.852</ele>
        <time>2022-06-19T12:45:22Z</time>
      </trkpt>
      <trkpt lat="42.525856" lon="-1.672119000000003">
        <ele>432.856</ele>
        <time>2022-06-19T12:45:31Z</time>
      </trkpt>
      <trkpt lat="42.525802999999996" lon="-1.671752000000003">
        <ele>433.658</ele>
        <time>2022-06-19T12:45:38Z</time>
      </trkpt>
      <trkpt lat="42.52574499999999" lon="-1.671643000000003">
        <ele>433.644</ele>
        <time>2022-06-19T12:45:41Z</time>
      </trkpt>
      <trkpt lat="42.52570699999999" lon="-1.671646000000003">
        <ele>433.628</ele>
        <time>2022-06-19T12:45:42Z</time>
      </trkpt>
      <trkpt lat="42.52541799999999" lon="-1.6717260000000032">
        <ele>432.891</ele>
        <time>2022-06-19T12:45:49Z</time>
      </trkpt>
      <trkpt lat="42.52518399999999" lon="-1.6718020000000031">
        <ele>432.640</ele>
        <time>2022-06-19T12:45:55Z</time>
      </trkpt>
      <trkpt lat="42.52479799999999" lon="-1.671908000000003">
        <ele>433.028</ele>
        <time>2022-06-19T12:46:04Z</time>
      </trkpt>
      <trkpt lat="42.52464799999999" lon="-1.671941000000003">
        <ele>433.289</ele>
        <time>2022-06-19T12:46:07Z</time>
      </trkpt>
      <trkpt lat="42.52439799999999" lon="-1.6719910000000031">
        <ele>433.217</ele>
        <time>2022-06-19T12:46:12Z</time>
      </trkpt>
      <trkpt lat="42.52406599999999" lon="-1.672054000000003">
        <ele>433.209</ele>
        <time>2022-06-19T12:46:19Z</time>
      </trkpt>
      <trkpt lat="42.52403299999999" lon="-1.672065000000003">
        <ele>433.273</ele>
        <time>2022-06-19T12:46:20Z</time>
      </trkpt>
      <trkpt lat="42.52398499999999" lon="-1.6720880000000031">
        <ele>433.252</ele>
        <time>2022-06-19T12:46:21Z</time>
      </trkpt>
      <trkpt lat="42.52384499999999" lon="-1.6721960000000031">
        <ele>433.097</ele>
        <time>2022-06-19T12:46:25Z</time>
      </trkpt>
      <trkpt lat="42.52377199999999" lon="-1.6722520000000032">
        <ele>432.481</ele>
        <time>2022-06-19T12:46:29Z</time>
      </trkpt>
      <trkpt lat="42.52377199999999" lon="-1.6722520000000032">
        <ele>432.283</ele>
        <time>2022-06-19T12:46:30Z</time>
      </trkpt>
      <trkpt lat="42.52371999999999" lon="-1.672280000000003">
        <ele>432.669</ele>
        <time>2022-06-19T12:47:54Z</time>
      </trkpt>
      <trkpt lat="42.52364599999999" lon="-1.672313000000003">
        <ele>432.613</ele>
        <time>2022-06-19T12:47:56Z</time>
      </trkpt>
      <trkpt lat="42.52356399999999" lon="-1.672370000000003">
        <ele>432.486</ele>
        <time>2022-06-19T12:47:58Z</time>
      </trkpt>
      <trkpt lat="42.523512" lon="-1.672448000000003">
        <ele>432.055</ele>
        <time>2022-06-19T12:48:00Z</time>
      </trkpt>
      <trkpt lat="42.523506" lon="-1.672487000000003">
        <ele>431.837</ele>
        <time>2022-06-19T12:48:01Z</time>
      </trkpt>
      <trkpt lat="42.523514999999996" lon="-1.672519000000003">
        <ele>431.649</ele>
        <time>2022-06-19T12:48:02Z</time>
      </trkpt>
      <trkpt lat="42.523619" lon="-1.672613000000003">
        <ele>431.213</ele>
        <time>2022-06-19T12:48:06Z</time>
      </trkpt>
      <trkpt lat="42.523973999999995" lon="-1.672730000000003">
        <ele>431.409</ele>
        <time>2022-06-19T12:48:15Z</time>
      </trkpt>
      <trkpt lat="42.524258999999994" lon="-1.672862000000003">
        <ele>431.614</ele>
        <time>2022-06-19T12:48:22Z</time>
      </trkpt>
      <trkpt lat="42.52438599999999" lon="-1.6729360000000029">
        <ele>431.853</ele>
        <time>2022-06-19T12:48:25Z</time>
      </trkpt>
      <trkpt lat="42.524556999999994" lon="-1.6730310000000028">
        <ele>432.058</ele>
        <time>2022-06-19T12:48:29Z</time>
      </trkpt>
      <trkpt lat="42.524902" lon="-1.673173000000003">
        <ele>432.232</ele>
        <time>2022-06-19T12:48:36Z</time>
      </trkpt>
      <trkpt lat="42.525441" lon="-1.673397000000003">
        <ele>431.814</ele>
        <time>2022-06-19T12:48:47Z</time>
      </trkpt>
      <trkpt lat="42.525787" lon="-1.6735600000000028">
        <ele>431.690</ele>
        <time>2022-06-19T12:48:55Z</time>
      </trkpt>
      <trkpt lat="42.525827" lon="-1.6735850000000028">
        <ele>431.684</ele>
        <time>2022-06-19T12:48:56Z</time>
      </trkpt>
      <trkpt lat="42.525964" lon="-1.6736560000000027">
        <ele>431.857</ele>
        <time>2022-06-19T12:49:00Z</time>
      </trkpt>
      <trkpt lat="42.526118000000004" lon="-1.6737140000000026">
        <ele>432.026</ele>
        <time>2022-06-19T12:49:05Z</time>
      </trkpt>
      <trkpt lat="42.526141" lon="-1.6737530000000025">
        <ele>432.032</ele>
        <time>2022-06-19T12:49:06Z</time>
      </trkpt>
      <trkpt lat="42.526196000000006" lon="-1.6739880000000025">
        <ele>432.892</ele>
        <time>2022-06-19T12:49:10Z</time>
      </trkpt>
      <trkpt lat="42.52622000000001" lon="-1.6741020000000024">
        <ele>433.011</ele>
        <time>2022-06-19T12:49:12Z</time>
      </trkpt>
      <trkpt lat="42.526272000000006" lon="-1.6743490000000025">
        <ele>433.409</ele>
        <time>2022-06-19T12:49:17Z</time>
      </trkpt>
      <trkpt lat="42.52637000000001" lon="-1.6745830000000026">
        <ele>433.454</ele>
        <time>2022-06-19T12:49:22Z</time>
      </trkpt>
      <trkpt lat="42.52647300000001" lon="-1.6749870000000027">
        <ele>432.673</ele>
        <time>2022-06-19T12:49:29Z</time>
      </trkpt>
      <trkpt lat="42.52654300000001" lon="-1.6752400000000027">
        <ele>432.288</ele>
        <time>2022-06-19T12:49:34Z</time>
      </trkpt>
      <trkpt lat="42.526522000000014" lon="-1.6753490000000026">
        <ele>432.252</ele>
        <time>2022-06-19T12:49:36Z</time>
      </trkpt>
      <trkpt lat="42.52641900000001" lon="-1.6754350000000027">
        <ele>432.054</ele>
        <time>2022-06-19T12:49:39Z</time>
      </trkpt>
      <trkpt lat="42.52633400000001" lon="-1.6755200000000026">
        <ele>432.010</ele>
        <time>2022-06-19T12:49:41Z</time>
      </trkpt>
      <trkpt lat="42.52622000000001" lon="-1.6756250000000026">
        <ele>432.014</ele>
        <time>2022-06-19T12:49:44Z</time>
      </trkpt>
      <trkpt lat="42.526089000000006" lon="-1.6757540000000026">
        <ele>432.027</ele>
        <time>2022-06-19T12:49:47Z</time>
      </trkpt>
      <trkpt lat="42.526034" lon="-1.6758480000000027">
        <ele>432.056</ele>
        <time>2022-06-19T12:49:49Z</time>
      </trkpt>
      <trkpt lat="42.526004" lon="-1.6759440000000028">
        <ele>432.017</ele>
        <time>2022-06-19T12:49:51Z</time>
      </trkpt>
      <trkpt lat="42.525996" lon="-1.6760970000000028">
        <ele>432.287</ele>
        <time>2022-06-19T12:49:54Z</time>
      </trkpt>
      <trkpt lat="42.525989" lon="-1.676150000000003">
        <ele>432.215</ele>
        <time>2022-06-19T12:49:56Z</time>
      </trkpt>
      <trkpt lat="42.525982000000006" lon="-1.6761670000000028">
        <ele>432.409</ele>
        <time>2022-06-19T12:49:58Z</time>
      </trkpt>
      <trkpt lat="42.52597800000001" lon="-1.6761680000000028">
        <ele>432.812</ele>
        <time>2022-06-19T12:50:01Z</time>
      </trkpt>
      <trkpt lat="42.52601400000001" lon="-1.6762220000000028">
        <ele>436.061</ele>
        <time>2022-06-19T12:51:11Z</time>
      </trkpt>
      <trkpt lat="42.52602000000001" lon="-1.6762500000000027">
        <ele>436.076</ele>
        <time>2022-06-19T12:51:12Z</time>
      </trkpt>
      <trkpt lat="42.52601400000001" lon="-1.6762810000000026">
        <ele>436.070</ele>
        <time>2022-06-19T12:51:13Z</time>
      </trkpt>
      <trkpt lat="42.52601200000001" lon="-1.6763140000000025">
        <ele>436.242</ele>
        <time>2022-06-19T12:51:14Z</time>
      </trkpt>
      <trkpt lat="42.52602200000001" lon="-1.6763770000000024">
        <ele>436.428</ele>
        <time>2022-06-19T12:51:16Z</time>
      </trkpt>
      <trkpt lat="42.52603100000001" lon="-1.6766740000000024">
        <ele>437.042</ele>
        <time>2022-06-19T12:51:24Z</time>
      </trkpt>
      <trkpt lat="42.52605200000001" lon="-1.6769310000000024">
        <ele>437.215</ele>
        <time>2022-06-19T12:51:30Z</time>
      </trkpt>
      <trkpt lat="42.52605700000001" lon="-1.6769700000000023">
        <ele>437.264</ele>
        <time>2022-06-19T12:51:31Z</time>
      </trkpt>
      <trkpt lat="42.52606500000001" lon="-1.6770900000000022">
        <ele>437.476</ele>
        <time>2022-06-19T12:51:34Z</time>
      </trkpt>
      <trkpt lat="42.52606800000001" lon="-1.6771610000000021">
        <ele>437.690</ele>
        <time>2022-06-19T12:51:36Z</time>
      </trkpt>
      <trkpt lat="42.526075000000006" lon="-1.6771930000000022">
        <ele>437.819</ele>
        <time>2022-06-19T12:51:37Z</time>
      </trkpt>
      <trkpt lat="42.526064000000005" lon="-1.6773090000000022">
        <ele>438.609</ele>
        <time>2022-06-19T12:51:41Z</time>
      </trkpt>
      <trkpt lat="42.52606300000001" lon="-1.6773580000000021">
        <ele>439.878</ele>
        <time>2022-06-19T12:51:43Z</time>
      </trkpt>
      <trkpt lat="42.52606300000001" lon="-1.677367000000002">
        <ele>440.487</ele>
        <time>2022-06-19T12:51:45Z</time>
      </trkpt>
      <trkpt lat="42.52610400000001" lon="-1.677310000000002">
        <ele>442.652</ele>
        <time>2022-06-19T12:52:48Z</time>
      </trkpt>
      <trkpt lat="42.526086000000014" lon="-1.677068000000002">
        <ele>442.486</ele>
        <time>2022-06-19T12:52:53Z</time>
      </trkpt>
      <trkpt lat="42.526054000000016" lon="-1.677006000000002">
        <ele>442.488</ele>
        <time>2022-06-19T12:52:54Z</time>
      </trkpt>
      <trkpt lat="42.52603600000002" lon="-1.676931000000002">
        <ele>442.254</ele>
        <time>2022-06-19T12:52:55Z</time>
      </trkpt>
      <trkpt lat="42.52602800000002" lon="-1.676834000000002">
        <ele>442.258</ele>
        <time>2022-06-19T12:52:56Z</time>
      </trkpt>
      <trkpt lat="42.52600600000002" lon="-1.676617000000002">
        <ele>441.291</ele>
        <time>2022-06-19T12:52:59Z</time>
      </trkpt>
      <trkpt lat="42.52599400000002" lon="-1.676562000000002">
        <ele>440.680</ele>
        <time>2022-06-19T12:53:00Z</time>
      </trkpt>
      <trkpt lat="42.52597600000002" lon="-1.676520000000002">
        <ele>440.276</ele>
        <time>2022-06-19T12:53:01Z</time>
      </trkpt>
      <trkpt lat="42.52595700000002" lon="-1.676463000000002">
        <ele>438.890</ele>
        <time>2022-06-19T12:53:03Z</time>
      </trkpt>
      <trkpt lat="42.52594900000002" lon="-1.676445000000002">
        <ele>438.419</ele>
        <time>2022-06-19T12:53:04Z</time>
      </trkpt>
      <trkpt lat="42.52593200000002" lon="-1.6763920000000019">
        <ele>437.809</ele>
        <time>2022-06-19T12:53:07Z</time>
      </trkpt>
      <trkpt lat="42.52591300000002" lon="-1.6763650000000019">
        <ele>437.858</ele>
        <time>2022-06-19T12:53:08Z</time>
      </trkpt>
      <trkpt lat="42.52589300000002" lon="-1.676340000000002">
        <ele>437.897</ele>
        <time>2022-06-19T12:53:09Z</time>
      </trkpt>
      <trkpt lat="42.525838000000014" lon="-1.676309000000002">
        <ele>437.662</ele>
        <time>2022-06-19T12:53:11Z</time>
      </trkpt>
      <trkpt lat="42.52575700000001" lon="-1.6763190000000021">
        <ele>437.476</ele>
        <time>2022-06-19T12:53:13Z</time>
      </trkpt>
      <trkpt lat="42.525584000000016" lon="-1.676328000000002">
        <ele>437.048</ele>
        <time>2022-06-19T12:53:17Z</time>
      </trkpt>
      <trkpt lat="42.525500000000015" lon="-1.676323000000002">
        <ele>436.624</ele>
        <time>2022-06-19T12:53:19Z</time>
      </trkpt>
      <trkpt lat="42.52545600000001" lon="-1.676323000000002">
        <ele>436.458</ele>
        <time>2022-06-19T12:53:20Z</time>
      </trkpt>
      <trkpt lat="42.52525900000001" lon="-1.676384000000002">
        <ele>436.271</ele>
        <time>2022-06-19T12:53:25Z</time>
      </trkpt>
      <trkpt lat="42.524954000000015" lon="-1.676509000000002">
        <ele>436.020</ele>
        <time>2022-06-19T12:53:31Z</time>
      </trkpt>
      <trkpt lat="42.52483700000001" lon="-1.676582000000002">
        <ele>435.872</ele>
        <time>2022-06-19T12:53:33Z</time>
      </trkpt>
      <trkpt lat="42.52462100000001" lon="-1.676700000000002">
        <ele>435.413</ele>
        <time>2022-06-19T12:53:37Z</time>
      </trkpt>
      <trkpt lat="42.52426800000001" lon="-1.6768720000000021">
        <ele>434.814</ele>
        <time>2022-06-19T12:53:43Z</time>
      </trkpt>
      <trkpt lat="42.524085000000014" lon="-1.676927000000002">
        <ele>433.609</ele>
        <time>2022-06-19T12:53:46Z</time>
      </trkpt>
      <trkpt lat="42.52374000000001" lon="-1.677014000000002">
        <ele>432.678</ele>
        <time>2022-06-19T12:53:52Z</time>
      </trkpt>
      <trkpt lat="42.52366900000001" lon="-1.677030000000002">
        <ele>432.417</ele>
        <time>2022-06-19T12:53:53Z</time>
      </trkpt>
      <trkpt lat="42.52330600000001" lon="-1.677076000000002">
        <ele>431.422</ele>
        <time>2022-06-19T12:53:59Z</time>
      </trkpt>
      <trkpt lat="42.52324500000001" lon="-1.677064000000002">
        <ele>431.046</ele>
        <time>2022-06-19T12:54:00Z</time>
      </trkpt>
      <trkpt lat="42.52318500000001" lon="-1.677046000000002">
        <ele>430.448</ele>
        <time>2022-06-19T12:54:01Z</time>
      </trkpt>
      <trkpt lat="42.52300600000001" lon="-1.676974000000002">
        <ele>429.664</ele>
        <time>2022-06-19T12:54:04Z</time>
      </trkpt>
      <trkpt lat="42.52295500000001" lon="-1.676949000000002">
        <ele>429.458</ele>
        <time>2022-06-19T12:54:05Z</time>
      </trkpt>
      <trkpt lat="42.52284000000001" lon="-1.676889000000002">
        <ele>429.071</ele>
        <time>2022-06-19T12:54:07Z</time>
      </trkpt>
      <trkpt lat="42.52265600000001" lon="-1.6768100000000021">
        <ele>428.280</ele>
        <time>2022-06-19T12:54:11Z</time>
      </trkpt>
      <trkpt lat="42.52258900000001" lon="-1.676773000000002">
        <ele>428.261</ele>
        <time>2022-06-19T12:54:15Z</time>
      </trkpt>
      <trkpt lat="42.52258900000001" lon="-1.676773000000002">
        <ele>428.221</ele>
        <time>2022-06-19T12:54:16Z</time>
      </trkpt>
      <trkpt lat="42.52257200000001" lon="-1.676760000000002">
        <ele>431.013</ele>
        <time>2022-06-19T12:56:59Z</time>
      </trkpt>
      <trkpt lat="42.52251400000001" lon="-1.676722000000002">
        <ele>431.009</ele>
        <time>2022-06-19T12:57:02Z</time>
      </trkpt>
      <trkpt lat="42.52235900000001" lon="-1.676680000000002">
        <ele>430.887</ele>
        <time>2022-06-19T12:57:06Z</time>
      </trkpt>
      <trkpt lat="42.52223000000001" lon="-1.676602000000002">
        <ele>429.896</ele>
        <time>2022-06-19T12:57:09Z</time>
      </trkpt>
      <trkpt lat="42.52214500000001" lon="-1.676542000000002">
        <ele>429.281</ele>
        <time>2022-06-19T12:57:11Z</time>
      </trkpt>
      <trkpt lat="42.52190200000001" lon="-1.676505000000002">
        <ele>428.625</ele>
        <time>2022-06-19T12:57:16Z</time>
      </trkpt>
      <trkpt lat="42.52160900000001" lon="-1.6765030000000019">
        <ele>427.697</ele>
        <time>2022-06-19T12:57:22Z</time>
      </trkpt>
      <trkpt lat="42.52143400000001" lon="-1.6765040000000018">
        <ele>427.243</ele>
        <time>2022-06-19T12:57:26Z</time>
      </trkpt>
      <trkpt lat="42.52113400000001" lon="-1.6765110000000019">
        <ele>427.457</ele>
        <time>2022-06-19T12:57:33Z</time>
      </trkpt>
      <trkpt lat="42.52082200000001" lon="-1.676513000000002">
        <ele>427.070</ele>
        <time>2022-06-19T12:57:40Z</time>
      </trkpt>
      <trkpt lat="42.52036900000001" lon="-1.676513000000002">
        <ele>427.259</ele>
        <time>2022-06-19T12:57:50Z</time>
      </trkpt>
      <trkpt lat="42.52032400000001" lon="-1.676512000000002">
        <ele>427.094</ele>
        <time>2022-06-19T12:57:51Z</time>
      </trkpt>
      <trkpt lat="42.52014500000001" lon="-1.676512000000002">
        <ele>426.657</ele>
        <time>2022-06-19T12:57:55Z</time>
      </trkpt>
      <trkpt lat="42.519918000000004" lon="-1.676514000000002">
        <ele>426.422</ele>
        <time>2022-06-19T12:58:00Z</time>
      </trkpt>
      <trkpt lat="42.519782000000006" lon="-1.676512000000002">
        <ele>425.809</ele>
        <time>2022-06-19T12:58:03Z</time>
      </trkpt>
      <trkpt lat="42.51935700000001" lon="-1.676495000000002">
        <ele>426.090</ele>
        <time>2022-06-19T12:58:12Z</time>
      </trkpt>
      <trkpt lat="42.51885300000001" lon="-1.676484000000002">
        <ele>426.059</ele>
        <time>2022-06-19T12:58:22Z</time>
      </trkpt>
      <trkpt lat="42.51841900000001" lon="-1.676454000000002">
        <ele>425.264</ele>
        <time>2022-06-19T12:58:31Z</time>
      </trkpt>
      <trkpt lat="42.51837000000001" lon="-1.6764610000000022">
        <ele>424.858</ele>
        <time>2022-06-19T12:58:32Z</time>
      </trkpt>
      <trkpt lat="42.51828000000001" lon="-1.6765040000000022">
        <ele>424.670</ele>
        <time>2022-06-19T12:58:34Z</time>
      </trkpt>
      <trkpt lat="42.51824200000001" lon="-1.6765320000000021">
        <ele>424.656</ele>
        <time>2022-06-19T12:58:35Z</time>
      </trkpt>
      <trkpt lat="42.51820000000001" lon="-1.6765550000000022">
        <ele>424.620</ele>
        <time>2022-06-19T12:58:36Z</time>
      </trkpt>
      <trkpt lat="42.51810600000001" lon="-1.6765740000000022">
        <ele>424.493</ele>
        <time>2022-06-19T12:58:38Z</time>
      </trkpt>
      <trkpt lat="42.51805800000001" lon="-1.6765650000000023">
        <ele>424.442</ele>
        <time>2022-06-19T12:58:39Z</time>
      </trkpt>
      <trkpt lat="42.51796500000001" lon="-1.6765240000000023">
        <ele>424.436</ele>
        <time>2022-06-19T12:58:41Z</time>
      </trkpt>
      <trkpt lat="42.51778000000001" lon="-1.6764050000000024">
        <ele>424.217</ele>
        <time>2022-06-19T12:58:45Z</time>
      </trkpt>
      <trkpt lat="42.51748100000001" lon="-1.6763630000000023">
        <ele>424.218</ele>
        <time>2022-06-19T12:58:51Z</time>
      </trkpt>
      <trkpt lat="42.51717000000001" lon="-1.6763350000000024">
        <ele>423.809</ele>
        <time>2022-06-19T12:58:57Z</time>
      </trkpt>
      <trkpt lat="42.516935000000004" lon="-1.6763190000000023">
        <ele>423.454</ele>
        <time>2022-06-19T12:59:02Z</time>
      </trkpt>
      <trkpt lat="42.516683" lon="-1.6762960000000022">
        <ele>423.053</ele>
        <time>2022-06-19T12:59:07Z</time>
      </trkpt>
      <trkpt lat="42.516591" lon="-1.6762890000000021">
        <ele>423.038</ele>
        <time>2022-06-19T12:59:09Z</time>
      </trkpt>
      <trkpt lat="42.516123" lon="-1.676252000000002">
        <ele>422.842</ele>
        <time>2022-06-19T12:59:19Z</time>
      </trkpt>
      <trkpt lat="42.515623" lon="-1.676206000000002">
        <ele>422.274</ele>
        <time>2022-06-19T12:59:30Z</time>
      </trkpt>
      <trkpt lat="42.515263999999995" lon="-1.676180000000002">
        <ele>422.270</ele>
        <time>2022-06-19T12:59:38Z</time>
      </trkpt>
      <trkpt lat="42.514793" lon="-1.676146000000002">
        <ele>423.074</ele>
        <time>2022-06-19T12:59:48Z</time>
      </trkpt>
      <trkpt lat="42.514654" lon="-1.676107000000002">
        <ele>423.287</ele>
        <time>2022-06-19T12:59:52Z</time>
      </trkpt>
      <trkpt lat="42.514638" lon="-1.676078000000002">
        <ele>423.276</ele>
        <time>2022-06-19T12:59:53Z</time>
      </trkpt>
      <trkpt lat="42.5145" lon="-1.675842000000002">
        <ele>422.875</ele>
        <time>2022-06-19T12:59:59Z</time>
      </trkpt>
      <trkpt lat="42.514375" lon="-1.675705000000002">
        <ele>422.828</ele>
        <time>2022-06-19T13:00:05Z</time>
      </trkpt>
      <trkpt lat="42.514343000000004" lon="-1.675693000000002">
        <ele>423.020</ele>
        <time>2022-06-19T13:00:07Z</time>
      </trkpt>
      <trkpt lat="42.51432200000001" lon="-1.6756540000000022">
        <ele>423.009</ele>
        <time>2022-06-19T13:00:09Z</time>
      </trkpt>
      <trkpt lat="42.514320000000005" lon="-1.675647000000002">
        <ele>423.288</ele>
        <time>2022-06-19T13:00:11Z</time>
      </trkpt>
      <trkpt lat="42.514275000000005" lon="-1.6756710000000021">
        <ele>426.027</ele>
        <time>2022-06-19T13:09:35Z</time>
      </trkpt>
      <trkpt lat="42.514145000000006" lon="-1.675758000000002">
        <ele>426.022</ele>
        <time>2022-06-19T13:09:41Z</time>
      </trkpt>
      <trkpt lat="42.514014" lon="-1.6759060000000021">
        <ele>426.066</ele>
        <time>2022-06-19T13:09:46Z</time>
      </trkpt>
      <trkpt lat="42.513921" lon="-1.675952000000002">
        <ele>425.888</ele>
        <time>2022-06-19T13:09:50Z</time>
      </trkpt>
      <trkpt lat="42.513921" lon="-1.675952000000002">
        <ele>425.824</ele>
        <time>2022-06-19T13:09:51Z</time>
      </trkpt>
      <trkpt lat="42.513879" lon="-1.6759590000000022">
        <ele>425.698</ele>
        <time>2022-06-19T13:09:57Z</time>
      </trkpt>
      <trkpt lat="42.513832" lon="-1.6759870000000021">
        <ele>425.431</ele>
        <time>2022-06-19T13:09:59Z</time>
      </trkpt>
      <trkpt lat="42.513648" lon="-1.6760480000000022">
        <ele>425.250</ele>
        <time>2022-06-19T13:10:04Z</time>
      </trkpt>
      <trkpt lat="42.513426" lon="-1.6760170000000023">
        <ele>424.834</ele>
        <time>2022-06-19T13:10:09Z</time>
      </trkpt>
      <trkpt lat="42.51339" lon="-1.6760110000000024">
        <ele>424.655</ele>
        <time>2022-06-19T13:10:10Z</time>
      </trkpt>
      <trkpt lat="42.513244" lon="-1.6760020000000024">
        <ele>424.410</ele>
        <time>2022-06-19T13:10:13Z</time>
      </trkpt>
      <trkpt lat="42.51311" lon="-1.6759960000000025">
        <ele>424.009</ele>
        <time>2022-06-19T13:10:16Z</time>
      </trkpt>
      <trkpt lat="42.513065" lon="-1.6759900000000025">
        <ele>423.874</ele>
        <time>2022-06-19T13:10:17Z</time>
      </trkpt>
      <trkpt lat="42.512601999999994" lon="-1.6759550000000025">
        <ele>423.023</ele>
        <time>2022-06-19T13:10:27Z</time>
      </trkpt>
      <trkpt lat="42.512235" lon="-1.6759230000000025">
        <ele>422.848</ele>
        <time>2022-06-19T13:10:35Z</time>
      </trkpt>
      <trkpt lat="42.512058999999994" lon="-1.6759040000000025">
        <ele>423.032</ele>
        <time>2022-06-19T13:10:39Z</time>
      </trkpt>
      <trkpt lat="42.51188199999999" lon="-1.6758930000000025">
        <ele>423.064</ele>
        <time>2022-06-19T13:10:43Z</time>
      </trkpt>
      <trkpt lat="42.51148499999999" lon="-1.6758440000000026">
        <ele>422.840</ele>
        <time>2022-06-19T13:10:52Z</time>
      </trkpt>
      <trkpt lat="42.511444999999995" lon="-1.6758300000000026">
        <ele>422.834</ele>
        <time>2022-06-19T13:10:53Z</time>
      </trkpt>
      <trkpt lat="42.51128299999999" lon="-1.6757690000000025">
        <ele>422.637</ele>
        <time>2022-06-19T13:10:57Z</time>
      </trkpt>
      <trkpt lat="42.511115999999994" lon="-1.6756880000000025">
        <ele>422.016</ele>
        <time>2022-06-19T13:11:01Z</time>
      </trkpt>
      <trkpt lat="42.511030999999996" lon="-1.6756500000000025">
        <ele>421.847</ele>
        <time>2022-06-19T13:11:03Z</time>
      </trkpt>
      <trkpt lat="42.51085499999999" lon="-1.6756320000000025">
        <ele>421.829</ele>
        <time>2022-06-19T13:11:07Z</time>
      </trkpt>
      <trkpt lat="42.510808999999995" lon="-1.6756310000000025">
        <ele>421.821</ele>
        <time>2022-06-19T13:11:08Z</time>
      </trkpt>
      <trkpt lat="42.51076499999999" lon="-1.6756250000000026">
        <ele>421.809</ele>
        <time>2022-06-19T13:11:09Z</time>
      </trkpt>
      <trkpt lat="42.51058799999999" lon="-1.6756030000000026">
        <ele>421.895</ele>
        <time>2022-06-19T13:11:13Z</time>
      </trkpt>
      <trkpt lat="42.51054499999999" lon="-1.6756060000000026">
        <ele>421.864</ele>
        <time>2022-06-19T13:11:14Z</time>
      </trkpt>
      <trkpt lat="42.510200999999995" lon="-1.6756940000000027">
        <ele>422.039</ele>
        <time>2022-06-19T13:11:22Z</time>
      </trkpt>
      <trkpt lat="42.509795" lon="-1.6756980000000026">
        <ele>422.843</ele>
        <time>2022-06-19T13:11:31Z</time>
      </trkpt>
      <trkpt lat="42.509322" lon="-1.6756630000000026">
        <ele>423.035</ele>
        <time>2022-06-19T13:11:41Z</time>
      </trkpt>
      <trkpt lat="42.509273" lon="-1.6756560000000025">
        <ele>423.071</ele>
        <time>2022-06-19T13:11:42Z</time>
      </trkpt>
      <trkpt lat="42.508904" lon="-1.6756310000000025">
        <ele>422.495</ele>
        <time>2022-06-19T13:11:50Z</time>
      </trkpt>
      <trkpt lat="42.508461000000004" lon="-1.6755870000000026">
        <ele>422.458</ele>
        <time>2022-06-19T13:12:00Z</time>
      </trkpt>
      <trkpt lat="42.508061000000005" lon="-1.6755670000000027">
        <ele>422.867</ele>
        <time>2022-06-19T13:12:09Z</time>
      </trkpt>
      <trkpt lat="42.507644000000006" lon="-1.6755900000000028">
        <ele>422.655</ele>
        <time>2022-06-19T13:12:18Z</time>
      </trkpt>
      <trkpt lat="42.50744400000001" lon="-1.6756370000000027">
        <ele>421.807</ele>
        <time>2022-06-19T13:12:22Z</time>
      </trkpt>
      <trkpt lat="42.507360000000006" lon="-1.6757050000000027">
        <ele>421.817</ele>
        <time>2022-06-19T13:12:24Z</time>
      </trkpt>
      <trkpt lat="42.50732500000001" lon="-1.6757510000000027">
        <ele>422.009</ele>
        <time>2022-06-19T13:12:25Z</time>
      </trkpt>
      <trkpt lat="42.507250000000006" lon="-1.6758480000000027">
        <ele>421.846</ele>
        <time>2022-06-19T13:12:27Z</time>
      </trkpt>
      <trkpt lat="42.507203000000004" lon="-1.6758730000000026">
        <ele>421.825</ele>
        <time>2022-06-19T13:12:28Z</time>
      </trkpt>
      <trkpt lat="42.507103" lon="-1.6758900000000025">
        <ele>421.820</ele>
        <time>2022-06-19T13:12:30Z</time>
      </trkpt>
      <trkpt lat="42.507012" lon="-1.6758420000000025">
        <ele>421.834</ele>
        <time>2022-06-19T13:12:32Z</time>
      </trkpt>
      <trkpt lat="42.506851000000005" lon="-1.6756610000000025">
        <ele>421.626</ele>
        <time>2022-06-19T13:12:36Z</time>
      </trkpt>
      <trkpt lat="42.50680800000001" lon="-1.6756260000000025">
        <ele>421.442</ele>
        <time>2022-06-19T13:12:37Z</time>
      </trkpt>
      <trkpt lat="42.506629000000004" lon="-1.6755250000000026">
        <ele>419.856</ele>
        <time>2022-06-19T13:12:41Z</time>
      </trkpt>
      <trkpt lat="42.506541000000006" lon="-1.6754820000000026">
        <ele>418.649</ele>
        <time>2022-06-19T13:12:43Z</time>
      </trkpt>
      <trkpt lat="42.506455" lon="-1.6754360000000026">
        <ele>418.058</ele>
        <time>2022-06-19T13:12:45Z</time>
      </trkpt>
      <trkpt lat="42.506319000000005" lon="-1.6753820000000026">
        <ele>417.614</ele>
        <time>2022-06-19T13:12:48Z</time>
      </trkpt>
      <trkpt lat="42.505931000000004" lon="-1.6752450000000025">
        <ele>417.854</ele>
        <time>2022-06-19T13:12:56Z</time>
      </trkpt>
      <trkpt lat="42.505453" lon="-1.6750510000000025">
        <ele>418.009</ele>
        <time>2022-06-19T13:13:05Z</time>
      </trkpt>
      <trkpt lat="42.504962000000006" lon="-1.6748350000000025">
        <ele>417.209</ele>
        <time>2022-06-19T13:13:14Z</time>
      </trkpt>
      <trkpt lat="42.50479200000001" lon="-1.6747870000000025">
        <ele>417.262</ele>
        <time>2022-06-19T13:13:17Z</time>
      </trkpt>
      <trkpt lat="42.50466300000001" lon="-1.6747250000000025">
        <ele>417.031</ele>
        <time>2022-06-19T13:13:19Z</time>
      </trkpt>
      <trkpt lat="42.50444900000001" lon="-1.6746270000000025">
        <ele>416.696</ele>
        <time>2022-06-19T13:13:23Z</time>
      </trkpt>
      <trkpt lat="42.50439700000001" lon="-1.6746020000000026">
        <ele>416.660</ele>
        <time>2022-06-19T13:13:24Z</time>
      </trkpt>
      <trkpt lat="42.50413900000001" lon="-1.6744950000000025">
        <ele>416.242</ele>
        <time>2022-06-19T13:13:29Z</time>
      </trkpt>
      <trkpt lat="42.50394100000001" lon="-1.6744010000000025">
        <ele>416.038</ele>
        <time>2022-06-19T13:13:33Z</time>
      </trkpt>
      <trkpt lat="42.50364300000001" lon="-1.6742710000000025">
        <ele>415.882</ele>
        <time>2022-06-19T13:13:39Z</time>
      </trkpt>
      <trkpt lat="42.50339500000001" lon="-1.6741670000000024">
        <ele>415.685</ele>
        <time>2022-06-19T13:13:44Z</time>
      </trkpt>
      <trkpt lat="42.503208000000015" lon="-1.6740830000000024">
        <ele>415.464</ele>
        <time>2022-06-19T13:13:48Z</time>
      </trkpt>
      <trkpt lat="42.50278200000002" lon="-1.6739130000000024">
        <ele>414.838</ele>
        <time>2022-06-19T13:13:57Z</time>
      </trkpt>
      <trkpt lat="42.502684000000016" lon="-1.6738770000000025">
        <ele>414.670</ele>
        <time>2022-06-19T13:13:59Z</time>
      </trkpt>
      <trkpt lat="42.50244400000002" lon="-1.6738010000000025">
        <ele>414.217</ele>
        <time>2022-06-19T13:14:04Z</time>
      </trkpt>
      <trkpt lat="42.50220700000002" lon="-1.6736920000000026">
        <ele>413.609</ele>
        <time>2022-06-19T13:14:09Z</time>
      </trkpt>
      <trkpt lat="42.50216100000002" lon="-1.6736750000000027">
        <ele>413.624</ele>
        <time>2022-06-19T13:14:10Z</time>
      </trkpt>
      <trkpt lat="42.50211400000002" lon="-1.6736630000000028">
        <ele>413.623</ele>
        <time>2022-06-19T13:14:11Z</time>
      </trkpt>
      <trkpt lat="42.50184700000002" lon="-1.6735600000000028">
        <ele>412.818</ele>
        <time>2022-06-19T13:14:17Z</time>
      </trkpt>
      <trkpt lat="42.50180800000002" lon="-1.673532000000003">
        <ele>412.672</ele>
        <time>2022-06-19T13:14:18Z</time>
      </trkpt>
      <trkpt lat="42.50172600000002" lon="-1.673477000000003">
        <ele>412.454</ele>
        <time>2022-06-19T13:14:20Z</time>
      </trkpt>
      <trkpt lat="42.501564000000016" lon="-1.673397000000003">
        <ele>412.410</ele>
        <time>2022-06-19T13:14:24Z</time>
      </trkpt>
      <trkpt lat="42.501274000000016" lon="-1.673280000000003">
        <ele>412.684</ele>
        <time>2022-06-19T13:14:31Z</time>
      </trkpt>
      <trkpt lat="42.50081200000002" lon="-1.673083000000003">
        <ele>413.427</ele>
        <time>2022-06-19T13:14:42Z</time>
      </trkpt>
      <trkpt lat="42.50076900000002" lon="-1.673066000000003">
        <ele>413.446</ele>
        <time>2022-06-19T13:14:43Z</time>
      </trkpt>
      <trkpt lat="42.50043600000002" lon="-1.672920000000003">
        <ele>414.651</ele>
        <time>2022-06-19T13:14:51Z</time>
      </trkpt>
      <trkpt lat="42.50030700000002" lon="-1.672863000000003">
        <ele>414.601</ele>
        <time>2022-06-19T13:14:54Z</time>
      </trkpt>
      <trkpt lat="42.50027600000002" lon="-1.6728540000000032">
        <ele>414.811</ele>
        <time>2022-06-19T13:14:55Z</time>
      </trkpt>
      <trkpt lat="42.49981900000002" lon="-1.672666000000003">
        <ele>414.609</ele>
        <time>2022-06-19T13:15:06Z</time>
      </trkpt>
      <trkpt lat="42.49934500000003" lon="-1.672470000000003">
        <ele>414.646</ele>
        <time>2022-06-19T13:15:17Z</time>
      </trkpt>
      <trkpt lat="42.498828000000024" lon="-1.6722420000000031">
        <ele>414.425</ele>
        <time>2022-06-19T13:15:29Z</time>
      </trkpt>
      <trkpt lat="42.49878500000003" lon="-1.6722250000000032">
        <ele>414.450</ele>
        <time>2022-06-19T13:15:30Z</time>
      </trkpt>
      <trkpt lat="42.49826600000003" lon="-1.6719660000000032">
        <ele>414.424</ele>
        <time>2022-06-19T13:15:42Z</time>
      </trkpt>
      <trkpt lat="42.49822300000003" lon="-1.6719440000000032">
        <ele>414.466</ele>
        <time>2022-06-19T13:15:43Z</time>
      </trkpt>
      <trkpt lat="42.498140000000035" lon="-1.6718990000000031">
        <ele>414.472</ele>
        <time>2022-06-19T13:15:45Z</time>
      </trkpt>
      <trkpt lat="42.49764100000004" lon="-1.6716280000000032">
        <ele>413.656</ele>
        <time>2022-06-19T13:15:57Z</time>
      </trkpt>
      <trkpt lat="42.49739000000004" lon="-1.6715520000000033">
        <ele>413.459</ele>
        <time>2022-06-19T13:16:03Z</time>
      </trkpt>
      <trkpt lat="42.497346000000036" lon="-1.6715590000000033">
        <ele>413.448</ele>
        <time>2022-06-19T13:16:04Z</time>
      </trkpt>
      <trkpt lat="42.49730500000003" lon="-1.6715820000000035">
        <ele>413.485</ele>
        <time>2022-06-19T13:16:05Z</time>
      </trkpt>
      <trkpt lat="42.497239000000036" lon="-1.6716560000000034">
        <ele>413.489</ele>
        <time>2022-06-19T13:16:07Z</time>
      </trkpt>
      <trkpt lat="42.497177000000036" lon="-1.6717320000000033">
        <ele>413.617</ele>
        <time>2022-06-19T13:16:09Z</time>
      </trkpt>
      <trkpt lat="42.49710600000004" lon="-1.6717940000000033">
        <ele>413.609</ele>
        <time>2022-06-19T13:16:11Z</time>
      </trkpt>
      <trkpt lat="42.49703000000004" lon="-1.6718360000000034">
        <ele>413.639</ele>
        <time>2022-06-19T13:16:13Z</time>
      </trkpt>
      <trkpt lat="42.49698800000004" lon="-1.6718470000000034">
        <ele>413.628</ele>
        <time>2022-06-19T13:16:14Z</time>
      </trkpt>
      <trkpt lat="42.49690300000004" lon="-1.6718450000000034">
        <ele>413.423</ele>
        <time>2022-06-19T13:16:16Z</time>
      </trkpt>
      <trkpt lat="42.496814000000036" lon="-1.6718260000000034">
        <ele>413.467</ele>
        <time>2022-06-19T13:16:18Z</time>
      </trkpt>
      <trkpt lat="42.49668000000003" lon="-1.6717610000000034">
        <ele>413.699</ele>
        <time>2022-06-19T13:16:21Z</time>
      </trkpt>
      <trkpt lat="42.49661600000003" lon="-1.6716760000000035">
        <ele>413.665</ele>
        <time>2022-06-19T13:16:23Z</time>
      </trkpt>
      <trkpt lat="42.49656200000003" lon="-1.6715600000000035">
        <ele>413.619</ele>
        <time>2022-06-19T13:16:25Z</time>
      </trkpt>
      <trkpt lat="42.49652600000003" lon="-1.6714210000000036">
        <ele>413.862</ele>
        <time>2022-06-19T13:16:27Z</time>
      </trkpt>
      <trkpt lat="42.49652000000003" lon="-1.6712720000000036">
        <ele>414.031</ele>
        <time>2022-06-19T13:16:29Z</time>
      </trkpt>
      <trkpt lat="42.496553000000034" lon="-1.6711200000000037">
        <ele>414.217</ele>
        <time>2022-06-19T13:16:31Z</time>
      </trkpt>
      <trkpt lat="42.496615000000034" lon="-1.6709740000000037">
        <ele>414.687</ele>
        <time>2022-06-19T13:16:33Z</time>
      </trkpt>
      <trkpt lat="42.496645000000036" lon="-1.6709010000000037">
        <ele>414.615</ele>
        <time>2022-06-19T13:16:34Z</time>
      </trkpt>
      <trkpt lat="42.49668600000004" lon="-1.6707370000000037">
        <ele>414.609</ele>
        <time>2022-06-19T13:16:36Z</time>
      </trkpt>
      <trkpt lat="42.49668700000004" lon="-1.6705600000000036">
        <ele>414.872</ele>
        <time>2022-06-19T13:16:38Z</time>
      </trkpt>
      <trkpt lat="42.496648000000036" lon="-1.6703850000000036">
        <ele>414.871</ele>
        <time>2022-06-19T13:16:40Z</time>
      </trkpt>
      <trkpt lat="42.49657300000003" lon="-1.6702300000000037">
        <ele>414.886</ele>
        <time>2022-06-19T13:16:42Z</time>
      </trkpt>
      <trkpt lat="42.496480000000034" lon="-1.6700930000000036">
        <ele>414.650</ele>
        <time>2022-06-19T13:16:44Z</time>
      </trkpt>
      <trkpt lat="42.496333000000035" lon="-1.6698920000000037">
        <ele>413.282</ele>
        <time>2022-06-19T13:16:47Z</time>
      </trkpt>
      <trkpt lat="42.496145000000034" lon="-1.6696390000000036">
        <ele>412.298</ele>
        <time>2022-06-19T13:16:51Z</time>
      </trkpt>
      <trkpt lat="42.49605100000004" lon="-1.6695230000000036">
        <ele>412.092</ele>
        <time>2022-06-19T13:16:53Z</time>
      </trkpt>
      <trkpt lat="42.49575000000004" lon="-1.6691140000000035">
        <ele>411.235</ele>
        <time>2022-06-19T13:17:00Z</time>
      </trkpt>
      <trkpt lat="42.49533000000004" lon="-1.6685650000000036">
        <ele>411.424</ele>
        <time>2022-06-19T13:17:10Z</time>
      </trkpt>
      <trkpt lat="42.49518000000004" lon="-1.6683650000000037">
        <ele>411.627</ele>
        <time>2022-06-19T13:17:14Z</time>
      </trkpt>
      <trkpt lat="42.49512900000004" lon="-1.6683230000000036">
        <ele>411.668</ele>
        <time>2022-06-19T13:17:16Z</time>
      </trkpt>
      <trkpt lat="42.49512000000004" lon="-1.6683170000000036">
        <ele>411.814</ele>
        <time>2022-06-19T13:17:19Z</time>
      </trkpt>
      <trkpt lat="42.49509800000004" lon="-1.6682610000000035">
        <ele>414.009</ele>
        <time>2022-06-19T13:19:18Z</time>
      </trkpt>
      <trkpt lat="42.49505500000004" lon="-1.6681990000000035">
        <ele>414.073</ele>
        <time>2022-06-19T13:19:20Z</time>
      </trkpt>
      <trkpt lat="42.494911000000045" lon="-1.6679850000000036">
        <ele>412.672</ele>
        <time>2022-06-19T13:19:25Z</time>
      </trkpt>
      <trkpt lat="42.49469300000005" lon="-1.6676860000000036">
        <ele>411.637</ele>
        <time>2022-06-19T13:19:31Z</time>
      </trkpt>
      <trkpt lat="42.494652000000045" lon="-1.6676340000000036">
        <ele>411.661</ele>
        <time>2022-06-19T13:19:32Z</time>
      </trkpt>
      <trkpt lat="42.49423700000005" lon="-1.6670590000000036">
        <ele>411.293</ele>
        <time>2022-06-19T13:19:43Z</time>
      </trkpt>
      <trkpt lat="42.49415700000005" lon="-1.6669560000000037">
        <ele>410.669</ele>
        <time>2022-06-19T13:19:45Z</time>
      </trkpt>
      <trkpt lat="42.49400500000005" lon="-1.6667590000000037">
        <ele>409.483</ele>
        <time>2022-06-19T13:19:49Z</time>
      </trkpt>
      <trkpt lat="42.49388900000005" lon="-1.6666070000000037">
        <ele>409.496</ele>
        <time>2022-06-19T13:19:52Z</time>
      </trkpt>
      <trkpt lat="42.493534000000054" lon="-1.6661600000000036">
        <ele>409.255</ele>
        <time>2022-06-19T13:20:01Z</time>
      </trkpt>
      <trkpt lat="42.49323600000005" lon="-1.6657430000000037">
        <ele>409.651</ele>
        <time>2022-06-19T13:20:09Z</time>
      </trkpt>
      <trkpt lat="42.49315700000005" lon="-1.6656440000000037">
        <ele>409.601</ele>
        <time>2022-06-19T13:20:11Z</time>
      </trkpt>
      <trkpt lat="42.49305900000005" lon="-1.6655730000000037">
        <ele>409.611</ele>
        <time>2022-06-19T13:20:13Z</time>
      </trkpt>
      <trkpt lat="42.49290400000005" lon="-1.6655090000000037">
        <ele>409.609</ele>
        <time>2022-06-19T13:20:16Z</time>
      </trkpt>
      <trkpt lat="42.492864000000054" lon="-1.6654630000000037">
        <ele>409.676</ele>
        <time>2022-06-19T13:20:17Z</time>
      </trkpt>
      <trkpt lat="42.49283100000005" lon="-1.6654060000000037">
        <ele>409.455</ele>
        <time>2022-06-19T13:20:18Z</time>
      </trkpt>
      <trkpt lat="42.49278400000005" lon="-1.6652730000000038">
        <ele>409.610</ele>
        <time>2022-06-19T13:20:20Z</time>
      </trkpt>
      <trkpt lat="42.49276600000005" lon="-1.6652000000000038">
        <ele>409.644</ele>
        <time>2022-06-19T13:20:21Z</time>
      </trkpt>
      <trkpt lat="42.492745000000056" lon="-1.6651300000000038">
        <ele>409.646</ele>
        <time>2022-06-19T13:20:22Z</time>
      </trkpt>
      <trkpt lat="42.49263200000006" lon="-1.6649510000000038">
        <ele>409.662</ele>
        <time>2022-06-19T13:20:25Z</time>
      </trkpt>
      <trkpt lat="42.49226500000006" lon="-1.6644330000000038">
        <ele>409.856</ele>
        <time>2022-06-19T13:20:34Z</time>
      </trkpt>
      <trkpt lat="42.49191400000006" lon="-1.6639160000000037">
        <ele>409.889</ele>
        <time>2022-06-19T13:20:43Z</time>
      </trkpt>
      <trkpt lat="42.49154000000006" lon="-1.6634090000000037">
        <ele>409.838</ele>
        <time>2022-06-19T13:20:52Z</time>
      </trkpt>
      <trkpt lat="42.491133000000055" lon="-1.6628620000000036">
        <ele>409.461</ele>
        <time>2022-06-19T13:21:02Z</time>
      </trkpt>
      <trkpt lat="42.491062000000056" lon="-1.6627660000000035">
        <ele>409.221</ele>
        <time>2022-06-19T13:21:04Z</time>
      </trkpt>
      <trkpt lat="42.49070900000006" lon="-1.6622860000000035">
        <ele>409.013</ele>
        <time>2022-06-19T13:21:13Z</time>
      </trkpt>
      <trkpt lat="42.49031000000006" lon="-1.6617400000000035">
        <ele>409.009</ele>
        <time>2022-06-19T13:21:23Z</time>
      </trkpt>
      <trkpt lat="42.49027000000006" lon="-1.6616850000000036">
        <ele>409.047</ele>
        <time>2022-06-19T13:21:24Z</time>
      </trkpt>
      <trkpt lat="42.48995100000006" lon="-1.6612550000000037">
        <ele>408.666</ele>
        <time>2022-06-19T13:21:32Z</time>
      </trkpt>
      <trkpt lat="42.48986900000006" lon="-1.6611460000000038">
        <ele>408.421</ele>
        <time>2022-06-19T13:21:34Z</time>
      </trkpt>
      <trkpt lat="42.489553000000065" lon="-1.6607160000000039">
        <ele>408.265</ele>
        <time>2022-06-19T13:21:42Z</time>
      </trkpt>
      <trkpt lat="42.489164000000066" lon="-1.6601800000000038">
        <ele>408.077</ele>
        <time>2022-06-19T13:21:52Z</time>
      </trkpt>
      <trkpt lat="42.488897000000065" lon="-1.6598110000000037">
        <ele>408.013</ele>
        <time>2022-06-19T13:21:59Z</time>
      </trkpt>
      <trkpt lat="42.48853800000006" lon="-1.6593260000000036">
        <ele>407.647</ele>
        <time>2022-06-19T13:22:08Z</time>
      </trkpt>
      <trkpt lat="42.488143000000065" lon="-1.6587870000000036">
        <ele>407.020</ele>
        <time>2022-06-19T13:22:18Z</time>
      </trkpt>
      <trkpt lat="42.48806600000007" lon="-1.6586780000000036">
        <ele>407.039</ele>
        <time>2022-06-19T13:22:20Z</time>
      </trkpt>
      <trkpt lat="42.487676000000064" lon="-1.6581600000000036">
        <ele>406.871</ele>
        <time>2022-06-19T13:22:30Z</time>
      </trkpt>
      <trkpt lat="42.48749500000007" lon="-1.6579030000000037">
        <ele>406.441</ele>
        <time>2022-06-19T13:22:35Z</time>
      </trkpt>
      <trkpt lat="42.487341000000065" lon="-1.6576970000000038">
        <ele>407.015</ele>
        <time>2022-06-19T13:22:39Z</time>
      </trkpt>
      <trkpt lat="42.48694900000007" lon="-1.6571630000000037">
        <ele>407.009</ele>
        <time>2022-06-19T13:22:49Z</time>
      </trkpt>
      <trkpt lat="42.48686900000007" lon="-1.6570570000000038">
        <ele>407.288</ele>
        <time>2022-06-19T13:22:51Z</time>
      </trkpt>
      <trkpt lat="42.48656000000007" lon="-1.6566240000000039">
        <ele>407.237</ele>
        <time>2022-06-19T13:22:59Z</time>
      </trkpt>
      <trkpt lat="42.48625000000007" lon="-1.6562150000000038">
        <ele>406.632</ele>
        <time>2022-06-19T13:23:07Z</time>
      </trkpt>
      <trkpt lat="42.48591000000007" lon="-1.6557520000000037">
        <ele>406.256</ele>
        <time>2022-06-19T13:23:16Z</time>
      </trkpt>
      <trkpt lat="42.48558500000007" lon="-1.6553240000000036">
        <ele>406.028</ele>
        <time>2022-06-19T13:23:25Z</time>
      </trkpt>
      <trkpt lat="42.48534800000007" lon="-1.6549870000000035">
        <ele>405.844</ele>
        <time>2022-06-19T13:23:32Z</time>
      </trkpt>
      <trkpt lat="42.485283000000074" lon="-1.6548900000000035">
        <ele>405.848</ele>
        <time>2022-06-19T13:23:34Z</time>
      </trkpt>
      <trkpt lat="42.48511300000008" lon="-1.6546540000000036">
        <ele>405.441</ele>
        <time>2022-06-19T13:23:39Z</time>
      </trkpt>
      <trkpt lat="42.48483000000007" lon="-1.6542670000000037">
        <ele>405.440</ele>
        <time>2022-06-19T13:23:47Z</time>
      </trkpt>
      <trkpt lat="42.48449100000008" lon="-1.6538050000000037">
        <ele>405.637</ele>
        <time>2022-06-19T13:23:57Z</time>
      </trkpt>
      <trkpt lat="42.48439200000008" lon="-1.6536770000000038">
        <ele>405.449</ele>
        <time>2022-06-19T13:24:00Z</time>
      </trkpt>
      <trkpt lat="42.48427000000008" lon="-1.6535010000000039">
        <ele>405.413</ele>
        <time>2022-06-19T13:24:04Z</time>
      </trkpt>
      <trkpt lat="42.48421200000008" lon="-1.6534130000000038">
        <ele>405.809</ele>
        <time>2022-06-19T13:24:06Z</time>
      </trkpt>
      <trkpt lat="42.48408400000008" lon="-1.6532490000000037">
        <ele>406.644</ele>
        <time>2022-06-19T13:24:10Z</time>
      </trkpt>
      <trkpt lat="42.48405300000008" lon="-1.6532040000000037">
        <ele>407.053</ele>
        <time>2022-06-19T13:24:11Z</time>
      </trkpt>
      <trkpt lat="42.48381700000008" lon="-1.6528990000000037">
        <ele>407.648</ele>
        <time>2022-06-19T13:24:18Z</time>
      </trkpt>
      <trkpt lat="42.48375700000008" lon="-1.6528200000000037">
        <ele>407.882</ele>
        <time>2022-06-19T13:24:20Z</time>
      </trkpt>
      <trkpt lat="42.48341500000008" lon="-1.6523490000000036">
        <ele>407.824</ele>
        <time>2022-06-19T13:24:31Z</time>
      </trkpt>
      <trkpt lat="42.48320900000008" lon="-1.6520430000000037">
        <ele>407.640</ele>
        <time>2022-06-19T13:24:39Z</time>
      </trkpt>
      <trkpt lat="42.48310500000008" lon="-1.6519040000000038">
        <ele>407.814</ele>
        <time>2022-06-19T13:24:43Z</time>
      </trkpt>
      <trkpt lat="42.48301600000008" lon="-1.651803000000004">
        <ele>408.897</ele>
        <time>2022-06-19T13:24:47Z</time>
      </trkpt>
      <trkpt lat="42.48299300000008" lon="-1.6517930000000038">
        <ele>408.826</ele>
        <time>2022-06-19T13:24:48Z</time>
      </trkpt>
      <trkpt lat="42.48294500000008" lon="-1.6517850000000038">
        <ele>409.823</ele>
        <time>2022-06-19T13:24:52Z</time>
      </trkpt>
      <trkpt lat="42.48294500000008" lon="-1.6517850000000038">
        <ele>409.883</ele>
        <time>2022-06-19T13:24:53Z</time>
      </trkpt>
      <trkpt lat="42.48297100000008" lon="-1.6517260000000038">
        <ele>410.411</ele>
        <time>2022-06-19T13:25:02Z</time>
      </trkpt>
      <trkpt lat="42.48301500000008" lon="-1.6517130000000038">
        <ele>410.409</ele>
        <time>2022-06-19T13:25:04Z</time>
      </trkpt>
      <trkpt lat="42.48316200000008" lon="-1.6515770000000038">
        <ele>410.453</ele>
        <time>2022-06-19T13:25:09Z</time>
      </trkpt>
      <trkpt lat="42.48320700000008" lon="-1.6514660000000039">
        <ele>410.492</ele>
        <time>2022-06-19T13:25:11Z</time>
      </trkpt>
      <trkpt lat="42.48323300000008" lon="-1.651325000000004">
        <ele>410.487</ele>
        <time>2022-06-19T13:25:13Z</time>
      </trkpt>
      <trkpt lat="42.483236000000076" lon="-1.651247000000004">
        <ele>410.431</ele>
        <time>2022-06-19T13:25:14Z</time>
      </trkpt>
      <trkpt lat="42.48322600000007" lon="-1.651096000000004">
        <ele>409.673</ele>
        <time>2022-06-19T13:25:16Z</time>
      </trkpt>
      <trkpt lat="42.48321000000007" lon="-1.651028000000004">
        <ele>409.449</ele>
        <time>2022-06-19T13:25:17Z</time>
      </trkpt>
      <trkpt lat="42.483189000000074" lon="-1.6509640000000039">
        <ele>409.273</ele>
        <time>2022-06-19T13:25:18Z</time>
      </trkpt>
      <trkpt lat="42.48316400000007" lon="-1.6509080000000038">
        <ele>408.826</ele>
        <time>2022-06-19T13:25:19Z</time>
      </trkpt>
      <trkpt lat="42.48311400000007" lon="-1.650818000000004">
        <ele>407.895</ele>
        <time>2022-06-19T13:25:21Z</time>
      </trkpt>
      <trkpt lat="42.48309700000007" lon="-1.6507950000000038">
        <ele>407.629</ele>
        <time>2022-06-19T13:25:22Z</time>
      </trkpt>
      <trkpt lat="42.48308700000007" lon="-1.6507840000000038">
        <ele>407.400</ele>
        <time>2022-06-19T13:25:23Z</time>
      </trkpt>
      <trkpt lat="42.48307900000007" lon="-1.650780000000004">
        <ele>407.220</ele>
        <time>2022-06-19T13:25:24Z</time>
      </trkpt>
      <trkpt lat="42.483049000000065" lon="-1.650753000000004">
        <ele>407.209</ele>
        <time>2022-06-19T13:25:28Z</time>
      </trkpt>
      <trkpt lat="42.48302000000007" lon="-1.650718000000004">
        <ele>407.033</ele>
        <time>2022-06-19T13:25:30Z</time>
      </trkpt>
      <trkpt lat="42.48289300000007" lon="-1.6505460000000038">
        <ele>407.042</ele>
        <time>2022-06-19T13:25:36Z</time>
      </trkpt>
      <trkpt lat="42.48273600000007" lon="-1.6503540000000039">
        <ele>407.037</ele>
        <time>2022-06-19T13:25:42Z</time>
      </trkpt>
      <trkpt lat="42.48265100000007" lon="-1.6502660000000038">
        <ele>406.821</ele>
        <time>2022-06-19T13:25:47Z</time>
      </trkpt>
      <trkpt lat="42.48258600000007" lon="-1.650208000000004">
        <ele>406.633</ele>
        <time>2022-06-19T13:25:53Z</time>
      </trkpt>
      <trkpt lat="42.48258200000007" lon="-1.650205000000004">
        <ele>406.669</ele>
        <time>2022-06-19T13:25:56Z</time>
      </trkpt>
      <trkpt lat="42.482246000000075" lon="-1.6497550000000039">
        <ele>406.253</ele>
        <time>2022-06-19T13:34:00Z</time>
      </trkpt>
      <trkpt lat="42.482232000000074" lon="-1.6497310000000038">
        <ele>406.266</ele>
        <time>2022-06-19T13:34:01Z</time>
      </trkpt>
      <trkpt lat="42.482176000000074" lon="-1.649579000000004">
        <ele>406.235</ele>
        <time>2022-06-19T13:34:05Z</time>
      </trkpt>
      <trkpt lat="42.48205600000007" lon="-1.649365000000004">
        <ele>406.047</ele>
        <time>2022-06-19T13:34:11Z</time>
      </trkpt>
      <trkpt lat="42.48196600000007" lon="-1.649125000000004">
        <ele>405.629</ele>
        <time>2022-06-19T13:34:18Z</time>
      </trkpt>
      <trkpt lat="42.48194100000007" lon="-1.648982000000004">
        <ele>405.221</ele>
        <time>2022-06-19T13:34:23Z</time>
      </trkpt>
      <trkpt lat="42.48194400000007" lon="-1.6489560000000039">
        <ele>405.209</ele>
        <time>2022-06-19T13:34:24Z</time>
      </trkpt>
      <trkpt lat="42.48196300000007" lon="-1.6489110000000038">
        <ele>405.095</ele>
        <time>2022-06-19T13:34:26Z</time>
      </trkpt>
      <trkpt lat="42.48201500000007" lon="-1.6488660000000037">
        <ele>405.024</ele>
        <time>2022-06-19T13:34:29Z</time>
      </trkpt>
      <trkpt lat="42.48206000000007" lon="-1.6488330000000038">
        <ele>404.819</ele>
        <time>2022-06-19T13:34:32Z</time>
      </trkpt>
      <trkpt lat="42.482064000000065" lon="-1.6488180000000037">
        <ele>404.823</ele>
        <time>2022-06-19T13:34:34Z</time>
      </trkpt>
      <trkpt lat="42.482064000000065" lon="-1.6488180000000037">
        <ele>404.845</ele>
        <time>2022-06-19T13:34:36Z</time>
      </trkpt>
      <trkpt lat="42.481999000000066" lon="-1.6488680000000038">
        <ele>405.271</ele>
        <time>2022-06-19T13:37:39Z</time>
      </trkpt>
      <trkpt lat="42.481966000000064" lon="-1.6489110000000038">
        <ele>405.285</ele>
        <time>2022-06-19T13:37:41Z</time>
      </trkpt>
      <trkpt lat="42.48192700000006" lon="-1.6489510000000038">
        <ele>405.238</ele>
        <time>2022-06-19T13:37:43Z</time>
      </trkpt>
      <trkpt lat="42.481853000000065" lon="-1.648993000000004">
        <ele>405.237</ele>
        <time>2022-06-19T13:37:46Z</time>
      </trkpt>
      <trkpt lat="42.481729000000065" lon="-1.649074000000004">
        <ele>405.245</ele>
        <time>2022-06-19T13:37:52Z</time>
      </trkpt>
      <trkpt lat="42.48167200000007" lon="-1.6491960000000039">
        <ele>405.047</ele>
        <time>2022-06-19T13:37:56Z</time>
      </trkpt>
      <trkpt lat="42.48165800000007" lon="-1.6491610000000039">
        <ele>404.811</ele>
        <time>2022-06-19T13:37:58Z</time>
      </trkpt>
      <trkpt lat="42.48157500000007" lon="-1.6491400000000038">
        <ele>404.809</ele>
        <time>2022-06-19T13:38:04Z</time>
      </trkpt>
      <trkpt lat="42.48157500000007" lon="-1.6491400000000038">
        <ele>405.235</ele>
        <time>2022-06-19T13:38:07Z</time>
      </trkpt>
      <trkpt lat="42.48164000000007" lon="-1.6492340000000039">
        <ele>405.674</ele>
        <time>2022-06-19T13:38:17Z</time>
      </trkpt>
      <trkpt lat="42.48157800000007" lon="-1.649400000000004">
        <ele>405.619</ele>
        <time>2022-06-19T13:38:21Z</time>
      </trkpt>
      <trkpt lat="42.48157900000007" lon="-1.6495090000000039">
        <ele>405.633</ele>
        <time>2022-06-19T13:38:26Z</time>
      </trkpt>
      <trkpt lat="42.481586000000064" lon="-1.649551000000004">
        <ele>405.865</ele>
        <time>2022-06-19T13:38:28Z</time>
      </trkpt>
      <trkpt lat="42.48159200000006" lon="-1.649572000000004">
        <ele>405.891</ele>
        <time>2022-06-19T13:38:29Z</time>
      </trkpt>
      <trkpt lat="42.481580000000065" lon="-1.649632000000004">
        <ele>406.475</ele>
        <time>2022-06-19T13:38:32Z</time>
      </trkpt>
      <trkpt lat="42.48155900000007" lon="-1.649700000000004">
        <ele>407.248</ele>
        <time>2022-06-19T13:38:35Z</time>
      </trkpt>
      <trkpt lat="42.481518000000065" lon="-1.649815000000004">
        <ele>408.037</ele>
        <time>2022-06-19T13:38:40Z</time>
      </trkpt>
      <trkpt lat="42.48150000000007" lon="-1.649868000000004">
        <ele>408.298</ele>
        <time>2022-06-19T13:38:43Z</time>
      </trkpt>
      <trkpt lat="42.48148500000007" lon="-1.6499000000000041">
        <ele>408.415</ele>
        <time>2022-06-19T13:38:44Z</time>
      </trkpt>
      <trkpt lat="42.481478000000074" lon="-1.6499160000000042">
        <ele>408.626</ele>
        <time>2022-06-19T13:38:45Z</time>
      </trkpt>
      <trkpt lat="42.481464000000074" lon="-1.6499730000000041">
        <ele>409.209</ele>
        <time>2022-06-19T13:38:48Z</time>
      </trkpt>
      <trkpt lat="42.48145300000007" lon="-1.6500240000000042">
        <ele>409.410</ele>
        <time>2022-06-19T13:38:51Z</time>
      </trkpt>
      <trkpt lat="42.48144500000007" lon="-1.6500470000000043">
        <ele>409.679</ele>
        <time>2022-06-19T13:38:52Z</time>
      </trkpt>
      <trkpt lat="42.48141500000007" lon="-1.6501510000000044">
        <ele>410.264</ele>
        <time>2022-06-19T13:38:57Z</time>
      </trkpt>
      <trkpt lat="42.48141600000007" lon="-1.6501720000000044">
        <ele>410.268</ele>
        <time>2022-06-19T13:38:58Z</time>
      </trkpt>
      <trkpt lat="42.48141500000007" lon="-1.6502370000000044">
        <ele>410.650</ele>
        <time>2022-06-19T13:39:01Z</time>
      </trkpt>
      <trkpt lat="42.481419000000066" lon="-1.6503320000000044">
        <ele>411.036</ele>
        <time>2022-06-19T13:39:05Z</time>
      </trkpt>
      <trkpt lat="42.48140100000007" lon="-1.6505290000000044">
        <ele>411.270</ele>
        <time>2022-06-19T13:39:13Z</time>
      </trkpt>
      <trkpt lat="42.48140600000007" lon="-1.6506140000000042">
        <ele>411.043</ele>
        <time>2022-06-19T13:39:18Z</time>
      </trkpt>
      <trkpt lat="42.48141900000007" lon="-1.6506330000000042">
        <ele>411.022</ele>
        <time>2022-06-19T13:39:20Z</time>
      </trkpt>
      <trkpt lat="42.481418000000076" lon="-1.6506360000000042">
        <ele>411.031</ele>
        <time>2022-06-19T13:39:21Z</time>
      </trkpt>
      <trkpt lat="42.481418000000076" lon="-1.6506540000000043">
        <ele>411.061</ele>
        <time>2022-06-19T13:39:23Z</time>
      </trkpt>
      <trkpt lat="42.48140900000008" lon="-1.6507450000000043">
        <ele>410.807</ele>
        <time>2022-06-19T13:39:27Z</time>
      </trkpt>
      <trkpt lat="42.48137500000008" lon="-1.6509260000000043">
        <ele>410.609</ele>
        <time>2022-06-19T13:39:34Z</time>
      </trkpt>
      <trkpt lat="42.48136600000008" lon="-1.6509460000000042">
        <ele>410.624</ele>
        <time>2022-06-19T13:39:35Z</time>
      </trkpt>
      <trkpt lat="42.48130700000008" lon="-1.6510130000000043">
        <ele>410.643</ele>
        <time>2022-06-19T13:39:42Z</time>
      </trkpt>
      <trkpt lat="42.48128800000008" lon="-1.6511560000000043">
        <ele>410.638</ele>
        <time>2022-06-19T13:41:26Z</time>
      </trkpt>
      <trkpt lat="42.481292000000074" lon="-1.6512140000000042">
        <ele>410.672</ele>
        <time>2022-06-19T13:41:29Z</time>
      </trkpt>
      <trkpt lat="42.481292000000074" lon="-1.6512510000000042">
        <ele>410.814</ele>
        <time>2022-06-19T13:41:36Z</time>
      </trkpt>
      <trkpt lat="42.481328000000076" lon="-1.6511790000000042">
        <ele>411.870</ele>
        <time>2022-06-19T13:45:36Z</time>
      </trkpt>
      <trkpt lat="42.48136100000008" lon="-1.6510500000000041">
        <ele>411.854</ele>
        <time>2022-06-19T13:45:40Z</time>
      </trkpt>
      <trkpt lat="42.48137000000008" lon="-1.651018000000004">
        <ele>411.857</ele>
        <time>2022-06-19T13:45:41Z</time>
      </trkpt>
      <trkpt lat="42.481402000000074" lon="-1.6508630000000042">
        <ele>411.896</ele>
        <time>2022-06-19T13:45:48Z</time>
      </trkpt>
      <trkpt lat="42.48142500000007" lon="-1.6506710000000042">
        <ele>411.674</ele>
        <time>2022-06-19T13:45:55Z</time>
      </trkpt>
      <trkpt lat="42.481427000000075" lon="-1.6505750000000041">
        <ele>411.656</ele>
        <time>2022-06-19T13:45:59Z</time>
      </trkpt>
      <trkpt lat="42.48143900000007" lon="-1.6505740000000042">
        <ele>411.621</ele>
        <time>2022-06-19T13:46:00Z</time>
      </trkpt>
      <trkpt lat="42.48146500000007" lon="-1.6505720000000041">
        <ele>411.609</ele>
        <time>2022-06-19T13:46:03Z</time>
      </trkpt>
      <trkpt lat="42.48146800000007" lon="-1.650565000000004">
        <ele>411.668</ele>
        <time>2022-06-19T13:46:04Z</time>
      </trkpt>
      <trkpt lat="42.48149500000007" lon="-1.650579000000004">
        <ele>411.667</ele>
        <time>2022-06-19T13:46:05Z</time>
      </trkpt>
      <trkpt lat="42.48156700000008" lon="-1.650612000000004">
        <ele>411.822</ele>
        <time>2022-06-19T13:46:07Z</time>
      </trkpt>
      <trkpt lat="42.48160300000008" lon="-1.650620000000004">
        <ele>411.846</ele>
        <time>2022-06-19T13:46:11Z</time>
      </trkpt>
      <trkpt lat="42.48160300000008" lon="-1.650620000000004">
        <ele>411.878</ele>
        <time>2022-06-19T13:46:12Z</time>
      </trkpt>
      <trkpt lat="42.48163000000008" lon="-1.650554000000004">
        <ele>412.044</ele>
        <time>2022-06-19T13:46:19Z</time>
      </trkpt>
      <trkpt lat="42.48163400000008" lon="-1.650512000000004">
        <ele>412.068</ele>
        <time>2022-06-19T13:46:21Z</time>
      </trkpt>
      <trkpt lat="42.48164000000008" lon="-1.650480000000004">
        <ele>412.071</ele>
        <time>2022-06-19T13:46:22Z</time>
      </trkpt>
      <trkpt lat="42.481672000000074" lon="-1.6504460000000039">
        <ele>412.080</ele>
        <time>2022-06-19T13:46:23Z</time>
      </trkpt>
      <trkpt lat="42.48172600000007" lon="-1.6503360000000038">
        <ele>412.278</ele>
        <time>2022-06-19T13:46:27Z</time>
      </trkpt>
      <trkpt lat="42.481737000000074" lon="-1.6503120000000038">
        <ele>412.233</ele>
        <time>2022-06-19T13:46:28Z</time>
      </trkpt>
      <trkpt lat="42.48176100000008" lon="-1.6502870000000038">
        <ele>412.226</ele>
        <time>2022-06-19T13:46:30Z</time>
      </trkpt>
      <trkpt lat="42.481773000000075" lon="-1.650275000000004">
        <ele>412.209</ele>
        <time>2022-06-19T13:46:36Z</time>
      </trkpt>
      <trkpt lat="42.481759000000075" lon="-1.650336000000004">
        <ele>412.448</ele>
        <time>2022-06-19T13:55:00Z</time>
      </trkpt>
      <trkpt lat="42.48178000000007" lon="-1.6504050000000041">
        <ele>412.267</ele>
        <time>2022-06-19T13:55:03Z</time>
      </trkpt>
      <trkpt lat="42.48188500000007" lon="-1.6505070000000042">
        <ele>412.082</ele>
        <time>2022-06-19T13:55:09Z</time>
      </trkpt>
      <trkpt lat="42.48198100000007" lon="-1.6505850000000042">
        <ele>411.626</ele>
        <time>2022-06-19T13:55:15Z</time>
      </trkpt>
      <trkpt lat="42.48209300000007" lon="-1.650697000000004">
        <ele>411.048</ele>
        <time>2022-06-19T13:55:23Z</time>
      </trkpt>
      <trkpt lat="42.48214000000007" lon="-1.6507800000000041">
        <ele>411.224</ele>
        <time>2022-06-19T13:55:27Z</time>
      </trkpt>
      <trkpt lat="42.48212700000007" lon="-1.6508090000000042">
        <ele>411.278</ele>
        <time>2022-06-19T13:55:29Z</time>
      </trkpt>
      <trkpt lat="42.48202100000007" lon="-1.6508630000000042">
        <ele>411.441</ele>
        <time>2022-06-19T13:55:35Z</time>
      </trkpt>
      <trkpt lat="42.481960000000065" lon="-1.6508530000000041">
        <ele>411.430</ele>
        <time>2022-06-19T13:55:39Z</time>
      </trkpt>
      <trkpt lat="42.481957000000065" lon="-1.650856000000004">
        <ele>411.485</ele>
        <time>2022-06-19T13:55:40Z</time>
      </trkpt>
      <trkpt lat="42.481957000000065" lon="-1.650856000000004">
        <ele>411.489</ele>
        <time>2022-06-19T13:55:41Z</time>
      </trkpt>
      <trkpt lat="42.48194400000006" lon="-1.650821000000004">
        <ele>411.417</ele>
        <time>2022-06-19T13:56:06Z</time>
      </trkpt>
      <trkpt lat="42.481907000000064" lon="-1.6507660000000042">
        <ele>411.409</ele>
        <time>2022-06-19T13:56:08Z</time>
      </trkpt>
      <trkpt lat="42.48178600000006" lon="-1.6506540000000043">
        <ele>411.459</ele>
        <time>2022-06-19T13:56:13Z</time>
      </trkpt>
      <trkpt lat="42.48168000000006" lon="-1.6506040000000042">
        <ele>411.668</ele>
        <time>2022-06-19T13:56:18Z</time>
      </trkpt>
      <trkpt lat="42.481659000000064" lon="-1.650608000000004">
        <ele>411.643</ele>
        <time>2022-06-19T13:56:19Z</time>
      </trkpt>
      <trkpt lat="42.48153300000006" lon="-1.650609000000004">
        <ele>411.827</ele>
        <time>2022-06-19T13:56:25Z</time>
      </trkpt>
      <trkpt lat="42.48150000000006" lon="-1.650612000000004">
        <ele>411.869</ele>
        <time>2022-06-19T13:56:29Z</time>
      </trkpt>
      <trkpt lat="42.48149700000006" lon="-1.650610000000004">
        <ele>411.845</ele>
        <time>2022-06-19T13:56:32Z</time>
      </trkpt>
      <trkpt lat="42.481493000000064" lon="-1.650509000000004">
        <ele>412.059</ele>
        <time>2022-06-19T13:56:41Z</time>
      </trkpt>
      <trkpt lat="42.48149700000006" lon="-1.650477000000004">
        <ele>412.082</ele>
        <time>2022-06-19T13:56:42Z</time>
      </trkpt>
      <trkpt lat="42.48150500000006" lon="-1.650383000000004">
        <ele>412.031</ele>
        <time>2022-06-19T13:56:45Z</time>
      </trkpt>
      <trkpt lat="42.481515000000066" lon="-1.6503300000000038">
        <ele>412.088</ele>
        <time>2022-06-19T13:56:47Z</time>
      </trkpt>
      <trkpt lat="42.48151100000007" lon="-1.650159000000004">
        <ele>412.024</ele>
        <time>2022-06-19T13:56:54Z</time>
      </trkpt>
      <trkpt lat="42.48150600000007" lon="-1.6500550000000038">
        <ele>412.026</ele>
        <time>2022-06-19T13:57:00Z</time>
      </trkpt>
      <trkpt lat="42.48150600000007" lon="-1.6500550000000038">
        <ele>412.009</ele>
        <time>2022-06-19T13:57:01Z</time>
      </trkpt>
      <trkpt lat="42.481448000000064" lon="-1.6502170000000038">
        <ele>412.859</ele>
        <time>2022-06-19T14:10:26Z</time>
      </trkpt>
      <trkpt lat="42.48146300000006" lon="-1.6502830000000037">
        <ele>412.688</ele>
        <time>2022-06-19T14:10:28Z</time>
      </trkpt>
      <trkpt lat="42.481479000000064" lon="-1.6504400000000037">
        <ele>412.623</ele>
        <time>2022-06-19T14:10:32Z</time>
      </trkpt>
      <trkpt lat="42.481473000000065" lon="-1.6504700000000037">
        <ele>412.427</ele>
        <time>2022-06-19T14:10:33Z</time>
      </trkpt>
      <trkpt lat="42.48141800000006" lon="-1.6506940000000037">
        <ele>412.239</ele>
        <time>2022-06-19T14:10:41Z</time>
      </trkpt>
      <trkpt lat="42.48139400000006" lon="-1.6508100000000037">
        <ele>412.285</ele>
        <time>2022-06-19T14:10:47Z</time>
      </trkpt>
      <trkpt lat="42.48139400000006" lon="-1.6508230000000037">
        <ele>412.249</ele>
        <time>2022-06-19T14:10:48Z</time>
      </trkpt>
      <trkpt lat="42.48139300000006" lon="-1.6508270000000036">
        <ele>412.262</ele>
        <time>2022-06-19T14:10:50Z</time>
      </trkpt>
      <trkpt lat="42.48136700000006" lon="-1.6507990000000037">
        <ele>413.881</ele>
        <time>2022-06-19T14:12:34Z</time>
      </trkpt>
      <trkpt lat="42.48136700000006" lon="-1.6507990000000037">
        <ele>413.868</ele>
        <time>2022-06-19T14:12:36Z</time>
      </trkpt>
      <trkpt lat="42.48133300000006" lon="-1.6507770000000037">
        <ele>413.842</ele>
        <time>2022-06-19T14:12:40Z</time>
      </trkpt>
      <trkpt lat="42.48132200000006" lon="-1.6507720000000037">
        <ele>413.826</ele>
        <time>2022-06-19T14:12:43Z</time>
      </trkpt>
      <trkpt lat="42.481315000000066" lon="-1.6507770000000037">
        <ele>413.809</ele>
        <time>2022-06-19T14:12:46Z</time>
      </trkpt>
      <trkpt lat="42.481318000000066" lon="-1.6507840000000038">
        <ele>413.867</ele>
        <time>2022-06-19T14:12:47Z</time>
      </trkpt>
      <trkpt lat="42.48131100000007" lon="-1.650780000000004">
        <ele>413.826</ele>
        <time>2022-06-19T14:12:49Z</time>
      </trkpt>
      <trkpt lat="42.48131300000007" lon="-1.650776000000004">
        <ele>413.821</ele>
        <time>2022-06-19T14:12:50Z</time>
      </trkpt>
      <trkpt lat="42.48131300000007" lon="-1.650776000000004">
        <ele>414.015</ele>
        <time>2022-06-19T14:12:52Z</time>
      </trkpt>
      <trkpt lat="42.48137000000007" lon="-1.650833000000004">
        <ele>415.497</ele>
        <time>2022-06-19T14:45:35Z</time>
      </trkpt>
      <trkpt lat="42.48137200000007" lon="-1.650882000000004">
        <ele>415.453</ele>
        <time>2022-06-19T14:45:37Z</time>
      </trkpt>
      <trkpt lat="42.481371000000074" lon="-1.650884000000004">
        <ele>415.457</ele>
        <time>2022-06-19T14:45:39Z</time>
      </trkpt>
      <trkpt lat="42.48136900000007" lon="-1.650891000000004">
        <ele>415.480</ele>
        <time>2022-06-19T14:45:40Z</time>
      </trkpt>
      <trkpt lat="42.48136600000007" lon="-1.650999000000004">
        <ele>415.479</ele>
        <time>2022-06-19T14:45:43Z</time>
      </trkpt>
      <trkpt lat="42.48133000000007" lon="-1.651262000000004">
        <ele>415.432</ele>
        <time>2022-06-19T14:45:50Z</time>
      </trkpt>
      <trkpt lat="42.481326000000074" lon="-1.651362000000004">
        <ele>415.492</ele>
        <time>2022-06-19T14:45:53Z</time>
      </trkpt>
      <trkpt lat="42.48132900000007" lon="-1.651458000000004">
        <ele>415.411</ele>
        <time>2022-06-19T14:45:56Z</time>
      </trkpt>
      <trkpt lat="42.481334000000075" lon="-1.6515030000000042">
        <ele>415.409</ele>
        <time>2022-06-19T14:45:58Z</time>
      </trkpt>
      <trkpt lat="42.481342000000076" lon="-1.6515570000000042">
        <ele>415.424</ele>
        <time>2022-06-19T14:46:00Z</time>
      </trkpt>
      <trkpt lat="42.481373000000076" lon="-1.6517080000000042">
        <ele>415.483</ele>
        <time>2022-06-19T14:46:05Z</time>
      </trkpt>
      <trkpt lat="42.48138600000008" lon="-1.6519200000000043">
        <ele>415.898</ele>
        <time>2022-06-19T14:46:13Z</time>
      </trkpt>
      <trkpt lat="42.48139500000008" lon="-1.6519750000000042">
        <ele>415.852</ele>
        <time>2022-06-19T14:46:15Z</time>
      </trkpt>
      <trkpt lat="42.48141500000008" lon="-1.6520910000000042">
        <ele>416.044</ele>
        <time>2022-06-19T14:46:20Z</time>
      </trkpt>
      <trkpt lat="42.48140600000008" lon="-1.652122000000004">
        <ele>416.050</ele>
        <time>2022-06-19T14:46:21Z</time>
      </trkpt>
      <trkpt lat="42.48128200000008" lon="-1.6522430000000041">
        <ele>416.044</ele>
        <time>2022-06-19T14:46:26Z</time>
      </trkpt>
      <trkpt lat="42.480999000000075" lon="-1.6524050000000041">
        <ele>415.827</ele>
        <time>2022-06-19T14:46:34Z</time>
      </trkpt>
      <trkpt lat="42.48073600000008" lon="-1.6524800000000042">
        <ele>415.236</ele>
        <time>2022-06-19T14:46:41Z</time>
      </trkpt>
      <trkpt lat="42.48061800000008" lon="-1.6524950000000043">
        <ele>415.035</ele>
        <time>2022-06-19T14:46:44Z</time>
      </trkpt>
      <trkpt lat="42.48049000000008" lon="-1.6524990000000042">
        <ele>414.886</ele>
        <time>2022-06-19T14:46:47Z</time>
      </trkpt>
      <trkpt lat="42.48030500000008" lon="-1.6524990000000042">
        <ele>414.814</ele>
        <time>2022-06-19T14:46:51Z</time>
      </trkpt>
      <trkpt lat="42.479963000000076" lon="-1.6524830000000041">
        <ele>414.409</ele>
        <time>2022-06-19T14:46:58Z</time>
      </trkpt>
      <trkpt lat="42.479727000000075" lon="-1.6523960000000042">
        <ele>414.044</ele>
        <time>2022-06-19T14:47:03Z</time>
      </trkpt>
      <trkpt lat="42.47964900000007" lon="-1.6523240000000041">
        <ele>413.863</ele>
        <time>2022-06-19T14:47:05Z</time>
      </trkpt>
      <trkpt lat="42.479592000000075" lon="-1.652236000000004">
        <ele>413.898</ele>
        <time>2022-06-19T14:47:07Z</time>
      </trkpt>
      <trkpt lat="42.47944900000007" lon="-1.651966000000004">
        <ele>413.682</ele>
        <time>2022-06-19T14:47:13Z</time>
      </trkpt>
      <trkpt lat="42.47938300000008" lon="-1.651970000000004">
        <ele>413.424</ele>
        <time>2022-06-19T14:47:15Z</time>
      </trkpt>
      <trkpt lat="42.47934900000008" lon="-1.652007000000004">
        <ele>413.210</ele>
        <time>2022-06-19T14:47:16Z</time>
      </trkpt>
      <trkpt lat="42.47933100000008" lon="-1.652067000000004">
        <ele>412.854</ele>
        <time>2022-06-19T14:47:17Z</time>
      </trkpt>
      <trkpt lat="42.47932100000008" lon="-1.652142000000004">
        <ele>412.647</ele>
        <time>2022-06-19T14:47:18Z</time>
      </trkpt>
      <trkpt lat="42.47931400000008" lon="-1.652222000000004">
        <ele>412.236</ele>
        <time>2022-06-19T14:47:19Z</time>
      </trkpt>
      <trkpt lat="42.47930500000008" lon="-1.652395000000004">
        <ele>411.212</ele>
        <time>2022-06-19T14:47:21Z</time>
      </trkpt>
      <trkpt lat="42.479256000000085" lon="-1.652743000000004">
        <ele>409.232</ele>
        <time>2022-06-19T14:47:25Z</time>
      </trkpt>
      <trkpt lat="42.47922300000008" lon="-1.6529090000000042">
        <ele>408.005</ele>
        <time>2022-06-19T14:47:27Z</time>
      </trkpt>
      <trkpt lat="42.47916100000008" lon="-1.653153000000004">
        <ele>407.009</ele>
        <time>2022-06-19T14:47:30Z</time>
      </trkpt>
      <trkpt lat="42.47911900000008" lon="-1.653307000000004">
        <ele>405.872</ele>
        <time>2022-06-19T14:47:32Z</time>
      </trkpt>
      <trkpt lat="42.479034000000084" lon="-1.6536620000000042">
        <ele>405.231</ele>
        <time>2022-06-19T14:47:37Z</time>
      </trkpt>
      <trkpt lat="42.47899300000008" lon="-1.6538660000000043">
        <ele>404.636</ele>
        <time>2022-06-19T14:47:40Z</time>
      </trkpt>
      <trkpt lat="42.47893200000008" lon="-1.6541960000000042">
        <ele>403.880</ele>
        <time>2022-06-19T14:47:45Z</time>
      </trkpt>
      <trkpt lat="42.47890300000008" lon="-1.6543210000000041">
        <ele>403.442</ele>
        <time>2022-06-19T14:47:47Z</time>
      </trkpt>
      <trkpt lat="42.47882600000008" lon="-1.6546140000000042">
        <ele>403.688</ele>
        <time>2022-06-19T14:47:52Z</time>
      </trkpt>
      <trkpt lat="42.478794000000086" lon="-1.6547280000000042">
        <ele>403.642</ele>
        <time>2022-06-19T14:47:54Z</time>
      </trkpt>
      <trkpt lat="42.478732000000086" lon="-1.6550040000000041">
        <ele>404.245</ele>
        <time>2022-06-19T14:47:59Z</time>
      </trkpt>
      <trkpt lat="42.478671000000084" lon="-1.6552120000000041">
        <ele>404.464</ele>
        <time>2022-06-19T14:48:03Z</time>
      </trkpt>
      <trkpt lat="42.478648000000085" lon="-1.6553200000000041">
        <ele>404.698</ele>
        <time>2022-06-19T14:48:05Z</time>
      </trkpt>
      <trkpt lat="42.478637000000084" lon="-1.6553740000000041">
        <ele>404.615</ele>
        <time>2022-06-19T14:48:06Z</time>
      </trkpt>
      <trkpt lat="42.47862400000008" lon="-1.6554270000000042">
        <ele>404.626</ele>
        <time>2022-06-19T14:48:07Z</time>
      </trkpt>
      <trkpt lat="42.47856000000008" lon="-1.6556700000000042">
        <ele>404.609</ele>
        <time>2022-06-19T14:48:12Z</time>
      </trkpt>
      <trkpt lat="42.47847600000008" lon="-1.655952000000004">
        <ele>405.460</ele>
        <time>2022-06-19T14:48:18Z</time>
      </trkpt>
      <trkpt lat="42.47842800000008" lon="-1.656096000000004">
        <ele>405.649</ele>
        <time>2022-06-19T14:48:21Z</time>
      </trkpt>
      <trkpt lat="42.47837200000008" lon="-1.656284000000004">
        <ele>405.434</ele>
        <time>2022-06-19T14:48:25Z</time>
      </trkpt>
      <trkpt lat="42.47827900000008" lon="-1.6566800000000041">
        <ele>406.088</ele>
        <time>2022-06-19T14:48:33Z</time>
      </trkpt>
      <trkpt lat="42.47826800000008" lon="-1.6567340000000041">
        <ele>406.020</ele>
        <time>2022-06-19T14:48:34Z</time>
      </trkpt>
      <trkpt lat="42.47821100000008" lon="-1.6570610000000041">
        <ele>406.886</ele>
        <time>2022-06-19T14:48:40Z</time>
      </trkpt>
      <trkpt lat="42.47818200000008" lon="-1.6574900000000041">
        <ele>407.490</ele>
        <time>2022-06-19T14:48:48Z</time>
      </trkpt>
      <trkpt lat="42.47815500000008" lon="-1.657925000000004">
        <ele>408.073</ele>
        <time>2022-06-19T14:48:56Z</time>
      </trkpt>
      <trkpt lat="42.478100000000076" lon="-1.6584260000000042">
        <ele>408.432</ele>
        <time>2022-06-19T14:49:05Z</time>
      </trkpt>
      <trkpt lat="42.47801700000008" lon="-1.6588580000000042">
        <ele>408.222</ele>
        <time>2022-06-19T14:49:13Z</time>
      </trkpt>
      <trkpt lat="42.47796500000008" lon="-1.6590630000000042">
        <ele>408.062</ele>
        <time>2022-06-19T14:49:17Z</time>
      </trkpt>
      <trkpt lat="42.477936000000085" lon="-1.6591380000000042">
        <ele>408.008</ele>
        <time>2022-06-19T14:49:19Z</time>
      </trkpt>
      <trkpt lat="42.47778300000009" lon="-1.6595740000000043">
        <ele>408.009</ele>
        <time>2022-06-19T14:49:28Z</time>
      </trkpt>
      <trkpt lat="42.47770600000009" lon="-1.6597670000000044">
        <ele>408.253</ele>
        <time>2022-06-19T14:49:33Z</time>
      </trkpt>
      <trkpt lat="42.47759500000009" lon="-1.6600270000000044">
        <ele>408.882</ele>
        <time>2022-06-19T14:49:40Z</time>
      </trkpt>
      <trkpt lat="42.47757900000009" lon="-1.6600600000000043">
        <ele>409.097</ele>
        <time>2022-06-19T14:49:41Z</time>
      </trkpt>
      <trkpt lat="42.47748100000009" lon="-1.6603020000000044">
        <ele>409.821</ele>
        <time>2022-06-19T14:49:48Z</time>
      </trkpt>
      <trkpt lat="42.47744700000009" lon="-1.6603730000000043">
        <ele>410.263</ele>
        <time>2022-06-19T14:49:50Z</time>
      </trkpt>
      <trkpt lat="42.47736000000009" lon="-1.6605430000000043">
        <ele>411.059</ele>
        <time>2022-06-19T14:49:56Z</time>
      </trkpt>
      <trkpt lat="42.47730200000009" lon="-1.6606360000000042">
        <ele>411.263</ele>
        <time>2022-06-19T14:49:59Z</time>
      </trkpt>
      <trkpt lat="42.477249000000086" lon="-1.6607150000000042">
        <ele>411.676</ele>
        <time>2022-06-19T14:50:02Z</time>
      </trkpt>
      <trkpt lat="42.477207000000085" lon="-1.6607760000000042">
        <ele>412.235</ele>
        <time>2022-06-19T14:50:04Z</time>
      </trkpt>
      <trkpt lat="42.47706700000008" lon="-1.6609600000000042">
        <ele>413.283</ele>
        <time>2022-06-19T14:50:11Z</time>
      </trkpt>
      <trkpt lat="42.477047000000084" lon="-1.6609840000000042">
        <ele>413.425</ele>
        <time>2022-06-19T14:50:12Z</time>
      </trkpt>
      <trkpt lat="42.476866000000086" lon="-1.6611660000000041">
        <ele>413.617</ele>
        <time>2022-06-19T14:50:20Z</time>
      </trkpt>
      <trkpt lat="42.47669000000008" lon="-1.6613010000000041">
        <ele>413.809</ele>
        <time>2022-06-19T14:50:27Z</time>
      </trkpt>
      <trkpt lat="42.476619000000085" lon="-1.661369000000004">
        <ele>414.459</ele>
        <time>2022-06-19T14:50:30Z</time>
      </trkpt>
      <trkpt lat="42.47644300000008" lon="-1.6615300000000042">
        <ele>415.058</ele>
        <time>2022-06-19T14:50:37Z</time>
      </trkpt>
      <trkpt lat="42.47636100000008" lon="-1.6616030000000042">
        <ele>415.483</ele>
        <time>2022-06-19T14:50:40Z</time>
      </trkpt>
      <trkpt lat="42.476245000000084" lon="-1.661742000000004">
        <ele>416.487</ele>
        <time>2022-06-19T14:50:45Z</time>
      </trkpt>
      <trkpt lat="42.47618700000008" lon="-1.661800000000004">
        <ele>416.669</ele>
        <time>2022-06-19T14:50:47Z</time>
      </trkpt>
      <trkpt lat="42.47603300000008" lon="-1.661966000000004">
        <ele>417.055</ele>
        <time>2022-06-19T14:50:53Z</time>
      </trkpt>
      <trkpt lat="42.47586200000008" lon="-1.662192000000004">
        <ele>417.499</ele>
        <time>2022-06-19T14:51:00Z</time>
      </trkpt>
      <trkpt lat="42.475793000000074" lon="-1.662301000000004">
        <ele>417.662</ele>
        <time>2022-06-19T14:51:03Z</time>
      </trkpt>
      <trkpt lat="42.475641000000074" lon="-1.662553000000004">
        <ele>418.011</ele>
        <time>2022-06-19T14:51:10Z</time>
      </trkpt>
      <trkpt lat="42.47545700000008" lon="-1.6628940000000039">
        <ele>418.617</ele>
        <time>2022-06-19T14:51:19Z</time>
      </trkpt>
      <trkpt lat="42.47521500000008" lon="-1.663365000000004">
        <ele>419.087</ele>
        <time>2022-06-19T14:51:30Z</time>
      </trkpt>
      <trkpt lat="42.47505400000008" lon="-1.663727000000004">
        <ele>419.015</ele>
        <time>2022-06-19T14:51:38Z</time>
      </trkpt>
      <trkpt lat="42.47488300000008" lon="-1.6641410000000039">
        <ele>419.209</ele>
        <time>2022-06-19T14:51:47Z</time>
      </trkpt>
      <trkpt lat="42.47476900000007" lon="-1.6644140000000038">
        <ele>419.862</ele>
        <time>2022-06-19T14:51:53Z</time>
      </trkpt>
      <trkpt lat="42.474737000000076" lon="-1.664502000000004">
        <ele>420.081</ele>
        <time>2022-06-19T14:51:55Z</time>
      </trkpt>
      <trkpt lat="42.474613000000076" lon="-1.6648080000000038">
        <ele>420.436</ele>
        <time>2022-06-19T14:52:02Z</time>
      </trkpt>
      <trkpt lat="42.474495000000076" lon="-1.6651030000000038">
        <ele>420.440</ele>
        <time>2022-06-19T14:52:09Z</time>
      </trkpt>
      <trkpt lat="42.47438100000007" lon="-1.6653820000000037">
        <ele>419.882</ele>
        <time>2022-06-19T14:52:16Z</time>
      </trkpt>
      <trkpt lat="42.47433900000007" lon="-1.6655110000000037">
        <ele>419.898</ele>
        <time>2022-06-19T14:52:19Z</time>
      </trkpt>
      <trkpt lat="42.47424600000007" lon="-1.6658000000000037">
        <ele>420.022</ele>
        <time>2022-06-19T14:52:26Z</time>
      </trkpt>
      <trkpt lat="42.47417600000007" lon="-1.6661140000000036">
        <ele>420.895</ele>
        <time>2022-06-19T14:52:33Z</time>
      </trkpt>
      <trkpt lat="42.47413800000007" lon="-1.6662900000000036">
        <ele>421.414</ele>
        <time>2022-06-19T14:52:37Z</time>
      </trkpt>
      <trkpt lat="42.47411800000007" lon="-1.6663770000000035">
        <ele>422.477</ele>
        <time>2022-06-19T14:52:39Z</time>
      </trkpt>
      <trkpt lat="42.47407300000007" lon="-1.6665910000000035">
        <ele>423.461</ele>
        <time>2022-06-19T14:52:44Z</time>
      </trkpt>
      <trkpt lat="42.47402300000007" lon="-1.6668760000000036">
        <ele>424.427</ele>
        <time>2022-06-19T14:52:51Z</time>
      </trkpt>
      <trkpt lat="42.47396600000007" lon="-1.6672190000000036">
        <ele>425.009</ele>
        <time>2022-06-19T14:53:00Z</time>
      </trkpt>
      <trkpt lat="42.47391200000007" lon="-1.6675510000000036">
        <ele>425.428</ele>
        <time>2022-06-19T14:53:08Z</time>
      </trkpt>
      <trkpt lat="42.47389900000007" lon="-1.6676370000000036">
        <ele>425.687</ele>
        <time>2022-06-19T14:53:10Z</time>
      </trkpt>
      <trkpt lat="42.47385300000007" lon="-1.6679110000000037">
        <ele>425.882</ele>
        <time>2022-06-19T14:53:16Z</time>
      </trkpt>
      <trkpt lat="42.47379000000007" lon="-1.6682520000000036">
        <ele>426.246</ele>
        <time>2022-06-19T14:53:23Z</time>
      </trkpt>
      <trkpt lat="42.47372900000007" lon="-1.6686170000000036">
        <ele>426.468</ele>
        <time>2022-06-19T14:53:31Z</time>
      </trkpt>
      <trkpt lat="42.47369200000007" lon="-1.6688020000000037">
        <ele>426.694</ele>
        <time>2022-06-19T14:53:35Z</time>
      </trkpt>
      <trkpt lat="42.47368000000007" lon="-1.6688950000000036">
        <ele>426.658</ele>
        <time>2022-06-19T14:53:37Z</time>
      </trkpt>
      <trkpt lat="42.47358400000007" lon="-1.6693830000000036">
        <ele>426.811</ele>
        <time>2022-06-19T14:53:47Z</time>
      </trkpt>
      <trkpt lat="42.47353400000007" lon="-1.6695870000000037">
        <ele>427.040</ele>
        <time>2022-06-19T14:53:51Z</time>
      </trkpt>
      <trkpt lat="42.47344400000007" lon="-1.6698840000000037">
        <ele>427.256</ele>
        <time>2022-06-19T14:53:57Z</time>
      </trkpt>
      <trkpt lat="42.47321900000007" lon="-1.6705120000000038">
        <ele>427.059</ele>
        <time>2022-06-19T14:54:10Z</time>
      </trkpt>
      <trkpt lat="42.47303600000007" lon="-1.6709290000000037">
        <ele>426.814</ele>
        <time>2022-06-19T14:54:19Z</time>
      </trkpt>
      <trkpt lat="42.47284200000007" lon="-1.6713510000000036">
        <ele>426.809</ele>
        <time>2022-06-19T14:54:29Z</time>
      </trkpt>
      <trkpt lat="42.472672000000074" lon="-1.6717040000000036">
        <ele>427.056</ele>
        <time>2022-06-19T14:54:38Z</time>
      </trkpt>
      <trkpt lat="42.472514000000075" lon="-1.6719850000000036">
        <ele>427.075</ele>
        <time>2022-06-19T14:54:46Z</time>
      </trkpt>
      <trkpt lat="42.472368000000074" lon="-1.6722170000000036">
        <ele>427.680</ele>
        <time>2022-06-19T14:54:53Z</time>
      </trkpt>
      <trkpt lat="42.47234600000007" lon="-1.6722540000000037">
        <ele>427.664</ele>
        <time>2022-06-19T14:54:54Z</time>
      </trkpt>
      <trkpt lat="42.47213800000007" lon="-1.6725830000000037">
        <ele>428.466</ele>
        <time>2022-06-19T14:55:03Z</time>
      </trkpt>
      <trkpt lat="42.471937000000075" lon="-1.6729180000000037">
        <ele>428.682</ele>
        <time>2022-06-19T14:55:12Z</time>
      </trkpt>
      <trkpt lat="42.47189600000007" lon="-1.6729900000000038">
        <ele>428.886</ele>
        <time>2022-06-19T14:55:14Z</time>
      </trkpt>
      <trkpt lat="42.471754000000075" lon="-1.6732510000000038">
        <ele>429.849</ele>
        <time>2022-06-19T14:55:21Z</time>
      </trkpt>
      <trkpt lat="42.471689000000076" lon="-1.6733620000000038">
        <ele>430.428</ele>
        <time>2022-06-19T14:55:24Z</time>
      </trkpt>
      <trkpt lat="42.47165100000007" lon="-1.6734400000000038">
        <ele>430.852</ele>
        <time>2022-06-19T14:55:26Z</time>
      </trkpt>
      <trkpt lat="42.47154400000007" lon="-1.6736320000000038">
        <ele>431.453</ele>
        <time>2022-06-19T14:55:31Z</time>
      </trkpt>
      <trkpt lat="42.471405000000075" lon="-1.6739000000000037">
        <ele>431.808</ele>
        <time>2022-06-19T14:55:38Z</time>
      </trkpt>
      <trkpt lat="42.47138400000008" lon="-1.6739360000000036">
        <ele>432.009</ele>
        <time>2022-06-19T14:55:39Z</time>
      </trkpt>
      <trkpt lat="42.47124400000008" lon="-1.6741960000000036">
        <ele>432.846</ele>
        <time>2022-06-19T14:55:46Z</time>
      </trkpt>
      <trkpt lat="42.471183000000075" lon="-1.6743100000000035">
        <ele>433.045</ele>
        <time>2022-06-19T14:55:49Z</time>
      </trkpt>
      <trkpt lat="42.47108300000007" lon="-1.6744950000000036">
        <ele>433.230</ele>
        <time>2022-06-19T14:55:54Z</time>
      </trkpt>
      <trkpt lat="42.47089400000007" lon="-1.6748600000000036">
        <ele>432.834</ele>
        <time>2022-06-19T14:56:04Z</time>
      </trkpt>
      <trkpt lat="42.47073600000007" lon="-1.6751510000000036">
        <ele>432.476</ele>
        <time>2022-06-19T14:56:12Z</time>
      </trkpt>
      <trkpt lat="42.47058200000007" lon="-1.6754530000000036">
        <ele>433.062</ele>
        <time>2022-06-19T14:56:20Z</time>
      </trkpt>
      <trkpt lat="42.47048700000007" lon="-1.6756370000000036">
        <ele>434.246</ele>
        <time>2022-06-19T14:56:25Z</time>
      </trkpt>
      <trkpt lat="42.470373000000066" lon="-1.6758600000000037">
        <ele>435.219</ele>
        <time>2022-06-19T14:56:31Z</time>
      </trkpt>
      <trkpt lat="42.47024900000007" lon="-1.6761050000000037">
        <ele>435.828</ele>
        <time>2022-06-19T14:56:38Z</time>
      </trkpt>
      <trkpt lat="42.470230000000065" lon="-1.6761370000000038">
        <ele>436.077</ele>
        <time>2022-06-19T14:56:39Z</time>
      </trkpt>
      <trkpt lat="42.47017300000007" lon="-1.6762330000000039">
        <ele>436.261</ele>
        <time>2022-06-19T14:56:42Z</time>
      </trkpt>
      <trkpt lat="42.47010400000006" lon="-1.676362000000004">
        <ele>437.027</ele>
        <time>2022-06-19T14:56:46Z</time>
      </trkpt>
      <trkpt lat="42.469982000000066" lon="-1.676567000000004">
        <ele>437.209</ele>
        <time>2022-06-19T14:56:53Z</time>
      </trkpt>
      <trkpt lat="42.46982600000007" lon="-1.676761000000004">
        <ele>437.878</ele>
        <time>2022-06-19T14:57:01Z</time>
      </trkpt>
      <trkpt lat="42.469689000000066" lon="-1.6769050000000039">
        <ele>438.297</ele>
        <time>2022-06-19T14:57:08Z</time>
      </trkpt>
      <trkpt lat="42.469588000000066" lon="-1.676996000000004">
        <ele>438.862</ele>
        <time>2022-06-19T14:57:13Z</time>
      </trkpt>
      <trkpt lat="42.469386000000064" lon="-1.677187000000004">
        <ele>439.476</ele>
        <time>2022-06-19T14:57:23Z</time>
      </trkpt>
      <trkpt lat="42.46921500000006" lon="-1.677344000000004">
        <ele>440.688</ele>
        <time>2022-06-19T14:57:31Z</time>
      </trkpt>
      <trkpt lat="42.469130000000064" lon="-1.677417000000004">
        <ele>440.834</ele>
        <time>2022-06-19T14:57:35Z</time>
      </trkpt>
      <trkpt lat="42.46902700000006" lon="-1.677511000000004">
        <ele>441.668</ele>
        <time>2022-06-19T14:57:40Z</time>
      </trkpt>
      <trkpt lat="42.46889600000006" lon="-1.6776310000000039">
        <ele>442.421</ele>
        <time>2022-06-19T14:57:46Z</time>
      </trkpt>
      <trkpt lat="42.46883300000006" lon="-1.6776880000000038">
        <ele>442.650</ele>
        <time>2022-06-19T14:57:49Z</time>
      </trkpt>
      <trkpt lat="42.46864300000006" lon="-1.677865000000004">
        <ele>442.856</ele>
        <time>2022-06-19T14:57:57Z</time>
      </trkpt>
      <trkpt lat="42.46848400000006" lon="-1.6780040000000038">
        <ele>442.459</ele>
        <time>2022-06-19T14:58:02Z</time>
      </trkpt>
      <trkpt lat="42.46837500000006" lon="-1.6781020000000038">
        <ele>442.014</ele>
        <time>2022-06-19T14:58:05Z</time>
      </trkpt>
      <trkpt lat="42.46829500000006" lon="-1.6781760000000037">
        <ele>441.809</ele>
        <time>2022-06-19T14:58:07Z</time>
      </trkpt>
      <trkpt lat="42.46825600000006" lon="-1.6782150000000036">
        <ele>441.696</ele>
        <time>2022-06-19T14:58:08Z</time>
      </trkpt>
      <trkpt lat="42.46804100000006" lon="-1.6784050000000035">
        <ele>440.635</ele>
        <time>2022-06-19T14:58:13Z</time>
      </trkpt>
      <trkpt lat="42.467998000000065" lon="-1.6784460000000034">
        <ele>440.040</ele>
        <time>2022-06-19T14:58:14Z</time>
      </trkpt>
      <trkpt lat="42.46795400000006" lon="-1.6784870000000034">
        <ele>439.034</ele>
        <time>2022-06-19T14:58:15Z</time>
      </trkpt>
      <trkpt lat="42.467815000000066" lon="-1.6786150000000033">
        <ele>437.426</ele>
        <time>2022-06-19T14:58:18Z</time>
      </trkpt>
      <trkpt lat="42.46761700000007" lon="-1.6788000000000034">
        <ele>436.062</ele>
        <time>2022-06-19T14:58:22Z</time>
      </trkpt>
      <trkpt lat="42.46747800000007" lon="-1.6789290000000034">
        <ele>434.266</ele>
        <time>2022-06-19T14:58:25Z</time>
      </trkpt>
      <trkpt lat="42.46736600000007" lon="-1.6790340000000035">
        <ele>433.249</ele>
        <time>2022-06-19T14:58:27Z</time>
      </trkpt>
      <trkpt lat="42.46722500000007" lon="-1.6792020000000034">
        <ele>432.048</ele>
        <time>2022-06-19T14:58:30Z</time>
      </trkpt>
      <trkpt lat="42.46713500000007" lon="-1.6793610000000034">
        <ele>431.226</ele>
        <time>2022-06-19T14:58:32Z</time>
      </trkpt>
      <trkpt lat="42.46709900000007" lon="-1.6794500000000034">
        <ele>430.847</ele>
        <time>2022-06-19T14:58:33Z</time>
      </trkpt>
      <trkpt lat="42.46707000000007" lon="-1.6795420000000034">
        <ele>430.611</ele>
        <time>2022-06-19T14:58:34Z</time>
      </trkpt>
      <trkpt lat="42.467018000000074" lon="-1.6797400000000033">
        <ele>429.609</ele>
        <time>2022-06-19T14:58:36Z</time>
      </trkpt>
      <trkpt lat="42.46693800000008" lon="-1.6800620000000033">
        <ele>428.473</ele>
        <time>2022-06-19T14:58:40Z</time>
      </trkpt>
      <trkpt lat="42.46691700000008" lon="-1.6801430000000033">
        <ele>428.472</ele>
        <time>2022-06-19T14:58:41Z</time>
      </trkpt>
      <trkpt lat="42.466789000000084" lon="-1.6806480000000033">
        <ele>428.257</ele>
        <time>2022-06-19T14:58:48Z</time>
      </trkpt>
      <trkpt lat="42.46668800000008" lon="-1.6810760000000033">
        <ele>428.421</ele>
        <time>2022-06-19T14:58:55Z</time>
      </trkpt>
      <trkpt lat="42.466645000000085" lon="-1.6812430000000034">
        <ele>428.823</ele>
        <time>2022-06-19T14:58:58Z</time>
      </trkpt>
      <trkpt lat="42.466608000000086" lon="-1.6814130000000034">
        <ele>429.269</ele>
        <time>2022-06-19T14:59:01Z</time>
      </trkpt>
      <trkpt lat="42.466575000000084" lon="-1.6815700000000033">
        <ele>429.423</ele>
        <time>2022-06-19T14:59:04Z</time>
      </trkpt>
      <trkpt lat="42.466549000000086" lon="-1.6816720000000034">
        <ele>429.636</ele>
        <time>2022-06-19T14:59:06Z</time>
      </trkpt>
      <trkpt lat="42.46649500000009" lon="-1.6818760000000035">
        <ele>429.655</ele>
        <time>2022-06-19T14:59:10Z</time>
      </trkpt>
      <trkpt lat="42.466414000000086" lon="-1.6822800000000036">
        <ele>430.055</ele>
        <time>2022-06-19T14:59:18Z</time>
      </trkpt>
      <trkpt lat="42.46639800000008" lon="-1.6826750000000035">
        <ele>430.607</ele>
        <time>2022-06-19T14:59:25Z</time>
      </trkpt>
      <trkpt lat="42.466397000000086" lon="-1.6827920000000034">
        <ele>431.017</ele>
        <time>2022-06-19T14:59:27Z</time>
      </trkpt>
      <trkpt lat="42.46639600000009" lon="-1.6828500000000033">
        <ele>431.209</ele>
        <time>2022-06-19T14:59:28Z</time>
      </trkpt>
      <trkpt lat="42.46639600000009" lon="-1.6830670000000032">
        <ele>431.626</ele>
        <time>2022-06-19T14:59:32Z</time>
      </trkpt>
      <trkpt lat="42.46639800000009" lon="-1.6831220000000031">
        <ele>431.615</ele>
        <time>2022-06-19T14:59:33Z</time>
      </trkpt>
      <trkpt lat="42.46640000000009" lon="-1.683282000000003">
        <ele>431.820</ele>
        <time>2022-06-19T14:59:36Z</time>
      </trkpt>
      <trkpt lat="42.46640100000009" lon="-1.683614000000003">
        <ele>432.694</ele>
        <time>2022-06-19T14:59:43Z</time>
      </trkpt>
      <trkpt lat="42.46640100000009" lon="-1.683671000000003">
        <ele>432.826</ele>
        <time>2022-06-19T14:59:44Z</time>
      </trkpt>
      <trkpt lat="42.46640000000009" lon="-1.683795000000003">
        <ele>433.642</ele>
        <time>2022-06-19T14:59:47Z</time>
      </trkpt>
      <trkpt lat="42.466408000000094" lon="-1.684013000000003">
        <ele>434.426</ele>
        <time>2022-06-19T14:59:52Z</time>
      </trkpt>
      <trkpt lat="42.46641400000009" lon="-1.6840630000000032">
        <ele>434.889</ele>
        <time>2022-06-19T14:59:53Z</time>
      </trkpt>
      <trkpt lat="42.46644600000009" lon="-1.6842420000000031">
        <ele>435.878</ele>
        <time>2022-06-19T14:59:58Z</time>
      </trkpt>
      <trkpt lat="42.46647900000009" lon="-1.6843900000000032">
        <ele>436.675</ele>
        <time>2022-06-19T15:00:02Z</time>
      </trkpt>
      <trkpt lat="42.46646500000009" lon="-1.684437000000003">
        <ele>436.628</ele>
        <time>2022-06-19T15:00:03Z</time>
      </trkpt>
      <trkpt lat="42.46644000000009" lon="-1.6844820000000031">
        <ele>436.620</ele>
        <time>2022-06-19T15:00:04Z</time>
      </trkpt>
      <trkpt lat="42.46630300000009" lon="-1.684653000000003">
        <ele>436.809</ele>
        <time>2022-06-19T15:00:08Z</time>
      </trkpt>
      <trkpt lat="42.46604400000009" lon="-1.684947000000003">
        <ele>435.848</ele>
        <time>2022-06-19T15:00:15Z</time>
      </trkpt>
      <trkpt lat="42.46567500000009" lon="-1.685382000000003">
        <ele>435.447</ele>
        <time>2022-06-19T15:00:25Z</time>
      </trkpt>
      <trkpt lat="42.46540300000009" lon="-1.685722000000003">
        <ele>435.252</ele>
        <time>2022-06-19T15:00:33Z</time>
      </trkpt>
      <trkpt lat="42.46520600000009" lon="-1.685949000000003">
        <ele>434.666</ele>
        <time>2022-06-19T15:00:38Z</time>
      </trkpt>
      <trkpt lat="42.465044000000084" lon="-1.6861530000000031">
        <ele>434.288</ele>
        <time>2022-06-19T15:00:42Z</time>
      </trkpt>
      <trkpt lat="42.46473500000008" lon="-1.6865250000000032">
        <ele>433.614</ele>
        <time>2022-06-19T15:00:49Z</time>
      </trkpt>
      <trkpt lat="42.464596000000085" lon="-1.6866900000000031">
        <ele>432.888</ele>
        <time>2022-06-19T15:00:52Z</time>
      </trkpt>
      <trkpt lat="42.464416000000085" lon="-1.6869130000000032">
        <ele>432.441</ele>
        <time>2022-06-19T15:00:56Z</time>
      </trkpt>
      <trkpt lat="42.46420900000008" lon="-1.6871590000000032">
        <ele>431.240</ele>
        <time>2022-06-19T15:01:01Z</time>
      </trkpt>
      <trkpt lat="42.46392300000008" lon="-1.687511000000003">
        <ele>430.641</ele>
        <time>2022-06-19T15:01:09Z</time>
      </trkpt>
      <trkpt lat="42.46363700000008" lon="-1.687854000000003">
        <ele>430.681</ele>
        <time>2022-06-19T15:01:18Z</time>
      </trkpt>
      <trkpt lat="42.46334900000008" lon="-1.6882010000000032">
        <ele>430.809</ele>
        <time>2022-06-19T15:01:27Z</time>
      </trkpt>
      <trkpt lat="42.46305700000008" lon="-1.688564000000003">
        <ele>430.209</ele>
        <time>2022-06-19T15:01:36Z</time>
      </trkpt>
      <trkpt lat="42.46280900000008" lon="-1.688861000000003">
        <ele>429.695</ele>
        <time>2022-06-19T15:01:43Z</time>
      </trkpt>
      <trkpt lat="42.462737000000075" lon="-1.6889380000000032">
        <ele>429.434</ele>
        <time>2022-06-19T15:01:45Z</time>
      </trkpt>
      <trkpt lat="42.462675000000075" lon="-1.6890180000000032">
        <ele>429.259</ele>
        <time>2022-06-19T15:01:47Z</time>
      </trkpt>
      <trkpt lat="42.46245700000008" lon="-1.6892830000000032">
        <ele>428.813</ele>
        <time>2022-06-19T15:01:54Z</time>
      </trkpt>
      <trkpt lat="42.462185000000076" lon="-1.6895980000000033">
        <ele>429.035</ele>
        <time>2022-06-19T15:02:03Z</time>
      </trkpt>
      <trkpt lat="42.46195400000008" lon="-1.6898750000000033">
        <ele>429.461</ele>
        <time>2022-06-19T15:02:12Z</time>
      </trkpt>
      <trkpt lat="42.461766000000075" lon="-1.6901040000000034">
        <ele>429.895</ele>
        <time>2022-06-19T15:02:20Z</time>
      </trkpt>
      <trkpt lat="42.46158500000008" lon="-1.6903080000000035">
        <ele>430.258</ele>
        <time>2022-06-19T15:02:27Z</time>
      </trkpt>
      <trkpt lat="42.46153700000008" lon="-1.6903660000000034">
        <ele>430.697</ele>
        <time>2022-06-19T15:02:29Z</time>
      </trkpt>
      <trkpt lat="42.46131700000008" lon="-1.6906320000000035">
        <ele>431.452</ele>
        <time>2022-06-19T15:02:38Z</time>
      </trkpt>
      <trkpt lat="42.46127100000008" lon="-1.6906860000000035">
        <ele>431.453</ele>
        <time>2022-06-19T15:02:40Z</time>
      </trkpt>
      <trkpt lat="42.46109700000008" lon="-1.6909280000000035">
        <ele>432.408</ele>
        <time>2022-06-19T15:02:48Z</time>
      </trkpt>
      <trkpt lat="42.46105200000008" lon="-1.6909950000000036">
        <ele>432.609</ele>
        <time>2022-06-19T15:02:50Z</time>
      </trkpt>
      <trkpt lat="42.46094200000008" lon="-1.6911520000000035">
        <ele>433.466</ele>
        <time>2022-06-19T15:02:55Z</time>
      </trkpt>
      <trkpt lat="42.46082000000008" lon="-1.6913560000000036">
        <ele>434.295</ele>
        <time>2022-06-19T15:03:01Z</time>
      </trkpt>
      <trkpt lat="42.46079800000008" lon="-1.6913880000000037">
        <ele>434.470</ele>
        <time>2022-06-19T15:03:02Z</time>
      </trkpt>
      <trkpt lat="42.46073900000008" lon="-1.6914820000000037">
        <ele>435.634</ele>
        <time>2022-06-19T15:03:05Z</time>
      </trkpt>
      <trkpt lat="42.46060400000008" lon="-1.6917150000000036">
        <ele>436.666</ele>
        <time>2022-06-19T15:03:12Z</time>
      </trkpt>
      <trkpt lat="42.46056700000008" lon="-1.6917830000000036">
        <ele>436.832</ele>
        <time>2022-06-19T15:03:14Z</time>
      </trkpt>
      <trkpt lat="42.46044600000008" lon="-1.6920230000000036">
        <ele>437.096</ele>
        <time>2022-06-19T15:03:21Z</time>
      </trkpt>
      <trkpt lat="42.46034000000008" lon="-1.6922690000000036">
        <ele>438.059</ele>
        <time>2022-06-19T15:03:28Z</time>
      </trkpt>
      <trkpt lat="42.46030700000008" lon="-1.6923400000000035">
        <ele>438.488</ele>
        <time>2022-06-19T15:03:30Z</time>
      </trkpt>
      <trkpt lat="42.460252000000075" lon="-1.6924850000000036">
        <ele>439.064</ele>
        <time>2022-06-19T15:03:34Z</time>
      </trkpt>
      <trkpt lat="42.46017500000008" lon="-1.6926920000000036">
        <ele>439.606</ele>
        <time>2022-06-19T15:03:40Z</time>
      </trkpt>
      <trkpt lat="42.46009900000008" lon="-1.6929140000000036">
        <ele>440.216</ele>
        <time>2022-06-19T15:03:46Z</time>
      </trkpt>
      <trkpt lat="42.45998900000008" lon="-1.6932320000000036">
        <ele>441.209</ele>
        <time>2022-06-19T15:03:55Z</time>
      </trkpt>
      <trkpt lat="42.45997500000008" lon="-1.6932650000000036">
        <ele>441.467</ele>
        <time>2022-06-19T15:03:56Z</time>
      </trkpt>
      <trkpt lat="42.459861000000075" lon="-1.6936060000000035">
        <ele>442.446</ele>
        <time>2022-06-19T15:04:06Z</time>
      </trkpt>
      <trkpt lat="42.459777000000074" lon="-1.6938660000000034">
        <ele>443.631</ele>
        <time>2022-06-19T15:04:14Z</time>
      </trkpt>
      <trkpt lat="42.45973300000007" lon="-1.6940040000000034">
        <ele>444.885</ele>
        <time>2022-06-19T15:04:18Z</time>
      </trkpt>
      <trkpt lat="42.45965700000007" lon="-1.6942510000000035">
        <ele>445.487</ele>
        <time>2022-06-19T15:04:25Z</time>
      </trkpt>
      <trkpt lat="42.45956600000007" lon="-1.6945310000000036">
        <ele>445.683</ele>
        <time>2022-06-19T15:04:33Z</time>
      </trkpt>
      <trkpt lat="42.45947400000007" lon="-1.6947780000000037">
        <ele>445.637</ele>
        <time>2022-06-19T15:04:40Z</time>
      </trkpt>
      <trkpt lat="42.45939200000007" lon="-1.6949830000000037">
        <ele>445.620</ele>
        <time>2022-06-19T15:04:46Z</time>
      </trkpt>
      <trkpt lat="42.45935400000007" lon="-1.6950770000000037">
        <ele>446.089</ele>
        <time>2022-06-19T15:04:49Z</time>
      </trkpt>
      <trkpt lat="42.45926600000007" lon="-1.6952670000000036">
        <ele>446.078</ele>
        <time>2022-06-19T15:04:55Z</time>
      </trkpt>
      <trkpt lat="42.45913300000007" lon="-1.6955050000000036">
        <ele>446.233</ele>
        <time>2022-06-19T15:05:03Z</time>
      </trkpt>
      <trkpt lat="42.45909500000007" lon="-1.6955630000000035">
        <ele>446.226</ele>
        <time>2022-06-19T15:05:05Z</time>
      </trkpt>
      <trkpt lat="42.45893600000007" lon="-1.6957730000000035">
        <ele>446.209</ele>
        <time>2022-06-19T15:05:11Z</time>
      </trkpt>
      <trkpt lat="42.45868800000007" lon="-1.6960440000000034">
        <ele>445.618</ele>
        <time>2022-06-19T15:05:20Z</time>
      </trkpt>
      <trkpt lat="42.45853400000007" lon="-1.6961740000000034">
        <ele>444.427</ele>
        <time>2022-06-19T15:05:25Z</time>
      </trkpt>
      <trkpt lat="42.45833800000007" lon="-1.6963180000000033">
        <ele>444.072</ele>
        <time>2022-06-19T15:05:31Z</time>
      </trkpt>
      <trkpt lat="42.45801300000007" lon="-1.6964750000000033">
        <ele>443.486</ele>
        <time>2022-06-19T15:05:40Z</time>
      </trkpt>
      <trkpt lat="42.457708000000075" lon="-1.6965600000000032">
        <ele>443.438</ele>
        <time>2022-06-19T15:05:48Z</time>
      </trkpt>
      <trkpt lat="42.45737200000008" lon="-1.6965900000000032">
        <ele>443.264</ele>
        <time>2022-06-19T15:05:56Z</time>
      </trkpt>
      <trkpt lat="42.456999000000074" lon="-1.6965440000000032">
        <ele>443.448</ele>
        <time>2022-06-19T15:06:04Z</time>
      </trkpt>
      <trkpt lat="42.45664200000007" lon="-1.6964540000000032">
        <ele>443.481</ele>
        <time>2022-06-19T15:06:11Z</time>
      </trkpt>
      <trkpt lat="42.45610200000007" lon="-1.6963080000000033">
        <ele>443.030</ele>
        <time>2022-06-19T15:06:21Z</time>
      </trkpt>
      <trkpt lat="42.455943000000076" lon="-1.6962660000000032">
        <ele>442.456</ele>
        <time>2022-06-19T15:06:24Z</time>
      </trkpt>
      <trkpt lat="42.45554200000008" lon="-1.6962070000000031">
        <ele>441.259</ele>
        <time>2022-06-19T15:06:31Z</time>
      </trkpt>
      <trkpt lat="42.45509700000008" lon="-1.6962360000000032">
        <ele>440.014</ele>
        <time>2022-06-19T15:06:39Z</time>
      </trkpt>
      <trkpt lat="42.45490700000008" lon="-1.6962850000000032">
        <ele>438.809</ele>
        <time>2022-06-19T15:06:43Z</time>
      </trkpt>
      <trkpt lat="42.454758000000076" lon="-1.696329000000003">
        <ele>438.276</ele>
        <time>2022-06-19T15:06:46Z</time>
      </trkpt>
      <trkpt lat="42.454531000000074" lon="-1.6964330000000032">
        <ele>438.045</ele>
        <time>2022-06-19T15:06:51Z</time>
      </trkpt>
      <trkpt lat="42.454494000000075" lon="-1.696453000000003">
        <ele>438.090</ele>
        <time>2022-06-19T15:06:52Z</time>
      </trkpt>
      <trkpt lat="42.454398000000076" lon="-1.6964930000000031">
        <ele>437.694</ele>
        <time>2022-06-19T15:06:54Z</time>
      </trkpt>
      <trkpt lat="42.45421100000008" lon="-1.696580000000003">
        <ele>437.226</ele>
        <time>2022-06-19T15:06:58Z</time>
      </trkpt>
      <trkpt lat="42.45379400000008" lon="-1.696788000000003">
        <ele>437.062</ele>
        <time>2022-06-19T15:07:07Z</time>
      </trkpt>
      <trkpt lat="42.45370300000008" lon="-1.696834000000003">
        <ele>436.626</ele>
        <time>2022-06-19T15:07:09Z</time>
      </trkpt>
      <trkpt lat="42.45325400000008" lon="-1.697051000000003">
        <ele>436.239</ele>
        <time>2022-06-19T15:07:19Z</time>
      </trkpt>
      <trkpt lat="42.45304300000008" lon="-1.697150000000003">
        <ele>435.618</ele>
        <time>2022-06-19T15:07:24Z</time>
      </trkpt>
      <trkpt lat="42.45272600000008" lon="-1.697313000000003">
        <ele>435.054</ele>
        <time>2022-06-19T15:07:31Z</time>
      </trkpt>
      <trkpt lat="42.45254300000008" lon="-1.6973950000000029">
        <ele>434.656</ele>
        <time>2022-06-19T15:07:35Z</time>
      </trkpt>
      <trkpt lat="42.45232600000008" lon="-1.6975090000000028">
        <ele>434.211</ele>
        <time>2022-06-19T15:07:40Z</time>
      </trkpt>
      <trkpt lat="42.452237000000075" lon="-1.697554000000003">
        <ele>433.409</ele>
        <time>2022-06-19T15:07:42Z</time>
      </trkpt>
      <trkpt lat="42.451956000000074" lon="-1.6976810000000029">
        <ele>433.036</ele>
        <time>2022-06-19T15:07:48Z</time>
      </trkpt>
      <trkpt lat="42.45151000000008" lon="-1.697904000000003">
        <ele>432.865</ele>
        <time>2022-06-19T15:07:58Z</time>
      </trkpt>
      <trkpt lat="42.45106200000008" lon="-1.698130000000003">
        <ele>432.680</ele>
        <time>2022-06-19T15:08:08Z</time>
      </trkpt>
      <trkpt lat="42.45055000000008" lon="-1.698378000000003">
        <ele>432.664</ele>
        <time>2022-06-19T15:08:19Z</time>
      </trkpt>
      <trkpt lat="42.45046000000008" lon="-1.698421000000003">
        <ele>432.636</ele>
        <time>2022-06-19T15:08:21Z</time>
      </trkpt>
      <trkpt lat="42.45028500000008" lon="-1.6985090000000032">
        <ele>432.472</ele>
        <time>2022-06-19T15:08:25Z</time>
      </trkpt>
      <trkpt lat="42.45007600000008" lon="-1.6986130000000033">
        <ele>431.426</ele>
        <time>2022-06-19T15:08:30Z</time>
      </trkpt>
      <trkpt lat="42.450024000000084" lon="-1.6986380000000032">
        <ele>431.429</ele>
        <time>2022-06-19T15:08:31Z</time>
      </trkpt>
      <trkpt lat="42.44974600000008" lon="-1.6987690000000033">
        <ele>430.088</ele>
        <time>2022-06-19T15:08:38Z</time>
      </trkpt>
      <trkpt lat="42.44970100000008" lon="-1.6987880000000033">
        <ele>429.886</ele>
        <time>2022-06-19T15:08:39Z</time>
      </trkpt>
      <trkpt lat="42.449331000000086" lon="-1.6989720000000033">
        <ele>429.060</ele>
        <time>2022-06-19T15:08:48Z</time>
      </trkpt>
      <trkpt lat="42.44920000000008" lon="-1.6990380000000032">
        <ele>429.026</ele>
        <time>2022-06-19T15:08:51Z</time>
      </trkpt>
      <trkpt lat="42.44892700000008" lon="-1.699177000000003">
        <ele>430.009</ele>
        <time>2022-06-19T15:08:58Z</time>
      </trkpt>
      <trkpt lat="42.44855400000008" lon="-1.699359000000003">
        <ele>430.029</ele>
        <time>2022-06-19T15:09:07Z</time>
      </trkpt>
      <trkpt lat="42.44852100000008" lon="-1.699375000000003">
        <ele>430.018</ele>
        <time>2022-06-19T15:09:08Z</time>
      </trkpt>
      <trkpt lat="42.44822500000008" lon="-1.699512000000003">
        <ele>429.883</ele>
        <time>2022-06-19T15:09:15Z</time>
      </trkpt>
      <trkpt lat="42.44784300000008" lon="-1.699702000000003">
        <ele>428.217</ele>
        <time>2022-06-19T15:09:25Z</time>
      </trkpt>
      <trkpt lat="42.44780800000008" lon="-1.6997190000000029">
        <ele>427.699</ele>
        <time>2022-06-19T15:09:26Z</time>
      </trkpt>
      <trkpt lat="42.44752700000008" lon="-1.6998620000000029">
        <ele>427.025</ele>
        <time>2022-06-19T15:09:34Z</time>
      </trkpt>
      <trkpt lat="42.44724700000008" lon="-1.700004000000003">
        <ele>427.679</ele>
        <time>2022-06-19T15:09:42Z</time>
      </trkpt>
      <trkpt lat="42.446891000000086" lon="-1.700235000000003">
        <ele>428.292</ele>
        <time>2022-06-19T15:09:52Z</time>
      </trkpt>
      <trkpt lat="42.44662300000009" lon="-1.700416000000003">
        <ele>428.011</ele>
        <time>2022-06-19T15:09:59Z</time>
      </trkpt>
      <trkpt lat="42.446362000000086" lon="-1.700607000000003">
        <ele>426.664</ele>
        <time>2022-06-19T15:10:06Z</time>
      </trkpt>
      <trkpt lat="42.44631300000009" lon="-1.7006390000000031">
        <ele>426.406</ele>
        <time>2022-06-19T15:10:07Z</time>
      </trkpt>
      <trkpt lat="42.44615500000009" lon="-1.7007470000000031">
        <ele>425.416</ele>
        <time>2022-06-19T15:10:11Z</time>
      </trkpt>
      <trkpt lat="42.44591200000009" lon="-1.7009190000000032">
        <ele>424.409</ele>
        <time>2022-06-19T15:10:17Z</time>
      </trkpt>
      <trkpt lat="42.445756000000095" lon="-1.7010300000000032">
        <ele>423.227</ele>
        <time>2022-06-19T15:10:21Z</time>
      </trkpt>
      <trkpt lat="42.445604000000095" lon="-1.7011370000000032">
        <ele>422.876</ele>
        <time>2022-06-19T15:10:25Z</time>
      </trkpt>
      <trkpt lat="42.44515200000009" lon="-1.7014540000000031">
        <ele>422.641</ele>
        <time>2022-06-19T15:10:36Z</time>
      </trkpt>
      <trkpt lat="42.44477300000009" lon="-1.7017310000000032">
        <ele>422.875</ele>
        <time>2022-06-19T15:10:45Z</time>
      </trkpt>
      <trkpt lat="42.44440100000009" lon="-1.7019920000000033">
        <ele>423.277</ele>
        <time>2022-06-19T15:10:53Z</time>
      </trkpt>
      <trkpt lat="42.44408000000009" lon="-1.7022190000000033">
        <ele>423.023</ele>
        <time>2022-06-19T15:11:00Z</time>
      </trkpt>
      <trkpt lat="42.44383600000009" lon="-1.7023930000000032">
        <ele>422.237</ele>
        <time>2022-06-19T15:11:06Z</time>
      </trkpt>
      <trkpt lat="42.44379600000009" lon="-1.7024220000000032">
        <ele>422.040</ele>
        <time>2022-06-19T15:11:07Z</time>
      </trkpt>
      <trkpt lat="42.44357500000009" lon="-1.7025860000000033">
        <ele>421.059</ele>
        <time>2022-06-19T15:11:13Z</time>
      </trkpt>
      <trkpt lat="42.44354100000009" lon="-1.7026130000000033">
        <ele>420.879</ele>
        <time>2022-06-19T15:11:14Z</time>
      </trkpt>
      <trkpt lat="42.44327300000009" lon="-1.7028000000000032">
        <ele>420.405</ele>
        <time>2022-06-19T15:11:22Z</time>
      </trkpt>
      <trkpt lat="42.44299600000009" lon="-1.7029930000000033">
        <ele>420.425</ele>
        <time>2022-06-19T15:11:30Z</time>
      </trkpt>
      <trkpt lat="42.442733000000096" lon="-1.7031840000000034">
        <ele>420.409</ele>
        <time>2022-06-19T15:11:38Z</time>
      </trkpt>
      <trkpt lat="42.4423810000001" lon="-1.7034330000000033">
        <ele>420.688</ele>
        <time>2022-06-19T15:11:48Z</time>
      </trkpt>
      <trkpt lat="42.441968000000095" lon="-1.7037220000000033">
        <ele>420.247</ele>
        <time>2022-06-19T15:11:59Z</time>
      </trkpt>
      <trkpt lat="42.44162000000009" lon="-1.7039730000000033">
        <ele>420.292</ele>
        <time>2022-06-19T15:12:08Z</time>
      </trkpt>
      <trkpt lat="42.441194000000095" lon="-1.7042750000000033">
        <ele>420.266</ele>
        <time>2022-06-19T15:12:19Z</time>
      </trkpt>
      <trkpt lat="42.4410350000001" lon="-1.7043850000000034">
        <ele>420.098</ele>
        <time>2022-06-19T15:12:23Z</time>
      </trkpt>
      <trkpt lat="42.4409980000001" lon="-1.7044120000000034">
        <ele>419.854</ele>
        <time>2022-06-19T15:12:24Z</time>
      </trkpt>
      <trkpt lat="42.4409200000001" lon="-1.7044720000000033">
        <ele>419.448</ele>
        <time>2022-06-19T15:12:26Z</time>
      </trkpt>
      <trkpt lat="42.440502000000095" lon="-1.7047620000000032">
        <ele>419.041</ele>
        <time>2022-06-19T15:12:36Z</time>
      </trkpt>
      <trkpt lat="42.44038200000009" lon="-1.7048450000000033">
        <ele>419.050</ele>
        <time>2022-06-19T15:12:39Z</time>
      </trkpt>
      <trkpt lat="42.44021700000009" lon="-1.7049660000000033">
        <ele>417.874</ele>
        <time>2022-06-19T15:12:43Z</time>
      </trkpt>
      <trkpt lat="42.44012700000009" lon="-1.7050300000000034">
        <ele>417.056</ele>
        <time>2022-06-19T15:12:45Z</time>
      </trkpt>
      <trkpt lat="42.44001200000009" lon="-1.7051050000000034">
        <ele>416.621</ele>
        <time>2022-06-19T15:12:48Z</time>
      </trkpt>
      <trkpt lat="42.43980400000009" lon="-1.7052470000000035">
        <ele>416.209</ele>
        <time>2022-06-19T15:12:53Z</time>
      </trkpt>
      <trkpt lat="42.43959200000009" lon="-1.7053990000000034">
        <ele>415.678</ele>
        <time>2022-06-19T15:12:59Z</time>
      </trkpt>
      <trkpt lat="42.43956500000009" lon="-1.7054210000000034">
        <ele>415.417</ele>
        <time>2022-06-19T15:13:00Z</time>
      </trkpt>
      <trkpt lat="42.439293000000085" lon="-1.7056190000000033">
        <ele>414.872</ele>
        <time>2022-06-19T15:13:08Z</time>
      </trkpt>
      <trkpt lat="42.43922600000008" lon="-1.7056630000000033">
        <ele>414.646</ele>
        <time>2022-06-19T15:13:10Z</time>
      </trkpt>
      <trkpt lat="42.43899100000008" lon="-1.7058330000000033">
        <ele>414.838</ele>
        <time>2022-06-19T15:13:18Z</time>
      </trkpt>
      <trkpt lat="42.43877600000008" lon="-1.7059830000000034">
        <ele>414.644</ele>
        <time>2022-06-19T15:13:25Z</time>
      </trkpt>
      <trkpt lat="42.43852300000008" lon="-1.7061660000000034">
        <ele>414.648</ele>
        <time>2022-06-19T15:13:33Z</time>
      </trkpt>
      <trkpt lat="42.438243000000085" lon="-1.7063640000000033">
        <ele>414.261</ele>
        <time>2022-06-19T15:13:42Z</time>
      </trkpt>
      <trkpt lat="42.438004000000085" lon="-1.7065320000000033">
        <ele>413.460</ele>
        <time>2022-06-19T15:13:49Z</time>
      </trkpt>
      <trkpt lat="42.437936000000086" lon="-1.7065760000000032">
        <ele>413.261</ele>
        <time>2022-06-19T15:13:51Z</time>
      </trkpt>
      <trkpt lat="42.43771900000009" lon="-1.7067280000000031">
        <ele>412.821</ele>
        <time>2022-06-19T15:13:57Z</time>
      </trkpt>
      <trkpt lat="42.437641000000085" lon="-1.7067900000000031">
        <ele>412.613</ele>
        <time>2022-06-19T15:13:59Z</time>
      </trkpt>
      <trkpt lat="42.43746000000009" lon="-1.706918000000003">
        <ele>412.409</ele>
        <time>2022-06-19T15:14:04Z</time>
      </trkpt>
      <trkpt lat="42.437348000000085" lon="-1.706997000000003">
        <ele>412.057</ele>
        <time>2022-06-19T15:14:07Z</time>
      </trkpt>
      <trkpt lat="42.43696700000009" lon="-1.707268000000003">
        <ele>411.666</ele>
        <time>2022-06-19T15:14:17Z</time>
      </trkpt>
      <trkpt lat="42.43660900000009" lon="-1.707510000000003">
        <ele>411.631</ele>
        <time>2022-06-19T15:14:26Z</time>
      </trkpt>
      <trkpt lat="42.43635500000009" lon="-1.707691000000003">
        <ele>411.215</ele>
        <time>2022-06-19T15:14:33Z</time>
      </trkpt>
      <trkpt lat="42.436244000000094" lon="-1.707770000000003">
        <ele>410.437</ele>
        <time>2022-06-19T15:14:36Z</time>
      </trkpt>
      <trkpt lat="42.436061000000095" lon="-1.7079000000000029">
        <ele>410.033</ele>
        <time>2022-06-19T15:14:41Z</time>
      </trkpt>
      <trkpt lat="42.4358350000001" lon="-1.7080590000000029">
        <ele>410.087</ele>
        <time>2022-06-19T15:14:47Z</time>
      </trkpt>
      <trkpt lat="42.435689000000096" lon="-1.7081680000000028">
        <ele>409.830</ele>
        <time>2022-06-19T15:14:51Z</time>
      </trkpt>
      <trkpt lat="42.435532000000094" lon="-1.7082690000000027">
        <ele>409.689</ele>
        <time>2022-06-19T15:14:55Z</time>
      </trkpt>
      <trkpt lat="42.43513000000009" lon="-1.7085570000000028">
        <ele>409.033</ele>
        <time>2022-06-19T15:15:06Z</time>
      </trkpt>
      <trkpt lat="42.435095000000096" lon="-1.7085840000000028">
        <ele>409.023</ele>
        <time>2022-06-19T15:15:07Z</time>
      </trkpt>
      <trkpt lat="42.434803000000095" lon="-1.7087880000000029">
        <ele>409.215</ele>
        <time>2022-06-19T15:15:16Z</time>
      </trkpt>
      <trkpt lat="42.434744000000094" lon="-1.7088230000000029">
        <ele>409.009</ele>
        <time>2022-06-19T15:15:18Z</time>
      </trkpt>
      <trkpt lat="42.43457600000009" lon="-1.708925000000003">
        <ele>409.214</ele>
        <time>2022-06-19T15:15:24Z</time>
      </trkpt>
      <trkpt lat="42.43446900000009" lon="-1.7090340000000028">
        <ele>409.233</ele>
        <time>2022-06-19T15:15:29Z</time>
      </trkpt>
      <trkpt lat="42.434386000000096" lon="-1.7091670000000028">
        <ele>410.088</ele>
        <time>2022-06-19T15:15:36Z</time>
      </trkpt>
      <trkpt lat="42.4343820000001" lon="-1.7091920000000027">
        <ele>410.272</ele>
        <time>2022-06-19T15:15:37Z</time>
      </trkpt>
      <trkpt lat="42.4343750000001" lon="-1.7092160000000027">
        <ele>410.844</ele>
        <time>2022-06-19T15:15:41Z</time>
      </trkpt>
      <trkpt lat="42.4343420000001" lon="-1.7092210000000028">
        <ele>413.070</ele>
        <time>2022-06-19T15:41:24Z</time>
      </trkpt>
      <trkpt lat="42.4343860000001" lon="-1.7091270000000027">
        <ele>413.024</ele>
        <time>2022-06-19T15:41:29Z</time>
      </trkpt>
      <trkpt lat="42.4343860000001" lon="-1.7091060000000027">
        <ele>413.057</ele>
        <time>2022-06-19T15:41:30Z</time>
      </trkpt>
      <trkpt lat="42.4343870000001" lon="-1.7090930000000026">
        <ele>413.046</ele>
        <time>2022-06-19T15:41:33Z</time>
      </trkpt>
      <trkpt lat="42.4343520000001" lon="-1.7090490000000027">
        <ele>413.825</ele>
        <time>2022-06-19T15:41:44Z</time>
      </trkpt>
      <trkpt lat="42.4342230000001" lon="-1.7090750000000028">
        <ele>413.826</ele>
        <time>2022-06-19T15:41:49Z</time>
      </trkpt>
      <trkpt lat="42.4340370000001" lon="-1.7091420000000028">
        <ele>412.608</ele>
        <time>2022-06-19T15:41:55Z</time>
      </trkpt>
      <trkpt lat="42.433848000000104" lon="-1.7091980000000029">
        <ele>412.209</ele>
        <time>2022-06-19T15:42:00Z</time>
      </trkpt>
      <trkpt lat="42.4337500000001" lon="-1.7092170000000029">
        <ele>412.213</ele>
        <time>2022-06-19T15:42:04Z</time>
      </trkpt>
      <trkpt lat="42.4336520000001" lon="-1.7092390000000028">
        <ele>412.032</ele>
        <time>2022-06-19T15:42:07Z</time>
      </trkpt>
      <trkpt lat="42.4331730000001" lon="-1.709330000000003">
        <ele>412.847</ele>
        <time>2022-06-19T15:42:19Z</time>
      </trkpt>
      <trkpt lat="42.4327490000001" lon="-1.7094060000000029">
        <ele>413.031</ele>
        <time>2022-06-19T15:42:31Z</time>
      </trkpt>
      <trkpt lat="42.4323950000001" lon="-1.7094760000000029">
        <ele>413.633</ele>
        <time>2022-06-19T15:42:41Z</time>
      </trkpt>
      <trkpt lat="42.432067000000096" lon="-1.7095170000000028">
        <ele>414.269</ele>
        <time>2022-06-19T15:42:50Z</time>
      </trkpt>
      <trkpt lat="42.4316840000001" lon="-1.7094850000000028">
        <ele>414.213</ele>
        <time>2022-06-19T15:42:57Z</time>
      </trkpt>
      <trkpt lat="42.4312560000001" lon="-1.7094150000000028">
        <ele>413.036</ele>
        <time>2022-06-19T15:43:04Z</time>
      </trkpt>
      <trkpt lat="42.4311210000001" lon="-1.7093970000000027">
        <ele>412.625</ele>
        <time>2022-06-19T15:43:06Z</time>
      </trkpt>
      <trkpt lat="42.4311210000001" lon="-1.7093970000000027">
        <ele>412.232</ele>
        <time>2022-06-19T15:43:07Z</time>
      </trkpt>
      <trkpt lat="42.4309150000001" lon="-1.7093660000000028">
        <ele>411.292</ele>
        <time>2022-06-19T15:43:10Z</time>
      </trkpt>
      <trkpt lat="42.4307030000001" lon="-1.7093360000000029">
        <ele>409.611</ele>
        <time>2022-06-19T15:43:13Z</time>
      </trkpt>
      <trkpt lat="42.4304830000001" lon="-1.7093020000000028">
        <ele>408.409</ele>
        <time>2022-06-19T15:43:16Z</time>
      </trkpt>
      <trkpt lat="42.4302830000001" lon="-1.7092740000000028">
        <ele>407.064</ele>
        <time>2022-06-19T15:43:18Z</time>
      </trkpt>
      <trkpt lat="42.4301250000001" lon="-1.709246000000003">
        <ele>406.093</ele>
        <time>2022-06-19T15:43:21Z</time>
      </trkpt>
      <trkpt lat="42.4300560000001" lon="-1.709238000000003">
        <ele>405.858</ele>
        <time>2022-06-19T15:43:22Z</time>
      </trkpt>
      <trkpt lat="42.4296370000001" lon="-1.709179000000003">
        <ele>405.052</ele>
        <time>2022-06-19T15:43:28Z</time>
      </trkpt>
      <trkpt lat="42.4292830000001" lon="-1.7091260000000028">
        <ele>403.674</ele>
        <time>2022-06-19T15:43:33Z</time>
      </trkpt>
      <trkpt lat="42.429140000000096" lon="-1.7091070000000028">
        <ele>403.440</ele>
        <time>2022-06-19T15:43:34Z</time>
      </trkpt>
      <trkpt lat="42.4289960000001" lon="-1.7090850000000029">
        <ele>402.684</ele>
        <time>2022-06-19T15:43:37Z</time>
      </trkpt>
      <trkpt lat="42.4284460000001" lon="-1.7089970000000028">
        <ele>401.627</ele>
        <time>2022-06-19T15:43:44Z</time>
      </trkpt>
      <trkpt lat="42.4279520000001" lon="-1.7089270000000027">
        <ele>400.636</ele>
        <time>2022-06-19T15:43:53Z</time>
      </trkpt>
      <trkpt lat="42.4278390000001" lon="-1.7089110000000027">
        <ele>400.489</ele>
        <time>2022-06-19T15:43:54Z</time>
      </trkpt>
      <trkpt lat="42.4272990000001" lon="-1.7088280000000027">
        <ele>400.006</ele>
        <time>2022-06-19T15:44:04Z</time>
      </trkpt>
      <trkpt lat="42.4268680000001" lon="-1.7087610000000026">
        <ele>399.626</ele>
        <time>2022-06-19T15:44:13Z</time>
      </trkpt>
      <trkpt lat="42.4268680000001" lon="-1.7087610000000026">
        <ele>399.409</ele>
        <time>2022-06-19T15:44:14Z</time>
      </trkpt>
      <trkpt lat="42.4265130000001" lon="-1.7087000000000026">
        <ele>398.449</ele>
        <time>2022-06-19T15:44:22Z</time>
      </trkpt>
      <trkpt lat="42.4263890000001" lon="-1.7086810000000026">
        <ele>398.428</ele>
        <time>2022-06-19T15:44:25Z</time>
      </trkpt>
      <trkpt lat="42.4260240000001" lon="-1.7086240000000026">
        <ele>398.413</ele>
        <time>2022-06-19T15:44:33Z</time>
      </trkpt>
      <trkpt lat="42.425983000000095" lon="-1.7086220000000025">
        <ele>398.477</ele>
        <time>2022-06-19T15:44:34Z</time>
      </trkpt>
      <trkpt lat="42.42594200000009" lon="-1.7086190000000026">
        <ele>398.499</ele>
        <time>2022-06-19T15:44:36Z</time>
      </trkpt>
      <trkpt lat="42.42578800000009" lon="-1.7085950000000025">
        <ele>398.425</ele>
        <time>2022-06-19T15:44:39Z</time>
      </trkpt>
      <trkpt lat="42.42558400000009" lon="-1.7085690000000024">
        <ele>398.659</ele>
        <time>2022-06-19T15:44:44Z</time>
      </trkpt>
      <trkpt lat="42.42524200000009" lon="-1.7085200000000025">
        <ele>399.452</ele>
        <time>2022-06-19T15:44:53Z</time>
      </trkpt>
      <trkpt lat="42.42519900000009" lon="-1.7085130000000024">
        <ele>399.811</ele>
        <time>2022-06-19T15:44:54Z</time>
      </trkpt>
      <trkpt lat="42.42502700000009" lon="-1.7084900000000023">
        <ele>400.853</ele>
        <time>2022-06-19T15:44:57Z</time>
      </trkpt>
      <trkpt lat="42.42490700000009" lon="-1.7084770000000022">
        <ele>401.604</ele>
        <time>2022-06-19T15:45:00Z</time>
      </trkpt>
      <trkpt lat="42.424717000000086" lon="-1.7084530000000022">
        <ele>402.014</ele>
        <time>2022-06-19T15:45:06Z</time>
      </trkpt>
      <trkpt lat="42.42460700000009" lon="-1.7084380000000021">
        <ele>402.009</ele>
        <time>2022-06-19T15:45:09Z</time>
      </trkpt>
      <trkpt lat="42.42457200000009" lon="-1.7084350000000021">
        <ele>402.266</ele>
        <time>2022-06-19T15:45:10Z</time>
      </trkpt>
      <trkpt lat="42.42440400000009" lon="-1.708433000000002">
        <ele>402.465</ele>
        <time>2022-06-19T15:45:15Z</time>
      </trkpt>
      <trkpt lat="42.424039000000086" lon="-1.7084460000000021">
        <ele>402.850</ele>
        <time>2022-06-19T15:45:24Z</time>
      </trkpt>
      <trkpt lat="42.423654000000084" lon="-1.708474000000002">
        <ele>402.624</ele>
        <time>2022-06-19T15:45:35Z</time>
      </trkpt>
      <trkpt lat="42.423184000000084" lon="-1.708514000000002">
        <ele>402.056</ele>
        <time>2022-06-19T15:45:45Z</time>
      </trkpt>
      <trkpt lat="42.422950000000085" lon="-1.708538000000002">
        <ele>402.092</ele>
        <time>2022-06-19T15:45:50Z</time>
      </trkpt>
      <trkpt lat="42.422854000000086" lon="-1.708544000000002">
        <ele>402.076</ele>
        <time>2022-06-19T15:45:52Z</time>
      </trkpt>
      <trkpt lat="42.42275800000009" lon="-1.7085540000000021">
        <ele>401.849</ele>
        <time>2022-06-19T15:45:54Z</time>
      </trkpt>
      <trkpt lat="42.422382000000084" lon="-1.7085750000000022">
        <ele>401.468</ele>
        <time>2022-06-19T15:46:03Z</time>
      </trkpt>
      <trkpt lat="42.42215200000008" lon="-1.7085910000000022">
        <ele>402.073</ele>
        <time>2022-06-19T15:46:11Z</time>
      </trkpt>
      <trkpt lat="42.42205200000008" lon="-1.7086050000000021">
        <ele>403.285</ele>
        <time>2022-06-19T15:46:14Z</time>
      </trkpt>
      <trkpt lat="42.42182300000008" lon="-1.708622000000002">
        <ele>403.413</ele>
        <time>2022-06-19T15:46:20Z</time>
      </trkpt>
      <trkpt lat="42.42149100000008" lon="-1.7086540000000021">
        <ele>403.809</ele>
        <time>2022-06-19T15:46:29Z</time>
      </trkpt>
      <trkpt lat="42.42105600000008" lon="-1.708690000000002">
        <ele>403.838</ele>
        <time>2022-06-19T15:46:40Z</time>
      </trkpt>
      <trkpt lat="42.42050400000008" lon="-1.708730000000002">
        <ele>403.277</ele>
        <time>2022-06-19T15:46:51Z</time>
      </trkpt>
      <trkpt lat="42.42006400000008" lon="-1.708760000000002">
        <ele>402.062</ele>
        <time>2022-06-19T15:47:01Z</time>
      </trkpt>
      <trkpt lat="42.419976000000084" lon="-1.708765000000002">
        <ele>402.036</ele>
        <time>2022-06-19T15:47:02Z</time>
      </trkpt>
      <trkpt lat="42.41985600000008" lon="-1.7087750000000022">
        <ele>402.018</ele>
        <time>2022-06-19T15:47:06Z</time>
      </trkpt>
      <trkpt lat="42.41928800000008" lon="-1.7088290000000022">
        <ele>401.624</ele>
        <time>2022-06-19T15:47:18Z</time>
      </trkpt>
      <trkpt lat="42.41888500000008" lon="-1.708854000000002">
        <ele>401.668</ele>
        <time>2022-06-19T15:47:29Z</time>
      </trkpt>
      <trkpt lat="42.41839100000008" lon="-1.708895000000002">
        <ele>402.071</ele>
        <time>2022-06-19T15:47:40Z</time>
      </trkpt>
      <trkpt lat="42.418001000000075" lon="-1.7089210000000021">
        <ele>402.070</ele>
        <time>2022-06-19T15:47:50Z</time>
      </trkpt>
      <trkpt lat="42.41742600000008" lon="-1.7089640000000021">
        <ele>401.466</ele>
        <time>2022-06-19T15:48:02Z</time>
      </trkpt>
      <trkpt lat="42.41742600000008" lon="-1.7089640000000021">
        <ele>401.429</ele>
        <time>2022-06-19T15:48:03Z</time>
      </trkpt>
      <trkpt lat="42.41728200000008" lon="-1.708970000000002">
        <ele>400.621</ele>
        <time>2022-06-19T15:48:06Z</time>
      </trkpt>
      <trkpt lat="42.41714200000008" lon="-1.708978000000002">
        <ele>399.609</ele>
        <time>2022-06-19T15:48:09Z</time>
      </trkpt>
      <trkpt lat="42.41692400000008" lon="-1.708998000000002">
        <ele>399.427</ele>
        <time>2022-06-19T15:48:14Z</time>
      </trkpt>
      <trkpt lat="42.41672300000008" lon="-1.709020000000002">
        <ele>399.416</ele>
        <time>2022-06-19T15:48:18Z</time>
      </trkpt>
      <trkpt lat="42.41668500000008" lon="-1.709020000000002">
        <ele>399.411</ele>
        <time>2022-06-19T15:48:19Z</time>
      </trkpt>
      <trkpt lat="42.416647000000076" lon="-1.7090240000000019">
        <ele>399.445</ele>
        <time>2022-06-19T15:48:20Z</time>
      </trkpt>
      <trkpt lat="42.41661500000008" lon="-1.709034000000002">
        <ele>399.677</ele>
        <time>2022-06-19T15:48:21Z</time>
      </trkpt>
      <trkpt lat="42.41643500000008" lon="-1.709042000000002">
        <ele>399.843</ele>
        <time>2022-06-19T15:48:26Z</time>
      </trkpt>
      <trkpt lat="42.416214000000075" lon="-1.709072000000002">
        <ele>400.667</ele>
        <time>2022-06-19T15:48:32Z</time>
      </trkpt>
      <trkpt lat="42.41608000000007" lon="-1.7091050000000019">
        <ele>401.020</ele>
        <time>2022-06-19T15:48:36Z</time>
      </trkpt>
      <trkpt lat="42.41595100000007" lon="-1.7091270000000018">
        <ele>401.279</ele>
        <time>2022-06-19T15:48:41Z</time>
      </trkpt>
      <trkpt lat="42.41580700000007" lon="-1.7091490000000018">
        <ele>401.296</ele>
        <time>2022-06-19T15:48:44Z</time>
      </trkpt>
      <trkpt lat="42.41546400000007" lon="-1.7092190000000018">
        <ele>401.631</ele>
        <time>2022-06-19T15:48:54Z</time>
      </trkpt>
      <trkpt lat="42.41525500000007" lon="-1.7092740000000017">
        <ele>402.824</ele>
        <time>2022-06-19T15:49:01Z</time>
      </trkpt>
      <trkpt lat="42.41518300000007" lon="-1.7092920000000018">
        <ele>402.809</ele>
        <time>2022-06-19T15:49:02Z</time>
      </trkpt>
      <trkpt lat="42.41489400000007" lon="-1.7093700000000018">
        <ele>403.870</ele>
        <time>2022-06-19T15:49:10Z</time>
      </trkpt>
      <trkpt lat="42.41478900000007" lon="-1.709399000000002">
        <ele>404.469</ele>
        <time>2022-06-19T15:49:14Z</time>
      </trkpt>
      <trkpt lat="42.41444400000007" lon="-1.7095050000000018">
        <ele>404.634</ele>
        <time>2022-06-19T15:49:23Z</time>
      </trkpt>
      <trkpt lat="42.414360000000066" lon="-1.7095320000000018">
        <ele>404.218</ele>
        <time>2022-06-19T15:49:24Z</time>
      </trkpt>
      <trkpt lat="42.41418700000007" lon="-1.7095970000000018">
        <ele>402.820</ele>
        <time>2022-06-19T15:49:29Z</time>
      </trkpt>
      <trkpt lat="42.41386500000007" lon="-1.7097130000000018">
        <ele>402.496</ele>
        <time>2022-06-19T15:49:35Z</time>
      </trkpt>
      <trkpt lat="42.41347100000007" lon="-1.7098460000000018">
        <ele>402.020</ele>
        <time>2022-06-19T15:49:43Z</time>
      </trkpt>
      <trkpt lat="42.41337100000007" lon="-1.7098830000000018">
        <ele>402.043</ele>
        <time>2022-06-19T15:49:45Z</time>
      </trkpt>
      <trkpt lat="42.41302300000007" lon="-1.7100040000000019">
        <ele>400.812</ele>
        <time>2022-06-19T15:49:53Z</time>
      </trkpt>
      <trkpt lat="42.412877000000066" lon="-1.7100590000000018">
        <ele>399.039</ele>
        <time>2022-06-19T15:49:56Z</time>
      </trkpt>
      <trkpt lat="42.41268400000006" lon="-1.7101270000000017">
        <ele>398.001</ele>
        <time>2022-06-19T15:49:59Z</time>
      </trkpt>
      <trkpt lat="42.41255000000006" lon="-1.7101720000000018">
        <ele>397.221</ele>
        <time>2022-06-19T15:50:03Z</time>
      </trkpt>
      <trkpt lat="42.41224000000006" lon="-1.7102860000000017">
        <ele>397.209</ele>
        <time>2022-06-19T15:50:11Z</time>
      </trkpt>
      <trkpt lat="42.41188800000006" lon="-1.7104150000000018">
        <ele>397.454</ele>
        <time>2022-06-19T15:50:20Z</time>
      </trkpt>
      <trkpt lat="42.41140400000006" lon="-1.7105900000000018">
        <ele>398.433</ele>
        <time>2022-06-19T15:50:31Z</time>
      </trkpt>
      <trkpt lat="42.41128300000006" lon="-1.7106360000000018">
        <ele>398.618</ele>
        <time>2022-06-19T15:50:34Z</time>
      </trkpt>
      <trkpt lat="42.411006000000064" lon="-1.7107250000000018">
        <ele>399.072</ele>
        <time>2022-06-19T15:50:41Z</time>
      </trkpt>
      <trkpt lat="42.41093100000006" lon="-1.710743000000002">
        <ele>399.464</ele>
        <time>2022-06-19T15:50:43Z</time>
      </trkpt>
      <trkpt lat="42.41072600000006" lon="-1.710812000000002">
        <ele>400.060</ele>
        <time>2022-06-19T15:50:48Z</time>
      </trkpt>
      <trkpt lat="42.41039300000006" lon="-1.710928000000002">
        <ele>400.474</ele>
        <time>2022-06-19T15:50:56Z</time>
      </trkpt>
      <trkpt lat="42.40998300000006" lon="-1.711074000000002">
        <ele>399.047</ele>
        <time>2022-06-19T15:51:07Z</time>
      </trkpt>
      <trkpt lat="42.409506000000064" lon="-1.711251000000002">
        <ele>400.256</ele>
        <time>2022-06-19T15:51:19Z</time>
      </trkpt>
      <trkpt lat="42.40942800000006" lon="-1.711276000000002">
        <ele>400.415</ele>
        <time>2022-06-19T15:51:21Z</time>
      </trkpt>
      <trkpt lat="42.40927300000006" lon="-1.711335000000002">
        <ele>400.665</ele>
        <time>2022-06-19T15:51:25Z</time>
      </trkpt>
      <trkpt lat="42.409061000000065" lon="-1.711413000000002">
        <ele>400.411</ele>
        <time>2022-06-19T15:51:31Z</time>
      </trkpt>
      <trkpt lat="42.408873000000064" lon="-1.711479000000002">
        <ele>399.009</ele>
        <time>2022-06-19T15:51:37Z</time>
      </trkpt>
      <trkpt lat="42.40869300000006" lon="-1.711547000000002">
        <ele>398.222</ele>
        <time>2022-06-19T15:51:41Z</time>
      </trkpt>
      <trkpt lat="42.40864900000006" lon="-1.711565000000002">
        <ele>398.051</ele>
        <time>2022-06-19T15:51:43Z</time>
      </trkpt>
      <trkpt lat="42.40834400000006" lon="-1.711664000000002">
        <ele>397.246</ele>
        <time>2022-06-19T15:51:51Z</time>
      </trkpt>
      <trkpt lat="42.40805000000007" lon="-1.711776000000002">
        <ele>397.880</ele>
        <time>2022-06-19T15:52:01Z</time>
      </trkpt>
      <trkpt lat="42.407733000000064" lon="-1.711890000000002">
        <ele>398.882</ele>
        <time>2022-06-19T15:52:10Z</time>
      </trkpt>
      <trkpt lat="42.407677000000064" lon="-1.7119150000000019">
        <ele>399.038</ele>
        <time>2022-06-19T15:52:12Z</time>
      </trkpt>
      <trkpt lat="42.40740500000006" lon="-1.7120080000000018">
        <ele>399.432</ele>
        <time>2022-06-19T15:52:21Z</time>
      </trkpt>
      <trkpt lat="42.40709300000006" lon="-1.7121190000000017">
        <ele>399.645</ele>
        <time>2022-06-19T15:52:30Z</time>
      </trkpt>
      <trkpt lat="42.40674300000006" lon="-1.7122560000000018">
        <ele>398.044</ele>
        <time>2022-06-19T15:52:40Z</time>
      </trkpt>
      <trkpt lat="42.40665700000006" lon="-1.7122850000000018">
        <ele>397.838</ele>
        <time>2022-06-19T15:52:41Z</time>
      </trkpt>
      <trkpt lat="42.40616600000006" lon="-1.7124530000000018">
        <ele>397.270</ele>
        <time>2022-06-19T15:52:52Z</time>
      </trkpt>
      <trkpt lat="42.406131000000066" lon="-1.7124650000000017">
        <ele>396.817</ele>
        <time>2022-06-19T15:52:53Z</time>
      </trkpt>
      <trkpt lat="42.405743000000065" lon="-1.7126100000000017">
        <ele>395.809</ele>
        <time>2022-06-19T15:53:02Z</time>
      </trkpt>
      <trkpt lat="42.40569900000006" lon="-1.7126240000000017">
        <ele>395.854</ele>
        <time>2022-06-19T15:53:03Z</time>
      </trkpt>
      <trkpt lat="42.40524100000006" lon="-1.7127860000000017">
        <ele>395.493</ele>
        <time>2022-06-19T15:53:15Z</time>
      </trkpt>
      <trkpt lat="42.40477900000006" lon="-1.7129500000000017">
        <ele>395.878</ele>
        <time>2022-06-19T15:53:27Z</time>
      </trkpt>
      <trkpt lat="42.40443100000006" lon="-1.7130720000000017">
        <ele>397.012</ele>
        <time>2022-06-19T15:53:36Z</time>
      </trkpt>
      <trkpt lat="42.40440300000006" lon="-1.7130820000000018">
        <ele>397.034</ele>
        <time>2022-06-19T15:53:37Z</time>
      </trkpt>
      <trkpt lat="42.40386000000006" lon="-1.7132850000000017">
        <ele>396.640</ele>
        <time>2022-06-19T15:53:51Z</time>
      </trkpt>
      <trkpt lat="42.403816000000056" lon="-1.7132990000000017">
        <ele>396.614</ele>
        <time>2022-06-19T15:53:52Z</time>
      </trkpt>
      <trkpt lat="42.40342100000006" lon="-1.7134390000000017">
        <ele>396.637</ele>
        <time>2022-06-19T15:54:01Z</time>
      </trkpt>
      <trkpt lat="42.40298800000006" lon="-1.7136000000000018">
        <ele>395.876</ele>
        <time>2022-06-19T15:54:11Z</time>
      </trkpt>
      <trkpt lat="42.402935000000056" lon="-1.7136200000000017">
        <ele>395.626</ele>
        <time>2022-06-19T15:54:12Z</time>
      </trkpt>
      <trkpt lat="42.40272300000006" lon="-1.7136940000000016">
        <ele>394.847</ele>
        <time>2022-06-19T15:54:17Z</time>
      </trkpt>
      <trkpt lat="42.40239300000006" lon="-1.7138090000000017">
        <ele>394.411</ele>
        <time>2022-06-19T15:54:23Z</time>
      </trkpt>
      <trkpt lat="42.402130000000064" lon="-1.7139120000000017">
        <ele>393.609</ele>
        <time>2022-06-19T15:54:29Z</time>
      </trkpt>
      <trkpt lat="42.40195300000006" lon="-1.7139740000000017">
        <ele>393.283</ele>
        <time>2022-06-19T15:54:34Z</time>
      </trkpt>
      <trkpt lat="42.401493000000066" lon="-1.7141380000000017">
        <ele>392.882</ele>
        <time>2022-06-19T15:54:45Z</time>
      </trkpt>
      <trkpt lat="42.40116200000006" lon="-1.7142560000000018">
        <ele>393.837</ele>
        <time>2022-06-19T15:54:54Z</time>
      </trkpt>
      <trkpt lat="42.40097700000006" lon="-1.7143230000000018">
        <ele>394.861</ele>
        <time>2022-06-19T15:54:59Z</time>
      </trkpt>
      <trkpt lat="42.400765000000064" lon="-1.7144060000000019">
        <ele>395.643</ele>
        <time>2022-06-19T15:55:04Z</time>
      </trkpt>
      <trkpt lat="42.40073000000007" lon="-1.714419000000002">
        <ele>395.829</ele>
        <time>2022-06-19T15:55:05Z</time>
      </trkpt>
      <trkpt lat="42.40048800000007" lon="-1.714496000000002">
        <ele>396.273</ele>
        <time>2022-06-19T15:55:13Z</time>
      </trkpt>
      <trkpt lat="42.400351000000065" lon="-1.714550000000002">
        <ele>396.876</ele>
        <time>2022-06-19T15:55:16Z</time>
      </trkpt>
      <trkpt lat="42.40016900000006" lon="-1.714605000000002">
        <ele>397.025</ele>
        <time>2022-06-19T15:55:21Z</time>
      </trkpt>
      <trkpt lat="42.400027000000065" lon="-1.714662000000002">
        <ele>398.292</ele>
        <time>2022-06-19T15:55:26Z</time>
      </trkpt>
      <trkpt lat="42.399788000000065" lon="-1.7147470000000018">
        <ele>398.673</ele>
        <time>2022-06-19T15:55:33Z</time>
      </trkpt>
      <trkpt lat="42.39936700000006" lon="-1.7148770000000018">
        <ele>398.620</ele>
        <time>2022-06-19T15:55:43Z</time>
      </trkpt>
      <trkpt lat="42.39897000000006" lon="-1.7150320000000017">
        <ele>398.409</ele>
        <time>2022-06-19T15:55:53Z</time>
      </trkpt>
      <trkpt lat="42.398614000000066" lon="-1.7151570000000016">
        <ele>398.210</ele>
        <time>2022-06-19T15:56:03Z</time>
      </trkpt>
      <trkpt lat="42.39818800000007" lon="-1.7153250000000015">
        <ele>397.879</ele>
        <time>2022-06-19T15:56:13Z</time>
      </trkpt>
      <trkpt lat="42.39769200000007" lon="-1.7155410000000015">
        <ele>397.214</ele>
        <time>2022-06-19T15:56:24Z</time>
      </trkpt>
      <trkpt lat="42.39765300000007" lon="-1.7155580000000015">
        <ele>397.068</ele>
        <time>2022-06-19T15:56:26Z</time>
      </trkpt>
      <trkpt lat="42.39731700000007" lon="-1.7157180000000014">
        <ele>397.020</ele>
        <time>2022-06-19T15:56:34Z</time>
      </trkpt>
      <trkpt lat="42.39697900000007" lon="-1.7158840000000015">
        <ele>397.876</ele>
        <time>2022-06-19T15:56:44Z</time>
      </trkpt>
      <trkpt lat="42.39676000000007" lon="-1.7159890000000015">
        <ele>398.250</ele>
        <time>2022-06-19T15:56:51Z</time>
      </trkpt>
      <trkpt lat="42.39667900000007" lon="-1.7160340000000016">
        <ele>398.473</ele>
        <time>2022-06-19T15:56:55Z</time>
      </trkpt>
      <trkpt lat="42.39642600000007" lon="-1.7161760000000017">
        <ele>399.672</ele>
        <time>2022-06-19T15:57:04Z</time>
      </trkpt>
      <trkpt lat="42.39620700000007" lon="-1.7163070000000018">
        <ele>400.686</ele>
        <time>2022-06-19T15:57:12Z</time>
      </trkpt>
      <trkpt lat="42.39613000000007" lon="-1.7163520000000019">
        <ele>400.860</ele>
        <time>2022-06-19T15:57:14Z</time>
      </trkpt>
      <trkpt lat="42.395926000000074" lon="-1.7164600000000019">
        <ele>401.826</ele>
        <time>2022-06-19T15:57:22Z</time>
      </trkpt>
      <trkpt lat="42.39569300000007" lon="-1.716608000000002">
        <ele>402.609</ele>
        <time>2022-06-19T15:57:31Z</time>
      </trkpt>
      <trkpt lat="42.39543700000007" lon="-1.7168330000000018">
        <ele>402.689</ele>
        <time>2022-06-19T15:57:42Z</time>
      </trkpt>
      <trkpt lat="42.395256000000074" lon="-1.7170430000000019">
        <ele>402.688</ele>
        <time>2022-06-19T15:57:51Z</time>
      </trkpt>
      <trkpt lat="42.39508200000007" lon="-1.7172710000000018">
        <ele>402.653</ele>
        <time>2022-06-19T15:58:00Z</time>
      </trkpt>
      <trkpt lat="42.394958000000074" lon="-1.7174750000000019">
        <ele>403.037</ele>
        <time>2022-06-19T15:58:07Z</time>
      </trkpt>
      <trkpt lat="42.394836000000076" lon="-1.717712000000002">
        <ele>403.019</ele>
        <time>2022-06-19T15:58:14Z</time>
      </trkpt>
      <trkpt lat="42.39466000000007" lon="-1.7180580000000019">
        <ele>403.495</ele>
        <time>2022-06-19T15:58:23Z</time>
      </trkpt>
      <trkpt lat="42.394389000000075" lon="-1.718567000000002">
        <ele>402.429</ele>
        <time>2022-06-19T15:58:35Z</time>
      </trkpt>
      <trkpt lat="42.39433100000007" lon="-1.718661000000002">
        <ele>402.442</ele>
        <time>2022-06-19T15:58:37Z</time>
      </trkpt>
      <trkpt lat="42.39426300000007" lon="-1.718757000000002">
        <ele>402.061</ele>
        <time>2022-06-19T15:58:40Z</time>
      </trkpt>
      <trkpt lat="42.39417100000007" lon="-1.718898000000002">
        <ele>401.846</ele>
        <time>2022-06-19T15:58:43Z</time>
      </trkpt>
      <trkpt lat="42.39399400000007" lon="-1.719131000000002">
        <ele>400.888</ele>
        <time>2022-06-19T15:58:47Z</time>
      </trkpt>
      <trkpt lat="42.39390900000007" lon="-1.719228000000002">
        <ele>399.616</ele>
        <time>2022-06-19T15:58:49Z</time>
      </trkpt>
      <trkpt lat="42.39386800000007" lon="-1.719279000000002">
        <ele>398.409</ele>
        <time>2022-06-19T15:58:51Z</time>
      </trkpt>
      <trkpt lat="42.39382800000007" lon="-1.719329000000002">
        <ele>397.875</ele>
        <time>2022-06-19T15:58:52Z</time>
      </trkpt>
      <trkpt lat="42.39378500000007" lon="-1.7193770000000022">
        <ele>397.454</ele>
        <time>2022-06-19T15:58:53Z</time>
      </trkpt>
      <trkpt lat="42.393649000000075" lon="-1.719540000000002">
        <ele>396.429</ele>
        <time>2022-06-19T15:58:56Z</time>
      </trkpt>
      <trkpt lat="42.393457000000076" lon="-1.719770000000002">
        <ele>395.223</ele>
        <time>2022-06-19T15:58:59Z</time>
      </trkpt>
      <trkpt lat="42.39325100000008" lon="-1.720005000000002">
        <ele>394.085</ele>
        <time>2022-06-19T15:59:03Z</time>
      </trkpt>
      <trkpt lat="42.393204000000075" lon="-1.720058000000002">
        <ele>392.841</ele>
        <time>2022-06-19T15:59:04Z</time>
      </trkpt>
      <trkpt lat="42.39315700000007" lon="-1.7201080000000022">
        <ele>391.635</ele>
        <time>2022-06-19T15:59:06Z</time>
      </trkpt>
      <trkpt lat="42.393030000000074" lon="-1.7202540000000022">
        <ele>391.038</ele>
        <time>2022-06-19T15:59:08Z</time>
      </trkpt>
      <trkpt lat="42.39295000000008" lon="-1.7203490000000021">
        <ele>390.677</ele>
        <time>2022-06-19T15:59:10Z</time>
      </trkpt>
      <trkpt lat="42.392683000000076" lon="-1.7206700000000021">
        <ele>389.834</ele>
        <time>2022-06-19T15:59:18Z</time>
      </trkpt>
      <trkpt lat="42.39234400000008" lon="-1.7210550000000022">
        <ele>389.455</ele>
        <time>2022-06-19T15:59:26Z</time>
      </trkpt>
      <trkpt lat="42.39223500000008" lon="-1.7211770000000022">
        <ele>389.210</ele>
        <time>2022-06-19T15:59:29Z</time>
      </trkpt>
      <trkpt lat="42.39209700000008" lon="-1.7213380000000023">
        <ele>388.409</ele>
        <time>2022-06-19T15:59:33Z</time>
      </trkpt>
      <trkpt lat="42.39183400000008" lon="-1.7216500000000023">
        <ele>387.424</ele>
        <time>2022-06-19T15:59:40Z</time>
      </trkpt>
      <trkpt lat="42.39171100000008" lon="-1.7217980000000024">
        <ele>387.033</ele>
        <time>2022-06-19T15:59:44Z</time>
      </trkpt>
      <trkpt lat="42.39132000000008" lon="-1.7222550000000023">
        <ele>386.418</ele>
        <time>2022-06-19T15:59:53Z</time>
      </trkpt>
      <trkpt lat="42.39122900000008" lon="-1.7223630000000023">
        <ele>386.232</ele>
        <time>2022-06-19T15:59:54Z</time>
      </trkpt>
      <trkpt lat="42.39109300000008" lon="-1.7225250000000023">
        <ele>384.864</ele>
        <time>2022-06-19T15:59:57Z</time>
      </trkpt>
      <trkpt lat="42.39091100000008" lon="-1.7227370000000024">
        <ele>383.640</ele>
        <time>2022-06-19T16:00:01Z</time>
      </trkpt>
      <trkpt lat="42.390828000000084" lon="-1.7228410000000025">
        <ele>383.444</ele>
        <time>2022-06-19T16:00:03Z</time>
      </trkpt>
      <trkpt lat="42.390743000000086" lon="-1.7229450000000026">
        <ele>382.697</ele>
        <time>2022-06-19T16:00:05Z</time>
      </trkpt>
      <trkpt lat="42.390563000000085" lon="-1.7231500000000026">
        <ele>381.666</ele>
        <time>2022-06-19T16:00:09Z</time>
      </trkpt>
      <trkpt lat="42.390386000000085" lon="-1.7233560000000026">
        <ele>380.838</ele>
        <time>2022-06-19T16:00:14Z</time>
      </trkpt>
      <trkpt lat="42.39021900000009" lon="-1.7235520000000026">
        <ele>380.270</ele>
        <time>2022-06-19T16:00:17Z</time>
      </trkpt>
      <trkpt lat="42.39005300000009" lon="-1.7237470000000026">
        <ele>379.017</ele>
        <time>2022-06-19T16:00:21Z</time>
      </trkpt>
      <trkpt lat="42.389933000000084" lon="-1.7238840000000026">
        <ele>378.209</ele>
        <time>2022-06-19T16:00:24Z</time>
      </trkpt>
      <trkpt lat="42.38989500000008" lon="-1.7239280000000026">
        <ele>377.824</ele>
        <time>2022-06-19T16:00:25Z</time>
      </trkpt>
      <trkpt lat="42.38963800000008" lon="-1.7242220000000026">
        <ele>376.673</ele>
        <time>2022-06-19T16:00:32Z</time>
      </trkpt>
      <trkpt lat="42.389561000000086" lon="-1.7243080000000026">
        <ele>376.038</ele>
        <time>2022-06-19T16:00:34Z</time>
      </trkpt>
      <trkpt lat="42.389370000000085" lon="-1.7245410000000025">
        <ele>375.492</ele>
        <time>2022-06-19T16:00:39Z</time>
      </trkpt>
      <trkpt lat="42.389254000000086" lon="-1.7246700000000026">
        <ele>375.244</ele>
        <time>2022-06-19T16:00:43Z</time>
      </trkpt>
      <trkpt lat="42.388818000000086" lon="-1.7251790000000027">
        <ele>374.680</ele>
        <time>2022-06-19T16:00:55Z</time>
      </trkpt>
      <trkpt lat="42.388706000000084" lon="-1.7253090000000026">
        <ele>374.474</ele>
        <time>2022-06-19T16:00:57Z</time>
      </trkpt>
      <trkpt lat="42.388565000000085" lon="-1.7254810000000027">
        <ele>373.237</ele>
        <time>2022-06-19T16:01:02Z</time>
      </trkpt>
      <trkpt lat="42.388177000000084" lon="-1.7259330000000026">
        <ele>372.666</ele>
        <time>2022-06-19T16:01:11Z</time>
      </trkpt>
      <trkpt lat="42.38794400000008" lon="-1.7262060000000026">
        <ele>372.069</ele>
        <time>2022-06-19T16:01:17Z</time>
      </trkpt>
      <trkpt lat="42.387867000000085" lon="-1.7262980000000026">
        <ele>370.604</ele>
        <time>2022-06-19T16:01:19Z</time>
      </trkpt>
      <trkpt lat="42.38782900000008" lon="-1.7263430000000026">
        <ele>370.224</ele>
        <time>2022-06-19T16:01:20Z</time>
      </trkpt>
      <trkpt lat="42.38769400000008" lon="-1.7264990000000027">
        <ele>369.609</ele>
        <time>2022-06-19T16:01:24Z</time>
      </trkpt>
      <trkpt lat="42.38742500000008" lon="-1.7268240000000026">
        <ele>369.257</ele>
        <time>2022-06-19T16:01:31Z</time>
      </trkpt>
      <trkpt lat="42.38709500000008" lon="-1.7272090000000027">
        <ele>368.486</ele>
        <time>2022-06-19T16:01:39Z</time>
      </trkpt>
      <trkpt lat="42.38682400000008" lon="-1.7275250000000026">
        <ele>367.441</ele>
        <time>2022-06-19T16:01:46Z</time>
      </trkpt>
      <trkpt lat="42.38662800000008" lon="-1.7277540000000027">
        <ele>366.445</ele>
        <time>2022-06-19T16:01:52Z</time>
      </trkpt>
      <trkpt lat="42.38654200000008" lon="-1.7278550000000026">
        <ele>366.257</ele>
        <time>2022-06-19T16:01:53Z</time>
      </trkpt>
      <trkpt lat="42.38633600000008" lon="-1.7280990000000025">
        <ele>365.473</ele>
        <time>2022-06-19T16:01:58Z</time>
      </trkpt>
      <trkpt lat="42.38616500000008" lon="-1.7282950000000026">
        <ele>364.847</ele>
        <time>2022-06-19T16:02:03Z</time>
      </trkpt>
      <trkpt lat="42.385955000000074" lon="-1.7285450000000027">
        <ele>364.250</ele>
        <time>2022-06-19T16:02:09Z</time>
      </trkpt>
      <trkpt lat="42.38581300000008" lon="-1.7287050000000026">
        <ele>363.899</ele>
        <time>2022-06-19T16:02:12Z</time>
      </trkpt>
      <trkpt lat="42.38566900000008" lon="-1.7288620000000026">
        <ele>363.245</ele>
        <time>2022-06-19T16:02:16Z</time>
      </trkpt>
      <trkpt lat="42.38560700000008" lon="-1.7289360000000025">
        <ele>363.247</ele>
        <time>2022-06-19T16:02:19Z</time>
      </trkpt>
      <trkpt lat="42.38525800000008" lon="-1.7293420000000024">
        <ele>363.811</ele>
        <time>2022-06-19T16:02:30Z</time>
      </trkpt>
      <trkpt lat="42.385090000000076" lon="-1.7295360000000024">
        <ele>364.409</ele>
        <time>2022-06-19T16:02:35Z</time>
      </trkpt>
      <trkpt lat="42.385009000000075" lon="-1.7296390000000024">
        <ele>364.815</ele>
        <time>2022-06-19T16:02:38Z</time>
      </trkpt>
      <trkpt lat="42.38486700000008" lon="-1.7298010000000024">
        <ele>365.624</ele>
        <time>2022-06-19T16:02:43Z</time>
      </trkpt>
      <trkpt lat="42.38478700000008" lon="-1.7298940000000023">
        <ele>366.299</ele>
        <time>2022-06-19T16:02:47Z</time>
      </trkpt>
      <trkpt lat="42.38453200000008" lon="-1.7301890000000022">
        <ele>366.633</ele>
        <time>2022-06-19T16:02:56Z</time>
      </trkpt>
      <trkpt lat="42.384485000000076" lon="-1.7302480000000022">
        <ele>366.635</ele>
        <time>2022-06-19T16:02:58Z</time>
      </trkpt>
      <trkpt lat="42.384283000000075" lon="-1.7304730000000021">
        <ele>367.851</ele>
        <time>2022-06-19T16:03:06Z</time>
      </trkpt>
      <trkpt lat="42.38420600000008" lon="-1.7305700000000022">
        <ele>368.245</ele>
        <time>2022-06-19T16:03:09Z</time>
      </trkpt>
      <trkpt lat="42.38408700000008" lon="-1.730711000000002">
        <ele>368.818</ele>
        <time>2022-06-19T16:03:14Z</time>
      </trkpt>
      <trkpt lat="42.38404000000008" lon="-1.7307700000000021">
        <ele>368.837</ele>
        <time>2022-06-19T16:03:17Z</time>
      </trkpt>
      <trkpt lat="42.383680000000076" lon="-1.731184000000002">
        <ele>369.454</ele>
        <time>2022-06-19T16:03:28Z</time>
      </trkpt>
      <trkpt lat="42.38334100000008" lon="-1.7315800000000021">
        <ele>369.856</ele>
        <time>2022-06-19T16:03:39Z</time>
      </trkpt>
      <trkpt lat="42.38322100000008" lon="-1.731724000000002">
        <ele>369.811</ele>
        <time>2022-06-19T16:03:43Z</time>
      </trkpt>
      <trkpt lat="42.382834000000074" lon="-1.732173000000002">
        <ele>370.009</ele>
        <time>2022-06-19T16:03:56Z</time>
      </trkpt>
      <trkpt lat="42.38253600000007" lon="-1.732515000000002">
        <ele>369.476</ele>
        <time>2022-06-19T16:04:06Z</time>
      </trkpt>
      <trkpt lat="42.382248000000075" lon="-1.732848000000002">
        <ele>368.615</ele>
        <time>2022-06-19T16:04:13Z</time>
      </trkpt>
      <trkpt lat="42.382141000000075" lon="-1.732977000000002">
        <ele>367.810</ele>
        <time>2022-06-19T16:04:17Z</time>
      </trkpt>
      <trkpt lat="42.38198700000007" lon="-1.733154000000002">
        <ele>367.484</ele>
        <time>2022-06-19T16:04:20Z</time>
      </trkpt>
      <trkpt lat="42.38174600000007" lon="-1.7334420000000021">
        <ele>366.416</ele>
        <time>2022-06-19T16:04:26Z</time>
      </trkpt>
      <trkpt lat="42.38157500000007" lon="-1.7336460000000022">
        <ele>365.832</ele>
        <time>2022-06-19T16:04:30Z</time>
      </trkpt>
      <trkpt lat="42.38140200000007" lon="-1.7338500000000023">
        <ele>365.276</ele>
        <time>2022-06-19T16:04:35Z</time>
      </trkpt>
      <trkpt lat="42.38113500000007" lon="-1.7341600000000024">
        <ele>364.459</ele>
        <time>2022-06-19T16:04:40Z</time>
      </trkpt>
      <trkpt lat="42.38109200000007" lon="-1.7342130000000024">
        <ele>364.068</ele>
        <time>2022-06-19T16:04:42Z</time>
      </trkpt>
      <trkpt lat="42.380883000000075" lon="-1.7344610000000025">
        <ele>362.658</ele>
        <time>2022-06-19T16:04:46Z</time>
      </trkpt>
      <trkpt lat="42.380636000000074" lon="-1.7347500000000025">
        <ele>361.652</ele>
        <time>2022-06-19T16:04:53Z</time>
      </trkpt>
      <trkpt lat="42.38050800000008" lon="-1.7349020000000024">
        <ele>361.417</ele>
        <time>2022-06-19T16:04:56Z</time>
      </trkpt>
      <trkpt lat="42.380126000000075" lon="-1.7353540000000023">
        <ele>360.809</ele>
        <time>2022-06-19T16:05:05Z</time>
      </trkpt>
      <trkpt lat="42.37995600000008" lon="-1.7355580000000024">
        <ele>360.446</ele>
        <time>2022-06-19T16:05:08Z</time>
      </trkpt>
      <trkpt lat="42.37969300000008" lon="-1.7358560000000023">
        <ele>359.865</ele>
        <time>2022-06-19T16:05:15Z</time>
      </trkpt>
      <trkpt lat="42.37952700000008" lon="-1.7360470000000023">
        <ele>358.680</ele>
        <time>2022-06-19T16:05:19Z</time>
      </trkpt>
      <trkpt lat="42.37944500000008" lon="-1.7361440000000024">
        <ele>358.064</ele>
        <time>2022-06-19T16:05:20Z</time>
      </trkpt>
      <trkpt lat="42.37936600000008" lon="-1.7362410000000024">
        <ele>357.666</ele>
        <time>2022-06-19T16:05:22Z</time>
      </trkpt>
      <trkpt lat="42.379216000000085" lon="-1.7364220000000024">
        <ele>356.422</ele>
        <time>2022-06-19T16:05:27Z</time>
      </trkpt>
      <trkpt lat="42.37914100000008" lon="-1.7365100000000024">
        <ele>356.486</ele>
        <time>2022-06-19T16:05:28Z</time>
      </trkpt>
      <trkpt lat="42.37882400000008" lon="-1.7368840000000025">
        <ele>355.499</ele>
        <time>2022-06-19T16:05:36Z</time>
      </trkpt>
      <trkpt lat="42.37862400000008" lon="-1.7371120000000024">
        <ele>355.278</ele>
        <time>2022-06-19T16:05:41Z</time>
      </trkpt>
      <trkpt lat="42.37844000000008" lon="-1.7373240000000025">
        <ele>354.425</ele>
        <time>2022-06-19T16:05:46Z</time>
      </trkpt>
      <trkpt lat="42.37837100000008" lon="-1.7374030000000025">
        <ele>354.026</ele>
        <time>2022-06-19T16:05:48Z</time>
      </trkpt>
      <trkpt lat="42.37837100000008" lon="-1.7374030000000025">
        <ele>353.808</ele>
        <time>2022-06-19T16:05:49Z</time>
      </trkpt>
      <trkpt lat="42.37829200000008" lon="-1.7374950000000025">
        <ele>353.809</ele>
        <time>2022-06-19T16:05:50Z</time>
      </trkpt>
      <trkpt lat="42.37809400000008" lon="-1.7377170000000024">
        <ele>353.673</ele>
        <time>2022-06-19T16:05:56Z</time>
      </trkpt>
      <trkpt lat="42.377781000000084" lon="-1.7380730000000024">
        <ele>354.072</ele>
        <time>2022-06-19T16:06:06Z</time>
      </trkpt>
      <trkpt lat="42.377564000000085" lon="-1.7383300000000024">
        <ele>354.477</ele>
        <time>2022-06-19T16:06:15Z</time>
      </trkpt>
      <trkpt lat="42.37727800000008" lon="-1.7386730000000024">
        <ele>355.441</ele>
        <time>2022-06-19T16:06:25Z</time>
      </trkpt>
      <trkpt lat="42.37709000000008" lon="-1.7388940000000024">
        <ele>356.073</ele>
        <time>2022-06-19T16:06:33Z</time>
      </trkpt>
      <trkpt lat="42.37686600000008" lon="-1.7391490000000023">
        <ele>356.069</ele>
        <time>2022-06-19T16:06:42Z</time>
      </trkpt>
      <trkpt lat="42.37676800000008" lon="-1.7392670000000023">
        <ele>356.423</ele>
        <time>2022-06-19T16:06:47Z</time>
      </trkpt>
      <trkpt lat="42.376620000000074" lon="-1.7394400000000023">
        <ele>357.236</ele>
        <time>2022-06-19T16:06:52Z</time>
      </trkpt>
      <trkpt lat="42.376620000000074" lon="-1.7394400000000023">
        <ele>357.875</ele>
        <time>2022-06-19T16:06:53Z</time>
      </trkpt>
      <trkpt lat="42.37648300000007" lon="-1.7396030000000022">
        <ele>358.868</ele>
        <time>2022-06-19T16:06:58Z</time>
      </trkpt>
      <trkpt lat="42.37646400000007" lon="-1.7396230000000021">
        <ele>359.042</ele>
        <time>2022-06-19T16:07:00Z</time>
      </trkpt>
      <trkpt lat="42.37623700000007" lon="-1.7398760000000022">
        <ele>359.426</ele>
        <time>2022-06-19T16:07:09Z</time>
      </trkpt>
      <trkpt lat="42.376153000000066" lon="-1.7399790000000022">
        <ele>359.809</ele>
        <time>2022-06-19T16:07:14Z</time>
      </trkpt>
      <trkpt lat="42.37605600000007" lon="-1.7400860000000022">
        <ele>360.627</ele>
        <time>2022-06-19T16:07:18Z</time>
      </trkpt>
      <trkpt lat="42.37603800000007" lon="-1.7401070000000023">
        <ele>360.866</ele>
        <time>2022-06-19T16:07:19Z</time>
      </trkpt>
      <trkpt lat="42.37591500000007" lon="-1.7402540000000022">
        <ele>361.471</ele>
        <time>2022-06-19T16:07:25Z</time>
      </trkpt>
      <trkpt lat="42.37577000000007" lon="-1.740425000000002">
        <ele>361.875</ele>
        <time>2022-06-19T16:07:31Z</time>
      </trkpt>
      <trkpt lat="42.37567300000007" lon="-1.7405410000000021">
        <ele>363.027</ele>
        <time>2022-06-19T16:07:36Z</time>
      </trkpt>
      <trkpt lat="42.37559200000007" lon="-1.7406320000000022">
        <ele>363.453</ele>
        <time>2022-06-19T16:07:40Z</time>
      </trkpt>
      <trkpt lat="42.37546500000007" lon="-1.7407780000000022">
        <ele>364.077</ele>
        <time>2022-06-19T16:07:48Z</time>
      </trkpt>
      <trkpt lat="42.37532200000007" lon="-1.740949000000002">
        <ele>364.870</ele>
        <time>2022-06-19T16:07:55Z</time>
      </trkpt>
      <trkpt lat="42.37526600000007" lon="-1.741012000000002">
        <ele>365.229</ele>
        <time>2022-06-19T16:07:57Z</time>
      </trkpt>
      <trkpt lat="42.375157000000065" lon="-1.741134000000002">
        <ele>366.082</ele>
        <time>2022-06-19T16:08:03Z</time>
      </trkpt>
      <trkpt lat="42.37508000000007" lon="-1.741233000000002">
        <ele>366.243</ele>
        <time>2022-06-19T16:08:06Z</time>
      </trkpt>
      <trkpt lat="42.375022000000065" lon="-1.741300000000002">
        <ele>366.417</ele>
        <time>2022-06-19T16:08:09Z</time>
      </trkpt>
      <trkpt lat="42.37488000000007" lon="-1.741468000000002">
        <ele>367.209</ele>
        <time>2022-06-19T16:08:17Z</time>
      </trkpt>
      <trkpt lat="42.37485900000007" lon="-1.7414910000000021">
        <ele>367.489</ele>
        <time>2022-06-19T16:08:18Z</time>
      </trkpt>
      <trkpt lat="42.374692000000074" lon="-1.7416760000000022">
        <ele>367.838</ele>
        <time>2022-06-19T16:08:25Z</time>
      </trkpt>
      <trkpt lat="42.37450400000007" lon="-1.7419140000000022">
        <ele>367.833</ele>
        <time>2022-06-19T16:08:35Z</time>
      </trkpt>
      <trkpt lat="42.37427600000007" lon="-1.742177000000002">
        <ele>368.297</ele>
        <time>2022-06-19T16:08:44Z</time>
      </trkpt>
      <trkpt lat="42.37425100000007" lon="-1.742204000000002">
        <ele>368.499</ele>
        <time>2022-06-19T16:08:45Z</time>
      </trkpt>
      <trkpt lat="42.374084000000074" lon="-1.742391000000002">
        <ele>369.425</ele>
        <time>2022-06-19T16:08:52Z</time>
      </trkpt>
      <trkpt lat="42.37396400000007" lon="-1.742530000000002">
        <ele>370.089</ele>
        <time>2022-06-19T16:08:57Z</time>
      </trkpt>
      <trkpt lat="42.37383000000007" lon="-1.7426900000000018">
        <ele>370.462</ele>
        <time>2022-06-19T16:09:03Z</time>
      </trkpt>
      <trkpt lat="42.37381200000007" lon="-1.7427120000000018">
        <ele>370.461</ele>
        <time>2022-06-19T16:09:05Z</time>
      </trkpt>
      <trkpt lat="42.37360500000007" lon="-1.7429560000000017">
        <ele>371.468</ele>
        <time>2022-06-19T16:09:13Z</time>
      </trkpt>
      <trkpt lat="42.37354200000007" lon="-1.7430220000000016">
        <ele>372.242</ele>
        <time>2022-06-19T16:09:16Z</time>
      </trkpt>
      <trkpt lat="42.373510000000074" lon="-1.7430520000000016">
        <ele>372.426</ele>
        <time>2022-06-19T16:09:18Z</time>
      </trkpt>
      <trkpt lat="42.373262000000075" lon="-1.7432720000000017">
        <ele>373.209</ele>
        <time>2022-06-19T16:09:27Z</time>
      </trkpt>
      <trkpt lat="42.37299100000008" lon="-1.7435030000000018">
        <ele>373.227</ele>
        <time>2022-06-19T16:09:36Z</time>
      </trkpt>
      <trkpt lat="42.372786000000076" lon="-1.7436810000000018">
        <ele>373.636</ele>
        <time>2022-06-19T16:09:43Z</time>
      </trkpt>
      <trkpt lat="42.372716000000075" lon="-1.743742000000002">
        <ele>373.841</ele>
        <time>2022-06-19T16:09:45Z</time>
      </trkpt>
      <trkpt lat="42.372629000000074" lon="-1.743815000000002">
        <ele>374.865</ele>
        <time>2022-06-19T16:09:48Z</time>
      </trkpt>
      <trkpt lat="42.372347000000076" lon="-1.744057000000002">
        <ele>375.067</ele>
        <time>2022-06-19T16:09:57Z</time>
      </trkpt>
      <trkpt lat="42.37209900000008" lon="-1.744342000000002">
        <ele>374.443</ele>
        <time>2022-06-19T16:10:05Z</time>
      </trkpt>
      <trkpt lat="42.371869000000075" lon="-1.744677000000002">
        <ele>373.887</ele>
        <time>2022-06-19T16:10:13Z</time>
      </trkpt>
      <trkpt lat="42.37181400000007" lon="-1.744783000000002">
        <ele>373.620</ele>
        <time>2022-06-19T16:10:16Z</time>
      </trkpt>
      <trkpt lat="42.37160600000007" lon="-1.745227000000002">
        <ele>373.029</ele>
        <time>2022-06-19T16:10:23Z</time>
      </trkpt>
      <trkpt lat="42.37153800000007" lon="-1.745427000000002">
        <ele>372.695</ele>
        <time>2022-06-19T16:10:27Z</time>
      </trkpt>
      <trkpt lat="42.371455000000076" lon="-1.7457420000000021">
        <ele>372.249</ele>
        <time>2022-06-19T16:10:30Z</time>
      </trkpt>
      <trkpt lat="42.371405000000074" lon="-1.746069000000002">
        <ele>371.223</ele>
        <time>2022-06-19T16:10:34Z</time>
      </trkpt>
      <trkpt lat="42.37138700000008" lon="-1.7462280000000021">
        <ele>370.009</ele>
        <time>2022-06-19T16:10:36Z</time>
      </trkpt>
      <trkpt lat="42.37138000000008" lon="-1.746321000000002">
        <ele>369.650</ele>
        <time>2022-06-19T16:10:37Z</time>
      </trkpt>
      <trkpt lat="42.371373000000084" lon="-1.746525000000002">
        <ele>369.099</ele>
        <time>2022-06-19T16:10:40Z</time>
      </trkpt>
      <trkpt lat="42.371398000000084" lon="-1.7469860000000021">
        <ele>368.624</ele>
        <time>2022-06-19T16:10:44Z</time>
      </trkpt>
      <trkpt lat="42.37140700000008" lon="-1.747060000000002">
        <ele>367.688</ele>
        <time>2022-06-19T16:10:45Z</time>
      </trkpt>
      <trkpt lat="42.37143000000008" lon="-1.7472400000000021">
        <ele>366.420</ele>
        <time>2022-06-19T16:10:47Z</time>
      </trkpt>
      <trkpt lat="42.37145800000008" lon="-1.7474230000000022">
        <ele>365.086</ele>
        <time>2022-06-19T16:10:49Z</time>
      </trkpt>
      <trkpt lat="42.371494000000084" lon="-1.7477000000000023">
        <ele>364.270</ele>
        <time>2022-06-19T16:10:53Z</time>
      </trkpt>
      <trkpt lat="42.371522000000084" lon="-1.7478900000000022">
        <ele>364.043</ele>
        <time>2022-06-19T16:10:54Z</time>
      </trkpt>
      <trkpt lat="42.371555000000086" lon="-1.7480830000000023">
        <ele>363.022</ele>
        <time>2022-06-19T16:10:56Z</time>
      </trkpt>
      <trkpt lat="42.37160200000009" lon="-1.7484140000000024">
        <ele>362.035</ele>
        <time>2022-06-19T16:10:59Z</time>
      </trkpt>
      <trkpt lat="42.37161100000009" lon="-1.7484980000000023">
        <ele>361.886</ele>
        <time>2022-06-19T16:11:00Z</time>
      </trkpt>
      <trkpt lat="42.371671000000084" lon="-1.7490060000000023">
        <ele>360.814</ele>
        <time>2022-06-19T16:11:05Z</time>
      </trkpt>
      <trkpt lat="42.371676000000086" lon="-1.7491920000000023">
        <ele>360.409</ele>
        <time>2022-06-19T16:11:07Z</time>
      </trkpt>
      <trkpt lat="42.371674000000084" lon="-1.7492820000000022">
        <ele>360.274</ele>
        <time>2022-06-19T16:11:08Z</time>
      </trkpt>
      <trkpt lat="42.37165200000008" lon="-1.7495250000000022">
        <ele>359.663</ele>
        <time>2022-06-19T16:11:11Z</time>
      </trkpt>
      <trkpt lat="42.371603000000086" lon="-1.7497650000000022">
        <ele>359.288</ele>
        <time>2022-06-19T16:11:14Z</time>
      </trkpt>
      <trkpt lat="42.37151500000009" lon="-1.7500470000000021">
        <ele>358.632</ele>
        <time>2022-06-19T16:11:18Z</time>
      </trkpt>
      <trkpt lat="42.37148900000009" lon="-1.7501060000000022">
        <ele>358.614</ele>
        <time>2022-06-19T16:11:19Z</time>
      </trkpt>
      <trkpt lat="42.37134500000009" lon="-1.7503560000000022">
        <ele>358.040</ele>
        <time>2022-06-19T16:11:25Z</time>
      </trkpt>
      <trkpt lat="42.37108000000009" lon="-1.7506540000000022">
        <ele>357.834</ele>
        <time>2022-06-19T16:11:32Z</time>
      </trkpt>
      <trkpt lat="42.37075100000009" lon="-1.750938000000002">
        <ele>357.687</ele>
        <time>2022-06-19T16:11:41Z</time>
      </trkpt>
      <trkpt lat="42.370657000000094" lon="-1.7510150000000022">
        <ele>357.626</ele>
        <time>2022-06-19T16:11:42Z</time>
      </trkpt>
      <trkpt lat="42.37034000000009" lon="-1.7512710000000022">
        <ele>357.241</ele>
        <time>2022-06-19T16:11:48Z</time>
      </trkpt>
      <trkpt lat="42.37028600000009" lon="-1.7513150000000022">
        <ele>356.281</ele>
        <time>2022-06-19T16:11:50Z</time>
      </trkpt>
      <trkpt lat="42.370119000000095" lon="-1.7514450000000021">
        <ele>355.209</ele>
        <time>2022-06-19T16:11:52Z</time>
      </trkpt>
      <trkpt lat="42.37000200000009" lon="-1.7515390000000022">
        <ele>353.809</ele>
        <time>2022-06-19T16:11:54Z</time>
      </trkpt>
      <trkpt lat="42.369945000000094" lon="-1.7515820000000022">
        <ele>352.835</ele>
        <time>2022-06-19T16:11:56Z</time>
      </trkpt>
      <trkpt lat="42.3698340000001" lon="-1.7516690000000021">
        <ele>352.484</ele>
        <time>2022-06-19T16:11:57Z</time>
      </trkpt>
      <trkpt lat="42.3697260000001" lon="-1.751759000000002">
        <ele>351.469</ele>
        <time>2022-06-19T16:11:59Z</time>
      </trkpt>
      <trkpt lat="42.3696100000001" lon="-1.751849000000002">
        <ele>350.453</ele>
        <time>2022-06-19T16:12:01Z</time>
      </trkpt>
      <trkpt lat="42.3694480000001" lon="-1.751985000000002">
        <ele>349.085</ele>
        <time>2022-06-19T16:12:04Z</time>
      </trkpt>
      <trkpt lat="42.3692900000001" lon="-1.7521150000000019">
        <ele>347.651</ele>
        <time>2022-06-19T16:12:07Z</time>
      </trkpt>
      <trkpt lat="42.3690860000001" lon="-1.752279000000002">
        <ele>346.495</ele>
        <time>2022-06-19T16:12:12Z</time>
      </trkpt>
      <trkpt lat="42.3689280000001" lon="-1.752408000000002">
        <ele>345.458</ele>
        <time>2022-06-19T16:12:15Z</time>
      </trkpt>
      <trkpt lat="42.368601000000105" lon="-1.752667000000002">
        <ele>344.247</ele>
        <time>2022-06-19T16:12:20Z</time>
      </trkpt>
      <trkpt lat="42.36830200000011" lon="-1.752913000000002">
        <ele>343.218</ele>
        <time>2022-06-19T16:12:26Z</time>
      </trkpt>
      <trkpt lat="42.368097000000105" lon="-1.753072000000002">
        <ele>342.898</ele>
        <time>2022-06-19T16:12:30Z</time>
      </trkpt>
      <trkpt lat="42.367847000000104" lon="-1.753277000000002">
        <ele>342.217</ele>
        <time>2022-06-19T16:12:36Z</time>
      </trkpt>
      <trkpt lat="42.3676110000001" lon="-1.753472000000002">
        <ele>341.609</ele>
        <time>2022-06-19T16:12:40Z</time>
      </trkpt>
      <trkpt lat="42.36725500000011" lon="-1.7537670000000019">
        <ele>341.082</ele>
        <time>2022-06-19T16:12:48Z</time>
      </trkpt>
      <trkpt lat="42.36721200000011" lon="-1.7538020000000019">
        <ele>340.861</ele>
        <time>2022-06-19T16:12:49Z</time>
      </trkpt>
      <trkpt lat="42.36681500000011" lon="-1.754114000000002">
        <ele>340.646</ele>
        <time>2022-06-19T16:12:59Z</time>
      </trkpt>
      <trkpt lat="42.36661400000011" lon="-1.754276000000002">
        <ele>339.870</ele>
        <time>2022-06-19T16:13:02Z</time>
      </trkpt>
      <trkpt lat="42.366402000000114" lon="-1.754444000000002">
        <ele>339.452</ele>
        <time>2022-06-19T16:13:06Z</time>
      </trkpt>
      <trkpt lat="42.36628200000011" lon="-1.7545440000000019">
        <ele>338.648</ele>
        <time>2022-06-19T16:13:08Z</time>
      </trkpt>
      <trkpt lat="42.365997000000114" lon="-1.754786000000002">
        <ele>337.442</ele>
        <time>2022-06-19T16:13:14Z</time>
      </trkpt>
      <trkpt lat="42.36593900000011" lon="-1.754835000000002">
        <ele>337.275</ele>
        <time>2022-06-19T16:13:15Z</time>
      </trkpt>
      <trkpt lat="42.365586000000114" lon="-1.755112000000002">
        <ele>336.054</ele>
        <time>2022-06-19T16:13:20Z</time>
      </trkpt>
      <trkpt lat="42.36536700000011" lon="-1.755300000000002">
        <ele>335.054</ele>
        <time>2022-06-19T16:13:24Z</time>
      </trkpt>
      <trkpt lat="42.365209000000114" lon="-1.755435000000002">
        <ele>333.656</ele>
        <time>2022-06-19T16:13:28Z</time>
      </trkpt>
      <trkpt lat="42.36498700000011" lon="-1.7556100000000021">
        <ele>332.811</ele>
        <time>2022-06-19T16:13:32Z</time>
      </trkpt>
      <trkpt lat="42.364820000000115" lon="-1.755743000000002">
        <ele>332.409</ele>
        <time>2022-06-19T16:13:34Z</time>
      </trkpt>
      <trkpt lat="42.36454500000011" lon="-1.755967000000002">
        <ele>331.846</ele>
        <time>2022-06-19T16:13:39Z</time>
      </trkpt>
      <trkpt lat="42.364435000000114" lon="-1.756062000000002">
        <ele>330.825</ele>
        <time>2022-06-19T16:13:42Z</time>
      </trkpt>
      <trkpt lat="42.36432300000011" lon="-1.756151000000002">
        <ele>330.480</ele>
        <time>2022-06-19T16:13:43Z</time>
      </trkpt>
      <trkpt lat="42.36420600000011" lon="-1.756245000000002">
        <ele>329.484</ele>
        <time>2022-06-19T16:13:45Z</time>
      </trkpt>
      <trkpt lat="42.36402800000011" lon="-1.756385000000002">
        <ele>328.236</ele>
        <time>2022-06-19T16:13:49Z</time>
      </trkpt>
      <trkpt lat="42.36378800000011" lon="-1.756579000000002">
        <ele>327.292</ele>
        <time>2022-06-19T16:13:52Z</time>
      </trkpt>
      <trkpt lat="42.36378800000011" lon="-1.756579000000002">
        <ele>326.896</ele>
        <time>2022-06-19T16:13:53Z</time>
      </trkpt>
      <trkpt lat="42.363543000000114" lon="-1.756782000000002">
        <ele>326.069</ele>
        <time>2022-06-19T16:13:57Z</time>
      </trkpt>
      <trkpt lat="42.363163000000114" lon="-1.757087000000002">
        <ele>324.878</ele>
        <time>2022-06-19T16:14:02Z</time>
      </trkpt>
      <trkpt lat="42.363103000000116" lon="-1.757138000000002">
        <ele>324.461</ele>
        <time>2022-06-19T16:14:03Z</time>
      </trkpt>
      <trkpt lat="42.362980000000114" lon="-1.757238000000002">
        <ele>323.821</ele>
        <time>2022-06-19T16:14:06Z</time>
      </trkpt>
      <trkpt lat="42.362631000000114" lon="-1.7575180000000021">
        <ele>322.613</ele>
        <time>2022-06-19T16:14:12Z</time>
      </trkpt>
      <trkpt lat="42.362341000000114" lon="-1.757746000000002">
        <ele>322.009</ele>
        <time>2022-06-19T16:14:17Z</time>
      </trkpt>
      <trkpt lat="42.362090000000116" lon="-1.757955000000002">
        <ele>322.097</ele>
        <time>2022-06-19T16:14:23Z</time>
      </trkpt>
      <trkpt lat="42.36179300000011" lon="-1.7581960000000019">
        <ele>322.466</ele>
        <time>2022-06-19T16:14:31Z</time>
      </trkpt>
      <trkpt lat="42.36156200000011" lon="-1.758376000000002">
        <ele>323.671</ele>
        <time>2022-06-19T16:14:37Z</time>
      </trkpt>
      <trkpt lat="42.361421000000114" lon="-1.758481000000002">
        <ele>323.625</ele>
        <time>2022-06-19T16:14:41Z</time>
      </trkpt>
      <trkpt lat="42.36118900000012" lon="-1.758678000000002">
        <ele>323.677</ele>
        <time>2022-06-19T16:14:48Z</time>
      </trkpt>
      <trkpt lat="42.36091600000012" lon="-1.7589060000000019">
        <ele>323.423</ele>
        <time>2022-06-19T16:14:56Z</time>
      </trkpt>
      <trkpt lat="42.36060900000012" lon="-1.7592080000000019">
        <ele>323.287</ele>
        <time>2022-06-19T16:15:06Z</time>
      </trkpt>
      <trkpt lat="42.360376000000116" lon="-1.759358000000002">
        <ele>322.840</ele>
        <time>2022-06-19T16:15:13Z</time>
      </trkpt>
      <trkpt lat="42.36020400000012" lon="-1.759482000000002">
        <ele>322.869</ele>
        <time>2022-06-19T16:15:18Z</time>
      </trkpt>
      <trkpt lat="42.36018000000011" lon="-1.759524000000002">
        <ele>322.838</ele>
        <time>2022-06-19T16:15:19Z</time>
      </trkpt>
      <trkpt lat="42.36002400000012" lon="-1.759838000000002">
        <ele>323.470</ele>
        <time>2022-06-19T16:15:26Z</time>
      </trkpt>
      <trkpt lat="42.35997200000012" lon="-1.759914000000002">
        <ele>323.817</ele>
        <time>2022-06-19T16:15:28Z</time>
      </trkpt>
      <trkpt lat="42.35993800000012" lon="-1.759929000000002">
        <ele>323.809</ele>
        <time>2022-06-19T16:15:29Z</time>
      </trkpt>
      <trkpt lat="42.35978500000012" lon="-1.759897000000002">
        <ele>323.864</ele>
        <time>2022-06-19T16:15:34Z</time>
      </trkpt>
      <trkpt lat="42.35972300000012" lon="-1.759795000000002">
        <ele>323.813</ele>
        <time>2022-06-19T16:15:37Z</time>
      </trkpt>
      <trkpt lat="42.35972300000012" lon="-1.759795000000002">
        <ele>323.868</ele>
        <time>2022-06-19T16:15:38Z</time>
      </trkpt>
      <trkpt lat="42.35956300000012" lon="-1.759489000000002">
        <ele>323.842</ele>
        <time>2022-06-19T16:15:44Z</time>
      </trkpt>
      <trkpt lat="42.35952500000012" lon="-1.7594640000000021">
        <ele>323.414</ele>
        <time>2022-06-19T16:15:45Z</time>
      </trkpt>
      <trkpt lat="42.35936400000012" lon="-1.7593930000000022">
        <ele>323.280</ele>
        <time>2022-06-19T16:15:50Z</time>
      </trkpt>
      <trkpt lat="42.35906600000012" lon="-1.7593090000000022">
        <ele>324.034</ele>
        <time>2022-06-19T16:15:56Z</time>
      </trkpt>
      <trkpt lat="42.35902100000012" lon="-1.7592860000000021">
        <ele>324.077</ele>
        <time>2022-06-19T16:15:57Z</time>
      </trkpt>
      <trkpt lat="42.35889100000012" lon="-1.759208000000002">
        <ele>324.056</ele>
        <time>2022-06-19T16:16:00Z</time>
      </trkpt>
      <trkpt lat="42.35881200000012" lon="-1.7591230000000022">
        <ele>323.641</ele>
        <time>2022-06-19T16:16:02Z</time>
      </trkpt>
      <trkpt lat="42.35877600000012" lon="-1.759073000000002">
        <ele>323.681</ele>
        <time>2022-06-19T16:16:03Z</time>
      </trkpt>
      <trkpt lat="42.35848100000012" lon="-1.7586130000000022">
        <ele>323.209</ele>
        <time>2022-06-19T16:16:12Z</time>
      </trkpt>
      <trkpt lat="42.35844900000012" lon="-1.7585580000000023">
        <ele>323.009</ele>
        <time>2022-06-19T16:16:14Z</time>
      </trkpt>
      <trkpt lat="42.35813000000012" lon="-1.7580030000000022">
        <ele>322.895</ele>
        <time>2022-06-19T16:16:23Z</time>
      </trkpt>
      <trkpt lat="42.35776200000012" lon="-1.7573890000000023">
        <ele>322.884</ele>
        <time>2022-06-19T16:16:35Z</time>
      </trkpt>
      <trkpt lat="42.357733000000124" lon="-1.7573380000000023">
        <ele>322.849</ele>
        <time>2022-06-19T16:16:36Z</time>
      </trkpt>
      <trkpt lat="42.357671000000124" lon="-1.7572410000000023">
        <ele>322.833</ele>
        <time>2022-06-19T16:16:38Z</time>
      </trkpt>
      <trkpt lat="42.35751800000013" lon="-1.7569910000000022">
        <ele>322.675</ele>
        <time>2022-06-19T16:16:44Z</time>
      </trkpt>
      <trkpt lat="42.35721300000013" lon="-1.7564810000000022">
        <ele>322.441</ele>
        <time>2022-06-19T16:16:53Z</time>
      </trkpt>
      <trkpt lat="42.35717700000013" lon="-1.7564330000000021">
        <ele>322.235</ele>
        <time>2022-06-19T16:16:55Z</time>
      </trkpt>
      <trkpt lat="42.35691800000013" lon="-1.756132000000002">
        <ele>321.828</ele>
        <time>2022-06-19T16:17:01Z</time>
      </trkpt>
      <trkpt lat="42.35666700000013" lon="-1.755932000000002">
        <ele>321.477</ele>
        <time>2022-06-19T16:17:07Z</time>
      </trkpt>
      <trkpt lat="42.35662600000013" lon="-1.755897000000002">
        <ele>321.265</ele>
        <time>2022-06-19T16:17:09Z</time>
      </trkpt>
      <trkpt lat="42.35625400000013" lon="-1.755601000000002">
        <ele>321.468</ele>
        <time>2022-06-19T16:17:17Z</time>
      </trkpt>
      <trkpt lat="42.35597200000013" lon="-1.7553700000000019">
        <ele>321.214</ele>
        <time>2022-06-19T16:17:24Z</time>
      </trkpt>
      <trkpt lat="42.35581700000013" lon="-1.755234000000002">
        <ele>321.009</ele>
        <time>2022-06-19T16:17:28Z</time>
      </trkpt>
      <trkpt lat="42.35554500000013" lon="-1.755020000000002">
        <ele>320.447</ele>
        <time>2022-06-19T16:17:35Z</time>
      </trkpt>
      <trkpt lat="42.35511700000013" lon="-1.754664000000002">
        <ele>320.646</ele>
        <time>2022-06-19T16:17:47Z</time>
      </trkpt>
      <trkpt lat="42.35500400000013" lon="-1.754576000000002">
        <ele>320.851</ele>
        <time>2022-06-19T16:17:49Z</time>
      </trkpt>
      <trkpt lat="42.35477200000013" lon="-1.754392000000002">
        <ele>320.875</ele>
        <time>2022-06-19T16:17:55Z</time>
      </trkpt>
      <trkpt lat="42.35437500000013" lon="-1.754090000000002">
        <ele>320.697</ele>
        <time>2022-06-19T16:18:06Z</time>
      </trkpt>
      <trkpt lat="42.354008000000135" lon="-1.753698000000002">
        <ele>321.463</ele>
        <time>2022-06-19T16:18:17Z</time>
      </trkpt>
      <trkpt lat="42.35373300000013" lon="-1.753342000000002">
        <ele>321.697</ele>
        <time>2022-06-19T16:18:25Z</time>
      </trkpt>
      <trkpt lat="42.353417000000135" lon="-1.7529140000000019">
        <ele>321.660</ele>
        <time>2022-06-19T16:18:34Z</time>
      </trkpt>
      <trkpt lat="42.35315700000014" lon="-1.752414000000002">
        <ele>321.059</ele>
        <time>2022-06-19T16:18:44Z</time>
      </trkpt>
      <trkpt lat="42.35287700000014" lon="-1.7517750000000019">
        <ele>321.466</ele>
        <time>2022-06-19T16:18:55Z</time>
      </trkpt>
      <trkpt lat="42.35282600000014" lon="-1.751663000000002">
        <ele>321.429</ele>
        <time>2022-06-19T16:18:56Z</time>
      </trkpt>
      <trkpt lat="42.35254800000014" lon="-1.751024000000002">
        <ele>321.821</ele>
        <time>2022-06-19T16:19:07Z</time>
      </trkpt>
      <trkpt lat="42.35252400000014" lon="-1.750966000000002">
        <ele>321.809</ele>
        <time>2022-06-19T16:19:08Z</time>
      </trkpt>
      <trkpt lat="42.352277000000136" lon="-1.750402000000002">
        <ele>322.217</ele>
        <time>2022-06-19T16:19:19Z</time>
      </trkpt>
      <trkpt lat="42.35221900000013" lon="-1.750277000000002">
        <ele>322.256</ele>
        <time>2022-06-19T16:19:20Z</time>
      </trkpt>
      <trkpt lat="42.35196900000013" lon="-1.749692000000002">
        <ele>322.661</ele>
        <time>2022-06-19T16:19:30Z</time>
      </trkpt>
      <trkpt lat="42.35170700000013" lon="-1.748987000000002">
        <ele>322.885</ele>
        <time>2022-06-19T16:19:41Z</time>
      </trkpt>
      <trkpt lat="42.351529000000134" lon="-1.748467000000002">
        <ele>321.877</ele>
        <time>2022-06-19T16:19:49Z</time>
      </trkpt>
      <trkpt lat="42.351439000000134" lon="-1.748211000000002">
        <ele>321.683</ele>
        <time>2022-06-19T16:19:53Z</time>
      </trkpt>
      <trkpt lat="42.351287000000134" lon="-1.747842000000002">
        <ele>321.697</ele>
        <time>2022-06-19T16:19:59Z</time>
      </trkpt>
      <trkpt lat="42.35098900000013" lon="-1.747304000000002">
        <ele>321.420</ele>
        <time>2022-06-19T16:20:09Z</time>
      </trkpt>
      <trkpt lat="42.35072300000013" lon="-1.746832000000002">
        <ele>320.879</ele>
        <time>2022-06-19T16:20:18Z</time>
      </trkpt>
      <trkpt lat="42.35066700000013" lon="-1.746729000000002">
        <ele>320.657</ele>
        <time>2022-06-19T16:20:20Z</time>
      </trkpt>
      <trkpt lat="42.35057800000013" lon="-1.746576000000002">
        <ele>320.200</ele>
        <time>2022-06-19T16:20:24Z</time>
      </trkpt>
      <trkpt lat="42.35039500000013" lon="-1.746259000000002">
        <ele>320.220</ele>
        <time>2022-06-19T16:20:29Z</time>
      </trkpt>
      <trkpt lat="42.35007000000013" lon="-1.745846000000002">
        <ele>320.209</ele>
        <time>2022-06-19T16:20:39Z</time>
      </trkpt>
      <trkpt lat="42.34968400000013" lon="-1.745390000000002">
        <ele>320.016</ele>
        <time>2022-06-19T16:20:49Z</time>
      </trkpt>
      <trkpt lat="42.34927100000013" lon="-1.744944000000002">
        <ele>320.485</ele>
        <time>2022-06-19T16:21:01Z</time>
      </trkpt>
      <trkpt lat="42.34895000000013" lon="-1.744674000000002">
        <ele>320.690</ele>
        <time>2022-06-19T16:21:10Z</time>
      </trkpt>
      <trkpt lat="42.34856300000013" lon="-1.744342000000002">
        <ele>321.264</ele>
        <time>2022-06-19T16:21:21Z</time>
      </trkpt>
      <trkpt lat="42.34813100000012" lon="-1.7439550000000021">
        <ele>321.856</ele>
        <time>2022-06-19T16:21:33Z</time>
      </trkpt>
      <trkpt lat="42.348006000000126" lon="-1.7438540000000022">
        <ele>321.862</ele>
        <time>2022-06-19T16:21:36Z</time>
      </trkpt>
      <trkpt lat="42.34787600000013" lon="-1.7437650000000022">
        <ele>321.636</ele>
        <time>2022-06-19T16:21:39Z</time>
      </trkpt>
      <trkpt lat="42.347832000000125" lon="-1.7437400000000023">
        <ele>321.689</ele>
        <time>2022-06-19T16:21:40Z</time>
      </trkpt>
      <trkpt lat="42.34737800000013" lon="-1.7436060000000022">
        <ele>321.428</ele>
        <time>2022-06-19T16:21:50Z</time>
      </trkpt>
      <trkpt lat="42.34694100000013" lon="-1.7435280000000022">
        <ele>322.287</ele>
        <time>2022-06-19T16:22:00Z</time>
      </trkpt>
      <trkpt lat="42.34680800000013" lon="-1.743505000000002">
        <ele>322.642</ele>
        <time>2022-06-19T16:22:03Z</time>
      </trkpt>
      <trkpt lat="42.346711000000134" lon="-1.743487000000002">
        <ele>322.626</ele>
        <time>2022-06-19T16:22:05Z</time>
      </trkpt>
      <trkpt lat="42.34662200000013" lon="-1.743478000000002">
        <ele>322.609</ele>
        <time>2022-06-19T16:22:07Z</time>
      </trkpt>
      <trkpt lat="42.34644400000013" lon="-1.743451000000002">
        <ele>322.659</ele>
        <time>2022-06-19T16:22:11Z</time>
      </trkpt>
      <trkpt lat="42.34587700000014" lon="-1.743357000000002">
        <ele>321.648</ele>
        <time>2022-06-19T16:22:24Z</time>
      </trkpt>
      <trkpt lat="42.345416000000135" lon="-1.743279000000002">
        <ele>321.223</ele>
        <time>2022-06-19T16:22:35Z</time>
      </trkpt>
      <trkpt lat="42.345022000000135" lon="-1.743217000000002">
        <ele>321.037</ele>
        <time>2022-06-19T16:22:44Z</time>
      </trkpt>
      <trkpt lat="42.344670000000136" lon="-1.743079000000002">
        <ele>320.839</ele>
        <time>2022-06-19T16:22:53Z</time>
      </trkpt>
      <trkpt lat="42.34463300000014" lon="-1.743055000000002">
        <ele>321.085</ele>
        <time>2022-06-19T16:22:54Z</time>
      </trkpt>
      <trkpt lat="42.344451000000134" lon="-1.742903000000002">
        <ele>321.689</ele>
        <time>2022-06-19T16:23:00Z</time>
      </trkpt>
      <trkpt lat="42.34410300000013" lon="-1.742583000000002">
        <ele>321.872</ele>
        <time>2022-06-19T16:23:08Z</time>
      </trkpt>
      <trkpt lat="42.343849000000134" lon="-1.742298000000002">
        <ele>322.081</ele>
        <time>2022-06-19T16:23:15Z</time>
      </trkpt>
      <trkpt lat="42.343817000000136" lon="-1.7422500000000019">
        <ele>322.093</ele>
        <time>2022-06-19T16:23:16Z</time>
      </trkpt>
      <trkpt lat="42.343787000000134" lon="-1.7422000000000017">
        <ele>322.465</ele>
        <time>2022-06-19T16:23:18Z</time>
      </trkpt>
      <trkpt lat="42.34373500000014" lon="-1.7420940000000018">
        <ele>322.621</ele>
        <time>2022-06-19T16:23:19Z</time>
      </trkpt>
      <trkpt lat="42.34368700000014" lon="-1.741912000000002">
        <ele>322.809</ele>
        <time>2022-06-19T16:23:22Z</time>
      </trkpt>
      <trkpt lat="42.34361700000014" lon="-1.741318000000002">
        <ele>323.050</ele>
        <time>2022-06-19T16:23:31Z</time>
      </trkpt>
      <trkpt lat="42.34353700000014" lon="-1.740584000000002">
        <ele>323.049</ele>
        <time>2022-06-19T16:23:42Z</time>
      </trkpt>
      <trkpt lat="42.34353300000014" lon="-1.7404500000000018">
        <ele>323.054</ele>
        <time>2022-06-19T16:23:44Z</time>
      </trkpt>
      <trkpt lat="42.34355600000014" lon="-1.7401880000000018">
        <ele>323.458</ele>
        <time>2022-06-19T16:23:48Z</time>
      </trkpt>
      <trkpt lat="42.343580000000145" lon="-1.740063000000002">
        <ele>323.640</ele>
        <time>2022-06-19T16:23:50Z</time>
      </trkpt>
      <trkpt lat="42.34364100000015" lon="-1.7398240000000018">
        <ele>323.876</ele>
        <time>2022-06-19T16:23:54Z</time>
      </trkpt>
      <trkpt lat="42.34373100000015" lon="-1.7395640000000019">
        <ele>323.830</ele>
        <time>2022-06-19T16:23:59Z</time>
      </trkpt>
      <trkpt lat="42.34388300000015" lon="-1.7390540000000019">
        <ele>323.633</ele>
        <time>2022-06-19T16:24:05Z</time>
      </trkpt>
      <trkpt lat="42.34397500000015" lon="-1.738494000000002">
        <ele>323.432</ele>
        <time>2022-06-19T16:24:13Z</time>
      </trkpt>
      <trkpt lat="42.34406400000015" lon="-1.737771000000002">
        <ele>323.642</ele>
        <time>2022-06-19T16:24:21Z</time>
      </trkpt>
      <trkpt lat="42.344074000000155" lon="-1.7376910000000019">
        <ele>323.622</ele>
        <time>2022-06-19T16:24:22Z</time>
      </trkpt>
      <trkpt lat="42.344167000000155" lon="-1.7369460000000019">
        <ele>323.414</ele>
        <time>2022-06-19T16:24:32Z</time>
      </trkpt>
      <trkpt lat="42.344198000000155" lon="-1.736724000000002">
        <ele>323.609</ele>
        <time>2022-06-19T16:24:35Z</time>
      </trkpt>
      <trkpt lat="42.344341000000156" lon="-1.7359910000000018">
        <ele>323.875</ele>
        <time>2022-06-19T16:24:45Z</time>
      </trkpt>
      <trkpt lat="42.344358000000156" lon="-1.7359130000000018">
        <ele>323.854</ele>
        <time>2022-06-19T16:24:46Z</time>
      </trkpt>
      <trkpt lat="42.34439300000015" lon="-1.7357480000000018">
        <ele>323.889</ele>
        <time>2022-06-19T16:24:48Z</time>
      </trkpt>
      <trkpt lat="42.34445000000015" lon="-1.735350000000002">
        <ele>323.613</ele>
        <time>2022-06-19T16:24:53Z</time>
      </trkpt>
      <trkpt lat="42.34449300000015" lon="-1.735043000000002">
        <ele>323.225</ele>
        <time>2022-06-19T16:24:57Z</time>
      </trkpt>
      <trkpt lat="42.34453200000015" lon="-1.734656000000002">
        <ele>323.281</ele>
        <time>2022-06-19T16:25:03Z</time>
      </trkpt>
      <trkpt lat="42.34454200000015" lon="-1.733955000000002">
        <ele>323.625</ele>
        <time>2022-06-19T16:25:11Z</time>
      </trkpt>
      <trkpt lat="42.34451400000015" lon="-1.7336000000000018">
        <ele>323.818</ele>
        <time>2022-06-19T16:25:16Z</time>
      </trkpt>
      <trkpt lat="42.34448400000015" lon="-1.7334780000000019">
        <ele>323.827</ele>
        <time>2022-06-19T16:25:18Z</time>
      </trkpt>
      <trkpt lat="42.34435000000015" lon="-1.7330970000000019">
        <ele>324.032</ele>
        <time>2022-06-19T16:25:25Z</time>
      </trkpt>
      <trkpt lat="42.34430200000015" lon="-1.732988000000002">
        <ele>324.092</ele>
        <time>2022-06-19T16:25:26Z</time>
      </trkpt>
      <trkpt lat="42.34421900000015" lon="-1.732837000000002">
        <ele>324.011</ele>
        <time>2022-06-19T16:25:30Z</time>
      </trkpt>
      <trkpt lat="42.34416800000015" lon="-1.732742000000002">
        <ele>324.009</ele>
        <time>2022-06-19T16:25:31Z</time>
      </trkpt>
      <trkpt lat="42.344012000000156" lon="-1.732521000000002">
        <ele>324.024</ele>
        <time>2022-06-19T16:25:36Z</time>
      </trkpt>
      <trkpt lat="42.343719000000156" lon="-1.732141000000002">
        <ele>324.663</ele>
        <time>2022-06-19T16:25:45Z</time>
      </trkpt>
      <trkpt lat="42.34365300000016" lon="-1.7320530000000018">
        <ele>324.438</ele>
        <time>2022-06-19T16:25:47Z</time>
      </trkpt>
      <trkpt lat="42.34348400000016" lon="-1.7317430000000018">
        <ele>324.622</ele>
        <time>2022-06-19T16:25:53Z</time>
      </trkpt>
      <trkpt lat="42.34326200000016" lon="-1.7312110000000018">
        <ele>324.824</ele>
        <time>2022-06-19T16:26:03Z</time>
      </trkpt>
      <trkpt lat="42.34318200000016" lon="-1.7310200000000018">
        <ele>324.840</ele>
        <time>2022-06-19T16:26:05Z</time>
      </trkpt>
      <trkpt lat="42.342936000000165" lon="-1.7303620000000017">
        <ele>325.224</ele>
        <time>2022-06-19T16:26:16Z</time>
      </trkpt>
      <trkpt lat="42.342829000000165" lon="-1.7299880000000016">
        <ele>325.467</ele>
        <time>2022-06-19T16:26:22Z</time>
      </trkpt>
      <trkpt lat="42.34281000000016" lon="-1.7299250000000017">
        <ele>325.476</ele>
        <time>2022-06-19T16:26:24Z</time>
      </trkpt>
      <trkpt lat="42.34258300000016" lon="-1.7292100000000017">
        <ele>325.432</ele>
        <time>2022-06-19T16:26:34Z</time>
      </trkpt>
      <trkpt lat="42.34237800000016" lon="-1.7285250000000016">
        <ele>324.892</ele>
        <time>2022-06-19T16:26:44Z</time>
      </trkpt>
      <trkpt lat="42.34225000000016" lon="-1.7281360000000017">
        <ele>324.811</ele>
        <time>2022-06-19T16:26:50Z</time>
      </trkpt>
      <trkpt lat="42.342154000000164" lon="-1.7279180000000016">
        <ele>324.809</ele>
        <time>2022-06-19T16:26:54Z</time>
      </trkpt>
      <trkpt lat="42.34190800000017" lon="-1.7275360000000015">
        <ele>325.274</ele>
        <time>2022-06-19T16:27:02Z</time>
      </trkpt>
      <trkpt lat="42.34173600000017" lon="-1.7273230000000015">
        <ele>325.263</ele>
        <time>2022-06-19T16:27:07Z</time>
      </trkpt>
      <trkpt lat="42.34142600000017" lon="-1.7269590000000015">
        <ele>324.038</ele>
        <time>2022-06-19T16:27:13Z</time>
      </trkpt>
      <trkpt lat="42.34134200000017" lon="-1.7268610000000015">
        <ele>322.882</ele>
        <time>2022-06-19T16:27:16Z</time>
      </trkpt>
      <trkpt lat="42.34131000000017" lon="-1.7268230000000016">
        <ele>322.874</ele>
        <time>2022-06-19T16:27:17Z</time>
      </trkpt>
      <trkpt lat="42.34110100000017" lon="-1.7265670000000015">
        <ele>322.870</ele>
        <time>2022-06-19T16:27:23Z</time>
      </trkpt>
      <trkpt lat="42.34088000000017" lon="-1.7262980000000014">
        <ele>324.244</ele>
        <time>2022-06-19T16:27:30Z</time>
      </trkpt>
      <trkpt lat="42.34083200000017" lon="-1.7262370000000014">
        <ele>325.267</ele>
        <time>2022-06-19T16:27:33Z</time>
      </trkpt>
      <trkpt lat="42.34076600000017" lon="-1.7261460000000013">
        <ele>326.636</ele>
        <time>2022-06-19T16:27:36Z</time>
      </trkpt>
      <trkpt lat="42.340698000000174" lon="-1.7260540000000013">
        <ele>327.465</ele>
        <time>2022-06-19T16:27:39Z</time>
      </trkpt>
      <trkpt lat="42.34063200000018" lon="-1.7259590000000014">
        <ele>327.668</ele>
        <time>2022-06-19T16:27:41Z</time>
      </trkpt>
      <trkpt lat="42.340551000000175" lon="-1.7258510000000014">
        <ele>328.614</ele>
        <time>2022-06-19T16:27:46Z</time>
      </trkpt>
      <trkpt lat="42.34043800000018" lon="-1.7256790000000013">
        <ele>329.809</ele>
        <time>2022-06-19T16:27:51Z</time>
      </trkpt>
      <trkpt lat="42.34031000000018" lon="-1.7254780000000014">
        <ele>331.097</ele>
        <time>2022-06-19T16:27:58Z</time>
      </trkpt>
      <trkpt lat="42.34029500000018" lon="-1.7254560000000014">
        <ele>331.276</ele>
        <time>2022-06-19T16:27:59Z</time>
      </trkpt>
      <trkpt lat="42.34019700000018" lon="-1.7253020000000014">
        <ele>332.261</ele>
        <time>2022-06-19T16:28:05Z</time>
      </trkpt>
      <trkpt lat="42.34008800000018" lon="-1.7251240000000014">
        <ele>332.635</ele>
        <time>2022-06-19T16:28:10Z</time>
      </trkpt>
      <trkpt lat="42.34001500000018" lon="-1.7249990000000015">
        <ele>333.237</ele>
        <time>2022-06-19T16:28:14Z</time>
      </trkpt>
      <trkpt lat="42.33992200000018" lon="-1.7248450000000015">
        <ele>333.673</ele>
        <time>2022-06-19T16:28:19Z</time>
      </trkpt>
      <trkpt lat="42.339701000000176" lon="-1.7244680000000014">
        <ele>334.487</ele>
        <time>2022-06-19T16:28:30Z</time>
      </trkpt>
      <trkpt lat="42.33968000000018" lon="-1.7244310000000014">
        <ele>334.490</ele>
        <time>2022-06-19T16:28:31Z</time>
      </trkpt>
      <trkpt lat="42.33946500000018" lon="-1.7240860000000013">
        <ele>335.089</ele>
        <time>2022-06-19T16:28:40Z</time>
      </trkpt>
      <trkpt lat="42.33920100000018" lon="-1.7236760000000013">
        <ele>335.046</ele>
        <time>2022-06-19T16:28:50Z</time>
      </trkpt>
      <trkpt lat="42.33899100000018" lon="-1.7233660000000013">
        <ele>334.488</ele>
        <time>2022-06-19T16:28:58Z</time>
      </trkpt>
      <trkpt lat="42.338699000000176" lon="-1.7229470000000013">
        <ele>334.016</ele>
        <time>2022-06-19T16:29:05Z</time>
      </trkpt>
      <trkpt lat="42.338367000000176" lon="-1.7225090000000014">
        <ele>333.609</ele>
        <time>2022-06-19T16:29:12Z</time>
      </trkpt>
      <trkpt lat="42.338367000000176" lon="-1.7225090000000014">
        <ele>333.445</ele>
        <time>2022-06-19T16:29:13Z</time>
      </trkpt>
      <trkpt lat="42.33795700000017" lon="-1.7220120000000014">
        <ele>332.454</ele>
        <time>2022-06-19T16:29:19Z</time>
      </trkpt>
      <trkpt lat="42.33782200000017" lon="-1.7218530000000014">
        <ele>330.879</ele>
        <time>2022-06-19T16:29:21Z</time>
      </trkpt>
      <trkpt lat="42.33775300000017" lon="-1.7217730000000013">
        <ele>329.653</ele>
        <time>2022-06-19T16:29:23Z</time>
      </trkpt>
      <trkpt lat="42.33746400000017" lon="-1.7214870000000013">
        <ele>328.075</ele>
        <time>2022-06-19T16:29:26Z</time>
      </trkpt>
      <trkpt lat="42.33732000000017" lon="-1.7213740000000013">
        <ele>326.451</ele>
        <time>2022-06-19T16:29:28Z</time>
      </trkpt>
      <trkpt lat="42.33724900000017" lon="-1.7213260000000012">
        <ele>325.475</ele>
        <time>2022-06-19T16:29:30Z</time>
      </trkpt>
      <trkpt lat="42.337121000000174" lon="-1.7212450000000012">
        <ele>324.688</ele>
        <time>2022-06-19T16:29:31Z</time>
      </trkpt>
      <trkpt lat="42.337121000000174" lon="-1.7212450000000012">
        <ele>324.027</ele>
        <time>2022-06-19T16:29:32Z</time>
      </trkpt>
      <trkpt lat="42.336786000000174" lon="-1.7210800000000013">
        <ele>323.277</ele>
        <time>2022-06-19T16:29:37Z</time>
      </trkpt>
      <trkpt lat="42.33646600000017" lon="-1.7209440000000014">
        <ele>323.861</ele>
        <time>2022-06-19T16:29:44Z</time>
      </trkpt>
      <trkpt lat="42.33591500000017" lon="-1.7207020000000013">
        <ele>324.627</ele>
        <time>2022-06-19T16:29:56Z</time>
      </trkpt>
      <trkpt lat="42.33569100000017" lon="-1.7205970000000013">
        <ele>324.809</ele>
        <time>2022-06-19T16:30:01Z</time>
      </trkpt>
      <trkpt lat="42.335391000000165" lon="-1.7204540000000013">
        <ele>325.228</ele>
        <time>2022-06-19T16:30:08Z</time>
      </trkpt>
      <trkpt lat="42.33531400000017" lon="-1.7204220000000012">
        <ele>325.277</ele>
        <time>2022-06-19T16:30:10Z</time>
      </trkpt>
      <trkpt lat="42.33523400000017" lon="-1.7203920000000013">
        <ele>325.232</ele>
        <time>2022-06-19T16:30:12Z</time>
      </trkpt>
      <trkpt lat="42.33484200000017" lon="-1.7202150000000012">
        <ele>325.686</ele>
        <time>2022-06-19T16:30:22Z</time>
      </trkpt>
      <trkpt lat="42.33462100000017" lon="-1.7201530000000012">
        <ele>325.458</ele>
        <time>2022-06-19T16:30:26Z</time>
      </trkpt>
      <trkpt lat="42.33454000000017" lon="-1.720170000000001">
        <ele>325.464</ele>
        <time>2022-06-19T16:30:28Z</time>
      </trkpt>
      <trkpt lat="42.334445000000166" lon="-1.720186000000001">
        <ele>325.488</ele>
        <time>2022-06-19T16:30:30Z</time>
      </trkpt>
      <trkpt lat="42.33436300000017" lon="-1.720154000000001">
        <ele>325.641</ele>
        <time>2022-06-19T16:30:32Z</time>
      </trkpt>
      <trkpt lat="42.334291000000164" lon="-1.720079000000001">
        <ele>325.620</ele>
        <time>2022-06-19T16:30:34Z</time>
      </trkpt>
      <trkpt lat="42.33419400000017" lon="-1.719941000000001">
        <ele>325.687</ele>
        <time>2022-06-19T16:30:37Z</time>
      </trkpt>
      <trkpt lat="42.33407200000017" lon="-1.719836000000001">
        <ele>325.642</ele>
        <time>2022-06-19T16:30:40Z</time>
      </trkpt>
      <trkpt lat="42.33402400000017" lon="-1.719813000000001">
        <ele>325.626</ele>
        <time>2022-06-19T16:30:41Z</time>
      </trkpt>
      <trkpt lat="42.33397600000017" lon="-1.719794000000001">
        <ele>325.609</ele>
        <time>2022-06-19T16:30:42Z</time>
      </trkpt>
      <trkpt lat="42.33357600000017" lon="-1.7196010000000008">
        <ele>325.429</ele>
        <time>2022-06-19T16:30:50Z</time>
      </trkpt>
      <trkpt lat="42.33325000000017" lon="-1.7194860000000007">
        <ele>324.658</ele>
        <time>2022-06-19T16:30:56Z</time>
      </trkpt>
      <trkpt lat="42.33294000000017" lon="-1.7194230000000008">
        <ele>324.063</ele>
        <time>2022-06-19T16:31:02Z</time>
      </trkpt>
      <trkpt lat="42.33289000000017" lon="-1.719419000000001">
        <ele>323.877</ele>
        <time>2022-06-19T16:31:04Z</time>
      </trkpt>
      <trkpt lat="42.33241500000017" lon="-1.719419000000001">
        <ele>323.679</ele>
        <time>2022-06-19T16:31:13Z</time>
      </trkpt>
      <trkpt lat="42.331926000000166" lon="-1.7195740000000008">
        <ele>324.075</ele>
        <time>2022-06-19T16:31:24Z</time>
      </trkpt>
      <trkpt lat="42.331620000000164" lon="-1.7197420000000008">
        <ele>324.459</ele>
        <time>2022-06-19T16:31:33Z</time>
      </trkpt>
      <trkpt lat="42.331580000000166" lon="-1.7197700000000007">
        <ele>324.482</ele>
        <time>2022-06-19T16:31:34Z</time>
      </trkpt>
      <trkpt lat="42.33139100000017" lon="-1.7199020000000007">
        <ele>324.891</ele>
        <time>2022-06-19T16:31:39Z</time>
      </trkpt>
      <trkpt lat="42.33135700000017" lon="-1.7199290000000007">
        <ele>325.091</ele>
        <time>2022-06-19T16:31:40Z</time>
      </trkpt>
      <trkpt lat="42.33104100000017" lon="-1.7201530000000007">
        <ele>325.881</ele>
        <time>2022-06-19T16:31:48Z</time>
      </trkpt>
      <trkpt lat="42.33080300000017" lon="-1.7203290000000007">
        <ele>325.019</ele>
        <time>2022-06-19T16:31:53Z</time>
      </trkpt>
      <trkpt lat="42.330443000000166" lon="-1.7205850000000007">
        <ele>324.009</ele>
        <time>2022-06-19T16:32:00Z</time>
      </trkpt>
      <trkpt lat="42.33033700000016" lon="-1.7206580000000007">
        <ele>323.630</ele>
        <time>2022-06-19T16:32:02Z</time>
      </trkpt>
      <trkpt lat="42.33002300000016" lon="-1.7208890000000008">
        <ele>322.889</ele>
        <time>2022-06-19T16:32:08Z</time>
      </trkpt>
      <trkpt lat="42.32987100000016" lon="-1.7209980000000007">
        <ele>322.234</ele>
        <time>2022-06-19T16:32:11Z</time>
      </trkpt>
      <trkpt lat="42.32976500000016" lon="-1.7210750000000008">
        <ele>321.888</ele>
        <time>2022-06-19T16:32:13Z</time>
      </trkpt>
      <trkpt lat="42.32931800000016" lon="-1.7214020000000008">
        <ele>321.230</ele>
        <time>2022-06-19T16:32:22Z</time>
      </trkpt>
      <trkpt lat="42.328953000000155" lon="-1.7216770000000008">
        <ele>321.086</ele>
        <time>2022-06-19T16:32:30Z</time>
      </trkpt>
      <trkpt lat="42.328914000000154" lon="-1.7217210000000007">
        <ele>320.840</ele>
        <time>2022-06-19T16:32:31Z</time>
      </trkpt>
      <trkpt lat="42.328880000000154" lon="-1.7217700000000007">
        <ele>320.883</ele>
        <time>2022-06-19T16:32:32Z</time>
      </trkpt>
      <trkpt lat="42.328795000000156" lon="-1.7219360000000008">
        <ele>320.862</ele>
        <time>2022-06-19T16:32:35Z</time>
      </trkpt>
      <trkpt lat="42.32865400000016" lon="-1.7222570000000008">
        <ele>320.849</ele>
        <time>2022-06-19T16:32:41Z</time>
      </trkpt>
      <trkpt lat="42.328587000000155" lon="-1.7223430000000008">
        <ele>320.802</ele>
        <time>2022-06-19T16:32:43Z</time>
      </trkpt>
      <trkpt lat="42.328328000000155" lon="-1.722555000000001">
        <ele>320.822</ele>
        <time>2022-06-19T16:32:50Z</time>
      </trkpt>
      <trkpt lat="42.32825700000016" lon="-1.722593000000001">
        <ele>320.809</ele>
        <time>2022-06-19T16:32:52Z</time>
      </trkpt>
      <trkpt lat="42.328069000000156" lon="-1.7226590000000008">
        <ele>320.855</ele>
        <time>2022-06-19T16:32:57Z</time>
      </trkpt>
      <trkpt lat="42.32791300000016" lon="-1.722704000000001">
        <ele>320.864</ele>
        <time>2022-06-19T16:33:02Z</time>
      </trkpt>
      <trkpt lat="42.32754400000016" lon="-1.722779000000001">
        <ele>320.889</ele>
        <time>2022-06-19T16:33:11Z</time>
      </trkpt>
      <trkpt lat="42.32743900000016" lon="-1.7228150000000009">
        <ele>321.083</ele>
        <time>2022-06-19T16:33:14Z</time>
      </trkpt>
      <trkpt lat="42.327297000000165" lon="-1.7228800000000009">
        <ele>320.825</ele>
        <time>2022-06-19T16:33:18Z</time>
      </trkpt>
      <trkpt lat="42.32704500000016" lon="-1.7230290000000008">
        <ele>321.081</ele>
        <time>2022-06-19T16:33:26Z</time>
      </trkpt>
      <trkpt lat="42.32680100000016" lon="-1.7232090000000009">
        <ele>320.865</ele>
        <time>2022-06-19T16:33:32Z</time>
      </trkpt>
      <trkpt lat="42.32651500000016" lon="-1.723421000000001">
        <ele>322.238</ele>
        <time>2022-06-19T16:33:39Z</time>
      </trkpt>
      <trkpt lat="42.326442000000156" lon="-1.723473000000001">
        <ele>322.627</ele>
        <time>2022-06-19T16:33:41Z</time>
      </trkpt>
      <trkpt lat="42.325930000000156" lon="-1.723842000000001">
        <ele>322.682</ele>
        <time>2022-06-19T16:33:54Z</time>
      </trkpt>
      <trkpt lat="42.32557400000016" lon="-1.7240970000000009">
        <ele>322.443</ele>
        <time>2022-06-19T16:34:03Z</time>
      </trkpt>
      <trkpt lat="42.32553000000016" lon="-1.724120000000001">
        <ele>322.417</ele>
        <time>2022-06-19T16:34:04Z</time>
      </trkpt>
      <trkpt lat="42.32536000000016" lon="-1.724208000000001">
        <ele>322.409</ele>
        <time>2022-06-19T16:34:08Z</time>
      </trkpt>
      <trkpt lat="42.32528000000016" lon="-1.7242530000000011">
        <ele>322.489</ele>
        <time>2022-06-19T16:34:10Z</time>
      </trkpt>
      <trkpt lat="42.32502400000016" lon="-1.724462000000001">
        <ele>322.048</ele>
        <time>2022-06-19T16:34:17Z</time>
      </trkpt>
      <trkpt lat="42.32466700000016" lon="-1.724733000000001">
        <ele>321.883</ele>
        <time>2022-06-19T16:34:26Z</time>
      </trkpt>
      <trkpt lat="42.32435200000016" lon="-1.724975000000001">
        <ele>321.847</ele>
        <time>2022-06-19T16:34:34Z</time>
      </trkpt>
      <trkpt lat="42.32389800000016" lon="-1.725305000000001">
        <ele>321.639</ele>
        <time>2022-06-19T16:34:46Z</time>
      </trkpt>
      <trkpt lat="42.32363200000016" lon="-1.725503000000001">
        <ele>321.295</ele>
        <time>2022-06-19T16:34:52Z</time>
      </trkpt>
      <trkpt lat="42.32355600000016" lon="-1.7255550000000008">
        <ele>320.869</ele>
        <time>2022-06-19T16:34:54Z</time>
      </trkpt>
      <trkpt lat="42.32326100000016" lon="-1.7257370000000007">
        <ele>320.632</ele>
        <time>2022-06-19T16:35:02Z</time>
      </trkpt>
      <trkpt lat="42.32273400000016" lon="-1.7260510000000007">
        <ele>321.661</ele>
        <time>2022-06-19T16:35:16Z</time>
      </trkpt>
      <trkpt lat="42.32242100000016" lon="-1.7262330000000006">
        <ele>322.277</ele>
        <time>2022-06-19T16:35:24Z</time>
      </trkpt>
      <trkpt lat="42.32231200000016" lon="-1.7262970000000006">
        <ele>322.661</ele>
        <time>2022-06-19T16:35:27Z</time>
      </trkpt>
      <trkpt lat="42.32195900000016" lon="-1.7265010000000007">
        <ele>323.427</ele>
        <time>2022-06-19T16:35:37Z</time>
      </trkpt>
      <trkpt lat="42.32175500000017" lon="-1.7266180000000007">
        <ele>324.409</ele>
        <time>2022-06-19T16:35:43Z</time>
      </trkpt>
      <trkpt lat="42.321623000000166" lon="-1.7266990000000006">
        <ele>324.818</ele>
        <time>2022-06-19T16:35:47Z</time>
      </trkpt>
      <trkpt lat="42.32132400000017" lon="-1.7268890000000006">
        <ele>325.037</ele>
        <time>2022-06-19T16:35:56Z</time>
      </trkpt>
      <trkpt lat="42.32116000000017" lon="-1.7270000000000005">
        <ele>325.642</ele>
        <time>2022-06-19T16:36:01Z</time>
      </trkpt>
      <trkpt lat="42.32101700000017" lon="-1.7270950000000005">
        <ele>325.886</ele>
        <time>2022-06-19T16:36:05Z</time>
      </trkpt>
      <trkpt lat="42.32060600000017" lon="-1.7273900000000004">
        <ele>326.258</ele>
        <time>2022-06-19T16:36:16Z</time>
      </trkpt>
      <trkpt lat="42.32022200000017" lon="-1.7276650000000005">
        <ele>326.234</ele>
        <time>2022-06-19T16:36:26Z</time>
      </trkpt>
      <trkpt lat="42.31981900000017" lon="-1.7279540000000004">
        <ele>325.888</ele>
        <time>2022-06-19T16:36:36Z</time>
      </trkpt>
      <trkpt lat="42.319376000000176" lon="-1.7282730000000004">
        <ele>326.231</ele>
        <time>2022-06-19T16:36:47Z</time>
      </trkpt>
      <trkpt lat="42.318884000000175" lon="-1.7286260000000004">
        <ele>326.230</ele>
        <time>2022-06-19T16:36:59Z</time>
      </trkpt>
      <trkpt lat="42.318389000000174" lon="-1.7289760000000005">
        <ele>326.436</ele>
        <time>2022-06-19T16:37:11Z</time>
      </trkpt>
      <trkpt lat="42.31801800000017" lon="-1.7292450000000006">
        <ele>326.417</ele>
        <time>2022-06-19T16:37:20Z</time>
      </trkpt>
      <trkpt lat="42.31762200000017" lon="-1.7295360000000006">
        <ele>326.218</ele>
        <time>2022-06-19T16:37:30Z</time>
      </trkpt>
      <trkpt lat="42.31721000000017" lon="-1.7298340000000005">
        <ele>326.209</ele>
        <time>2022-06-19T16:37:40Z</time>
      </trkpt>
      <trkpt lat="42.316708000000176" lon="-1.7301910000000005">
        <ele>326.434</ele>
        <time>2022-06-19T16:37:52Z</time>
      </trkpt>
      <trkpt lat="42.316196000000176" lon="-1.7305570000000006">
        <ele>326.293</ele>
        <time>2022-06-19T16:38:04Z</time>
      </trkpt>
      <trkpt lat="42.316064000000175" lon="-1.7306460000000006">
        <ele>326.468</ele>
        <time>2022-06-19T16:38:07Z</time>
      </trkpt>
      <trkpt lat="42.315662000000174" lon="-1.7309500000000007">
        <ele>326.282</ele>
        <time>2022-06-19T16:38:16Z</time>
      </trkpt>
      <trkpt lat="42.315279000000174" lon="-1.7312270000000007">
        <ele>325.664</ele>
        <time>2022-06-19T16:38:25Z</time>
      </trkpt>
      <trkpt lat="42.315003000000175" lon="-1.7314290000000008">
        <ele>325.690</ele>
        <time>2022-06-19T16:38:32Z</time>
      </trkpt>
      <trkpt lat="42.31480700000017" lon="-1.7315750000000008">
        <ele>325.054</ele>
        <time>2022-06-19T16:38:37Z</time>
      </trkpt>
      <trkpt lat="42.31465300000017" lon="-1.7316910000000008">
        <ele>325.057</ele>
        <time>2022-06-19T16:38:41Z</time>
      </trkpt>
      <trkpt lat="42.31426300000017" lon="-1.7319690000000008">
        <ele>324.646</ele>
        <time>2022-06-19T16:38:50Z</time>
      </trkpt>
      <trkpt lat="42.31382900000017" lon="-1.7322850000000007">
        <ele>324.022</ele>
        <time>2022-06-19T16:38:58Z</time>
      </trkpt>
      <trkpt lat="42.31360600000017" lon="-1.7324330000000008">
        <ele>322.862</ele>
        <time>2022-06-19T16:39:02Z</time>
      </trkpt>
      <trkpt lat="42.31343600000017" lon="-1.7325280000000007">
        <ele>321.808</ele>
        <time>2022-06-19T16:39:05Z</time>
      </trkpt>
      <trkpt lat="42.31337800000017" lon="-1.7325570000000008">
        <ele>321.409</ele>
        <time>2022-06-19T16:39:06Z</time>
      </trkpt>
      <trkpt lat="42.313208000000174" lon="-1.7326320000000008">
        <ele>320.683</ele>
        <time>2022-06-19T16:39:09Z</time>
      </trkpt>
      <trkpt lat="42.31273600000017" lon="-1.7328130000000008">
        <ele>319.672</ele>
        <time>2022-06-19T16:39:17Z</time>
      </trkpt>
      <trkpt lat="42.31232600000017" lon="-1.7329690000000009">
        <ele>319.297</ele>
        <time>2022-06-19T16:39:25Z</time>
      </trkpt>
      <trkpt lat="42.31186400000017" lon="-1.733154000000001">
        <ele>319.021</ele>
        <time>2022-06-19T16:39:35Z</time>
      </trkpt>
      <trkpt lat="42.31131500000017" lon="-1.733377000000001">
        <ele>319.233</ele>
        <time>2022-06-19T16:39:47Z</time>
      </trkpt>
      <trkpt lat="42.31089700000017" lon="-1.733541000000001">
        <ele>319.699</ele>
        <time>2022-06-19T16:39:56Z</time>
      </trkpt>
      <trkpt lat="42.31048300000017" lon="-1.733701000000001">
        <ele>319.813</ele>
        <time>2022-06-19T16:40:05Z</time>
      </trkpt>
      <trkpt lat="42.31002400000017" lon="-1.733880000000001">
        <ele>320.046</ele>
        <time>2022-06-19T16:40:15Z</time>
      </trkpt>
      <trkpt lat="42.30967700000017" lon="-1.734020000000001">
        <ele>319.835</ele>
        <time>2022-06-19T16:40:23Z</time>
      </trkpt>
      <trkpt lat="42.30918700000017" lon="-1.734211000000001">
        <ele>319.494</ele>
        <time>2022-06-19T16:40:34Z</time>
      </trkpt>
      <trkpt lat="42.30873700000017" lon="-1.734386000000001">
        <ele>319.657</ele>
        <time>2022-06-19T16:40:44Z</time>
      </trkpt>
      <trkpt lat="42.30830100000017" lon="-1.7345820000000012">
        <ele>319.422</ele>
        <time>2022-06-19T16:40:54Z</time>
      </trkpt>
      <trkpt lat="42.30791900000017" lon="-1.734772000000001">
        <ele>319.409</ele>
        <time>2022-06-19T16:41:03Z</time>
      </trkpt>
      <trkpt lat="42.307394000000166" lon="-1.7350280000000011">
        <ele>319.450</ele>
        <time>2022-06-19T16:41:15Z</time>
      </trkpt>
      <trkpt lat="42.30701900000017" lon="-1.735202000000001">
        <ele>319.419</ele>
        <time>2022-06-19T16:41:24Z</time>
      </trkpt>
      <trkpt lat="42.30661900000017" lon="-1.735375000000001">
        <ele>319.864</ele>
        <time>2022-06-19T16:41:33Z</time>
      </trkpt>
      <trkpt lat="42.30627200000017" lon="-1.735520000000001">
        <ele>320.248</ele>
        <time>2022-06-19T16:41:41Z</time>
      </trkpt>
      <trkpt lat="42.30585800000017" lon="-1.735703000000001">
        <ele>320.050</ele>
        <time>2022-06-19T16:41:51Z</time>
      </trkpt>
      <trkpt lat="42.30560000000017" lon="-1.735814000000001">
        <ele>320.026</ele>
        <time>2022-06-19T16:41:58Z</time>
      </trkpt>
      <trkpt lat="42.30532700000017" lon="-1.735927000000001">
        <ele>320.030</ele>
        <time>2022-06-19T16:42:06Z</time>
      </trkpt>
      <trkpt lat="42.30512600000017" lon="-1.736011000000001">
        <ele>320.683</ele>
        <time>2022-06-19T16:42:12Z</time>
      </trkpt>
      <trkpt lat="42.305094000000175" lon="-1.736022000000001">
        <ele>320.682</ele>
        <time>2022-06-19T16:42:13Z</time>
      </trkpt>
      <trkpt lat="42.305029000000175" lon="-1.736047000000001">
        <ele>321.031</ele>
        <time>2022-06-19T16:42:15Z</time>
      </trkpt>
      <trkpt lat="42.30486400000017" lon="-1.736115000000001">
        <ele>321.861</ele>
        <time>2022-06-19T16:42:20Z</time>
      </trkpt>
      <trkpt lat="42.30480900000017" lon="-1.736145000000001">
        <ele>322.007</ele>
        <time>2022-06-19T16:42:22Z</time>
      </trkpt>
      <trkpt lat="42.30465300000017" lon="-1.7362080000000009">
        <ele>322.809</ele>
        <time>2022-06-19T16:42:27Z</time>
      </trkpt>
      <trkpt lat="42.30453000000017" lon="-1.736269000000001">
        <ele>323.264</ele>
        <time>2022-06-19T16:42:31Z</time>
      </trkpt>
      <trkpt lat="42.30440300000017" lon="-1.736321000000001">
        <ele>323.873</ele>
        <time>2022-06-19T16:42:35Z</time>
      </trkpt>
      <trkpt lat="42.30427700000017" lon="-1.736375000000001">
        <ele>324.288</ele>
        <time>2022-06-19T16:42:39Z</time>
      </trkpt>
      <trkpt lat="42.30415000000017" lon="-1.736428000000001">
        <ele>324.662</ele>
        <time>2022-06-19T16:42:43Z</time>
      </trkpt>
      <trkpt lat="42.30389400000017" lon="-1.736536000000001">
        <ele>325.234</ele>
        <time>2022-06-19T16:42:51Z</time>
      </trkpt>
      <trkpt lat="42.30363600000017" lon="-1.736647000000001">
        <ele>326.040</ele>
        <time>2022-06-19T16:42:59Z</time>
      </trkpt>
      <trkpt lat="42.303482000000166" lon="-1.736712000000001">
        <ele>326.244</ele>
        <time>2022-06-19T16:43:04Z</time>
      </trkpt>
      <trkpt lat="42.30341900000017" lon="-1.7367400000000008">
        <ele>326.247</ele>
        <time>2022-06-19T16:43:06Z</time>
      </trkpt>
      <trkpt lat="42.303285000000166" lon="-1.7367880000000009">
        <ele>326.676</ele>
        <time>2022-06-19T16:43:10Z</time>
      </trkpt>
      <trkpt lat="42.303057000000166" lon="-1.7368940000000008">
        <ele>327.222</ele>
        <time>2022-06-19T16:43:17Z</time>
      </trkpt>
      <trkpt lat="42.303024000000164" lon="-1.7369110000000008">
        <ele>327.462</ele>
        <time>2022-06-19T16:43:18Z</time>
      </trkpt>
      <trkpt lat="42.30278100000017" lon="-1.7370160000000008">
        <ele>328.008</ele>
        <time>2022-06-19T16:43:25Z</time>
      </trkpt>
      <trkpt lat="42.30270700000017" lon="-1.7370520000000007">
        <ele>328.409</ele>
        <time>2022-06-19T16:43:27Z</time>
      </trkpt>
      <trkpt lat="42.302587000000166" lon="-1.7371060000000007">
        <ele>328.683</ele>
        <time>2022-06-19T16:43:30Z</time>
      </trkpt>
      <trkpt lat="42.30229000000016" lon="-1.7372020000000008">
        <ele>329.422</ele>
        <time>2022-06-19T16:43:37Z</time>
      </trkpt>
      <trkpt lat="42.30210000000016" lon="-1.7372150000000008">
        <ele>329.437</ele>
        <time>2022-06-19T16:43:41Z</time>
      </trkpt>
      <trkpt lat="42.30200200000016" lon="-1.7371940000000008">
        <ele>329.421</ele>
        <time>2022-06-19T16:43:43Z</time>
      </trkpt>
      <trkpt lat="42.30195300000016" lon="-1.7371750000000008">
        <ele>329.433</ele>
        <time>2022-06-19T16:43:44Z</time>
      </trkpt>
      <trkpt lat="42.30185100000016" lon="-1.7371350000000008">
        <ele>329.439</ele>
        <time>2022-06-19T16:43:46Z</time>
      </trkpt>
      <trkpt lat="42.30160600000016" lon="-1.7370060000000007">
        <ele>329.253</ele>
        <time>2022-06-19T16:43:51Z</time>
      </trkpt>
      <trkpt lat="42.301166000000165" lon="-1.7367790000000007">
        <ele>328.466</ele>
        <time>2022-06-19T16:44:00Z</time>
      </trkpt>
      <trkpt lat="42.301065000000165" lon="-1.7367260000000007">
        <ele>328.275</ele>
        <time>2022-06-19T16:44:02Z</time>
      </trkpt>
      <trkpt lat="42.30080800000017" lon="-1.7365960000000007">
        <ele>327.256</ele>
        <time>2022-06-19T16:44:07Z</time>
      </trkpt>
      <trkpt lat="42.30075900000017" lon="-1.7365690000000007">
        <ele>326.259</ele>
        <time>2022-06-19T16:44:08Z</time>
      </trkpt>
      <trkpt lat="42.30060900000017" lon="-1.7364890000000006">
        <ele>324.814</ele>
        <time>2022-06-19T16:44:11Z</time>
      </trkpt>
      <trkpt lat="42.300301000000175" lon="-1.7363360000000005">
        <ele>324.209</ele>
        <time>2022-06-19T16:44:17Z</time>
      </trkpt>
      <trkpt lat="42.300135000000175" lon="-1.7362820000000005">
        <ele>323.846</ele>
        <time>2022-06-19T16:44:20Z</time>
      </trkpt>
      <trkpt lat="42.299910000000175" lon="-1.7362460000000006">
        <ele>323.425</ele>
        <time>2022-06-19T16:44:24Z</time>
      </trkpt>
      <trkpt lat="42.299738000000175" lon="-1.7362200000000005">
        <ele>322.810</ele>
        <time>2022-06-19T16:44:27Z</time>
      </trkpt>
      <trkpt lat="42.299611000000176" lon="-1.7362020000000005">
        <ele>321.644</ele>
        <time>2022-06-19T16:44:29Z</time>
      </trkpt>
      <trkpt lat="42.29956300000018" lon="-1.7361980000000006">
        <ele>320.236</ele>
        <time>2022-06-19T16:44:31Z</time>
      </trkpt>
      <trkpt lat="42.29938200000018" lon="-1.7361730000000006">
        <ele>319.862</ele>
        <time>2022-06-19T16:44:33Z</time>
      </trkpt>
      <trkpt lat="42.29905300000018" lon="-1.7361330000000006">
        <ele>319.296</ele>
        <time>2022-06-19T16:44:38Z</time>
      </trkpt>
      <trkpt lat="42.29874400000018" lon="-1.7360900000000006">
        <ele>318.649</ele>
        <time>2022-06-19T16:44:43Z</time>
      </trkpt>
      <trkpt lat="42.298669000000174" lon="-1.7360820000000006">
        <ele>318.038</ele>
        <time>2022-06-19T16:44:44Z</time>
      </trkpt>
      <trkpt lat="42.29821700000017" lon="-1.7360210000000005">
        <ele>316.816</ele>
        <time>2022-06-19T16:44:51Z</time>
      </trkpt>
      <trkpt lat="42.29816100000017" lon="-1.7360140000000004">
        <ele>316.476</ele>
        <time>2022-06-19T16:44:52Z</time>
      </trkpt>
      <trkpt lat="42.29796200000017" lon="-1.7359920000000004">
        <ele>315.613</ele>
        <time>2022-06-19T16:44:55Z</time>
      </trkpt>
      <trkpt lat="42.29777600000017" lon="-1.7359670000000005">
        <ele>314.609</ele>
        <time>2022-06-19T16:44:58Z</time>
      </trkpt>
      <trkpt lat="42.297659000000166" lon="-1.7359490000000004">
        <ele>314.212</ele>
        <time>2022-06-19T16:45:00Z</time>
      </trkpt>
      <trkpt lat="42.29715100000016" lon="-1.7358870000000004">
        <ele>314.431</ele>
        <time>2022-06-19T16:45:09Z</time>
      </trkpt>
      <trkpt lat="42.296621000000165" lon="-1.7358680000000004">
        <ele>315.046</ele>
        <time>2022-06-19T16:45:19Z</time>
      </trkpt>
      <trkpt lat="42.296188000000164" lon="-1.7359620000000004">
        <ele>314.810</ele>
        <time>2022-06-19T16:45:28Z</time>
      </trkpt>
      <trkpt lat="42.295850000000165" lon="-1.7360740000000003">
        <ele>314.662</ele>
        <time>2022-06-19T16:45:36Z</time>
      </trkpt>
      <trkpt lat="42.29538700000016" lon="-1.7362430000000004">
        <ele>314.678</ele>
        <time>2022-06-19T16:45:47Z</time>
      </trkpt>
      <trkpt lat="42.295065000000164" lon="-1.7363600000000003">
        <ele>314.632</ele>
        <time>2022-06-19T16:45:55Z</time>
      </trkpt>
      <trkpt lat="42.29466700000017" lon="-1.7364930000000003">
        <ele>314.845</ele>
        <time>2022-06-19T16:46:05Z</time>
      </trkpt>
      <trkpt lat="42.29418800000017" lon="-1.7366700000000004">
        <ele>315.284</ele>
        <time>2022-06-19T16:46:17Z</time>
      </trkpt>
      <trkpt lat="42.29388300000017" lon="-1.7367770000000005">
        <ele>315.246</ele>
        <time>2022-06-19T16:46:25Z</time>
      </trkpt>
      <trkpt lat="42.293457000000174" lon="-1.7369300000000005">
        <ele>315.088</ele>
        <time>2022-06-19T16:46:36Z</time>
      </trkpt>
      <trkpt lat="42.29313800000018" lon="-1.7370400000000006">
        <ele>315.616</ele>
        <time>2022-06-19T16:46:44Z</time>
      </trkpt>
      <trkpt lat="42.293020000000176" lon="-1.7370850000000007">
        <ele>315.809</ele>
        <time>2022-06-19T16:46:47Z</time>
      </trkpt>
      <trkpt lat="42.292669000000174" lon="-1.7372060000000007">
        <ele>316.295</ele>
        <time>2022-06-19T16:46:56Z</time>
      </trkpt>
      <trkpt lat="42.292629000000176" lon="-1.7372200000000007">
        <ele>316.234</ele>
        <time>2022-06-19T16:46:57Z</time>
      </trkpt>
      <trkpt lat="42.292382000000174" lon="-1.7373120000000006">
        <ele>316.429</ele>
        <time>2022-06-19T16:47:03Z</time>
      </trkpt>
      <trkpt lat="42.291988000000174" lon="-1.7374590000000005">
        <ele>316.243</ele>
        <time>2022-06-19T16:47:13Z</time>
      </trkpt>
      <trkpt lat="42.291459000000174" lon="-1.7376530000000006">
        <ele>316.055</ele>
        <time>2022-06-19T16:47:26Z</time>
      </trkpt>
      <trkpt lat="42.29138100000017" lon="-1.7376830000000005">
        <ele>316.061</ele>
        <time>2022-06-19T16:47:28Z</time>
      </trkpt>
      <trkpt lat="42.290966000000175" lon="-1.7378680000000006">
        <ele>315.675</ele>
        <time>2022-06-19T16:47:39Z</time>
      </trkpt>
      <trkpt lat="42.29062100000017" lon="-1.7380780000000007">
        <ele>316.038</ele>
        <time>2022-06-19T16:47:48Z</time>
      </trkpt>
      <trkpt lat="42.29025200000017" lon="-1.7383150000000007">
        <ele>316.227</ele>
        <time>2022-06-19T16:47:58Z</time>
      </trkpt>
      <trkpt lat="42.289852000000174" lon="-1.7385930000000007">
        <ele>316.656</ele>
        <time>2022-06-19T16:48:09Z</time>
      </trkpt>
      <trkpt lat="42.28955500000017" lon="-1.7387990000000006">
        <ele>316.659</ele>
        <time>2022-06-19T16:48:17Z</time>
      </trkpt>
      <trkpt lat="42.28910300000017" lon="-1.7391020000000006">
        <ele>316.414</ele>
        <time>2022-06-19T16:48:29Z</time>
      </trkpt>
      <trkpt lat="42.28891400000017" lon="-1.7392340000000006">
        <ele>316.809</ele>
        <time>2022-06-19T16:48:34Z</time>
      </trkpt>
      <trkpt lat="42.28880300000017" lon="-1.7393130000000006">
        <ele>317.056</ele>
        <time>2022-06-19T16:48:37Z</time>
      </trkpt>
      <trkpt lat="42.28865500000017" lon="-1.7394200000000006">
        <ele>317.015</ele>
        <time>2022-06-19T16:48:41Z</time>
      </trkpt>
      <trkpt lat="42.28850800000017" lon="-1.7395270000000007">
        <ele>316.820</ele>
        <time>2022-06-19T16:48:45Z</time>
      </trkpt>
      <trkpt lat="42.288217000000174" lon="-1.7397260000000008">
        <ele>316.664</ele>
        <time>2022-06-19T16:48:53Z</time>
      </trkpt>
      <trkpt lat="42.287783000000175" lon="-1.7400230000000008">
        <ele>316.656</ele>
        <time>2022-06-19T16:49:05Z</time>
      </trkpt>
      <trkpt lat="42.28745000000018" lon="-1.7402550000000008">
        <ele>316.622</ele>
        <time>2022-06-19T16:49:14Z</time>
      </trkpt>
      <trkpt lat="42.28711400000018" lon="-1.7404810000000008">
        <ele>315.866</ele>
        <time>2022-06-19T16:49:22Z</time>
      </trkpt>
      <trkpt lat="42.28707100000018" lon="-1.7405110000000008">
        <ele>315.839</ele>
        <time>2022-06-19T16:49:23Z</time>
      </trkpt>
      <trkpt lat="42.28657300000018" lon="-1.7408550000000007">
        <ele>315.288</ele>
        <time>2022-06-19T16:49:35Z</time>
      </trkpt>
      <trkpt lat="42.28636300000018" lon="-1.7409960000000007">
        <ele>314.824</ele>
        <time>2022-06-19T16:49:40Z</time>
      </trkpt>
      <trkpt lat="42.28615900000018" lon="-1.7411340000000006">
        <ele>314.404</ele>
        <time>2022-06-19T16:49:45Z</time>
      </trkpt>
      <trkpt lat="42.28585300000018" lon="-1.7413490000000007">
        <ele>314.214</ele>
        <time>2022-06-19T16:49:53Z</time>
      </trkpt>
      <trkpt lat="42.28541300000018" lon="-1.7416470000000006">
        <ele>313.809</ele>
        <time>2022-06-19T16:50:05Z</time>
      </trkpt>
      <trkpt lat="42.28504000000018" lon="-1.7419020000000005">
        <ele>313.023</ele>
        <time>2022-06-19T16:50:15Z</time>
      </trkpt>
      <trkpt lat="42.28470100000018" lon="-1.7421340000000005">
        <ele>312.612</ele>
        <time>2022-06-19T16:50:24Z</time>
      </trkpt>
      <trkpt lat="42.28466200000018" lon="-1.7421610000000005">
        <ele>312.677</ele>
        <time>2022-06-19T16:50:25Z</time>
      </trkpt>
      <trkpt lat="42.28431600000018" lon="-1.7423920000000006">
        <ele>312.051</ele>
        <time>2022-06-19T16:50:34Z</time>
      </trkpt>
      <trkpt lat="42.284014000000184" lon="-1.7425990000000007">
        <ele>312.023</ele>
        <time>2022-06-19T16:50:42Z</time>
      </trkpt>
      <trkpt lat="42.283859000000184" lon="-1.7427010000000007">
        <ele>312.499</ele>
        <time>2022-06-19T16:50:46Z</time>
      </trkpt>
      <trkpt lat="42.28373400000019" lon="-1.7427810000000008">
        <ele>312.433</ele>
        <time>2022-06-19T16:50:49Z</time>
      </trkpt>
      <trkpt lat="42.283304000000186" lon="-1.7430780000000008">
        <ele>312.416</ele>
        <time>2022-06-19T16:51:00Z</time>
      </trkpt>
      <trkpt lat="42.28292600000019" lon="-1.7433620000000007">
        <ele>313.275</ele>
        <time>2022-06-19T16:51:10Z</time>
      </trkpt>
      <trkpt lat="42.28260500000019" lon="-1.7436140000000007">
        <ele>313.858</ele>
        <time>2022-06-19T16:51:19Z</time>
      </trkpt>
      <trkpt lat="42.28253500000019" lon="-1.7436660000000006">
        <ele>314.052</ele>
        <time>2022-06-19T16:51:21Z</time>
      </trkpt>
      <trkpt lat="42.28226400000019" lon="-1.7438620000000007">
        <ele>314.217</ele>
        <time>2022-06-19T16:51:29Z</time>
      </trkpt>
      <trkpt lat="42.28199300000019" lon="-1.7440780000000007">
        <ele>313.809</ele>
        <time>2022-06-19T16:51:38Z</time>
      </trkpt>
      <trkpt lat="42.28178700000019" lon="-1.7442380000000006">
        <ele>314.046</ele>
        <time>2022-06-19T16:51:45Z</time>
      </trkpt>
      <trkpt lat="42.28147600000019" lon="-1.7444630000000005">
        <ele>314.825</ele>
        <time>2022-06-19T16:51:55Z</time>
      </trkpt>
      <trkpt lat="42.28141100000019" lon="-1.7445100000000004">
        <ele>315.040</ele>
        <time>2022-06-19T16:51:57Z</time>
      </trkpt>
      <trkpt lat="42.28116100000019" lon="-1.7447060000000005">
        <ele>315.664</ele>
        <time>2022-06-19T16:52:05Z</time>
      </trkpt>
      <trkpt lat="42.28092700000019" lon="-1.7448710000000005">
        <ele>316.246</ele>
        <time>2022-06-19T16:52:12Z</time>
      </trkpt>
      <trkpt lat="42.28079500000019" lon="-1.7449650000000005">
        <ele>316.622</ele>
        <time>2022-06-19T16:52:16Z</time>
      </trkpt>
      <trkpt lat="42.28066100000019" lon="-1.7450390000000005">
        <ele>317.226</ele>
        <time>2022-06-19T16:52:20Z</time>
      </trkpt>
      <trkpt lat="42.280493000000185" lon="-1.7451190000000005">
        <ele>317.499</ele>
        <time>2022-06-19T16:52:25Z</time>
      </trkpt>
      <trkpt lat="42.280124000000185" lon="-1.7452430000000005">
        <ele>317.478</ele>
        <time>2022-06-19T16:52:35Z</time>
      </trkpt>
      <trkpt lat="42.279685000000185" lon="-1.7454060000000005">
        <ele>317.236</ele>
        <time>2022-06-19T16:52:46Z</time>
      </trkpt>
      <trkpt lat="42.279243000000186" lon="-1.7455480000000005">
        <ele>317.617</ele>
        <time>2022-06-19T16:52:56Z</time>
      </trkpt>
      <trkpt lat="42.27894300000018" lon="-1.7456500000000006">
        <ele>318.218</ele>
        <time>2022-06-19T16:53:03Z</time>
      </trkpt>
      <trkpt lat="42.27876100000018" lon="-1.7457090000000006">
        <ele>318.409</ele>
        <time>2022-06-19T16:53:07Z</time>
      </trkpt>
      <trkpt lat="42.27847400000018" lon="-1.7458130000000007">
        <ele>318.654</ele>
        <time>2022-06-19T16:53:15Z</time>
      </trkpt>
      <trkpt lat="42.27832400000018" lon="-1.7458680000000006">
        <ele>319.273</ele>
        <time>2022-06-19T16:53:20Z</time>
      </trkpt>
      <trkpt lat="42.278236000000184" lon="-1.7458960000000006">
        <ele>320.088</ele>
        <time>2022-06-19T16:53:23Z</time>
      </trkpt>
      <trkpt lat="42.27818100000018" lon="-1.7459170000000006">
        <ele>320.482</ele>
        <time>2022-06-19T16:53:25Z</time>
      </trkpt>
      <trkpt lat="42.27801600000018" lon="-1.7459640000000005">
        <ele>321.264</ele>
        <time>2022-06-19T16:53:31Z</time>
      </trkpt>
      <trkpt lat="42.27790400000018" lon="-1.7460070000000005">
        <ele>321.480</ele>
        <time>2022-06-19T16:53:35Z</time>
      </trkpt>
      <trkpt lat="42.277846000000174" lon="-1.7460160000000005">
        <ele>322.634</ele>
        <time>2022-06-19T16:53:37Z</time>
      </trkpt>
      <trkpt lat="42.277795000000175" lon="-1.7460310000000006">
        <ele>323.057</ele>
        <time>2022-06-19T16:53:39Z</time>
      </trkpt>
      <trkpt lat="42.277590000000174" lon="-1.7461080000000007">
        <ele>323.676</ele>
        <time>2022-06-19T16:53:47Z</time>
      </trkpt>
      <trkpt lat="42.277485000000176" lon="-1.7461880000000007">
        <ele>323.826</ele>
        <time>2022-06-19T16:53:52Z</time>
      </trkpt>
      <trkpt lat="42.27750400000018" lon="-1.7463680000000008">
        <ele>324.447</ele>
        <time>2022-06-19T16:53:57Z</time>
      </trkpt>
      <trkpt lat="42.277522000000175" lon="-1.7464740000000007">
        <ele>324.611</ele>
        <time>2022-06-19T16:54:00Z</time>
      </trkpt>
      <trkpt lat="42.27755500000018" lon="-1.7466480000000006">
        <ele>325.209</ele>
        <time>2022-06-19T16:54:05Z</time>
      </trkpt>
      <trkpt lat="42.277615000000175" lon="-1.7469240000000006">
        <ele>325.613</ele>
        <time>2022-06-19T16:54:12Z</time>
      </trkpt>
      <trkpt lat="42.27772100000018" lon="-1.7471580000000007">
        <ele>325.462</ele>
        <time>2022-06-19T16:54:18Z</time>
      </trkpt>
      <trkpt lat="42.27775400000018" lon="-1.7471910000000006">
        <ele>324.897</ele>
        <time>2022-06-19T16:54:20Z</time>
      </trkpt>
      <trkpt lat="42.27779700000018" lon="-1.7471740000000007">
        <ele>324.671</ele>
        <time>2022-06-19T16:54:22Z</time>
      </trkpt>
      <trkpt lat="42.277939000000174" lon="-1.7470160000000006">
        <ele>324.073</ele>
        <time>2022-06-19T16:54:28Z</time>
      </trkpt>
      <trkpt lat="42.27811100000017" lon="-1.7468200000000005">
        <ele>324.079</ele>
        <time>2022-06-19T16:54:35Z</time>
      </trkpt>
      <trkpt lat="42.278152000000176" lon="-1.7467760000000006">
        <ele>323.863</ele>
        <time>2022-06-19T16:54:37Z</time>
      </trkpt>
      <trkpt lat="42.27823200000017" lon="-1.7466970000000006">
        <ele>323.246</ele>
        <time>2022-06-19T16:54:42Z</time>
      </trkpt>
      <trkpt lat="42.27824400000017" lon="-1.7466760000000006">
        <ele>323.065</ele>
        <time>2022-06-19T16:54:47Z</time>
      </trkpt>
      <trkpt lat="42.278161000000175" lon="-1.7467530000000007">
        <ele>322.866</ele>
        <time>2022-06-19T17:25:59Z</time>
      </trkpt>
      <trkpt lat="42.278124000000176" lon="-1.7467840000000006">
        <ele>322.629</ele>
        <time>2022-06-19T17:26:01Z</time>
      </trkpt>
      <trkpt lat="42.27811700000018" lon="-1.7468170000000005">
        <ele>322.621</ele>
        <time>2022-06-19T17:26:02Z</time>
      </trkpt>
      <trkpt lat="42.27809000000018" lon="-1.7468740000000005">
        <ele>322.409</ele>
        <time>2022-06-19T17:26:04Z</time>
      </trkpt>
      <trkpt lat="42.278015000000174" lon="-1.7469340000000004">
        <ele>322.247</ele>
        <time>2022-06-19T17:26:08Z</time>
      </trkpt>
      <trkpt lat="42.27800500000017" lon="-1.7469640000000004">
        <ele>322.446</ele>
        <time>2022-06-19T17:26:09Z</time>
      </trkpt>
      <trkpt lat="42.27791900000017" lon="-1.7471030000000003">
        <ele>322.021</ele>
        <time>2022-06-19T17:26:14Z</time>
      </trkpt>
      <trkpt lat="42.277771000000165" lon="-1.7472230000000002">
        <ele>322.435</ele>
        <time>2022-06-19T17:26:21Z</time>
      </trkpt>
      <trkpt lat="42.27771600000016" lon="-1.7471940000000001">
        <ele>322.647</ele>
        <time>2022-06-19T17:26:24Z</time>
      </trkpt>
      <trkpt lat="42.277701000000164" lon="-1.7471700000000001">
        <ele>322.643</ele>
        <time>2022-06-19T17:26:25Z</time>
      </trkpt>
      <trkpt lat="42.27760000000016" lon="-1.746949">
        <ele>323.247</ele>
        <time>2022-06-19T17:26:33Z</time>
      </trkpt>
      <trkpt lat="42.27757800000016" lon="-1.746898">
        <ele>324.030</ele>
        <time>2022-06-19T17:26:35Z</time>
      </trkpt>
      <trkpt lat="42.27753800000016" lon="-1.746791">
        <ele>325.099</ele>
        <time>2022-06-19T17:26:39Z</time>
      </trkpt>
      <trkpt lat="42.27752700000016" lon="-1.746759">
        <ele>325.252</ele>
        <time>2022-06-19T17:26:40Z</time>
      </trkpt>
      <trkpt lat="42.27749300000016" lon="-1.7465789999999999">
        <ele>326.253</ele>
        <time>2022-06-19T17:26:45Z</time>
      </trkpt>
      <trkpt lat="42.27747900000016" lon="-1.7464909999999998">
        <ele>326.408</ele>
        <time>2022-06-19T17:26:47Z</time>
      </trkpt>
      <trkpt lat="42.27740900000016" lon="-1.7462779999999998">
        <ele>326.409</ele>
        <time>2022-06-19T17:26:52Z</time>
      </trkpt>
      <trkpt lat="42.277394000000164" lon="-1.7462329999999997">
        <ele>326.426</ele>
        <time>2022-06-19T17:26:56Z</time>
      </trkpt>
      <trkpt lat="42.277394000000164" lon="-1.7462329999999997">
        <ele>326.465</ele>
        <time>2022-06-19T17:26:57Z</time>
      </trkpt>
      <trkpt lat="42.27734100000016" lon="-1.7462309999999996">
        <ele>326.270</ele>
        <time>2022-06-19T17:27:03Z</time>
      </trkpt>
      <trkpt lat="42.27728300000016" lon="-1.7462479999999996">
        <ele>326.224</ele>
        <time>2022-06-19T17:27:05Z</time>
      </trkpt>
      <trkpt lat="42.27708700000016" lon="-1.7462849999999996">
        <ele>326.286</ele>
        <time>2022-06-19T17:27:11Z</time>
      </trkpt>
      <trkpt lat="42.27685900000016" lon="-1.7463349999999997">
        <ele>326.422</ele>
        <time>2022-06-19T17:27:18Z</time>
      </trkpt>
      <trkpt lat="42.276798000000156" lon="-1.7463439999999997">
        <ele>326.476</ele>
        <time>2022-06-19T17:27:20Z</time>
      </trkpt>
      <trkpt lat="42.276627000000154" lon="-1.7463749999999996">
        <ele>326.839</ele>
        <time>2022-06-19T17:27:26Z</time>
      </trkpt>
      <trkpt lat="42.27650700000015" lon="-1.7463949999999995">
        <ele>326.838</ele>
        <time>2022-06-19T17:27:30Z</time>
      </trkpt>
      <trkpt lat="42.27637300000015" lon="-1.7464019999999996">
        <ele>326.475</ele>
        <time>2022-06-19T17:27:34Z</time>
      </trkpt>
      <trkpt lat="42.27608300000015" lon="-1.7464089999999997">
        <ele>326.228</ele>
        <time>2022-06-19T17:27:42Z</time>
      </trkpt>
      <trkpt lat="42.275848000000146" lon="-1.7463889999999997">
        <ele>326.220</ele>
        <time>2022-06-19T17:27:47Z</time>
      </trkpt>
      <trkpt lat="42.275460000000145" lon="-1.7463109999999997">
        <ele>325.809</ele>
        <time>2022-06-19T17:27:54Z</time>
      </trkpt>
      <trkpt lat="42.275263000000145" lon="-1.7462599999999997">
        <ele>325.068</ele>
        <time>2022-06-19T17:27:57Z</time>
      </trkpt>
      <trkpt lat="42.275119000000146" lon="-1.7462139999999997">
        <ele>323.667</ele>
        <time>2022-06-19T17:27:59Z</time>
      </trkpt>
      <trkpt lat="42.27504800000015" lon="-1.7461899999999997">
        <ele>323.292</ele>
        <time>2022-06-19T17:28:00Z</time>
      </trkpt>
      <trkpt lat="42.274827000000144" lon="-1.7461119999999997">
        <ele>322.476</ele>
        <time>2022-06-19T17:28:03Z</time>
      </trkpt>
      <trkpt lat="42.274680000000146" lon="-1.7460359999999997">
        <ele>321.238</ele>
        <time>2022-06-19T17:28:05Z</time>
      </trkpt>
      <trkpt lat="42.27460900000015" lon="-1.7459919999999998">
        <ele>320.854</ele>
        <time>2022-06-19T17:28:06Z</time>
      </trkpt>
      <trkpt lat="42.274469000000146" lon="-1.7458739999999997">
        <ele>319.888</ele>
        <time>2022-06-19T17:28:08Z</time>
      </trkpt>
      <trkpt lat="42.274328000000146" lon="-1.7457359999999997">
        <ele>318.651</ele>
        <time>2022-06-19T17:28:10Z</time>
      </trkpt>
      <trkpt lat="42.27425900000014" lon="-1.7456619999999998">
        <ele>318.080</ele>
        <time>2022-06-19T17:28:11Z</time>
      </trkpt>
      <trkpt lat="42.27412100000014" lon="-1.7455049999999999">
        <ele>316.882</ele>
        <time>2022-06-19T17:28:13Z</time>
      </trkpt>
      <trkpt lat="42.273856000000144" lon="-1.7451459999999999">
        <ele>315.843</ele>
        <time>2022-06-19T17:28:17Z</time>
      </trkpt>
      <trkpt lat="42.273788000000145" lon="-1.7450549999999998">
        <ele>315.617</ele>
        <time>2022-06-19T17:28:18Z</time>
      </trkpt>
      <trkpt lat="42.273566000000145" lon="-1.7447899999999998">
        <ele>314.609</ele>
        <time>2022-06-19T17:28:21Z</time>
      </trkpt>
      <trkpt lat="42.27340400000014" lon="-1.7446369999999998">
        <ele>313.289</ele>
        <time>2022-06-19T17:28:23Z</time>
      </trkpt>
      <trkpt lat="42.27315700000014" lon="-1.7444549999999999">
        <ele>311.838</ele>
        <time>2022-06-19T17:28:26Z</time>
      </trkpt>
      <trkpt lat="42.27300000000014" lon="-1.744365">
        <ele>311.083</ele>
        <time>2022-06-19T17:28:28Z</time>
      </trkpt>
      <trkpt lat="42.27292600000014" lon="-1.7443229999999998">
        <ele>310.887</ele>
        <time>2022-06-19T17:28:29Z</time>
      </trkpt>
      <trkpt lat="42.27264700000014" lon="-1.744168">
        <ele>310.469</ele>
        <time>2022-06-19T17:28:33Z</time>
      </trkpt>
      <trkpt lat="42.27222500000014" lon="-1.743936">
        <ele>310.495</ele>
        <time>2022-06-19T17:28:40Z</time>
      </trkpt>
      <trkpt lat="42.27181500000014" lon="-1.743714">
        <ele>311.219</ele>
        <time>2022-06-19T17:28:48Z</time>
      </trkpt>
      <trkpt lat="42.271678000000136" lon="-1.7436369999999999">
        <ele>312.032</ele>
        <time>2022-06-19T17:28:51Z</time>
      </trkpt>
      <trkpt lat="42.27144400000014" lon="-1.7435189999999998">
        <ele>313.021</ele>
        <time>2022-06-19T17:28:56Z</time>
      </trkpt>
      <trkpt lat="42.27139900000014" lon="-1.7434949999999998">
        <ele>313.297</ele>
        <time>2022-06-19T17:28:57Z</time>
      </trkpt>
      <trkpt lat="42.271133000000134" lon="-1.7433539999999998">
        <ele>314.023</ele>
        <time>2022-06-19T17:29:03Z</time>
      </trkpt>
      <trkpt lat="42.270950000000134" lon="-1.7432729999999999">
        <ele>314.625</ele>
        <time>2022-06-19T17:29:07Z</time>
      </trkpt>
      <trkpt lat="42.27058200000013" lon="-1.7431149999999997">
        <ele>314.809</ele>
        <time>2022-06-19T17:29:15Z</time>
      </trkpt>
      <trkpt lat="42.27053500000013" lon="-1.7430959999999998">
        <ele>314.870</ele>
        <time>2022-06-19T17:29:16Z</time>
      </trkpt>
      <trkpt lat="42.27003700000013" lon="-1.7428849999999998">
        <ele>314.839</ele>
        <time>2022-06-19T17:29:27Z</time>
      </trkpt>
      <trkpt lat="42.26960200000013" lon="-1.7427509999999997">
        <ele>314.464</ele>
        <time>2022-06-19T17:29:36Z</time>
      </trkpt>
      <trkpt lat="42.26945000000013" lon="-1.7427429999999997">
        <ele>314.428</ele>
        <time>2022-06-19T17:29:39Z</time>
      </trkpt>
      <trkpt lat="42.26935900000013" lon="-1.7427139999999997">
        <ele>314.480</ele>
        <time>2022-06-19T17:29:41Z</time>
      </trkpt>
      <trkpt lat="42.26914100000013" lon="-1.7425519999999997">
        <ele>314.086</ele>
        <time>2022-06-19T17:29:46Z</time>
      </trkpt>
      <trkpt lat="42.269104000000134" lon="-1.7425319999999997">
        <ele>314.060</ele>
        <time>2022-06-19T17:29:47Z</time>
      </trkpt>
      <trkpt lat="42.26862900000013" lon="-1.7423509999999998">
        <ele>313.843</ele>
        <time>2022-06-19T17:29:57Z</time>
      </trkpt>
      <trkpt lat="42.26828000000013" lon="-1.7422259999999998">
        <ele>314.262</ele>
        <time>2022-06-19T17:30:05Z</time>
      </trkpt>
      <trkpt lat="42.26811500000013" lon="-1.7421609999999998">
        <ele>315.254</ele>
        <time>2022-06-19T17:30:09Z</time>
      </trkpt>
      <trkpt lat="42.26791200000013" lon="-1.7420799999999999">
        <ele>315.456</ele>
        <time>2022-06-19T17:30:14Z</time>
      </trkpt>
      <trkpt lat="42.26752200000013" lon="-1.7419339999999999">
        <ele>315.811</ele>
        <time>2022-06-19T17:30:24Z</time>
      </trkpt>
      <trkpt lat="42.267303000000126" lon="-1.741831">
        <ele>316.209</ele>
        <time>2022-06-19T17:30:30Z</time>
      </trkpt>
      <trkpt lat="42.267163000000124" lon="-1.74176">
        <ele>316.246</ele>
        <time>2022-06-19T17:30:34Z</time>
      </trkpt>
      <trkpt lat="42.26683000000013" lon="-1.741531">
        <ele>316.475</ele>
        <time>2022-06-19T17:30:43Z</time>
      </trkpt>
      <trkpt lat="42.266423000000124" lon="-1.7411809999999999">
        <ele>315.470</ele>
        <time>2022-06-19T17:30:54Z</time>
      </trkpt>
      <trkpt lat="42.26628100000013" lon="-1.7410379999999999">
        <ele>315.044</ele>
        <time>2022-06-19T17:30:58Z</time>
      </trkpt>
      <trkpt lat="42.26612800000013" lon="-1.740889">
        <ele>314.886</ele>
        <time>2022-06-19T17:31:02Z</time>
      </trkpt>
      <trkpt lat="42.26569900000013" lon="-1.7404799999999998">
        <ele>314.882</ele>
        <time>2022-06-19T17:31:13Z</time>
      </trkpt>
      <trkpt lat="42.26525200000013" lon="-1.7400359999999997">
        <ele>315.226</ele>
        <time>2022-06-19T17:31:25Z</time>
      </trkpt>
      <trkpt lat="42.26491400000013" lon="-1.7397149999999997">
        <ele>315.259</ele>
        <time>2022-06-19T17:31:34Z</time>
      </trkpt>
      <trkpt lat="42.26461700000013" lon="-1.7394219999999996">
        <ele>315.228</ele>
        <time>2022-06-19T17:31:42Z</time>
      </trkpt>
      <trkpt lat="42.26422600000013" lon="-1.7390229999999995">
        <ele>314.666</ele>
        <time>2022-06-19T17:31:51Z</time>
      </trkpt>
      <trkpt lat="42.26380400000013" lon="-1.7386089999999996">
        <ele>314.229</ele>
        <time>2022-06-19T17:32:00Z</time>
      </trkpt>
      <trkpt lat="42.26356800000013" lon="-1.7383729999999997">
        <ele>313.821</ele>
        <time>2022-06-19T17:32:05Z</time>
      </trkpt>
      <trkpt lat="42.26329400000013" lon="-1.7381009999999997">
        <ele>313.609</ele>
        <time>2022-06-19T17:32:11Z</time>
      </trkpt>
      <trkpt lat="42.26299000000013" lon="-1.7377969999999996">
        <ele>313.287</ele>
        <time>2022-06-19T17:32:18Z</time>
      </trkpt>
      <trkpt lat="42.26260500000013" lon="-1.7373879999999995">
        <ele>313.226</ele>
        <time>2022-06-19T17:32:27Z</time>
      </trkpt>
      <trkpt lat="42.26215500000013" lon="-1.7369529999999995">
        <ele>313.031</ele>
        <time>2022-06-19T17:32:37Z</time>
      </trkpt>
      <trkpt lat="42.261922000000126" lon="-1.7367469999999996">
        <ele>312.835</ele>
        <time>2022-06-19T17:32:42Z</time>
      </trkpt>
      <trkpt lat="42.261613000000125" lon="-1.7364839999999997">
        <ele>312.687</ele>
        <time>2022-06-19T17:32:49Z</time>
      </trkpt>
      <trkpt lat="42.261270000000124" lon="-1.7361979999999997">
        <ele>312.873</ele>
        <time>2022-06-19T17:32:57Z</time>
      </trkpt>
      <trkpt lat="42.260968000000126" lon="-1.7359429999999998">
        <ele>313.087</ele>
        <time>2022-06-19T17:33:04Z</time>
      </trkpt>
      <trkpt lat="42.260763000000125" lon="-1.7357629999999997">
        <ele>314.030</ele>
        <time>2022-06-19T17:33:09Z</time>
      </trkpt>
      <trkpt lat="42.26056500000013" lon="-1.7355939999999996">
        <ele>315.049</ele>
        <time>2022-06-19T17:33:14Z</time>
      </trkpt>
      <trkpt lat="42.260524000000125" lon="-1.7355579999999997">
        <ele>315.259</ele>
        <time>2022-06-19T17:33:15Z</time>
      </trkpt>
      <trkpt lat="42.260324000000125" lon="-1.7353889999999996">
        <ele>316.403</ele>
        <time>2022-06-19T17:33:20Z</time>
      </trkpt>
      <trkpt lat="42.25996800000013" lon="-1.7350829999999997">
        <ele>317.023</ele>
        <time>2022-06-19T17:33:29Z</time>
      </trkpt>
      <trkpt lat="42.259679000000126" lon="-1.7348439999999996">
        <ele>317.009</ele>
        <time>2022-06-19T17:33:36Z</time>
      </trkpt>
      <trkpt lat="42.25939900000013" lon="-1.7346019999999995">
        <ele>317.026</ele>
        <time>2022-06-19T17:33:43Z</time>
      </trkpt>
      <trkpt lat="42.25911200000013" lon="-1.7343599999999995">
        <ele>317.285</ele>
        <time>2022-06-19T17:33:50Z</time>
      </trkpt>
      <trkpt lat="42.25878200000013" lon="-1.7340829999999994">
        <ele>317.420</ele>
        <time>2022-06-19T17:33:58Z</time>
      </trkpt>
      <trkpt lat="42.25874200000013" lon="-1.7340479999999994">
        <ele>317.444</ele>
        <time>2022-06-19T17:33:59Z</time>
      </trkpt>
      <trkpt lat="42.25844100000013" lon="-1.7337939999999994">
        <ele>317.676</ele>
        <time>2022-06-19T17:34:06Z</time>
      </trkpt>
      <trkpt lat="42.258015000000135" lon="-1.7334339999999995">
        <ele>317.622</ele>
        <time>2022-06-19T17:34:15Z</time>
      </trkpt>
      <trkpt lat="42.257526000000134" lon="-1.7330149999999995">
        <ele>317.436</ele>
        <time>2022-06-19T17:34:25Z</time>
      </trkpt>
      <trkpt lat="42.257038000000136" lon="-1.7326049999999995">
        <ele>317.269</ele>
        <time>2022-06-19T17:34:35Z</time>
      </trkpt>
      <trkpt lat="42.256555000000134" lon="-1.7322019999999996">
        <ele>317.238</ele>
        <time>2022-06-19T17:34:45Z</time>
      </trkpt>
      <trkpt lat="42.25650800000013" lon="-1.7321629999999997">
        <ele>317.239</ele>
        <time>2022-06-19T17:34:46Z</time>
      </trkpt>
      <trkpt lat="42.25601900000013" lon="-1.7317629999999997">
        <ele>317.401</ele>
        <time>2022-06-19T17:34:57Z</time>
      </trkpt>
      <trkpt lat="42.25597600000013" lon="-1.7317269999999998">
        <ele>317.421</ele>
        <time>2022-06-19T17:34:58Z</time>
      </trkpt>
      <trkpt lat="42.25548400000013" lon="-1.7313259999999997">
        <ele>317.609</ele>
        <time>2022-06-19T17:35:09Z</time>
      </trkpt>
      <trkpt lat="42.25500200000013" lon="-1.7309219999999996">
        <ele>317.824</ele>
        <time>2022-06-19T17:35:20Z</time>
      </trkpt>
      <trkpt lat="42.25491300000013" lon="-1.7308459999999997">
        <ele>317.833</ele>
        <time>2022-06-19T17:35:22Z</time>
      </trkpt>
      <trkpt lat="42.25441900000013" lon="-1.7304299999999997">
        <ele>317.888</ele>
        <time>2022-06-19T17:35:33Z</time>
      </trkpt>
      <trkpt lat="42.253961000000125" lon="-1.7300349999999998">
        <ele>317.872</ele>
        <time>2022-06-19T17:35:43Z</time>
      </trkpt>
      <trkpt lat="42.25391200000013" lon="-1.7299979999999997">
        <ele>317.864</ele>
        <time>2022-06-19T17:35:44Z</time>
      </trkpt>
      <trkpt lat="42.25352600000013" lon="-1.7296729999999998">
        <ele>317.450</ele>
        <time>2022-06-19T17:35:52Z</time>
      </trkpt>
      <trkpt lat="42.25304100000013" lon="-1.7292609999999997">
        <ele>316.424</ele>
        <time>2022-06-19T17:36:02Z</time>
      </trkpt>
      <trkpt lat="42.25285600000013" lon="-1.7291059999999998">
        <ele>316.637</ele>
        <time>2022-06-19T17:36:06Z</time>
      </trkpt>
      <trkpt lat="42.25241600000013" lon="-1.7287409999999999">
        <ele>317.056</ele>
        <time>2022-06-19T17:36:16Z</time>
      </trkpt>
      <trkpt lat="42.25212900000013" lon="-1.7284909999999998">
        <ele>317.645</ele>
        <time>2022-06-19T17:36:23Z</time>
      </trkpt>
      <trkpt lat="42.25179100000013" lon="-1.7282079999999997">
        <ele>318.447</ele>
        <time>2022-06-19T17:36:31Z</time>
      </trkpt>
      <trkpt lat="42.251748000000134" lon="-1.7281719999999998">
        <ele>318.611</ele>
        <time>2022-06-19T17:36:32Z</time>
      </trkpt>
      <trkpt lat="42.251461000000134" lon="-1.7279319999999998">
        <ele>319.609</ele>
        <time>2022-06-19T17:36:39Z</time>
      </trkpt>
      <trkpt lat="42.251300000000136" lon="-1.7277879999999999">
        <ele>320.075</ele>
        <time>2022-06-19T17:36:43Z</time>
      </trkpt>
      <trkpt lat="42.25096400000014" lon="-1.7274319999999999">
        <ele>320.684</ele>
        <time>2022-06-19T17:36:51Z</time>
      </trkpt>
      <trkpt lat="42.25055100000014" lon="-1.7270119999999998">
        <ele>320.219</ele>
        <time>2022-06-19T17:37:00Z</time>
      </trkpt>
      <trkpt lat="42.25011200000014" lon="-1.7265499999999998">
        <ele>319.673</ele>
        <time>2022-06-19T17:37:10Z</time>
      </trkpt>
      <trkpt lat="42.249679000000135" lon="-1.7261029999999997">
        <ele>319.655</ele>
        <time>2022-06-19T17:37:20Z</time>
      </trkpt>
      <trkpt lat="42.249547000000135" lon="-1.7259689999999996">
        <ele>319.651</ele>
        <time>2022-06-19T17:37:23Z</time>
      </trkpt>
      <trkpt lat="42.249370000000134" lon="-1.7257879999999997">
        <ele>319.645</ele>
        <time>2022-06-19T17:37:27Z</time>
      </trkpt>
      <trkpt lat="42.249037000000136" lon="-1.7254399999999996">
        <ele>319.278</ele>
        <time>2022-06-19T17:37:34Z</time>
      </trkpt>
      <trkpt lat="42.248843000000136" lon="-1.7252459999999996">
        <ele>318.457</ele>
        <time>2022-06-19T17:37:38Z</time>
      </trkpt>
      <trkpt lat="42.248545000000135" lon="-1.7249399999999997">
        <ele>318.054</ele>
        <time>2022-06-19T17:37:44Z</time>
      </trkpt>
      <trkpt lat="42.248210000000135" lon="-1.7245859999999997">
        <ele>317.456</ele>
        <time>2022-06-19T17:37:51Z</time>
      </trkpt>
      <trkpt lat="42.24807100000014" lon="-1.7244419999999998">
        <ele>317.211</ele>
        <time>2022-06-19T17:37:54Z</time>
      </trkpt>
      <trkpt lat="42.24772200000014" lon="-1.7240779999999998">
        <ele>317.409</ele>
        <time>2022-06-19T17:38:02Z</time>
      </trkpt>
      <trkpt lat="42.247405000000136" lon="-1.7237549999999997">
        <ele>318.496</ele>
        <time>2022-06-19T17:38:10Z</time>
      </trkpt>
      <trkpt lat="42.247366000000135" lon="-1.7237129999999996">
        <ele>318.655</ele>
        <time>2022-06-19T17:38:11Z</time>
      </trkpt>
      <trkpt lat="42.246955000000135" lon="-1.7232809999999996">
        <ele>319.090</ele>
        <time>2022-06-19T17:38:21Z</time>
      </trkpt>
      <trkpt lat="42.246564000000134" lon="-1.7228779999999997">
        <ele>318.864</ele>
        <time>2022-06-19T17:38:30Z</time>
      </trkpt>
      <trkpt lat="42.246122000000135" lon="-1.7224189999999997">
        <ele>318.266</ele>
        <time>2022-06-19T17:38:40Z</time>
      </trkpt>
      <trkpt lat="42.24608100000013" lon="-1.7223739999999996">
        <ele>318.292</ele>
        <time>2022-06-19T17:38:41Z</time>
      </trkpt>
      <trkpt lat="42.245720000000134" lon="-1.7220069999999996">
        <ele>317.836</ele>
        <time>2022-06-19T17:38:49Z</time>
      </trkpt>
      <trkpt lat="42.245390000000135" lon="-1.7216619999999996">
        <ele>318.029</ele>
        <time>2022-06-19T17:38:56Z</time>
      </trkpt>
      <trkpt lat="42.245002000000135" lon="-1.7212499999999995">
        <ele>318.278</ele>
        <time>2022-06-19T17:39:05Z</time>
      </trkpt>
      <trkpt lat="42.24495900000014" lon="-1.7212059999999996">
        <ele>318.265</ele>
        <time>2022-06-19T17:39:06Z</time>
      </trkpt>
      <trkpt lat="42.24454100000013" lon="-1.7207709999999996">
        <ele>318.068</ele>
        <time>2022-06-19T17:39:16Z</time>
      </trkpt>
      <trkpt lat="42.244084000000136" lon="-1.7202909999999996">
        <ele>317.814</ele>
        <time>2022-06-19T17:39:26Z</time>
      </trkpt>
      <trkpt lat="42.244037000000134" lon="-1.7202419999999996">
        <ele>317.809</ele>
        <time>2022-06-19T17:39:27Z</time>
      </trkpt>
      <trkpt lat="42.24386000000013" lon="-1.7200579999999996">
        <ele>317.237</ele>
        <time>2022-06-19T17:39:31Z</time>
      </trkpt>
      <trkpt lat="42.24351800000013" lon="-1.7197009999999997">
        <ele>316.866</ele>
        <time>2022-06-19T17:39:39Z</time>
      </trkpt>
      <trkpt lat="42.24343400000013" lon="-1.7196189999999998">
        <ele>316.861</ele>
        <time>2022-06-19T17:39:41Z</time>
      </trkpt>
      <trkpt lat="42.24319700000013" lon="-1.7193589999999999">
        <ele>316.825</ele>
        <time>2022-06-19T17:39:47Z</time>
      </trkpt>
      <trkpt lat="42.24276900000013" lon="-1.7188979999999998">
        <ele>316.447</ele>
        <time>2022-06-19T17:39:58Z</time>
      </trkpt>
      <trkpt lat="42.24235200000013" lon="-1.7184629999999999">
        <ele>317.043</ele>
        <time>2022-06-19T17:40:08Z</time>
      </trkpt>
      <trkpt lat="42.24198300000013" lon="-1.7180689999999998">
        <ele>317.427</ele>
        <time>2022-06-19T17:40:17Z</time>
      </trkpt>
      <trkpt lat="42.24159000000013" lon="-1.7176569999999998">
        <ele>317.640</ele>
        <time>2022-06-19T17:40:27Z</time>
      </trkpt>
      <trkpt lat="42.24113000000013" lon="-1.7171759999999998">
        <ele>317.829</ele>
        <time>2022-06-19T17:40:39Z</time>
      </trkpt>
      <trkpt lat="42.240780000000136" lon="-1.7167849999999998">
        <ele>318.277</ele>
        <time>2022-06-19T17:40:48Z</time>
      </trkpt>
      <trkpt lat="42.24065800000014" lon="-1.7166629999999998">
        <ele>318.261</ele>
        <time>2022-06-19T17:40:51Z</time>
      </trkpt>
      <trkpt lat="42.24049800000014" lon="-1.7164899999999998">
        <ele>318.227</ele>
        <time>2022-06-19T17:40:55Z</time>
      </trkpt>
      <trkpt lat="42.24006400000014" lon="-1.716033">
        <ele>318.009</ele>
        <time>2022-06-19T17:41:06Z</time>
      </trkpt>
      <trkpt lat="42.23998500000014" lon="-1.715947">
        <ele>318.038</ele>
        <time>2022-06-19T17:41:08Z</time>
      </trkpt>
      <trkpt lat="42.239519000000136" lon="-1.715471">
        <ele>318.277</ele>
        <time>2022-06-19T17:41:19Z</time>
      </trkpt>
      <trkpt lat="42.239092000000134" lon="-1.715065">
        <ele>318.272</ele>
        <time>2022-06-19T17:41:28Z</time>
      </trkpt>
      <trkpt lat="42.23872200000014" lon="-1.7147130000000002">
        <ele>317.626</ele>
        <time>2022-06-19T17:41:35Z</time>
      </trkpt>
      <trkpt lat="42.23861400000014" lon="-1.7146100000000002">
        <ele>317.228</ele>
        <time>2022-06-19T17:41:37Z</time>
      </trkpt>
      <trkpt lat="42.23845300000014" lon="-1.7144500000000003">
        <ele>316.814</ele>
        <time>2022-06-19T17:41:40Z</time>
      </trkpt>
      <trkpt lat="42.23818100000014" lon="-1.7141950000000004">
        <ele>316.268</ele>
        <time>2022-06-19T17:41:45Z</time>
      </trkpt>
      <trkpt lat="42.23807500000014" lon="-1.7140960000000003">
        <ele>315.871</ele>
        <time>2022-06-19T17:41:47Z</time>
      </trkpt>
      <trkpt lat="42.237825000000136" lon="-1.7138570000000002">
        <ele>314.630</ele>
        <time>2022-06-19T17:41:52Z</time>
      </trkpt>
      <trkpt lat="42.237727000000135" lon="-1.7137630000000001">
        <ele>314.427</ele>
        <time>2022-06-19T17:41:54Z</time>
      </trkpt>
      <trkpt lat="42.237299000000135" lon="-1.7133600000000002">
        <ele>314.068</ele>
        <time>2022-06-19T17:42:03Z</time>
      </trkpt>
      <trkpt lat="42.236837000000136" lon="-1.7129080000000003">
        <ele>313.814</ele>
        <time>2022-06-19T17:42:13Z</time>
      </trkpt>
      <trkpt lat="42.236745000000134" lon="-1.7128150000000004">
        <ele>313.809</ele>
        <time>2022-06-19T17:42:15Z</time>
      </trkpt>
      <trkpt lat="42.23656900000013" lon="-1.7126460000000003">
        <ele>313.683</ele>
        <time>2022-06-19T17:42:19Z</time>
      </trkpt>
      <trkpt lat="42.23634800000013" lon="-1.7124290000000004">
        <ele>313.452</ele>
        <time>2022-06-19T17:42:24Z</time>
      </trkpt>
      <trkpt lat="42.235938000000125" lon="-1.7120440000000003">
        <ele>313.467</ele>
        <time>2022-06-19T17:42:33Z</time>
      </trkpt>
      <trkpt lat="42.23548100000013" lon="-1.7116080000000002">
        <ele>313.231</ele>
        <time>2022-06-19T17:42:43Z</time>
      </trkpt>
      <trkpt lat="42.235037000000126" lon="-1.7111830000000003">
        <ele>313.213</ele>
        <time>2022-06-19T17:42:53Z</time>
      </trkpt>
      <trkpt lat="42.234598000000126" lon="-1.7107520000000003">
        <ele>313.479</ele>
        <time>2022-06-19T17:43:03Z</time>
      </trkpt>
      <trkpt lat="42.23455500000013" lon="-1.7107100000000002">
        <ele>313.473</ele>
        <time>2022-06-19T17:43:04Z</time>
      </trkpt>
      <trkpt lat="42.23414700000013" lon="-1.7103180000000002">
        <ele>313.846</ele>
        <time>2022-06-19T17:43:14Z</time>
      </trkpt>
      <trkpt lat="42.23384800000013" lon="-1.7099970000000002">
        <ele>314.425</ele>
        <time>2022-06-19T17:43:22Z</time>
      </trkpt>
      <trkpt lat="42.23351700000013" lon="-1.709615">
        <ele>314.655</ele>
        <time>2022-06-19T17:43:31Z</time>
      </trkpt>
      <trkpt lat="42.233324000000124" lon="-1.709389">
        <ele>314.607</ele>
        <time>2022-06-19T17:43:36Z</time>
      </trkpt>
      <trkpt lat="42.233079000000124" lon="-1.7090990000000001">
        <ele>314.617</ele>
        <time>2022-06-19T17:43:42Z</time>
      </trkpt>
      <trkpt lat="42.23267000000013" lon="-1.7086230000000002">
        <ele>314.209</ele>
        <time>2022-06-19T17:43:52Z</time>
      </trkpt>
      <trkpt lat="42.23254800000013" lon="-1.7084890000000001">
        <ele>314.076</ele>
        <time>2022-06-19T17:43:55Z</time>
      </trkpt>
      <trkpt lat="42.23212100000013" lon="-1.7080000000000002">
        <ele>314.455</ele>
        <time>2022-06-19T17:44:06Z</time>
      </trkpt>
      <trkpt lat="42.232082000000126" lon="-1.707958">
        <ele>314.690</ele>
        <time>2022-06-19T17:44:07Z</time>
      </trkpt>
      <trkpt lat="42.23178300000013" lon="-1.7076140000000002">
        <ele>314.684</ele>
        <time>2022-06-19T17:44:15Z</time>
      </trkpt>
      <trkpt lat="42.23170700000013" lon="-1.7075300000000002">
        <ele>314.626</ele>
        <time>2022-06-19T17:44:17Z</time>
      </trkpt>
      <trkpt lat="42.231311000000126" lon="-1.7070790000000002">
        <ele>314.252</ele>
        <time>2022-06-19T17:44:27Z</time>
      </trkpt>
      <trkpt lat="42.23096900000012" lon="-1.7066870000000003">
        <ele>314.036</ele>
        <time>2022-06-19T17:44:35Z</time>
      </trkpt>
      <trkpt lat="42.230794000000124" lon="-1.7064850000000003">
        <ele>313.639</ele>
        <time>2022-06-19T17:44:39Z</time>
      </trkpt>
      <trkpt lat="42.23053300000012" lon="-1.7061920000000002">
        <ele>313.068</ele>
        <time>2022-06-19T17:44:45Z</time>
      </trkpt>
      <trkpt lat="42.230315000000125" lon="-1.705942">
        <ele>312.646</ele>
        <time>2022-06-19T17:44:50Z</time>
      </trkpt>
      <trkpt lat="42.230107000000125" lon="-1.7057">
        <ele>312.288</ele>
        <time>2022-06-19T17:44:55Z</time>
      </trkpt>
      <trkpt lat="42.22978100000012" lon="-1.705347">
        <ele>312.016</ele>
        <time>2022-06-19T17:45:03Z</time>
      </trkpt>
      <trkpt lat="42.229738000000125" lon="-1.705316">
        <ele>312.009</ele>
        <time>2022-06-19T17:45:04Z</time>
      </trkpt>
      <trkpt lat="42.22969400000012" lon="-1.705289">
        <ele>311.855</ele>
        <time>2022-06-19T17:45:05Z</time>
      </trkpt>
      <trkpt lat="42.229552000000126" lon="-1.705254">
        <ele>311.864</ele>
        <time>2022-06-19T17:45:08Z</time>
      </trkpt>
      <trkpt lat="42.22943800000012" lon="-1.70526">
        <ele>311.859</ele>
        <time>2022-06-19T17:45:12Z</time>
      </trkpt>
      <trkpt lat="42.229431000000126" lon="-1.705259">
        <ele>312.063</ele>
        <time>2022-06-19T17:45:15Z</time>
      </trkpt>
      <trkpt lat="42.229372000000126" lon="-1.705246">
        <ele>312.465</ele>
        <time>2022-06-19T17:45:20Z</time>
      </trkpt>
      <trkpt lat="42.22924700000013" lon="-1.705065">
        <ele>313.451</ele>
        <time>2022-06-19T17:45:25Z</time>
      </trkpt>
      <trkpt lat="42.22923300000013" lon="-1.705019">
        <ele>313.435</ele>
        <time>2022-06-19T17:45:26Z</time>
      </trkpt>
      <trkpt lat="42.22914200000013" lon="-1.7047750000000002">
        <ele>313.488</ele>
        <time>2022-06-19T17:45:30Z</time>
      </trkpt>
      <trkpt lat="42.228955000000134" lon="-1.7043810000000001">
        <ele>313.457</ele>
        <time>2022-06-19T17:45:37Z</time>
      </trkpt>
      <trkpt lat="42.22865000000014" lon="-1.703885">
        <ele>313.243</ele>
        <time>2022-06-19T17:45:46Z</time>
      </trkpt>
      <trkpt lat="42.22834800000014" lon="-1.703405">
        <ele>312.664</ele>
        <time>2022-06-19T17:45:54Z</time>
      </trkpt>
      <trkpt lat="42.22820400000014" lon="-1.703174">
        <ele>312.410</ele>
        <time>2022-06-19T17:45:58Z</time>
      </trkpt>
      <trkpt lat="42.22804000000014" lon="-1.702913">
        <ele>311.809</ele>
        <time>2022-06-19T17:46:02Z</time>
      </trkpt>
      <trkpt lat="42.22778500000014" lon="-1.7025379999999999">
        <ele>311.245</ele>
        <time>2022-06-19T17:46:08Z</time>
      </trkpt>
      <trkpt lat="42.22766100000014" lon="-1.702365">
        <ele>311.054</ele>
        <time>2022-06-19T17:46:11Z</time>
      </trkpt>
      <trkpt lat="42.22730500000014" lon="-1.7019849999999999">
        <ele>310.869</ele>
        <time>2022-06-19T17:46:18Z</time>
      </trkpt>
      <trkpt lat="42.226882000000145" lon="-1.7016069999999999">
        <ele>310.413</ele>
        <time>2022-06-19T17:46:27Z</time>
      </trkpt>
      <trkpt lat="42.226508000000145" lon="-1.7012829999999999">
        <ele>310.615</ele>
        <time>2022-06-19T17:46:36Z</time>
      </trkpt>
      <trkpt lat="42.226224000000144" lon="-1.701048">
        <ele>310.871</ele>
        <time>2022-06-19T17:46:43Z</time>
      </trkpt>
      <trkpt lat="42.225894000000146" lon="-1.7007569999999999">
        <ele>311.485</ele>
        <time>2022-06-19T17:46:51Z</time>
      </trkpt>
      <trkpt lat="42.225497000000146" lon="-1.7004099999999998">
        <ele>311.818</ele>
        <time>2022-06-19T17:47:01Z</time>
      </trkpt>
      <trkpt lat="42.22525900000014" lon="-1.7001989999999998">
        <ele>312.497</ele>
        <time>2022-06-19T17:47:07Z</time>
      </trkpt>
      <trkpt lat="42.22506200000014" lon="-1.7000279999999999">
        <ele>312.677</ele>
        <time>2022-06-19T17:47:12Z</time>
      </trkpt>
      <trkpt lat="42.22461500000014" lon="-1.6996499999999999">
        <ele>312.661</ele>
        <time>2022-06-19T17:47:23Z</time>
      </trkpt>
      <trkpt lat="42.22415400000014" lon="-1.699233">
        <ele>312.227</ele>
        <time>2022-06-19T17:47:34Z</time>
      </trkpt>
      <trkpt lat="42.22412100000014" lon="-1.699201">
        <ele>312.209</ele>
        <time>2022-06-19T17:47:35Z</time>
      </trkpt>
      <trkpt lat="42.22379100000014" lon="-1.698847">
        <ele>312.418</ele>
        <time>2022-06-19T17:47:43Z</time>
      </trkpt>
      <trkpt lat="42.22374800000014" lon="-1.698802">
        <ele>312.417</ele>
        <time>2022-06-19T17:47:44Z</time>
      </trkpt>
      <trkpt lat="42.223373000000144" lon="-1.698323">
        <ele>312.422</ele>
        <time>2022-06-19T17:47:53Z</time>
      </trkpt>
      <trkpt lat="42.223004000000145" lon="-1.69778">
        <ele>312.036</ele>
        <time>2022-06-19T17:48:03Z</time>
      </trkpt>
      <trkpt lat="42.22266800000015" lon="-1.697176">
        <ele>312.258</ele>
        <time>2022-06-19T17:48:13Z</time>
      </trkpt>
      <trkpt lat="42.22237000000015" lon="-1.696532">
        <ele>312.054</ele>
        <time>2022-06-19T17:48:23Z</time>
      </trkpt>
      <trkpt lat="42.22234400000015" lon="-1.6964679999999999">
        <ele>311.828</ele>
        <time>2022-06-19T17:48:24Z</time>
      </trkpt>
      <trkpt lat="42.22210000000015" lon="-1.6958099999999998">
        <ele>311.611</ele>
        <time>2022-06-19T17:48:34Z</time>
      </trkpt>
      <trkpt lat="42.221906000000146" lon="-1.6951499999999997">
        <ele>311.860</ele>
        <time>2022-06-19T17:48:44Z</time>
      </trkpt>
      <trkpt lat="42.22173300000015" lon="-1.6944499999999998">
        <ele>312.282</ele>
        <time>2022-06-19T17:48:54Z</time>
      </trkpt>
      <trkpt lat="42.22170500000015" lon="-1.6943309999999998">
        <ele>312.243</ele>
        <time>2022-06-19T17:48:56Z</time>
      </trkpt>
      <trkpt lat="42.22154200000015" lon="-1.693574">
        <ele>312.817</ele>
        <time>2022-06-19T17:49:07Z</time>
      </trkpt>
      <trkpt lat="42.22137500000015" lon="-1.692836">
        <ele>313.009</ele>
        <time>2022-06-19T17:49:18Z</time>
      </trkpt>
      <trkpt lat="42.22136000000015" lon="-1.692769">
        <ele>313.039</ele>
        <time>2022-06-19T17:49:19Z</time>
      </trkpt>
      <trkpt lat="42.22120300000015" lon="-1.69204">
        <ele>313.268</ele>
        <time>2022-06-19T17:49:30Z</time>
      </trkpt>
      <trkpt lat="42.22117200000015" lon="-1.691908">
        <ele>313.283</ele>
        <time>2022-06-19T17:49:32Z</time>
      </trkpt>
      <trkpt lat="42.221022000000154" lon="-1.691244">
        <ele>313.217</ele>
        <time>2022-06-19T17:49:42Z</time>
      </trkpt>
      <trkpt lat="42.22086000000015" lon="-1.690506">
        <ele>313.289</ele>
        <time>2022-06-19T17:49:53Z</time>
      </trkpt>
      <trkpt lat="42.22084100000015" lon="-1.6904400000000002">
        <ele>313.435</ele>
        <time>2022-06-19T17:49:54Z</time>
      </trkpt>
      <trkpt lat="42.22079000000015" lon="-1.6903210000000002">
        <ele>313.459</ele>
        <time>2022-06-19T17:49:56Z</time>
      </trkpt>
      <trkpt lat="42.22075500000015" lon="-1.6902700000000002">
        <ele>313.492</ele>
        <time>2022-06-19T17:49:57Z</time>
      </trkpt>
      <trkpt lat="42.220678000000156" lon="-1.6901760000000001">
        <ele>313.471</ele>
        <time>2022-06-19T17:49:59Z</time>
      </trkpt>
      <trkpt lat="42.22062100000016" lon="-1.690063">
        <ele>313.475</ele>
        <time>2022-06-19T17:50:01Z</time>
      </trkpt>
      <trkpt lat="42.22061000000016" lon="-1.6899950000000001">
        <ele>313.628</ele>
        <time>2022-06-19T17:50:02Z</time>
      </trkpt>
      <trkpt lat="42.220605000000155" lon="-1.6899250000000001">
        <ele>313.620</ele>
        <time>2022-06-19T17:50:03Z</time>
      </trkpt>
      <trkpt lat="42.220628000000154" lon="-1.6896430000000002">
        <ele>314.009</ele>
        <time>2022-06-19T17:50:07Z</time>
      </trkpt>
      <trkpt lat="42.22063200000015" lon="-1.6895030000000002">
        <ele>314.038</ele>
        <time>2022-06-19T17:50:09Z</time>
      </trkpt>
      <trkpt lat="42.22059600000015" lon="-1.6893030000000002">
        <ele>314.047</ele>
        <time>2022-06-19T17:50:12Z</time>
      </trkpt>
      <trkpt lat="42.22048800000015" lon="-1.6888130000000001">
        <ele>314.482</ele>
        <time>2022-06-19T17:50:19Z</time>
      </trkpt>
      <trkpt lat="42.22045700000015" lon="-1.6886880000000002">
        <ele>314.646</ele>
        <time>2022-06-19T17:50:21Z</time>
      </trkpt>
      <trkpt lat="42.22032600000015" lon="-1.688082">
        <ele>314.658</ele>
        <time>2022-06-19T17:50:30Z</time>
      </trkpt>
      <trkpt lat="42.22018600000015" lon="-1.687415">
        <ele>314.684</ele>
        <time>2022-06-19T17:50:40Z</time>
      </trkpt>
      <trkpt lat="42.21999200000015" lon="-1.6867">
        <ele>315.068</ele>
        <time>2022-06-19T17:50:51Z</time>
      </trkpt>
      <trkpt lat="42.219804000000146" lon="-1.686231">
        <ele>315.031</ele>
        <time>2022-06-19T17:50:59Z</time>
      </trkpt>
      <trkpt lat="42.21951800000014" lon="-1.68573">
        <ele>315.080</ele>
        <time>2022-06-19T17:51:08Z</time>
      </trkpt>
      <trkpt lat="42.21911100000014" lon="-1.685246">
        <ele>315.241</ele>
        <time>2022-06-19T17:51:19Z</time>
      </trkpt>
      <trkpt lat="42.21879200000014" lon="-1.684986">
        <ele>315.481</ele>
        <time>2022-06-19T17:51:27Z</time>
      </trkpt>
      <trkpt lat="42.218633000000146" lon="-1.684873">
        <ele>315.409</ele>
        <time>2022-06-19T17:51:31Z</time>
      </trkpt>
      <trkpt lat="42.21850600000015" lon="-1.684801">
        <ele>315.409</ele>
        <time>2022-06-19T17:51:34Z</time>
      </trkpt>
      <trkpt lat="42.218344000000144" lon="-1.68471">
        <ele>315.625</ele>
        <time>2022-06-19T17:51:38Z</time>
      </trkpt>
      <trkpt lat="42.21817300000014" lon="-1.6846349999999999">
        <ele>316.094</ele>
        <time>2022-06-19T17:51:42Z</time>
      </trkpt>
      <trkpt lat="42.217961000000145" lon="-1.684534">
        <ele>316.449</ele>
        <time>2022-06-19T17:51:47Z</time>
      </trkpt>
      <trkpt lat="42.217876000000146" lon="-1.684494">
        <ele>316.653</ele>
        <time>2022-06-19T17:51:49Z</time>
      </trkpt>
      <trkpt lat="42.217544000000146" lon="-1.684342">
        <ele>317.215</ele>
        <time>2022-06-19T17:51:57Z</time>
      </trkpt>
      <trkpt lat="42.21745900000015" lon="-1.684295">
        <ele>317.281</ele>
        <time>2022-06-19T17:51:59Z</time>
      </trkpt>
      <trkpt lat="42.217280000000144" lon="-1.684223">
        <ele>317.225</ele>
        <time>2022-06-19T17:52:03Z</time>
      </trkpt>
      <trkpt lat="42.21722700000014" lon="-1.684195">
        <ele>317.238</ele>
        <time>2022-06-19T17:52:04Z</time>
      </trkpt>
      <trkpt lat="42.216832000000146" lon="-1.6839950000000001">
        <ele>317.287</ele>
        <time>2022-06-19T17:52:13Z</time>
      </trkpt>
      <trkpt lat="42.21638100000015" lon="-1.6837820000000001">
        <ele>317.896</ele>
        <time>2022-06-19T17:52:23Z</time>
      </trkpt>
      <trkpt lat="42.21600000000015" lon="-1.6836000000000002">
        <ele>318.231</ele>
        <time>2022-06-19T17:52:31Z</time>
      </trkpt>
      <trkpt lat="42.21553000000015" lon="-1.6832780000000003">
        <ele>318.024</ele>
        <time>2022-06-19T17:52:41Z</time>
      </trkpt>
      <trkpt lat="42.21516500000015" lon="-1.6829140000000002">
        <ele>317.609</ele>
        <time>2022-06-19T17:52:49Z</time>
      </trkpt>
      <trkpt lat="42.21483900000015" lon="-1.6824560000000002">
        <ele>317.040</ele>
        <time>2022-06-19T17:52:57Z</time>
      </trkpt>
      <trkpt lat="42.21460500000015" lon="-1.681993">
        <ele>316.629</ele>
        <time>2022-06-19T17:53:04Z</time>
      </trkpt>
      <trkpt lat="42.21457400000015" lon="-1.681926">
        <ele>316.634</ele>
        <time>2022-06-19T17:53:05Z</time>
      </trkpt>
      <trkpt lat="42.21444400000015" lon="-1.681572">
        <ele>316.498</ele>
        <time>2022-06-19T17:53:10Z</time>
      </trkpt>
      <trkpt lat="42.21429800000015" lon="-1.68107">
        <ele>316.450</ele>
        <time>2022-06-19T17:53:17Z</time>
      </trkpt>
      <trkpt lat="42.21413400000015" lon="-1.68031">
        <ele>316.656</ele>
        <time>2022-06-19T17:53:27Z</time>
      </trkpt>
      <trkpt lat="42.21410700000015" lon="-1.680158">
        <ele>316.460</ele>
        <time>2022-06-19T17:53:29Z</time>
      </trkpt>
      <trkpt lat="42.213970000000145" lon="-1.679526">
        <ele>316.443</ele>
        <time>2022-06-19T17:53:38Z</time>
      </trkpt>
      <trkpt lat="42.213852000000145" lon="-1.678884">
        <ele>316.882</ele>
        <time>2022-06-19T17:53:48Z</time>
      </trkpt>
      <trkpt lat="42.21370700000014" lon="-1.6781760000000001">
        <ele>318.013</ele>
        <time>2022-06-19T17:53:59Z</time>
      </trkpt>
      <trkpt lat="42.21369400000014" lon="-1.6781130000000002">
        <ele>318.043</ele>
        <time>2022-06-19T17:54:00Z</time>
      </trkpt>
      <trkpt lat="42.21362800000014" lon="-1.6777920000000002">
        <ele>318.407</ele>
        <time>2022-06-19T17:54:05Z</time>
      </trkpt>
      <trkpt lat="42.21355200000014" lon="-1.6774120000000001">
        <ele>318.609</ele>
        <time>2022-06-19T17:54:11Z</time>
      </trkpt>
      <trkpt lat="42.21342000000014" lon="-1.6767660000000002">
        <ele>318.692</ele>
        <time>2022-06-19T17:54:21Z</time>
      </trkpt>
      <trkpt lat="42.21329100000014" lon="-1.6761700000000002">
        <ele>318.871</ele>
        <time>2022-06-19T17:54:30Z</time>
      </trkpt>
      <trkpt lat="42.21316100000014" lon="-1.675564">
        <ele>319.266</ele>
        <time>2022-06-19T17:54:39Z</time>
      </trkpt>
      <trkpt lat="42.21303000000014" lon="-1.6749610000000001">
        <ele>319.260</ele>
        <time>2022-06-19T17:54:48Z</time>
      </trkpt>
      <trkpt lat="42.212955000000136" lon="-1.674606">
        <ele>319.472</ele>
        <time>2022-06-19T17:54:53Z</time>
      </trkpt>
      <trkpt lat="42.21287500000014" lon="-1.6741920000000001">
        <ele>319.638</ele>
        <time>2022-06-19T17:54:59Z</time>
      </trkpt>
      <trkpt lat="42.21272200000014" lon="-1.673443">
        <ele>320.492</ele>
        <time>2022-06-19T17:55:10Z</time>
      </trkpt>
      <trkpt lat="42.21260100000014" lon="-1.67285">
        <ele>320.425</ele>
        <time>2022-06-19T17:55:19Z</time>
      </trkpt>
      <trkpt lat="42.21248200000014" lon="-1.672302">
        <ele>320.024</ele>
        <time>2022-06-19T17:55:27Z</time>
      </trkpt>
      <trkpt lat="42.212335000000145" lon="-1.6715879999999999">
        <ele>319.677</ele>
        <time>2022-06-19T17:55:37Z</time>
      </trkpt>
      <trkpt lat="42.212189000000144" lon="-1.6708699999999999">
        <ele>319.261</ele>
        <time>2022-06-19T17:55:47Z</time>
      </trkpt>
      <trkpt lat="42.212172000000145" lon="-1.6707859999999999">
        <ele>319.227</ele>
        <time>2022-06-19T17:55:48Z</time>
      </trkpt>
      <trkpt lat="42.212065000000145" lon="-1.6702329999999999">
        <ele>319.209</ele>
        <time>2022-06-19T17:55:56Z</time>
      </trkpt>
      <trkpt lat="42.212048000000145" lon="-1.670167">
        <ele>319.278</ele>
        <time>2022-06-19T17:55:57Z</time>
      </trkpt>
      <trkpt lat="42.21201900000015" lon="-1.670047">
        <ele>319.287</ele>
        <time>2022-06-19T17:55:59Z</time>
      </trkpt>
      <trkpt lat="42.21189700000015" lon="-1.66953">
        <ele>319.452</ele>
        <time>2022-06-19T17:56:06Z</time>
      </trkpt>
      <trkpt lat="42.21176900000015" lon="-1.668876">
        <ele>319.466</ele>
        <time>2022-06-19T17:56:15Z</time>
      </trkpt>
      <trkpt lat="42.211625000000154" lon="-1.6681730000000001">
        <ele>319.498</ele>
        <time>2022-06-19T17:56:25Z</time>
      </trkpt>
      <trkpt lat="42.211611000000154" lon="-1.6681050000000002">
        <ele>319.434</ele>
        <time>2022-06-19T17:56:26Z</time>
      </trkpt>
      <trkpt lat="42.211596000000156" lon="-1.6680380000000001">
        <ele>319.498</ele>
        <time>2022-06-19T17:56:27Z</time>
      </trkpt>
      <trkpt lat="42.211470000000155" lon="-1.6674550000000001">
        <ele>320.031</ele>
        <time>2022-06-19T17:56:36Z</time>
      </trkpt>
      <trkpt lat="42.21135300000015" lon="-1.666924">
        <ele>320.450</ele>
        <time>2022-06-19T17:56:44Z</time>
      </trkpt>
      <trkpt lat="42.211318000000155" lon="-1.666792">
        <ele>320.682</ele>
        <time>2022-06-19T17:56:46Z</time>
      </trkpt>
      <trkpt lat="42.211172000000154" lon="-1.666414">
        <ele>320.443</ele>
        <time>2022-06-19T17:56:52Z</time>
      </trkpt>
      <trkpt lat="42.210927000000154" lon="-1.665996">
        <ele>320.417</ele>
        <time>2022-06-19T17:56:59Z</time>
      </trkpt>
      <trkpt lat="42.210780000000156" lon="-1.6658">
        <ele>320.009</ele>
        <time>2022-06-19T17:57:02Z</time>
      </trkpt>
      <trkpt lat="42.21068000000015" lon="-1.6656959999999998">
        <ele>319.639</ele>
        <time>2022-06-19T17:57:04Z</time>
      </trkpt>
      <trkpt lat="42.21054800000015" lon="-1.6655689999999999">
        <ele>319.498</ele>
        <time>2022-06-19T17:57:06Z</time>
      </trkpt>
      <trkpt lat="42.210485000000155" lon="-1.6655069999999998">
        <ele>319.283</ele>
        <time>2022-06-19T17:57:07Z</time>
      </trkpt>
      <trkpt lat="42.21035700000016" lon="-1.6653569999999998">
        <ele>319.027</ele>
        <time>2022-06-19T17:57:09Z</time>
      </trkpt>
      <trkpt lat="42.210127000000156" lon="-1.6651379999999998">
        <ele>317.849</ele>
        <time>2022-06-19T17:57:12Z</time>
      </trkpt>
      <trkpt lat="42.21006200000016" lon="-1.6650839999999998">
        <ele>317.445</ele>
        <time>2022-06-19T17:57:13Z</time>
      </trkpt>
      <trkpt lat="42.209883000000154" lon="-1.6649399999999999">
        <ele>316.439</ele>
        <time>2022-06-19T17:57:15Z</time>
      </trkpt>
      <trkpt lat="42.209644000000154" lon="-1.6647889999999999">
        <ele>314.672</ele>
        <time>2022-06-19T17:57:18Z</time>
      </trkpt>
      <trkpt lat="42.209537000000154" lon="-1.6647389999999997">
        <ele>314.031</ele>
        <time>2022-06-19T17:57:19Z</time>
      </trkpt>
      <trkpt lat="42.20944800000015" lon="-1.6647049999999997">
        <ele>313.294</ele>
        <time>2022-06-19T17:57:20Z</time>
      </trkpt>
      <trkpt lat="42.20937900000015" lon="-1.6646829999999997">
        <ele>311.857</ele>
        <time>2022-06-19T17:57:21Z</time>
      </trkpt>
      <trkpt lat="42.20923000000015" lon="-1.6646409999999996">
        <ele>310.422</ele>
        <time>2022-06-19T17:57:23Z</time>
      </trkpt>
      <trkpt lat="42.20916700000015" lon="-1.6646199999999995">
        <ele>309.409</ele>
        <time>2022-06-19T17:57:24Z</time>
      </trkpt>
      <trkpt lat="42.20911400000015" lon="-1.6645929999999995">
        <ele>309.090</ele>
        <time>2022-06-19T17:57:25Z</time>
      </trkpt>
      <trkpt lat="42.20903500000015" lon="-1.6645359999999996">
        <ele>308.269</ele>
        <time>2022-06-19T17:57:27Z</time>
      </trkpt>
      <trkpt lat="42.20901500000015" lon="-1.6645139999999996">
        <ele>307.484</ele>
        <time>2022-06-19T17:57:28Z</time>
      </trkpt>
      <trkpt lat="42.20898000000015" lon="-1.6644169999999996">
        <ele>306.878</ele>
        <time>2022-06-19T17:57:31Z</time>
      </trkpt>
      <trkpt lat="42.20894900000015" lon="-1.6642559999999995">
        <ele>306.650</ele>
        <time>2022-06-19T17:57:34Z</time>
      </trkpt>
      <trkpt lat="42.20894100000015" lon="-1.6641869999999994">
        <ele>306.446</ele>
        <time>2022-06-19T17:57:35Z</time>
      </trkpt>
      <trkpt lat="42.20892500000015" lon="-1.6641169999999994">
        <ele>306.430</ele>
        <time>2022-06-19T17:57:36Z</time>
      </trkpt>
      <trkpt lat="42.20886900000015" lon="-1.6639939999999993">
        <ele>306.213</ele>
        <time>2022-06-19T17:57:38Z</time>
      </trkpt>
      <trkpt lat="42.20859200000015" lon="-1.6635899999999992">
        <ele>305.462</ele>
        <time>2022-06-19T17:57:44Z</time>
      </trkpt>
      <trkpt lat="42.20847900000015" lon="-1.6634499999999992">
        <ele>304.021</ele>
        <time>2022-06-19T17:57:46Z</time>
      </trkpt>
      <trkpt lat="42.20836500000015" lon="-1.6633039999999992">
        <ele>302.641</ele>
        <time>2022-06-19T17:57:48Z</time>
      </trkpt>
      <trkpt lat="42.20825700000015" lon="-1.6631499999999992">
        <ele>302.205</ele>
        <time>2022-06-19T17:57:50Z</time>
      </trkpt>
      <trkpt lat="42.20814000000015" lon="-1.6629799999999992">
        <ele>301.409</ele>
        <time>2022-06-19T17:57:52Z</time>
      </trkpt>
      <trkpt lat="42.20799700000015" lon="-1.6627599999999991">
        <ele>300.293</ele>
        <time>2022-06-19T17:57:55Z</time>
      </trkpt>
      <trkpt lat="42.20790900000015" lon="-1.6625869999999991">
        <ele>299.412</ele>
        <time>2022-06-19T17:57:57Z</time>
      </trkpt>
      <trkpt lat="42.20786300000015" lon="-1.6625049999999992">
        <ele>299.037</ele>
        <time>2022-06-19T17:57:58Z</time>
      </trkpt>
      <trkpt lat="42.207578000000154" lon="-1.6619299999999992">
        <ele>298.261</ele>
        <time>2022-06-19T17:58:05Z</time>
      </trkpt>
      <trkpt lat="42.20730900000015" lon="-1.6612879999999992">
        <ele>298.493</ele>
        <time>2022-06-19T17:58:13Z</time>
      </trkpt>
      <trkpt lat="42.20728200000015" lon="-1.6612079999999991">
        <ele>298.489</ele>
        <time>2022-06-19T17:58:14Z</time>
      </trkpt>
      <trkpt lat="42.20701800000015" lon="-1.660511999999999">
        <ele>298.653</ele>
        <time>2022-06-19T17:58:23Z</time>
      </trkpt>
      <trkpt lat="42.20696100000015" lon="-1.660361999999999">
        <ele>298.656</ele>
        <time>2022-06-19T17:58:25Z</time>
      </trkpt>
      <trkpt lat="42.20668600000015" lon="-1.659716999999999">
        <ele>298.645</ele>
        <time>2022-06-19T17:58:34Z</time>
      </trkpt>
      <trkpt lat="42.206650000000145" lon="-1.659650999999999">
        <ele>298.612</ele>
        <time>2022-06-19T17:58:35Z</time>
      </trkpt>
      <trkpt lat="42.20639200000014" lon="-1.659192999999999">
        <ele>298.032</ele>
        <time>2022-06-19T17:58:42Z</time>
      </trkpt>
      <trkpt lat="42.20629100000014" lon="-1.658998999999999">
        <ele>297.805</ele>
        <time>2022-06-19T17:58:45Z</time>
      </trkpt>
      <trkpt lat="42.20602200000014" lon="-1.658580999999999">
        <ele>297.809</ele>
        <time>2022-06-19T17:58:52Z</time>
      </trkpt>
      <trkpt lat="42.20570400000014" lon="-1.658196999999999">
        <ele>298.062</ele>
        <time>2022-06-19T17:59:00Z</time>
      </trkpt>
      <trkpt lat="42.20543400000014" lon="-1.657902999999999">
        <ele>298.041</ele>
        <time>2022-06-19T17:59:07Z</time>
      </trkpt>
      <trkpt lat="42.20536300000014" lon="-1.657833999999999">
        <ele>298.266</ele>
        <time>2022-06-19T17:59:11Z</time>
      </trkpt>
      <trkpt lat="42.20532600000014" lon="-1.6576679999999988">
        <ele>298.670</ele>
        <time>2022-06-19T17:59:16Z</time>
      </trkpt>
      <trkpt lat="42.205328000000144" lon="-1.6576109999999988">
        <ele>298.682</ele>
        <time>2022-06-19T17:59:17Z</time>
      </trkpt>
      <trkpt lat="42.20535700000014" lon="-1.6574959999999987">
        <ele>298.668</ele>
        <time>2022-06-19T17:59:19Z</time>
      </trkpt>
      <trkpt lat="42.205387000000144" lon="-1.6574469999999988">
        <ele>298.632</ele>
        <time>2022-06-19T17:59:20Z</time>
      </trkpt>
      <trkpt lat="42.20548600000014" lon="-1.6573069999999988">
        <ele>298.835</ele>
        <time>2022-06-19T17:59:23Z</time>
      </trkpt>
      <trkpt lat="42.205533000000145" lon="-1.6571949999999989">
        <ele>298.864</ele>
        <time>2022-06-19T17:59:25Z</time>
      </trkpt>
      <trkpt lat="42.20555900000014" lon="-1.6570139999999989">
        <ele>299.034</ele>
        <time>2022-06-19T17:59:28Z</time>
      </trkpt>
      <trkpt lat="42.205564000000145" lon="-1.6568899999999989">
        <ele>299.055</ele>
        <time>2022-06-19T17:59:30Z</time>
      </trkpt>
      <trkpt lat="42.20555900000014" lon="-1.6567709999999989">
        <ele>299.010</ele>
        <time>2022-06-19T17:59:32Z</time>
      </trkpt>
      <trkpt lat="42.20551800000014" lon="-1.656543999999999">
        <ele>299.409</ele>
        <time>2022-06-19T17:59:36Z</time>
      </trkpt>
      <trkpt lat="42.20546900000014" lon="-1.6563829999999988">
        <ele>300.044</ele>
        <time>2022-06-19T17:59:39Z</time>
      </trkpt>
      <trkpt lat="42.20538800000014" lon="-1.6561799999999989">
        <ele>300.483</ele>
        <time>2022-06-19T17:59:43Z</time>
      </trkpt>
      <trkpt lat="42.20533800000014" lon="-1.6560729999999988">
        <ele>300.838</ele>
        <time>2022-06-19T17:59:47Z</time>
      </trkpt>
      <trkpt lat="42.20533600000014" lon="-1.6560699999999988">
        <ele>301.042</ele>
        <time>2022-06-19T17:59:49Z</time>
      </trkpt>
      <trkpt lat="42.205317000000136" lon="-1.6560139999999988">
        <ele>302.244</ele>
        <time>2022-06-19T18:00:33Z</time>
      </trkpt>
      <trkpt lat="42.20525900000013" lon="-1.6558279999999987">
        <ele>302.020</ele>
        <time>2022-06-19T18:00:37Z</time>
      </trkpt>
      <trkpt lat="42.20511900000013" lon="-1.6553129999999987">
        <ele>301.254</ele>
        <time>2022-06-19T18:00:45Z</time>
      </trkpt>
      <trkpt lat="42.20510200000013" lon="-1.6552409999999986">
        <ele>301.077</ele>
        <time>2022-06-19T18:00:46Z</time>
      </trkpt>
      <trkpt lat="42.20501600000013" lon="-1.6548599999999987">
        <ele>300.656</ele>
        <time>2022-06-19T18:00:51Z</time>
      </trkpt>
      <trkpt lat="42.20490700000013" lon="-1.6543869999999987">
        <ele>300.024</ele>
        <time>2022-06-19T18:00:57Z</time>
      </trkpt>
      <trkpt lat="42.20487500000013" lon="-1.6542139999999987">
        <ele>299.404</ele>
        <time>2022-06-19T18:00:59Z</time>
      </trkpt>
      <trkpt lat="42.20470700000013" lon="-1.6535249999999988">
        <ele>299.014</ele>
        <time>2022-06-19T18:01:09Z</time>
      </trkpt>
      <trkpt lat="42.204612000000125" lon="-1.6530799999999988">
        <ele>299.809</ele>
        <time>2022-06-19T18:01:16Z</time>
      </trkpt>
      <trkpt lat="42.204477000000125" lon="-1.6524989999999988">
        <ele>300.643</ele>
        <time>2022-06-19T18:01:24Z</time>
      </trkpt>
      <trkpt lat="42.204333000000126" lon="-1.651860999999999">
        <ele>300.462</ele>
        <time>2022-06-19T18:01:32Z</time>
      </trkpt>
      <trkpt lat="42.204193000000124" lon="-1.6512649999999989">
        <ele>300.067</ele>
        <time>2022-06-19T18:01:40Z</time>
      </trkpt>
      <trkpt lat="42.20402500000012" lon="-1.650562999999999">
        <ele>299.861</ele>
        <time>2022-06-19T18:01:49Z</time>
      </trkpt>
      <trkpt lat="42.20387000000012" lon="-1.6498779999999988">
        <ele>299.633</ele>
        <time>2022-06-19T18:01:58Z</time>
      </trkpt>
      <trkpt lat="42.203737000000125" lon="-1.649290999999999">
        <ele>299.419</ele>
        <time>2022-06-19T18:02:06Z</time>
      </trkpt>
      <trkpt lat="42.20358000000012" lon="-1.6485819999999989">
        <ele>299.243</ele>
        <time>2022-06-19T18:02:15Z</time>
      </trkpt>
      <trkpt lat="42.203543000000124" lon="-1.6484239999999988">
        <ele>299.036</ele>
        <time>2022-06-19T18:02:17Z</time>
      </trkpt>
      <trkpt lat="42.20350700000012" lon="-1.6482679999999987">
        <ele>298.845</ele>
        <time>2022-06-19T18:02:19Z</time>
      </trkpt>
      <trkpt lat="42.20334200000012" lon="-1.6475369999999987">
        <ele>298.052</ele>
        <time>2022-06-19T18:02:28Z</time>
      </trkpt>
      <trkpt lat="42.20325900000012" lon="-1.6472399999999987">
        <ele>297.853</ele>
        <time>2022-06-19T18:02:32Z</time>
      </trkpt>
      <trkpt lat="42.20315600000012" lon="-1.6469579999999988">
        <ele>297.608</ele>
        <time>2022-06-19T18:02:36Z</time>
      </trkpt>
      <trkpt lat="42.202969000000124" lon="-1.6464369999999988">
        <ele>297.609</ele>
        <time>2022-06-19T18:02:44Z</time>
      </trkpt>
      <trkpt lat="42.20278700000012" lon="-1.6459699999999988">
        <ele>298.836</ele>
        <time>2022-06-19T18:02:51Z</time>
      </trkpt>
      <trkpt lat="42.20271900000012" lon="-1.6457759999999988">
        <ele>299.475</ele>
        <time>2022-06-19T18:02:54Z</time>
      </trkpt>
      <trkpt lat="42.20261200000012" lon="-1.6454829999999987">
        <ele>299.830</ele>
        <time>2022-06-19T18:02:59Z</time>
      </trkpt>
      <trkpt lat="42.202561000000124" lon="-1.6453749999999987">
        <ele>300.044</ele>
        <time>2022-06-19T18:03:02Z</time>
      </trkpt>
      <trkpt lat="42.20255600000012" lon="-1.6453659999999988">
        <ele>300.016</ele>
        <time>2022-06-19T18:03:03Z</time>
      </trkpt>
      <trkpt lat="42.20255600000012" lon="-1.6453659999999988">
        <ele>300.092</ele>
        <time>2022-06-19T18:03:05Z</time>
      </trkpt>
      <trkpt lat="42.202544000000124" lon="-1.6453399999999987">
        <ele>301.276</ele>
        <time>2022-06-19T18:03:53Z</time>
      </trkpt>
      <trkpt lat="42.20252000000012" lon="-1.6452879999999988">
        <ele>301.289</ele>
        <time>2022-06-19T18:03:55Z</time>
      </trkpt>
      <trkpt lat="42.20250000000012" lon="-1.6452509999999987">
        <ele>301.268</ele>
        <time>2022-06-19T18:03:56Z</time>
      </trkpt>
      <trkpt lat="42.202423000000124" lon="-1.6449789999999986">
        <ele>301.215</ele>
        <time>2022-06-19T18:04:01Z</time>
      </trkpt>
      <trkpt lat="42.202262000000125" lon="-1.6445469999999986">
        <ele>300.665</ele>
        <time>2022-06-19T18:04:08Z</time>
      </trkpt>
      <trkpt lat="42.202178000000124" lon="-1.6442739999999987">
        <ele>300.211</ele>
        <time>2022-06-19T18:04:12Z</time>
      </trkpt>
      <trkpt lat="42.202054000000125" lon="-1.6439199999999987">
        <ele>300.009</ele>
        <time>2022-06-19T18:04:17Z</time>
      </trkpt>
      <trkpt lat="42.20180400000012" lon="-1.6432419999999988">
        <ele>299.282</ele>
        <time>2022-06-19T18:04:26Z</time>
      </trkpt>
      <trkpt lat="42.20177600000012" lon="-1.6431639999999987">
        <ele>299.021</ele>
        <time>2022-06-19T18:04:27Z</time>
      </trkpt>
      <trkpt lat="42.20155800000013" lon="-1.6425569999999987">
        <ele>298.456</ele>
        <time>2022-06-19T18:04:35Z</time>
      </trkpt>
      <trkpt lat="42.201297000000125" lon="-1.6418409999999988">
        <ele>298.470</ele>
        <time>2022-06-19T18:04:45Z</time>
      </trkpt>
      <trkpt lat="42.20127500000012" lon="-1.6417709999999988">
        <ele>298.432</ele>
        <time>2022-06-19T18:04:46Z</time>
      </trkpt>
      <trkpt lat="42.201029000000126" lon="-1.6411229999999988">
        <ele>298.668</ele>
        <time>2022-06-19T18:04:55Z</time>
      </trkpt>
      <trkpt lat="42.200999000000124" lon="-1.6410499999999988">
        <ele>298.632</ele>
        <time>2022-06-19T18:04:56Z</time>
      </trkpt>
      <trkpt lat="42.20076600000012" lon="-1.6405699999999988">
        <ele>298.075</ele>
        <time>2022-06-19T18:05:03Z</time>
      </trkpt>
      <trkpt lat="42.200726000000124" lon="-1.6405099999999988">
        <ele>298.084</ele>
        <time>2022-06-19T18:05:04Z</time>
      </trkpt>
      <trkpt lat="42.20036700000012" lon="-1.6400639999999989">
        <ele>298.223</ele>
        <time>2022-06-19T18:05:12Z</time>
      </trkpt>
      <trkpt lat="42.199969000000124" lon="-1.639563999999999">
        <ele>298.683</ele>
        <time>2022-06-19T18:05:21Z</time>
      </trkpt>
      <trkpt lat="42.19983700000012" lon="-1.6394059999999988">
        <ele>298.211</ele>
        <time>2022-06-19T18:05:24Z</time>
      </trkpt>
      <trkpt lat="42.19943200000012" lon="-1.6389039999999988">
        <ele>298.009</ele>
        <time>2022-06-19T18:05:34Z</time>
      </trkpt>
      <trkpt lat="42.19904400000012" lon="-1.638435999999999">
        <ele>298.813</ele>
        <time>2022-06-19T18:05:44Z</time>
      </trkpt>
      <trkpt lat="42.19900700000012" lon="-1.638389999999999">
        <ele>299.012</ele>
        <time>2022-06-19T18:05:45Z</time>
      </trkpt>
      <trkpt lat="42.198651000000126" lon="-1.6379699999999988">
        <ele>299.667</ele>
        <time>2022-06-19T18:05:54Z</time>
      </trkpt>
      <trkpt lat="42.198331000000124" lon="-1.6375789999999988">
        <ele>299.891</ele>
        <time>2022-06-19T18:06:02Z</time>
      </trkpt>
      <trkpt lat="42.19789900000012" lon="-1.6370489999999989">
        <ele>299.283</ele>
        <time>2022-06-19T18:06:12Z</time>
      </trkpt>
      <trkpt lat="42.19750000000012" lon="-1.6365259999999988">
        <ele>298.289</ele>
        <time>2022-06-19T18:06:22Z</time>
      </trkpt>
      <trkpt lat="42.19728400000012" lon="-1.6361519999999987">
        <ele>298.243</ele>
        <time>2022-06-19T18:06:28Z</time>
      </trkpt>
      <trkpt lat="42.197018000000114" lon="-1.6356869999999988">
        <ele>298.426</ele>
        <time>2022-06-19T18:06:36Z</time>
      </trkpt>
      <trkpt lat="42.196781000000115" lon="-1.6353449999999987">
        <ele>298.625</ele>
        <time>2022-06-19T18:06:43Z</time>
      </trkpt>
      <trkpt lat="42.19645000000011" lon="-1.6350389999999988">
        <ele>298.612</ele>
        <time>2022-06-19T18:06:50Z</time>
      </trkpt>
      <trkpt lat="42.19598600000011" lon="-1.6346479999999988">
        <ele>297.832</ele>
        <time>2022-06-19T18:06:59Z</time>
      </trkpt>
      <trkpt lat="42.19556700000011" lon="-1.6344379999999987">
        <ele>296.805</ele>
        <time>2022-06-19T18:07:06Z</time>
      </trkpt>
      <trkpt lat="42.19515800000011" lon="-1.6342239999999988">
        <ele>296.409</ele>
        <time>2022-06-19T18:07:13Z</time>
      </trkpt>
      <trkpt lat="42.19505800000011" lon="-1.634138999999999">
        <ele>296.412</ele>
        <time>2022-06-19T18:07:15Z</time>
      </trkpt>
      <trkpt lat="42.19474300000011" lon="-1.6338179999999989">
        <ele>296.291</ele>
        <time>2022-06-19T18:07:22Z</time>
      </trkpt>
      <trkpt lat="42.19446300000011" lon="-1.633468999999999">
        <ele>296.226</ele>
        <time>2022-06-19T18:07:29Z</time>
      </trkpt>
      <trkpt lat="42.19439000000011" lon="-1.633371999999999">
        <ele>296.240</ele>
        <time>2022-06-19T18:07:31Z</time>
      </trkpt>
      <trkpt lat="42.19429500000011" lon="-1.633211999999999">
        <ele>296.422</ele>
        <time>2022-06-19T18:07:34Z</time>
      </trkpt>
      <trkpt lat="42.19407300000011" lon="-1.632847999999999">
        <ele>296.638</ele>
        <time>2022-06-19T18:07:41Z</time>
      </trkpt>
      <trkpt lat="42.19372500000011" lon="-1.632270999999999">
        <ele>296.852</ele>
        <time>2022-06-19T18:07:52Z</time>
      </trkpt>
      <trkpt lat="42.193692000000105" lon="-1.632215999999999">
        <ele>296.845</ele>
        <time>2022-06-19T18:07:53Z</time>
      </trkpt>
      <trkpt lat="42.193394000000104" lon="-1.631782999999999">
        <ele>297.264</ele>
        <time>2022-06-19T18:08:02Z</time>
      </trkpt>
      <trkpt lat="42.19323500000011" lon="-1.631551999999999">
        <ele>297.478</ele>
        <time>2022-06-19T18:08:07Z</time>
      </trkpt>
      <trkpt lat="42.193149000000105" lon="-1.631426999999999">
        <ele>297.633</ele>
        <time>2022-06-19T18:08:10Z</time>
      </trkpt>
      <trkpt lat="42.193081000000106" lon="-1.631321999999999">
        <ele>297.826</ele>
        <time>2022-06-19T18:08:12Z</time>
      </trkpt>
      <trkpt lat="42.19304700000011" lon="-1.631276999999999">
        <ele>297.809</ele>
        <time>2022-06-19T18:08:13Z</time>
      </trkpt>
      <trkpt lat="42.192989000000104" lon="-1.631198999999999">
        <ele>298.468</ele>
        <time>2022-06-19T18:08:15Z</time>
      </trkpt>
      <trkpt lat="42.192724000000105" lon="-1.630815999999999">
        <ele>298.817</ele>
        <time>2022-06-19T18:08:23Z</time>
      </trkpt>
      <trkpt lat="42.19256500000011" lon="-1.6305579999999988">
        <ele>299.082</ele>
        <time>2022-06-19T18:08:28Z</time>
      </trkpt>
      <trkpt lat="42.19241900000011" lon="-1.630340999999999">
        <ele>299.056</ele>
        <time>2022-06-19T18:08:32Z</time>
      </trkpt>
      <trkpt lat="42.192026000000105" lon="-1.629780999999999">
        <ele>298.678</ele>
        <time>2022-06-19T18:08:42Z</time>
      </trkpt>
      <trkpt lat="42.1916950000001" lon="-1.6293049999999991">
        <ele>298.424</ele>
        <time>2022-06-19T18:08:50Z</time>
      </trkpt>
      <trkpt lat="42.191317000000105" lon="-1.6287699999999992">
        <ele>298.088</ele>
        <time>2022-06-19T18:09:00Z</time>
      </trkpt>
      <trkpt lat="42.1909800000001" lon="-1.6282729999999992">
        <ele>298.271</ele>
        <time>2022-06-19T18:09:10Z</time>
      </trkpt>
      <trkpt lat="42.1906320000001" lon="-1.6277809999999993">
        <ele>298.840</ele>
        <time>2022-06-19T18:09:20Z</time>
      </trkpt>
      <trkpt lat="42.1903950000001" lon="-1.6273689999999992">
        <ele>299.242</ele>
        <time>2022-06-19T18:09:28Z</time>
      </trkpt>
      <trkpt lat="42.1901090000001" lon="-1.6267369999999992">
        <ele>300.022</ele>
        <time>2022-06-19T18:09:39Z</time>
      </trkpt>
      <trkpt lat="42.190085000000096" lon="-1.6266759999999991">
        <ele>300.014</ele>
        <time>2022-06-19T18:09:40Z</time>
      </trkpt>
      <trkpt lat="42.18986400000009" lon="-1.6261299999999992">
        <ele>299.809</ele>
        <time>2022-06-19T18:09:48Z</time>
      </trkpt>
      <trkpt lat="42.189835000000095" lon="-1.6260539999999992">
        <ele>299.885</ele>
        <time>2022-06-19T18:09:49Z</time>
      </trkpt>
      <trkpt lat="42.18958300000009" lon="-1.6254399999999993">
        <ele>298.824</ele>
        <time>2022-06-19T18:09:57Z</time>
      </trkpt>
      <trkpt lat="42.18931600000009" lon="-1.6247699999999994">
        <ele>298.299</ele>
        <time>2022-06-19T18:10:05Z</time>
      </trkpt>
      <trkpt lat="42.18912500000009" lon="-1.6243039999999993">
        <ele>297.813</ele>
        <time>2022-06-19T18:10:11Z</time>
      </trkpt>
      <trkpt lat="42.18900000000009" lon="-1.6240049999999993">
        <ele>297.645</ele>
        <time>2022-06-19T18:10:15Z</time>
      </trkpt>
      <trkpt lat="42.188718000000094" lon="-1.6233089999999992">
        <ele>297.281</ele>
        <time>2022-06-19T18:10:25Z</time>
      </trkpt>
      <trkpt lat="42.1884270000001" lon="-1.6226079999999992">
        <ele>297.285</ele>
        <time>2022-06-19T18:10:35Z</time>
      </trkpt>
      <trkpt lat="42.1883930000001" lon="-1.6225239999999992">
        <ele>297.458</ele>
        <time>2022-06-19T18:10:36Z</time>
      </trkpt>
      <trkpt lat="42.1881760000001" lon="-1.6219829999999993">
        <ele>297.477</ele>
        <time>2022-06-19T18:10:44Z</time>
      </trkpt>
      <trkpt lat="42.187935000000095" lon="-1.6213909999999994">
        <ele>297.424</ele>
        <time>2022-06-19T18:10:52Z</time>
      </trkpt>
      <trkpt lat="42.187693000000095" lon="-1.6208169999999993">
        <ele>298.604</ele>
        <time>2022-06-19T18:11:00Z</time>
      </trkpt>
      <trkpt lat="42.187631000000096" lon="-1.6206539999999994">
        <ele>298.814</ele>
        <time>2022-06-19T18:11:02Z</time>
      </trkpt>
      <trkpt lat="42.1874840000001" lon="-1.6202969999999994">
        <ele>298.809</ele>
        <time>2022-06-19T18:11:07Z</time>
      </trkpt>
      <trkpt lat="42.1872980000001" lon="-1.6198269999999995">
        <ele>298.643</ele>
        <time>2022-06-19T18:11:14Z</time>
      </trkpt>
      <trkpt lat="42.1870780000001" lon="-1.6192829999999994">
        <ele>299.022</ele>
        <time>2022-06-19T18:11:22Z</time>
      </trkpt>
      <trkpt lat="42.1868340000001" lon="-1.6186789999999993">
        <ele>299.237</ele>
        <time>2022-06-19T18:11:30Z</time>
      </trkpt>
      <trkpt lat="42.186548000000094" lon="-1.6179979999999994">
        <ele>299.241</ele>
        <time>2022-06-19T18:11:39Z</time>
      </trkpt>
      <trkpt lat="42.1862570000001" lon="-1.6173139999999995">
        <ele>298.013</ele>
        <time>2022-06-19T18:11:48Z</time>
      </trkpt>
      <trkpt lat="42.186128000000096" lon="-1.6170109999999995">
        <ele>298.059</ele>
        <time>2022-06-19T18:11:52Z</time>
      </trkpt>
      <trkpt lat="42.185914000000096" lon="-1.6165039999999995">
        <ele>297.893</ele>
        <time>2022-06-19T18:11:58Z</time>
      </trkpt>
      <trkpt lat="42.185878000000095" lon="-1.6164179999999995">
        <ele>297.656</ele>
        <time>2022-06-19T18:11:59Z</time>
      </trkpt>
      <trkpt lat="42.18569300000009" lon="-1.6159819999999994">
        <ele>296.425</ele>
        <time>2022-06-19T18:12:04Z</time>
      </trkpt>
      <trkpt lat="42.185552000000094" lon="-1.6156289999999993">
        <ele>295.648</ele>
        <time>2022-06-19T18:12:08Z</time>
      </trkpt>
      <trkpt lat="42.185444000000096" lon="-1.6153669999999993">
        <ele>295.261</ele>
        <time>2022-06-19T18:12:11Z</time>
      </trkpt>
      <trkpt lat="42.185155000000094" lon="-1.6146739999999993">
        <ele>294.417</ele>
        <time>2022-06-19T18:12:19Z</time>
      </trkpt>
      <trkpt lat="42.185129000000096" lon="-1.6146109999999994">
        <ele>294.209</ele>
        <time>2022-06-19T18:12:20Z</time>
      </trkpt>
      <trkpt lat="42.185095000000096" lon="-1.6145289999999994">
        <ele>294.295</ele>
        <time>2022-06-19T18:12:21Z</time>
      </trkpt>
      <trkpt lat="42.1849250000001" lon="-1.6141219999999994">
        <ele>294.074</ele>
        <time>2022-06-19T18:12:26Z</time>
      </trkpt>
      <trkpt lat="42.1848790000001" lon="-1.6140559999999995">
        <ele>294.069</ele>
        <time>2022-06-19T18:12:27Z</time>
      </trkpt>
      <trkpt lat="42.184827000000105" lon="-1.6140009999999996">
        <ele>294.023</ele>
        <time>2022-06-19T18:12:28Z</time>
      </trkpt>
      <trkpt lat="42.184650000000104" lon="-1.6138539999999997">
        <ele>293.635</ele>
        <time>2022-06-19T18:12:31Z</time>
      </trkpt>
      <trkpt lat="42.184565000000106" lon="-1.6137219999999997">
        <ele>293.041</ele>
        <time>2022-06-19T18:12:33Z</time>
      </trkpt>
      <trkpt lat="42.18454400000011" lon="-1.6136349999999997">
        <ele>293.085</ele>
        <time>2022-06-19T18:12:34Z</time>
      </trkpt>
      <trkpt lat="42.18453200000011" lon="-1.6135449999999998">
        <ele>292.868</ele>
        <time>2022-06-19T18:12:35Z</time>
      </trkpt>
      <trkpt lat="42.18449000000011" lon="-1.613182">
        <ele>292.437</ele>
        <time>2022-06-19T18:12:39Z</time>
      </trkpt>
      <trkpt lat="42.184424000000114" lon="-1.61292">
        <ele>292.277</ele>
        <time>2022-06-19T18:12:42Z</time>
      </trkpt>
      <trkpt lat="42.184361000000116" lon="-1.612763">
        <ele>292.061</ele>
        <time>2022-06-19T18:12:44Z</time>
      </trkpt>
      <trkpt lat="42.18407300000012" lon="-1.612063">
        <ele>291.427</ele>
        <time>2022-06-19T18:12:53Z</time>
      </trkpt>
      <trkpt lat="42.18379400000012" lon="-1.611416">
        <ele>291.209</ele>
        <time>2022-06-19T18:13:02Z</time>
      </trkpt>
      <trkpt lat="42.18376200000012" lon="-1.611341">
        <ele>291.218</ele>
        <time>2022-06-19T18:13:03Z</time>
      </trkpt>
      <trkpt lat="42.18348400000012" lon="-1.610669">
        <ele>290.837</ele>
        <time>2022-06-19T18:13:12Z</time>
      </trkpt>
      <trkpt lat="42.18345300000012" lon="-1.610595">
        <ele>290.872</ele>
        <time>2022-06-19T18:13:13Z</time>
      </trkpt>
      <trkpt lat="42.18338900000012" lon="-1.610445">
        <ele>290.826</ele>
        <time>2022-06-19T18:13:15Z</time>
      </trkpt>
      <trkpt lat="42.18311000000012" lon="-1.60977">
        <ele>290.858</ele>
        <time>2022-06-19T18:13:24Z</time>
      </trkpt>
      <trkpt lat="42.18289200000012" lon="-1.609243">
        <ele>290.864</ele>
        <time>2022-06-19T18:13:31Z</time>
      </trkpt>
      <trkpt lat="42.18260800000012" lon="-1.608562">
        <ele>290.868</ele>
        <time>2022-06-19T18:13:40Z</time>
      </trkpt>
      <trkpt lat="42.18254600000012" lon="-1.6084150000000002">
        <ele>290.841</ele>
        <time>2022-06-19T18:13:42Z</time>
      </trkpt>
      <trkpt lat="42.18227700000012" lon="-1.607763">
        <ele>290.840</ele>
        <time>2022-06-19T18:13:51Z</time>
      </trkpt>
      <trkpt lat="42.18224500000012" lon="-1.6076920000000001">
        <ele>290.818</ele>
        <time>2022-06-19T18:13:52Z</time>
      </trkpt>
      <trkpt lat="42.18206200000012" lon="-1.6072460000000002">
        <ele>291.298</ele>
        <time>2022-06-19T18:13:58Z</time>
      </trkpt>
      <trkpt lat="42.18188300000012" lon="-1.606807">
        <ele>291.617</ele>
        <time>2022-06-19T18:14:04Z</time>
      </trkpt>
      <trkpt lat="42.18159500000012" lon="-1.606146">
        <ele>291.609</ele>
        <time>2022-06-19T18:14:13Z</time>
      </trkpt>
      <trkpt lat="42.181563000000125" lon="-1.606073">
        <ele>291.632</ele>
        <time>2022-06-19T18:14:14Z</time>
      </trkpt>
      <trkpt lat="42.18129700000012" lon="-1.6054270000000002">
        <ele>291.631</ele>
        <time>2022-06-19T18:14:23Z</time>
      </trkpt>
      <trkpt lat="42.18120900000012" lon="-1.6052190000000002">
        <ele>291.636</ele>
        <time>2022-06-19T18:14:26Z</time>
      </trkpt>
      <trkpt lat="42.180927000000125" lon="-1.6045250000000002">
        <ele>291.650</ele>
        <time>2022-06-19T18:14:36Z</time>
      </trkpt>
      <trkpt lat="42.180696000000125" lon="-1.603973">
        <ele>291.482</ele>
        <time>2022-06-19T18:14:44Z</time>
      </trkpt>
      <trkpt lat="42.18044500000013" lon="-1.603394">
        <ele>291.628</ele>
        <time>2022-06-19T18:14:53Z</time>
      </trkpt>
      <trkpt lat="42.18036200000013" lon="-1.6032009999999999">
        <ele>291.852</ele>
        <time>2022-06-19T18:14:56Z</time>
      </trkpt>
      <trkpt lat="42.18022900000013" lon="-1.602885">
        <ele>292.035</ele>
        <time>2022-06-19T18:15:01Z</time>
      </trkpt>
      <trkpt lat="42.180118000000135" lon="-1.602647">
        <ele>292.824</ele>
        <time>2022-06-19T18:15:05Z</time>
      </trkpt>
      <trkpt lat="42.179961000000134" lon="-1.602366">
        <ele>293.066</ele>
        <time>2022-06-19T18:15:10Z</time>
      </trkpt>
      <trkpt lat="42.17980700000013" lon="-1.60215">
        <ele>293.429</ele>
        <time>2022-06-19T18:15:14Z</time>
      </trkpt>
      <trkpt lat="42.179727000000135" lon="-1.6020699999999999">
        <ele>293.421</ele>
        <time>2022-06-19T18:15:16Z</time>
      </trkpt>
      <trkpt lat="42.17933100000013" lon="-1.6017389999999998">
        <ele>293.609</ele>
        <time>2022-06-19T18:15:24Z</time>
      </trkpt>
      <trkpt lat="42.178891000000135" lon="-1.6015079999999997">
        <ele>293.477</ele>
        <time>2022-06-19T18:15:32Z</time>
      </trkpt>
      <trkpt lat="42.178342000000136" lon="-1.6012209999999998">
        <ele>293.056</ele>
        <time>2022-06-19T18:15:42Z</time>
      </trkpt>
      <trkpt lat="42.17783100000013" lon="-1.6009499999999999">
        <ele>292.651</ele>
        <time>2022-06-19T18:15:51Z</time>
      </trkpt>
      <trkpt lat="42.17729200000013" lon="-1.60066">
        <ele>292.275</ele>
        <time>2022-06-19T18:16:01Z</time>
      </trkpt>
      <trkpt lat="42.17696600000013" lon="-1.600493">
        <ele>292.417</ele>
        <time>2022-06-19T18:16:08Z</time>
      </trkpt>
      <trkpt lat="42.17693800000013" lon="-1.6004699999999998">
        <ele>292.453</ele>
        <time>2022-06-19T18:16:09Z</time>
      </trkpt>
      <trkpt lat="42.17692000000013" lon="-1.6004059999999998">
        <ele>292.677</ele>
        <time>2022-06-19T18:16:11Z</time>
      </trkpt>
      <trkpt lat="42.17695100000013" lon="-1.6001719999999997">
        <ele>293.050</ele>
        <time>2022-06-19T18:16:16Z</time>
      </trkpt>
      <trkpt lat="42.17696000000013" lon="-1.5998829999999997">
        <ele>293.669</ele>
        <time>2022-06-19T18:16:21Z</time>
      </trkpt>
      <trkpt lat="42.17695500000013" lon="-1.5996499999999998">
        <ele>293.883</ele>
        <time>2022-06-19T18:16:25Z</time>
      </trkpt>
      <trkpt lat="42.176970000000125" lon="-1.599495">
        <ele>294.025</ele>
        <time>2022-06-19T18:16:28Z</time>
      </trkpt>
      <trkpt lat="42.177066000000124" lon="-1.5991719999999998">
        <ele>294.017</ele>
        <time>2022-06-19T18:16:35Z</time>
      </trkpt>
      <trkpt lat="42.177100000000124" lon="-1.599025">
        <ele>294.009</ele>
        <time>2022-06-19T18:16:40Z</time>
      </trkpt>
      <trkpt lat="42.17710100000012" lon="-1.599024">
        <ele>294.289</ele>
        <time>2022-06-19T18:16:42Z</time>
      </trkpt>
      <trkpt lat="42.17701600000012" lon="-1.59893">
        <ele>295.028</ele>
        <time>2022-06-19T18:16:48Z</time>
      </trkpt>
      <trkpt lat="42.176984000000125" lon="-1.5989039999999999">
        <ele>295.063</ele>
        <time>2022-06-19T18:16:49Z</time>
      </trkpt>
      <trkpt lat="42.176739000000126" lon="-1.5986829999999999">
        <ele>295.047</ele>
        <time>2022-06-19T18:16:56Z</time>
      </trkpt>
      <trkpt lat="42.17653200000012" lon="-1.5983629999999998">
        <ele>295.059</ele>
        <time>2022-06-19T18:17:04Z</time>
      </trkpt>
      <trkpt lat="42.176410000000125" lon="-1.5980029999999998">
        <ele>295.075</ele>
        <time>2022-06-19T18:17:11Z</time>
      </trkpt>
      <trkpt lat="42.176410000000125" lon="-1.5978539999999999">
        <ele>295.289</ele>
        <time>2022-06-19T18:17:15Z</time>
      </trkpt>
      <trkpt lat="42.176416000000124" lon="-1.5978279999999998">
        <ele>295.212</ele>
        <time>2022-06-19T18:17:16Z</time>
      </trkpt>
      <trkpt lat="42.17641400000012" lon="-1.5977309999999998">
        <ele>295.431</ele>
        <time>2022-06-19T18:17:20Z</time>
      </trkpt>
      <trkpt lat="42.176402000000124" lon="-1.5976559999999997">
        <ele>295.863</ele>
        <time>2022-06-19T18:17:26Z</time>
      </trkpt>
      <trkpt lat="42.176402000000124" lon="-1.5976559999999997">
        <ele>295.844</ele>
        <time>2022-06-19T18:17:27Z</time>
      </trkpt>
      <trkpt lat="42.17637000000013" lon="-1.5975919999999997">
        <ele>293.018</ele>
        <time>2022-06-19T18:39:13Z</time>
      </trkpt>
      <trkpt lat="42.17635200000013" lon="-1.5975499999999996">
        <ele>293.209</ele>
        <time>2022-06-19T18:39:15Z</time>
      </trkpt>
      <trkpt lat="42.17634800000013" lon="-1.5975049999999995">
        <ele>293.097</ele>
        <time>2022-06-19T18:39:18Z</time>
      </trkpt>
      <trkpt lat="42.176389000000135" lon="-1.5972779999999995">
        <ele>293.086</ele>
        <time>2022-06-19T18:39:24Z</time>
      </trkpt>
      <trkpt lat="42.176485000000135" lon="-1.5970939999999996">
        <ele>293.421</ele>
        <time>2022-06-19T18:39:30Z</time>
      </trkpt>
      <trkpt lat="42.176491000000134" lon="-1.5970689999999996">
        <ele>293.455</ele>
        <time>2022-06-19T18:39:31Z</time>
      </trkpt>
      <trkpt lat="42.176473000000136" lon="-1.5970059999999997">
        <ele>293.637</ele>
        <time>2022-06-19T18:39:33Z</time>
      </trkpt>
      <trkpt lat="42.17639000000014" lon="-1.5968829999999996">
        <ele>294.063</ele>
        <time>2022-06-19T18:39:38Z</time>
      </trkpt>
      <trkpt lat="42.17626000000014" lon="-1.5967619999999996">
        <ele>294.087</ele>
        <time>2022-06-19T18:39:43Z</time>
      </trkpt>
      <trkpt lat="42.17610800000014" lon="-1.5965859999999996">
        <ele>294.030</ele>
        <time>2022-06-19T18:39:49Z</time>
      </trkpt>
      <trkpt lat="42.17596100000014" lon="-1.5965219999999996">
        <ele>294.069</ele>
        <time>2022-06-19T18:39:53Z</time>
      </trkpt>
      <trkpt lat="42.175789000000144" lon="-1.5965699999999996">
        <ele>293.446</ele>
        <time>2022-06-19T18:39:59Z</time>
      </trkpt>
      <trkpt lat="42.175766000000145" lon="-1.5965759999999996">
        <ele>292.888</ele>
        <time>2022-06-19T18:40:03Z</time>
      </trkpt>
      <trkpt lat="42.175766000000145" lon="-1.5965759999999996">
        <ele>292.816</ele>
        <time>2022-06-19T18:40:04Z</time>
      </trkpt>
      <trkpt lat="42.175766000000145" lon="-1.5965759999999996">
        <ele>292.809</ele>
        <time>2022-06-19T18:40:05Z</time>
      </trkpt>
      <trkpt lat="42.17572600000015" lon="-1.5965519999999995">
        <ele>292.825</ele>
        <time>2022-06-19T18:40:12Z</time>
      </trkpt>
      <trkpt lat="42.175696000000144" lon="-1.5965159999999996">
        <ele>292.874</ele>
        <time>2022-06-19T18:40:14Z</time>
      </trkpt>
      <trkpt lat="42.17567800000015" lon="-1.5964979999999995">
        <ele>292.829</ele>
        <time>2022-06-19T18:40:15Z</time>
      </trkpt>
      <trkpt lat="42.17563500000015" lon="-1.5964009999999995">
        <ele>292.823</ele>
        <time>2022-06-19T18:40:18Z</time>
      </trkpt>
      <trkpt lat="42.17559200000015" lon="-1.5963319999999994">
        <ele>292.855</ele>
        <time>2022-06-19T18:40:20Z</time>
      </trkpt>
      <trkpt lat="42.17556700000015" lon="-1.5963079999999994">
        <ele>292.841</ele>
        <time>2022-06-19T18:40:21Z</time>
      </trkpt>
      <trkpt lat="42.17542200000015" lon="-1.5960699999999994">
        <ele>292.255</ele>
        <time>2022-06-19T18:40:27Z</time>
      </trkpt>
      <trkpt lat="42.17533200000015" lon="-1.5959519999999994">
        <ele>292.038</ele>
        <time>2022-06-19T18:40:30Z</time>
      </trkpt>
      <trkpt lat="42.175296000000145" lon="-1.5959209999999995">
        <ele>292.027</ele>
        <time>2022-06-19T18:40:31Z</time>
      </trkpt>
      <trkpt lat="42.175237000000145" lon="-1.5958829999999995">
        <ele>292.055</ele>
        <time>2022-06-19T18:40:33Z</time>
      </trkpt>
      <trkpt lat="42.17497700000015" lon="-1.5956979999999994">
        <ele>291.807</ele>
        <time>2022-06-19T18:40:40Z</time>
      </trkpt>
      <trkpt lat="42.17489700000015" lon="-1.5956669999999995">
        <ele>291.817</ele>
        <time>2022-06-19T18:40:42Z</time>
      </trkpt>
      <trkpt lat="42.17470200000015" lon="-1.5955939999999995">
        <ele>291.809</ele>
        <time>2022-06-19T18:40:47Z</time>
      </trkpt>
      <trkpt lat="42.17445000000015" lon="-1.5955259999999996">
        <ele>291.656</ele>
        <time>2022-06-19T18:40:54Z</time>
      </trkpt>
      <trkpt lat="42.174032000000146" lon="-1.5954309999999996">
        <ele>291.425</ele>
        <time>2022-06-19T18:41:06Z</time>
      </trkpt>
      <trkpt lat="42.173742000000146" lon="-1.5953369999999996">
        <ele>291.020</ele>
        <time>2022-06-19T18:41:14Z</time>
      </trkpt>
      <trkpt lat="42.173512000000144" lon="-1.5952779999999995">
        <ele>290.624</ele>
        <time>2022-06-19T18:41:21Z</time>
      </trkpt>
      <trkpt lat="42.173182000000146" lon="-1.5951949999999995">
        <ele>290.426</ele>
        <time>2022-06-19T18:41:30Z</time>
      </trkpt>
      <trkpt lat="42.173045000000144" lon="-1.5951439999999995">
        <ele>290.612</ele>
        <time>2022-06-19T18:41:34Z</time>
      </trkpt>
      <trkpt lat="42.17302400000015" lon="-1.5951129999999996">
        <ele>290.626</ele>
        <time>2022-06-19T18:41:35Z</time>
      </trkpt>
      <trkpt lat="42.173014000000144" lon="-1.5950709999999995">
        <ele>290.629</ele>
        <time>2022-06-19T18:41:36Z</time>
      </trkpt>
      <trkpt lat="42.17304600000014" lon="-1.5949579999999994">
        <ele>290.428</ele>
        <time>2022-06-19T18:41:39Z</time>
      </trkpt>
      <trkpt lat="42.173160000000145" lon="-1.5947919999999993">
        <ele>290.645</ele>
        <time>2022-06-19T18:41:44Z</time>
      </trkpt>
      <trkpt lat="42.17337600000015" lon="-1.5945009999999993">
        <ele>290.647</ele>
        <time>2022-06-19T18:41:53Z</time>
      </trkpt>
      <trkpt lat="42.17344300000015" lon="-1.5944129999999992">
        <ele>290.611</ele>
        <time>2022-06-19T18:41:56Z</time>
      </trkpt>
      <trkpt lat="42.173447000000145" lon="-1.5943799999999992">
        <ele>290.609</ele>
        <time>2022-06-19T18:41:57Z</time>
      </trkpt>
      <trkpt lat="42.17339000000015" lon="-1.5942369999999992">
        <ele>290.625</ele>
        <time>2022-06-19T18:42:01Z</time>
      </trkpt>
      <trkpt lat="42.173174000000145" lon="-1.5939529999999993">
        <ele>290.664</ele>
        <time>2022-06-19T18:42:09Z</time>
      </trkpt>
      <trkpt lat="42.17291300000014" lon="-1.5936539999999992">
        <ele>290.449</ele>
        <time>2022-06-19T18:42:18Z</time>
      </trkpt>
      <trkpt lat="42.172729000000146" lon="-1.5934659999999992">
        <ele>290.483</ele>
        <time>2022-06-19T18:42:24Z</time>
      </trkpt>
      <trkpt lat="42.17248000000015" lon="-1.5933139999999992">
        <ele>290.475</ele>
        <time>2022-06-19T18:42:31Z</time>
      </trkpt>
      <trkpt lat="42.17222300000015" lon="-1.5930869999999993">
        <ele>290.651</ele>
        <time>2022-06-19T18:42:39Z</time>
      </trkpt>
      <trkpt lat="42.17194400000015" lon="-1.5928109999999993">
        <ele>290.865</ele>
        <time>2022-06-19T18:42:48Z</time>
      </trkpt>
      <trkpt lat="42.171712000000156" lon="-1.5925699999999994">
        <ele>290.498</ele>
        <time>2022-06-19T18:42:56Z</time>
      </trkpt>
      <trkpt lat="42.17158100000015" lon="-1.5924469999999993">
        <ele>290.487</ele>
        <time>2022-06-19T18:43:01Z</time>
      </trkpt>
      <trkpt lat="42.17127200000015" lon="-1.5922529999999993">
        <ele>289.843</ele>
        <time>2022-06-19T18:43:10Z</time>
      </trkpt>
      <trkpt lat="42.171012000000154" lon="-1.5920729999999992">
        <ele>289.864</ele>
        <time>2022-06-19T18:43:18Z</time>
      </trkpt>
      <trkpt lat="42.17072600000015" lon="-1.5918899999999991">
        <ele>290.610</ele>
        <time>2022-06-19T18:43:27Z</time>
      </trkpt>
      <trkpt lat="42.17038600000015" lon="-1.591679999999999">
        <ele>291.009</ele>
        <time>2022-06-19T18:43:37Z</time>
      </trkpt>
      <trkpt lat="42.17012800000015" lon="-1.591526999999999">
        <ele>290.875</ele>
        <time>2022-06-19T18:43:45Z</time>
      </trkpt>
      <trkpt lat="42.170053000000145" lon="-1.591413999999999">
        <ele>290.664</ele>
        <time>2022-06-19T18:43:49Z</time>
      </trkpt>
      <trkpt lat="42.170084000000145" lon="-1.591262999999999">
        <ele>290.689</ele>
        <time>2022-06-19T18:43:53Z</time>
      </trkpt>
      <trkpt lat="42.170202000000145" lon="-1.590932999999999">
        <ele>290.483</ele>
        <time>2022-06-19T18:44:00Z</time>
      </trkpt>
      <trkpt lat="42.17037300000015" lon="-1.590484999999999">
        <ele>290.675</ele>
        <time>2022-06-19T18:44:09Z</time>
      </trkpt>
      <trkpt lat="42.170509000000145" lon="-1.590128999999999">
        <ele>290.661</ele>
        <time>2022-06-19T18:44:17Z</time>
      </trkpt>
      <trkpt lat="42.17052100000014" lon="-1.589955999999999">
        <ele>291.035</ele>
        <time>2022-06-19T18:44:21Z</time>
      </trkpt>
      <trkpt lat="42.170402000000145" lon="-1.589871999999999">
        <ele>291.268</ele>
        <time>2022-06-19T18:44:24Z</time>
      </trkpt>
      <trkpt lat="42.17004000000014" lon="-1.589645999999999">
        <ele>291.087</ele>
        <time>2022-06-19T18:44:33Z</time>
      </trkpt>
      <trkpt lat="42.169853000000145" lon="-1.589541999999999">
        <ele>291.055</ele>
        <time>2022-06-19T18:44:38Z</time>
      </trkpt>
      <trkpt lat="42.16978500000015" lon="-1.589489999999999">
        <ele>291.007</ele>
        <time>2022-06-19T18:44:40Z</time>
      </trkpt>
      <trkpt lat="42.16963300000015" lon="-1.589443999999999">
        <ele>290.817</ele>
        <time>2022-06-19T18:44:45Z</time>
      </trkpt>
      <trkpt lat="42.16956400000014" lon="-1.589594999999999">
        <ele>290.809</ele>
        <time>2022-06-19T18:44:49Z</time>
      </trkpt>
      <trkpt lat="42.169546000000146" lon="-1.589818999999999">
        <ele>290.686</ele>
        <time>2022-06-19T18:44:54Z</time>
      </trkpt>
      <trkpt lat="42.16957000000015" lon="-1.589855999999999">
        <ele>290.475</ele>
        <time>2022-06-19T18:44:55Z</time>
      </trkpt>
      <trkpt lat="42.16968200000015" lon="-1.589930999999999">
        <ele>290.230</ele>
        <time>2022-06-19T18:44:58Z</time>
      </trkpt>
      <trkpt lat="42.16997300000015" lon="-1.590125999999999">
        <ele>289.854</ele>
        <time>2022-06-19T18:45:07Z</time>
      </trkpt>
      <trkpt lat="42.17009400000015" lon="-1.590222999999999">
        <ele>290.226</ele>
        <time>2022-06-19T18:45:13Z</time>
      </trkpt>
      <trkpt lat="42.17009900000015" lon="-1.590225999999999">
        <ele>290.462</ele>
        <time>2022-06-19T18:45:16Z</time>
      </trkpt>
    </trkseg>
  </trk>
</gpx>
